<?xml version="1.0" encoding="UTF-8" standalone="no" ?>
<gpx xmlns="http://www.topografix.com/GPX/1/1" xmlns:xsi="http://www.w3.org/2001/XMLSchema-instance" xsi:schemaLocation="http://www.topografix.com/GPX/1/1 http://www.topografix.com/GPX/1/1/gpx.xsd" version="1.1" creator="VisuGPX - https://www.visugpx.com">
  <metadata>
    <name>VacancesDricouZoe</name>
  </metadata>
  <trk>
    <name><![CDATA[Journal actif: 2021-06-29 09:33]]></name>
    <trkseg>
      <trkpt lat="46.32708" lon="2.60921">
        <ele>208.74</ele>
        <time>2021-06-29T11:33:21Z</time>
      </trkpt>
      <trkpt lat="46.32718" lon="2.60913">
        <ele>208.26</ele>
        <time>2021-06-29T11:33:53Z</time>
      </trkpt>
      <trkpt lat="46.32717" lon="2.60909">
        <ele>208.26</ele>
        <time>2021-06-29T11:34:06Z</time>
      </trkpt>
      <trkpt lat="46.32717" lon="2.6089">
        <ele>208.74</ele>
        <time>2021-06-29T11:34:21Z</time>
      </trkpt>
      <trkpt lat="46.32717" lon="2.60889">
        <ele>208.74</ele>
        <time>2021-06-29T11:34:45Z</time>
      </trkpt>
      <trkpt lat="46.32716" lon="2.6089">
        <ele>205.38</ele>
        <time>2021-06-29T11:35:36Z</time>
      </trkpt>
      <trkpt lat="46.32716" lon="2.60892">
        <ele>203.46</ele>
        <time>2021-06-29T11:36:01Z</time>
      </trkpt>
      <trkpt lat="46.32716" lon="2.60892">
        <ele>202.49</ele>
        <time>2021-06-29T11:37:00Z</time>
      </trkpt>
      <trkpt lat="46.32715" lon="2.60889">
        <ele>202.01</ele>
        <time>2021-06-29T11:37:25Z</time>
      </trkpt>
      <trkpt lat="46.32704" lon="2.60886">
        <ele>201.53</ele>
        <time>2021-06-29T11:37:39Z</time>
      </trkpt>
      <trkpt lat="46.32682" lon="2.60865">
        <ele>199.13</ele>
        <time>2021-06-29T11:37:53Z</time>
      </trkpt>
      <trkpt lat="46.32647" lon="2.60867">
        <ele>196.73</ele>
        <time>2021-06-29T11:38:02Z</time>
      </trkpt>
      <trkpt lat="46.32647" lon="2.60867">
        <ele>196.73</ele>
        <time>2021-06-29T11:38:03Z</time>
      </trkpt>
      <trkpt lat="46.32647" lon="2.60867">
        <ele>196.25</ele>
        <time>2021-06-29T11:38:04Z</time>
      </trkpt>
      <trkpt lat="46.32647" lon="2.60867">
        <ele>198.17</ele>
        <time>2021-06-29T11:38:07Z</time>
      </trkpt>
      <trkpt lat="46.32663" lon="2.60866">
        <ele>198.17</ele>
        <time>2021-06-29T11:38:08Z</time>
      </trkpt>
      <trkpt lat="46.32665" lon="2.60866">
        <ele>198.65</ele>
        <time>2021-06-29T11:38:09Z</time>
      </trkpt>
      <trkpt lat="46.32665" lon="2.60866">
        <ele>198.65</ele>
        <time>2021-06-29T11:38:10Z</time>
      </trkpt>
      <trkpt lat="46.32667" lon="2.60866">
        <ele>199.61</ele>
        <time>2021-06-29T11:38:11Z</time>
      </trkpt>
      <trkpt lat="46.32669" lon="2.60866">
        <ele>199.61</ele>
        <time>2021-06-29T11:38:12Z</time>
      </trkpt>
      <trkpt lat="46.32672" lon="2.60866">
        <ele>199.61</ele>
        <time>2021-06-29T11:38:13Z</time>
      </trkpt>
      <trkpt lat="46.32681" lon="2.60865">
        <ele>199.61</ele>
        <time>2021-06-29T11:38:14Z</time>
      </trkpt>
      <trkpt lat="46.32765" lon="2.60865">
        <ele>206.82</ele>
        <time>2021-06-29T11:38:29Z</time>
      </trkpt>
      <trkpt lat="46.32806" lon="2.60867">
        <ele>210.67</ele>
        <time>2021-06-29T11:38:36Z</time>
      </trkpt>
      <trkpt lat="46.3281" lon="2.60867">
        <ele>210.19</ele>
        <time>2021-06-29T11:38:37Z</time>
      </trkpt>
      <trkpt lat="46.32814" lon="2.60867">
        <ele>210.19</ele>
        <time>2021-06-29T11:38:38Z</time>
      </trkpt>
      <trkpt lat="46.32819" lon="2.60867">
        <ele>210.19</ele>
        <time>2021-06-29T11:38:39Z</time>
      </trkpt>
      <trkpt lat="46.3282" lon="2.60858">
        <ele>210.67</ele>
        <time>2021-06-29T11:38:40Z</time>
      </trkpt>
      <trkpt lat="46.3282" lon="2.60852">
        <ele>210.67</ele>
        <time>2021-06-29T11:38:41Z</time>
      </trkpt>
      <trkpt lat="46.32823" lon="2.60838">
        <ele>211.15</ele>
        <time>2021-06-29T11:38:42Z</time>
      </trkpt>
      <trkpt lat="46.32823" lon="2.60838">
        <ele>211.63</ele>
        <time>2021-06-29T11:38:43Z</time>
      </trkpt>
      <trkpt lat="46.32853" lon="2.60725">
        <ele>212.59</ele>
        <time>2021-06-29T11:38:55Z</time>
      </trkpt>
      <trkpt lat="46.3287" lon="2.60661">
        <ele>214.03</ele>
        <time>2021-06-29T11:39:05Z</time>
      </trkpt>
      <trkpt lat="46.32873" lon="2.60649">
        <ele>214.03</ele>
        <time>2021-06-29T11:39:30Z</time>
      </trkpt>
      <trkpt lat="46.32897" lon="2.60568">
        <ele>213.07</ele>
        <time>2021-06-29T11:39:41Z</time>
      </trkpt>
      <trkpt lat="46.32937" lon="2.60423">
        <ele>211.15</ele>
        <time>2021-06-29T11:39:55Z</time>
      </trkpt>
      <trkpt lat="46.32995" lon="2.60259">
        <ele>211.15</ele>
        <time>2021-06-29T11:40:10Z</time>
      </trkpt>
      <trkpt lat="46.33075" lon="2.60083">
        <ele>209.7</ele>
        <time>2021-06-29T11:40:27Z</time>
      </trkpt>
      <trkpt lat="46.33086" lon="2.60058">
        <ele>209.7</ele>
        <time>2021-06-29T11:40:30Z</time>
      </trkpt>
      <trkpt lat="46.33089" lon="2.60052">
        <ele>209.22</ele>
        <time>2021-06-29T11:40:31Z</time>
      </trkpt>
      <trkpt lat="46.33091" lon="2.60047">
        <ele>209.7</ele>
        <time>2021-06-29T11:40:32Z</time>
      </trkpt>
      <trkpt lat="46.33102" lon="2.60043">
        <ele>209.7</ele>
        <time>2021-06-29T11:40:33Z</time>
      </trkpt>
      <trkpt lat="46.33102" lon="2.60043">
        <ele>209.22</ele>
        <time>2021-06-29T11:40:34Z</time>
      </trkpt>
      <trkpt lat="46.33105" lon="2.60046">
        <ele>209.22</ele>
        <time>2021-06-29T11:40:35Z</time>
      </trkpt>
      <trkpt lat="46.33113" lon="2.60045">
        <ele>209.22</ele>
        <time>2021-06-29T11:40:36Z</time>
      </trkpt>
      <trkpt lat="46.33117" lon="2.60042">
        <ele>208.74</ele>
        <time>2021-06-29T11:40:37Z</time>
      </trkpt>
      <trkpt lat="46.33121" lon="2.60034">
        <ele>208.74</ele>
        <time>2021-06-29T11:40:38Z</time>
      </trkpt>
      <trkpt lat="46.33121" lon="2.60028">
        <ele>208.26</ele>
        <time>2021-06-29T11:40:39Z</time>
      </trkpt>
      <trkpt lat="46.3312" lon="2.60022">
        <ele>208.26</ele>
        <time>2021-06-29T11:40:40Z</time>
      </trkpt>
      <trkpt lat="46.33119" lon="2.60015">
        <ele>208.26</ele>
        <time>2021-06-29T11:40:41Z</time>
      </trkpt>
      <trkpt lat="46.33117" lon="2.60013">
        <ele>208.74</ele>
        <time>2021-06-29T11:40:42Z</time>
      </trkpt>
      <trkpt lat="46.33104" lon="2.60003">
        <ele>209.22</ele>
        <time>2021-06-29T11:40:43Z</time>
      </trkpt>
      <trkpt lat="46.33035" lon="2.59923">
        <ele>209.22</ele>
        <time>2021-06-29T11:40:57Z</time>
      </trkpt>
      <trkpt lat="46.33035" lon="2.59923">
        <ele>209.22</ele>
        <time>2021-06-29T11:40:58Z</time>
      </trkpt>
      <trkpt lat="46.33032" lon="2.5992">
        <ele>209.22</ele>
        <time>2021-06-29T11:40:59Z</time>
      </trkpt>
      <trkpt lat="46.33034" lon="2.59911">
        <ele>208.26</ele>
        <time>2021-06-29T11:41:00Z</time>
      </trkpt>
      <trkpt lat="46.33039" lon="2.599">
        <ele>207.78</ele>
        <time>2021-06-29T11:41:01Z</time>
      </trkpt>
      <trkpt lat="46.33041" lon="2.59895">
        <ele>207.3</ele>
        <time>2021-06-29T11:41:02Z</time>
      </trkpt>
      <trkpt lat="46.33042" lon="2.59886">
        <ele>206.82</ele>
        <time>2021-06-29T11:41:03Z</time>
      </trkpt>
      <trkpt lat="46.33042" lon="2.59886">
        <ele>206.82</ele>
        <time>2021-06-29T11:41:04Z</time>
      </trkpt>
      <trkpt lat="46.33042" lon="2.59879">
        <ele>206.34</ele>
        <time>2021-06-29T11:41:05Z</time>
      </trkpt>
      <trkpt lat="46.33036" lon="2.59865">
        <ele>205.86</ele>
        <time>2021-06-29T11:41:06Z</time>
      </trkpt>
      <trkpt lat="46.33036" lon="2.59865">
        <ele>205.86</ele>
        <time>2021-06-29T11:41:07Z</time>
      </trkpt>
      <trkpt lat="46.33032" lon="2.59858">
        <ele>205.86</ele>
        <time>2021-06-29T11:41:08Z</time>
      </trkpt>
      <trkpt lat="46.33027" lon="2.59852">
        <ele>205.38</ele>
        <time>2021-06-29T11:41:09Z</time>
      </trkpt>
      <trkpt lat="46.32967" lon="2.59772">
        <ele>205.38</ele>
        <time>2021-06-29T11:41:21Z</time>
      </trkpt>
      <trkpt lat="46.32908" lon="2.59666">
        <ele>210.67</ele>
        <time>2021-06-29T11:41:33Z</time>
      </trkpt>
      <trkpt lat="46.32898" lon="2.59647">
        <ele>210.19</ele>
        <time>2021-06-29T11:41:37Z</time>
      </trkpt>
      <trkpt lat="46.32898" lon="2.59639">
        <ele>210.19</ele>
        <time>2021-06-29T11:41:38Z</time>
      </trkpt>
      <trkpt lat="46.32929" lon="2.59569">
        <ele>211.63</ele>
        <time>2021-06-29T11:41:47Z</time>
      </trkpt>
      <trkpt lat="46.32932" lon="2.59562">
        <ele>212.59</ele>
        <time>2021-06-29T11:41:55Z</time>
      </trkpt>
      <trkpt lat="46.32942" lon="2.59543">
        <ele>212.11</ele>
        <time>2021-06-29T11:43:16Z</time>
      </trkpt>
      <trkpt lat="46.32989" lon="2.59474">
        <ele>211.15</ele>
        <time>2021-06-29T11:43:28Z</time>
      </trkpt>
      <trkpt lat="46.33034" lon="2.5941">
        <ele>210.67</ele>
        <time>2021-06-29T11:43:39Z</time>
      </trkpt>
      <trkpt lat="46.3313" lon="2.59344">
        <ele>209.7</ele>
        <time>2021-06-29T11:43:52Z</time>
      </trkpt>
      <trkpt lat="46.33285" lon="2.59282">
        <ele>214.51</ele>
        <time>2021-06-29T11:44:08Z</time>
      </trkpt>
      <trkpt lat="46.33421" lon="2.59228">
        <ele>214.99</ele>
        <time>2021-06-29T11:44:22Z</time>
      </trkpt>
      <trkpt lat="46.33523" lon="2.59146">
        <ele>217.4</ele>
        <time>2021-06-29T11:44:34Z</time>
      </trkpt>
      <trkpt lat="46.3363" lon="2.5898">
        <ele>216.43</ele>
        <time>2021-06-29T11:44:49Z</time>
      </trkpt>
      <trkpt lat="46.33685" lon="2.58835">
        <ele>215.95</ele>
        <time>2021-06-29T11:45:01Z</time>
      </trkpt>
      <trkpt lat="46.33692" lon="2.58748">
        <ele>216.91</ele>
        <time>2021-06-29T11:45:10Z</time>
      </trkpt>
      <trkpt lat="46.33692" lon="2.58739">
        <ele>216.91</ele>
        <time>2021-06-29T11:45:18Z</time>
      </trkpt>
      <trkpt lat="46.33699" lon="2.5873">
        <ele>216.91</ele>
        <time>2021-06-29T11:45:20Z</time>
      </trkpt>
      <trkpt lat="46.33697" lon="2.58722">
        <ele>216.43</ele>
        <time>2021-06-29T11:45:21Z</time>
      </trkpt>
      <trkpt lat="46.33698" lon="2.5871">
        <ele>215.95</ele>
        <time>2021-06-29T11:45:23Z</time>
      </trkpt>
      <trkpt lat="46.33722" lon="2.58595">
        <ele>216.91</ele>
        <time>2021-06-29T11:45:36Z</time>
      </trkpt>
      <trkpt lat="46.33737" lon="2.58552">
        <ele>217.4</ele>
        <time>2021-06-29T11:45:44Z</time>
      </trkpt>
      <trkpt lat="46.33744" lon="2.58537">
        <ele>217.4</ele>
        <time>2021-06-29T11:45:45Z</time>
      </trkpt>
      <trkpt lat="46.33744" lon="2.58537">
        <ele>217.4</ele>
        <time>2021-06-29T11:45:46Z</time>
      </trkpt>
      <trkpt lat="46.33745" lon="2.58532">
        <ele>217.4</ele>
        <time>2021-06-29T11:45:47Z</time>
      </trkpt>
      <trkpt lat="46.33748" lon="2.58527">
        <ele>217.4</ele>
        <time>2021-06-29T11:45:48Z</time>
      </trkpt>
      <trkpt lat="46.3375" lon="2.58522">
        <ele>217.4</ele>
        <time>2021-06-29T11:45:49Z</time>
      </trkpt>
      <trkpt lat="46.33752" lon="2.58516">
        <ele>217.88</ele>
        <time>2021-06-29T11:45:50Z</time>
      </trkpt>
      <trkpt lat="46.33754" lon="2.5851">
        <ele>217.4</ele>
        <time>2021-06-29T11:45:51Z</time>
      </trkpt>
      <trkpt lat="46.33803" lon="2.58431">
        <ele>219.8</ele>
        <time>2021-06-29T11:46:03Z</time>
      </trkpt>
      <trkpt lat="46.33808" lon="2.58426">
        <ele>219.8</ele>
        <time>2021-06-29T11:46:04Z</time>
      </trkpt>
      <trkpt lat="46.33878" lon="2.58371">
        <ele>221.24</ele>
        <time>2021-06-29T11:46:16Z</time>
      </trkpt>
      <trkpt lat="46.33932" lon="2.58331">
        <ele>220.76</ele>
        <time>2021-06-29T11:46:27Z</time>
      </trkpt>
      <trkpt lat="46.33942" lon="2.58324">
        <ele>220.28</ele>
        <time>2021-06-29T11:46:30Z</time>
      </trkpt>
      <trkpt lat="46.33977" lon="2.58301">
        <ele>218.36</ele>
        <time>2021-06-29T11:46:41Z</time>
      </trkpt>
      <trkpt lat="46.33977" lon="2.58301">
        <ele>221.72</ele>
        <time>2021-06-29T11:46:52Z</time>
      </trkpt>
      <trkpt lat="46.33999" lon="2.58286">
        <ele>220.76</ele>
        <time>2021-06-29T11:46:59Z</time>
      </trkpt>
      <trkpt lat="46.33998" lon="2.58281">
        <ele>220.76</ele>
        <time>2021-06-29T11:47:00Z</time>
      </trkpt>
      <trkpt lat="46.33997" lon="2.58275">
        <ele>220.76</ele>
        <time>2021-06-29T11:47:01Z</time>
      </trkpt>
      <trkpt lat="46.33995" lon="2.5827">
        <ele>220.76</ele>
        <time>2021-06-29T11:47:02Z</time>
      </trkpt>
      <trkpt lat="46.33993" lon="2.58262">
        <ele>220.76</ele>
        <time>2021-06-29T11:47:03Z</time>
      </trkpt>
      <trkpt lat="46.33958" lon="2.58156">
        <ele>228.45</ele>
        <time>2021-06-29T11:47:12Z</time>
      </trkpt>
      <trkpt lat="46.33867" lon="2.57858">
        <ele>232.3</ele>
        <time>2021-06-29T11:47:33Z</time>
      </trkpt>
      <trkpt lat="46.33848" lon="2.57725">
        <ele>227.97</ele>
        <time>2021-06-29T11:47:44Z</time>
      </trkpt>
      <trkpt lat="46.33841" lon="2.57549">
        <ele>223.16</ele>
        <time>2021-06-29T11:47:56Z</time>
      </trkpt>
      <trkpt lat="46.33839" lon="2.57476">
        <ele>223.64</ele>
        <time>2021-06-29T11:48:03Z</time>
      </trkpt>
      <trkpt lat="46.33839" lon="2.57459">
        <ele>222.68</ele>
        <time>2021-06-29T11:48:14Z</time>
      </trkpt>
      <trkpt lat="46.33837" lon="2.57426">
        <ele>222.68</ele>
        <time>2021-06-29T11:49:08Z</time>
      </trkpt>
      <trkpt lat="46.33832" lon="2.57265">
        <ele>222.68</ele>
        <time>2021-06-29T11:49:18Z</time>
      </trkpt>
      <trkpt lat="46.33819" lon="2.5701">
        <ele>230.85</ele>
        <time>2021-06-29T11:49:34Z</time>
      </trkpt>
      <trkpt lat="46.33814" lon="2.569">
        <ele>233.74</ele>
        <time>2021-06-29T11:49:43Z</time>
      </trkpt>
      <trkpt lat="46.33814" lon="2.56893">
        <ele>234.22</ele>
        <time>2021-06-29T11:49:44Z</time>
      </trkpt>
      <trkpt lat="46.33814" lon="2.56885">
        <ele>234.7</ele>
        <time>2021-06-29T11:49:45Z</time>
      </trkpt>
      <trkpt lat="46.33814" lon="2.56883">
        <ele>234.7</ele>
        <time>2021-06-29T11:49:46Z</time>
      </trkpt>
      <trkpt lat="46.33821" lon="2.56878">
        <ele>234.7</ele>
        <time>2021-06-29T11:49:47Z</time>
      </trkpt>
      <trkpt lat="46.33826" lon="2.56867">
        <ele>234.7</ele>
        <time>2021-06-29T11:49:48Z</time>
      </trkpt>
      <trkpt lat="46.33827" lon="2.5686">
        <ele>235.18</ele>
        <time>2021-06-29T11:49:49Z</time>
      </trkpt>
      <trkpt lat="46.33824" lon="2.56851">
        <ele>235.18</ele>
        <time>2021-06-29T11:49:50Z</time>
      </trkpt>
      <trkpt lat="46.33821" lon="2.56845">
        <ele>235.18</ele>
        <time>2021-06-29T11:49:51Z</time>
      </trkpt>
      <trkpt lat="46.33821" lon="2.56844">
        <ele>235.18</ele>
        <time>2021-06-29T11:49:52Z</time>
      </trkpt>
      <trkpt lat="46.33812" lon="2.5683">
        <ele>236.14</ele>
        <time>2021-06-29T11:49:53Z</time>
      </trkpt>
      <trkpt lat="46.33811" lon="2.56821">
        <ele>236.14</ele>
        <time>2021-06-29T11:49:54Z</time>
      </trkpt>
      <trkpt lat="46.3381" lon="2.5681">
        <ele>236.62</ele>
        <time>2021-06-29T11:49:55Z</time>
      </trkpt>
      <trkpt lat="46.3381" lon="2.56799">
        <ele>237.58</ele>
        <time>2021-06-29T11:49:56Z</time>
      </trkpt>
      <trkpt lat="46.33803" lon="2.56599">
        <ele>245.27</ele>
        <time>2021-06-29T11:50:11Z</time>
      </trkpt>
      <trkpt lat="46.33797" lon="2.56469">
        <ele>246.23</ele>
        <time>2021-06-29T11:50:23Z</time>
      </trkpt>
      <trkpt lat="46.33797" lon="2.56463">
        <ele>246.23</ele>
        <time>2021-06-29T11:50:24Z</time>
      </trkpt>
      <trkpt lat="46.33797" lon="2.56457">
        <ele>246.23</ele>
        <time>2021-06-29T11:50:25Z</time>
      </trkpt>
      <trkpt lat="46.33796" lon="2.56433">
        <ele>245.75</ele>
        <time>2021-06-29T11:50:36Z</time>
      </trkpt>
      <trkpt lat="46.33796" lon="2.56433">
        <ele>245.75</ele>
        <time>2021-06-29T11:55:21Z</time>
      </trkpt>
      <trkpt lat="46.33795" lon="2.56422">
        <ele>243.83</ele>
        <time>2021-06-29T11:56:10Z</time>
      </trkpt>
      <trkpt lat="46.33795" lon="2.56417">
        <ele>244.79</ele>
        <time>2021-06-29T11:56:24Z</time>
      </trkpt>
      <trkpt lat="46.33795" lon="2.5641">
        <ele>245.27</ele>
        <time>2021-06-29T11:58:23Z</time>
      </trkpt>
      <trkpt lat="46.33795" lon="2.56405">
        <ele>245.27</ele>
        <time>2021-06-29T11:58:24Z</time>
      </trkpt>
      <trkpt lat="46.33795" lon="2.564">
        <ele>245.27</ele>
        <time>2021-06-29T11:58:25Z</time>
      </trkpt>
      <trkpt lat="46.33794" lon="2.56394">
        <ele>245.27</ele>
        <time>2021-06-29T11:58:26Z</time>
      </trkpt>
      <trkpt lat="46.33794" lon="2.56387">
        <ele>245.27</ele>
        <time>2021-06-29T11:58:27Z</time>
      </trkpt>
      <trkpt lat="46.33791" lon="2.56282">
        <ele>247.68</ele>
        <time>2021-06-29T11:58:38Z</time>
      </trkpt>
      <trkpt lat="46.33792" lon="2.56242">
        <ele>249.12</ele>
        <time>2021-06-29T11:58:47Z</time>
      </trkpt>
      <trkpt lat="46.33795" lon="2.56236">
        <ele>249.12</ele>
        <time>2021-06-29T11:58:48Z</time>
      </trkpt>
      <trkpt lat="46.33795" lon="2.5623">
        <ele>249.12</ele>
        <time>2021-06-29T11:58:49Z</time>
      </trkpt>
      <trkpt lat="46.33795" lon="2.56224">
        <ele>249.12</ele>
        <time>2021-06-29T11:58:50Z</time>
      </trkpt>
      <trkpt lat="46.33784" lon="2.5621">
        <ele>249.6</ele>
        <time>2021-06-29T11:58:52Z</time>
      </trkpt>
      <trkpt lat="46.33784" lon="2.56202">
        <ele>250.08</ele>
        <time>2021-06-29T11:58:53Z</time>
      </trkpt>
      <trkpt lat="46.33782" lon="2.56085">
        <ele>252.96</ele>
        <time>2021-06-29T11:59:02Z</time>
      </trkpt>
      <trkpt lat="46.33772" lon="2.55868">
        <ele>259.69</ele>
        <time>2021-06-29T11:59:14Z</time>
      </trkpt>
      <trkpt lat="46.33756" lon="2.5545">
        <ele>273.15</ele>
        <time>2021-06-29T11:59:34Z</time>
      </trkpt>
      <trkpt lat="46.33733" lon="2.55057">
        <ele>285.17</ele>
        <time>2021-06-29T11:59:51Z</time>
      </trkpt>
      <trkpt lat="46.33685" lon="2.54807">
        <ele>295.74</ele>
        <time>2021-06-29T12:00:03Z</time>
      </trkpt>
      <trkpt lat="46.33607" lon="2.54587">
        <ele>305.84</ele>
        <time>2021-06-29T12:00:14Z</time>
      </trkpt>
      <trkpt lat="46.33493" lon="2.54309">
        <ele>309.68</ele>
        <time>2021-06-29T12:00:28Z</time>
      </trkpt>
      <trkpt lat="46.33461" lon="2.54222">
        <ele>309.68</ele>
        <time>2021-06-29T12:00:36Z</time>
      </trkpt>
      <trkpt lat="46.3346" lon="2.54214">
        <ele>309.68</ele>
        <time>2021-06-29T12:00:37Z</time>
      </trkpt>
      <trkpt lat="46.33458" lon="2.54205">
        <ele>310.16</ele>
        <time>2021-06-29T12:00:38Z</time>
      </trkpt>
      <trkpt lat="46.33456" lon="2.54195">
        <ele>310.16</ele>
        <time>2021-06-29T12:00:39Z</time>
      </trkpt>
      <trkpt lat="46.3346" lon="2.54176">
        <ele>310.16</ele>
        <time>2021-06-29T12:00:40Z</time>
      </trkpt>
      <trkpt lat="46.3346" lon="2.54176">
        <ele>309.68</ele>
        <time>2021-06-29T12:00:41Z</time>
      </trkpt>
      <trkpt lat="46.33463" lon="2.54166">
        <ele>309.68</ele>
        <time>2021-06-29T12:00:42Z</time>
      </trkpt>
      <trkpt lat="46.33465" lon="2.54156">
        <ele>309.2</ele>
        <time>2021-06-29T12:00:43Z</time>
      </trkpt>
      <trkpt lat="46.33476" lon="2.54115">
        <ele>308.24</ele>
        <time>2021-06-29T12:00:48Z</time>
      </trkpt>
      <trkpt lat="46.33478" lon="2.54108">
        <ele>307.76</ele>
        <time>2021-06-29T12:00:49Z</time>
      </trkpt>
      <trkpt lat="46.33487" lon="2.54103">
        <ele>307.76</ele>
        <time>2021-06-29T12:00:50Z</time>
      </trkpt>
      <trkpt lat="46.33491" lon="2.54102">
        <ele>307.28</ele>
        <time>2021-06-29T12:00:52Z</time>
      </trkpt>
      <trkpt lat="46.33498" lon="2.54096">
        <ele>307.28</ele>
        <time>2021-06-29T12:00:53Z</time>
      </trkpt>
      <trkpt lat="46.33501" lon="2.5409">
        <ele>307.28</ele>
        <time>2021-06-29T12:00:54Z</time>
      </trkpt>
      <trkpt lat="46.335" lon="2.54081">
        <ele>307.28</ele>
        <time>2021-06-29T12:00:55Z</time>
      </trkpt>
      <trkpt lat="46.33499" lon="2.54074">
        <ele>307.28</ele>
        <time>2021-06-29T12:00:56Z</time>
      </trkpt>
      <trkpt lat="46.33499" lon="2.54072">
        <ele>307.28</ele>
        <time>2021-06-29T12:00:57Z</time>
      </trkpt>
      <trkpt lat="46.33486" lon="2.54059">
        <ele>306.8</ele>
        <time>2021-06-29T12:00:58Z</time>
      </trkpt>
      <trkpt lat="46.33487" lon="2.54051">
        <ele>306.8</ele>
        <time>2021-06-29T12:00:59Z</time>
      </trkpt>
      <trkpt lat="46.33487" lon="2.54042">
        <ele>306.8</ele>
        <time>2021-06-29T12:01:00Z</time>
      </trkpt>
      <trkpt lat="46.33492" lon="2.53916">
        <ele>306.32</ele>
        <time>2021-06-29T12:01:09Z</time>
      </trkpt>
      <trkpt lat="46.33465" lon="2.53786">
        <ele>305.84</ele>
        <time>2021-06-29T12:01:17Z</time>
      </trkpt>
      <trkpt lat="46.33364" lon="2.53616">
        <ele>309.68</ele>
        <time>2021-06-29T12:01:29Z</time>
      </trkpt>
      <trkpt lat="46.33283" lon="2.53489">
        <ele>314.01</ele>
        <time>2021-06-29T12:01:41Z</time>
      </trkpt>
      <trkpt lat="46.33279" lon="2.53483">
        <ele>314.01</ele>
        <time>2021-06-29T12:01:42Z</time>
      </trkpt>
      <trkpt lat="46.33277" lon="2.53479">
        <ele>314.49</ele>
        <time>2021-06-29T12:01:43Z</time>
      </trkpt>
      <trkpt lat="46.33275" lon="2.53475">
        <ele>314.49</ele>
        <time>2021-06-29T12:01:44Z</time>
      </trkpt>
      <trkpt lat="46.33274" lon="2.53473">
        <ele>314.97</ele>
        <time>2021-06-29T12:01:45Z</time>
      </trkpt>
      <trkpt lat="46.3328" lon="2.53469">
        <ele>314.97</ele>
        <time>2021-06-29T12:01:46Z</time>
      </trkpt>
      <trkpt lat="46.33283" lon="2.53465">
        <ele>314.97</ele>
        <time>2021-06-29T12:01:47Z</time>
      </trkpt>
      <trkpt lat="46.33286" lon="2.53459">
        <ele>314.97</ele>
        <time>2021-06-29T12:01:48Z</time>
      </trkpt>
      <trkpt lat="46.33289" lon="2.53454">
        <ele>314.49</ele>
        <time>2021-06-29T12:01:49Z</time>
      </trkpt>
      <trkpt lat="46.33289" lon="2.53454">
        <ele>314.97</ele>
        <time>2021-06-29T12:01:50Z</time>
      </trkpt>
      <trkpt lat="46.33303" lon="2.53433">
        <ele>314.49</ele>
        <time>2021-06-29T12:01:51Z</time>
      </trkpt>
      <trkpt lat="46.33303" lon="2.53433">
        <ele>314.49</ele>
        <time>2021-06-29T12:01:52Z</time>
      </trkpt>
      <trkpt lat="46.3331" lon="2.53434">
        <ele>314.49</ele>
        <time>2021-06-29T12:01:53Z</time>
      </trkpt>
      <trkpt lat="46.33318" lon="2.53435">
        <ele>314.49</ele>
        <time>2021-06-29T12:01:54Z</time>
      </trkpt>
      <trkpt lat="46.33326" lon="2.53437">
        <ele>314.01</ele>
        <time>2021-06-29T12:01:55Z</time>
      </trkpt>
      <trkpt lat="46.3334" lon="2.53449">
        <ele>313.53</ele>
        <time>2021-06-29T12:01:56Z</time>
      </trkpt>
      <trkpt lat="46.3334" lon="2.53449">
        <ele>313.05</ele>
        <time>2021-06-29T12:01:57Z</time>
      </trkpt>
      <trkpt lat="46.33388" lon="2.53517">
        <ele>306.8</ele>
        <time>2021-06-29T12:02:04Z</time>
      </trkpt>
      <trkpt lat="46.33393" lon="2.53526">
        <ele>306.32</ele>
        <time>2021-06-29T12:02:05Z</time>
      </trkpt>
      <trkpt lat="46.33393" lon="2.53526">
        <ele>305.84</ele>
        <time>2021-06-29T12:02:06Z</time>
      </trkpt>
      <trkpt lat="46.33394" lon="2.53537">
        <ele>305.36</ele>
        <time>2021-06-29T12:02:07Z</time>
      </trkpt>
      <trkpt lat="46.33395" lon="2.53549">
        <ele>304.39</ele>
        <time>2021-06-29T12:02:08Z</time>
      </trkpt>
      <trkpt lat="46.33396" lon="2.53561">
        <ele>303.91</ele>
        <time>2021-06-29T12:02:09Z</time>
      </trkpt>
      <trkpt lat="46.3339" lon="2.53586">
        <ele>303.43</ele>
        <time>2021-06-29T12:02:10Z</time>
      </trkpt>
      <trkpt lat="46.33385" lon="2.53598">
        <ele>302.95</ele>
        <time>2021-06-29T12:02:11Z</time>
      </trkpt>
      <trkpt lat="46.33376" lon="2.53608">
        <ele>302.47</ele>
        <time>2021-06-29T12:02:12Z</time>
      </trkpt>
      <trkpt lat="46.33367" lon="2.53618">
        <ele>301.51</ele>
        <time>2021-06-29T12:02:13Z</time>
      </trkpt>
      <trkpt lat="46.33356" lon="2.53624">
        <ele>302.47</ele>
        <time>2021-06-29T12:02:14Z</time>
      </trkpt>
      <trkpt lat="46.33345" lon="2.5363">
        <ele>302.95</ele>
        <time>2021-06-29T12:02:15Z</time>
      </trkpt>
      <trkpt lat="46.33333" lon="2.53636">
        <ele>302.95</ele>
        <time>2021-06-29T12:02:16Z</time>
      </trkpt>
      <trkpt lat="46.33221" lon="2.53666">
        <ele>303.43</ele>
        <time>2021-06-29T12:02:24Z</time>
      </trkpt>
      <trkpt lat="46.33043" lon="2.53665">
        <ele>304.39</ele>
        <time>2021-06-29T12:02:33Z</time>
      </trkpt>
      <trkpt lat="46.32858" lon="2.53594">
        <ele>304.39</ele>
        <time>2021-06-29T12:02:42Z</time>
      </trkpt>
      <trkpt lat="46.32706" lon="2.53468">
        <ele>308.72</ele>
        <time>2021-06-29T12:02:50Z</time>
      </trkpt>
      <trkpt lat="46.32551" lon="2.53237">
        <ele>316.89</ele>
        <time>2021-06-29T12:02:59Z</time>
      </trkpt>
      <trkpt lat="46.32444" lon="2.5296">
        <ele>322.66</ele>
        <time>2021-06-29T12:03:09Z</time>
      </trkpt>
      <trkpt lat="46.32263" lon="2.52432">
        <ele>335.64</ele>
        <time>2021-06-29T12:03:29Z</time>
      </trkpt>
      <trkpt lat="46.32138" lon="2.52003">
        <ele>346.21</ele>
        <time>2021-06-29T12:03:43Z</time>
      </trkpt>
      <trkpt lat="46.3198" lon="2.51236">
        <ele>368.32</ele>
        <time>2021-06-29T12:04:09Z</time>
      </trkpt>
      <trkpt lat="46.31812" lon="2.50423">
        <ele>386.59</ele>
        <time>2021-06-29T12:04:35Z</time>
      </trkpt>
      <trkpt lat="46.31715" lon="2.49862">
        <ele>391.39</ele>
        <time>2021-06-29T12:04:53Z</time>
      </trkpt>
      <trkpt lat="46.31682" lon="2.49316">
        <ele>390.91</ele>
        <time>2021-06-29T12:05:10Z</time>
      </trkpt>
      <trkpt lat="46.31636" lon="2.48514">
        <ele>397.64</ele>
        <time>2021-06-29T12:05:35Z</time>
      </trkpt>
      <trkpt lat="46.31576" lon="2.48046">
        <ele>400.53</ele>
        <time>2021-06-29T12:05:50Z</time>
      </trkpt>
      <trkpt lat="46.3147" lon="2.47587">
        <ele>403.89</ele>
        <time>2021-06-29T12:06:05Z</time>
      </trkpt>
      <trkpt lat="46.31325" lon="2.47175">
        <ele>408.7</ele>
        <time>2021-06-29T12:06:19Z</time>
      </trkpt>
      <trkpt lat="46.31117" lon="2.46674">
        <ele>424.08</ele>
        <time>2021-06-29T12:06:37Z</time>
      </trkpt>
      <trkpt lat="46.30977" lon="2.46227">
        <ele>439.46</ele>
        <time>2021-06-29T12:06:53Z</time>
      </trkpt>
      <trkpt lat="46.30751" lon="2.45461">
        <ele>445.23</ele>
        <time>2021-06-29T12:07:20Z</time>
      </trkpt>
      <trkpt lat="46.30556" lon="2.44799">
        <ele>434.65</ele>
        <time>2021-06-29T12:07:43Z</time>
      </trkpt>
      <trkpt lat="46.30419" lon="2.44414">
        <ele>444.75</ele>
        <time>2021-06-29T12:07:57Z</time>
      </trkpt>
      <trkpt lat="46.30235" lon="2.44054">
        <ele>458.69</ele>
        <time>2021-06-29T12:08:12Z</time>
      </trkpt>
      <trkpt lat="46.29995" lon="2.43707">
        <ele>475.99</ele>
        <time>2021-06-29T12:08:29Z</time>
      </trkpt>
      <trkpt lat="46.29777" lon="2.43362">
        <ele>480.32</ele>
        <time>2021-06-29T12:08:44Z</time>
      </trkpt>
      <trkpt lat="46.29616" lon="2.43005">
        <ele>475.99</ele>
        <time>2021-06-29T12:08:57Z</time>
      </trkpt>
      <trkpt lat="46.29346" lon="2.42253">
        <ele>467.82</ele>
        <time>2021-06-29T12:09:22Z</time>
      </trkpt>
      <trkpt lat="46.29022" lon="2.41359">
        <ele>463.01</ele>
        <time>2021-06-29T12:09:51Z</time>
      </trkpt>
      <trkpt lat="46.28822" lon="2.40866">
        <ele>458.69</ele>
        <time>2021-06-29T12:10:09Z</time>
      </trkpt>
      <trkpt lat="46.28616" lon="2.40502">
        <ele>457.24</ele>
        <time>2021-06-29T12:10:23Z</time>
      </trkpt>
      <trkpt lat="46.28214" lon="2.39832">
        <ele>444.27</ele>
        <time>2021-06-29T12:10:48Z</time>
      </trkpt>
      <trkpt lat="46.27884" lon="2.39288">
        <ele>451.96</ele>
        <time>2021-06-29T12:11:10Z</time>
      </trkpt>
      <trkpt lat="46.27489" lon="2.38634">
        <ele>443.79</ele>
        <time>2021-06-29T12:11:36Z</time>
      </trkpt>
      <trkpt lat="46.27159" lon="2.38088">
        <ele>445.71</ele>
        <time>2021-06-29T12:11:57Z</time>
      </trkpt>
      <trkpt lat="46.26793" lon="2.37482">
        <ele>434.17</ele>
        <time>2021-06-29T12:12:20Z</time>
      </trkpt>
      <trkpt lat="46.26451" lon="2.36915">
        <ele>442.82</ele>
        <time>2021-06-29T12:12:42Z</time>
      </trkpt>
      <trkpt lat="46.26208" lon="2.36558">
        <ele>447.63</ele>
        <time>2021-06-29T12:12:57Z</time>
      </trkpt>
      <trkpt lat="46.25896" lon="2.36199">
        <ele>451.96</ele>
        <time>2021-06-29T12:13:13Z</time>
      </trkpt>
      <trkpt lat="46.25552" lon="2.35826">
        <ele>446.67</ele>
        <time>2021-06-29T12:13:33Z</time>
      </trkpt>
      <trkpt lat="46.25123" lon="2.35351">
        <ele>431.29</ele>
        <time>2021-06-29T12:13:57Z</time>
      </trkpt>
      <trkpt lat="46.24839" lon="2.3501">
        <ele>420.71</ele>
        <time>2021-06-29T12:14:13Z</time>
      </trkpt>
      <trkpt lat="46.24685" lon="2.34725">
        <ele>408.7</ele>
        <time>2021-06-29T12:14:23Z</time>
      </trkpt>
      <trkpt lat="46.24453" lon="2.3421">
        <ele>399.57</ele>
        <time>2021-06-29T12:14:43Z</time>
      </trkpt>
      <trkpt lat="46.24245" lon="2.33745">
        <ele>392.84</ele>
        <time>2021-06-29T12:14:59Z</time>
      </trkpt>
      <trkpt lat="46.24034" lon="2.33241">
        <ele>390.43</ele>
        <time>2021-06-29T12:15:16Z</time>
      </trkpt>
      <trkpt lat="46.23888" lon="2.32771">
        <ele>396.68</ele>
        <time>2021-06-29T12:15:31Z</time>
      </trkpt>
      <trkpt lat="46.23703" lon="2.32219">
        <ele>408.7</ele>
        <time>2021-06-29T12:15:49Z</time>
      </trkpt>
      <trkpt lat="46.23518" lon="2.31826">
        <ele>414.47</ele>
        <time>2021-06-29T12:16:03Z</time>
      </trkpt>
      <trkpt lat="46.23217" lon="2.31335">
        <ele>409.18</ele>
        <time>2021-06-29T12:16:22Z</time>
      </trkpt>
      <trkpt lat="46.22818" lon="2.30695">
        <ele>399.57</ele>
        <time>2021-06-29T12:16:47Z</time>
      </trkpt>
      <trkpt lat="46.22501" lon="2.30211">
        <ele>390.43</ele>
        <time>2021-06-29T12:17:07Z</time>
      </trkpt>
      <trkpt lat="46.2226" lon="2.29933">
        <ele>381.78</ele>
        <time>2021-06-29T12:17:20Z</time>
      </trkpt>
      <trkpt lat="46.22099" lon="2.29678">
        <ele>373.61</ele>
        <time>2021-06-29T12:17:30Z</time>
      </trkpt>
      <trkpt lat="46.21916" lon="2.29267">
        <ele>365.92</ele>
        <time>2021-06-29T12:17:44Z</time>
      </trkpt>
      <trkpt lat="46.21603" lon="2.2854">
        <ele>362.07</ele>
        <time>2021-06-29T12:18:08Z</time>
      </trkpt>
      <trkpt lat="46.21429" lon="2.28217">
        <ele>366.4</ele>
        <time>2021-06-29T12:18:19Z</time>
      </trkpt>
      <trkpt lat="46.2108" lon="2.2765">
        <ele>366.88</ele>
        <time>2021-06-29T12:18:39Z</time>
      </trkpt>
      <trkpt lat="46.2075" lon="2.27116">
        <ele>370.73</ele>
        <time>2021-06-29T12:18:59Z</time>
      </trkpt>
      <trkpt lat="46.20489" lon="2.26638">
        <ele>361.11</ele>
        <time>2021-06-29T12:19:15Z</time>
      </trkpt>
      <trkpt lat="46.20127" lon="2.25907">
        <ele>366.4</ele>
        <time>2021-06-29T12:19:41Z</time>
      </trkpt>
      <trkpt lat="46.1991" lon="2.25443">
        <ele>367.36</ele>
        <time>2021-06-29T12:19:57Z</time>
      </trkpt>
      <trkpt lat="46.19857" lon="2.2522">
        <ele>372.17</ele>
        <time>2021-06-29T12:20:04Z</time>
      </trkpt>
      <trkpt lat="46.19848" lon="2.24957">
        <ele>373.13</ele>
        <time>2021-06-29T12:20:12Z</time>
      </trkpt>
      <trkpt lat="46.19892" lon="2.24664">
        <ele>371.21</ele>
        <time>2021-06-29T12:20:21Z</time>
      </trkpt>
      <trkpt lat="46.19924" lon="2.24329">
        <ele>370.73</ele>
        <time>2021-06-29T12:20:31Z</time>
      </trkpt>
      <trkpt lat="46.19909" lon="2.23986">
        <ele>370.24</ele>
        <time>2021-06-29T12:20:41Z</time>
      </trkpt>
      <trkpt lat="46.19848" lon="2.23652">
        <ele>370.73</ele>
        <time>2021-06-29T12:20:51Z</time>
      </trkpt>
      <trkpt lat="46.1967" lon="2.22874">
        <ele>376.49</ele>
        <time>2021-06-29T12:21:14Z</time>
      </trkpt>
      <trkpt lat="46.19543" lon="2.22246">
        <ele>380.82</ele>
        <time>2021-06-29T12:21:32Z</time>
      </trkpt>
      <trkpt lat="46.1954" lon="2.21921">
        <ele>379.38</ele>
        <time>2021-06-29T12:21:41Z</time>
      </trkpt>
      <trkpt lat="46.19601" lon="2.21571">
        <ele>381.3</ele>
        <time>2021-06-29T12:21:51Z</time>
      </trkpt>
      <trkpt lat="46.19777" lon="2.20714">
        <ele>383.22</ele>
        <time>2021-06-29T12:22:15Z</time>
      </trkpt>
      <trkpt lat="46.19809" lon="2.20387">
        <ele>386.11</ele>
        <time>2021-06-29T12:22:24Z</time>
      </trkpt>
      <trkpt lat="46.19796" lon="2.19977">
        <ele>389.95</ele>
        <time>2021-06-29T12:22:35Z</time>
      </trkpt>
      <trkpt lat="46.19741" lon="2.19027">
        <ele>397.64</ele>
        <time>2021-06-29T12:23:01Z</time>
      </trkpt>
      <trkpt lat="46.19684" lon="2.18677">
        <ele>405.81</ele>
        <time>2021-06-29T12:23:11Z</time>
      </trkpt>
      <trkpt lat="46.19567" lon="2.18227">
        <ele>421.19</ele>
        <time>2021-06-29T12:23:25Z</time>
      </trkpt>
      <trkpt lat="46.19401" lon="2.17534">
        <ele>428.89</ele>
        <time>2021-06-29T12:23:46Z</time>
      </trkpt>
      <trkpt lat="46.19383" lon="2.17218">
        <ele>425.04</ele>
        <time>2021-06-29T12:23:56Z</time>
      </trkpt>
      <trkpt lat="46.19409" lon="2.16852">
        <ele>413.98</ele>
        <time>2021-06-29T12:24:05Z</time>
      </trkpt>
      <trkpt lat="46.19499" lon="2.16205">
        <ele>401.01</ele>
        <time>2021-06-29T12:24:23Z</time>
      </trkpt>
      <trkpt lat="46.19579" lon="2.15644">
        <ele>394.76</ele>
        <time>2021-06-29T12:24:37Z</time>
      </trkpt>
      <trkpt lat="46.19704" lon="2.14757">
        <ele>388.99</ele>
        <time>2021-06-29T12:25:02Z</time>
      </trkpt>
      <trkpt lat="46.19781" lon="2.14318">
        <ele>390.43</ele>
        <time>2021-06-29T12:25:14Z</time>
      </trkpt>
      <trkpt lat="46.19895" lon="2.13743">
        <ele>391.87</ele>
        <time>2021-06-29T12:25:29Z</time>
      </trkpt>
      <trkpt lat="46.19938" lon="2.13262">
        <ele>401.97</ele>
        <time>2021-06-29T12:25:43Z</time>
      </trkpt>
      <trkpt lat="46.20012" lon="2.12396">
        <ele>394.76</ele>
        <time>2021-06-29T12:26:06Z</time>
      </trkpt>
      <trkpt lat="46.20095" lon="2.11433">
        <ele>397.64</ele>
        <time>2021-06-29T12:26:31Z</time>
      </trkpt>
      <trkpt lat="46.20162" lon="2.10655">
        <ele>411.1</ele>
        <time>2021-06-29T12:26:51Z</time>
      </trkpt>
      <trkpt lat="46.20214" lon="2.10224">
        <ele>426.96</ele>
        <time>2021-06-29T12:27:04Z</time>
      </trkpt>
      <trkpt lat="46.20307" lon="2.09942">
        <ele>435.61</ele>
        <time>2021-06-29T12:27:13Z</time>
      </trkpt>
      <trkpt lat="46.20461" lon="2.09578">
        <ele>440.9</ele>
        <time>2021-06-29T12:27:25Z</time>
      </trkpt>
      <trkpt lat="46.20523" lon="2.093">
        <ele>442.34</ele>
        <time>2021-06-29T12:27:33Z</time>
      </trkpt>
      <trkpt lat="46.20532" lon="2.09">
        <ele>445.71</ele>
        <time>2021-06-29T12:27:41Z</time>
      </trkpt>
      <trkpt lat="46.20491" lon="2.08445">
        <ele>462.05</ele>
        <time>2021-06-29T12:27:56Z</time>
      </trkpt>
      <trkpt lat="46.20431" lon="2.07774">
        <ele>469.26</ele>
        <time>2021-06-29T12:28:15Z</time>
      </trkpt>
      <trkpt lat="46.2036" lon="2.07355">
        <ele>473.11</ele>
        <time>2021-06-29T12:28:27Z</time>
      </trkpt>
      <trkpt lat="46.20341" lon="2.06957">
        <ele>478.39</ele>
        <time>2021-06-29T12:28:38Z</time>
      </trkpt>
      <trkpt lat="46.20368" lon="2.06508">
        <ele>482.24</ele>
        <time>2021-06-29T12:28:50Z</time>
      </trkpt>
      <trkpt lat="46.20445" lon="2.05547">
        <ele>494.74</ele>
        <time>2021-06-29T12:29:15Z</time>
      </trkpt>
      <trkpt lat="46.20486" lon="2.04989">
        <ele>504.35</ele>
        <time>2021-06-29T12:29:30Z</time>
      </trkpt>
      <trkpt lat="46.20476" lon="2.04585">
        <ele>510.6</ele>
        <time>2021-06-29T12:29:41Z</time>
      </trkpt>
      <trkpt lat="46.20487" lon="2.04254">
        <ele>514.92</ele>
        <time>2021-06-29T12:29:50Z</time>
      </trkpt>
      <trkpt lat="46.20556" lon="2.03817">
        <ele>519.25</ele>
        <time>2021-06-29T12:30:02Z</time>
      </trkpt>
      <trkpt lat="46.20598" lon="2.03408">
        <ele>521.17</ele>
        <time>2021-06-29T12:30:13Z</time>
      </trkpt>
      <trkpt lat="46.20659" lon="2.02608">
        <ele>516.85</ele>
        <time>2021-06-29T12:30:34Z</time>
      </trkpt>
      <trkpt lat="46.20721" lon="2.01763">
        <ele>499.06</ele>
        <time>2021-06-29T12:30:56Z</time>
      </trkpt>
      <trkpt lat="46.20729" lon="2.01432">
        <ele>491.85</ele>
        <time>2021-06-29T12:31:05Z</time>
      </trkpt>
      <trkpt lat="46.20686" lon="2.01077">
        <ele>484.16</ele>
        <time>2021-06-29T12:31:15Z</time>
      </trkpt>
      <trkpt lat="46.20584" lon="2.00705">
        <ele>480.8</ele>
        <time>2021-06-29T12:31:26Z</time>
      </trkpt>
      <trkpt lat="46.2048" lon="2.00293">
        <ele>477.91</ele>
        <time>2021-06-29T12:31:38Z</time>
      </trkpt>
      <trkpt lat="46.20432" lon="1.99894">
        <ele>475.51</ele>
        <time>2021-06-29T12:31:49Z</time>
      </trkpt>
      <trkpt lat="46.20432" lon="1.9945">
        <ele>468.78</ele>
        <time>2021-06-29T12:32:00Z</time>
      </trkpt>
      <trkpt lat="46.20458" lon="1.98998">
        <ele>461.09</ele>
        <time>2021-06-29T12:32:13Z</time>
      </trkpt>
      <trkpt lat="46.20442" lon="1.98708">
        <ele>457.24</ele>
        <time>2021-06-29T12:32:23Z</time>
      </trkpt>
      <trkpt lat="46.20375" lon="1.98365">
        <ele>456.28</ele>
        <time>2021-06-29T12:32:34Z</time>
      </trkpt>
      <trkpt lat="46.20279" lon="1.98072">
        <ele>457.72</ele>
        <time>2021-06-29T12:32:45Z</time>
      </trkpt>
      <trkpt lat="46.20193" lon="1.97747">
        <ele>454.36</ele>
        <time>2021-06-29T12:32:57Z</time>
      </trkpt>
      <trkpt lat="46.20117" lon="1.97354">
        <ele>447.15</ele>
        <time>2021-06-29T12:33:13Z</time>
      </trkpt>
      <trkpt lat="46.19998" lon="1.96749">
        <ele>434.65</ele>
        <time>2021-06-29T12:33:36Z</time>
      </trkpt>
      <trkpt lat="46.19895" lon="1.96308">
        <ele>423.12</ele>
        <time>2021-06-29T12:33:52Z</time>
      </trkpt>
      <trkpt lat="46.19769" lon="1.95993">
        <ele>410.14</ele>
        <time>2021-06-29T12:34:06Z</time>
      </trkpt>
      <trkpt lat="46.19569" lon="1.95599">
        <ele>391.39</ele>
        <time>2021-06-29T12:34:24Z</time>
      </trkpt>
      <trkpt lat="46.19412" lon="1.95436">
        <ele>379.86</ele>
        <time>2021-06-29T12:34:34Z</time>
      </trkpt>
      <trkpt lat="46.19202" lon="1.95322">
        <ele>371.21</ele>
        <time>2021-06-29T12:34:45Z</time>
      </trkpt>
      <trkpt lat="46.19054" lon="1.95201">
        <ele>363.04</ele>
        <time>2021-06-29T12:34:54Z</time>
      </trkpt>
      <trkpt lat="46.18981" lon="1.95067">
        <ele>353.9</ele>
        <time>2021-06-29T12:35:01Z</time>
      </trkpt>
      <trkpt lat="46.18927" lon="1.94856">
        <ele>344.29</ele>
        <time>2021-06-29T12:35:09Z</time>
      </trkpt>
      <trkpt lat="46.18905" lon="1.94514">
        <ele>330.83</ele>
        <time>2021-06-29T12:35:21Z</time>
      </trkpt>
      <trkpt lat="46.18875" lon="1.93862">
        <ele>334.68</ele>
        <time>2021-06-29T12:35:44Z</time>
      </trkpt>
      <trkpt lat="46.18835" lon="1.93382">
        <ele>346.21</ele>
        <time>2021-06-29T12:36:01Z</time>
      </trkpt>
      <trkpt lat="46.18753" lon="1.93116">
        <ele>350.06</ele>
        <time>2021-06-29T12:36:11Z</time>
      </trkpt>
      <trkpt lat="46.18449" lon="1.9236">
        <ele>353.9</ele>
        <time>2021-06-29T12:36:40Z</time>
      </trkpt>
      <trkpt lat="46.18169" lon="1.91679">
        <ele>367.84</ele>
        <time>2021-06-29T12:37:05Z</time>
      </trkpt>
      <trkpt lat="46.18041" lon="1.91324">
        <ele>372.65</ele>
        <time>2021-06-29T12:37:17Z</time>
      </trkpt>
      <trkpt lat="46.17938" lon="1.90877">
        <ele>384.18</ele>
        <time>2021-06-29T12:37:31Z</time>
      </trkpt>
      <trkpt lat="46.17797" lon="1.9018">
        <ele>394.76</ele>
        <time>2021-06-29T12:37:53Z</time>
      </trkpt>
      <trkpt lat="46.17781" lon="1.89925">
        <ele>394.76</ele>
        <time>2021-06-29T12:38:01Z</time>
      </trkpt>
      <trkpt lat="46.17815" lon="1.89671">
        <ele>398.6</ele>
        <time>2021-06-29T12:38:09Z</time>
      </trkpt>
      <trkpt lat="46.17986" lon="1.88967">
        <ele>405.81</ele>
        <time>2021-06-29T12:38:31Z</time>
      </trkpt>
      <trkpt lat="46.18182" lon="1.88158">
        <ele>395.24</ele>
        <time>2021-06-29T12:38:55Z</time>
      </trkpt>
      <trkpt lat="46.18293" lon="1.87575">
        <ele>397.64</ele>
        <time>2021-06-29T12:39:12Z</time>
      </trkpt>
      <trkpt lat="46.18409" lon="1.86855">
        <ele>400.53</ele>
        <time>2021-06-29T12:39:33Z</time>
      </trkpt>
      <trkpt lat="46.18478" lon="1.86309">
        <ele>388.51</ele>
        <time>2021-06-29T12:39:49Z</time>
      </trkpt>
      <trkpt lat="46.18498" lon="1.85803">
        <ele>375.05</ele>
        <time>2021-06-29T12:40:03Z</time>
      </trkpt>
      <trkpt lat="46.18475" lon="1.8522">
        <ele>380.34</ele>
        <time>2021-06-29T12:40:19Z</time>
      </trkpt>
      <trkpt lat="46.18465" lon="1.84572">
        <ele>393.8</ele>
        <time>2021-06-29T12:40:36Z</time>
      </trkpt>
      <trkpt lat="46.1852" lon="1.83902">
        <ele>409.66</ele>
        <time>2021-06-29T12:40:56Z</time>
      </trkpt>
      <trkpt lat="46.18564" lon="1.8339">
        <ele>411.1</ele>
        <time>2021-06-29T12:41:11Z</time>
      </trkpt>
      <trkpt lat="46.18606" lon="1.82786">
        <ele>413.98</ele>
        <time>2021-06-29T12:41:29Z</time>
      </trkpt>
      <trkpt lat="46.18627" lon="1.82445">
        <ele>418.79</ele>
        <time>2021-06-29T12:41:39Z</time>
      </trkpt>
      <trkpt lat="46.18692" lon="1.82189">
        <ele>433.69</ele>
        <time>2021-06-29T12:41:47Z</time>
      </trkpt>
      <trkpt lat="46.18774" lon="1.81853">
        <ele>446.67</ele>
        <time>2021-06-29T12:41:58Z</time>
      </trkpt>
      <trkpt lat="46.18833" lon="1.81498">
        <ele>464.45</ele>
        <time>2021-06-29T12:42:10Z</time>
      </trkpt>
      <trkpt lat="46.18935" lon="1.81246">
        <ele>473.59</ele>
        <time>2021-06-29T12:42:19Z</time>
      </trkpt>
      <trkpt lat="46.19088" lon="1.80894">
        <ele>494.74</ele>
        <time>2021-06-29T12:42:35Z</time>
      </trkpt>
      <trkpt lat="46.19187" lon="1.80527">
        <ele>505.31</ele>
        <time>2021-06-29T12:42:48Z</time>
      </trkpt>
      <trkpt lat="46.19282" lon="1.80167">
        <ele>503.87</ele>
        <time>2021-06-29T12:43:01Z</time>
      </trkpt>
      <trkpt lat="46.19435" lon="1.79587">
        <ele>494.74</ele>
        <time>2021-06-29T12:43:19Z</time>
      </trkpt>
      <trkpt lat="46.19612" lon="1.78905">
        <ele>490.41</ele>
        <time>2021-06-29T12:43:40Z</time>
      </trkpt>
      <trkpt lat="46.19687" lon="1.78565">
        <ele>485.12</ele>
        <time>2021-06-29T12:43:51Z</time>
      </trkpt>
      <trkpt lat="46.19784" lon="1.77985">
        <ele>500.5</ele>
        <time>2021-06-29T12:44:10Z</time>
      </trkpt>
      <trkpt lat="46.1978" lon="1.77743">
        <ele>501.95</ele>
        <time>2021-06-29T12:44:18Z</time>
      </trkpt>
      <trkpt lat="46.1973" lon="1.77509">
        <ele>501.46</ele>
        <time>2021-06-29T12:44:26Z</time>
      </trkpt>
      <trkpt lat="46.19673" lon="1.77239">
        <ele>498.1</ele>
        <time>2021-06-29T12:44:36Z</time>
      </trkpt>
      <trkpt lat="46.19669" lon="1.76958">
        <ele>490.89</ele>
        <time>2021-06-29T12:44:46Z</time>
      </trkpt>
      <trkpt lat="46.19718" lon="1.76636">
        <ele>474.55</ele>
        <time>2021-06-29T12:44:57Z</time>
      </trkpt>
      <trkpt lat="46.1981" lon="1.7608">
        <ele>450.52</ele>
        <time>2021-06-29T12:45:14Z</time>
      </trkpt>
      <trkpt lat="46.19925" lon="1.75519">
        <ele>456.28</ele>
        <time>2021-06-29T12:45:30Z</time>
      </trkpt>
      <trkpt lat="46.20017" lon="1.7532">
        <ele>454.36</ele>
        <time>2021-06-29T12:45:38Z</time>
      </trkpt>
      <trkpt lat="46.20162" lon="1.7514">
        <ele>450.52</ele>
        <time>2021-06-29T12:45:46Z</time>
      </trkpt>
      <trkpt lat="46.2034" lon="1.75028">
        <ele>446.67</ele>
        <time>2021-06-29T12:45:54Z</time>
      </trkpt>
      <trkpt lat="46.20581" lon="1.74976">
        <ele>446.19</ele>
        <time>2021-06-29T12:46:03Z</time>
      </trkpt>
      <trkpt lat="46.208" lon="1.74912">
        <ele>451</ele>
        <time>2021-06-29T12:46:13Z</time>
      </trkpt>
      <trkpt lat="46.21004" lon="1.7476">
        <ele>453.88</ele>
        <time>2021-06-29T12:46:22Z</time>
      </trkpt>
      <trkpt lat="46.2114" lon="1.74602">
        <ele>458.69</ele>
        <time>2021-06-29T12:46:29Z</time>
      </trkpt>
      <trkpt lat="46.21243" lon="1.74392">
        <ele>464.93</ele>
        <time>2021-06-29T12:46:36Z</time>
      </trkpt>
      <trkpt lat="46.21343" lon="1.74041">
        <ele>467.82</ele>
        <time>2021-06-29T12:46:46Z</time>
      </trkpt>
      <trkpt lat="46.21507" lon="1.73412">
        <ele>460.61</ele>
        <time>2021-06-29T12:47:04Z</time>
      </trkpt>
      <trkpt lat="46.21555" lon="1.73054">
        <ele>450.03</ele>
        <time>2021-06-29T12:47:14Z</time>
      </trkpt>
      <trkpt lat="46.21585" lon="1.72533">
        <ele>442.34</ele>
        <time>2021-06-29T12:47:28Z</time>
      </trkpt>
      <trkpt lat="46.21654" lon="1.72035">
        <ele>457.72</ele>
        <time>2021-06-29T12:47:42Z</time>
      </trkpt>
      <trkpt lat="46.21695" lon="1.71624">
        <ele>455.32</ele>
        <time>2021-06-29T12:47:54Z</time>
      </trkpt>
      <trkpt lat="46.21685" lon="1.71316">
        <ele>445.71</ele>
        <time>2021-06-29T12:48:03Z</time>
      </trkpt>
      <trkpt lat="46.21728" lon="1.71082">
        <ele>440.42</ele>
        <time>2021-06-29T12:48:10Z</time>
      </trkpt>
      <trkpt lat="46.21861" lon="1.70693">
        <ele>438.5</ele>
        <time>2021-06-29T12:48:22Z</time>
      </trkpt>
      <trkpt lat="46.22076" lon="1.70095">
        <ele>451</ele>
        <time>2021-06-29T12:48:41Z</time>
      </trkpt>
      <trkpt lat="46.22136" lon="1.69835">
        <ele>454.84</ele>
        <time>2021-06-29T12:48:48Z</time>
      </trkpt>
      <trkpt lat="46.22129" lon="1.69627">
        <ele>456.76</ele>
        <time>2021-06-29T12:48:55Z</time>
      </trkpt>
      <trkpt lat="46.22103" lon="1.69132">
        <ele>457.72</ele>
        <time>2021-06-29T12:49:09Z</time>
      </trkpt>
      <trkpt lat="46.22137" lon="1.68805">
        <ele>448.59</ele>
        <time>2021-06-29T12:49:18Z</time>
      </trkpt>
      <trkpt lat="46.22176" lon="1.68439">
        <ele>438.5</ele>
        <time>2021-06-29T12:49:28Z</time>
      </trkpt>
      <trkpt lat="46.22232" lon="1.67787">
        <ele>429.85</ele>
        <time>2021-06-29T12:49:46Z</time>
      </trkpt>
      <trkpt lat="46.22261" lon="1.67247">
        <ele>433.21</ele>
        <time>2021-06-29T12:50:01Z</time>
      </trkpt>
      <trkpt lat="46.22224" lon="1.6689">
        <ele>432.25</ele>
        <time>2021-06-29T12:50:11Z</time>
      </trkpt>
      <trkpt lat="46.22147" lon="1.66436">
        <ele>430.81</ele>
        <time>2021-06-29T12:50:24Z</time>
      </trkpt>
      <trkpt lat="46.22045" lon="1.66019">
        <ele>424.56</ele>
        <time>2021-06-29T12:50:37Z</time>
      </trkpt>
      <trkpt lat="46.21943" lon="1.65827">
        <ele>418.79</ele>
        <time>2021-06-29T12:50:44Z</time>
      </trkpt>
      <trkpt lat="46.21725" lon="1.65471">
        <ele>401.49</ele>
        <time>2021-06-29T12:50:57Z</time>
      </trkpt>
      <trkpt lat="46.21662" lon="1.65232">
        <ele>397.64</ele>
        <time>2021-06-29T12:51:05Z</time>
      </trkpt>
      <trkpt lat="46.2145" lon="1.6436">
        <ele>403.41</ele>
        <time>2021-06-29T12:51:30Z</time>
      </trkpt>
      <trkpt lat="46.21415" lon="1.64115">
        <ele>401.97</ele>
        <time>2021-06-29T12:51:37Z</time>
      </trkpt>
      <trkpt lat="46.2143" lon="1.63864">
        <ele>402.45</ele>
        <time>2021-06-29T12:51:44Z</time>
      </trkpt>
      <trkpt lat="46.21492" lon="1.63626">
        <ele>402.45</ele>
        <time>2021-06-29T12:51:51Z</time>
      </trkpt>
      <trkpt lat="46.21724" lon="1.62925">
        <ele>413.5</ele>
        <time>2021-06-29T12:52:12Z</time>
      </trkpt>
      <trkpt lat="46.21946" lon="1.62252">
        <ele>434.17</ele>
        <time>2021-06-29T12:52:33Z</time>
      </trkpt>
      <trkpt lat="46.22075" lon="1.6179">
        <ele>438.02</ele>
        <time>2021-06-29T12:52:47Z</time>
      </trkpt>
      <trkpt lat="46.22224" lon="1.61215">
        <ele>429.37</ele>
        <time>2021-06-29T12:53:04Z</time>
      </trkpt>
      <trkpt lat="46.22254" lon="1.60918">
        <ele>419.75</ele>
        <time>2021-06-29T12:53:12Z</time>
      </trkpt>
      <trkpt lat="46.22232" lon="1.60586">
        <ele>412.54</ele>
        <time>2021-06-29T12:53:21Z</time>
      </trkpt>
      <trkpt lat="46.22148" lon="1.59894">
        <ele>403.89</ele>
        <time>2021-06-29T12:53:40Z</time>
      </trkpt>
      <trkpt lat="46.22096" lon="1.5932">
        <ele>414.47</ele>
        <time>2021-06-29T12:53:56Z</time>
      </trkpt>
      <trkpt lat="46.2212" lon="1.58922">
        <ele>418.79</ele>
        <time>2021-06-29T12:54:07Z</time>
      </trkpt>
      <trkpt lat="46.22181" lon="1.58519">
        <ele>420.71</ele>
        <time>2021-06-29T12:54:18Z</time>
      </trkpt>
      <trkpt lat="46.22276" lon="1.58038">
        <ele>412.06</ele>
        <time>2021-06-29T12:54:31Z</time>
      </trkpt>
      <trkpt lat="46.22304" lon="1.57619">
        <ele>410.14</ele>
        <time>2021-06-29T12:54:42Z</time>
      </trkpt>
      <trkpt lat="46.2231" lon="1.57178">
        <ele>416.39</ele>
        <time>2021-06-29T12:54:54Z</time>
      </trkpt>
      <trkpt lat="46.22352" lon="1.56774">
        <ele>420.23</ele>
        <time>2021-06-29T12:55:05Z</time>
      </trkpt>
      <trkpt lat="46.22479" lon="1.56119">
        <ele>426</ele>
        <time>2021-06-29T12:55:23Z</time>
      </trkpt>
      <trkpt lat="46.22599" lon="1.55554">
        <ele>429.85</ele>
        <time>2021-06-29T12:55:39Z</time>
      </trkpt>
      <trkpt lat="46.227" lon="1.55342">
        <ele>433.69</ele>
        <time>2021-06-29T12:55:46Z</time>
      </trkpt>
      <trkpt lat="46.22838" lon="1.55172">
        <ele>429.37</ele>
        <time>2021-06-29T12:55:53Z</time>
      </trkpt>
      <trkpt lat="46.23049" lon="1.5501">
        <ele>426.48</ele>
        <time>2021-06-29T12:56:02Z</time>
      </trkpt>
      <trkpt lat="46.23219" lon="1.54818">
        <ele>431.77</ele>
        <time>2021-06-29T12:56:10Z</time>
      </trkpt>
      <trkpt lat="46.23333" lon="1.54606">
        <ele>435.13</ele>
        <time>2021-06-29T12:56:17Z</time>
      </trkpt>
      <trkpt lat="46.23458" lon="1.54264">
        <ele>434.65</ele>
        <time>2021-06-29T12:56:27Z</time>
      </trkpt>
      <trkpt lat="46.2359" lon="1.53975">
        <ele>430.33</ele>
        <time>2021-06-29T12:56:36Z</time>
      </trkpt>
      <trkpt lat="46.23717" lon="1.53682">
        <ele>422.16</ele>
        <time>2021-06-29T12:56:45Z</time>
      </trkpt>
      <trkpt lat="46.23791" lon="1.53356">
        <ele>419.27</ele>
        <time>2021-06-29T12:56:54Z</time>
      </trkpt>
      <trkpt lat="46.23858" lon="1.52982">
        <ele>412.54</ele>
        <time>2021-06-29T12:57:05Z</time>
      </trkpt>
      <trkpt lat="46.23871" lon="1.52688">
        <ele>406.77</ele>
        <time>2021-06-29T12:57:13Z</time>
      </trkpt>
      <trkpt lat="46.23833" lon="1.52386">
        <ele>401.01</ele>
        <time>2021-06-29T12:57:21Z</time>
      </trkpt>
      <trkpt lat="46.23737" lon="1.51986">
        <ele>395.72</ele>
        <time>2021-06-29T12:57:32Z</time>
      </trkpt>
      <trkpt lat="46.2362" lon="1.51684">
        <ele>392.36</ele>
        <time>2021-06-29T12:57:41Z</time>
      </trkpt>
      <trkpt lat="46.23451" lon="1.51394">
        <ele>389.95</ele>
        <time>2021-06-29T12:57:51Z</time>
      </trkpt>
      <trkpt lat="46.2324" lon="1.5112">
        <ele>386.11</ele>
        <time>2021-06-29T12:58:02Z</time>
      </trkpt>
      <trkpt lat="46.23066" lon="1.50864">
        <ele>378.9</ele>
        <time>2021-06-29T12:58:12Z</time>
      </trkpt>
      <trkpt lat="46.22817" lon="1.50464">
        <ele>372.17</ele>
        <time>2021-06-29T12:58:26Z</time>
      </trkpt>
      <trkpt lat="46.22615" lon="1.50004">
        <ele>367.36</ele>
        <time>2021-06-29T12:58:40Z</time>
      </trkpt>
      <trkpt lat="46.22426" lon="1.49557">
        <ele>381.78</ele>
        <time>2021-06-29T12:58:54Z</time>
      </trkpt>
      <trkpt lat="46.22335" lon="1.49261">
        <ele>386.11</ele>
        <time>2021-06-29T12:59:03Z</time>
      </trkpt>
      <trkpt lat="46.22299" lon="1.48974">
        <ele>388.99</ele>
        <time>2021-06-29T12:59:11Z</time>
      </trkpt>
      <trkpt lat="46.22309" lon="1.48675">
        <ele>386.11</ele>
        <time>2021-06-29T12:59:19Z</time>
      </trkpt>
      <trkpt lat="46.22369" lon="1.48384">
        <ele>383.22</ele>
        <time>2021-06-29T12:59:27Z</time>
      </trkpt>
      <trkpt lat="46.22521" lon="1.47943">
        <ele>380.82</ele>
        <time>2021-06-29T12:59:40Z</time>
      </trkpt>
      <trkpt lat="46.22634" lon="1.47531">
        <ele>382.26</ele>
        <time>2021-06-29T12:59:52Z</time>
      </trkpt>
      <trkpt lat="46.2265" lon="1.47242">
        <ele>383.22</ele>
        <time>2021-06-29T13:00:00Z</time>
      </trkpt>
      <trkpt lat="46.22627" lon="1.46802">
        <ele>382.26</ele>
        <time>2021-06-29T13:00:12Z</time>
      </trkpt>
      <trkpt lat="46.22548" lon="1.46326">
        <ele>382.74</ele>
        <time>2021-06-29T13:00:25Z</time>
      </trkpt>
      <trkpt lat="46.22461" lon="1.46014">
        <ele>379.38</ele>
        <time>2021-06-29T13:00:34Z</time>
      </trkpt>
      <trkpt lat="46.22349" lon="1.45802">
        <ele>375.05</ele>
        <time>2021-06-29T13:00:41Z</time>
      </trkpt>
      <trkpt lat="46.22177" lon="1.45613">
        <ele>371.69</ele>
        <time>2021-06-29T13:00:49Z</time>
      </trkpt>
      <trkpt lat="46.21925" lon="1.45319">
        <ele>368.32</ele>
        <time>2021-06-29T13:01:01Z</time>
      </trkpt>
      <trkpt lat="46.21799" lon="1.45071">
        <ele>365.92</ele>
        <time>2021-06-29T13:01:09Z</time>
      </trkpt>
      <trkpt lat="46.21705" lon="1.44741">
        <ele>366.88</ele>
        <time>2021-06-29T13:01:18Z</time>
      </trkpt>
      <trkpt lat="46.21584" lon="1.44186">
        <ele>369.28</ele>
        <time>2021-06-29T13:01:33Z</time>
      </trkpt>
      <trkpt lat="46.21573" lon="1.43878">
        <ele>367.36</ele>
        <time>2021-06-29T13:01:41Z</time>
      </trkpt>
      <trkpt lat="46.21623" lon="1.43529">
        <ele>362.07</ele>
        <time>2021-06-29T13:01:50Z</time>
      </trkpt>
      <trkpt lat="46.21736" lon="1.42856">
        <ele>361.11</ele>
        <time>2021-06-29T13:02:08Z</time>
      </trkpt>
      <trkpt lat="46.21762" lon="1.42524">
        <ele>363.04</ele>
        <time>2021-06-29T13:02:17Z</time>
      </trkpt>
      <trkpt lat="46.21739" lon="1.42182">
        <ele>366.88</ele>
        <time>2021-06-29T13:02:26Z</time>
      </trkpt>
      <trkpt lat="46.21668" lon="1.41851">
        <ele>372.17</ele>
        <time>2021-06-29T13:02:35Z</time>
      </trkpt>
      <trkpt lat="46.21513" lon="1.41282">
        <ele>373.13</ele>
        <time>2021-06-29T13:02:51Z</time>
      </trkpt>
      <trkpt lat="46.21362" lon="1.4093">
        <ele>365.44</ele>
        <time>2021-06-29T13:03:02Z</time>
      </trkpt>
      <trkpt lat="46.21104" lon="1.40378">
        <ele>365.92</ele>
        <time>2021-06-29T13:03:20Z</time>
      </trkpt>
      <trkpt lat="46.2085" lon="1.3983">
        <ele>360.63</ele>
        <time>2021-06-29T13:03:38Z</time>
      </trkpt>
      <trkpt lat="46.2074" lon="1.39638">
        <ele>367.36</ele>
        <time>2021-06-29T13:03:46Z</time>
      </trkpt>
      <trkpt lat="46.20645" lon="1.39468">
        <ele>369.76</ele>
        <time>2021-06-29T13:03:55Z</time>
      </trkpt>
      <trkpt lat="46.20576" lon="1.39297">
        <ele>369.76</ele>
        <time>2021-06-29T13:04:05Z</time>
      </trkpt>
      <trkpt lat="46.20546" lon="1.39153">
        <ele>369.76</ele>
        <time>2021-06-29T13:04:14Z</time>
      </trkpt>
      <trkpt lat="46.20545" lon="1.3913">
        <ele>369.76</ele>
        <time>2021-06-29T13:04:16Z</time>
      </trkpt>
      <trkpt lat="46.20547" lon="1.39123">
        <ele>370.24</ele>
        <time>2021-06-29T13:04:17Z</time>
      </trkpt>
      <trkpt lat="46.20549" lon="1.39116">
        <ele>370.24</ele>
        <time>2021-06-29T13:04:18Z</time>
      </trkpt>
      <trkpt lat="46.20552" lon="1.39109">
        <ele>370.73</ele>
        <time>2021-06-29T13:04:19Z</time>
      </trkpt>
      <trkpt lat="46.20554" lon="1.39104">
        <ele>370.73</ele>
        <time>2021-06-29T13:04:20Z</time>
      </trkpt>
      <trkpt lat="46.20558" lon="1.39101">
        <ele>370.73</ele>
        <time>2021-06-29T13:04:21Z</time>
      </trkpt>
      <trkpt lat="46.20569" lon="1.39094">
        <ele>370.73</ele>
        <time>2021-06-29T13:04:23Z</time>
      </trkpt>
      <trkpt lat="46.20574" lon="1.39083">
        <ele>370.73</ele>
        <time>2021-06-29T13:04:24Z</time>
      </trkpt>
      <trkpt lat="46.20576" lon="1.39075">
        <ele>370.73</ele>
        <time>2021-06-29T13:04:25Z</time>
      </trkpt>
      <trkpt lat="46.20577" lon="1.39072">
        <ele>370.73</ele>
        <time>2021-06-29T13:04:26Z</time>
      </trkpt>
      <trkpt lat="46.20575" lon="1.39061">
        <ele>370.73</ele>
        <time>2021-06-29T13:04:27Z</time>
      </trkpt>
      <trkpt lat="46.20573" lon="1.39053">
        <ele>370.73</ele>
        <time>2021-06-29T13:04:28Z</time>
      </trkpt>
      <trkpt lat="46.20572" lon="1.39045">
        <ele>370.73</ele>
        <time>2021-06-29T13:04:29Z</time>
      </trkpt>
      <trkpt lat="46.20564" lon="1.39035">
        <ele>371.21</ele>
        <time>2021-06-29T13:04:30Z</time>
      </trkpt>
      <trkpt lat="46.20564" lon="1.39035">
        <ele>371.21</ele>
        <time>2021-06-29T13:04:31Z</time>
      </trkpt>
      <trkpt lat="46.20559" lon="1.39022">
        <ele>371.21</ele>
        <time>2021-06-29T13:04:32Z</time>
      </trkpt>
      <trkpt lat="46.20557" lon="1.39012">
        <ele>371.21</ele>
        <time>2021-06-29T13:04:33Z</time>
      </trkpt>
      <trkpt lat="46.20534" lon="1.38893">
        <ele>370.73</ele>
        <time>2021-06-29T13:04:42Z</time>
      </trkpt>
      <trkpt lat="46.20463" lon="1.38675">
        <ele>373.61</ele>
        <time>2021-06-29T13:04:55Z</time>
      </trkpt>
      <trkpt lat="46.20418" lon="1.3845">
        <ele>378.42</ele>
        <time>2021-06-29T13:05:07Z</time>
      </trkpt>
      <trkpt lat="46.20368" lon="1.38208">
        <ele>381.3</ele>
        <time>2021-06-29T13:05:20Z</time>
      </trkpt>
      <trkpt lat="46.2034" lon="1.38055">
        <ele>381.3</ele>
        <time>2021-06-29T13:05:31Z</time>
      </trkpt>
      <trkpt lat="46.2034" lon="1.38046">
        <ele>381.3</ele>
        <time>2021-06-29T13:05:32Z</time>
      </trkpt>
      <trkpt lat="46.2034" lon="1.38038">
        <ele>381.3</ele>
        <time>2021-06-29T13:05:33Z</time>
      </trkpt>
      <trkpt lat="46.20341" lon="1.38031">
        <ele>381.3</ele>
        <time>2021-06-29T13:05:34Z</time>
      </trkpt>
      <trkpt lat="46.20341" lon="1.38025">
        <ele>381.3</ele>
        <time>2021-06-29T13:05:35Z</time>
      </trkpt>
      <trkpt lat="46.20342" lon="1.38019">
        <ele>381.78</ele>
        <time>2021-06-29T13:05:36Z</time>
      </trkpt>
      <trkpt lat="46.20346" lon="1.38014">
        <ele>381.78</ele>
        <time>2021-06-29T13:05:37Z</time>
      </trkpt>
      <trkpt lat="46.20351" lon="1.38009">
        <ele>381.3</ele>
        <time>2021-06-29T13:05:38Z</time>
      </trkpt>
      <trkpt lat="46.20357" lon="1.38007">
        <ele>381.3</ele>
        <time>2021-06-29T13:05:39Z</time>
      </trkpt>
      <trkpt lat="46.20364" lon="1.38007">
        <ele>381.3</ele>
        <time>2021-06-29T13:05:40Z</time>
      </trkpt>
      <trkpt lat="46.20381" lon="1.38008">
        <ele>381.3</ele>
        <time>2021-06-29T13:05:41Z</time>
      </trkpt>
      <trkpt lat="46.20381" lon="1.38008">
        <ele>380.82</ele>
        <time>2021-06-29T13:05:42Z</time>
      </trkpt>
      <trkpt lat="46.20474" lon="1.38057">
        <ele>375.53</ele>
        <time>2021-06-29T13:05:51Z</time>
      </trkpt>
      <trkpt lat="46.20482" lon="1.38067">
        <ele>376.01</ele>
        <time>2021-06-29T13:05:52Z</time>
      </trkpt>
      <trkpt lat="46.2049" lon="1.38077">
        <ele>375.53</ele>
        <time>2021-06-29T13:05:53Z</time>
      </trkpt>
      <trkpt lat="46.20498" lon="1.38088">
        <ele>375.05</ele>
        <time>2021-06-29T13:05:54Z</time>
      </trkpt>
      <trkpt lat="46.20504" lon="1.38097">
        <ele>374.57</ele>
        <time>2021-06-29T13:05:55Z</time>
      </trkpt>
      <trkpt lat="46.20509" lon="1.3811">
        <ele>373.61</ele>
        <time>2021-06-29T13:05:56Z</time>
      </trkpt>
      <trkpt lat="46.20513" lon="1.38123">
        <ele>373.13</ele>
        <time>2021-06-29T13:05:57Z</time>
      </trkpt>
      <trkpt lat="46.20514" lon="1.38138">
        <ele>372.17</ele>
        <time>2021-06-29T13:05:58Z</time>
      </trkpt>
      <trkpt lat="46.20511" lon="1.38164">
        <ele>372.17</ele>
        <time>2021-06-29T13:05:59Z</time>
      </trkpt>
      <trkpt lat="46.20506" lon="1.38176">
        <ele>371.21</ele>
        <time>2021-06-29T13:06:00Z</time>
      </trkpt>
      <trkpt lat="46.20506" lon="1.38176">
        <ele>371.69</ele>
        <time>2021-06-29T13:06:01Z</time>
      </trkpt>
      <trkpt lat="46.20499" lon="1.38186">
        <ele>371.21</ele>
        <time>2021-06-29T13:06:02Z</time>
      </trkpt>
      <trkpt lat="46.20491" lon="1.38198">
        <ele>371.69</ele>
        <time>2021-06-29T13:06:03Z</time>
      </trkpt>
      <trkpt lat="46.20482" lon="1.38207">
        <ele>372.17</ele>
        <time>2021-06-29T13:06:04Z</time>
      </trkpt>
      <trkpt lat="46.20471" lon="1.38212">
        <ele>372.17</ele>
        <time>2021-06-29T13:06:05Z</time>
      </trkpt>
      <trkpt lat="46.20458" lon="1.38216">
        <ele>372.65</ele>
        <time>2021-06-29T13:06:06Z</time>
      </trkpt>
      <trkpt lat="46.20445" lon="1.3822">
        <ele>372.65</ele>
        <time>2021-06-29T13:06:07Z</time>
      </trkpt>
      <trkpt lat="46.20431" lon="1.38224">
        <ele>372.17</ele>
        <time>2021-06-29T13:06:08Z</time>
      </trkpt>
      <trkpt lat="46.20267" lon="1.3823">
        <ele>372.17</ele>
        <time>2021-06-29T13:06:17Z</time>
      </trkpt>
      <trkpt lat="46.19967" lon="1.38237">
        <ele>364.48</ele>
        <time>2021-06-29T13:06:30Z</time>
      </trkpt>
      <trkpt lat="46.19606" lon="1.38243">
        <ele>355.34</ele>
        <time>2021-06-29T13:06:45Z</time>
      </trkpt>
      <trkpt lat="46.19062" lon="1.38243">
        <ele>341.41</ele>
        <time>2021-06-29T13:07:08Z</time>
      </trkpt>
      <trkpt lat="46.18734" lon="1.38198">
        <ele>334.68</ele>
        <time>2021-06-29T13:07:22Z</time>
      </trkpt>
      <trkpt lat="46.18446" lon="1.38109">
        <ele>328.91</ele>
        <time>2021-06-29T13:07:34Z</time>
      </trkpt>
      <trkpt lat="46.18019" lon="1.37942">
        <ele>316.41</ele>
        <time>2021-06-29T13:07:51Z</time>
      </trkpt>
      <trkpt lat="46.17576" lon="1.3777">
        <ele>300.55</ele>
        <time>2021-06-29T13:08:09Z</time>
      </trkpt>
      <trkpt lat="46.17294" lon="1.37685">
        <ele>295.26</ele>
        <time>2021-06-29T13:08:20Z</time>
      </trkpt>
      <trkpt lat="46.16999" lon="1.37667">
        <ele>290.46</ele>
        <time>2021-06-29T13:08:31Z</time>
      </trkpt>
      <trkpt lat="46.16617" lon="1.37689">
        <ele>285.17</ele>
        <time>2021-06-29T13:08:45Z</time>
      </trkpt>
      <trkpt lat="46.16245" lon="1.37684">
        <ele>281.32</ele>
        <time>2021-06-29T13:09:00Z</time>
      </trkpt>
      <trkpt lat="46.15777" lon="1.37656">
        <ele>290.46</ele>
        <time>2021-06-29T13:09:20Z</time>
      </trkpt>
      <trkpt lat="46.15482" lon="1.37704">
        <ele>304.39</ele>
        <time>2021-06-29T13:09:33Z</time>
      </trkpt>
      <trkpt lat="46.15127" lon="1.37776">
        <ele>315.45</ele>
        <time>2021-06-29T13:09:49Z</time>
      </trkpt>
      <trkpt lat="46.14866" lon="1.37757">
        <ele>316.41</ele>
        <time>2021-06-29T13:10:00Z</time>
      </trkpt>
      <trkpt lat="46.14395" lon="1.37668">
        <ele>312.09</ele>
        <time>2021-06-29T13:10:19Z</time>
      </trkpt>
      <trkpt lat="46.1415" lon="1.37666">
        <ele>315.93</ele>
        <time>2021-06-29T13:10:29Z</time>
      </trkpt>
      <trkpt lat="46.13937" lon="1.37742">
        <ele>322.66</ele>
        <time>2021-06-29T13:10:38Z</time>
      </trkpt>
      <trkpt lat="46.13721" lon="1.37904">
        <ele>333.71</ele>
        <time>2021-06-29T13:10:48Z</time>
      </trkpt>
      <trkpt lat="46.13498" lon="1.38047">
        <ele>343.33</ele>
        <time>2021-06-29T13:10:58Z</time>
      </trkpt>
      <trkpt lat="46.13228" lon="1.38125">
        <ele>346.21</ele>
        <time>2021-06-29T13:11:09Z</time>
      </trkpt>
      <trkpt lat="46.12881" lon="1.38172">
        <ele>335.64</ele>
        <time>2021-06-29T13:11:23Z</time>
      </trkpt>
      <trkpt lat="46.1268" lon="1.38118">
        <ele>331.79</ele>
        <time>2021-06-29T13:11:31Z</time>
      </trkpt>
      <trkpt lat="46.12499" lon="1.37992">
        <ele>323.14</ele>
        <time>2021-06-29T13:11:39Z</time>
      </trkpt>
      <trkpt lat="46.12303" lon="1.37773">
        <ele>317.37</ele>
        <time>2021-06-29T13:11:49Z</time>
      </trkpt>
      <trkpt lat="46.12138" lon="1.37626">
        <ele>306.32</ele>
        <time>2021-06-29T13:11:57Z</time>
      </trkpt>
      <trkpt lat="46.11932" lon="1.37537">
        <ele>293.34</ele>
        <time>2021-06-29T13:12:06Z</time>
      </trkpt>
      <trkpt lat="46.1173" lon="1.37522">
        <ele>286.61</ele>
        <time>2021-06-29T13:12:15Z</time>
      </trkpt>
      <trkpt lat="46.11511" lon="1.37537">
        <ele>290.94</ele>
        <time>2021-06-29T13:12:26Z</time>
      </trkpt>
      <trkpt lat="46.11251" lon="1.37548">
        <ele>293.82</ele>
        <time>2021-06-29T13:12:39Z</time>
      </trkpt>
      <trkpt lat="46.11072" lon="1.375">
        <ele>304.39</ele>
        <time>2021-06-29T13:12:49Z</time>
      </trkpt>
      <trkpt lat="46.10827" lon="1.3735">
        <ele>319.78</ele>
        <time>2021-06-29T13:13:02Z</time>
      </trkpt>
      <trkpt lat="46.10546" lon="1.37113">
        <ele>334.68</ele>
        <time>2021-06-29T13:13:17Z</time>
      </trkpt>
      <trkpt lat="46.10375" lon="1.36914">
        <ele>341.41</ele>
        <time>2021-06-29T13:13:28Z</time>
      </trkpt>
      <trkpt lat="46.1009" lon="1.36572">
        <ele>348.62</ele>
        <time>2021-06-29T13:13:44Z</time>
      </trkpt>
      <trkpt lat="46.09879" lon="1.36412">
        <ele>356.79</ele>
        <time>2021-06-29T13:13:54Z</time>
      </trkpt>
      <trkpt lat="46.09648" lon="1.36314">
        <ele>366.4</ele>
        <time>2021-06-29T13:14:04Z</time>
      </trkpt>
      <trkpt lat="46.09333" lon="1.36266">
        <ele>375.53</ele>
        <time>2021-06-29T13:14:17Z</time>
      </trkpt>
      <trkpt lat="46.0893" lon="1.362">
        <ele>396.68</ele>
        <time>2021-06-29T13:14:34Z</time>
      </trkpt>
      <trkpt lat="46.08776" lon="1.36102">
        <ele>403.89</ele>
        <time>2021-06-29T13:14:41Z</time>
      </trkpt>
      <trkpt lat="46.08621" lon="1.35916">
        <ele>419.27</ele>
        <time>2021-06-29T13:14:50Z</time>
      </trkpt>
      <trkpt lat="46.08447" lon="1.35725">
        <ele>428.4</ele>
        <time>2021-06-29T13:15:00Z</time>
      </trkpt>
      <trkpt lat="46.08277" lon="1.35648">
        <ele>430.81</ele>
        <time>2021-06-29T13:15:08Z</time>
      </trkpt>
      <trkpt lat="46.08092" lon="1.35654">
        <ele>423.6</ele>
        <time>2021-06-29T13:15:15Z</time>
      </trkpt>
      <trkpt lat="46.07926" lon="1.35706">
        <ele>414.47</ele>
        <time>2021-06-29T13:15:23Z</time>
      </trkpt>
      <trkpt lat="46.07489" lon="1.35867">
        <ele>390.43</ele>
        <time>2021-06-29T13:15:40Z</time>
      </trkpt>
      <trkpt lat="46.06937" lon="1.36055">
        <ele>410.14</ele>
        <time>2021-06-29T13:16:02Z</time>
      </trkpt>
      <trkpt lat="46.06699" lon="1.36095">
        <ele>427.44</ele>
        <time>2021-06-29T13:16:13Z</time>
      </trkpt>
      <trkpt lat="46.06427" lon="1.36104">
        <ele>451.48</ele>
        <time>2021-06-29T13:16:27Z</time>
      </trkpt>
      <trkpt lat="46.06054" lon="1.36086">
        <ele>477.91</ele>
        <time>2021-06-29T13:16:46Z</time>
      </trkpt>
      <trkpt lat="46.05763" lon="1.36031">
        <ele>486.08</ele>
        <time>2021-06-29T13:17:00Z</time>
      </trkpt>
      <trkpt lat="46.0555" lon="1.35927">
        <ele>483.68</ele>
        <time>2021-06-29T13:17:10Z</time>
      </trkpt>
      <trkpt lat="46.05345" lon="1.35857">
        <ele>475.51</ele>
        <time>2021-06-29T13:17:19Z</time>
      </trkpt>
      <trkpt lat="46.05085" lon="1.35763">
        <ele>457.24</ele>
        <time>2021-06-29T13:17:30Z</time>
      </trkpt>
      <trkpt lat="46.04859" lon="1.35607">
        <ele>439.46</ele>
        <time>2021-06-29T13:17:40Z</time>
      </trkpt>
      <trkpt lat="46.04628" lon="1.35498">
        <ele>425.52</ele>
        <time>2021-06-29T13:17:50Z</time>
      </trkpt>
      <trkpt lat="46.0443" lon="1.35373">
        <ele>412.06</ele>
        <time>2021-06-29T13:17:59Z</time>
      </trkpt>
      <trkpt lat="46.04145" lon="1.35095">
        <ele>396.68</ele>
        <time>2021-06-29T13:18:13Z</time>
      </trkpt>
      <trkpt lat="46.03937" lon="1.34971">
        <ele>394.28</ele>
        <time>2021-06-29T13:18:21Z</time>
      </trkpt>
      <trkpt lat="46.03771" lon="1.34932">
        <ele>398.6</ele>
        <time>2021-06-29T13:18:29Z</time>
      </trkpt>
      <trkpt lat="46.03504" lon="1.34953">
        <ele>404.37</ele>
        <time>2021-06-29T13:18:40Z</time>
      </trkpt>
      <trkpt lat="46.03295" lon="1.3494">
        <ele>412.06</ele>
        <time>2021-06-29T13:18:49Z</time>
      </trkpt>
      <trkpt lat="46.03118" lon="1.34849">
        <ele>420.71</ele>
        <time>2021-06-29T13:18:57Z</time>
      </trkpt>
      <trkpt lat="46.02781" lon="1.34631">
        <ele>439.94</ele>
        <time>2021-06-29T13:19:13Z</time>
      </trkpt>
      <trkpt lat="46.02507" lon="1.34479">
        <ele>444.75</ele>
        <time>2021-06-29T13:19:26Z</time>
      </trkpt>
      <trkpt lat="46.02174" lon="1.34254">
        <ele>430.81</ele>
        <time>2021-06-29T13:19:41Z</time>
      </trkpt>
      <trkpt lat="46.01917" lon="1.34078">
        <ele>427.92</ele>
        <time>2021-06-29T13:19:53Z</time>
      </trkpt>
      <trkpt lat="46.01657" lon="1.33916">
        <ele>426.48</ele>
        <time>2021-06-29T13:20:05Z</time>
      </trkpt>
      <trkpt lat="46.01464" lon="1.33868">
        <ele>427.44</ele>
        <time>2021-06-29T13:20:13Z</time>
      </trkpt>
      <trkpt lat="46.01237" lon="1.33881">
        <ele>426.96</ele>
        <time>2021-06-29T13:20:22Z</time>
      </trkpt>
      <trkpt lat="46.01039" lon="1.3387">
        <ele>432.25</ele>
        <time>2021-06-29T13:20:30Z</time>
      </trkpt>
      <trkpt lat="46.00842" lon="1.33803">
        <ele>438.5</ele>
        <time>2021-06-29T13:20:38Z</time>
      </trkpt>
      <trkpt lat="46.0064" lon="1.33769">
        <ele>445.71</ele>
        <time>2021-06-29T13:20:46Z</time>
      </trkpt>
      <trkpt lat="46.00302" lon="1.33801">
        <ele>446.19</ele>
        <time>2021-06-29T13:20:59Z</time>
      </trkpt>
      <trkpt lat="45.99919" lon="1.33826">
        <ele>438.02</ele>
        <time>2021-06-29T13:21:14Z</time>
      </trkpt>
      <trkpt lat="45.99783" lon="1.33766">
        <ele>435.13</ele>
        <time>2021-06-29T13:21:21Z</time>
      </trkpt>
      <trkpt lat="45.99476" lon="1.33575">
        <ele>435.13</ele>
        <time>2021-06-29T13:21:34Z</time>
      </trkpt>
      <trkpt lat="45.99375" lon="1.33452">
        <ele>434.17</ele>
        <time>2021-06-29T13:21:41Z</time>
      </trkpt>
      <trkpt lat="45.99297" lon="1.33261">
        <ele>432.73</ele>
        <time>2021-06-29T13:21:48Z</time>
      </trkpt>
      <trkpt lat="45.99236" lon="1.32955">
        <ele>435.13</ele>
        <time>2021-06-29T13:21:58Z</time>
      </trkpt>
      <trkpt lat="45.99155" lon="1.32753">
        <ele>434.17</ele>
        <time>2021-06-29T13:22:05Z</time>
      </trkpt>
      <trkpt lat="45.99036" lon="1.32599">
        <ele>427.44</ele>
        <time>2021-06-29T13:22:12Z</time>
      </trkpt>
      <trkpt lat="45.9889" lon="1.32506">
        <ele>424.08</ele>
        <time>2021-06-29T13:22:19Z</time>
      </trkpt>
      <trkpt lat="45.98723" lon="1.32486">
        <ele>421.19</ele>
        <time>2021-06-29T13:22:26Z</time>
      </trkpt>
      <trkpt lat="45.98509" lon="1.32544">
        <ele>421.19</ele>
        <time>2021-06-29T13:22:35Z</time>
      </trkpt>
      <trkpt lat="45.98216" lon="1.32616">
        <ele>422.16</ele>
        <time>2021-06-29T13:22:48Z</time>
      </trkpt>
      <trkpt lat="45.98005" lon="1.32592">
        <ele>424.56</ele>
        <time>2021-06-29T13:22:57Z</time>
      </trkpt>
      <trkpt lat="45.97842" lon="1.32519">
        <ele>426</ele>
        <time>2021-06-29T13:23:04Z</time>
      </trkpt>
      <trkpt lat="45.97593" lon="1.32329">
        <ele>426.96</ele>
        <time>2021-06-29T13:23:14Z</time>
      </trkpt>
      <trkpt lat="45.97354" lon="1.32161">
        <ele>432.73</ele>
        <time>2021-06-29T13:23:25Z</time>
      </trkpt>
      <trkpt lat="45.97145" lon="1.32096">
        <ele>438.02</ele>
        <time>2021-06-29T13:23:33Z</time>
      </trkpt>
      <trkpt lat="45.96796" lon="1.3203">
        <ele>444.27</ele>
        <time>2021-06-29T13:23:46Z</time>
      </trkpt>
      <trkpt lat="45.96514" lon="1.31914">
        <ele>443.79</ele>
        <time>2021-06-29T13:23:57Z</time>
      </trkpt>
      <trkpt lat="45.96273" lon="1.3184">
        <ele>442.82</ele>
        <time>2021-06-29T13:24:07Z</time>
      </trkpt>
      <trkpt lat="45.96041" lon="1.31838">
        <ele>439.46</ele>
        <time>2021-06-29T13:24:17Z</time>
      </trkpt>
      <trkpt lat="45.95821" lon="1.31865">
        <ele>445.71</ele>
        <time>2021-06-29T13:24:27Z</time>
      </trkpt>
      <trkpt lat="45.95642" lon="1.31822">
        <ele>449.07</ele>
        <time>2021-06-29T13:24:35Z</time>
      </trkpt>
      <trkpt lat="45.9545" lon="1.31692">
        <ele>447.63</ele>
        <time>2021-06-29T13:24:44Z</time>
      </trkpt>
      <trkpt lat="45.95226" lon="1.31574">
        <ele>446.67</ele>
        <time>2021-06-29T13:24:54Z</time>
      </trkpt>
      <trkpt lat="45.9497" lon="1.31507">
        <ele>432.25</ele>
        <time>2021-06-29T13:25:05Z</time>
      </trkpt>
      <trkpt lat="45.94813" lon="1.31432">
        <ele>426</ele>
        <time>2021-06-29T13:25:12Z</time>
      </trkpt>
      <trkpt lat="45.94632" lon="1.31247">
        <ele>416.39</ele>
        <time>2021-06-29T13:25:20Z</time>
      </trkpt>
      <trkpt lat="45.94361" lon="1.30913">
        <ele>403.89</ele>
        <time>2021-06-29T13:25:35Z</time>
      </trkpt>
      <trkpt lat="45.94131" lon="1.30641">
        <ele>402.45</ele>
        <time>2021-06-29T13:25:46Z</time>
      </trkpt>
      <trkpt lat="45.9397" lon="1.30521">
        <ele>399.57</ele>
        <time>2021-06-29T13:25:53Z</time>
      </trkpt>
      <trkpt lat="45.93747" lon="1.30448">
        <ele>392.84</ele>
        <time>2021-06-29T13:26:01Z</time>
      </trkpt>
      <trkpt lat="45.93522" lon="1.30397">
        <ele>385.63</ele>
        <time>2021-06-29T13:26:11Z</time>
      </trkpt>
      <trkpt lat="45.9322" lon="1.30308">
        <ele>374.09</ele>
        <time>2021-06-29T13:26:22Z</time>
      </trkpt>
      <trkpt lat="45.93036" lon="1.30324">
        <ele>364.48</ele>
        <time>2021-06-29T13:26:30Z</time>
      </trkpt>
      <trkpt lat="45.92811" lon="1.30341">
        <ele>357.27</ele>
        <time>2021-06-29T13:26:39Z</time>
      </trkpt>
      <trkpt lat="45.9261" lon="1.30287">
        <ele>351.5</ele>
        <time>2021-06-29T13:26:47Z</time>
      </trkpt>
      <trkpt lat="45.92426" lon="1.30163">
        <ele>351.5</ele>
        <time>2021-06-29T13:26:55Z</time>
      </trkpt>
      <trkpt lat="45.91949" lon="1.29773">
        <ele>354.86</ele>
        <time>2021-06-29T13:27:16Z</time>
      </trkpt>
      <trkpt lat="45.91578" lon="1.29474">
        <ele>354.86</ele>
        <time>2021-06-29T13:27:32Z</time>
      </trkpt>
      <trkpt lat="45.91279" lon="1.29297">
        <ele>347.65</ele>
        <time>2021-06-29T13:27:44Z</time>
      </trkpt>
      <trkpt lat="45.90989" lon="1.29197">
        <ele>339</ele>
        <time>2021-06-29T13:27:55Z</time>
      </trkpt>
      <trkpt lat="45.9069" lon="1.2916">
        <ele>331.79</ele>
        <time>2021-06-29T13:28:06Z</time>
      </trkpt>
      <trkpt lat="45.90266" lon="1.29184">
        <ele>322.66</ele>
        <time>2021-06-29T13:28:21Z</time>
      </trkpt>
      <trkpt lat="45.89862" lon="1.29212">
        <ele>322.18</ele>
        <time>2021-06-29T13:28:38Z</time>
      </trkpt>
      <trkpt lat="45.89659" lon="1.29221">
        <ele>321.22</ele>
        <time>2021-06-29T13:28:48Z</time>
      </trkpt>
      <trkpt lat="45.89503" lon="1.29211">
        <ele>325.54</ele>
        <time>2021-06-29T13:28:58Z</time>
      </trkpt>
      <trkpt lat="45.89412" lon="1.29199">
        <ele>328.91</ele>
        <time>2021-06-29T13:29:07Z</time>
      </trkpt>
      <trkpt lat="45.89406" lon="1.29195">
        <ele>329.39</ele>
        <time>2021-06-29T13:29:08Z</time>
      </trkpt>
      <trkpt lat="45.894" lon="1.2919">
        <ele>329.39</ele>
        <time>2021-06-29T13:29:09Z</time>
      </trkpt>
      <trkpt lat="45.89382" lon="1.29167">
        <ele>329.87</ele>
        <time>2021-06-29T13:29:16Z</time>
      </trkpt>
      <trkpt lat="45.89377" lon="1.29141">
        <ele>329.39</ele>
        <time>2021-06-29T13:29:28Z</time>
      </trkpt>
      <trkpt lat="45.89372" lon="1.29133">
        <ele>328.91</ele>
        <time>2021-06-29T13:29:29Z</time>
      </trkpt>
      <trkpt lat="45.89369" lon="1.2913">
        <ele>328.91</ele>
        <time>2021-06-29T13:29:30Z</time>
      </trkpt>
      <trkpt lat="45.89359" lon="1.29129">
        <ele>328.43</ele>
        <time>2021-06-29T13:29:31Z</time>
      </trkpt>
      <trkpt lat="45.89352" lon="1.29128">
        <ele>328.43</ele>
        <time>2021-06-29T13:29:32Z</time>
      </trkpt>
      <trkpt lat="45.89345" lon="1.29128">
        <ele>327.95</ele>
        <time>2021-06-29T13:29:33Z</time>
      </trkpt>
      <trkpt lat="45.89339" lon="1.29126">
        <ele>327.47</ele>
        <time>2021-06-29T13:29:34Z</time>
      </trkpt>
      <trkpt lat="45.89332" lon="1.29125">
        <ele>326.99</ele>
        <time>2021-06-29T13:29:35Z</time>
      </trkpt>
      <trkpt lat="45.89324" lon="1.29122">
        <ele>326.5</ele>
        <time>2021-06-29T13:29:36Z</time>
      </trkpt>
      <trkpt lat="45.89318" lon="1.29116">
        <ele>326.02</ele>
        <time>2021-06-29T13:29:37Z</time>
      </trkpt>
      <trkpt lat="45.89251" lon="1.29032">
        <ele>320.26</ele>
        <time>2021-06-29T13:29:45Z</time>
      </trkpt>
      <trkpt lat="45.89189" lon="1.28888">
        <ele>317.85</ele>
        <time>2021-06-29T13:29:53Z</time>
      </trkpt>
      <trkpt lat="45.89154" lon="1.28677">
        <ele>318.33</ele>
        <time>2021-06-29T13:30:02Z</time>
      </trkpt>
      <trkpt lat="45.89134" lon="1.28401">
        <ele>327.47</ele>
        <time>2021-06-29T13:30:14Z</time>
      </trkpt>
      <trkpt lat="45.89119" lon="1.28182">
        <ele>330.83</ele>
        <time>2021-06-29T13:30:26Z</time>
      </trkpt>
      <trkpt lat="45.89122" lon="1.28119">
        <ele>330.35</ele>
        <time>2021-06-29T13:30:33Z</time>
      </trkpt>
      <trkpt lat="45.89127" lon="1.2811">
        <ele>329.87</ele>
        <time>2021-06-29T13:30:38Z</time>
      </trkpt>
      <trkpt lat="45.89133" lon="1.281">
        <ele>330.35</ele>
        <time>2021-06-29T13:30:40Z</time>
      </trkpt>
      <trkpt lat="45.89137" lon="1.28094">
        <ele>330.35</ele>
        <time>2021-06-29T13:30:41Z</time>
      </trkpt>
      <trkpt lat="45.8914" lon="1.28077">
        <ele>330.35</ele>
        <time>2021-06-29T13:30:42Z</time>
      </trkpt>
      <trkpt lat="45.89141" lon="1.28066">
        <ele>330.83</ele>
        <time>2021-06-29T13:30:43Z</time>
      </trkpt>
      <trkpt lat="45.89141" lon="1.28066">
        <ele>331.79</ele>
        <time>2021-06-29T13:30:44Z</time>
      </trkpt>
      <trkpt lat="45.8914" lon="1.28056">
        <ele>331.79</ele>
        <time>2021-06-29T13:30:45Z</time>
      </trkpt>
      <trkpt lat="45.89137" lon="1.28045">
        <ele>332.27</ele>
        <time>2021-06-29T13:30:46Z</time>
      </trkpt>
      <trkpt lat="45.89133" lon="1.28037">
        <ele>331.79</ele>
        <time>2021-06-29T13:30:47Z</time>
      </trkpt>
      <trkpt lat="45.89126" lon="1.2803">
        <ele>331.79</ele>
        <time>2021-06-29T13:30:48Z</time>
      </trkpt>
      <trkpt lat="45.8912" lon="1.28023">
        <ele>331.31</ele>
        <time>2021-06-29T13:30:49Z</time>
      </trkpt>
      <trkpt lat="45.89114" lon="1.28017">
        <ele>330.83</ele>
        <time>2021-06-29T13:30:50Z</time>
      </trkpt>
      <trkpt lat="45.89112" lon="1.28004">
        <ele>330.83</ele>
        <time>2021-06-29T13:30:51Z</time>
      </trkpt>
      <trkpt lat="45.8911" lon="1.27994">
        <ele>331.79</ele>
        <time>2021-06-29T13:30:52Z</time>
      </trkpt>
      <trkpt lat="45.89107" lon="1.27981">
        <ele>332.75</ele>
        <time>2021-06-29T13:30:53Z</time>
      </trkpt>
      <trkpt lat="45.89089" lon="1.27832">
        <ele>338.52</ele>
        <time>2021-06-29T13:31:01Z</time>
      </trkpt>
      <trkpt lat="45.89068" lon="1.27575">
        <ele>342.37</ele>
        <time>2021-06-29T13:31:11Z</time>
      </trkpt>
      <trkpt lat="45.89028" lon="1.27045">
        <ele>345.25</ele>
        <time>2021-06-29T13:31:30Z</time>
      </trkpt>
      <trkpt lat="45.89035" lon="1.26763">
        <ele>347.65</ele>
        <time>2021-06-29T13:31:40Z</time>
      </trkpt>
      <trkpt lat="45.89072" lon="1.26383">
        <ele>347.17</ele>
        <time>2021-06-29T13:31:53Z</time>
      </trkpt>
      <trkpt lat="45.89117" lon="1.25962">
        <ele>347.65</ele>
        <time>2021-06-29T13:32:10Z</time>
      </trkpt>
      <trkpt lat="45.89162" lon="1.2553">
        <ele>350.54</ele>
        <time>2021-06-29T13:32:27Z</time>
      </trkpt>
      <trkpt lat="45.89214" lon="1.25232">
        <ele>349.1</ele>
        <time>2021-06-29T13:32:39Z</time>
      </trkpt>
      <trkpt lat="45.89302" lon="1.25038">
        <ele>349.58</ele>
        <time>2021-06-29T13:32:48Z</time>
      </trkpt>
      <trkpt lat="45.89447" lon="1.24843">
        <ele>350.54</ele>
        <time>2021-06-29T13:32:59Z</time>
      </trkpt>
      <trkpt lat="45.89615" lon="1.24603">
        <ele>350.54</ele>
        <time>2021-06-29T13:33:12Z</time>
      </trkpt>
      <trkpt lat="45.89718" lon="1.24367">
        <ele>351.98</ele>
        <time>2021-06-29T13:33:23Z</time>
      </trkpt>
      <trkpt lat="45.89898" lon="1.23906">
        <ele>360.15</ele>
        <time>2021-06-29T13:33:43Z</time>
      </trkpt>
      <trkpt lat="45.90078" lon="1.23455">
        <ele>365.44</ele>
        <time>2021-06-29T13:34:03Z</time>
      </trkpt>
      <trkpt lat="45.90167" lon="1.23217">
        <ele>370.24</ele>
        <time>2021-06-29T13:34:14Z</time>
      </trkpt>
      <trkpt lat="45.90194" lon="1.23011">
        <ele>375.05</ele>
        <time>2021-06-29T13:34:23Z</time>
      </trkpt>
      <trkpt lat="45.90172" lon="1.22818">
        <ele>379.86</ele>
        <time>2021-06-29T13:34:31Z</time>
      </trkpt>
      <trkpt lat="45.90094" lon="1.22574">
        <ele>384.18</ele>
        <time>2021-06-29T13:34:41Z</time>
      </trkpt>
      <trkpt lat="45.90002" lon="1.2237">
        <ele>386.59</ele>
        <time>2021-06-29T13:34:50Z</time>
      </trkpt>
      <trkpt lat="45.89869" lon="1.22207">
        <ele>390.91</ele>
        <time>2021-06-29T13:34:59Z</time>
      </trkpt>
      <trkpt lat="45.89576" lon="1.21947">
        <ele>393.32</ele>
        <time>2021-06-29T13:35:17Z</time>
      </trkpt>
      <trkpt lat="45.89263" lon="1.21663">
        <ele>386.59</ele>
        <time>2021-06-29T13:35:35Z</time>
      </trkpt>
      <trkpt lat="45.89047" lon="1.21466">
        <ele>384.18</ele>
        <time>2021-06-29T13:35:48Z</time>
      </trkpt>
      <trkpt lat="45.888" lon="1.21216">
        <ele>377.94</ele>
        <time>2021-06-29T13:36:04Z</time>
      </trkpt>
      <trkpt lat="45.88688" lon="1.2102">
        <ele>377.94</ele>
        <time>2021-06-29T13:36:13Z</time>
      </trkpt>
      <trkpt lat="45.88614" lon="1.20772">
        <ele>383.7</ele>
        <time>2021-06-29T13:36:23Z</time>
      </trkpt>
      <trkpt lat="45.88557" lon="1.20418">
        <ele>388.51</ele>
        <time>2021-06-29T13:36:36Z</time>
      </trkpt>
      <trkpt lat="45.8849" lon="1.19965">
        <ele>393.8</ele>
        <time>2021-06-29T13:36:53Z</time>
      </trkpt>
      <trkpt lat="45.88398" lon="1.19341">
        <ele>400.05</ele>
        <time>2021-06-29T13:37:16Z</time>
      </trkpt>
      <trkpt lat="45.88334" lon="1.18918">
        <ele>398.6</ele>
        <time>2021-06-29T13:37:32Z</time>
      </trkpt>
      <trkpt lat="45.88272" lon="1.18607">
        <ele>395.24</ele>
        <time>2021-06-29T13:37:44Z</time>
      </trkpt>
      <trkpt lat="45.88173" lon="1.18267">
        <ele>395.72</ele>
        <time>2021-06-29T13:37:58Z</time>
      </trkpt>
      <trkpt lat="45.88055" lon="1.179">
        <ele>411.1</ele>
        <time>2021-06-29T13:38:14Z</time>
      </trkpt>
      <trkpt lat="45.88015" lon="1.17615">
        <ele>413.5</ele>
        <time>2021-06-29T13:38:24Z</time>
      </trkpt>
      <trkpt lat="45.88016" lon="1.17355">
        <ele>412.06</ele>
        <time>2021-06-29T13:38:34Z</time>
      </trkpt>
      <trkpt lat="45.88025" lon="1.17017">
        <ele>405.81</ele>
        <time>2021-06-29T13:38:46Z</time>
      </trkpt>
      <trkpt lat="45.87988" lon="1.16772">
        <ele>401.97</ele>
        <time>2021-06-29T13:38:54Z</time>
      </trkpt>
      <trkpt lat="45.87916" lon="1.16584">
        <ele>398.12</ele>
        <time>2021-06-29T13:39:03Z</time>
      </trkpt>
      <trkpt lat="45.87805" lon="1.16432">
        <ele>394.76</ele>
        <time>2021-06-29T13:39:11Z</time>
      </trkpt>
      <trkpt lat="45.87652" lon="1.16319">
        <ele>390.43</ele>
        <time>2021-06-29T13:39:20Z</time>
      </trkpt>
      <trkpt lat="45.87496" lon="1.16279">
        <ele>388.99</ele>
        <time>2021-06-29T13:39:28Z</time>
      </trkpt>
      <trkpt lat="45.87354" lon="1.16302">
        <ele>386.11</ele>
        <time>2021-06-29T13:39:36Z</time>
      </trkpt>
      <trkpt lat="45.87147" lon="1.16405">
        <ele>378.9</ele>
        <time>2021-06-29T13:39:48Z</time>
      </trkpt>
      <trkpt lat="45.86901" lon="1.16525">
        <ele>379.86</ele>
        <time>2021-06-29T13:40:03Z</time>
      </trkpt>
      <trkpt lat="45.86734" lon="1.1656">
        <ele>383.7</ele>
        <time>2021-06-29T13:40:14Z</time>
      </trkpt>
      <trkpt lat="45.86695" lon="1.16562">
        <ele>383.22</ele>
        <time>2021-06-29T13:40:17Z</time>
      </trkpt>
      <trkpt lat="45.86683" lon="1.16562">
        <ele>383.22</ele>
        <time>2021-06-29T13:40:18Z</time>
      </trkpt>
      <trkpt lat="45.86673" lon="1.16561">
        <ele>384.18</ele>
        <time>2021-06-29T13:40:19Z</time>
      </trkpt>
      <trkpt lat="45.86669" lon="1.16533">
        <ele>385.63</ele>
        <time>2021-06-29T13:40:20Z</time>
      </trkpt>
      <trkpt lat="45.86663" lon="1.16526">
        <ele>386.11</ele>
        <time>2021-06-29T13:40:21Z</time>
      </trkpt>
      <trkpt lat="45.86655" lon="1.16514">
        <ele>385.63</ele>
        <time>2021-06-29T13:40:22Z</time>
      </trkpt>
      <trkpt lat="45.86616" lon="1.16452">
        <ele>385.15</ele>
        <time>2021-06-29T13:40:27Z</time>
      </trkpt>
      <trkpt lat="45.86607" lon="1.16444">
        <ele>383.7</ele>
        <time>2021-06-29T13:40:28Z</time>
      </trkpt>
      <trkpt lat="45.86598" lon="1.16435">
        <ele>382.74</ele>
        <time>2021-06-29T13:40:29Z</time>
      </trkpt>
      <trkpt lat="45.86589" lon="1.16429">
        <ele>381.78</ele>
        <time>2021-06-29T13:40:30Z</time>
      </trkpt>
      <trkpt lat="45.86582" lon="1.16425">
        <ele>381.78</ele>
        <time>2021-06-29T13:40:31Z</time>
      </trkpt>
      <trkpt lat="45.86573" lon="1.16426">
        <ele>382.26</ele>
        <time>2021-06-29T13:40:32Z</time>
      </trkpt>
      <trkpt lat="45.86566" lon="1.16427">
        <ele>381.78</ele>
        <time>2021-06-29T13:40:33Z</time>
      </trkpt>
      <trkpt lat="45.8656" lon="1.16428">
        <ele>381.78</ele>
        <time>2021-06-29T13:40:34Z</time>
      </trkpt>
      <trkpt lat="45.8653" lon="1.16432">
        <ele>381.78</ele>
        <time>2021-06-29T13:40:46Z</time>
      </trkpt>
      <trkpt lat="45.86488" lon="1.16438">
        <ele>382.74</ele>
        <time>2021-06-29T13:40:57Z</time>
      </trkpt>
      <trkpt lat="45.86462" lon="1.16442">
        <ele>383.22</ele>
        <time>2021-06-29T13:41:06Z</time>
      </trkpt>
      <trkpt lat="45.86462" lon="1.16442">
        <ele>383.7</ele>
        <time>2021-06-29T13:41:07Z</time>
      </trkpt>
      <trkpt lat="45.86461" lon="1.16447">
        <ele>383.7</ele>
        <time>2021-06-29T13:41:08Z</time>
      </trkpt>
      <trkpt lat="45.86455" lon="1.16531">
        <ele>383.7</ele>
        <time>2021-06-29T13:41:16Z</time>
      </trkpt>
      <trkpt lat="45.86436" lon="1.16683">
        <ele>387.55</ele>
        <time>2021-06-29T13:41:24Z</time>
      </trkpt>
      <trkpt lat="45.86374" lon="1.16916">
        <ele>392.36</ele>
        <time>2021-06-29T13:41:34Z</time>
      </trkpt>
      <trkpt lat="45.86257" lon="1.17232">
        <ele>399.57</ele>
        <time>2021-06-29T13:41:48Z</time>
      </trkpt>
      <trkpt lat="45.86217" lon="1.17339">
        <ele>401.97</ele>
        <time>2021-06-29T13:41:55Z</time>
      </trkpt>
      <trkpt lat="45.86213" lon="1.17348">
        <ele>401.97</ele>
        <time>2021-06-29T13:41:56Z</time>
      </trkpt>
      <trkpt lat="45.86211" lon="1.17355">
        <ele>402.45</ele>
        <time>2021-06-29T13:41:57Z</time>
      </trkpt>
      <trkpt lat="45.86201" lon="1.17353">
        <ele>401.49</ele>
        <time>2021-06-29T13:41:58Z</time>
      </trkpt>
      <trkpt lat="45.86188" lon="1.1736">
        <ele>401.49</ele>
        <time>2021-06-29T13:41:59Z</time>
      </trkpt>
      <trkpt lat="45.86188" lon="1.1736">
        <ele>401.01</ele>
        <time>2021-06-29T13:42:00Z</time>
      </trkpt>
      <trkpt lat="45.86182" lon="1.17354">
        <ele>400.05</ele>
        <time>2021-06-29T13:42:01Z</time>
      </trkpt>
      <trkpt lat="45.86175" lon="1.17348">
        <ele>399.08</ele>
        <time>2021-06-29T13:42:02Z</time>
      </trkpt>
      <trkpt lat="45.86167" lon="1.17341">
        <ele>397.64</ele>
        <time>2021-06-29T13:42:03Z</time>
      </trkpt>
      <trkpt lat="45.86081" lon="1.17254">
        <ele>391.39</ele>
        <time>2021-06-29T13:42:10Z</time>
      </trkpt>
      <trkpt lat="45.8591" lon="1.17088">
        <ele>381.3</ele>
        <time>2021-06-29T13:42:20Z</time>
      </trkpt>
      <trkpt lat="45.85553" lon="1.16737">
        <ele>364</ele>
        <time>2021-06-29T13:42:40Z</time>
      </trkpt>
      <trkpt lat="45.85348" lon="1.16533">
        <ele>369.28</ele>
        <time>2021-06-29T13:42:52Z</time>
      </trkpt>
      <trkpt lat="45.85207" lon="1.1637">
        <ele>359.67</ele>
        <time>2021-06-29T13:43:02Z</time>
      </trkpt>
      <trkpt lat="45.85177" lon="1.16291">
        <ele>356.31</ele>
        <time>2021-06-29T13:43:09Z</time>
      </trkpt>
      <trkpt lat="45.85168" lon="1.16261">
        <ele>355.34</ele>
        <time>2021-06-29T13:43:12Z</time>
      </trkpt>
      <trkpt lat="45.85168" lon="1.16249">
        <ele>354.38</ele>
        <time>2021-06-29T13:43:13Z</time>
      </trkpt>
      <trkpt lat="45.85168" lon="1.16238">
        <ele>353.42</ele>
        <time>2021-06-29T13:43:14Z</time>
      </trkpt>
      <trkpt lat="45.85168" lon="1.16227">
        <ele>352.94</ele>
        <time>2021-06-29T13:43:15Z</time>
      </trkpt>
      <trkpt lat="45.8517" lon="1.16214">
        <ele>351.98</ele>
        <time>2021-06-29T13:43:16Z</time>
      </trkpt>
      <trkpt lat="45.85185" lon="1.16157">
        <ele>349.58</ele>
        <time>2021-06-29T13:43:20Z</time>
      </trkpt>
      <trkpt lat="45.85188" lon="1.16141">
        <ele>348.62</ele>
        <time>2021-06-29T13:43:21Z</time>
      </trkpt>
      <trkpt lat="45.85189" lon="1.16125">
        <ele>347.65</ele>
        <time>2021-06-29T13:43:22Z</time>
      </trkpt>
      <trkpt lat="45.85189" lon="1.16107">
        <ele>346.69</ele>
        <time>2021-06-29T13:43:23Z</time>
      </trkpt>
      <trkpt lat="45.85187" lon="1.16091">
        <ele>345.73</ele>
        <time>2021-06-29T13:43:24Z</time>
      </trkpt>
      <trkpt lat="45.85178" lon="1.16061">
        <ele>345.25</ele>
        <time>2021-06-29T13:43:25Z</time>
      </trkpt>
      <trkpt lat="45.85178" lon="1.16061">
        <ele>344.29</ele>
        <time>2021-06-29T13:43:26Z</time>
      </trkpt>
      <trkpt lat="45.85161" lon="1.16017">
        <ele>342.85</ele>
        <time>2021-06-29T13:43:30Z</time>
      </trkpt>
      <trkpt lat="45.85154" lon="1.16002">
        <ele>342.37</ele>
        <time>2021-06-29T13:43:31Z</time>
      </trkpt>
      <trkpt lat="45.85153" lon="1.1598">
        <ele>341.41</ele>
        <time>2021-06-29T13:43:32Z</time>
      </trkpt>
      <trkpt lat="45.85153" lon="1.1598">
        <ele>340.44</ele>
        <time>2021-06-29T13:43:33Z</time>
      </trkpt>
      <trkpt lat="45.85159" lon="1.15966">
        <ele>339.96</ele>
        <time>2021-06-29T13:43:34Z</time>
      </trkpt>
      <trkpt lat="45.85163" lon="1.15946">
        <ele>339</ele>
        <time>2021-06-29T13:43:35Z</time>
      </trkpt>
      <trkpt lat="45.85163" lon="1.15946">
        <ele>338.04</ele>
        <time>2021-06-29T13:43:36Z</time>
      </trkpt>
      <trkpt lat="45.85166" lon="1.15932">
        <ele>338.04</ele>
        <time>2021-06-29T13:43:37Z</time>
      </trkpt>
      <trkpt lat="45.8522" lon="1.15818">
        <ele>332.75</ele>
        <time>2021-06-29T13:43:44Z</time>
      </trkpt>
      <trkpt lat="45.85337" lon="1.15598">
        <ele>332.75</ele>
        <time>2021-06-29T13:43:54Z</time>
      </trkpt>
      <trkpt lat="45.85493" lon="1.15311">
        <ele>334.68</ele>
        <time>2021-06-29T13:44:06Z</time>
      </trkpt>
      <trkpt lat="45.85706" lon="1.14912">
        <ele>338.04</ele>
        <time>2021-06-29T13:44:22Z</time>
      </trkpt>
      <trkpt lat="45.85788" lon="1.14746">
        <ele>342.85</ele>
        <time>2021-06-29T13:44:29Z</time>
      </trkpt>
      <trkpt lat="45.85788" lon="1.14746">
        <ele>343.33</ele>
        <time>2021-06-29T13:44:30Z</time>
      </trkpt>
      <trkpt lat="45.85791" lon="1.14705">
        <ele>341.89</ele>
        <time>2021-06-29T13:44:31Z</time>
      </trkpt>
      <trkpt lat="45.85792" lon="1.14684">
        <ele>341.41</ele>
        <time>2021-06-29T13:44:32Z</time>
      </trkpt>
      <trkpt lat="45.85792" lon="1.14684">
        <ele>340.92</ele>
        <time>2021-06-29T13:44:33Z</time>
      </trkpt>
      <trkpt lat="45.85791" lon="1.14661">
        <ele>340.44</ele>
        <time>2021-06-29T13:44:34Z</time>
      </trkpt>
      <trkpt lat="45.85784" lon="1.14542">
        <ele>341.89</ele>
        <time>2021-06-29T13:44:41Z</time>
      </trkpt>
      <trkpt lat="45.85784" lon="1.14528">
        <ele>342.37</ele>
        <time>2021-06-29T13:44:42Z</time>
      </trkpt>
      <trkpt lat="45.85795" lon="1.14524">
        <ele>342.37</ele>
        <time>2021-06-29T13:44:43Z</time>
      </trkpt>
      <trkpt lat="45.85799" lon="1.14522">
        <ele>342.37</ele>
        <time>2021-06-29T13:44:44Z</time>
      </trkpt>
      <trkpt lat="45.85799" lon="1.14522">
        <ele>341.89</ele>
        <time>2021-06-29T13:44:45Z</time>
      </trkpt>
      <trkpt lat="45.85799" lon="1.14522">
        <ele>342.37</ele>
        <time>2021-06-29T13:44:46Z</time>
      </trkpt>
      <trkpt lat="45.8581" lon="1.14515">
        <ele>342.85</ele>
        <time>2021-06-29T13:44:47Z</time>
      </trkpt>
      <trkpt lat="45.85825" lon="1.14522">
        <ele>343.33</ele>
        <time>2021-06-29T13:44:48Z</time>
      </trkpt>
      <trkpt lat="45.85831" lon="1.14526">
        <ele>344.29</ele>
        <time>2021-06-29T13:44:49Z</time>
      </trkpt>
      <trkpt lat="45.85887" lon="1.14556">
        <ele>349.1</ele>
        <time>2021-06-29T13:45:01Z</time>
      </trkpt>
      <trkpt lat="45.85899" lon="1.14563">
        <ele>350.06</ele>
        <time>2021-06-29T13:45:04Z</time>
      </trkpt>
      <trkpt lat="45.85903" lon="1.14566">
        <ele>350.54</ele>
        <time>2021-06-29T13:45:05Z</time>
      </trkpt>
      <trkpt lat="45.85907" lon="1.14568">
        <ele>351.02</ele>
        <time>2021-06-29T13:45:06Z</time>
      </trkpt>
      <trkpt lat="45.85914" lon="1.14562">
        <ele>351.02</ele>
        <time>2021-06-29T13:45:07Z</time>
      </trkpt>
      <trkpt lat="45.85916" lon="1.14555">
        <ele>351.5</ele>
        <time>2021-06-29T13:45:08Z</time>
      </trkpt>
      <trkpt lat="45.85918" lon="1.14547">
        <ele>351.5</ele>
        <time>2021-06-29T13:45:09Z</time>
      </trkpt>
      <trkpt lat="45.85918" lon="1.14547">
        <ele>351.5</ele>
        <time>2021-06-29T13:45:10Z</time>
      </trkpt>
      <trkpt lat="45.85942" lon="1.14438">
        <ele>343.81</ele>
        <time>2021-06-29T13:45:17Z</time>
      </trkpt>
      <trkpt lat="45.85987" lon="1.14273">
        <ele>342.37</ele>
        <time>2021-06-29T13:45:24Z</time>
      </trkpt>
      <trkpt lat="45.861" lon="1.14041">
        <ele>335.16</ele>
        <time>2021-06-29T13:45:33Z</time>
      </trkpt>
      <trkpt lat="45.86258" lon="1.13797">
        <ele>326.5</ele>
        <time>2021-06-29T13:45:43Z</time>
      </trkpt>
      <trkpt lat="45.86397" lon="1.13546">
        <ele>319.3</ele>
        <time>2021-06-29T13:45:52Z</time>
      </trkpt>
      <trkpt lat="45.86478" lon="1.13281">
        <ele>314.49</ele>
        <time>2021-06-29T13:46:00Z</time>
      </trkpt>
      <trkpt lat="45.86526" lon="1.12921">
        <ele>308.72</ele>
        <time>2021-06-29T13:46:10Z</time>
      </trkpt>
      <trkpt lat="45.86598" lon="1.12417">
        <ele>306.32</ele>
        <time>2021-06-29T13:46:24Z</time>
      </trkpt>
      <trkpt lat="45.86683" lon="1.12203">
        <ele>304.88</ele>
        <time>2021-06-29T13:46:31Z</time>
      </trkpt>
      <trkpt lat="45.8681" lon="1.12029">
        <ele>302.47</ele>
        <time>2021-06-29T13:46:38Z</time>
      </trkpt>
      <trkpt lat="45.87035" lon="1.11851">
        <ele>309.68</ele>
        <time>2021-06-29T13:46:48Z</time>
      </trkpt>
      <trkpt lat="45.87264" lon="1.11637">
        <ele>310.16</ele>
        <time>2021-06-29T13:46:59Z</time>
      </trkpt>
      <trkpt lat="45.87393" lon="1.1143">
        <ele>310.16</ele>
        <time>2021-06-29T13:47:07Z</time>
      </trkpt>
      <trkpt lat="45.8756" lon="1.11056">
        <ele>306.8</ele>
        <time>2021-06-29T13:47:19Z</time>
      </trkpt>
      <trkpt lat="45.87787" lon="1.10569">
        <ele>303.43</ele>
        <time>2021-06-29T13:47:34Z</time>
      </trkpt>
      <trkpt lat="45.87967" lon="1.10344">
        <ele>309.2</ele>
        <time>2021-06-29T13:47:43Z</time>
      </trkpt>
      <trkpt lat="45.88157" lon="1.10087">
        <ele>311.12</ele>
        <time>2021-06-29T13:47:53Z</time>
      </trkpt>
      <trkpt lat="45.88259" lon="1.09832">
        <ele>310.64</ele>
        <time>2021-06-29T13:48:01Z</time>
      </trkpt>
      <trkpt lat="45.88316" lon="1.09547">
        <ele>301.51</ele>
        <time>2021-06-29T13:48:09Z</time>
      </trkpt>
      <trkpt lat="45.88322" lon="1.0925">
        <ele>296.7</ele>
        <time>2021-06-29T13:48:17Z</time>
      </trkpt>
      <trkpt lat="45.88321" lon="1.08772">
        <ele>297.67</ele>
        <time>2021-06-29T13:48:30Z</time>
      </trkpt>
      <trkpt lat="45.88378" lon="1.08485">
        <ele>302.47</ele>
        <time>2021-06-29T13:48:38Z</time>
      </trkpt>
      <trkpt lat="45.88582" lon="1.07824">
        <ele>307.76</ele>
        <time>2021-06-29T13:48:57Z</time>
      </trkpt>
      <trkpt lat="45.8873" lon="1.07289">
        <ele>301.51</ele>
        <time>2021-06-29T13:49:12Z</time>
      </trkpt>
      <trkpt lat="45.88806" lon="1.06806">
        <ele>298.63</ele>
        <time>2021-06-29T13:49:25Z</time>
      </trkpt>
      <trkpt lat="45.88932" lon="1.05928">
        <ele>282.77</ele>
        <time>2021-06-29T13:49:48Z</time>
      </trkpt>
      <trkpt lat="45.89036" lon="1.05209">
        <ele>278.92</ele>
        <time>2021-06-29T13:50:07Z</time>
      </trkpt>
      <trkpt lat="45.8912" lon="1.04628">
        <ele>284.21</ele>
        <time>2021-06-29T13:50:23Z</time>
      </trkpt>
      <trkpt lat="45.8923" lon="1.03992">
        <ele>290.94</ele>
        <time>2021-06-29T13:50:40Z</time>
      </trkpt>
      <trkpt lat="45.89347" lon="1.03678">
        <ele>293.34</ele>
        <time>2021-06-29T13:50:49Z</time>
      </trkpt>
      <trkpt lat="45.89522" lon="1.03358">
        <ele>296.22</ele>
        <time>2021-06-29T13:50:59Z</time>
      </trkpt>
      <trkpt lat="45.8981" lon="1.0284">
        <ele>302.47</ele>
        <time>2021-06-29T13:51:15Z</time>
      </trkpt>
      <trkpt lat="45.90038" lon="1.02349">
        <ele>290.46</ele>
        <time>2021-06-29T13:51:30Z</time>
      </trkpt>
      <trkpt lat="45.90241" lon="1.01904">
        <ele>280.36</ele>
        <time>2021-06-29T13:51:45Z</time>
      </trkpt>
      <trkpt lat="45.90444" lon="1.01442">
        <ele>277.48</ele>
        <time>2021-06-29T13:52:01Z</time>
      </trkpt>
      <trkpt lat="45.9054" lon="1.01113">
        <ele>274.59</ele>
        <time>2021-06-29T13:52:11Z</time>
      </trkpt>
      <trkpt lat="45.90587" lon="1.00794">
        <ele>272.19</ele>
        <time>2021-06-29T13:52:20Z</time>
      </trkpt>
      <trkpt lat="45.90607" lon="1.00373">
        <ele>273.63</ele>
        <time>2021-06-29T13:52:31Z</time>
      </trkpt>
      <trkpt lat="45.90633" lon="0.9953">
        <ele>276.04</ele>
        <time>2021-06-29T13:52:52Z</time>
      </trkpt>
      <trkpt lat="45.90621" lon="0.99138">
        <ele>274.11</ele>
        <time>2021-06-29T13:53:02Z</time>
      </trkpt>
      <trkpt lat="45.90617" lon="0.98678">
        <ele>270.75</ele>
        <time>2021-06-29T13:53:14Z</time>
      </trkpt>
      <trkpt lat="45.90661" lon="0.98291">
        <ele>267.86</ele>
        <time>2021-06-29T13:53:24Z</time>
      </trkpt>
      <trkpt lat="45.90742" lon="0.97703">
        <ele>267.86</ele>
        <time>2021-06-29T13:53:39Z</time>
      </trkpt>
      <trkpt lat="45.90745" lon="0.97342">
        <ele>269.79</ele>
        <time>2021-06-29T13:53:48Z</time>
      </trkpt>
      <trkpt lat="45.90697" lon="0.96707">
        <ele>275.07</ele>
        <time>2021-06-29T13:54:04Z</time>
      </trkpt>
      <trkpt lat="45.90666" lon="0.96271">
        <ele>278.92</ele>
        <time>2021-06-29T13:54:15Z</time>
      </trkpt>
      <trkpt lat="45.90648" lon="0.95673">
        <ele>288.05</ele>
        <time>2021-06-29T13:54:30Z</time>
      </trkpt>
      <trkpt lat="45.90586" lon="0.94986">
        <ele>281.32</ele>
        <time>2021-06-29T13:54:48Z</time>
      </trkpt>
      <trkpt lat="45.90524" lon="0.94543">
        <ele>275.56</ele>
        <time>2021-06-29T13:55:00Z</time>
      </trkpt>
      <trkpt lat="45.9046" lon="0.9396">
        <ele>262.1</ele>
        <time>2021-06-29T13:55:16Z</time>
      </trkpt>
      <trkpt lat="45.90445" lon="0.93633">
        <ele>259.21</ele>
        <time>2021-06-29T13:55:25Z</time>
      </trkpt>
      <trkpt lat="45.9049" lon="0.9334">
        <ele>262.1</ele>
        <time>2021-06-29T13:55:33Z</time>
      </trkpt>
      <trkpt lat="45.90581" lon="0.93074">
        <ele>259.21</ele>
        <time>2021-06-29T13:55:41Z</time>
      </trkpt>
      <trkpt lat="45.90786" lon="0.92577">
        <ele>258.73</ele>
        <time>2021-06-29T13:55:56Z</time>
      </trkpt>
      <trkpt lat="45.90878" lon="0.92258">
        <ele>254.41</ele>
        <time>2021-06-29T13:56:05Z</time>
      </trkpt>
      <trkpt lat="45.90922" lon="0.9188">
        <ele>244.79</ele>
        <time>2021-06-29T13:56:14Z</time>
      </trkpt>
      <trkpt lat="45.90928" lon="0.91391">
        <ele>227.01</ele>
        <time>2021-06-29T13:56:28Z</time>
      </trkpt>
      <trkpt lat="45.9093" lon="0.90525">
        <ele>211.63</ele>
        <time>2021-06-29T13:56:51Z</time>
      </trkpt>
      <trkpt lat="45.90933" lon="0.89746">
        <ele>227.97</ele>
        <time>2021-06-29T13:57:12Z</time>
      </trkpt>
      <trkpt lat="45.90936" lon="0.88885">
        <ele>237.1</ele>
        <time>2021-06-29T13:57:35Z</time>
      </trkpt>
      <trkpt lat="45.90904" lon="0.88405">
        <ele>249.6</ele>
        <time>2021-06-29T13:57:48Z</time>
      </trkpt>
      <trkpt lat="45.90824" lon="0.87869">
        <ele>270.27</ele>
        <time>2021-06-29T13:58:04Z</time>
      </trkpt>
      <trkpt lat="45.90736" lon="0.87341">
        <ele>272.19</ele>
        <time>2021-06-29T13:58:20Z</time>
      </trkpt>
      <trkpt lat="45.90672" lon="0.86979">
        <ele>259.21</ele>
        <time>2021-06-29T13:58:31Z</time>
      </trkpt>
      <trkpt lat="45.90571" lon="0.86439">
        <ele>235.66</ele>
        <time>2021-06-29T13:58:47Z</time>
      </trkpt>
      <trkpt lat="45.90449" lon="0.85837">
        <ele>224.12</ele>
        <time>2021-06-29T13:59:04Z</time>
      </trkpt>
      <trkpt lat="45.90391" lon="0.8556">
        <ele>227.97</ele>
        <time>2021-06-29T13:59:15Z</time>
      </trkpt>
      <trkpt lat="45.90308" lon="0.85187">
        <ele>233.26</ele>
        <time>2021-06-29T13:59:28Z</time>
      </trkpt>
      <trkpt lat="45.90204" lon="0.84729">
        <ele>231.81</ele>
        <time>2021-06-29T13:59:42Z</time>
      </trkpt>
      <trkpt lat="45.89993" lon="0.83881">
        <ele>217.4</ele>
        <time>2021-06-29T14:00:06Z</time>
      </trkpt>
      <trkpt lat="45.8981" lon="0.83227">
        <ele>214.03</ele>
        <time>2021-06-29T14:00:24Z</time>
      </trkpt>
      <trkpt lat="45.8967" lon="0.82901">
        <ele>227.49</ele>
        <time>2021-06-29T14:00:36Z</time>
      </trkpt>
      <trkpt lat="45.8942" lon="0.82401">
        <ele>216.91</ele>
        <time>2021-06-29T14:00:53Z</time>
      </trkpt>
      <trkpt lat="45.89027" lon="0.81619">
        <ele>209.22</ele>
        <time>2021-06-29T14:01:19Z</time>
      </trkpt>
      <trkpt lat="45.88737" lon="0.81089">
        <ele>215.95</ele>
        <time>2021-06-29T14:01:37Z</time>
      </trkpt>
      <trkpt lat="45.88461" lon="0.80636">
        <ele>222.2</ele>
        <time>2021-06-29T14:01:53Z</time>
      </trkpt>
      <trkpt lat="45.8834" lon="0.8034">
        <ele>218.84</ele>
        <time>2021-06-29T14:02:02Z</time>
      </trkpt>
      <trkpt lat="45.88215" lon="0.79901">
        <ele>205.38</ele>
        <time>2021-06-29T14:02:13Z</time>
      </trkpt>
      <trkpt lat="45.88105" lon="0.79405">
        <ele>193.84</ele>
        <time>2021-06-29T14:02:27Z</time>
      </trkpt>
      <trkpt lat="45.88075" lon="0.79057">
        <ele>202.98</ele>
        <time>2021-06-29T14:02:36Z</time>
      </trkpt>
      <trkpt lat="45.88096" lon="0.7868">
        <ele>209.7</ele>
        <time>2021-06-29T14:02:46Z</time>
      </trkpt>
      <trkpt lat="45.88178" lon="0.78014">
        <ele>200.09</ele>
        <time>2021-06-29T14:03:03Z</time>
      </trkpt>
      <trkpt lat="45.8821" lon="0.77536">
        <ele>201.53</ele>
        <time>2021-06-29T14:03:15Z</time>
      </trkpt>
      <trkpt lat="45.88254" lon="0.76706">
        <ele>184.71</ele>
        <time>2021-06-29T14:03:36Z</time>
      </trkpt>
      <trkpt lat="45.88251" lon="0.76303">
        <ele>178.94</ele>
        <time>2021-06-29T14:03:46Z</time>
      </trkpt>
      <trkpt lat="45.88192" lon="0.75911">
        <ele>180.38</ele>
        <time>2021-06-29T14:03:55Z</time>
      </trkpt>
      <trkpt lat="45.88093" lon="0.75587">
        <ele>181.83</ele>
        <time>2021-06-29T14:04:05Z</time>
      </trkpt>
      <trkpt lat="45.87839" lon="0.74812">
        <ele>168.37</ele>
        <time>2021-06-29T14:04:27Z</time>
      </trkpt>
      <trkpt lat="45.87728" lon="0.74556">
        <ele>165</ele>
        <time>2021-06-29T14:04:35Z</time>
      </trkpt>
      <trkpt lat="45.87424" lon="0.74046">
        <ele>163.08</ele>
        <time>2021-06-29T14:04:53Z</time>
      </trkpt>
      <trkpt lat="45.87233" lon="0.73853">
        <ele>165</ele>
        <time>2021-06-29T14:05:01Z</time>
      </trkpt>
      <trkpt lat="45.87069" lon="0.73764">
        <ele>175.58</ele>
        <time>2021-06-29T14:05:09Z</time>
      </trkpt>
      <trkpt lat="45.86839" lon="0.73685">
        <ele>188.56</ele>
        <time>2021-06-29T14:05:19Z</time>
      </trkpt>
      <trkpt lat="45.86673" lon="0.73574">
        <ele>194.32</ele>
        <time>2021-06-29T14:05:27Z</time>
      </trkpt>
      <trkpt lat="45.86553" lon="0.73423">
        <ele>200.09</ele>
        <time>2021-06-29T14:05:34Z</time>
      </trkpt>
      <trkpt lat="45.86459" lon="0.73191">
        <ele>201.53</ele>
        <time>2021-06-29T14:05:41Z</time>
      </trkpt>
      <trkpt lat="45.86423" lon="0.72991">
        <ele>200.09</ele>
        <time>2021-06-29T14:05:48Z</time>
      </trkpt>
      <trkpt lat="45.86426" lon="0.72746">
        <ele>198.65</ele>
        <time>2021-06-29T14:05:55Z</time>
      </trkpt>
      <trkpt lat="45.86503" lon="0.72347">
        <ele>190.48</ele>
        <time>2021-06-29T14:06:06Z</time>
      </trkpt>
      <trkpt lat="45.86611" lon="0.71873">
        <ele>177.02</ele>
        <time>2021-06-29T14:06:20Z</time>
      </trkpt>
      <trkpt lat="45.86764" lon="0.71486">
        <ele>164.52</ele>
        <time>2021-06-29T14:06:32Z</time>
      </trkpt>
      <trkpt lat="45.86862" lon="0.71183">
        <ele>156.83</ele>
        <time>2021-06-29T14:06:41Z</time>
      </trkpt>
      <trkpt lat="45.86903" lon="0.7086">
        <ele>158.27</ele>
        <time>2021-06-29T14:06:50Z</time>
      </trkpt>
      <trkpt lat="45.86894" lon="0.7054">
        <ele>168.85</ele>
        <time>2021-06-29T14:06:59Z</time>
      </trkpt>
      <trkpt lat="45.86861" lon="0.70021">
        <ele>187.11</ele>
        <time>2021-06-29T14:07:15Z</time>
      </trkpt>
      <trkpt lat="45.86823" lon="0.6971">
        <ele>193.84</ele>
        <time>2021-06-29T14:07:26Z</time>
      </trkpt>
      <trkpt lat="45.86811" lon="0.69486">
        <ele>195.28</ele>
        <time>2021-06-29T14:07:36Z</time>
      </trkpt>
      <trkpt lat="45.86815" lon="0.69385">
        <ele>196.25</ele>
        <time>2021-06-29T14:07:42Z</time>
      </trkpt>
      <trkpt lat="45.86815" lon="0.69375">
        <ele>196.25</ele>
        <time>2021-06-29T14:07:43Z</time>
      </trkpt>
      <trkpt lat="45.86816" lon="0.69366">
        <ele>196.25</ele>
        <time>2021-06-29T14:07:44Z</time>
      </trkpt>
      <trkpt lat="45.86827" lon="0.69363">
        <ele>196.25</ele>
        <time>2021-06-29T14:07:45Z</time>
      </trkpt>
      <trkpt lat="45.86835" lon="0.69352">
        <ele>196.25</ele>
        <time>2021-06-29T14:07:46Z</time>
      </trkpt>
      <trkpt lat="45.86848" lon="0.69332">
        <ele>196.73</ele>
        <time>2021-06-29T14:07:47Z</time>
      </trkpt>
      <trkpt lat="45.86848" lon="0.69332">
        <ele>196.25</ele>
        <time>2021-06-29T14:07:48Z</time>
      </trkpt>
      <trkpt lat="45.86859" lon="0.69332">
        <ele>196.25</ele>
        <time>2021-06-29T14:07:49Z</time>
      </trkpt>
      <trkpt lat="45.8687" lon="0.69332">
        <ele>197.21</ele>
        <time>2021-06-29T14:07:50Z</time>
      </trkpt>
      <trkpt lat="45.87037" lon="0.6933">
        <ele>188.56</ele>
        <time>2021-06-29T14:08:02Z</time>
      </trkpt>
      <trkpt lat="45.87095" lon="0.69313">
        <ele>184.23</ele>
        <time>2021-06-29T14:08:06Z</time>
      </trkpt>
      <trkpt lat="45.87108" lon="0.69303">
        <ele>183.27</ele>
        <time>2021-06-29T14:08:07Z</time>
      </trkpt>
      <trkpt lat="45.87164" lon="0.69241">
        <ele>178.94</ele>
        <time>2021-06-29T14:08:12Z</time>
      </trkpt>
      <trkpt lat="45.87177" lon="0.69216">
        <ele>179.9</ele>
        <time>2021-06-29T14:08:14Z</time>
      </trkpt>
      <trkpt lat="45.87198" lon="0.69176">
        <ele>179.9</ele>
        <time>2021-06-29T14:08:19Z</time>
      </trkpt>
      <trkpt lat="45.87201" lon="0.6917">
        <ele>180.38</ele>
        <time>2021-06-29T14:08:20Z</time>
      </trkpt>
      <trkpt lat="45.87203" lon="0.69165">
        <ele>180.38</ele>
        <time>2021-06-29T14:08:21Z</time>
      </trkpt>
      <trkpt lat="45.87206" lon="0.69159">
        <ele>180.87</ele>
        <time>2021-06-29T14:08:22Z</time>
      </trkpt>
      <trkpt lat="45.87212" lon="0.69155">
        <ele>181.35</ele>
        <time>2021-06-29T14:08:23Z</time>
      </trkpt>
      <trkpt lat="45.87217" lon="0.69156">
        <ele>181.35</ele>
        <time>2021-06-29T14:08:24Z</time>
      </trkpt>
      <trkpt lat="45.87222" lon="0.69158">
        <ele>180.87</ele>
        <time>2021-06-29T14:08:25Z</time>
      </trkpt>
      <trkpt lat="45.8723" lon="0.69157">
        <ele>180.87</ele>
        <time>2021-06-29T14:08:26Z</time>
      </trkpt>
      <trkpt lat="45.8724" lon="0.69137">
        <ele>180.87</ele>
        <time>2021-06-29T14:08:27Z</time>
      </trkpt>
      <trkpt lat="45.87239" lon="0.69125">
        <ele>180.38</ele>
        <time>2021-06-29T14:08:28Z</time>
      </trkpt>
      <trkpt lat="45.87238" lon="0.69116">
        <ele>180.38</ele>
        <time>2021-06-29T14:08:29Z</time>
      </trkpt>
      <trkpt lat="45.87231" lon="0.69109">
        <ele>180.38</ele>
        <time>2021-06-29T14:08:30Z</time>
      </trkpt>
      <trkpt lat="45.87231" lon="0.69109">
        <ele>180.87</ele>
        <time>2021-06-29T14:08:31Z</time>
      </trkpt>
      <trkpt lat="45.87224" lon="0.69104">
        <ele>180.87</ele>
        <time>2021-06-29T14:08:32Z</time>
      </trkpt>
      <trkpt lat="45.8722" lon="0.69089">
        <ele>181.35</ele>
        <time>2021-06-29T14:08:33Z</time>
      </trkpt>
      <trkpt lat="45.87217" lon="0.6906">
        <ele>181.83</ele>
        <time>2021-06-29T14:08:34Z</time>
      </trkpt>
      <trkpt lat="45.87217" lon="0.6906">
        <ele>181.83</ele>
        <time>2021-06-29T14:08:35Z</time>
      </trkpt>
      <trkpt lat="45.87215" lon="0.69045">
        <ele>182.31</ele>
        <time>2021-06-29T14:08:36Z</time>
      </trkpt>
      <trkpt lat="45.87204" lon="0.68877">
        <ele>188.08</ele>
        <time>2021-06-29T14:08:45Z</time>
      </trkpt>
      <trkpt lat="45.87211" lon="0.68668">
        <ele>193.36</ele>
        <time>2021-06-29T14:08:56Z</time>
      </trkpt>
      <trkpt lat="45.87208" lon="0.68335">
        <ele>187.59</ele>
        <time>2021-06-29T14:09:13Z</time>
      </trkpt>
      <trkpt lat="45.87206" lon="0.68066">
        <ele>182.31</ele>
        <time>2021-06-29T14:09:27Z</time>
      </trkpt>
      <trkpt lat="45.87204" lon="0.67682">
        <ele>171.73</ele>
        <time>2021-06-29T14:09:44Z</time>
      </trkpt>
      <trkpt lat="45.872" lon="0.67282">
        <ele>157.31</ele>
        <time>2021-06-29T14:10:00Z</time>
      </trkpt>
      <trkpt lat="45.87197" lon="0.66977">
        <ele>166.45</ele>
        <time>2021-06-29T14:10:12Z</time>
      </trkpt>
      <trkpt lat="45.87195" lon="0.66575">
        <ele>178.46</ele>
        <time>2021-06-29T14:10:28Z</time>
      </trkpt>
      <trkpt lat="45.8719" lon="0.65979">
        <ele>187.59</ele>
        <time>2021-06-29T14:10:51Z</time>
      </trkpt>
      <trkpt lat="45.87187" lon="0.65518">
        <ele>194.32</ele>
        <time>2021-06-29T14:11:10Z</time>
      </trkpt>
      <trkpt lat="45.87189" lon="0.65363">
        <ele>196.25</ele>
        <time>2021-06-29T14:11:18Z</time>
      </trkpt>
      <trkpt lat="45.87193" lon="0.65342">
        <ele>195.77</ele>
        <time>2021-06-29T14:11:19Z</time>
      </trkpt>
      <trkpt lat="45.87263" lon="0.65058">
        <ele>184.71</ele>
        <time>2021-06-29T14:11:30Z</time>
      </trkpt>
      <trkpt lat="45.87345" lon="0.64746">
        <ele>183.75</ele>
        <time>2021-06-29T14:11:43Z</time>
      </trkpt>
      <trkpt lat="45.87457" lon="0.64309">
        <ele>187.11</ele>
        <time>2021-06-29T14:11:59Z</time>
      </trkpt>
      <trkpt lat="45.87541" lon="0.63981">
        <ele>191.44</ele>
        <time>2021-06-29T14:12:11Z</time>
      </trkpt>
      <trkpt lat="45.87631" lon="0.63626">
        <ele>187.59</ele>
        <time>2021-06-29T14:12:26Z</time>
      </trkpt>
      <trkpt lat="45.87717" lon="0.63292">
        <ele>184.71</ele>
        <time>2021-06-29T14:12:39Z</time>
      </trkpt>
      <trkpt lat="45.87804" lon="0.62952">
        <ele>192.88</ele>
        <time>2021-06-29T14:12:52Z</time>
      </trkpt>
      <trkpt lat="45.87901" lon="0.62577">
        <ele>209.22</ele>
        <time>2021-06-29T14:13:07Z</time>
      </trkpt>
      <trkpt lat="45.88023" lon="0.62099">
        <ele>220.76</ele>
        <time>2021-06-29T14:13:27Z</time>
      </trkpt>
      <trkpt lat="45.88078" lon="0.61889">
        <ele>223.16</ele>
        <time>2021-06-29T14:13:37Z</time>
      </trkpt>
      <trkpt lat="45.88129" lon="0.61683">
        <ele>234.22</ele>
        <time>2021-06-29T14:13:52Z</time>
      </trkpt>
      <trkpt lat="45.88165" lon="0.61516">
        <ele>232.78</ele>
        <time>2021-06-29T14:14:02Z</time>
      </trkpt>
      <trkpt lat="45.88201" lon="0.61237">
        <ele>228.93</ele>
        <time>2021-06-29T14:14:18Z</time>
      </trkpt>
      <trkpt lat="45.88233" lon="0.61011">
        <ele>225.09</ele>
        <time>2021-06-29T14:14:31Z</time>
      </trkpt>
      <trkpt lat="45.88267" lon="0.60757">
        <ele>217.88</ele>
        <time>2021-06-29T14:14:42Z</time>
      </trkpt>
      <trkpt lat="45.8833" lon="0.60293">
        <ele>198.65</ele>
        <time>2021-06-29T14:15:00Z</time>
      </trkpt>
      <trkpt lat="45.88379" lon="0.59925">
        <ele>186.63</ele>
        <time>2021-06-29T14:15:15Z</time>
      </trkpt>
      <trkpt lat="45.88425" lon="0.59576">
        <ele>186.15</ele>
        <time>2021-06-29T14:15:30Z</time>
      </trkpt>
      <trkpt lat="45.88462" lon="0.59293">
        <ele>193.36</ele>
        <time>2021-06-29T14:15:44Z</time>
      </trkpt>
      <trkpt lat="45.88467" lon="0.59252">
        <ele>194.8</ele>
        <time>2021-06-29T14:15:47Z</time>
      </trkpt>
      <trkpt lat="45.88469" lon="0.5924">
        <ele>195.28</ele>
        <time>2021-06-29T14:15:48Z</time>
      </trkpt>
      <trkpt lat="45.8848" lon="0.5923">
        <ele>195.77</ele>
        <time>2021-06-29T14:15:49Z</time>
      </trkpt>
      <trkpt lat="45.88488" lon="0.59218">
        <ele>196.25</ele>
        <time>2021-06-29T14:15:50Z</time>
      </trkpt>
      <trkpt lat="45.8849" lon="0.59204">
        <ele>196.73</ele>
        <time>2021-06-29T14:15:51Z</time>
      </trkpt>
      <trkpt lat="45.8849" lon="0.59204">
        <ele>197.21</ele>
        <time>2021-06-29T14:15:52Z</time>
      </trkpt>
      <trkpt lat="45.88489" lon="0.59197">
        <ele>197.21</ele>
        <time>2021-06-29T14:15:53Z</time>
      </trkpt>
      <trkpt lat="45.88489" lon="0.59197">
        <ele>197.69</ele>
        <time>2021-06-29T14:15:54Z</time>
      </trkpt>
      <trkpt lat="45.88476" lon="0.59175">
        <ele>197.69</ele>
        <time>2021-06-29T14:15:55Z</time>
      </trkpt>
      <trkpt lat="45.88478" lon="0.59165">
        <ele>198.17</ele>
        <time>2021-06-29T14:15:56Z</time>
      </trkpt>
      <trkpt lat="45.88479" lon="0.59154">
        <ele>198.17</ele>
        <time>2021-06-29T14:15:57Z</time>
      </trkpt>
      <trkpt lat="45.885" lon="0.59004">
        <ele>200.09</ele>
        <time>2021-06-29T14:16:06Z</time>
      </trkpt>
      <trkpt lat="45.88531" lon="0.58781">
        <ele>203.94</ele>
        <time>2021-06-29T14:16:18Z</time>
      </trkpt>
      <trkpt lat="45.8856" lon="0.58554">
        <ele>209.22</ele>
        <time>2021-06-29T14:16:34Z</time>
      </trkpt>
      <trkpt lat="45.88576" lon="0.58441">
        <ele>212.59</ele>
        <time>2021-06-29T14:16:44Z</time>
      </trkpt>
      <trkpt lat="45.88582" lon="0.58388">
        <ele>214.03</ele>
        <time>2021-06-29T14:16:55Z</time>
      </trkpt>
      <trkpt lat="45.88583" lon="0.58382">
        <ele>214.03</ele>
        <time>2021-06-29T14:17:16Z</time>
      </trkpt>
      <trkpt lat="45.8859" lon="0.58338">
        <ele>214.99</ele>
        <time>2021-06-29T14:17:24Z</time>
      </trkpt>
      <trkpt lat="45.88608" lon="0.58193">
        <ele>217.4</ele>
        <time>2021-06-29T14:17:37Z</time>
      </trkpt>
      <trkpt lat="45.88633" lon="0.57983">
        <ele>220.28</ele>
        <time>2021-06-29T14:17:54Z</time>
      </trkpt>
      <trkpt lat="45.88633" lon="0.57971">
        <ele>220.28</ele>
        <time>2021-06-29T14:17:55Z</time>
      </trkpt>
      <trkpt lat="45.88633" lon="0.57959">
        <ele>219.8</ele>
        <time>2021-06-29T14:17:56Z</time>
      </trkpt>
      <trkpt lat="45.8863" lon="0.5795">
        <ele>219.32</ele>
        <time>2021-06-29T14:17:57Z</time>
      </trkpt>
      <trkpt lat="45.88626" lon="0.57939">
        <ele>219.32</ele>
        <time>2021-06-29T14:17:58Z</time>
      </trkpt>
      <trkpt lat="45.88561" lon="0.57759">
        <ele>216.43</ele>
        <time>2021-06-29T14:18:13Z</time>
      </trkpt>
      <trkpt lat="45.88475" lon="0.57596">
        <ele>213.07</ele>
        <time>2021-06-29T14:18:28Z</time>
      </trkpt>
      <trkpt lat="45.8836" lon="0.5739">
        <ele>202.01</ele>
        <time>2021-06-29T14:18:45Z</time>
      </trkpt>
      <trkpt lat="45.88229" lon="0.5715">
        <ele>190.96</ele>
        <time>2021-06-29T14:19:02Z</time>
      </trkpt>
      <trkpt lat="45.8808" lon="0.56883">
        <ele>197.69</ele>
        <time>2021-06-29T14:19:16Z</time>
      </trkpt>
      <trkpt lat="45.8796" lon="0.56662">
        <ele>196.73</ele>
        <time>2021-06-29T14:19:30Z</time>
      </trkpt>
      <trkpt lat="45.87826" lon="0.56396">
        <ele>195.28</ele>
        <time>2021-06-29T14:19:45Z</time>
      </trkpt>
      <trkpt lat="45.87782" lon="0.56227">
        <ele>192.4</ele>
        <time>2021-06-29T14:19:55Z</time>
      </trkpt>
      <trkpt lat="45.87722" lon="0.56096">
        <ele>190</ele>
        <time>2021-06-29T14:20:03Z</time>
      </trkpt>
      <trkpt lat="45.87713" lon="0.56081">
        <ele>190</ele>
        <time>2021-06-29T14:20:04Z</time>
      </trkpt>
      <trkpt lat="45.87703" lon="0.56067">
        <ele>189.52</ele>
        <time>2021-06-29T14:20:05Z</time>
      </trkpt>
      <trkpt lat="45.87692" lon="0.56057">
        <ele>189.04</ele>
        <time>2021-06-29T14:20:06Z</time>
      </trkpt>
      <trkpt lat="45.87678" lon="0.56047">
        <ele>188.56</ele>
        <time>2021-06-29T14:20:07Z</time>
      </trkpt>
      <trkpt lat="45.87664" lon="0.56037">
        <ele>188.08</ele>
        <time>2021-06-29T14:20:08Z</time>
      </trkpt>
      <trkpt lat="45.87588" lon="0.55972">
        <ele>190.48</ele>
        <time>2021-06-29T14:20:14Z</time>
      </trkpt>
      <trkpt lat="45.87578" lon="0.55959">
        <ele>190.96</ele>
        <time>2021-06-29T14:20:15Z</time>
      </trkpt>
      <trkpt lat="45.87568" lon="0.55945">
        <ele>191.44</ele>
        <time>2021-06-29T14:20:16Z</time>
      </trkpt>
      <trkpt lat="45.87442" lon="0.55718">
        <ele>192.4</ele>
        <time>2021-06-29T14:20:29Z</time>
      </trkpt>
      <trkpt lat="45.87262" lon="0.55391">
        <ele>190.96</ele>
        <time>2021-06-29T14:20:46Z</time>
      </trkpt>
      <trkpt lat="45.87086" lon="0.55066">
        <ele>190</ele>
        <time>2021-06-29T14:21:04Z</time>
      </trkpt>
      <trkpt lat="45.8689" lon="0.54707">
        <ele>181.35</ele>
        <time>2021-06-29T14:21:24Z</time>
      </trkpt>
      <trkpt lat="45.86796" lon="0.54535">
        <ele>179.9</ele>
        <time>2021-06-29T14:21:35Z</time>
      </trkpt>
      <trkpt lat="45.86654" lon="0.54272">
        <ele>177.98</ele>
        <time>2021-06-29T14:21:56Z</time>
      </trkpt>
      <trkpt lat="45.86517" lon="0.54022">
        <ele>172.69</ele>
        <time>2021-06-29T14:22:16Z</time>
      </trkpt>
      <trkpt lat="45.86484" lon="0.53954">
        <ele>169.33</ele>
        <time>2021-06-29T14:22:21Z</time>
      </trkpt>
      <trkpt lat="45.86478" lon="0.53939">
        <ele>168.85</ele>
        <time>2021-06-29T14:22:22Z</time>
      </trkpt>
      <trkpt lat="45.8647" lon="0.53904">
        <ele>168.37</ele>
        <time>2021-06-29T14:22:23Z</time>
      </trkpt>
      <trkpt lat="45.8647" lon="0.53904">
        <ele>168.85</ele>
        <time>2021-06-29T14:22:24Z</time>
      </trkpt>
      <trkpt lat="45.86467" lon="0.53887">
        <ele>169.33</ele>
        <time>2021-06-29T14:22:25Z</time>
      </trkpt>
      <trkpt lat="45.86455" lon="0.53748">
        <ele>172.69</ele>
        <time>2021-06-29T14:22:33Z</time>
      </trkpt>
      <trkpt lat="45.86453" lon="0.53732">
        <ele>172.69</ele>
        <time>2021-06-29T14:22:34Z</time>
      </trkpt>
      <trkpt lat="45.86451" lon="0.53717">
        <ele>173.17</ele>
        <time>2021-06-29T14:22:35Z</time>
      </trkpt>
      <trkpt lat="45.86359" lon="0.53499">
        <ele>176.06</ele>
        <time>2021-06-29T14:22:50Z</time>
      </trkpt>
      <trkpt lat="45.86313" lon="0.53348">
        <ele>176.06</ele>
        <time>2021-06-29T14:22:59Z</time>
      </trkpt>
      <trkpt lat="45.86239" lon="0.53091">
        <ele>172.69</ele>
        <time>2021-06-29T14:23:10Z</time>
      </trkpt>
      <trkpt lat="45.86115" lon="0.52646">
        <ele>179.9</ele>
        <time>2021-06-29T14:23:27Z</time>
      </trkpt>
      <trkpt lat="45.8596" lon="0.52092">
        <ele>180.38</ele>
        <time>2021-06-29T14:23:47Z</time>
      </trkpt>
      <trkpt lat="45.85874" lon="0.51776">
        <ele>179.42</ele>
        <time>2021-06-29T14:23:59Z</time>
      </trkpt>
      <trkpt lat="45.85795" lon="0.51486">
        <ele>177.5</ele>
        <time>2021-06-29T14:24:11Z</time>
      </trkpt>
      <trkpt lat="45.85707" lon="0.51205">
        <ele>176.06</ele>
        <time>2021-06-29T14:24:26Z</time>
      </trkpt>
      <trkpt lat="45.8561" lon="0.51049">
        <ele>175.1</ele>
        <time>2021-06-29T14:24:36Z</time>
      </trkpt>
      <trkpt lat="45.85423" lon="0.50801">
        <ele>174.62</ele>
        <time>2021-06-29T14:24:52Z</time>
      </trkpt>
      <trkpt lat="45.85321" lon="0.50669">
        <ele>176.06</ele>
        <time>2021-06-29T14:25:03Z</time>
      </trkpt>
      <trkpt lat="45.85168" lon="0.50466">
        <ele>183.27</ele>
        <time>2021-06-29T14:25:18Z</time>
      </trkpt>
      <trkpt lat="45.85081" lon="0.50348">
        <ele>184.23</ele>
        <time>2021-06-29T14:25:27Z</time>
      </trkpt>
      <trkpt lat="45.84933" lon="0.50147">
        <ele>180.38</ele>
        <time>2021-06-29T14:25:40Z</time>
      </trkpt>
      <trkpt lat="45.84756" lon="0.49905">
        <ele>175.1</ele>
        <time>2021-06-29T14:25:53Z</time>
      </trkpt>
      <trkpt lat="45.84506" lon="0.49559">
        <ele>173.17</ele>
        <time>2021-06-29T14:26:10Z</time>
      </trkpt>
      <trkpt lat="45.84225" lon="0.49171">
        <ele>161.64</ele>
        <time>2021-06-29T14:26:30Z</time>
      </trkpt>
      <trkpt lat="45.84018" lon="0.48877">
        <ele>151.06</ele>
        <time>2021-06-29T14:26:45Z</time>
      </trkpt>
      <trkpt lat="45.83898" lon="0.48636">
        <ele>159.24</ele>
        <time>2021-06-29T14:26:56Z</time>
      </trkpt>
      <trkpt lat="45.83761" lon="0.48264">
        <ele>152.03</ele>
        <time>2021-06-29T14:27:12Z</time>
      </trkpt>
      <trkpt lat="45.83624" lon="0.47889">
        <ele>140.01</ele>
        <time>2021-06-29T14:27:27Z</time>
      </trkpt>
      <trkpt lat="45.83449" lon="0.47406">
        <ele>136.16</ele>
        <time>2021-06-29T14:27:47Z</time>
      </trkpt>
      <trkpt lat="45.83332" lon="0.47113">
        <ele>129.43</ele>
        <time>2021-06-29T14:28:00Z</time>
      </trkpt>
      <trkpt lat="45.83256" lon="0.47013">
        <ele>124.63</ele>
        <time>2021-06-29T14:28:08Z</time>
      </trkpt>
      <trkpt lat="45.83256" lon="0.47013">
        <ele>123.67</ele>
        <time>2021-06-29T14:28:09Z</time>
      </trkpt>
      <trkpt lat="45.83249" lon="0.47001">
        <ele>122.22</ele>
        <time>2021-06-29T14:28:10Z</time>
      </trkpt>
      <trkpt lat="45.83242" lon="0.4699">
        <ele>122.22</ele>
        <time>2021-06-29T14:28:11Z</time>
      </trkpt>
      <trkpt lat="45.83238" lon="0.46979">
        <ele>121.26</ele>
        <time>2021-06-29T14:28:12Z</time>
      </trkpt>
      <trkpt lat="45.83235" lon="0.46969">
        <ele>121.26</ele>
        <time>2021-06-29T14:28:13Z</time>
      </trkpt>
      <trkpt lat="45.83232" lon="0.4696">
        <ele>120.78</ele>
        <time>2021-06-29T14:28:14Z</time>
      </trkpt>
      <trkpt lat="45.8323" lon="0.46951">
        <ele>120.78</ele>
        <time>2021-06-29T14:28:15Z</time>
      </trkpt>
      <trkpt lat="45.83228" lon="0.46924">
        <ele>122.71</ele>
        <time>2021-06-29T14:28:22Z</time>
      </trkpt>
      <trkpt lat="45.83231" lon="0.46921">
        <ele>122.22</ele>
        <time>2021-06-29T14:28:23Z</time>
      </trkpt>
      <trkpt lat="45.83237" lon="0.46913">
        <ele>122.22</ele>
        <time>2021-06-29T14:28:25Z</time>
      </trkpt>
      <trkpt lat="45.83239" lon="0.46902">
        <ele>122.71</ele>
        <time>2021-06-29T14:28:26Z</time>
      </trkpt>
      <trkpt lat="45.8324" lon="0.46894">
        <ele>122.71</ele>
        <time>2021-06-29T14:28:27Z</time>
      </trkpt>
      <trkpt lat="45.83233" lon="0.46875">
        <ele>122.71</ele>
        <time>2021-06-29T14:28:28Z</time>
      </trkpt>
      <trkpt lat="45.83233" lon="0.46875">
        <ele>122.22</ele>
        <time>2021-06-29T14:28:29Z</time>
      </trkpt>
      <trkpt lat="45.83229" lon="0.46869">
        <ele>121.74</ele>
        <time>2021-06-29T14:28:30Z</time>
      </trkpt>
      <trkpt lat="45.83225" lon="0.46863">
        <ele>121.26</ele>
        <time>2021-06-29T14:28:31Z</time>
      </trkpt>
      <trkpt lat="45.83216" lon="0.46863">
        <ele>121.26</ele>
        <time>2021-06-29T14:28:32Z</time>
      </trkpt>
      <trkpt lat="45.83211" lon="0.46864">
        <ele>120.78</ele>
        <time>2021-06-29T14:28:33Z</time>
      </trkpt>
      <trkpt lat="45.832" lon="0.46859">
        <ele>120.3</ele>
        <time>2021-06-29T14:28:34Z</time>
      </trkpt>
      <trkpt lat="45.83194" lon="0.4684">
        <ele>120.3</ele>
        <time>2021-06-29T14:28:35Z</time>
      </trkpt>
      <trkpt lat="45.83194" lon="0.4684">
        <ele>119.82</ele>
        <time>2021-06-29T14:28:36Z</time>
      </trkpt>
      <trkpt lat="45.83148" lon="0.46705">
        <ele>121.26</ele>
        <time>2021-06-29T14:28:45Z</time>
      </trkpt>
      <trkpt lat="45.83117" lon="0.46634">
        <ele>121.74</ele>
        <time>2021-06-29T14:28:49Z</time>
      </trkpt>
      <trkpt lat="45.83002" lon="0.46486">
        <ele>119.82</ele>
        <time>2021-06-29T14:28:58Z</time>
      </trkpt>
      <trkpt lat="45.82783" lon="0.46239">
        <ele>118.86</ele>
        <time>2021-06-29T14:29:12Z</time>
      </trkpt>
      <trkpt lat="45.82589" lon="0.46014">
        <ele>116.94</ele>
        <time>2021-06-29T14:29:23Z</time>
      </trkpt>
      <trkpt lat="45.82339" lon="0.45776">
        <ele>116.94</ele>
        <time>2021-06-29T14:29:35Z</time>
      </trkpt>
      <trkpt lat="45.82145" lon="0.45681">
        <ele>118.86</ele>
        <time>2021-06-29T14:29:43Z</time>
      </trkpt>
      <trkpt lat="45.81837" lon="0.45571">
        <ele>115.98</ele>
        <time>2021-06-29T14:29:55Z</time>
      </trkpt>
      <trkpt lat="45.8162" lon="0.45417">
        <ele>114.05</ele>
        <time>2021-06-29T14:30:04Z</time>
      </trkpt>
      <trkpt lat="45.81329" lon="0.4512">
        <ele>111.65</ele>
        <time>2021-06-29T14:30:17Z</time>
      </trkpt>
      <trkpt lat="45.80953" lon="0.44721">
        <ele>119.34</ele>
        <time>2021-06-29T14:30:34Z</time>
      </trkpt>
      <trkpt lat="45.8065" lon="0.44402">
        <ele>112.61</ele>
        <time>2021-06-29T14:30:48Z</time>
      </trkpt>
      <trkpt lat="45.80351" lon="0.44084">
        <ele>108.29</ele>
        <time>2021-06-29T14:31:01Z</time>
      </trkpt>
      <trkpt lat="45.80004" lon="0.43715">
        <ele>113.57</ele>
        <time>2021-06-29T14:31:18Z</time>
      </trkpt>
      <trkpt lat="45.79566" lon="0.43242">
        <ele>120.3</ele>
        <time>2021-06-29T14:31:38Z</time>
      </trkpt>
      <trkpt lat="45.79392" lon="0.42976">
        <ele>121.26</ele>
        <time>2021-06-29T14:31:47Z</time>
      </trkpt>
      <trkpt lat="45.79277" lon="0.42694">
        <ele>116.94</ele>
        <time>2021-06-29T14:31:55Z</time>
      </trkpt>
      <trkpt lat="45.79138" lon="0.42195">
        <ele>110.69</ele>
        <time>2021-06-29T14:32:08Z</time>
      </trkpt>
      <trkpt lat="45.79024" lon="0.41888">
        <ele>107.32</ele>
        <time>2021-06-29T14:32:17Z</time>
      </trkpt>
      <trkpt lat="45.7887" lon="0.41622">
        <ele>102.52</ele>
        <time>2021-06-29T14:32:26Z</time>
      </trkpt>
      <trkpt lat="45.78632" lon="0.41331">
        <ele>98.19</ele>
        <time>2021-06-29T14:32:38Z</time>
      </trkpt>
      <trkpt lat="45.78408" lon="0.41011">
        <ele>92.9</ele>
        <time>2021-06-29T14:32:50Z</time>
      </trkpt>
      <trkpt lat="45.78224" lon="0.40806">
        <ele>91.94</ele>
        <time>2021-06-29T14:32:59Z</time>
      </trkpt>
      <trkpt lat="45.77982" lon="0.40631">
        <ele>91.94</ele>
        <time>2021-06-29T14:33:09Z</time>
      </trkpt>
      <trkpt lat="45.77397" lon="0.4025">
        <ele>104.92</ele>
        <time>2021-06-29T14:33:33Z</time>
      </trkpt>
      <trkpt lat="45.76882" lon="0.39918">
        <ele>125.59</ele>
        <time>2021-06-29T14:33:55Z</time>
      </trkpt>
      <trkpt lat="45.7644" lon="0.39629">
        <ele>127.99</ele>
        <time>2021-06-29T14:34:14Z</time>
      </trkpt>
      <trkpt lat="45.76059" lon="0.39364">
        <ele>125.59</ele>
        <time>2021-06-29T14:34:30Z</time>
      </trkpt>
      <trkpt lat="45.75767" lon="0.391">
        <ele>121.26</ele>
        <time>2021-06-29T14:34:43Z</time>
      </trkpt>
      <trkpt lat="45.75597" lon="0.38857">
        <ele>112.61</ele>
        <time>2021-06-29T14:34:52Z</time>
      </trkpt>
      <trkpt lat="45.75464" lon="0.3857">
        <ele>99.63</ele>
        <time>2021-06-29T14:35:01Z</time>
      </trkpt>
      <trkpt lat="45.75367" lon="0.38203">
        <ele>84.73</ele>
        <time>2021-06-29T14:35:10Z</time>
      </trkpt>
      <trkpt lat="45.75276" lon="0.37676">
        <ele>78.97</ele>
        <time>2021-06-29T14:35:25Z</time>
      </trkpt>
      <trkpt lat="45.75201" lon="0.37317">
        <ele>80.41</ele>
        <time>2021-06-29T14:35:35Z</time>
      </trkpt>
      <trkpt lat="45.75095" lon="0.37062">
        <ele>80.41</ele>
        <time>2021-06-29T14:35:43Z</time>
      </trkpt>
      <trkpt lat="45.74955" lon="0.36848">
        <ele>81.85</ele>
        <time>2021-06-29T14:35:51Z</time>
      </trkpt>
      <trkpt lat="45.74764" lon="0.3667">
        <ele>82.81</ele>
        <time>2021-06-29T14:35:59Z</time>
      </trkpt>
      <trkpt lat="45.74582" lon="0.36522">
        <ele>85.69</ele>
        <time>2021-06-29T14:36:08Z</time>
      </trkpt>
      <trkpt lat="45.74428" lon="0.36332">
        <ele>92.42</ele>
        <time>2021-06-29T14:36:16Z</time>
      </trkpt>
      <trkpt lat="45.74299" lon="0.36073">
        <ele>97.71</ele>
        <time>2021-06-29T14:36:25Z</time>
      </trkpt>
      <trkpt lat="45.74224" lon="0.35802">
        <ele>98.19</ele>
        <time>2021-06-29T14:36:33Z</time>
      </trkpt>
      <trkpt lat="45.74052" lon="0.35091">
        <ele>94.83</ele>
        <time>2021-06-29T14:36:53Z</time>
      </trkpt>
      <trkpt lat="45.73944" lon="0.34719">
        <ele>93.87</ele>
        <time>2021-06-29T14:37:04Z</time>
      </trkpt>
      <trkpt lat="45.73811" lon="0.3446">
        <ele>88.58</ele>
        <time>2021-06-29T14:37:13Z</time>
      </trkpt>
      <trkpt lat="45.73479" lon="0.3394">
        <ele>77.52</ele>
        <time>2021-06-29T14:37:32Z</time>
      </trkpt>
      <trkpt lat="45.73209" lon="0.33595">
        <ele>82.81</ele>
        <time>2021-06-29T14:37:46Z</time>
      </trkpt>
      <trkpt lat="45.7299" lon="0.33252">
        <ele>91.94</ele>
        <time>2021-06-29T14:37:59Z</time>
      </trkpt>
      <trkpt lat="45.72584" lon="0.32585">
        <ele>105.4</ele>
        <time>2021-06-29T14:38:24Z</time>
      </trkpt>
      <trkpt lat="45.72429" lon="0.32257">
        <ele>109.73</ele>
        <time>2021-06-29T14:38:35Z</time>
      </trkpt>
      <trkpt lat="45.72168" lon="0.31627">
        <ele>119.34</ele>
        <time>2021-06-29T14:38:55Z</time>
      </trkpt>
      <trkpt lat="45.71935" lon="0.31072">
        <ele>111.17</ele>
        <time>2021-06-29T14:39:13Z</time>
      </trkpt>
      <trkpt lat="45.71727" lon="0.30571">
        <ele>118.38</ele>
        <time>2021-06-29T14:39:29Z</time>
      </trkpt>
      <trkpt lat="45.71451" lon="0.29914">
        <ele>126.55</ele>
        <time>2021-06-29T14:39:49Z</time>
      </trkpt>
      <trkpt lat="45.71205" lon="0.29319">
        <ele>124.15</ele>
        <time>2021-06-29T14:40:09Z</time>
      </trkpt>
      <trkpt lat="45.71062" lon="0.28942">
        <ele>131.36</ele>
        <time>2021-06-29T14:40:21Z</time>
      </trkpt>
      <trkpt lat="45.70961" lon="0.28547">
        <ele>140.01</ele>
        <time>2021-06-29T14:40:33Z</time>
      </trkpt>
      <trkpt lat="45.70909" lon="0.28131">
        <ele>143.37</ele>
        <time>2021-06-29T14:40:44Z</time>
      </trkpt>
      <trkpt lat="45.70861" lon="0.27726">
        <ele>133.76</ele>
        <time>2021-06-29T14:40:56Z</time>
      </trkpt>
      <trkpt lat="45.70769" lon="0.27401">
        <ele>132.8</ele>
        <time>2021-06-29T14:41:05Z</time>
      </trkpt>
      <trkpt lat="45.70553" lon="0.26858">
        <ele>136.16</ele>
        <time>2021-06-29T14:41:21Z</time>
      </trkpt>
      <trkpt lat="45.70369" lon="0.26524">
        <ele>135.68</ele>
        <time>2021-06-29T14:41:31Z</time>
      </trkpt>
      <trkpt lat="45.70152" lon="0.26134">
        <ele>142.41</ele>
        <time>2021-06-29T14:41:45Z</time>
      </trkpt>
      <trkpt lat="45.70043" lon="0.25832">
        <ele>144.34</ele>
        <time>2021-06-29T14:41:54Z</time>
      </trkpt>
      <trkpt lat="45.69888" lon="0.2529">
        <ele>140.01</ele>
        <time>2021-06-29T14:42:09Z</time>
      </trkpt>
      <trkpt lat="45.69689" lon="0.24724">
        <ele>132.8</ele>
        <time>2021-06-29T14:42:25Z</time>
      </trkpt>
      <trkpt lat="45.69445" lon="0.24067">
        <ele>117.42</ele>
        <time>2021-06-29T14:42:44Z</time>
      </trkpt>
      <trkpt lat="45.69209" lon="0.23424">
        <ele>96.27</ele>
        <time>2021-06-29T14:43:03Z</time>
      </trkpt>
      <trkpt lat="45.69036" lon="0.22889">
        <ele>77.04</ele>
        <time>2021-06-29T14:43:18Z</time>
      </trkpt>
      <trkpt lat="45.68888" lon="0.22269">
        <ele>71.27</ele>
        <time>2021-06-29T14:43:34Z</time>
      </trkpt>
      <trkpt lat="45.6875" lon="0.21601">
        <ele>84.25</ele>
        <time>2021-06-29T14:43:52Z</time>
      </trkpt>
      <trkpt lat="45.68637" lon="0.20989">
        <ele>83.29</ele>
        <time>2021-06-29T14:44:09Z</time>
      </trkpt>
      <trkpt lat="45.68615" lon="0.20583">
        <ele>79.45</ele>
        <time>2021-06-29T14:44:20Z</time>
      </trkpt>
      <trkpt lat="45.68644" lon="0.20189">
        <ele>77.04</ele>
        <time>2021-06-29T14:44:31Z</time>
      </trkpt>
      <trkpt lat="45.68699" lon="0.19816">
        <ele>69.83</ele>
        <time>2021-06-29T14:44:42Z</time>
      </trkpt>
      <trkpt lat="45.68789" lon="0.19568">
        <ele>57.82</ele>
        <time>2021-06-29T14:44:50Z</time>
      </trkpt>
      <trkpt lat="45.68919" lon="0.19354">
        <ele>53.01</ele>
        <time>2021-06-29T14:44:58Z</time>
      </trkpt>
      <trkpt lat="45.6908" lon="0.19194">
        <ele>60.7</ele>
        <time>2021-06-29T14:45:06Z</time>
      </trkpt>
      <trkpt lat="45.69373" lon="0.18973">
        <ele>75.12</ele>
        <time>2021-06-29T14:45:21Z</time>
      </trkpt>
      <trkpt lat="45.69541" lon="0.18815">
        <ele>79.93</ele>
        <time>2021-06-29T14:45:31Z</time>
      </trkpt>
      <trkpt lat="45.69623" lon="0.18645">
        <ele>80.41</ele>
        <time>2021-06-29T14:45:38Z</time>
      </trkpt>
      <trkpt lat="45.69653" lon="0.18438">
        <ele>75.12</ele>
        <time>2021-06-29T14:45:45Z</time>
      </trkpt>
      <trkpt lat="45.69626" lon="0.1822">
        <ele>71.27</ele>
        <time>2021-06-29T14:45:52Z</time>
      </trkpt>
      <trkpt lat="45.69561" lon="0.17993">
        <ele>65.51</ele>
        <time>2021-06-29T14:46:00Z</time>
      </trkpt>
      <trkpt lat="45.69558" lon="0.17962">
        <ele>65.03</ele>
        <time>2021-06-29T14:46:01Z</time>
      </trkpt>
      <trkpt lat="45.69555" lon="0.17931">
        <ele>64.55</ele>
        <time>2021-06-29T14:46:02Z</time>
      </trkpt>
      <trkpt lat="45.69547" lon="0.17527">
        <ele>54.93</ele>
        <time>2021-06-29T14:46:15Z</time>
      </trkpt>
      <trkpt lat="45.69534" lon="0.17468">
        <ele>55.41</ele>
        <time>2021-06-29T14:46:16Z</time>
      </trkpt>
      <trkpt lat="45.69527" lon="0.17437">
        <ele>54.93</ele>
        <time>2021-06-29T14:46:17Z</time>
      </trkpt>
      <trkpt lat="45.69527" lon="0.17437">
        <ele>54.93</ele>
        <time>2021-06-29T14:46:18Z</time>
      </trkpt>
      <trkpt lat="45.69518" lon="0.1741">
        <ele>54.93</ele>
        <time>2021-06-29T14:46:19Z</time>
      </trkpt>
      <trkpt lat="45.69496" lon="0.17358">
        <ele>54.45</ele>
        <time>2021-06-29T14:46:20Z</time>
      </trkpt>
      <trkpt lat="45.69413" lon="0.17151">
        <ele>49.65</ele>
        <time>2021-06-29T14:46:29Z</time>
      </trkpt>
      <trkpt lat="45.69377" lon="0.16914">
        <ele>46.28</ele>
        <time>2021-06-29T14:46:37Z</time>
      </trkpt>
      <trkpt lat="45.69335" lon="0.16672">
        <ele>48.68</ele>
        <time>2021-06-29T14:46:47Z</time>
      </trkpt>
      <trkpt lat="45.69285" lon="0.16424">
        <ele>52.53</ele>
        <time>2021-06-29T14:46:57Z</time>
      </trkpt>
      <trkpt lat="45.69205" lon="0.16221">
        <ele>58.3</ele>
        <time>2021-06-29T14:47:05Z</time>
      </trkpt>
      <trkpt lat="45.69063" lon="0.16021">
        <ele>57.82</ele>
        <time>2021-06-29T14:47:13Z</time>
      </trkpt>
      <trkpt lat="45.68898" lon="0.1588">
        <ele>53.97</ele>
        <time>2021-06-29T14:47:22Z</time>
      </trkpt>
      <trkpt lat="45.68577" lon="0.15622">
        <ele>37.15</ele>
        <time>2021-06-29T14:47:36Z</time>
      </trkpt>
      <trkpt lat="45.683" lon="0.15357">
        <ele>29.94</ele>
        <time>2021-06-29T14:47:49Z</time>
      </trkpt>
      <trkpt lat="45.68028" lon="0.15052">
        <ele>32.34</ele>
        <time>2021-06-29T14:48:03Z</time>
      </trkpt>
      <trkpt lat="45.67803" lon="0.14764">
        <ele>36.19</ele>
        <time>2021-06-29T14:48:16Z</time>
      </trkpt>
      <trkpt lat="45.67533" lon="0.14393">
        <ele>40.51</ele>
        <time>2021-06-29T14:48:33Z</time>
      </trkpt>
      <trkpt lat="45.67461" lon="0.14272">
        <ele>42.92</ele>
        <time>2021-06-29T14:48:39Z</time>
      </trkpt>
      <trkpt lat="45.67452" lon="0.14255">
        <ele>43.88</ele>
        <time>2021-06-29T14:48:40Z</time>
      </trkpt>
      <trkpt lat="45.67446" lon="0.14236">
        <ele>44.36</ele>
        <time>2021-06-29T14:48:41Z</time>
      </trkpt>
      <trkpt lat="45.67441" lon="0.14216">
        <ele>44.84</ele>
        <time>2021-06-29T14:48:42Z</time>
      </trkpt>
      <trkpt lat="45.67438" lon="0.14197">
        <ele>45.32</ele>
        <time>2021-06-29T14:48:43Z</time>
      </trkpt>
      <trkpt lat="45.67436" lon="0.14176">
        <ele>46.28</ele>
        <time>2021-06-29T14:48:44Z</time>
      </trkpt>
      <trkpt lat="45.67436" lon="0.14158">
        <ele>46.28</ele>
        <time>2021-06-29T14:48:45Z</time>
      </trkpt>
      <trkpt lat="45.67437" lon="0.14139">
        <ele>46.76</ele>
        <time>2021-06-29T14:48:46Z</time>
      </trkpt>
      <trkpt lat="45.67439" lon="0.14119">
        <ele>47.24</ele>
        <time>2021-06-29T14:48:47Z</time>
      </trkpt>
      <trkpt lat="45.67441" lon="0.141">
        <ele>47.72</ele>
        <time>2021-06-29T14:48:48Z</time>
      </trkpt>
      <trkpt lat="45.67446" lon="0.14082">
        <ele>48.2</ele>
        <time>2021-06-29T14:48:49Z</time>
      </trkpt>
      <trkpt lat="45.67452" lon="0.14063">
        <ele>48.2</ele>
        <time>2021-06-29T14:48:50Z</time>
      </trkpt>
      <trkpt lat="45.67522" lon="0.1389">
        <ele>48.2</ele>
        <time>2021-06-29T14:48:58Z</time>
      </trkpt>
      <trkpt lat="45.67642" lon="0.13696">
        <ele>51.57</ele>
        <time>2021-06-29T14:49:07Z</time>
      </trkpt>
      <trkpt lat="45.67802" lon="0.13471">
        <ele>53.49</ele>
        <time>2021-06-29T14:49:18Z</time>
      </trkpt>
      <trkpt lat="45.67914" lon="0.13353">
        <ele>61.66</ele>
        <time>2021-06-29T14:49:27Z</time>
      </trkpt>
      <trkpt lat="45.67963" lon="0.1331">
        <ele>63.58</ele>
        <time>2021-06-29T14:49:34Z</time>
      </trkpt>
      <trkpt lat="45.6797" lon="0.13305">
        <ele>63.58</ele>
        <time>2021-06-29T14:49:36Z</time>
      </trkpt>
      <trkpt lat="45.67973" lon="0.13303">
        <ele>63.58</ele>
        <time>2021-06-29T14:49:37Z</time>
      </trkpt>
      <trkpt lat="45.67977" lon="0.133">
        <ele>63.58</ele>
        <time>2021-06-29T14:49:38Z</time>
      </trkpt>
      <trkpt lat="45.67984" lon="0.13304">
        <ele>63.58</ele>
        <time>2021-06-29T14:49:39Z</time>
      </trkpt>
      <trkpt lat="45.67988" lon="0.13308">
        <ele>64.07</ele>
        <time>2021-06-29T14:49:40Z</time>
      </trkpt>
      <trkpt lat="45.67989" lon="0.13308">
        <ele>64.07</ele>
        <time>2021-06-29T14:49:41Z</time>
      </trkpt>
      <trkpt lat="45.68001" lon="0.13316">
        <ele>63.58</ele>
        <time>2021-06-29T14:49:42Z</time>
      </trkpt>
      <trkpt lat="45.68002" lon="0.13324">
        <ele>63.58</ele>
        <time>2021-06-29T14:49:43Z</time>
      </trkpt>
      <trkpt lat="45.68004" lon="0.13342">
        <ele>62.62</ele>
        <time>2021-06-29T14:49:44Z</time>
      </trkpt>
      <trkpt lat="45.68004" lon="0.13342">
        <ele>62.14</ele>
        <time>2021-06-29T14:49:45Z</time>
      </trkpt>
      <trkpt lat="45.68005" lon="0.13352">
        <ele>61.66</ele>
        <time>2021-06-29T14:49:46Z</time>
      </trkpt>
      <trkpt lat="45.68006" lon="0.13362">
        <ele>61.18</ele>
        <time>2021-06-29T14:49:47Z</time>
      </trkpt>
      <trkpt lat="45.68004" lon="0.13372">
        <ele>60.7</ele>
        <time>2021-06-29T14:49:48Z</time>
      </trkpt>
      <trkpt lat="45.68001" lon="0.13383">
        <ele>60.22</ele>
        <time>2021-06-29T14:49:49Z</time>
      </trkpt>
      <trkpt lat="45.67998" lon="0.13394">
        <ele>59.74</ele>
        <time>2021-06-29T14:49:50Z</time>
      </trkpt>
      <trkpt lat="45.67996" lon="0.13405">
        <ele>59.74</ele>
        <time>2021-06-29T14:49:51Z</time>
      </trkpt>
      <trkpt lat="45.67991" lon="0.13413">
        <ele>59.26</ele>
        <time>2021-06-29T14:49:52Z</time>
      </trkpt>
      <trkpt lat="45.67984" lon="0.13418">
        <ele>58.78</ele>
        <time>2021-06-29T14:49:53Z</time>
      </trkpt>
      <trkpt lat="45.67977" lon="0.13424">
        <ele>58.78</ele>
        <time>2021-06-29T14:49:54Z</time>
      </trkpt>
      <trkpt lat="45.6797" lon="0.13429">
        <ele>58.78</ele>
        <time>2021-06-29T14:49:55Z</time>
      </trkpt>
      <trkpt lat="45.67963" lon="0.13435">
        <ele>58.78</ele>
        <time>2021-06-29T14:49:56Z</time>
      </trkpt>
      <trkpt lat="45.67863" lon="0.13477">
        <ele>59.74</ele>
        <time>2021-06-29T14:50:07Z</time>
      </trkpt>
      <trkpt lat="45.6778" lon="0.13568">
        <ele>60.7</ele>
        <time>2021-06-29T14:50:16Z</time>
      </trkpt>
      <trkpt lat="45.67706" lon="0.13691">
        <ele>57.34</ele>
        <time>2021-06-29T14:50:27Z</time>
      </trkpt>
      <trkpt lat="45.67681" lon="0.13745">
        <ele>56.37</ele>
        <time>2021-06-29T14:50:34Z</time>
      </trkpt>
      <trkpt lat="45.67679" lon="0.1375">
        <ele>56.37</ele>
        <time>2021-06-29T14:50:35Z</time>
      </trkpt>
      <trkpt lat="45.67677" lon="0.13752">
        <ele>56.86</ele>
        <time>2021-06-29T14:50:36Z</time>
      </trkpt>
      <trkpt lat="45.67677" lon="0.13752">
        <ele>57.34</ele>
        <time>2021-06-29T14:50:37Z</time>
      </trkpt>
      <trkpt lat="45.67673" lon="0.13755">
        <ele>57.82</ele>
        <time>2021-06-29T14:50:38Z</time>
      </trkpt>
      <trkpt lat="45.67665" lon="0.13761">
        <ele>58.78</ele>
        <time>2021-06-29T14:50:40Z</time>
      </trkpt>
      <trkpt lat="45.67661" lon="0.13763">
        <ele>59.26</ele>
        <time>2021-06-29T14:50:41Z</time>
      </trkpt>
      <trkpt lat="45.67657" lon="0.13775">
        <ele>59.74</ele>
        <time>2021-06-29T14:50:42Z</time>
      </trkpt>
      <trkpt lat="45.67655" lon="0.13782">
        <ele>60.22</ele>
        <time>2021-06-29T14:50:43Z</time>
      </trkpt>
      <trkpt lat="45.67655" lon="0.13791">
        <ele>59.74</ele>
        <time>2021-06-29T14:50:44Z</time>
      </trkpt>
      <trkpt lat="45.67656" lon="0.13798">
        <ele>59.26</ele>
        <time>2021-06-29T14:50:45Z</time>
      </trkpt>
      <trkpt lat="45.67657" lon="0.13806">
        <ele>58.78</ele>
        <time>2021-06-29T14:50:46Z</time>
      </trkpt>
      <trkpt lat="45.67661" lon="0.13814">
        <ele>58.3</ele>
        <time>2021-06-29T14:50:47Z</time>
      </trkpt>
      <trkpt lat="45.67665" lon="0.13819">
        <ele>57.82</ele>
        <time>2021-06-29T14:50:48Z</time>
      </trkpt>
      <trkpt lat="45.67668" lon="0.13827">
        <ele>56.86</ele>
        <time>2021-06-29T14:50:49Z</time>
      </trkpt>
      <trkpt lat="45.6767" lon="0.13835">
        <ele>56.37</ele>
        <time>2021-06-29T14:50:50Z</time>
      </trkpt>
      <trkpt lat="45.67671" lon="0.13854">
        <ele>56.86</ele>
        <time>2021-06-29T14:50:51Z</time>
      </trkpt>
      <trkpt lat="45.67671" lon="0.13854">
        <ele>56.37</ele>
        <time>2021-06-29T14:50:52Z</time>
      </trkpt>
      <trkpt lat="45.67671" lon="0.13864">
        <ele>56.37</ele>
        <time>2021-06-29T14:50:53Z</time>
      </trkpt>
      <trkpt lat="45.67669" lon="0.13915">
        <ele>54.93</ele>
        <time>2021-06-29T14:50:58Z</time>
      </trkpt>
      <trkpt lat="45.67668" lon="0.13927">
        <ele>54.45</ele>
        <time>2021-06-29T14:50:59Z</time>
      </trkpt>
      <trkpt lat="45.67667" lon="0.13939">
        <ele>53.97</ele>
        <time>2021-06-29T14:51:00Z</time>
      </trkpt>
      <trkpt lat="45.67668" lon="0.13951">
        <ele>53.49</ele>
        <time>2021-06-29T14:51:01Z</time>
      </trkpt>
      <trkpt lat="45.6767" lon="0.13963">
        <ele>53.01</ele>
        <time>2021-06-29T14:51:02Z</time>
      </trkpt>
      <trkpt lat="45.6772" lon="0.14161">
        <ele>41.95</ele>
        <time>2021-06-29T14:51:19Z</time>
      </trkpt>
      <trkpt lat="45.67767" lon="0.14335">
        <ele>33.3</ele>
        <time>2021-06-29T14:51:39Z</time>
      </trkpt>
      <trkpt lat="45.67771" lon="0.14411">
        <ele>31.38</ele>
        <time>2021-06-29T14:51:51Z</time>
      </trkpt>
      <trkpt lat="45.67771" lon="0.14411">
        <ele>30.9</ele>
        <time>2021-06-29T14:51:52Z</time>
      </trkpt>
      <trkpt lat="45.67771" lon="0.14417">
        <ele>30.9</ele>
        <time>2021-06-29T14:51:53Z</time>
      </trkpt>
      <trkpt lat="45.67771" lon="0.14428">
        <ele>30.9</ele>
        <time>2021-06-29T14:51:54Z</time>
      </trkpt>
      <trkpt lat="45.67771" lon="0.14428">
        <ele>30.9</ele>
        <time>2021-06-29T14:51:55Z</time>
      </trkpt>
      <trkpt lat="45.67773" lon="0.14432">
        <ele>30.9</ele>
        <time>2021-06-29T14:51:56Z</time>
      </trkpt>
      <trkpt lat="45.6777" lon="0.14426">
        <ele>30.9</ele>
        <time>2021-06-29T14:51:57Z</time>
      </trkpt>
      <trkpt lat="45.67763" lon="0.14433">
        <ele>30.9</ele>
        <time>2021-06-29T14:51:58Z</time>
      </trkpt>
      <trkpt lat="45.6776" lon="0.14435">
        <ele>30.9</ele>
        <time>2021-06-29T14:51:59Z</time>
      </trkpt>
      <trkpt lat="45.67758" lon="0.14438">
        <ele>31.38</ele>
        <time>2021-06-29T14:52:00Z</time>
      </trkpt>
      <trkpt lat="45.67754" lon="0.14442">
        <ele>31.38</ele>
        <time>2021-06-29T14:52:02Z</time>
      </trkpt>
      <trkpt lat="45.6774" lon="0.14424">
        <ele>33.78</ele>
        <time>2021-06-29T14:52:10Z</time>
      </trkpt>
      <trkpt lat="45.67743" lon="0.14413">
        <ele>34.26</ele>
        <time>2021-06-29T14:52:19Z</time>
      </trkpt>
      <trkpt lat="45.67737" lon="0.14421">
        <ele>35.23</ele>
        <time>2021-06-29T14:52:34Z</time>
      </trkpt>
      <trkpt lat="45.67748" lon="0.14436">
        <ele>33.3</ele>
        <time>2021-06-29T14:52:45Z</time>
      </trkpt>
      <trkpt lat="45.67748" lon="0.14435">
        <ele>33.3</ele>
        <time>2021-06-29T14:53:17Z</time>
      </trkpt>
      <trkpt lat="45.67747" lon="0.14437">
        <ele>32.82</ele>
        <time>2021-06-29T14:59:08Z</time>
      </trkpt>
      <trkpt lat="45.67755" lon="0.14441">
        <ele>30.42</ele>
        <time>2021-06-29T15:03:43Z</time>
      </trkpt>
      <trkpt lat="45.67769" lon="0.14427">
        <ele>29.46</ele>
        <time>2021-06-29T15:03:52Z</time>
      </trkpt>
      <trkpt lat="45.67778" lon="0.14439">
        <ele>29.46</ele>
        <time>2021-06-29T15:03:53Z</time>
      </trkpt>
      <trkpt lat="45.67781" lon="0.14441">
        <ele>28.98</ele>
        <time>2021-06-29T15:03:54Z</time>
      </trkpt>
      <trkpt lat="45.67778" lon="0.14441">
        <ele>28.5</ele>
        <time>2021-06-29T15:03:55Z</time>
      </trkpt>
      <trkpt lat="45.67795" lon="0.1445">
        <ele>28.5</ele>
        <time>2021-06-29T15:03:56Z</time>
      </trkpt>
      <trkpt lat="45.67797" lon="0.14466">
        <ele>28.02</ele>
        <time>2021-06-29T15:03:57Z</time>
      </trkpt>
      <trkpt lat="45.67797" lon="0.14466">
        <ele>27.53</ele>
        <time>2021-06-29T15:03:58Z</time>
      </trkpt>
      <trkpt lat="45.67798" lon="0.14476">
        <ele>26.57</ele>
        <time>2021-06-29T15:03:59Z</time>
      </trkpt>
      <trkpt lat="45.67808" lon="0.14629">
        <ele>22.25</ele>
        <time>2021-06-29T15:04:10Z</time>
      </trkpt>
      <trkpt lat="45.6782" lon="0.1487">
        <ele>18.4</ele>
        <time>2021-06-29T15:04:26Z</time>
      </trkpt>
      <trkpt lat="45.67821" lon="0.14882">
        <ele>18.4</ele>
        <time>2021-06-29T15:04:27Z</time>
      </trkpt>
      <trkpt lat="45.67821" lon="0.14892">
        <ele>19.36</ele>
        <time>2021-06-29T15:04:28Z</time>
      </trkpt>
      <trkpt lat="45.67809" lon="0.14909">
        <ele>19.84</ele>
        <time>2021-06-29T15:04:29Z</time>
      </trkpt>
      <trkpt lat="45.67809" lon="0.14909">
        <ele>20.32</ele>
        <time>2021-06-29T15:04:30Z</time>
      </trkpt>
      <trkpt lat="45.67807" lon="0.14917">
        <ele>20.81</ele>
        <time>2021-06-29T15:04:31Z</time>
      </trkpt>
      <trkpt lat="45.6781" lon="0.14931">
        <ele>20.81</ele>
        <time>2021-06-29T15:04:32Z</time>
      </trkpt>
      <trkpt lat="45.67813" lon="0.1494">
        <ele>21.29</ele>
        <time>2021-06-29T15:04:33Z</time>
      </trkpt>
      <trkpt lat="45.67813" lon="0.14941">
        <ele>21.77</ele>
        <time>2021-06-29T15:04:34Z</time>
      </trkpt>
      <trkpt lat="45.67826" lon="0.14958">
        <ele>22.25</ele>
        <time>2021-06-29T15:04:35Z</time>
      </trkpt>
      <trkpt lat="45.67827" lon="0.1497">
        <ele>22.25</ele>
        <time>2021-06-29T15:04:36Z</time>
      </trkpt>
      <trkpt lat="45.67828" lon="0.14983">
        <ele>22.73</ele>
        <time>2021-06-29T15:04:37Z</time>
      </trkpt>
      <trkpt lat="45.67837" lon="0.15145">
        <ele>21.29</ele>
        <time>2021-06-29T15:04:47Z</time>
      </trkpt>
      <trkpt lat="45.67854" lon="0.15479">
        <ele>25.61</ele>
        <time>2021-06-29T15:05:05Z</time>
      </trkpt>
      <trkpt lat="45.67858" lon="0.1555">
        <ele>23.69</ele>
        <time>2021-06-29T15:05:12Z</time>
      </trkpt>
      <trkpt lat="45.67866" lon="0.15694">
        <ele>28.5</ele>
        <time>2021-06-29T15:05:25Z</time>
      </trkpt>
      <trkpt lat="45.67869" lon="0.15716">
        <ele>28.98</ele>
        <time>2021-06-29T15:05:27Z</time>
      </trkpt>
      <trkpt lat="45.67873" lon="0.15808">
        <ele>30.9</ele>
        <time>2021-06-29T15:05:37Z</time>
      </trkpt>
      <trkpt lat="45.67878" lon="0.15926">
        <ele>33.78</ele>
        <time>2021-06-29T15:05:48Z</time>
      </trkpt>
      <trkpt lat="45.67879" lon="0.15932">
        <ele>34.26</ele>
        <time>2021-06-29T15:05:49Z</time>
      </trkpt>
      <trkpt lat="45.67877" lon="0.15924">
        <ele>33.78</ele>
        <time>2021-06-29T15:05:50Z</time>
      </trkpt>
      <trkpt lat="45.67871" lon="0.15924">
        <ele>33.78</ele>
        <time>2021-06-29T15:05:51Z</time>
      </trkpt>
      <trkpt lat="45.67871" lon="0.15924">
        <ele>33.78</ele>
        <time>2021-06-29T15:05:52Z</time>
      </trkpt>
      <trkpt lat="45.67866" lon="0.15924">
        <ele>33.78</ele>
        <time>2021-06-29T15:05:53Z</time>
      </trkpt>
      <trkpt lat="45.67813" lon="0.15926">
        <ele>33.3</ele>
        <time>2021-06-29T15:06:03Z</time>
      </trkpt>
      <trkpt lat="45.67809" lon="0.15929">
        <ele>33.3</ele>
        <time>2021-06-29T15:06:04Z</time>
      </trkpt>
      <trkpt lat="45.67808" lon="0.15932">
        <ele>33.3</ele>
        <time>2021-06-29T15:06:05Z</time>
      </trkpt>
      <trkpt lat="45.67806" lon="0.15937">
        <ele>33.3</ele>
        <time>2021-06-29T15:06:06Z</time>
      </trkpt>
      <trkpt lat="45.67806" lon="0.15943">
        <ele>33.3</ele>
        <time>2021-06-29T15:06:07Z</time>
      </trkpt>
      <trkpt lat="45.67806" lon="0.15965">
        <ele>33.78</ele>
        <time>2021-06-29T15:06:10Z</time>
      </trkpt>
      <trkpt lat="45.67806" lon="0.15972">
        <ele>33.78</ele>
        <time>2021-06-29T15:06:11Z</time>
      </trkpt>
      <trkpt lat="45.67804" lon="0.15979">
        <ele>33.78</ele>
        <time>2021-06-29T15:06:12Z</time>
      </trkpt>
      <trkpt lat="45.67798" lon="0.16">
        <ele>34.26</ele>
        <time>2021-06-29T15:06:15Z</time>
      </trkpt>
      <trkpt lat="45.67796" lon="0.16005">
        <ele>34.26</ele>
        <time>2021-06-29T15:06:16Z</time>
      </trkpt>
      <trkpt lat="45.67793" lon="0.16008">
        <ele>34.26</ele>
        <time>2021-06-29T15:06:17Z</time>
      </trkpt>
      <trkpt lat="45.67789" lon="0.16011">
        <ele>34.26</ele>
        <time>2021-06-29T15:06:18Z</time>
      </trkpt>
      <trkpt lat="45.67783" lon="0.16013">
        <ele>34.26</ele>
        <time>2021-06-29T15:06:19Z</time>
      </trkpt>
      <trkpt lat="45.67695" lon="0.16046">
        <ele>33.78</ele>
        <time>2021-06-29T15:06:33Z</time>
      </trkpt>
      <trkpt lat="45.6767" lon="0.16057">
        <ele>33.3</ele>
        <time>2021-06-29T15:06:39Z</time>
      </trkpt>
      <trkpt lat="45.67666" lon="0.16057">
        <ele>33.3</ele>
        <time>2021-06-29T15:06:40Z</time>
      </trkpt>
      <trkpt lat="45.67664" lon="0.16054">
        <ele>33.3</ele>
        <time>2021-06-29T15:06:41Z</time>
      </trkpt>
      <trkpt lat="45.67634" lon="0.15986">
        <ele>31.38</ele>
        <time>2021-06-29T15:06:51Z</time>
      </trkpt>
      <trkpt lat="45.67631" lon="0.15983">
        <ele>31.38</ele>
        <time>2021-06-29T15:06:52Z</time>
      </trkpt>
      <trkpt lat="45.67627" lon="0.1598">
        <ele>31.38</ele>
        <time>2021-06-29T15:06:53Z</time>
      </trkpt>
      <trkpt lat="45.67623" lon="0.1598">
        <ele>30.9</ele>
        <time>2021-06-29T15:06:54Z</time>
      </trkpt>
      <trkpt lat="45.67619" lon="0.15981">
        <ele>30.9</ele>
        <time>2021-06-29T15:06:55Z</time>
      </trkpt>
      <trkpt lat="45.67615" lon="0.15984">
        <ele>30.42</ele>
        <time>2021-06-29T15:06:56Z</time>
      </trkpt>
      <trkpt lat="45.67539" lon="0.16038">
        <ele>30.42</ele>
        <time>2021-06-29T15:07:12Z</time>
      </trkpt>
      <trkpt lat="45.6747" lon="0.16046">
        <ele>27.53</ele>
        <time>2021-06-29T15:07:30Z</time>
      </trkpt>
      <trkpt lat="45.67441" lon="0.16052">
        <ele>28.02</ele>
        <time>2021-06-29T15:07:42Z</time>
      </trkpt>
      <trkpt lat="45.67441" lon="0.16052">
        <ele>29.46</ele>
        <time>2021-06-29T15:08:11Z</time>
      </trkpt>
      <trkpt lat="45.67441" lon="0.16052">
        <ele>29.94</ele>
        <time>2021-06-29T15:08:34Z</time>
      </trkpt>
      <trkpt lat="45.67441" lon="0.16052">
        <ele>28.5</ele>
        <time>2021-06-29T15:14:05Z</time>
      </trkpt>
      <trkpt lat="45.67441" lon="0.16052">
        <ele>27.53</ele>
        <time>2021-06-29T15:21:39Z</time>
      </trkpt>
      <trkpt lat="45.67441" lon="0.16052">
        <ele>26.57</ele>
        <time>2021-06-29T15:30:54Z</time>
      </trkpt>
      <trkpt lat="45.67441" lon="0.16052">
        <ele>26.09</ele>
        <time>2021-06-29T15:35:43Z</time>
      </trkpt>
      <trkpt lat="45.67441" lon="0.16052">
        <ele>27.05</ele>
        <time>2021-06-29T15:43:26Z</time>
      </trkpt>
      <trkpt lat="45.67441" lon="0.16052">
        <ele>27.53</ele>
        <time>2021-06-29T15:49:23Z</time>
      </trkpt>
      <trkpt lat="45.67441" lon="0.16052">
        <ele>27.53</ele>
        <time>2021-06-29T15:52:06Z</time>
      </trkpt>
      <trkpt lat="45.67441" lon="0.16052">
        <ele>28.02</ele>
        <time>2021-06-29T15:58:08Z</time>
      </trkpt>
      <trkpt lat="45.67441" lon="0.16052">
        <ele>28.02</ele>
        <time>2021-06-29T16:02:34Z</time>
      </trkpt>
      <trkpt lat="45.67441" lon="0.16052">
        <ele>28.5</ele>
        <time>2021-06-29T16:05:36Z</time>
      </trkpt>
      <trkpt lat="45.67441" lon="0.16052">
        <ele>28.5</ele>
        <time>2021-06-29T16:08:14Z</time>
      </trkpt>
      <trkpt lat="45.67441" lon="0.16052">
        <ele>28.5</ele>
        <time>2021-06-29T16:10:08Z</time>
      </trkpt>
      <trkpt lat="45.67451" lon="0.16048">
        <ele>28.02</ele>
        <time>2021-06-29T16:10:09Z</time>
      </trkpt>
      <trkpt lat="45.67454" lon="0.16047">
        <ele>28.02</ele>
        <time>2021-06-29T16:10:10Z</time>
      </trkpt>
      <trkpt lat="45.67456" lon="0.16046">
        <ele>28.5</ele>
        <time>2021-06-29T16:10:11Z</time>
      </trkpt>
      <trkpt lat="45.67456" lon="0.16046">
        <ele>28.5</ele>
        <time>2021-06-29T16:10:12Z</time>
      </trkpt>
      <trkpt lat="45.67462" lon="0.16046">
        <ele>28.5</ele>
        <time>2021-06-29T16:10:13Z</time>
      </trkpt>
      <trkpt lat="45.67465" lon="0.16046">
        <ele>28.02</ele>
        <time>2021-06-29T16:10:14Z</time>
      </trkpt>
      <trkpt lat="45.67528" lon="0.16041">
        <ele>30.42</ele>
        <time>2021-06-29T16:10:31Z</time>
      </trkpt>
      <trkpt lat="45.67592" lon="0.16007">
        <ele>31.38</ele>
        <time>2021-06-29T16:10:47Z</time>
      </trkpt>
      <trkpt lat="45.67615" lon="0.15984">
        <ele>31.38</ele>
        <time>2021-06-29T16:10:53Z</time>
      </trkpt>
      <trkpt lat="45.67619" lon="0.15981">
        <ele>31.38</ele>
        <time>2021-06-29T16:10:54Z</time>
      </trkpt>
      <trkpt lat="45.67623" lon="0.1598">
        <ele>31.38</ele>
        <time>2021-06-29T16:10:55Z</time>
      </trkpt>
      <trkpt lat="45.67627" lon="0.1598">
        <ele>31.38</ele>
        <time>2021-06-29T16:10:56Z</time>
      </trkpt>
      <trkpt lat="45.6763" lon="0.15982">
        <ele>30.9</ele>
        <time>2021-06-29T16:10:57Z</time>
      </trkpt>
      <trkpt lat="45.67633" lon="0.15986">
        <ele>31.38</ele>
        <time>2021-06-29T16:10:58Z</time>
      </trkpt>
      <trkpt lat="45.67636" lon="0.15991">
        <ele>31.38</ele>
        <time>2021-06-29T16:10:59Z</time>
      </trkpt>
      <trkpt lat="45.67666" lon="0.16057">
        <ele>33.78</ele>
        <time>2021-06-29T16:11:10Z</time>
      </trkpt>
      <trkpt lat="45.6767" lon="0.16058">
        <ele>33.78</ele>
        <time>2021-06-29T16:11:11Z</time>
      </trkpt>
      <trkpt lat="45.67673" lon="0.16056">
        <ele>34.26</ele>
        <time>2021-06-29T16:11:12Z</time>
      </trkpt>
      <trkpt lat="45.67681" lon="0.16052">
        <ele>34.26</ele>
        <time>2021-06-29T16:11:13Z</time>
      </trkpt>
      <trkpt lat="45.67686" lon="0.1605">
        <ele>34.26</ele>
        <time>2021-06-29T16:11:14Z</time>
      </trkpt>
      <trkpt lat="45.6778" lon="0.16014">
        <ele>35.23</ele>
        <time>2021-06-29T16:11:32Z</time>
      </trkpt>
      <trkpt lat="45.67794" lon="0.16007">
        <ele>34.26</ele>
        <time>2021-06-29T16:11:37Z</time>
      </trkpt>
      <trkpt lat="45.67797" lon="0.16004">
        <ele>34.26</ele>
        <time>2021-06-29T16:11:38Z</time>
      </trkpt>
      <trkpt lat="45.67799" lon="0.15999">
        <ele>34.26</ele>
        <time>2021-06-29T16:11:39Z</time>
      </trkpt>
      <trkpt lat="45.67806" lon="0.15968">
        <ele>34.26</ele>
        <time>2021-06-29T16:11:44Z</time>
      </trkpt>
      <trkpt lat="45.67806" lon="0.15962">
        <ele>34.26</ele>
        <time>2021-06-29T16:11:45Z</time>
      </trkpt>
      <trkpt lat="45.67806" lon="0.15956">
        <ele>33.78</ele>
        <time>2021-06-29T16:11:46Z</time>
      </trkpt>
      <trkpt lat="45.67811" lon="0.15926">
        <ele>33.78</ele>
        <time>2021-06-29T16:11:53Z</time>
      </trkpt>
      <trkpt lat="45.67811" lon="0.15926">
        <ele>33.78</ele>
        <time>2021-06-29T16:11:54Z</time>
      </trkpt>
      <trkpt lat="45.67811" lon="0.15926">
        <ele>34.26</ele>
        <time>2021-06-29T16:11:55Z</time>
      </trkpt>
      <trkpt lat="45.67813" lon="0.15926">
        <ele>34.26</ele>
        <time>2021-06-29T16:11:56Z</time>
      </trkpt>
      <trkpt lat="45.67817" lon="0.15926">
        <ele>34.26</ele>
        <time>2021-06-29T16:11:57Z</time>
      </trkpt>
      <trkpt lat="45.6782" lon="0.15926">
        <ele>34.74</ele>
        <time>2021-06-29T16:11:58Z</time>
      </trkpt>
    </trkseg>
  </trk>
  <trk>
    <name><![CDATA[Journal actif: 2021-06-29 14:12]]></name>
    <trkseg>
      <trkpt lat="45.67851" lon="0.15925">
        <ele>35.23</ele>
        <time>2021-06-29T16:12:05Z</time>
      </trkpt>
      <trkpt lat="45.67874" lon="0.15924">
        <ele>36.19</ele>
        <time>2021-06-29T16:12:16Z</time>
      </trkpt>
      <trkpt lat="45.67877" lon="0.15924">
        <ele>36.19</ele>
        <time>2021-06-29T16:12:19Z</time>
      </trkpt>
      <trkpt lat="45.67877" lon="0.15924">
        <ele>36.19</ele>
        <time>2021-06-29T16:12:20Z</time>
      </trkpt>
      <trkpt lat="45.67877" lon="0.15917">
        <ele>36.19</ele>
        <time>2021-06-29T16:12:21Z</time>
      </trkpt>
      <trkpt lat="45.67875" lon="0.15848">
        <ele>34.74</ele>
        <time>2021-06-29T16:12:31Z</time>
      </trkpt>
      <trkpt lat="45.67869" lon="0.15722">
        <ele>32.34</ele>
        <time>2021-06-29T16:12:46Z</time>
      </trkpt>
      <trkpt lat="45.67877" lon="0.15705">
        <ele>32.34</ele>
        <time>2021-06-29T16:12:50Z</time>
      </trkpt>
      <trkpt lat="45.67881" lon="0.15704">
        <ele>32.34</ele>
        <time>2021-06-29T16:12:51Z</time>
      </trkpt>
      <trkpt lat="45.67886" lon="0.15702">
        <ele>32.34</ele>
        <time>2021-06-29T16:12:52Z</time>
      </trkpt>
      <trkpt lat="45.67961" lon="0.15679">
        <ele>31.86</ele>
        <time>2021-06-29T16:13:00Z</time>
      </trkpt>
      <trkpt lat="45.68106" lon="0.15631">
        <ele>34.26</ele>
        <time>2021-06-29T16:13:15Z</time>
      </trkpt>
      <trkpt lat="45.68258" lon="0.15606">
        <ele>29.46</ele>
        <time>2021-06-29T16:13:28Z</time>
      </trkpt>
      <trkpt lat="45.68433" lon="0.15607">
        <ele>27.53</ele>
        <time>2021-06-29T16:13:40Z</time>
      </trkpt>
      <trkpt lat="45.68623" lon="0.15609">
        <ele>23.69</ele>
        <time>2021-06-29T16:13:54Z</time>
      </trkpt>
      <trkpt lat="45.68824" lon="0.15611">
        <ele>25.13</ele>
        <time>2021-06-29T16:14:07Z</time>
      </trkpt>
      <trkpt lat="45.68922" lon="0.15608">
        <ele>27.53</ele>
        <time>2021-06-29T16:14:14Z</time>
      </trkpt>
      <trkpt lat="45.68932" lon="0.15605">
        <ele>28.02</ele>
        <time>2021-06-29T16:14:15Z</time>
      </trkpt>
      <trkpt lat="45.68942" lon="0.15601">
        <ele>27.05</ele>
        <time>2021-06-29T16:14:16Z</time>
      </trkpt>
      <trkpt lat="45.68974" lon="0.15591">
        <ele>26.57</ele>
        <time>2021-06-29T16:14:18Z</time>
      </trkpt>
      <trkpt lat="45.68974" lon="0.15591">
        <ele>26.57</ele>
        <time>2021-06-29T16:14:19Z</time>
      </trkpt>
      <trkpt lat="45.69051" lon="0.15583">
        <ele>28.98</ele>
        <time>2021-06-29T16:14:25Z</time>
      </trkpt>
      <trkpt lat="45.69064" lon="0.15581">
        <ele>28.5</ele>
        <time>2021-06-29T16:14:26Z</time>
      </trkpt>
      <trkpt lat="45.69214" lon="0.15532">
        <ele>29.46</ele>
        <time>2021-06-29T16:14:37Z</time>
      </trkpt>
      <trkpt lat="45.69299" lon="0.155">
        <ele>28.5</ele>
        <time>2021-06-29T16:14:43Z</time>
      </trkpt>
      <trkpt lat="45.69313" lon="0.15493">
        <ele>29.46</ele>
        <time>2021-06-29T16:14:44Z</time>
      </trkpt>
      <trkpt lat="45.69444" lon="0.15378">
        <ele>33.78</ele>
        <time>2021-06-29T16:14:54Z</time>
      </trkpt>
      <trkpt lat="45.69625" lon="0.15182">
        <ele>34.26</ele>
        <time>2021-06-29T16:15:07Z</time>
      </trkpt>
      <trkpt lat="45.6982" lon="0.14975">
        <ele>32.34</ele>
        <time>2021-06-29T16:15:21Z</time>
      </trkpt>
      <trkpt lat="45.69852" lon="0.14956">
        <ele>32.82</ele>
        <time>2021-06-29T16:15:22Z</time>
      </trkpt>
      <trkpt lat="45.69852" lon="0.14956">
        <ele>33.78</ele>
        <time>2021-06-29T16:15:23Z</time>
      </trkpt>
      <trkpt lat="45.69952" lon="0.14912">
        <ele>34.26</ele>
        <time>2021-06-29T16:15:30Z</time>
      </trkpt>
      <trkpt lat="45.69965" lon="0.14907">
        <ele>34.74</ele>
        <time>2021-06-29T16:15:31Z</time>
      </trkpt>
      <trkpt lat="45.69974" lon="0.14897">
        <ele>33.3</ele>
        <time>2021-06-29T16:15:32Z</time>
      </trkpt>
      <trkpt lat="45.69991" lon="0.14868">
        <ele>31.86</ele>
        <time>2021-06-29T16:15:33Z</time>
      </trkpt>
      <trkpt lat="45.69991" lon="0.14868">
        <ele>32.82</ele>
        <time>2021-06-29T16:15:34Z</time>
      </trkpt>
      <trkpt lat="45.69997" lon="0.14832">
        <ele>32.82</ele>
        <time>2021-06-29T16:15:35Z</time>
      </trkpt>
      <trkpt lat="45.69997" lon="0.14832">
        <ele>32.82</ele>
        <time>2021-06-29T16:15:36Z</time>
      </trkpt>
      <trkpt lat="45.69999" lon="0.14811">
        <ele>31.86</ele>
        <time>2021-06-29T16:15:37Z</time>
      </trkpt>
      <trkpt lat="45.7001" lon="0.1456">
        <ele>31.38</ele>
        <time>2021-06-29T16:15:47Z</time>
      </trkpt>
      <trkpt lat="45.70016" lon="0.14517">
        <ele>32.82</ele>
        <time>2021-06-29T16:15:50Z</time>
      </trkpt>
      <trkpt lat="45.70021" lon="0.14497">
        <ele>32.82</ele>
        <time>2021-06-29T16:15:51Z</time>
      </trkpt>
      <trkpt lat="45.70048" lon="0.14409">
        <ele>34.26</ele>
        <time>2021-06-29T16:15:55Z</time>
      </trkpt>
      <trkpt lat="45.70056" lon="0.14399">
        <ele>33.78</ele>
        <time>2021-06-29T16:15:56Z</time>
      </trkpt>
      <trkpt lat="45.70064" lon="0.1439">
        <ele>33.78</ele>
        <time>2021-06-29T16:15:57Z</time>
      </trkpt>
      <trkpt lat="45.70064" lon="0.1439">
        <ele>34.74</ele>
        <time>2021-06-29T16:15:58Z</time>
      </trkpt>
      <trkpt lat="45.70083" lon="0.14383">
        <ele>33.78</ele>
        <time>2021-06-29T16:15:59Z</time>
      </trkpt>
      <trkpt lat="45.70095" lon="0.14383">
        <ele>33.3</ele>
        <time>2021-06-29T16:16:00Z</time>
      </trkpt>
      <trkpt lat="45.70095" lon="0.14383">
        <ele>33.3</ele>
        <time>2021-06-29T16:16:01Z</time>
      </trkpt>
      <trkpt lat="45.70107" lon="0.14384">
        <ele>33.78</ele>
        <time>2021-06-29T16:16:02Z</time>
      </trkpt>
      <trkpt lat="45.70233" lon="0.14437">
        <ele>32.34</ele>
        <time>2021-06-29T16:16:11Z</time>
      </trkpt>
      <trkpt lat="45.70377" lon="0.14538">
        <ele>36.19</ele>
        <time>2021-06-29T16:16:20Z</time>
      </trkpt>
      <trkpt lat="45.70525" lon="0.14632">
        <ele>39.07</ele>
        <time>2021-06-29T16:16:29Z</time>
      </trkpt>
      <trkpt lat="45.70652" lon="0.14678">
        <ele>39.55</ele>
        <time>2021-06-29T16:16:37Z</time>
      </trkpt>
      <trkpt lat="45.70773" lon="0.14675">
        <ele>46.76</ele>
        <time>2021-06-29T16:16:46Z</time>
      </trkpt>
      <trkpt lat="45.70917" lon="0.14623">
        <ele>55.41</ele>
        <time>2021-06-29T16:16:58Z</time>
      </trkpt>
      <trkpt lat="45.71056" lon="0.14575">
        <ele>61.66</ele>
        <time>2021-06-29T16:17:11Z</time>
      </trkpt>
      <trkpt lat="45.71135" lon="0.14546">
        <ele>64.55</ele>
        <time>2021-06-29T16:17:21Z</time>
      </trkpt>
      <trkpt lat="45.71141" lon="0.14544">
        <ele>64.07</ele>
        <time>2021-06-29T16:17:22Z</time>
      </trkpt>
      <trkpt lat="45.71203" lon="0.14522">
        <ele>64.55</ele>
        <time>2021-06-29T16:17:31Z</time>
      </trkpt>
      <trkpt lat="45.71324" lon="0.14482">
        <ele>64.55</ele>
        <time>2021-06-29T16:17:43Z</time>
      </trkpt>
      <trkpt lat="45.71419" lon="0.14468">
        <ele>63.1</ele>
        <time>2021-06-29T16:17:52Z</time>
      </trkpt>
      <trkpt lat="45.71576" lon="0.14502">
        <ele>67.43</ele>
        <time>2021-06-29T16:18:04Z</time>
      </trkpt>
      <trkpt lat="45.71816" lon="0.14553">
        <ele>77.04</ele>
        <time>2021-06-29T16:18:19Z</time>
      </trkpt>
      <trkpt lat="45.72184" lon="0.14632">
        <ele>90.02</ele>
        <time>2021-06-29T16:18:41Z</time>
      </trkpt>
      <trkpt lat="45.72495" lon="0.14697">
        <ele>92.42</ele>
        <time>2021-06-29T16:19:00Z</time>
      </trkpt>
      <trkpt lat="45.72795" lon="0.1476">
        <ele>90.02</ele>
        <time>2021-06-29T16:19:17Z</time>
      </trkpt>
      <trkpt lat="45.73235" lon="0.14853">
        <ele>94.35</ele>
        <time>2021-06-29T16:19:41Z</time>
      </trkpt>
      <trkpt lat="45.73553" lon="0.1492">
        <ele>86.66</ele>
        <time>2021-06-29T16:19:59Z</time>
      </trkpt>
      <trkpt lat="45.73613" lon="0.14925">
        <ele>86.66</ele>
        <time>2021-06-29T16:20:04Z</time>
      </trkpt>
      <trkpt lat="45.73629" lon="0.14923">
        <ele>86.18</ele>
        <time>2021-06-29T16:20:05Z</time>
      </trkpt>
      <trkpt lat="45.73646" lon="0.1492">
        <ele>86.18</ele>
        <time>2021-06-29T16:20:06Z</time>
      </trkpt>
      <trkpt lat="45.73681" lon="0.14907">
        <ele>86.66</ele>
        <time>2021-06-29T16:20:07Z</time>
      </trkpt>
      <trkpt lat="45.73681" lon="0.14907">
        <ele>86.66</ele>
        <time>2021-06-29T16:20:08Z</time>
      </trkpt>
      <trkpt lat="45.7394" lon="0.14787">
        <ele>86.18</ele>
        <time>2021-06-29T16:20:22Z</time>
      </trkpt>
      <trkpt lat="45.74221" lon="0.14662">
        <ele>94.83</ele>
        <time>2021-06-29T16:20:37Z</time>
      </trkpt>
      <trkpt lat="45.74449" lon="0.14622">
        <ele>91.94</ele>
        <time>2021-06-29T16:20:49Z</time>
      </trkpt>
      <trkpt lat="45.74742" lon="0.14577">
        <ele>106.84</ele>
        <time>2021-06-29T16:21:05Z</time>
      </trkpt>
      <trkpt lat="45.74871" lon="0.1459">
        <ele>107.81</ele>
        <time>2021-06-29T16:21:13Z</time>
      </trkpt>
      <trkpt lat="45.75079" lon="0.14688">
        <ele>99.63</ele>
        <time>2021-06-29T16:21:26Z</time>
      </trkpt>
      <trkpt lat="45.75096" lon="0.14692">
        <ele>99.63</ele>
        <time>2021-06-29T16:21:27Z</time>
      </trkpt>
      <trkpt lat="45.75113" lon="0.14692">
        <ele>98.67</ele>
        <time>2021-06-29T16:21:28Z</time>
      </trkpt>
      <trkpt lat="45.75129" lon="0.14692">
        <ele>96.27</ele>
        <time>2021-06-29T16:21:29Z</time>
      </trkpt>
      <trkpt lat="45.75147" lon="0.14687">
        <ele>95.79</ele>
        <time>2021-06-29T16:21:30Z</time>
      </trkpt>
      <trkpt lat="45.75425" lon="0.14585">
        <ele>77.52</ele>
        <time>2021-06-29T16:21:47Z</time>
      </trkpt>
      <trkpt lat="45.75607" lon="0.14513">
        <ele>69.83</ele>
        <time>2021-06-29T16:21:59Z</time>
      </trkpt>
      <trkpt lat="45.75619" lon="0.14505">
        <ele>69.83</ele>
        <time>2021-06-29T16:22:00Z</time>
      </trkpt>
      <trkpt lat="45.75631" lon="0.14496">
        <ele>69.83</ele>
        <time>2021-06-29T16:22:01Z</time>
      </trkpt>
      <trkpt lat="45.75642" lon="0.14485">
        <ele>69.35</ele>
        <time>2021-06-29T16:22:02Z</time>
      </trkpt>
      <trkpt lat="45.75654" lon="0.14471">
        <ele>68.39</ele>
        <time>2021-06-29T16:22:03Z</time>
      </trkpt>
      <trkpt lat="45.758" lon="0.14266">
        <ele>63.1</ele>
        <time>2021-06-29T16:22:17Z</time>
      </trkpt>
      <trkpt lat="45.75812" lon="0.14239">
        <ele>63.1</ele>
        <time>2021-06-29T16:22:19Z</time>
      </trkpt>
      <trkpt lat="45.75817" lon="0.14228">
        <ele>63.1</ele>
        <time>2021-06-29T16:22:20Z</time>
      </trkpt>
      <trkpt lat="45.75821" lon="0.14218">
        <ele>62.62</ele>
        <time>2021-06-29T16:22:21Z</time>
      </trkpt>
      <trkpt lat="45.75823" lon="0.14206">
        <ele>62.14</ele>
        <time>2021-06-29T16:22:22Z</time>
      </trkpt>
      <trkpt lat="45.75824" lon="0.14196">
        <ele>61.66</ele>
        <time>2021-06-29T16:22:23Z</time>
      </trkpt>
      <trkpt lat="45.75826" lon="0.14186">
        <ele>60.7</ele>
        <time>2021-06-29T16:22:24Z</time>
      </trkpt>
      <trkpt lat="45.75827" lon="0.14176">
        <ele>60.7</ele>
        <time>2021-06-29T16:22:25Z</time>
      </trkpt>
      <trkpt lat="45.75827" lon="0.14175">
        <ele>60.7</ele>
        <time>2021-06-29T16:22:26Z</time>
      </trkpt>
      <trkpt lat="45.75833" lon="0.14169">
        <ele>60.22</ele>
        <time>2021-06-29T16:22:27Z</time>
      </trkpt>
      <trkpt lat="45.75837" lon="0.14165">
        <ele>60.22</ele>
        <time>2021-06-29T16:22:28Z</time>
      </trkpt>
      <trkpt lat="45.7584" lon="0.14162">
        <ele>60.22</ele>
        <time>2021-06-29T16:22:29Z</time>
      </trkpt>
      <trkpt lat="45.75849" lon="0.14154">
        <ele>59.74</ele>
        <time>2021-06-29T16:22:30Z</time>
      </trkpt>
      <trkpt lat="45.75849" lon="0.14154">
        <ele>60.22</ele>
        <time>2021-06-29T16:22:31Z</time>
      </trkpt>
      <trkpt lat="45.75852" lon="0.14159">
        <ele>59.74</ele>
        <time>2021-06-29T16:22:32Z</time>
      </trkpt>
      <trkpt lat="45.75856" lon="0.14165">
        <ele>59.74</ele>
        <time>2021-06-29T16:22:33Z</time>
      </trkpt>
      <trkpt lat="45.75867" lon="0.14162">
        <ele>59.26</ele>
        <time>2021-06-29T16:22:34Z</time>
      </trkpt>
      <trkpt lat="45.75867" lon="0.14162">
        <ele>59.26</ele>
        <time>2021-06-29T16:22:35Z</time>
      </trkpt>
      <trkpt lat="45.75879" lon="0.14146">
        <ele>59.26</ele>
        <time>2021-06-29T16:22:36Z</time>
      </trkpt>
      <trkpt lat="45.75941" lon="0.14109">
        <ele>62.14</ele>
        <time>2021-06-29T16:22:44Z</time>
      </trkpt>
      <trkpt lat="45.76118" lon="0.13986">
        <ele>63.1</ele>
        <time>2021-06-29T16:22:58Z</time>
      </trkpt>
      <trkpt lat="45.76234" lon="0.13906">
        <ele>68.87</ele>
        <time>2021-06-29T16:23:09Z</time>
      </trkpt>
      <trkpt lat="45.76239" lon="0.13903">
        <ele>69.35</ele>
        <time>2021-06-29T16:23:10Z</time>
      </trkpt>
      <trkpt lat="45.76242" lon="0.13895">
        <ele>69.35</ele>
        <time>2021-06-29T16:23:11Z</time>
      </trkpt>
      <trkpt lat="45.76242" lon="0.13895">
        <ele>68.87</ele>
        <time>2021-06-29T16:23:12Z</time>
      </trkpt>
      <trkpt lat="45.76242" lon="0.13885">
        <ele>67.91</ele>
        <time>2021-06-29T16:23:13Z</time>
      </trkpt>
      <trkpt lat="45.76242" lon="0.13885">
        <ele>67.43</ele>
        <time>2021-06-29T16:23:14Z</time>
      </trkpt>
      <trkpt lat="45.76242" lon="0.13879">
        <ele>66.95</ele>
        <time>2021-06-29T16:23:15Z</time>
      </trkpt>
      <trkpt lat="45.76244" lon="0.13807">
        <ele>62.62</ele>
        <time>2021-06-29T16:23:28Z</time>
      </trkpt>
      <trkpt lat="45.76244" lon="0.13807">
        <ele>62.14</ele>
        <time>2021-06-29T16:23:29Z</time>
      </trkpt>
      <trkpt lat="45.76241" lon="0.13809">
        <ele>62.14</ele>
        <time>2021-06-29T16:23:30Z</time>
      </trkpt>
      <trkpt lat="45.76237" lon="0.1381">
        <ele>62.14</ele>
        <time>2021-06-29T16:23:31Z</time>
      </trkpt>
      <trkpt lat="45.76237" lon="0.1381">
        <ele>62.14</ele>
        <time>2021-06-29T16:23:32Z</time>
      </trkpt>
      <trkpt lat="45.76198" lon="0.13824">
        <ele>60.7</ele>
        <time>2021-06-29T16:23:46Z</time>
      </trkpt>
      <trkpt lat="45.76168" lon="0.13847">
        <ele>59.74</ele>
        <time>2021-06-29T16:23:59Z</time>
      </trkpt>
      <trkpt lat="45.76162" lon="0.13839">
        <ele>59.74</ele>
        <time>2021-06-29T16:24:09Z</time>
      </trkpt>
      <trkpt lat="45.76162" lon="0.13839">
        <ele>60.22</ele>
        <time>2021-06-29T16:24:20Z</time>
      </trkpt>
      <trkpt lat="45.76167" lon="0.13848">
        <ele>60.22</ele>
        <time>2021-06-29T16:24:21Z</time>
      </trkpt>
      <trkpt lat="45.76169" lon="0.13847">
        <ele>60.22</ele>
        <time>2021-06-29T16:24:22Z</time>
      </trkpt>
      <trkpt lat="45.76185" lon="0.13834">
        <ele>61.18</ele>
        <time>2021-06-29T16:24:33Z</time>
      </trkpt>
      <trkpt lat="45.76185" lon="0.13834">
        <ele>60.7</ele>
        <time>2021-06-29T16:25:47Z</time>
      </trkpt>
      <trkpt lat="45.76185" lon="0.13834">
        <ele>60.22</ele>
        <time>2021-06-29T16:31:40Z</time>
      </trkpt>
      <trkpt lat="45.76185" lon="0.13834">
        <ele>59.74</ele>
        <time>2021-06-29T16:33:36Z</time>
      </trkpt>
      <trkpt lat="45.76185" lon="0.13834">
        <ele>59.74</ele>
        <time>2021-06-29T16:35:20Z</time>
      </trkpt>
      <trkpt lat="45.76185" lon="0.13834">
        <ele>59.74</ele>
        <time>2021-06-29T16:37:45Z</time>
      </trkpt>
      <trkpt lat="45.76185" lon="0.13834">
        <ele>59.74</ele>
        <time>2021-06-29T16:40:11Z</time>
      </trkpt>
      <trkpt lat="45.76185" lon="0.13834">
        <ele>59.26</ele>
        <time>2021-06-29T16:44:09Z</time>
      </trkpt>
      <trkpt lat="45.76185" lon="0.13834">
        <ele>59.26</ele>
        <time>2021-06-29T16:46:50Z</time>
      </trkpt>
      <trkpt lat="45.76185" lon="0.13834">
        <ele>59.74</ele>
        <time>2021-06-29T16:49:02Z</time>
      </trkpt>
      <trkpt lat="45.76185" lon="0.13834">
        <ele>59.74</ele>
        <time>2021-06-29T16:50:54Z</time>
      </trkpt>
      <trkpt lat="45.76185" lon="0.13834">
        <ele>59.74</ele>
        <time>2021-06-29T16:54:33Z</time>
      </trkpt>
      <trkpt lat="45.76185" lon="0.13834">
        <ele>59.74</ele>
        <time>2021-06-29T16:56:32Z</time>
      </trkpt>
      <trkpt lat="45.76185" lon="0.13834">
        <ele>59.74</ele>
        <time>2021-06-29T16:58:33Z</time>
      </trkpt>
      <trkpt lat="45.76185" lon="0.13834">
        <ele>59.74</ele>
        <time>2021-06-29T17:00:49Z</time>
      </trkpt>
      <trkpt lat="45.76185" lon="0.13834">
        <ele>59.74</ele>
        <time>2021-06-29T17:02:37Z</time>
      </trkpt>
      <trkpt lat="45.76185" lon="0.13834">
        <ele>59.74</ele>
        <time>2021-06-29T17:02:43Z</time>
      </trkpt>
      <trkpt lat="45.76185" lon="0.13834">
        <ele>59.74</ele>
        <time>2021-06-29T17:02:44Z</time>
      </trkpt>
      <trkpt lat="45.76187" lon="0.13833">
        <ele>59.74</ele>
        <time>2021-06-29T17:02:45Z</time>
      </trkpt>
      <trkpt lat="45.76188" lon="0.13831">
        <ele>59.74</ele>
        <time>2021-06-29T17:02:46Z</time>
      </trkpt>
      <trkpt lat="45.7619" lon="0.1383">
        <ele>59.74</ele>
        <time>2021-06-29T17:02:47Z</time>
      </trkpt>
      <trkpt lat="45.76192" lon="0.13828">
        <ele>59.74</ele>
        <time>2021-06-29T17:02:48Z</time>
      </trkpt>
      <trkpt lat="45.76195" lon="0.13826">
        <ele>59.74</ele>
        <time>2021-06-29T17:02:49Z</time>
      </trkpt>
      <trkpt lat="45.76237" lon="0.1381">
        <ele>61.18</ele>
        <time>2021-06-29T17:03:01Z</time>
      </trkpt>
      <trkpt lat="45.76243" lon="0.13815">
        <ele>61.18</ele>
        <time>2021-06-29T17:03:02Z</time>
      </trkpt>
      <trkpt lat="45.76243" lon="0.13815">
        <ele>60.7</ele>
        <time>2021-06-29T17:03:03Z</time>
      </trkpt>
      <trkpt lat="45.76243" lon="0.13818">
        <ele>60.7</ele>
        <time>2021-06-29T17:03:04Z</time>
      </trkpt>
      <trkpt lat="45.76243" lon="0.13822">
        <ele>60.7</ele>
        <time>2021-06-29T17:03:05Z</time>
      </trkpt>
      <trkpt lat="45.76243" lon="0.13827">
        <ele>60.7</ele>
        <time>2021-06-29T17:03:06Z</time>
      </trkpt>
      <trkpt lat="45.76242" lon="0.13894">
        <ele>62.14</ele>
        <time>2021-06-29T17:03:17Z</time>
      </trkpt>
      <trkpt lat="45.7623" lon="0.13909">
        <ele>62.62</ele>
        <time>2021-06-29T17:03:22Z</time>
      </trkpt>
      <trkpt lat="45.7623" lon="0.13909">
        <ele>62.62</ele>
        <time>2021-06-29T17:03:23Z</time>
      </trkpt>
      <trkpt lat="45.76168" lon="0.13951">
        <ele>60.7</ele>
        <time>2021-06-29T17:03:32Z</time>
      </trkpt>
      <trkpt lat="45.75994" lon="0.14072">
        <ele>59.74</ele>
        <time>2021-06-29T17:03:48Z</time>
      </trkpt>
      <trkpt lat="45.75894" lon="0.14143">
        <ele>62.62</ele>
        <time>2021-06-29T17:04:00Z</time>
      </trkpt>
      <trkpt lat="45.75888" lon="0.14145">
        <ele>63.1</ele>
        <time>2021-06-29T17:04:01Z</time>
      </trkpt>
      <trkpt lat="45.75883" lon="0.14146">
        <ele>63.58</ele>
        <time>2021-06-29T17:04:02Z</time>
      </trkpt>
      <trkpt lat="45.75879" lon="0.14146">
        <ele>63.58</ele>
        <time>2021-06-29T17:04:03Z</time>
      </trkpt>
      <trkpt lat="45.7587" lon="0.14143">
        <ele>64.07</ele>
        <time>2021-06-29T17:04:04Z</time>
      </trkpt>
      <trkpt lat="45.75867" lon="0.14139">
        <ele>64.55</ele>
        <time>2021-06-29T17:04:05Z</time>
      </trkpt>
      <trkpt lat="45.7586" lon="0.14135">
        <ele>65.03</ele>
        <time>2021-06-29T17:04:06Z</time>
      </trkpt>
      <trkpt lat="45.7586" lon="0.14135">
        <ele>64.55</ele>
        <time>2021-06-29T17:04:07Z</time>
      </trkpt>
      <trkpt lat="45.75855" lon="0.14137">
        <ele>64.55</ele>
        <time>2021-06-29T17:04:08Z</time>
      </trkpt>
      <trkpt lat="45.75851" lon="0.14139">
        <ele>64.07</ele>
        <time>2021-06-29T17:04:09Z</time>
      </trkpt>
      <trkpt lat="45.75837" lon="0.14165">
        <ele>64.07</ele>
        <time>2021-06-29T17:04:12Z</time>
      </trkpt>
      <trkpt lat="45.75827" lon="0.14175">
        <ele>64.07</ele>
        <time>2021-06-29T17:04:13Z</time>
      </trkpt>
      <trkpt lat="45.75827" lon="0.14175">
        <ele>62.62</ele>
        <time>2021-06-29T17:04:14Z</time>
      </trkpt>
      <trkpt lat="45.75826" lon="0.14183">
        <ele>62.14</ele>
        <time>2021-06-29T17:04:15Z</time>
      </trkpt>
      <trkpt lat="45.75825" lon="0.14193">
        <ele>62.14</ele>
        <time>2021-06-29T17:04:16Z</time>
      </trkpt>
      <trkpt lat="45.75812" lon="0.1424">
        <ele>61.66</ele>
        <time>2021-06-29T17:04:19Z</time>
      </trkpt>
      <trkpt lat="45.75812" lon="0.1424">
        <ele>61.66</ele>
        <time>2021-06-29T17:04:20Z</time>
      </trkpt>
      <trkpt lat="45.75808" lon="0.14251">
        <ele>62.62</ele>
        <time>2021-06-29T17:04:21Z</time>
      </trkpt>
      <trkpt lat="45.75802" lon="0.14262">
        <ele>63.58</ele>
        <time>2021-06-29T17:04:22Z</time>
      </trkpt>
      <trkpt lat="45.75794" lon="0.14274">
        <ele>64.55</ele>
        <time>2021-06-29T17:04:23Z</time>
      </trkpt>
      <trkpt lat="45.75664" lon="0.14456">
        <ele>70.79</ele>
        <time>2021-06-29T17:04:37Z</time>
      </trkpt>
      <trkpt lat="45.75636" lon="0.14491">
        <ele>71.76</ele>
        <time>2021-06-29T17:04:40Z</time>
      </trkpt>
      <trkpt lat="45.75615" lon="0.14508">
        <ele>72.72</ele>
        <time>2021-06-29T17:04:41Z</time>
      </trkpt>
      <trkpt lat="45.75615" lon="0.14508">
        <ele>72.24</ele>
        <time>2021-06-29T17:04:42Z</time>
      </trkpt>
      <trkpt lat="45.75604" lon="0.14516">
        <ele>72.72</ele>
        <time>2021-06-29T17:04:43Z</time>
      </trkpt>
      <trkpt lat="45.75592" lon="0.14521">
        <ele>73.2</ele>
        <time>2021-06-29T17:04:44Z</time>
      </trkpt>
      <trkpt lat="45.75392" lon="0.14597">
        <ele>83.29</ele>
        <time>2021-06-29T17:04:57Z</time>
      </trkpt>
      <trkpt lat="45.75165" lon="0.1468">
        <ele>97.23</ele>
        <time>2021-06-29T17:05:11Z</time>
      </trkpt>
      <trkpt lat="45.75115" lon="0.14692">
        <ele>99.15</ele>
        <time>2021-06-29T17:05:13Z</time>
      </trkpt>
      <trkpt lat="45.75115" lon="0.14692">
        <ele>99.63</ele>
        <time>2021-06-29T17:05:14Z</time>
      </trkpt>
      <trkpt lat="45.75099" lon="0.14692">
        <ele>100.11</ele>
        <time>2021-06-29T17:05:15Z</time>
      </trkpt>
      <trkpt lat="45.75083" lon="0.14689">
        <ele>102.04</ele>
        <time>2021-06-29T17:05:16Z</time>
      </trkpt>
      <trkpt lat="45.75066" lon="0.14684">
        <ele>103</ele>
        <time>2021-06-29T17:05:17Z</time>
      </trkpt>
      <trkpt lat="45.7505" lon="0.14679">
        <ele>104.44</ele>
        <time>2021-06-29T17:05:18Z</time>
      </trkpt>
      <trkpt lat="45.74811" lon="0.14574">
        <ele>109.25</ele>
        <time>2021-06-29T17:05:31Z</time>
      </trkpt>
      <trkpt lat="45.74811" lon="0.14574">
        <ele>109.73</ele>
        <time>2021-06-29T17:05:32Z</time>
      </trkpt>
      <trkpt lat="45.74792" lon="0.14573">
        <ele>109.25</ele>
        <time>2021-06-29T17:05:33Z</time>
      </trkpt>
      <trkpt lat="45.74774" lon="0.14572">
        <ele>107.81</ele>
        <time>2021-06-29T17:05:34Z</time>
      </trkpt>
      <trkpt lat="45.74754" lon="0.14575">
        <ele>107.81</ele>
        <time>2021-06-29T17:05:35Z</time>
      </trkpt>
      <trkpt lat="45.74357" lon="0.14637">
        <ele>92.9</ele>
        <time>2021-06-29T17:05:55Z</time>
      </trkpt>
      <trkpt lat="45.74123" lon="0.14704">
        <ele>94.35</ele>
        <time>2021-06-29T17:06:07Z</time>
      </trkpt>
      <trkpt lat="45.7378" lon="0.1486">
        <ele>90.02</ele>
        <time>2021-06-29T17:06:25Z</time>
      </trkpt>
      <trkpt lat="45.73584" lon="0.14926">
        <ele>92.42</ele>
        <time>2021-06-29T17:06:36Z</time>
      </trkpt>
      <trkpt lat="45.73365" lon="0.14881">
        <ele>97.23</ele>
        <time>2021-06-29T17:06:47Z</time>
      </trkpt>
      <trkpt lat="45.72918" lon="0.14786">
        <ele>94.35</ele>
        <time>2021-06-29T17:07:08Z</time>
      </trkpt>
      <trkpt lat="45.72502" lon="0.14698">
        <ele>99.63</ele>
        <time>2021-06-29T17:07:28Z</time>
      </trkpt>
      <trkpt lat="45.72172" lon="0.14629">
        <ele>95.31</ele>
        <time>2021-06-29T17:07:45Z</time>
      </trkpt>
      <trkpt lat="45.7194" lon="0.14579">
        <ele>86.18</ele>
        <time>2021-06-29T17:07:58Z</time>
      </trkpt>
      <trkpt lat="45.71713" lon="0.14531">
        <ele>78</ele>
        <time>2021-06-29T17:08:13Z</time>
      </trkpt>
      <trkpt lat="45.71517" lon="0.1449">
        <ele>69.83</ele>
        <time>2021-06-29T17:08:28Z</time>
      </trkpt>
      <trkpt lat="45.71376" lon="0.14467">
        <ele>65.51</ele>
        <time>2021-06-29T17:08:41Z</time>
      </trkpt>
      <trkpt lat="45.71365" lon="0.14469">
        <ele>66.47</ele>
        <time>2021-06-29T17:08:42Z</time>
      </trkpt>
      <trkpt lat="45.71206" lon="0.14521">
        <ele>68.39</ele>
        <time>2021-06-29T17:08:57Z</time>
      </trkpt>
      <trkpt lat="45.71159" lon="0.14538">
        <ele>67.43</ele>
        <time>2021-06-29T17:09:04Z</time>
      </trkpt>
      <trkpt lat="45.71119" lon="0.14552">
        <ele>65.51</ele>
        <time>2021-06-29T17:09:12Z</time>
      </trkpt>
      <trkpt lat="45.7104" lon="0.14581">
        <ele>64.55</ele>
        <time>2021-06-29T17:09:24Z</time>
      </trkpt>
      <trkpt lat="45.70953" lon="0.1461">
        <ele>62.14</ele>
        <time>2021-06-29T17:09:37Z</time>
      </trkpt>
      <trkpt lat="45.70826" lon="0.14657">
        <ele>55.89</ele>
        <time>2021-06-29T17:09:51Z</time>
      </trkpt>
      <trkpt lat="45.70686" lon="0.14685">
        <ele>46.28</ele>
        <time>2021-06-29T17:10:03Z</time>
      </trkpt>
      <trkpt lat="45.70576" lon="0.14655">
        <ele>43.88</ele>
        <time>2021-06-29T17:10:11Z</time>
      </trkpt>
      <trkpt lat="45.70401" lon="0.14557">
        <ele>41.47</ele>
        <time>2021-06-29T17:10:22Z</time>
      </trkpt>
      <trkpt lat="45.70221" lon="0.14432">
        <ele>39.07</ele>
        <time>2021-06-29T17:10:33Z</time>
      </trkpt>
      <trkpt lat="45.70117" lon="0.14388">
        <ele>39.07</ele>
        <time>2021-06-29T17:10:40Z</time>
      </trkpt>
      <trkpt lat="45.70085" lon="0.14383">
        <ele>38.11</ele>
        <time>2021-06-29T17:10:43Z</time>
      </trkpt>
      <trkpt lat="45.70076" lon="0.14383">
        <ele>37.15</ele>
        <time>2021-06-29T17:10:44Z</time>
      </trkpt>
      <trkpt lat="45.70069" lon="0.14384">
        <ele>37.15</ele>
        <time>2021-06-29T17:10:45Z</time>
      </trkpt>
      <trkpt lat="45.70061" lon="0.14393">
        <ele>37.15</ele>
        <time>2021-06-29T17:10:46Z</time>
      </trkpt>
      <trkpt lat="45.70047" lon="0.14411">
        <ele>36.19</ele>
        <time>2021-06-29T17:10:47Z</time>
      </trkpt>
      <trkpt lat="45.70041" lon="0.14427">
        <ele>35.71</ele>
        <time>2021-06-29T17:10:48Z</time>
      </trkpt>
      <trkpt lat="45.70041" lon="0.14427">
        <ele>34.74</ele>
        <time>2021-06-29T17:10:49Z</time>
      </trkpt>
      <trkpt lat="45.70012" lon="0.14535">
        <ele>30.9</ele>
        <time>2021-06-29T17:10:54Z</time>
      </trkpt>
      <trkpt lat="45.70012" lon="0.14535">
        <ele>29.94</ele>
        <time>2021-06-29T17:10:55Z</time>
      </trkpt>
      <trkpt lat="45.7001" lon="0.14558">
        <ele>28.98</ele>
        <time>2021-06-29T17:10:56Z</time>
      </trkpt>
      <trkpt lat="45.7001" lon="0.1458">
        <ele>27.53</ele>
        <time>2021-06-29T17:10:57Z</time>
      </trkpt>
      <trkpt lat="45.7001" lon="0.14604">
        <ele>27.05</ele>
        <time>2021-06-29T17:10:58Z</time>
      </trkpt>
      <trkpt lat="45.7" lon="0.14798">
        <ele>25.61</ele>
        <time>2021-06-29T17:11:07Z</time>
      </trkpt>
      <trkpt lat="45.69994" lon="0.14854">
        <ele>25.61</ele>
        <time>2021-06-29T17:11:10Z</time>
      </trkpt>
      <trkpt lat="45.69989" lon="0.14871">
        <ele>27.53</ele>
        <time>2021-06-29T17:11:11Z</time>
      </trkpt>
      <trkpt lat="45.69982" lon="0.14885">
        <ele>29.46</ele>
        <time>2021-06-29T17:11:12Z</time>
      </trkpt>
      <trkpt lat="45.69975" lon="0.14897">
        <ele>28.98</ele>
        <time>2021-06-29T17:11:13Z</time>
      </trkpt>
      <trkpt lat="45.69965" lon="0.14906">
        <ele>28.5</ele>
        <time>2021-06-29T17:11:14Z</time>
      </trkpt>
      <trkpt lat="45.69941" lon="0.14917">
        <ele>27.53</ele>
        <time>2021-06-29T17:11:15Z</time>
      </trkpt>
      <trkpt lat="45.69941" lon="0.14917">
        <ele>27.05</ele>
        <time>2021-06-29T17:11:16Z</time>
      </trkpt>
      <trkpt lat="45.69838" lon="0.14964">
        <ele>30.42</ele>
        <time>2021-06-29T17:11:25Z</time>
      </trkpt>
      <trkpt lat="45.69814" lon="0.14979">
        <ele>29.94</ele>
        <time>2021-06-29T17:11:26Z</time>
      </trkpt>
      <trkpt lat="45.69814" lon="0.14979">
        <ele>30.42</ele>
        <time>2021-06-29T17:11:27Z</time>
      </trkpt>
      <trkpt lat="45.69802" lon="0.14989">
        <ele>30.9</ele>
        <time>2021-06-29T17:11:28Z</time>
      </trkpt>
      <trkpt lat="45.6979" lon="0.15001">
        <ele>30.42</ele>
        <time>2021-06-29T17:11:29Z</time>
      </trkpt>
      <trkpt lat="45.69626" lon="0.15182">
        <ele>31.38</ele>
        <time>2021-06-29T17:11:43Z</time>
      </trkpt>
      <trkpt lat="45.69461" lon="0.1536">
        <ele>32.82</ele>
        <time>2021-06-29T17:11:56Z</time>
      </trkpt>
      <trkpt lat="45.6935" lon="0.15464">
        <ele>37.63</ele>
        <time>2021-06-29T17:12:05Z</time>
      </trkpt>
      <trkpt lat="45.69234" lon="0.15524">
        <ele>32.34</ele>
        <time>2021-06-29T17:12:16Z</time>
      </trkpt>
      <trkpt lat="45.69123" lon="0.15566">
        <ele>32.82</ele>
        <time>2021-06-29T17:12:29Z</time>
      </trkpt>
      <trkpt lat="45.69075" lon="0.15579">
        <ele>29.46</ele>
        <time>2021-06-29T17:12:34Z</time>
      </trkpt>
      <trkpt lat="45.68968" lon="0.15592">
        <ele>30.42</ele>
        <time>2021-06-29T17:12:44Z</time>
      </trkpt>
      <trkpt lat="45.68872" lon="0.15611">
        <ele>29.46</ele>
        <time>2021-06-29T17:12:54Z</time>
      </trkpt>
      <trkpt lat="45.68719" lon="0.15611">
        <ele>28.98</ele>
        <time>2021-06-29T17:13:08Z</time>
      </trkpt>
      <trkpt lat="45.68572" lon="0.15609">
        <ele>31.38</ele>
        <time>2021-06-29T17:13:21Z</time>
      </trkpt>
      <trkpt lat="45.68442" lon="0.15607">
        <ele>33.3</ele>
        <time>2021-06-29T17:13:32Z</time>
      </trkpt>
      <trkpt lat="45.68272" lon="0.15606">
        <ele>30.9</ele>
        <time>2021-06-29T17:13:45Z</time>
      </trkpt>
      <trkpt lat="45.68175" lon="0.1561">
        <ele>31.38</ele>
        <time>2021-06-29T17:13:54Z</time>
      </trkpt>
      <trkpt lat="45.68024" lon="0.15658">
        <ele>35.23</ele>
        <time>2021-06-29T17:14:09Z</time>
      </trkpt>
      <trkpt lat="45.67894" lon="0.157">
        <ele>32.34</ele>
        <time>2021-06-29T17:14:24Z</time>
      </trkpt>
      <trkpt lat="45.67889" lon="0.15701">
        <ele>32.34</ele>
        <time>2021-06-29T17:14:25Z</time>
      </trkpt>
      <trkpt lat="45.67885" lon="0.15703">
        <ele>32.34</ele>
        <time>2021-06-29T17:14:26Z</time>
      </trkpt>
      <trkpt lat="45.67875" lon="0.15696">
        <ele>31.86</ele>
        <time>2021-06-29T17:14:27Z</time>
      </trkpt>
      <trkpt lat="45.67869" lon="0.15696">
        <ele>33.3</ele>
        <time>2021-06-29T17:14:30Z</time>
      </trkpt>
      <trkpt lat="45.67866" lon="0.15696">
        <ele>33.78</ele>
        <time>2021-06-29T17:14:31Z</time>
      </trkpt>
      <trkpt lat="45.67863" lon="0.15708">
        <ele>34.26</ele>
        <time>2021-06-29T17:14:32Z</time>
      </trkpt>
      <trkpt lat="45.67863" lon="0.15708">
        <ele>34.26</ele>
        <time>2021-06-29T17:14:33Z</time>
      </trkpt>
      <trkpt lat="45.67862" lon="0.15709">
        <ele>33.78</ele>
        <time>2021-06-29T17:14:34Z</time>
      </trkpt>
      <trkpt lat="45.67869" lon="0.15718">
        <ele>33.3</ele>
        <time>2021-06-29T17:14:35Z</time>
      </trkpt>
      <trkpt lat="45.67869" lon="0.15725">
        <ele>33.3</ele>
        <time>2021-06-29T17:14:36Z</time>
      </trkpt>
      <trkpt lat="45.67869" lon="0.15733">
        <ele>32.82</ele>
        <time>2021-06-29T17:14:37Z</time>
      </trkpt>
      <trkpt lat="45.6787" lon="0.15742">
        <ele>32.34</ele>
        <time>2021-06-29T17:14:38Z</time>
      </trkpt>
      <trkpt lat="45.67877" lon="0.15881">
        <ele>34.74</ele>
        <time>2021-06-29T17:14:51Z</time>
      </trkpt>
      <trkpt lat="45.67877" lon="0.15924">
        <ele>34.26</ele>
        <time>2021-06-29T17:14:58Z</time>
      </trkpt>
      <trkpt lat="45.67875" lon="0.15924">
        <ele>34.26</ele>
        <time>2021-06-29T17:14:59Z</time>
      </trkpt>
      <trkpt lat="45.67872" lon="0.15924">
        <ele>34.26</ele>
        <time>2021-06-29T17:15:00Z</time>
      </trkpt>
      <trkpt lat="45.67869" lon="0.15924">
        <ele>34.26</ele>
        <time>2021-06-29T17:15:01Z</time>
      </trkpt>
      <trkpt lat="45.67865" lon="0.15924">
        <ele>34.26</ele>
        <time>2021-06-29T17:15:02Z</time>
      </trkpt>
      <trkpt lat="45.67861" lon="0.15924">
        <ele>34.26</ele>
        <time>2021-06-29T17:15:03Z</time>
      </trkpt>
      <trkpt lat="45.67811" lon="0.15926">
        <ele>33.78</ele>
        <time>2021-06-29T17:15:12Z</time>
      </trkpt>
      <trkpt lat="45.67808" lon="0.15932">
        <ele>33.78</ele>
        <time>2021-06-29T17:15:13Z</time>
      </trkpt>
      <trkpt lat="45.67807" lon="0.15936">
        <ele>33.3</ele>
        <time>2021-06-29T17:15:14Z</time>
      </trkpt>
      <trkpt lat="45.67806" lon="0.1594">
        <ele>32.82</ele>
        <time>2021-06-29T17:15:15Z</time>
      </trkpt>
      <trkpt lat="45.67806" lon="0.15946">
        <ele>32.82</ele>
        <time>2021-06-29T17:15:16Z</time>
      </trkpt>
      <trkpt lat="45.67806" lon="0.15953">
        <ele>32.82</ele>
        <time>2021-06-29T17:15:17Z</time>
      </trkpt>
      <trkpt lat="45.67806" lon="0.1596">
        <ele>33.3</ele>
        <time>2021-06-29T17:15:18Z</time>
      </trkpt>
      <trkpt lat="45.67806" lon="0.15967">
        <ele>33.78</ele>
        <time>2021-06-29T17:15:19Z</time>
      </trkpt>
      <trkpt lat="45.67805" lon="0.15975">
        <ele>33.78</ele>
        <time>2021-06-29T17:15:20Z</time>
      </trkpt>
      <trkpt lat="45.67803" lon="0.15982">
        <ele>33.78</ele>
        <time>2021-06-29T17:15:21Z</time>
      </trkpt>
      <trkpt lat="45.67798" lon="0.16002">
        <ele>34.26</ele>
        <time>2021-06-29T17:15:24Z</time>
      </trkpt>
      <trkpt lat="45.67795" lon="0.16006">
        <ele>34.26</ele>
        <time>2021-06-29T17:15:25Z</time>
      </trkpt>
      <trkpt lat="45.67791" lon="0.1601">
        <ele>33.78</ele>
        <time>2021-06-29T17:15:26Z</time>
      </trkpt>
      <trkpt lat="45.67787" lon="0.16011">
        <ele>33.78</ele>
        <time>2021-06-29T17:15:27Z</time>
      </trkpt>
      <trkpt lat="45.67774" lon="0.16016">
        <ele>33.78</ele>
        <time>2021-06-29T17:15:28Z</time>
      </trkpt>
      <trkpt lat="45.67686" lon="0.1605">
        <ele>33.78</ele>
        <time>2021-06-29T17:15:42Z</time>
      </trkpt>
      <trkpt lat="45.67669" lon="0.16058">
        <ele>33.78</ele>
        <time>2021-06-29T17:15:47Z</time>
      </trkpt>
      <trkpt lat="45.67665" lon="0.16054">
        <ele>33.78</ele>
        <time>2021-06-29T17:15:48Z</time>
      </trkpt>
      <trkpt lat="45.67663" lon="0.1605">
        <ele>33.78</ele>
        <time>2021-06-29T17:15:49Z</time>
      </trkpt>
      <trkpt lat="45.67661" lon="0.16045">
        <ele>33.3</ele>
        <time>2021-06-29T17:15:50Z</time>
      </trkpt>
      <trkpt lat="45.67658" lon="0.1604">
        <ele>33.3</ele>
        <time>2021-06-29T17:15:51Z</time>
      </trkpt>
      <trkpt lat="45.67633" lon="0.15985">
        <ele>31.86</ele>
        <time>2021-06-29T17:15:58Z</time>
      </trkpt>
      <trkpt lat="45.67629" lon="0.15982">
        <ele>31.86</ele>
        <time>2021-06-29T17:15:59Z</time>
      </trkpt>
      <trkpt lat="45.67626" lon="0.1598">
        <ele>31.86</ele>
        <time>2021-06-29T17:16:00Z</time>
      </trkpt>
      <trkpt lat="45.67622" lon="0.15981">
        <ele>31.38</ele>
        <time>2021-06-29T17:16:01Z</time>
      </trkpt>
      <trkpt lat="45.67618" lon="0.15982">
        <ele>30.9</ele>
        <time>2021-06-29T17:16:02Z</time>
      </trkpt>
      <trkpt lat="45.67618" lon="0.15982">
        <ele>30.9</ele>
        <time>2021-06-29T17:16:03Z</time>
      </trkpt>
      <trkpt lat="45.67615" lon="0.15985">
        <ele>30.9</ele>
        <time>2021-06-29T17:16:04Z</time>
      </trkpt>
      <trkpt lat="45.67611" lon="0.15988">
        <ele>30.9</ele>
        <time>2021-06-29T17:16:05Z</time>
      </trkpt>
      <trkpt lat="45.67533" lon="0.16039">
        <ele>31.38</ele>
        <time>2021-06-29T17:16:23Z</time>
      </trkpt>
      <trkpt lat="45.67456" lon="0.16046">
        <ele>28.5</ele>
        <time>2021-06-29T17:16:41Z</time>
      </trkpt>
      <trkpt lat="45.67444" lon="0.1605">
        <ele>28.98</ele>
        <time>2021-06-29T17:16:51Z</time>
      </trkpt>
      <trkpt lat="45.67444" lon="0.1605">
        <ele>28.5</ele>
        <time>2021-06-29T17:19:00Z</time>
      </trkpt>
      <trkpt lat="45.67444" lon="0.1605">
        <ele>28.02</ele>
        <time>2021-06-29T17:19:02Z</time>
      </trkpt>
      <trkpt lat="45.67451" lon="0.16048">
        <ele>28.02</ele>
        <time>2021-06-29T17:19:03Z</time>
      </trkpt>
      <trkpt lat="45.67452" lon="0.16048">
        <ele>27.53</ele>
        <time>2021-06-29T17:19:04Z</time>
      </trkpt>
      <trkpt lat="45.67455" lon="0.16047">
        <ele>27.05</ele>
        <time>2021-06-29T17:19:05Z</time>
      </trkpt>
      <trkpt lat="45.67459" lon="0.16046">
        <ele>27.05</ele>
        <time>2021-06-29T17:19:06Z</time>
      </trkpt>
      <trkpt lat="45.67519" lon="0.16043">
        <ele>28.98</ele>
        <time>2021-06-29T17:19:17Z</time>
      </trkpt>
      <trkpt lat="45.67602" lon="0.15997">
        <ele>29.94</ele>
        <time>2021-06-29T17:19:32Z</time>
      </trkpt>
      <trkpt lat="45.67613" lon="0.15986">
        <ele>30.42</ele>
        <time>2021-06-29T17:19:34Z</time>
      </trkpt>
      <trkpt lat="45.67619" lon="0.15981">
        <ele>30.9</ele>
        <time>2021-06-29T17:19:35Z</time>
      </trkpt>
      <trkpt lat="45.67624" lon="0.1598">
        <ele>30.9</ele>
        <time>2021-06-29T17:19:36Z</time>
      </trkpt>
      <trkpt lat="45.67628" lon="0.15981">
        <ele>30.42</ele>
        <time>2021-06-29T17:19:37Z</time>
      </trkpt>
      <trkpt lat="45.67631" lon="0.15983">
        <ele>29.94</ele>
        <time>2021-06-29T17:19:38Z</time>
      </trkpt>
      <trkpt lat="45.67635" lon="0.15989">
        <ele>29.94</ele>
        <time>2021-06-29T17:19:39Z</time>
      </trkpt>
      <trkpt lat="45.67659" lon="0.16042">
        <ele>31.86</ele>
        <time>2021-06-29T17:19:46Z</time>
      </trkpt>
      <trkpt lat="45.67665" lon="0.16054">
        <ele>31.86</ele>
        <time>2021-06-29T17:19:47Z</time>
      </trkpt>
      <trkpt lat="45.6767" lon="0.16058">
        <ele>31.86</ele>
        <time>2021-06-29T17:19:48Z</time>
      </trkpt>
      <trkpt lat="45.67674" lon="0.16056">
        <ele>31.86</ele>
        <time>2021-06-29T17:19:49Z</time>
      </trkpt>
      <trkpt lat="45.67674" lon="0.16056">
        <ele>31.86</ele>
        <time>2021-06-29T17:19:50Z</time>
      </trkpt>
      <trkpt lat="45.67685" lon="0.16051">
        <ele>32.34</ele>
        <time>2021-06-29T17:19:51Z</time>
      </trkpt>
      <trkpt lat="45.67685" lon="0.16051">
        <ele>32.34</ele>
        <time>2021-06-29T17:19:52Z</time>
      </trkpt>
      <trkpt lat="45.67782" lon="0.16013">
        <ele>32.82</ele>
        <time>2021-06-29T17:20:05Z</time>
      </trkpt>
      <trkpt lat="45.67788" lon="0.16011">
        <ele>32.82</ele>
        <time>2021-06-29T17:20:06Z</time>
      </trkpt>
      <trkpt lat="45.67792" lon="0.16009">
        <ele>32.82</ele>
        <time>2021-06-29T17:20:07Z</time>
      </trkpt>
      <trkpt lat="45.67796" lon="0.16005">
        <ele>32.82</ele>
        <time>2021-06-29T17:20:08Z</time>
      </trkpt>
      <trkpt lat="45.67798" lon="0.16001">
        <ele>32.82</ele>
        <time>2021-06-29T17:20:09Z</time>
      </trkpt>
      <trkpt lat="45.678" lon="0.15995">
        <ele>32.82</ele>
        <time>2021-06-29T17:20:10Z</time>
      </trkpt>
      <trkpt lat="45.67802" lon="0.15987">
        <ele>33.3</ele>
        <time>2021-06-29T17:20:11Z</time>
      </trkpt>
      <trkpt lat="45.67805" lon="0.15972">
        <ele>33.3</ele>
        <time>2021-06-29T17:20:13Z</time>
      </trkpt>
      <trkpt lat="45.67806" lon="0.15965">
        <ele>33.78</ele>
        <time>2021-06-29T17:20:14Z</time>
      </trkpt>
      <trkpt lat="45.67808" lon="0.15932">
        <ele>33.78</ele>
        <time>2021-06-29T17:20:20Z</time>
      </trkpt>
      <trkpt lat="45.67809" lon="0.15929">
        <ele>33.78</ele>
        <time>2021-06-29T17:20:21Z</time>
      </trkpt>
      <trkpt lat="45.67811" lon="0.15926">
        <ele>33.3</ele>
        <time>2021-06-29T17:20:22Z</time>
      </trkpt>
      <trkpt lat="45.67813" lon="0.15926">
        <ele>33.3</ele>
        <time>2021-06-29T17:20:23Z</time>
      </trkpt>
      <trkpt lat="45.67817" lon="0.15926">
        <ele>32.82</ele>
        <time>2021-06-29T17:20:24Z</time>
      </trkpt>
      <trkpt lat="45.67869" lon="0.15924">
        <ele>33.78</ele>
        <time>2021-06-29T17:20:35Z</time>
      </trkpt>
      <trkpt lat="45.67873" lon="0.15924">
        <ele>33.78</ele>
        <time>2021-06-29T17:20:38Z</time>
      </trkpt>
      <trkpt lat="45.67876" lon="0.15924">
        <ele>33.78</ele>
        <time>2021-06-29T17:20:39Z</time>
      </trkpt>
      <trkpt lat="45.67878" lon="0.15929">
        <ele>33.78</ele>
        <time>2021-06-29T17:20:40Z</time>
      </trkpt>
      <trkpt lat="45.67878" lon="0.15929">
        <ele>33.78</ele>
        <time>2021-06-29T17:20:41Z</time>
      </trkpt>
      <trkpt lat="45.6788" lon="0.15938">
        <ele>33.3</ele>
        <time>2021-06-29T17:20:42Z</time>
      </trkpt>
      <trkpt lat="45.6788" lon="0.15938">
        <ele>33.3</ele>
        <time>2021-06-29T17:20:43Z</time>
      </trkpt>
      <trkpt lat="45.67884" lon="0.16032">
        <ele>33.78</ele>
        <time>2021-06-29T17:20:53Z</time>
      </trkpt>
      <trkpt lat="45.67871" lon="0.16131">
        <ele>40.51</ele>
        <time>2021-06-29T17:21:02Z</time>
      </trkpt>
      <trkpt lat="45.67862" lon="0.16174">
        <ele>41.95</ele>
        <time>2021-06-29T17:21:05Z</time>
      </trkpt>
      <trkpt lat="45.67862" lon="0.16174">
        <ele>42.44</ele>
        <time>2021-06-29T17:21:06Z</time>
      </trkpt>
      <trkpt lat="45.67863" lon="0.16192">
        <ele>42.92</ele>
        <time>2021-06-29T17:21:07Z</time>
      </trkpt>
      <trkpt lat="45.67863" lon="0.16192">
        <ele>43.4</ele>
        <time>2021-06-29T17:21:08Z</time>
      </trkpt>
      <trkpt lat="45.67864" lon="0.16201">
        <ele>43.4</ele>
        <time>2021-06-29T17:21:09Z</time>
      </trkpt>
      <trkpt lat="45.67866" lon="0.1621">
        <ele>43.88</ele>
        <time>2021-06-29T17:21:10Z</time>
      </trkpt>
      <trkpt lat="45.67873" lon="0.16229">
        <ele>43.88</ele>
        <time>2021-06-29T17:21:11Z</time>
      </trkpt>
      <trkpt lat="45.67898" lon="0.16287">
        <ele>45.32</ele>
        <time>2021-06-29T17:21:18Z</time>
      </trkpt>
      <trkpt lat="45.67901" lon="0.16298">
        <ele>45.32</ele>
        <time>2021-06-29T17:21:19Z</time>
      </trkpt>
      <trkpt lat="45.67906" lon="0.16319">
        <ele>45.8</ele>
        <time>2021-06-29T17:21:20Z</time>
      </trkpt>
      <trkpt lat="45.67906" lon="0.16319">
        <ele>46.76</ele>
        <time>2021-06-29T17:21:21Z</time>
      </trkpt>
      <trkpt lat="45.67908" lon="0.16339">
        <ele>47.24</ele>
        <time>2021-06-29T17:21:22Z</time>
      </trkpt>
      <trkpt lat="45.67908" lon="0.16348">
        <ele>47.24</ele>
        <time>2021-06-29T17:21:23Z</time>
      </trkpt>
      <trkpt lat="45.67908" lon="0.16359">
        <ele>47.72</ele>
        <time>2021-06-29T17:21:29Z</time>
      </trkpt>
      <trkpt lat="45.67909" lon="0.16381">
        <ele>48.68</ele>
        <time>2021-06-29T17:21:44Z</time>
      </trkpt>
      <trkpt lat="45.67909" lon="0.16393">
        <ele>49.16</ele>
        <time>2021-06-29T17:21:50Z</time>
      </trkpt>
      <trkpt lat="45.67915" lon="0.16395">
        <ele>49.16</ele>
        <time>2021-06-29T17:21:51Z</time>
      </trkpt>
      <trkpt lat="45.67919" lon="0.16395">
        <ele>49.65</ele>
        <time>2021-06-29T17:21:52Z</time>
      </trkpt>
      <trkpt lat="45.67989" lon="0.16394">
        <ele>53.97</ele>
        <time>2021-06-29T17:22:03Z</time>
      </trkpt>
      <trkpt lat="45.68083" lon="0.16388">
        <ele>58.78</ele>
        <time>2021-06-29T17:22:15Z</time>
      </trkpt>
      <trkpt lat="45.68173" lon="0.16387">
        <ele>64.07</ele>
        <time>2021-06-29T17:22:29Z</time>
      </trkpt>
      <trkpt lat="45.68177" lon="0.16388">
        <ele>64.07</ele>
        <time>2021-06-29T17:22:30Z</time>
      </trkpt>
      <trkpt lat="45.68182" lon="0.16388">
        <ele>64.07</ele>
        <time>2021-06-29T17:22:31Z</time>
      </trkpt>
      <trkpt lat="45.68188" lon="0.16369">
        <ele>62.62</ele>
        <time>2021-06-29T17:22:39Z</time>
      </trkpt>
      <trkpt lat="45.68186" lon="0.1634">
        <ele>62.14</ele>
        <time>2021-06-29T17:22:51Z</time>
      </trkpt>
      <trkpt lat="45.68185" lon="0.16299">
        <ele>62.62</ele>
        <time>2021-06-29T17:23:26Z</time>
      </trkpt>
      <trkpt lat="45.68176" lon="0.16295">
        <ele>63.1</ele>
        <time>2021-06-29T17:23:34Z</time>
      </trkpt>
      <trkpt lat="45.68192" lon="0.16285">
        <ele>62.62</ele>
        <time>2021-06-29T17:23:53Z</time>
      </trkpt>
      <trkpt lat="45.682" lon="0.16272">
        <ele>61.66</ele>
        <time>2021-06-29T17:24:14Z</time>
      </trkpt>
      <trkpt lat="45.682" lon="0.16268">
        <ele>61.66</ele>
        <time>2021-06-29T17:24:17Z</time>
      </trkpt>
      <trkpt lat="45.68194" lon="0.16235">
        <ele>59.74</ele>
        <time>2021-06-29T17:24:41Z</time>
      </trkpt>
      <trkpt lat="45.68192" lon="0.16224">
        <ele>59.26</ele>
        <time>2021-06-29T17:25:02Z</time>
      </trkpt>
      <trkpt lat="45.68193" lon="0.16224">
        <ele>59.26</ele>
        <time>2021-06-29T17:26:45Z</time>
      </trkpt>
      <trkpt lat="45.68192" lon="0.16224">
        <ele>59.26</ele>
        <time>2021-06-29T17:28:57Z</time>
      </trkpt>
      <trkpt lat="45.68193" lon="0.16224">
        <ele>59.26</ele>
        <time>2021-06-29T17:29:14Z</time>
      </trkpt>
      <trkpt lat="45.68203" lon="0.16254">
        <ele>60.22</ele>
        <time>2021-06-29T17:29:28Z</time>
      </trkpt>
      <trkpt lat="45.68206" lon="0.16269">
        <ele>60.7</ele>
        <time>2021-06-29T17:29:33Z</time>
      </trkpt>
      <trkpt lat="45.68202" lon="0.16276">
        <ele>60.7</ele>
        <time>2021-06-29T17:29:37Z</time>
      </trkpt>
      <trkpt lat="45.6819" lon="0.16304">
        <ele>60.7</ele>
        <time>2021-06-29T17:29:49Z</time>
      </trkpt>
      <trkpt lat="45.6819" lon="0.16307">
        <ele>61.18</ele>
        <time>2021-06-29T17:30:03Z</time>
      </trkpt>
      <trkpt lat="45.68191" lon="0.1631">
        <ele>61.18</ele>
        <time>2021-06-29T17:30:15Z</time>
      </trkpt>
      <trkpt lat="45.68186" lon="0.16346">
        <ele>60.7</ele>
        <time>2021-06-29T17:30:25Z</time>
      </trkpt>
      <trkpt lat="45.68187" lon="0.16353">
        <ele>61.18</ele>
        <time>2021-06-29T17:30:26Z</time>
      </trkpt>
      <trkpt lat="45.68187" lon="0.16353">
        <ele>61.66</ele>
        <time>2021-06-29T17:30:27Z</time>
      </trkpt>
      <trkpt lat="45.68187" lon="0.1636">
        <ele>61.66</ele>
        <time>2021-06-29T17:30:28Z</time>
      </trkpt>
      <trkpt lat="45.68187" lon="0.16366">
        <ele>62.14</ele>
        <time>2021-06-29T17:30:29Z</time>
      </trkpt>
      <trkpt lat="45.68188" lon="0.16371">
        <ele>62.14</ele>
        <time>2021-06-29T17:30:30Z</time>
      </trkpt>
      <trkpt lat="45.68188" lon="0.16376">
        <ele>62.14</ele>
        <time>2021-06-29T17:30:31Z</time>
      </trkpt>
      <trkpt lat="45.68188" lon="0.1638">
        <ele>62.14</ele>
        <time>2021-06-29T17:30:32Z</time>
      </trkpt>
      <trkpt lat="45.68188" lon="0.16382">
        <ele>62.14</ele>
        <time>2021-06-29T17:30:33Z</time>
      </trkpt>
      <trkpt lat="45.68188" lon="0.16385">
        <ele>62.14</ele>
        <time>2021-06-29T17:30:34Z</time>
      </trkpt>
      <trkpt lat="45.68184" lon="0.16389">
        <ele>62.14</ele>
        <time>2021-06-29T17:30:35Z</time>
      </trkpt>
      <trkpt lat="45.6818" lon="0.16388">
        <ele>62.14</ele>
        <time>2021-06-29T17:30:36Z</time>
      </trkpt>
      <trkpt lat="45.68177" lon="0.16388">
        <ele>61.66</ele>
        <time>2021-06-29T17:30:37Z</time>
      </trkpt>
      <trkpt lat="45.68126" lon="0.16387">
        <ele>60.22</ele>
        <time>2021-06-29T17:30:50Z</time>
      </trkpt>
      <trkpt lat="45.6806" lon="0.1639">
        <ele>56.86</ele>
        <time>2021-06-29T17:31:02Z</time>
      </trkpt>
      <trkpt lat="45.68023" lon="0.16393">
        <ele>54.93</ele>
        <time>2021-06-29T17:31:10Z</time>
      </trkpt>
      <trkpt lat="45.67964" lon="0.16394">
        <ele>52.53</ele>
        <time>2021-06-29T17:31:23Z</time>
      </trkpt>
      <trkpt lat="45.67953" lon="0.16394">
        <ele>51.57</ele>
        <time>2021-06-29T17:31:32Z</time>
      </trkpt>
      <trkpt lat="45.6793" lon="0.16394">
        <ele>50.13</ele>
        <time>2021-06-29T17:31:45Z</time>
      </trkpt>
      <trkpt lat="45.67913" lon="0.16396">
        <ele>49.16</ele>
        <time>2021-06-29T17:31:50Z</time>
      </trkpt>
      <trkpt lat="45.67909" lon="0.16389">
        <ele>49.16</ele>
        <time>2021-06-29T17:31:51Z</time>
      </trkpt>
      <trkpt lat="45.67909" lon="0.16385">
        <ele>49.16</ele>
        <time>2021-06-29T17:31:52Z</time>
      </trkpt>
      <trkpt lat="45.67909" lon="0.1638">
        <ele>48.68</ele>
        <time>2021-06-29T17:31:53Z</time>
      </trkpt>
      <trkpt lat="45.67909" lon="0.16368">
        <ele>48.68</ele>
        <time>2021-06-29T17:31:54Z</time>
      </trkpt>
      <trkpt lat="45.67909" lon="0.16368">
        <ele>48.68</ele>
        <time>2021-06-29T17:31:55Z</time>
      </trkpt>
      <trkpt lat="45.67908" lon="0.16352">
        <ele>48.2</ele>
        <time>2021-06-29T17:31:56Z</time>
      </trkpt>
      <trkpt lat="45.67888" lon="0.16263">
        <ele>47.24</ele>
        <time>2021-06-29T17:32:09Z</time>
      </trkpt>
      <trkpt lat="45.67866" lon="0.16211">
        <ele>46.76</ele>
        <time>2021-06-29T17:32:17Z</time>
      </trkpt>
      <trkpt lat="45.67865" lon="0.16205">
        <ele>46.28</ele>
        <time>2021-06-29T17:32:18Z</time>
      </trkpt>
      <trkpt lat="45.67864" lon="0.16198">
        <ele>45.8</ele>
        <time>2021-06-29T17:32:19Z</time>
      </trkpt>
      <trkpt lat="45.67863" lon="0.16191">
        <ele>45.32</ele>
        <time>2021-06-29T17:32:20Z</time>
      </trkpt>
      <trkpt lat="45.67862" lon="0.16183">
        <ele>44.84</ele>
        <time>2021-06-29T17:32:21Z</time>
      </trkpt>
      <trkpt lat="45.67862" lon="0.16174">
        <ele>44.84</ele>
        <time>2021-06-29T17:32:22Z</time>
      </trkpt>
      <trkpt lat="45.67862" lon="0.16165">
        <ele>44.36</ele>
        <time>2021-06-29T17:32:23Z</time>
      </trkpt>
      <trkpt lat="45.67865" lon="0.16157">
        <ele>43.88</ele>
        <time>2021-06-29T17:32:24Z</time>
      </trkpt>
      <trkpt lat="45.67883" lon="0.16017">
        <ele>38.59</ele>
        <time>2021-06-29T17:32:38Z</time>
      </trkpt>
      <trkpt lat="45.67879" lon="0.15935">
        <ele>37.15</ele>
        <time>2021-06-29T17:32:48Z</time>
      </trkpt>
      <trkpt lat="45.67879" lon="0.15932">
        <ele>37.15</ele>
        <time>2021-06-29T17:32:52Z</time>
      </trkpt>
      <trkpt lat="45.67878" lon="0.15927">
        <ele>37.15</ele>
        <time>2021-06-29T17:32:53Z</time>
      </trkpt>
      <trkpt lat="45.67877" lon="0.15924">
        <ele>37.15</ele>
        <time>2021-06-29T17:32:54Z</time>
      </trkpt>
      <trkpt lat="45.67876" lon="0.15924">
        <ele>36.67</ele>
        <time>2021-06-29T17:32:55Z</time>
      </trkpt>
      <trkpt lat="45.67874" lon="0.15924">
        <ele>36.67</ele>
        <time>2021-06-29T17:32:56Z</time>
      </trkpt>
      <trkpt lat="45.67871" lon="0.15924">
        <ele>36.19</ele>
        <time>2021-06-29T17:32:57Z</time>
      </trkpt>
      <trkpt lat="45.67829" lon="0.15925">
        <ele>35.71</ele>
        <time>2021-06-29T17:33:04Z</time>
      </trkpt>
      <trkpt lat="45.67811" lon="0.15926">
        <ele>35.23</ele>
        <time>2021-06-29T17:33:08Z</time>
      </trkpt>
      <trkpt lat="45.67807" lon="0.15936">
        <ele>34.74</ele>
        <time>2021-06-29T17:33:09Z</time>
      </trkpt>
      <trkpt lat="45.67807" lon="0.15936">
        <ele>34.74</ele>
        <time>2021-06-29T17:33:10Z</time>
      </trkpt>
      <trkpt lat="45.67806" lon="0.15941">
        <ele>34.26</ele>
        <time>2021-06-29T17:33:11Z</time>
      </trkpt>
      <trkpt lat="45.67806" lon="0.15948">
        <ele>33.78</ele>
        <time>2021-06-29T17:33:12Z</time>
      </trkpt>
      <trkpt lat="45.67806" lon="0.15956">
        <ele>33.3</ele>
        <time>2021-06-29T17:33:13Z</time>
      </trkpt>
      <trkpt lat="45.67806" lon="0.15964">
        <ele>33.78</ele>
        <time>2021-06-29T17:33:14Z</time>
      </trkpt>
      <trkpt lat="45.67806" lon="0.15972">
        <ele>33.78</ele>
        <time>2021-06-29T17:33:15Z</time>
      </trkpt>
      <trkpt lat="45.67802" lon="0.15987">
        <ele>33.78</ele>
        <time>2021-06-29T17:33:16Z</time>
      </trkpt>
      <trkpt lat="45.67802" lon="0.15987">
        <ele>34.26</ele>
        <time>2021-06-29T17:33:17Z</time>
      </trkpt>
      <trkpt lat="45.67798" lon="0.16002">
        <ele>34.26</ele>
        <time>2021-06-29T17:33:19Z</time>
      </trkpt>
      <trkpt lat="45.67795" lon="0.16006">
        <ele>34.26</ele>
        <time>2021-06-29T17:33:20Z</time>
      </trkpt>
      <trkpt lat="45.67791" lon="0.1601">
        <ele>34.26</ele>
        <time>2021-06-29T17:33:21Z</time>
      </trkpt>
      <trkpt lat="45.67788" lon="0.16011">
        <ele>33.78</ele>
        <time>2021-06-29T17:33:22Z</time>
      </trkpt>
      <trkpt lat="45.67783" lon="0.16013">
        <ele>33.78</ele>
        <time>2021-06-29T17:33:23Z</time>
      </trkpt>
      <trkpt lat="45.67683" lon="0.16052">
        <ele>34.26</ele>
        <time>2021-06-29T17:33:37Z</time>
      </trkpt>
      <trkpt lat="45.67669" lon="0.16058">
        <ele>34.26</ele>
        <time>2021-06-29T17:33:41Z</time>
      </trkpt>
      <trkpt lat="45.67665" lon="0.16055">
        <ele>34.26</ele>
        <time>2021-06-29T17:33:42Z</time>
      </trkpt>
      <trkpt lat="45.67663" lon="0.16051">
        <ele>34.26</ele>
        <time>2021-06-29T17:33:43Z</time>
      </trkpt>
      <trkpt lat="45.67635" lon="0.15989">
        <ele>33.3</ele>
        <time>2021-06-29T17:33:52Z</time>
      </trkpt>
      <trkpt lat="45.67632" lon="0.15983">
        <ele>33.3</ele>
        <time>2021-06-29T17:33:53Z</time>
      </trkpt>
      <trkpt lat="45.67624" lon="0.1598">
        <ele>33.3</ele>
        <time>2021-06-29T17:33:54Z</time>
      </trkpt>
      <trkpt lat="45.67619" lon="0.15981">
        <ele>33.3</ele>
        <time>2021-06-29T17:33:55Z</time>
      </trkpt>
      <trkpt lat="45.67614" lon="0.15985">
        <ele>32.82</ele>
        <time>2021-06-29T17:33:56Z</time>
      </trkpt>
      <trkpt lat="45.6761" lon="0.15989">
        <ele>32.34</ele>
        <time>2021-06-29T17:33:57Z</time>
      </trkpt>
      <trkpt lat="45.67562" lon="0.16028">
        <ele>30.9</ele>
        <time>2021-06-29T17:34:10Z</time>
      </trkpt>
      <trkpt lat="45.67478" lon="0.16046">
        <ele>29.46</ele>
        <time>2021-06-29T17:34:29Z</time>
      </trkpt>
      <trkpt lat="45.67448" lon="0.16049">
        <ele>29.94</ele>
        <time>2021-06-29T17:34:37Z</time>
      </trkpt>
      <trkpt lat="45.67446" lon="0.1605">
        <ele>29.94</ele>
        <time>2021-06-29T17:34:38Z</time>
      </trkpt>
      <trkpt lat="45.67445" lon="0.1605">
        <ele>29.94</ele>
        <time>2021-06-29T17:34:52Z</time>
      </trkpt>
      <trkpt lat="45.67445" lon="0.1605">
        <ele>31.38</ele>
        <time>2021-06-29T17:35:10Z</time>
      </trkpt>
      <trkpt lat="45.67445" lon="0.1605">
        <ele>31.86</ele>
        <time>2021-06-29T17:36:37Z</time>
      </trkpt>
      <trkpt lat="45.67445" lon="0.1605">
        <ele>31.86</ele>
        <time>2021-06-29T17:38:33Z</time>
      </trkpt>
    </trkseg>
  </trk>
  <trk>
    <name><![CDATA[Journal actif: 2021-06-30 09:39]]></name>
    <trkseg>
      <trkpt lat="45.67449" lon="0.1605">
        <ele>31.86</ele>
        <time>2021-06-30T11:39:41Z</time>
      </trkpt>
      <trkpt lat="45.6745" lon="0.16053">
        <ele>31.38</ele>
        <time>2021-06-30T11:40:50Z</time>
      </trkpt>
      <trkpt lat="45.67452" lon="0.16048">
        <ele>30.9</ele>
        <time>2021-06-30T11:40:53Z</time>
      </trkpt>
      <trkpt lat="45.67514" lon="0.16044">
        <ele>31.86</ele>
        <time>2021-06-30T11:41:07Z</time>
      </trkpt>
      <trkpt lat="45.67588" lon="0.16011">
        <ele>34.26</ele>
        <time>2021-06-30T11:41:22Z</time>
      </trkpt>
      <trkpt lat="45.67616" lon="0.15983">
        <ele>35.71</ele>
        <time>2021-06-30T11:41:28Z</time>
      </trkpt>
      <trkpt lat="45.67621" lon="0.15981">
        <ele>35.71</ele>
        <time>2021-06-30T11:41:29Z</time>
      </trkpt>
      <trkpt lat="45.67629" lon="0.15981">
        <ele>35.71</ele>
        <time>2021-06-30T11:41:30Z</time>
      </trkpt>
      <trkpt lat="45.67629" lon="0.15981">
        <ele>35.71</ele>
        <time>2021-06-30T11:41:31Z</time>
      </trkpt>
      <trkpt lat="45.67632" lon="0.15984">
        <ele>35.71</ele>
        <time>2021-06-30T11:41:32Z</time>
      </trkpt>
      <trkpt lat="45.67635" lon="0.15988">
        <ele>35.71</ele>
        <time>2021-06-30T11:41:33Z</time>
      </trkpt>
      <trkpt lat="45.67665" lon="0.16055">
        <ele>37.15</ele>
        <time>2021-06-30T11:41:45Z</time>
      </trkpt>
      <trkpt lat="45.67667" lon="0.16059">
        <ele>37.15</ele>
        <time>2021-06-30T11:41:46Z</time>
      </trkpt>
      <trkpt lat="45.67674" lon="0.16056">
        <ele>37.15</ele>
        <time>2021-06-30T11:41:47Z</time>
      </trkpt>
      <trkpt lat="45.67674" lon="0.16056">
        <ele>37.15</ele>
        <time>2021-06-30T11:41:48Z</time>
      </trkpt>
      <trkpt lat="45.67678" lon="0.16054">
        <ele>37.15</ele>
        <time>2021-06-30T11:41:49Z</time>
      </trkpt>
      <trkpt lat="45.67682" lon="0.16052">
        <ele>37.15</ele>
        <time>2021-06-30T11:41:50Z</time>
      </trkpt>
      <trkpt lat="45.67687" lon="0.1605">
        <ele>37.63</ele>
        <time>2021-06-30T11:41:51Z</time>
      </trkpt>
      <trkpt lat="45.67784" lon="0.16013">
        <ele>38.59</ele>
        <time>2021-06-30T11:42:06Z</time>
      </trkpt>
      <trkpt lat="45.67788" lon="0.16011">
        <ele>38.59</ele>
        <time>2021-06-30T11:42:08Z</time>
      </trkpt>
      <trkpt lat="45.67791" lon="0.1601">
        <ele>38.59</ele>
        <time>2021-06-30T11:42:09Z</time>
      </trkpt>
      <trkpt lat="45.67795" lon="0.16006">
        <ele>38.59</ele>
        <time>2021-06-30T11:42:10Z</time>
      </trkpt>
      <trkpt lat="45.678" lon="0.15996">
        <ele>38.59</ele>
        <time>2021-06-30T11:42:11Z</time>
      </trkpt>
      <trkpt lat="45.678" lon="0.15996">
        <ele>38.59</ele>
        <time>2021-06-30T11:42:12Z</time>
      </trkpt>
      <trkpt lat="45.67801" lon="0.15989">
        <ele>38.59</ele>
        <time>2021-06-30T11:42:13Z</time>
      </trkpt>
      <trkpt lat="45.67805" lon="0.15976">
        <ele>38.11</ele>
        <time>2021-06-30T11:42:15Z</time>
      </trkpt>
      <trkpt lat="45.67806" lon="0.1597">
        <ele>38.11</ele>
        <time>2021-06-30T11:42:16Z</time>
      </trkpt>
      <trkpt lat="45.67806" lon="0.15964">
        <ele>37.63</ele>
        <time>2021-06-30T11:42:17Z</time>
      </trkpt>
      <trkpt lat="45.6781" lon="0.15927">
        <ele>36.67</ele>
        <time>2021-06-30T11:42:24Z</time>
      </trkpt>
      <trkpt lat="45.6781" lon="0.15927">
        <ele>37.15</ele>
        <time>2021-06-30T11:42:25Z</time>
      </trkpt>
      <trkpt lat="45.67811" lon="0.15926">
        <ele>37.15</ele>
        <time>2021-06-30T11:42:26Z</time>
      </trkpt>
      <trkpt lat="45.67862" lon="0.15924">
        <ele>39.07</ele>
        <time>2021-06-30T11:42:38Z</time>
      </trkpt>
      <trkpt lat="45.67873" lon="0.15924">
        <ele>40.99</ele>
        <time>2021-06-30T11:42:48Z</time>
      </trkpt>
      <trkpt lat="45.67877" lon="0.15924">
        <ele>40.99</ele>
        <time>2021-06-30T11:43:04Z</time>
      </trkpt>
      <trkpt lat="45.67877" lon="0.15918">
        <ele>40.99</ele>
        <time>2021-06-30T11:43:05Z</time>
      </trkpt>
      <trkpt lat="45.67877" lon="0.15918">
        <ele>40.99</ele>
        <time>2021-06-30T11:43:06Z</time>
      </trkpt>
      <trkpt lat="45.67877" lon="0.15915">
        <ele>40.51</ele>
        <time>2021-06-30T11:43:07Z</time>
      </trkpt>
      <trkpt lat="45.67877" lon="0.15911">
        <ele>40.51</ele>
        <time>2021-06-30T11:43:08Z</time>
      </trkpt>
      <trkpt lat="45.67873" lon="0.15806">
        <ele>37.63</ele>
        <time>2021-06-30T11:43:27Z</time>
      </trkpt>
      <trkpt lat="45.67876" lon="0.15699">
        <ele>35.71</ele>
        <time>2021-06-30T11:43:48Z</time>
      </trkpt>
      <trkpt lat="45.67866" lon="0.15682">
        <ele>34.26</ele>
        <time>2021-06-30T11:43:52Z</time>
      </trkpt>
      <trkpt lat="45.67865" lon="0.15676">
        <ele>34.26</ele>
        <time>2021-06-30T11:43:53Z</time>
      </trkpt>
      <trkpt lat="45.67858" lon="0.15558">
        <ele>28.5</ele>
        <time>2021-06-30T11:44:08Z</time>
      </trkpt>
      <trkpt lat="45.67853" lon="0.15464">
        <ele>29.46</ele>
        <time>2021-06-30T11:44:19Z</time>
      </trkpt>
      <trkpt lat="45.67846" lon="0.15305">
        <ele>28.98</ele>
        <time>2021-06-30T11:44:32Z</time>
      </trkpt>
      <trkpt lat="45.67831" lon="0.1504">
        <ele>28.98</ele>
        <time>2021-06-30T11:44:50Z</time>
      </trkpt>
      <trkpt lat="45.67826" lon="0.1496">
        <ele>29.46</ele>
        <time>2021-06-30T11:44:58Z</time>
      </trkpt>
      <trkpt lat="45.67826" lon="0.14953">
        <ele>29.46</ele>
        <time>2021-06-30T11:44:59Z</time>
      </trkpt>
      <trkpt lat="45.67826" lon="0.14947">
        <ele>29.46</ele>
        <time>2021-06-30T11:45:00Z</time>
      </trkpt>
      <trkpt lat="45.67838" lon="0.14932">
        <ele>29.94</ele>
        <time>2021-06-30T11:45:02Z</time>
      </trkpt>
      <trkpt lat="45.67839" lon="0.14925">
        <ele>29.94</ele>
        <time>2021-06-30T11:45:03Z</time>
      </trkpt>
      <trkpt lat="45.67839" lon="0.14913">
        <ele>29.94</ele>
        <time>2021-06-30T11:45:04Z</time>
      </trkpt>
      <trkpt lat="45.67834" lon="0.14902">
        <ele>29.94</ele>
        <time>2021-06-30T11:45:05Z</time>
      </trkpt>
      <trkpt lat="45.67834" lon="0.14902">
        <ele>29.94</ele>
        <time>2021-06-30T11:45:06Z</time>
      </trkpt>
      <trkpt lat="45.67834" lon="0.14902">
        <ele>29.94</ele>
        <time>2021-06-30T11:45:07Z</time>
      </trkpt>
      <trkpt lat="45.67821" lon="0.14883">
        <ele>30.42</ele>
        <time>2021-06-30T11:45:08Z</time>
      </trkpt>
      <trkpt lat="45.6782" lon="0.14871">
        <ele>29.94</ele>
        <time>2021-06-30T11:45:09Z</time>
      </trkpt>
      <trkpt lat="45.67819" lon="0.14847">
        <ele>29.46</ele>
        <time>2021-06-30T11:45:10Z</time>
      </trkpt>
      <trkpt lat="45.67818" lon="0.14833">
        <ele>29.46</ele>
        <time>2021-06-30T11:45:11Z</time>
      </trkpt>
      <trkpt lat="45.67811" lon="0.14683">
        <ele>28.98</ele>
        <time>2021-06-30T11:45:21Z</time>
      </trkpt>
      <trkpt lat="45.67798" lon="0.14474">
        <ele>29.94</ele>
        <time>2021-06-30T11:45:34Z</time>
      </trkpt>
      <trkpt lat="45.67795" lon="0.14454">
        <ele>30.9</ele>
        <time>2021-06-30T11:45:36Z</time>
      </trkpt>
      <trkpt lat="45.67794" lon="0.14445">
        <ele>30.42</ele>
        <time>2021-06-30T11:45:37Z</time>
      </trkpt>
      <trkpt lat="45.67798" lon="0.14436">
        <ele>30.9</ele>
        <time>2021-06-30T11:45:38Z</time>
      </trkpt>
      <trkpt lat="45.67802" lon="0.14432">
        <ele>30.9</ele>
        <time>2021-06-30T11:45:39Z</time>
      </trkpt>
      <trkpt lat="45.67807" lon="0.14422">
        <ele>30.9</ele>
        <time>2021-06-30T11:45:40Z</time>
      </trkpt>
      <trkpt lat="45.67807" lon="0.14409">
        <ele>30.9</ele>
        <time>2021-06-30T11:45:41Z</time>
      </trkpt>
      <trkpt lat="45.67805" lon="0.14402">
        <ele>31.38</ele>
        <time>2021-06-30T11:45:42Z</time>
      </trkpt>
      <trkpt lat="45.67802" lon="0.14393">
        <ele>31.86</ele>
        <time>2021-06-30T11:45:43Z</time>
      </trkpt>
      <trkpt lat="45.67795" lon="0.14388">
        <ele>32.34</ele>
        <time>2021-06-30T11:45:44Z</time>
      </trkpt>
      <trkpt lat="45.67788" lon="0.14384">
        <ele>32.34</ele>
        <time>2021-06-30T11:45:45Z</time>
      </trkpt>
      <trkpt lat="45.67781" lon="0.14367">
        <ele>32.82</ele>
        <time>2021-06-30T11:45:46Z</time>
      </trkpt>
      <trkpt lat="45.67781" lon="0.14367">
        <ele>33.3</ele>
        <time>2021-06-30T11:45:47Z</time>
      </trkpt>
      <trkpt lat="45.67776" lon="0.14358">
        <ele>33.78</ele>
        <time>2021-06-30T11:45:48Z</time>
      </trkpt>
      <trkpt lat="45.67772" lon="0.14349">
        <ele>34.26</ele>
        <time>2021-06-30T11:45:49Z</time>
      </trkpt>
      <trkpt lat="45.67729" lon="0.14192">
        <ele>41.47</ele>
        <time>2021-06-30T11:45:59Z</time>
      </trkpt>
      <trkpt lat="45.67682" lon="0.14019">
        <ele>50.13</ele>
        <time>2021-06-30T11:46:12Z</time>
      </trkpt>
      <trkpt lat="45.67668" lon="0.13953">
        <ele>51.57</ele>
        <time>2021-06-30T11:46:15Z</time>
      </trkpt>
      <trkpt lat="45.67667" lon="0.13938">
        <ele>52.53</ele>
        <time>2021-06-30T11:46:16Z</time>
      </trkpt>
      <trkpt lat="45.67667" lon="0.13938">
        <ele>53.01</ele>
        <time>2021-06-30T11:46:17Z</time>
      </trkpt>
      <trkpt lat="45.6767" lon="0.13907">
        <ele>54.45</ele>
        <time>2021-06-30T11:46:18Z</time>
      </trkpt>
      <trkpt lat="45.6767" lon="0.13907">
        <ele>54.93</ele>
        <time>2021-06-30T11:46:19Z</time>
      </trkpt>
      <trkpt lat="45.6767" lon="0.13893">
        <ele>54.93</ele>
        <time>2021-06-30T11:46:20Z</time>
      </trkpt>
      <trkpt lat="45.67672" lon="0.1388">
        <ele>55.89</ele>
        <time>2021-06-30T11:46:21Z</time>
      </trkpt>
      <trkpt lat="45.67684" lon="0.13841">
        <ele>56.37</ele>
        <time>2021-06-30T11:46:25Z</time>
      </trkpt>
      <trkpt lat="45.67687" lon="0.13832">
        <ele>55.89</ele>
        <time>2021-06-30T11:46:26Z</time>
      </trkpt>
      <trkpt lat="45.67689" lon="0.13824">
        <ele>56.37</ele>
        <time>2021-06-30T11:46:27Z</time>
      </trkpt>
      <trkpt lat="45.67692" lon="0.13817">
        <ele>55.89</ele>
        <time>2021-06-30T11:46:28Z</time>
      </trkpt>
      <trkpt lat="45.67696" lon="0.1381">
        <ele>55.89</ele>
        <time>2021-06-30T11:46:29Z</time>
      </trkpt>
      <trkpt lat="45.677" lon="0.13802">
        <ele>56.37</ele>
        <time>2021-06-30T11:46:30Z</time>
      </trkpt>
      <trkpt lat="45.67702" lon="0.1379">
        <ele>56.37</ele>
        <time>2021-06-30T11:46:31Z</time>
      </trkpt>
      <trkpt lat="45.677" lon="0.13781">
        <ele>56.37</ele>
        <time>2021-06-30T11:46:32Z</time>
      </trkpt>
      <trkpt lat="45.67697" lon="0.13771">
        <ele>56.37</ele>
        <time>2021-06-30T11:46:33Z</time>
      </trkpt>
      <trkpt lat="45.67695" lon="0.13761">
        <ele>56.37</ele>
        <time>2021-06-30T11:46:34Z</time>
      </trkpt>
      <trkpt lat="45.67696" lon="0.13749">
        <ele>56.37</ele>
        <time>2021-06-30T11:46:35Z</time>
      </trkpt>
      <trkpt lat="45.67697" lon="0.13738">
        <ele>56.86</ele>
        <time>2021-06-30T11:46:36Z</time>
      </trkpt>
      <trkpt lat="45.67698" lon="0.13725">
        <ele>57.34</ele>
        <time>2021-06-30T11:46:37Z</time>
      </trkpt>
      <trkpt lat="45.67699" lon="0.13712">
        <ele>56.86</ele>
        <time>2021-06-30T11:46:38Z</time>
      </trkpt>
      <trkpt lat="45.67704" lon="0.13696">
        <ele>56.86</ele>
        <time>2021-06-30T11:46:39Z</time>
      </trkpt>
      <trkpt lat="45.67709" lon="0.13681">
        <ele>56.37</ele>
        <time>2021-06-30T11:46:40Z</time>
      </trkpt>
      <trkpt lat="45.67715" lon="0.13666">
        <ele>56.37</ele>
        <time>2021-06-30T11:46:41Z</time>
      </trkpt>
      <trkpt lat="45.67807" lon="0.13535">
        <ele>58.78</ele>
        <time>2021-06-30T11:46:50Z</time>
      </trkpt>
      <trkpt lat="45.679" lon="0.13456">
        <ele>61.18</ele>
        <time>2021-06-30T11:46:59Z</time>
      </trkpt>
      <trkpt lat="45.67966" lon="0.13432">
        <ele>60.22</ele>
        <time>2021-06-30T11:47:05Z</time>
      </trkpt>
      <trkpt lat="45.67975" lon="0.13425">
        <ele>61.18</ele>
        <time>2021-06-30T11:47:06Z</time>
      </trkpt>
      <trkpt lat="45.67984" lon="0.13418">
        <ele>61.66</ele>
        <time>2021-06-30T11:47:07Z</time>
      </trkpt>
      <trkpt lat="45.67993" lon="0.13411">
        <ele>62.62</ele>
        <time>2021-06-30T11:47:08Z</time>
      </trkpt>
      <trkpt lat="45.67997" lon="0.13403">
        <ele>64.07</ele>
        <time>2021-06-30T11:47:09Z</time>
      </trkpt>
      <trkpt lat="45.68" lon="0.1339">
        <ele>64.07</ele>
        <time>2021-06-30T11:47:10Z</time>
      </trkpt>
      <trkpt lat="45.68002" lon="0.13377">
        <ele>64.55</ele>
        <time>2021-06-30T11:47:11Z</time>
      </trkpt>
      <trkpt lat="45.68005" lon="0.13366">
        <ele>65.03</ele>
        <time>2021-06-30T11:47:12Z</time>
      </trkpt>
      <trkpt lat="45.68005" lon="0.13355">
        <ele>65.03</ele>
        <time>2021-06-30T11:47:13Z</time>
      </trkpt>
      <trkpt lat="45.68004" lon="0.13344">
        <ele>65.03</ele>
        <time>2021-06-30T11:47:14Z</time>
      </trkpt>
      <trkpt lat="45.68003" lon="0.13333">
        <ele>65.03</ele>
        <time>2021-06-30T11:47:15Z</time>
      </trkpt>
      <trkpt lat="45.68" lon="0.13314">
        <ele>65.51</ele>
        <time>2021-06-30T11:47:17Z</time>
      </trkpt>
      <trkpt lat="45.68" lon="0.13306">
        <ele>65.51</ele>
        <time>2021-06-30T11:47:18Z</time>
      </trkpt>
      <trkpt lat="45.68007" lon="0.13294">
        <ele>65.99</ele>
        <time>2021-06-30T11:47:19Z</time>
      </trkpt>
      <trkpt lat="45.68007" lon="0.13294">
        <ele>66.47</ele>
        <time>2021-06-30T11:47:20Z</time>
      </trkpt>
      <trkpt lat="45.68009" lon="0.13287">
        <ele>66.47</ele>
        <time>2021-06-30T11:47:21Z</time>
      </trkpt>
      <trkpt lat="45.68007" lon="0.13273">
        <ele>66.47</ele>
        <time>2021-06-30T11:47:22Z</time>
      </trkpt>
      <trkpt lat="45.68006" lon="0.13267">
        <ele>66.95</ele>
        <time>2021-06-30T11:47:23Z</time>
      </trkpt>
      <trkpt lat="45.67997" lon="0.13262">
        <ele>66.95</ele>
        <time>2021-06-30T11:47:24Z</time>
      </trkpt>
      <trkpt lat="45.67991" lon="0.13261">
        <ele>67.43</ele>
        <time>2021-06-30T11:47:25Z</time>
      </trkpt>
      <trkpt lat="45.67987" lon="0.13261">
        <ele>67.43</ele>
        <time>2021-06-30T11:47:26Z</time>
      </trkpt>
      <trkpt lat="45.67969" lon="0.13263">
        <ele>67.43</ele>
        <time>2021-06-30T11:47:27Z</time>
      </trkpt>
      <trkpt lat="45.67969" lon="0.13263">
        <ele>67.91</ele>
        <time>2021-06-30T11:47:28Z</time>
      </trkpt>
      <trkpt lat="45.67963" lon="0.13259">
        <ele>68.39</ele>
        <time>2021-06-30T11:47:29Z</time>
      </trkpt>
      <trkpt lat="45.67957" lon="0.13254">
        <ele>68.39</ele>
        <time>2021-06-30T11:47:30Z</time>
      </trkpt>
      <trkpt lat="45.67887" lon="0.13195">
        <ele>69.35</ele>
        <time>2021-06-30T11:47:41Z</time>
      </trkpt>
      <trkpt lat="45.67882" lon="0.1319">
        <ele>68.87</ele>
        <time>2021-06-30T11:47:42Z</time>
      </trkpt>
      <trkpt lat="45.67877" lon="0.13185">
        <ele>68.87</ele>
        <time>2021-06-30T11:47:43Z</time>
      </trkpt>
      <trkpt lat="45.67876" lon="0.13166">
        <ele>69.35</ele>
        <time>2021-06-30T11:47:44Z</time>
      </trkpt>
      <trkpt lat="45.67876" lon="0.13166">
        <ele>69.35</ele>
        <time>2021-06-30T11:47:45Z</time>
      </trkpt>
      <trkpt lat="45.67872" lon="0.13145">
        <ele>68.87</ele>
        <time>2021-06-30T11:47:46Z</time>
      </trkpt>
      <trkpt lat="45.67865" lon="0.13138">
        <ele>68.87</ele>
        <time>2021-06-30T11:47:47Z</time>
      </trkpt>
      <trkpt lat="45.67865" lon="0.13138">
        <ele>68.87</ele>
        <time>2021-06-30T11:47:48Z</time>
      </trkpt>
      <trkpt lat="45.67859" lon="0.13135">
        <ele>68.87</ele>
        <time>2021-06-30T11:47:49Z</time>
      </trkpt>
      <trkpt lat="45.67852" lon="0.13133">
        <ele>68.87</ele>
        <time>2021-06-30T11:47:50Z</time>
      </trkpt>
      <trkpt lat="45.67847" lon="0.13135">
        <ele>68.87</ele>
        <time>2021-06-30T11:47:51Z</time>
      </trkpt>
      <trkpt lat="45.67841" lon="0.13137">
        <ele>68.87</ele>
        <time>2021-06-30T11:47:52Z</time>
      </trkpt>
      <trkpt lat="45.67833" lon="0.13142">
        <ele>68.87</ele>
        <time>2021-06-30T11:47:53Z</time>
      </trkpt>
      <trkpt lat="45.6783" lon="0.1315">
        <ele>68.87</ele>
        <time>2021-06-30T11:47:54Z</time>
      </trkpt>
      <trkpt lat="45.67828" lon="0.13158">
        <ele>68.87</ele>
        <time>2021-06-30T11:47:55Z</time>
      </trkpt>
      <trkpt lat="45.67829" lon="0.13169">
        <ele>68.39</ele>
        <time>2021-06-30T11:47:56Z</time>
      </trkpt>
      <trkpt lat="45.6783" lon="0.13178">
        <ele>68.39</ele>
        <time>2021-06-30T11:47:57Z</time>
      </trkpt>
      <trkpt lat="45.67834" lon="0.13186">
        <ele>68.39</ele>
        <time>2021-06-30T11:47:58Z</time>
      </trkpt>
      <trkpt lat="45.67838" lon="0.13195">
        <ele>68.39</ele>
        <time>2021-06-30T11:47:59Z</time>
      </trkpt>
      <trkpt lat="45.6784" lon="0.13206">
        <ele>67.91</ele>
        <time>2021-06-30T11:48:00Z</time>
      </trkpt>
      <trkpt lat="45.6784" lon="0.13215">
        <ele>67.43</ele>
        <time>2021-06-30T11:48:01Z</time>
      </trkpt>
      <trkpt lat="45.67843" lon="0.13238">
        <ele>66.95</ele>
        <time>2021-06-30T11:48:02Z</time>
      </trkpt>
      <trkpt lat="45.67843" lon="0.13238">
        <ele>65.99</ele>
        <time>2021-06-30T11:48:03Z</time>
      </trkpt>
      <trkpt lat="45.67807" lon="0.13408">
        <ele>57.34</ele>
        <time>2021-06-30T11:48:13Z</time>
      </trkpt>
      <trkpt lat="45.67746" lon="0.13522">
        <ele>52.05</ele>
        <time>2021-06-30T11:48:21Z</time>
      </trkpt>
      <trkpt lat="45.67556" lon="0.13805">
        <ele>47.72</ele>
        <time>2021-06-30T11:48:37Z</time>
      </trkpt>
      <trkpt lat="45.67459" lon="0.14005">
        <ele>49.65</ele>
        <time>2021-06-30T11:48:47Z</time>
      </trkpt>
      <trkpt lat="45.67433" lon="0.1405">
        <ele>49.65</ele>
        <time>2021-06-30T11:48:50Z</time>
      </trkpt>
      <trkpt lat="45.67427" lon="0.14063">
        <ele>49.16</ele>
        <time>2021-06-30T11:48:51Z</time>
      </trkpt>
      <trkpt lat="45.6742" lon="0.14074">
        <ele>48.2</ele>
        <time>2021-06-30T11:48:52Z</time>
      </trkpt>
      <trkpt lat="45.67412" lon="0.1408">
        <ele>47.72</ele>
        <time>2021-06-30T11:48:53Z</time>
      </trkpt>
      <trkpt lat="45.67403" lon="0.14087">
        <ele>47.24</ele>
        <time>2021-06-30T11:48:54Z</time>
      </trkpt>
      <trkpt lat="45.67383" lon="0.14096">
        <ele>47.72</ele>
        <time>2021-06-30T11:48:55Z</time>
      </trkpt>
      <trkpt lat="45.67373" lon="0.14099">
        <ele>48.68</ele>
        <time>2021-06-30T11:48:56Z</time>
      </trkpt>
      <trkpt lat="45.67373" lon="0.14099">
        <ele>47.72</ele>
        <time>2021-06-30T11:48:57Z</time>
      </trkpt>
      <trkpt lat="45.67352" lon="0.14095">
        <ele>47.24</ele>
        <time>2021-06-30T11:48:58Z</time>
      </trkpt>
      <trkpt lat="45.67352" lon="0.14095">
        <ele>46.28</ele>
        <time>2021-06-30T11:48:59Z</time>
      </trkpt>
      <trkpt lat="45.67331" lon="0.14089">
        <ele>45.32</ele>
        <time>2021-06-30T11:49:00Z</time>
      </trkpt>
      <trkpt lat="45.67331" lon="0.14089">
        <ele>44.84</ele>
        <time>2021-06-30T11:49:01Z</time>
      </trkpt>
      <trkpt lat="45.67321" lon="0.14081">
        <ele>44.84</ele>
        <time>2021-06-30T11:49:02Z</time>
      </trkpt>
      <trkpt lat="45.6731" lon="0.14071">
        <ele>44.36</ele>
        <time>2021-06-30T11:49:03Z</time>
      </trkpt>
      <trkpt lat="45.67299" lon="0.14061">
        <ele>44.36</ele>
        <time>2021-06-30T11:49:04Z</time>
      </trkpt>
      <trkpt lat="45.67143" lon="0.13869">
        <ele>47.72</ele>
        <time>2021-06-30T11:49:15Z</time>
      </trkpt>
      <trkpt lat="45.66889" lon="0.13552">
        <ele>46.76</ele>
        <time>2021-06-30T11:49:32Z</time>
      </trkpt>
      <trkpt lat="45.66628" lon="0.1324">
        <ele>42.92</ele>
        <time>2021-06-30T11:49:46Z</time>
      </trkpt>
      <trkpt lat="45.6623" lon="0.12785">
        <ele>34.74</ele>
        <time>2021-06-30T11:50:08Z</time>
      </trkpt>
      <trkpt lat="45.6593" lon="0.12434">
        <ele>38.59</ele>
        <time>2021-06-30T11:50:24Z</time>
      </trkpt>
      <trkpt lat="45.65612" lon="0.12084">
        <ele>52.05</ele>
        <time>2021-06-30T11:50:41Z</time>
      </trkpt>
      <trkpt lat="45.65404" lon="0.11939">
        <ele>56.86</ele>
        <time>2021-06-30T11:50:51Z</time>
      </trkpt>
      <trkpt lat="45.65177" lon="0.11861">
        <ele>57.82</ele>
        <time>2021-06-30T11:51:01Z</time>
      </trkpt>
      <trkpt lat="45.64915" lon="0.1185">
        <ele>54.93</ele>
        <time>2021-06-30T11:51:12Z</time>
      </trkpt>
      <trkpt lat="45.64578" lon="0.1185">
        <ele>52.53</ele>
        <time>2021-06-30T11:51:26Z</time>
      </trkpt>
      <trkpt lat="45.64054" lon="0.11851">
        <ele>39.55</ele>
        <time>2021-06-30T11:51:47Z</time>
      </trkpt>
      <trkpt lat="45.63731" lon="0.11814">
        <ele>40.51</ele>
        <time>2021-06-30T11:52:01Z</time>
      </trkpt>
      <trkpt lat="45.63517" lon="0.11724">
        <ele>43.4</ele>
        <time>2021-06-30T11:52:12Z</time>
      </trkpt>
      <trkpt lat="45.63233" lon="0.11527">
        <ele>49.65</ele>
        <time>2021-06-30T11:52:26Z</time>
      </trkpt>
      <trkpt lat="45.62934" lon="0.11303">
        <ele>44.84</ele>
        <time>2021-06-30T11:52:40Z</time>
      </trkpt>
      <trkpt lat="45.62459" lon="0.10932">
        <ele>43.88</ele>
        <time>2021-06-30T11:53:01Z</time>
      </trkpt>
      <trkpt lat="45.62214" lon="0.10671">
        <ele>50.61</ele>
        <time>2021-06-30T11:53:13Z</time>
      </trkpt>
      <trkpt lat="45.61884" lon="0.10253">
        <ele>65.51</ele>
        <time>2021-06-30T11:53:31Z</time>
      </trkpt>
      <trkpt lat="45.61555" lon="0.09824">
        <ele>55.89</ele>
        <time>2021-06-30T11:53:50Z</time>
      </trkpt>
      <trkpt lat="45.61379" lon="0.09512">
        <ele>53.97</ele>
        <time>2021-06-30T11:54:01Z</time>
      </trkpt>
      <trkpt lat="45.61206" lon="0.09105">
        <ele>49.16</ele>
        <time>2021-06-30T11:54:14Z</time>
      </trkpt>
      <trkpt lat="45.60993" lon="0.08537">
        <ele>41.47</ele>
        <time>2021-06-30T11:54:31Z</time>
      </trkpt>
      <trkpt lat="45.60908" lon="0.08159">
        <ele>40.03</ele>
        <time>2021-06-30T11:54:43Z</time>
      </trkpt>
      <trkpt lat="45.6082" lon="0.07873">
        <ele>53.49</ele>
        <time>2021-06-30T11:54:52Z</time>
      </trkpt>
      <trkpt lat="45.60685" lon="0.07633">
        <ele>63.58</ele>
        <time>2021-06-30T11:55:01Z</time>
      </trkpt>
      <trkpt lat="45.60521" lon="0.07458">
        <ele>69.35</ele>
        <time>2021-06-30T11:55:10Z</time>
      </trkpt>
      <trkpt lat="45.60296" lon="0.07321">
        <ele>67.91</ele>
        <time>2021-06-30T11:55:20Z</time>
      </trkpt>
      <trkpt lat="45.59974" lon="0.07146">
        <ele>62.62</ele>
        <time>2021-06-30T11:55:34Z</time>
      </trkpt>
      <trkpt lat="45.59835" lon="0.07023">
        <ele>59.74</ele>
        <time>2021-06-30T11:55:41Z</time>
      </trkpt>
      <trkpt lat="45.59671" lon="0.06761">
        <ele>55.41</ele>
        <time>2021-06-30T11:55:51Z</time>
      </trkpt>
      <trkpt lat="45.59402" lon="0.0631">
        <ele>58.3</ele>
        <time>2021-06-30T11:56:09Z</time>
      </trkpt>
      <trkpt lat="45.5914" lon="0.05853">
        <ele>50.13</ele>
        <time>2021-06-30T11:56:27Z</time>
      </trkpt>
      <trkpt lat="45.59021" lon="0.0557">
        <ele>44.36</ele>
        <time>2021-06-30T11:56:37Z</time>
      </trkpt>
      <trkpt lat="45.58797" lon="0.04923">
        <ele>37.15</ele>
        <time>2021-06-30T11:56:57Z</time>
      </trkpt>
      <trkpt lat="45.58679" lon="0.04673">
        <ele>38.11</ele>
        <time>2021-06-30T11:57:05Z</time>
      </trkpt>
      <trkpt lat="45.58532" lon="0.04487">
        <ele>38.11</ele>
        <time>2021-06-30T11:57:13Z</time>
      </trkpt>
      <trkpt lat="45.58226" lon="0.04128">
        <ele>50.61</ele>
        <time>2021-06-30T11:57:29Z</time>
      </trkpt>
      <trkpt lat="45.5793" lon="0.03778">
        <ele>62.62</ele>
        <time>2021-06-30T11:57:45Z</time>
      </trkpt>
      <trkpt lat="45.57624" lon="0.03415">
        <ele>68.39</ele>
        <time>2021-06-30T11:58:03Z</time>
      </trkpt>
      <trkpt lat="45.57328" lon="0.03064">
        <ele>65.99</ele>
        <time>2021-06-30T11:58:20Z</time>
      </trkpt>
      <trkpt lat="45.57105" lon="0.0276">
        <ele>64.07</ele>
        <time>2021-06-30T11:58:33Z</time>
      </trkpt>
      <trkpt lat="45.56835" lon="0.02274">
        <ele>67.91</ele>
        <time>2021-06-30T11:58:51Z</time>
      </trkpt>
      <trkpt lat="45.56513" lon="0.01691">
        <ele>61.18</ele>
        <time>2021-06-30T11:59:12Z</time>
      </trkpt>
      <trkpt lat="45.56232" lon="0.01181">
        <ele>58.78</ele>
        <time>2021-06-30T11:59:30Z</time>
      </trkpt>
      <trkpt lat="45.55932" lon="0.00643">
        <ele>75.6</ele>
        <time>2021-06-30T11:59:50Z</time>
      </trkpt>
      <trkpt lat="45.55682" lon="0.00188">
        <ele>86.66</ele>
        <time>2021-06-30T12:00:07Z</time>
      </trkpt>
      <trkpt lat="45.55477" lon="-0.00193">
        <ele>93.87</ele>
        <time>2021-06-30T12:00:21Z</time>
      </trkpt>
      <trkpt lat="45.55249" lon="-0.00614">
        <ele>80.89</ele>
        <time>2021-06-30T12:00:36Z</time>
      </trkpt>
      <trkpt lat="45.55149" lon="-0.00865">
        <ele>74.16</ele>
        <time>2021-06-30T12:00:44Z</time>
      </trkpt>
      <trkpt lat="45.54849" lon="-0.0164">
        <ele>55.89</ele>
        <time>2021-06-30T12:01:08Z</time>
      </trkpt>
      <trkpt lat="45.54638" lon="-0.02222">
        <ele>65.03</ele>
        <time>2021-06-30T12:01:26Z</time>
      </trkpt>
      <trkpt lat="45.54577" lon="-0.02537">
        <ele>71.76</ele>
        <time>2021-06-30T12:01:35Z</time>
      </trkpt>
      <trkpt lat="45.54556" lon="-0.02915">
        <ele>74.16</ele>
        <time>2021-06-30T12:01:45Z</time>
      </trkpt>
      <trkpt lat="45.54533" lon="-0.03426">
        <ele>74.16</ele>
        <time>2021-06-30T12:01:59Z</time>
      </trkpt>
      <trkpt lat="45.54476" lon="-0.03706">
        <ele>76.56</ele>
        <time>2021-06-30T12:02:07Z</time>
      </trkpt>
      <trkpt lat="45.54376" lon="-0.03958">
        <ele>87.62</ele>
        <time>2021-06-30T12:02:15Z</time>
      </trkpt>
      <trkpt lat="45.5423" lon="-0.04186">
        <ele>101.56</ele>
        <time>2021-06-30T12:02:24Z</time>
      </trkpt>
      <trkpt lat="45.54058" lon="-0.04347">
        <ele>112.61</ele>
        <time>2021-06-30T12:02:33Z</time>
      </trkpt>
      <trkpt lat="45.53824" lon="-0.04533">
        <ele>123.19</ele>
        <time>2021-06-30T12:02:45Z</time>
      </trkpt>
      <trkpt lat="45.53682" lon="-0.04719">
        <ele>123.67</ele>
        <time>2021-06-30T12:02:53Z</time>
      </trkpt>
      <trkpt lat="45.53508" lon="-0.05037">
        <ele>116.46</ele>
        <time>2021-06-30T12:03:04Z</time>
      </trkpt>
      <trkpt lat="45.53136" lon="-0.05727">
        <ele>96.75</ele>
        <time>2021-06-30T12:03:26Z</time>
      </trkpt>
      <trkpt lat="45.52994" lon="-0.06049">
        <ele>86.18</ele>
        <time>2021-06-30T12:03:37Z</time>
      </trkpt>
      <trkpt lat="45.52835" lon="-0.06385">
        <ele>78.97</ele>
        <time>2021-06-30T12:03:48Z</time>
      </trkpt>
      <trkpt lat="45.52672" lon="-0.06592">
        <ele>74.16</ele>
        <time>2021-06-30T12:03:56Z</time>
      </trkpt>
      <trkpt lat="45.52486" lon="-0.06839">
        <ele>63.1</ele>
        <time>2021-06-30T12:04:07Z</time>
      </trkpt>
      <trkpt lat="45.52374" lon="-0.07067">
        <ele>52.53</ele>
        <time>2021-06-30T12:04:16Z</time>
      </trkpt>
      <trkpt lat="45.52276" lon="-0.07389">
        <ele>52.05</ele>
        <time>2021-06-30T12:04:25Z</time>
      </trkpt>
      <trkpt lat="45.52234" lon="-0.07677">
        <ele>54.93</ele>
        <time>2021-06-30T12:04:34Z</time>
      </trkpt>
      <trkpt lat="45.52237" lon="-0.07979">
        <ele>50.61</ele>
        <time>2021-06-30T12:04:42Z</time>
      </trkpt>
      <trkpt lat="45.52275" lon="-0.08538">
        <ele>42.44</ele>
        <time>2021-06-30T12:04:57Z</time>
      </trkpt>
      <trkpt lat="45.52264" lon="-0.08842">
        <ele>41.47</ele>
        <time>2021-06-30T12:05:05Z</time>
      </trkpt>
      <trkpt lat="45.52173" lon="-0.09504">
        <ele>43.88</ele>
        <time>2021-06-30T12:05:23Z</time>
      </trkpt>
      <trkpt lat="45.52109" lon="-0.09814">
        <ele>42.92</ele>
        <time>2021-06-30T12:05:32Z</time>
      </trkpt>
      <trkpt lat="45.51999" lon="-0.10063">
        <ele>45.8</ele>
        <time>2021-06-30T12:05:40Z</time>
      </trkpt>
      <trkpt lat="45.51851" lon="-0.10259">
        <ele>54.45</ele>
        <time>2021-06-30T12:05:48Z</time>
      </trkpt>
      <trkpt lat="45.51419" lon="-0.10734">
        <ele>71.76</ele>
        <time>2021-06-30T12:06:09Z</time>
      </trkpt>
      <trkpt lat="45.51002" lon="-0.11192">
        <ele>82.81</ele>
        <time>2021-06-30T12:06:29Z</time>
      </trkpt>
      <trkpt lat="45.50588" lon="-0.11645">
        <ele>68.39</ele>
        <time>2021-06-30T12:06:49Z</time>
      </trkpt>
      <trkpt lat="45.50193" lon="-0.12076">
        <ele>58.78</ele>
        <time>2021-06-30T12:07:07Z</time>
      </trkpt>
      <trkpt lat="45.49847" lon="-0.12445">
        <ele>47.72</ele>
        <time>2021-06-30T12:07:25Z</time>
      </trkpt>
      <trkpt lat="45.49586" lon="-0.12668">
        <ele>50.13</ele>
        <time>2021-06-30T12:07:37Z</time>
      </trkpt>
      <trkpt lat="45.49232" lon="-0.12914">
        <ele>52.05</ele>
        <time>2021-06-30T12:07:53Z</time>
      </trkpt>
      <trkpt lat="45.49017" lon="-0.12999">
        <ele>55.41</ele>
        <time>2021-06-30T12:08:02Z</time>
      </trkpt>
      <trkpt lat="45.48705" lon="-0.13043">
        <ele>60.7</ele>
        <time>2021-06-30T12:08:14Z</time>
      </trkpt>
      <trkpt lat="45.48122" lon="-0.13106">
        <ele>72.72</ele>
        <time>2021-06-30T12:08:36Z</time>
      </trkpt>
      <trkpt lat="45.47723" lon="-0.13198">
        <ele>71.76</ele>
        <time>2021-06-30T12:08:51Z</time>
      </trkpt>
      <trkpt lat="45.47211" lon="-0.1332">
        <ele>69.83</ele>
        <time>2021-06-30T12:09:10Z</time>
      </trkpt>
      <trkpt lat="45.46799" lon="-0.13375">
        <ele>65.51</ele>
        <time>2021-06-30T12:09:26Z</time>
      </trkpt>
      <trkpt lat="45.4658" lon="-0.13463">
        <ele>64.55</ele>
        <time>2021-06-30T12:09:36Z</time>
      </trkpt>
      <trkpt lat="45.4636" lon="-0.13619">
        <ele>64.07</ele>
        <time>2021-06-30T12:09:46Z</time>
      </trkpt>
      <trkpt lat="45.46186" lon="-0.13811">
        <ele>65.51</ele>
        <time>2021-06-30T12:09:55Z</time>
      </trkpt>
      <trkpt lat="45.46011" lon="-0.14106">
        <ele>69.35</ele>
        <time>2021-06-30T12:10:05Z</time>
      </trkpt>
      <trkpt lat="45.45767" lon="-0.14543">
        <ele>73.2</ele>
        <time>2021-06-30T12:10:22Z</time>
      </trkpt>
      <trkpt lat="45.45465" lon="-0.15024">
        <ele>78</ele>
        <time>2021-06-30T12:10:39Z</time>
      </trkpt>
      <trkpt lat="45.45078" lon="-0.15645">
        <ele>87.14</ele>
        <time>2021-06-30T12:11:02Z</time>
      </trkpt>
      <trkpt lat="45.44606" lon="-0.16409">
        <ele>96.27</ele>
        <time>2021-06-30T12:11:28Z</time>
      </trkpt>
      <trkpt lat="45.44399" lon="-0.16775">
        <ele>94.35</ele>
        <time>2021-06-30T12:11:40Z</time>
      </trkpt>
      <trkpt lat="45.44229" lon="-0.17019">
        <ele>95.31</ele>
        <time>2021-06-30T12:11:49Z</time>
      </trkpt>
      <trkpt lat="45.44006" lon="-0.17224">
        <ele>93.87</ele>
        <time>2021-06-30T12:11:58Z</time>
      </trkpt>
      <trkpt lat="45.43809" lon="-0.17332">
        <ele>93.87</ele>
        <time>2021-06-30T12:12:07Z</time>
      </trkpt>
      <trkpt lat="45.43562" lon="-0.17394">
        <ele>95.79</ele>
        <time>2021-06-30T12:12:17Z</time>
      </trkpt>
      <trkpt lat="45.43326" lon="-0.17384">
        <ele>101.08</ele>
        <time>2021-06-30T12:12:26Z</time>
      </trkpt>
      <trkpt lat="45.42867" lon="-0.1729">
        <ele>97.23</ele>
        <time>2021-06-30T12:12:42Z</time>
      </trkpt>
      <trkpt lat="45.4259" lon="-0.17284">
        <ele>92.42</ele>
        <time>2021-06-30T12:12:52Z</time>
      </trkpt>
      <trkpt lat="45.42346" lon="-0.17346">
        <ele>96.27</ele>
        <time>2021-06-30T12:13:02Z</time>
      </trkpt>
      <trkpt lat="45.42089" lon="-0.17447">
        <ele>96.27</ele>
        <time>2021-06-30T12:13:12Z</time>
      </trkpt>
      <trkpt lat="45.41805" lon="-0.17531">
        <ele>90.5</ele>
        <time>2021-06-30T12:13:23Z</time>
      </trkpt>
      <trkpt lat="45.41511" lon="-0.17583">
        <ele>96.75</ele>
        <time>2021-06-30T12:13:35Z</time>
      </trkpt>
      <trkpt lat="45.41303" lon="-0.17684">
        <ele>104.44</ele>
        <time>2021-06-30T12:13:44Z</time>
      </trkpt>
      <trkpt lat="45.4108" lon="-0.17796">
        <ele>94.35</ele>
        <time>2021-06-30T12:13:56Z</time>
      </trkpt>
      <trkpt lat="45.4087" lon="-0.17847">
        <ele>90.98</ele>
        <time>2021-06-30T12:14:05Z</time>
      </trkpt>
      <trkpt lat="45.40597" lon="-0.17844">
        <ele>100.11</ele>
        <time>2021-06-30T12:14:16Z</time>
      </trkpt>
      <trkpt lat="45.40324" lon="-0.17857">
        <ele>104.92</ele>
        <time>2021-06-30T12:14:27Z</time>
      </trkpt>
      <trkpt lat="45.3979" lon="-0.17905">
        <ele>100.11</ele>
        <time>2021-06-30T12:14:47Z</time>
      </trkpt>
      <trkpt lat="45.39348" lon="-0.17939">
        <ele>114.05</ele>
        <time>2021-06-30T12:15:05Z</time>
      </trkpt>
      <trkpt lat="45.38839" lon="-0.17968">
        <ele>129.92</ele>
        <time>2021-06-30T12:15:25Z</time>
      </trkpt>
      <trkpt lat="45.38585" lon="-0.18021">
        <ele>133.28</ele>
        <time>2021-06-30T12:15:35Z</time>
      </trkpt>
      <trkpt lat="45.38304" lon="-0.1814">
        <ele>131.84</ele>
        <time>2021-06-30T12:15:46Z</time>
      </trkpt>
      <trkpt lat="45.38051" lon="-0.18195">
        <ele>122.22</ele>
        <time>2021-06-30T12:15:56Z</time>
      </trkpt>
      <trkpt lat="45.37817" lon="-0.18182">
        <ele>120.78</ele>
        <time>2021-06-30T12:16:06Z</time>
      </trkpt>
      <trkpt lat="45.37482" lon="-0.1811">
        <ele>118.86</ele>
        <time>2021-06-30T12:16:19Z</time>
      </trkpt>
      <trkpt lat="45.37246" lon="-0.18111">
        <ele>117.9</ele>
        <time>2021-06-30T12:16:28Z</time>
      </trkpt>
      <trkpt lat="45.36991" lon="-0.18194">
        <ele>120.3</ele>
        <time>2021-06-30T12:16:38Z</time>
      </trkpt>
      <trkpt lat="45.36776" lon="-0.18334">
        <ele>121.26</ele>
        <time>2021-06-30T12:16:47Z</time>
      </trkpt>
      <trkpt lat="45.36566" lon="-0.18557">
        <ele>126.07</ele>
        <time>2021-06-30T12:16:57Z</time>
      </trkpt>
      <trkpt lat="45.36261" lon="-0.1892">
        <ele>118.86</ele>
        <time>2021-06-30T12:17:12Z</time>
      </trkpt>
      <trkpt lat="45.3603" lon="-0.19195">
        <ele>108.29</ele>
        <time>2021-06-30T12:17:24Z</time>
      </trkpt>
      <trkpt lat="45.35769" lon="-0.19478">
        <ele>100.11</ele>
        <time>2021-06-30T12:17:38Z</time>
      </trkpt>
      <trkpt lat="45.35437" lon="-0.1976">
        <ele>110.21</ele>
        <time>2021-06-30T12:17:53Z</time>
      </trkpt>
      <trkpt lat="45.35099" lon="-0.20036">
        <ele>119.82</ele>
        <time>2021-06-30T12:18:11Z</time>
      </trkpt>
      <trkpt lat="45.34909" lon="-0.20264">
        <ele>122.22</ele>
        <time>2021-06-30T12:18:22Z</time>
      </trkpt>
      <trkpt lat="45.34754" lon="-0.20482">
        <ele>122.22</ele>
        <time>2021-06-30T12:18:32Z</time>
      </trkpt>
      <trkpt lat="45.34526" lon="-0.20812">
        <ele>121.26</ele>
        <time>2021-06-30T12:18:45Z</time>
      </trkpt>
      <trkpt lat="45.34273" lon="-0.21182">
        <ele>123.67</ele>
        <time>2021-06-30T12:18:59Z</time>
      </trkpt>
      <trkpt lat="45.33987" lon="-0.21601">
        <ele>127.99</ele>
        <time>2021-06-30T12:19:15Z</time>
      </trkpt>
      <trkpt lat="45.33842" lon="-0.21813">
        <ele>125.11</ele>
        <time>2021-06-30T12:19:24Z</time>
      </trkpt>
      <trkpt lat="45.33729" lon="-0.21967">
        <ele>123.67</ele>
        <time>2021-06-30T12:19:33Z</time>
      </trkpt>
      <trkpt lat="45.33582" lon="-0.22122">
        <ele>125.11</ele>
        <time>2021-06-30T12:19:44Z</time>
      </trkpt>
      <trkpt lat="45.33444" lon="-0.22234">
        <ele>121.74</ele>
        <time>2021-06-30T12:19:56Z</time>
      </trkpt>
      <trkpt lat="45.33269" lon="-0.22341">
        <ele>120.3</ele>
        <time>2021-06-30T12:20:12Z</time>
      </trkpt>
      <trkpt lat="45.33204" lon="-0.22379">
        <ele>117.9</ele>
        <time>2021-06-30T12:20:19Z</time>
      </trkpt>
      <trkpt lat="45.33166" lon="-0.22402">
        <ele>120.3</ele>
        <time>2021-06-30T12:20:31Z</time>
      </trkpt>
      <trkpt lat="45.33103" lon="-0.22439">
        <ele>123.67</ele>
        <time>2021-06-30T12:20:45Z</time>
      </trkpt>
      <trkpt lat="45.32996" lon="-0.22503">
        <ele>125.11</ele>
        <time>2021-06-30T12:21:01Z</time>
      </trkpt>
      <trkpt lat="45.32925" lon="-0.22544">
        <ele>127.51</ele>
        <time>2021-06-30T12:21:10Z</time>
      </trkpt>
      <trkpt lat="45.32754" lon="-0.22647">
        <ele>130.88</ele>
        <time>2021-06-30T12:21:23Z</time>
      </trkpt>
      <trkpt lat="45.32454" lon="-0.22812">
        <ele>133.28</ele>
        <time>2021-06-30T12:21:42Z</time>
      </trkpt>
      <trkpt lat="45.32209" lon="-0.2289">
        <ele>127.51</ele>
        <time>2021-06-30T12:21:56Z</time>
      </trkpt>
      <trkpt lat="45.31799" lon="-0.22993">
        <ele>116.46</ele>
        <time>2021-06-30T12:22:18Z</time>
      </trkpt>
      <trkpt lat="45.31473" lon="-0.2311">
        <ele>110.21</ele>
        <time>2021-06-30T12:22:35Z</time>
      </trkpt>
      <trkpt lat="45.31172" lon="-0.23292">
        <ele>116.46</ele>
        <time>2021-06-30T12:22:51Z</time>
      </trkpt>
      <trkpt lat="45.30932" lon="-0.23449">
        <ele>115.01</ele>
        <time>2021-06-30T12:23:04Z</time>
      </trkpt>
      <trkpt lat="45.3069" lon="-0.23607">
        <ele>101.08</ele>
        <time>2021-06-30T12:23:19Z</time>
      </trkpt>
      <trkpt lat="45.30424" lon="-0.2377">
        <ele>94.35</ele>
        <time>2021-06-30T12:23:34Z</time>
      </trkpt>
      <trkpt lat="45.30192" lon="-0.23871">
        <ele>94.83</ele>
        <time>2021-06-30T12:23:46Z</time>
      </trkpt>
      <trkpt lat="45.29931" lon="-0.23935">
        <ele>102.04</ele>
        <time>2021-06-30T12:23:59Z</time>
      </trkpt>
      <trkpt lat="45.2957" lon="-0.24023">
        <ele>104.92</ele>
        <time>2021-06-30T12:24:18Z</time>
      </trkpt>
      <trkpt lat="45.29259" lon="-0.24095">
        <ele>101.08</ele>
        <time>2021-06-30T12:24:35Z</time>
      </trkpt>
      <trkpt lat="45.29081" lon="-0.24123">
        <ele>100.11</ele>
        <time>2021-06-30T12:24:46Z</time>
      </trkpt>
      <trkpt lat="45.28673" lon="-0.2419">
        <ele>98.19</ele>
        <time>2021-06-30T12:25:08Z</time>
      </trkpt>
      <trkpt lat="45.28464" lon="-0.24229">
        <ele>102.04</ele>
        <time>2021-06-30T12:25:19Z</time>
      </trkpt>
      <trkpt lat="45.28381" lon="-0.24254">
        <ele>104.44</ele>
        <time>2021-06-30T12:25:27Z</time>
      </trkpt>
      <trkpt lat="45.28225" lon="-0.24301">
        <ele>106.36</ele>
        <time>2021-06-30T12:25:36Z</time>
      </trkpt>
      <trkpt lat="45.27984" lon="-0.24374">
        <ele>110.21</ele>
        <time>2021-06-30T12:25:47Z</time>
      </trkpt>
      <trkpt lat="45.2764" lon="-0.24484">
        <ele>115.01</ele>
        <time>2021-06-30T12:26:01Z</time>
      </trkpt>
      <trkpt lat="45.27193" lon="-0.24623">
        <ele>115.98</ele>
        <time>2021-06-30T12:26:18Z</time>
      </trkpt>
      <trkpt lat="45.26708" lon="-0.24776">
        <ele>121.26</ele>
        <time>2021-06-30T12:26:36Z</time>
      </trkpt>
      <trkpt lat="45.2642" lon="-0.24896">
        <ele>124.63</ele>
        <time>2021-06-30T12:26:47Z</time>
      </trkpt>
      <trkpt lat="45.262" lon="-0.25071">
        <ele>125.59</ele>
        <time>2021-06-30T12:26:56Z</time>
      </trkpt>
      <trkpt lat="45.26035" lon="-0.25271">
        <ele>123.67</ele>
        <time>2021-06-30T12:27:04Z</time>
      </trkpt>
      <trkpt lat="45.25833" lon="-0.25605">
        <ele>106.84</ele>
        <time>2021-06-30T12:27:15Z</time>
      </trkpt>
      <trkpt lat="45.25657" lon="-0.2586">
        <ele>95.31</ele>
        <time>2021-06-30T12:27:24Z</time>
      </trkpt>
      <trkpt lat="45.25476" lon="-0.26014">
        <ele>90.02</ele>
        <time>2021-06-30T12:27:32Z</time>
      </trkpt>
      <trkpt lat="45.25126" lon="-0.26289">
        <ele>89.54</ele>
        <time>2021-06-30T12:27:47Z</time>
      </trkpt>
      <trkpt lat="45.24916" lon="-0.26522">
        <ele>89.54</ele>
        <time>2021-06-30T12:27:57Z</time>
      </trkpt>
      <trkpt lat="45.24689" lon="-0.2675">
        <ele>97.23</ele>
        <time>2021-06-30T12:28:07Z</time>
      </trkpt>
      <trkpt lat="45.24373" lon="-0.27042">
        <ele>116.94</ele>
        <time>2021-06-30T12:28:21Z</time>
      </trkpt>
      <trkpt lat="45.24003" lon="-0.27379">
        <ele>123.67</ele>
        <time>2021-06-30T12:28:38Z</time>
      </trkpt>
      <trkpt lat="45.23733" lon="-0.27594">
        <ele>115.98</ele>
        <time>2021-06-30T12:28:50Z</time>
      </trkpt>
      <trkpt lat="45.23457" lon="-0.27726">
        <ele>111.17</ele>
        <time>2021-06-30T12:29:01Z</time>
      </trkpt>
      <trkpt lat="45.23211" lon="-0.27876">
        <ele>111.17</ele>
        <time>2021-06-30T12:29:11Z</time>
      </trkpt>
      <trkpt lat="45.2288" lon="-0.28158">
        <ele>105.4</ele>
        <time>2021-06-30T12:29:25Z</time>
      </trkpt>
      <trkpt lat="45.22395" lon="-0.28544">
        <ele>84.73</ele>
        <time>2021-06-30T12:29:45Z</time>
      </trkpt>
      <trkpt lat="45.21989" lon="-0.28866">
        <ele>70.79</ele>
        <time>2021-06-30T12:30:01Z</time>
      </trkpt>
      <trkpt lat="45.2155" lon="-0.29212">
        <ele>60.22</ele>
        <time>2021-06-30T12:30:20Z</time>
      </trkpt>
      <trkpt lat="45.2117" lon="-0.29515">
        <ele>59.74</ele>
        <time>2021-06-30T12:30:36Z</time>
      </trkpt>
      <trkpt lat="45.20717" lon="-0.29878">
        <ele>58.78</ele>
        <time>2021-06-30T12:30:56Z</time>
      </trkpt>
      <trkpt lat="45.20366" lon="-0.30143">
        <ele>59.26</ele>
        <time>2021-06-30T12:31:11Z</time>
      </trkpt>
      <trkpt lat="45.20025" lon="-0.30411">
        <ele>57.34</ele>
        <time>2021-06-30T12:31:26Z</time>
      </trkpt>
      <trkpt lat="45.19754" lon="-0.30654">
        <ele>56.86</ele>
        <time>2021-06-30T12:31:38Z</time>
      </trkpt>
      <trkpt lat="45.19395" lon="-0.31042">
        <ele>58.3</ele>
        <time>2021-06-30T12:31:55Z</time>
      </trkpt>
      <trkpt lat="45.19045" lon="-0.31413">
        <ele>59.26</ele>
        <time>2021-06-30T12:32:12Z</time>
      </trkpt>
      <trkpt lat="45.18771" lon="-0.31701">
        <ele>56.37</ele>
        <time>2021-06-30T12:32:25Z</time>
      </trkpt>
      <trkpt lat="45.18433" lon="-0.32053">
        <ele>55.41</ele>
        <time>2021-06-30T12:32:41Z</time>
      </trkpt>
      <trkpt lat="45.18033" lon="-0.32471">
        <ele>54.93</ele>
        <time>2021-06-30T12:33:00Z</time>
      </trkpt>
      <trkpt lat="45.17658" lon="-0.32868">
        <ele>48.2</ele>
        <time>2021-06-30T12:33:18Z</time>
      </trkpt>
      <trkpt lat="45.17239" lon="-0.33309">
        <ele>50.13</ele>
        <time>2021-06-30T12:33:38Z</time>
      </trkpt>
      <trkpt lat="45.1681" lon="-0.33758">
        <ele>45.32</ele>
        <time>2021-06-30T12:33:58Z</time>
      </trkpt>
      <trkpt lat="45.1647" lon="-0.34115">
        <ele>43.4</ele>
        <time>2021-06-30T12:34:13Z</time>
      </trkpt>
      <trkpt lat="45.16221" lon="-0.34412">
        <ele>40.99</ele>
        <time>2021-06-30T12:34:25Z</time>
      </trkpt>
      <trkpt lat="45.16085" lon="-0.34638">
        <ele>47.72</ele>
        <time>2021-06-30T12:34:34Z</time>
      </trkpt>
      <trkpt lat="45.15782" lon="-0.3518">
        <ele>50.13</ele>
        <time>2021-06-30T12:34:52Z</time>
      </trkpt>
      <trkpt lat="45.15456" lon="-0.35761">
        <ele>57.82</ele>
        <time>2021-06-30T12:35:12Z</time>
      </trkpt>
      <trkpt lat="45.15303" lon="-0.35975">
        <ele>55.89</ele>
        <time>2021-06-30T12:35:21Z</time>
      </trkpt>
      <trkpt lat="45.15132" lon="-0.36144">
        <ele>53.01</ele>
        <time>2021-06-30T12:35:29Z</time>
      </trkpt>
      <trkpt lat="45.14891" lon="-0.36289">
        <ele>51.57</ele>
        <time>2021-06-30T12:35:39Z</time>
      </trkpt>
      <trkpt lat="45.14376" lon="-0.36566">
        <ele>57.34</ele>
        <time>2021-06-30T12:35:59Z</time>
      </trkpt>
      <trkpt lat="45.13849" lon="-0.36842">
        <ele>60.7</ele>
        <time>2021-06-30T12:36:21Z</time>
      </trkpt>
      <trkpt lat="45.13464" lon="-0.37046">
        <ele>52.05</ele>
        <time>2021-06-30T12:36:36Z</time>
      </trkpt>
      <trkpt lat="45.12938" lon="-0.37321">
        <ele>45.8</ele>
        <time>2021-06-30T12:36:55Z</time>
      </trkpt>
      <trkpt lat="45.12619" lon="-0.37465">
        <ele>40.99</ele>
        <time>2021-06-30T12:37:07Z</time>
      </trkpt>
      <trkpt lat="45.12289" lon="-0.37527">
        <ele>35.23</ele>
        <time>2021-06-30T12:37:20Z</time>
      </trkpt>
      <trkpt lat="45.1174" lon="-0.37624">
        <ele>29.46</ele>
        <time>2021-06-30T12:37:40Z</time>
      </trkpt>
      <trkpt lat="45.11403" lon="-0.37704">
        <ele>30.42</ele>
        <time>2021-06-30T12:37:52Z</time>
      </trkpt>
      <trkpt lat="45.1106" lon="-0.37878">
        <ele>32.34</ele>
        <time>2021-06-30T12:38:04Z</time>
      </trkpt>
      <trkpt lat="45.10693" lon="-0.38042">
        <ele>41.47</ele>
        <time>2021-06-30T12:38:19Z</time>
      </trkpt>
      <trkpt lat="45.10431" lon="-0.38078">
        <ele>47.72</ele>
        <time>2021-06-30T12:38:29Z</time>
      </trkpt>
      <trkpt lat="45.09917" lon="-0.38085">
        <ele>50.13</ele>
        <time>2021-06-30T12:38:48Z</time>
      </trkpt>
      <trkpt lat="45.09348" lon="-0.38106">
        <ele>61.66</ele>
        <time>2021-06-30T12:39:09Z</time>
      </trkpt>
      <trkpt lat="45.0902" lon="-0.38204">
        <ele>57.82</ele>
        <time>2021-06-30T12:39:20Z</time>
      </trkpt>
      <trkpt lat="45.08564" lon="-0.3836">
        <ele>61.18</ele>
        <time>2021-06-30T12:39:38Z</time>
      </trkpt>
      <trkpt lat="45.07988" lon="-0.38542">
        <ele>53.97</ele>
        <time>2021-06-30T12:39:59Z</time>
      </trkpt>
      <trkpt lat="45.07469" lon="-0.38714">
        <ele>54.45</ele>
        <time>2021-06-30T12:40:18Z</time>
      </trkpt>
      <trkpt lat="45.07271" lon="-0.38813">
        <ele>53.97</ele>
        <time>2021-06-30T12:40:26Z</time>
      </trkpt>
      <trkpt lat="45.06925" lon="-0.3908">
        <ele>53.97</ele>
        <time>2021-06-30T12:40:41Z</time>
      </trkpt>
      <trkpt lat="45.06474" lon="-0.39431">
        <ele>46.76</ele>
        <time>2021-06-30T12:41:01Z</time>
      </trkpt>
      <trkpt lat="45.06188" lon="-0.39673">
        <ele>45.32</ele>
        <time>2021-06-30T12:41:14Z</time>
      </trkpt>
      <trkpt lat="45.06023" lon="-0.39904">
        <ele>43.4</ele>
        <time>2021-06-30T12:41:23Z</time>
      </trkpt>
      <trkpt lat="45.05788" lon="-0.40234">
        <ele>39.55</ele>
        <time>2021-06-30T12:41:36Z</time>
      </trkpt>
      <trkpt lat="45.05623" lon="-0.40379">
        <ele>40.99</ele>
        <time>2021-06-30T12:41:44Z</time>
      </trkpt>
      <trkpt lat="45.05278" lon="-0.40616">
        <ele>43.4</ele>
        <time>2021-06-30T12:41:59Z</time>
      </trkpt>
      <trkpt lat="45.04807" lon="-0.40934">
        <ele>46.76</ele>
        <time>2021-06-30T12:42:18Z</time>
      </trkpt>
      <trkpt lat="45.04537" lon="-0.41093">
        <ele>47.24</ele>
        <time>2021-06-30T12:42:30Z</time>
      </trkpt>
      <trkpt lat="45.04254" lon="-0.41187">
        <ele>42.44</ele>
        <time>2021-06-30T12:42:41Z</time>
      </trkpt>
      <trkpt lat="45.03989" lon="-0.41341">
        <ele>40.99</ele>
        <time>2021-06-30T12:42:51Z</time>
      </trkpt>
      <trkpt lat="45.0379" lon="-0.41532">
        <ele>39.07</ele>
        <time>2021-06-30T12:43:00Z</time>
      </trkpt>
      <trkpt lat="45.03508" lon="-0.41809">
        <ele>43.4</ele>
        <time>2021-06-30T12:43:14Z</time>
      </trkpt>
      <trkpt lat="45.03319" lon="-0.41918">
        <ele>45.32</ele>
        <time>2021-06-30T12:43:22Z</time>
      </trkpt>
      <trkpt lat="45.02906" lon="-0.42147">
        <ele>46.28</ele>
        <time>2021-06-30T12:43:40Z</time>
      </trkpt>
      <trkpt lat="45.02639" lon="-0.42304">
        <ele>42.44</ele>
        <time>2021-06-30T12:43:52Z</time>
      </trkpt>
      <trkpt lat="45.02364" lon="-0.42447">
        <ele>42.92</ele>
        <time>2021-06-30T12:44:04Z</time>
      </trkpt>
      <trkpt lat="45.01922" lon="-0.4259">
        <ele>40.03</ele>
        <time>2021-06-30T12:44:21Z</time>
      </trkpt>
      <trkpt lat="45.01662" lon="-0.42691">
        <ele>39.07</ele>
        <time>2021-06-30T12:44:33Z</time>
      </trkpt>
      <trkpt lat="45.01472" lon="-0.4283">
        <ele>44.36</ele>
        <time>2021-06-30T12:44:42Z</time>
      </trkpt>
      <trkpt lat="45.01317" lon="-0.4294">
        <ele>46.76</ele>
        <time>2021-06-30T12:44:50Z</time>
      </trkpt>
      <trkpt lat="45.01182" lon="-0.4303">
        <ele>44.36</ele>
        <time>2021-06-30T12:44:58Z</time>
      </trkpt>
      <trkpt lat="45.01146" lon="-0.43038">
        <ele>41.47</ele>
        <time>2021-06-30T12:45:00Z</time>
      </trkpt>
      <trkpt lat="45.01128" lon="-0.43036">
        <ele>39.55</ele>
        <time>2021-06-30T12:45:01Z</time>
      </trkpt>
      <trkpt lat="45.01109" lon="-0.43034">
        <ele>39.55</ele>
        <time>2021-06-30T12:45:02Z</time>
      </trkpt>
      <trkpt lat="45.01092" lon="-0.43032">
        <ele>38.11</ele>
        <time>2021-06-30T12:45:03Z</time>
      </trkpt>
      <trkpt lat="45.01074" lon="-0.43026">
        <ele>37.15</ele>
        <time>2021-06-30T12:45:04Z</time>
      </trkpt>
      <trkpt lat="45.01057" lon="-0.43017">
        <ele>35.23</ele>
        <time>2021-06-30T12:45:05Z</time>
      </trkpt>
      <trkpt lat="45.01041" lon="-0.43005">
        <ele>34.74</ele>
        <time>2021-06-30T12:45:06Z</time>
      </trkpt>
      <trkpt lat="45.01025" lon="-0.42993">
        <ele>34.74</ele>
        <time>2021-06-30T12:45:07Z</time>
      </trkpt>
      <trkpt lat="45.01009" lon="-0.42981">
        <ele>35.23</ele>
        <time>2021-06-30T12:45:08Z</time>
      </trkpt>
      <trkpt lat="45.00995" lon="-0.42967">
        <ele>35.71</ele>
        <time>2021-06-30T12:45:09Z</time>
      </trkpt>
      <trkpt lat="45.00981" lon="-0.4295">
        <ele>36.19</ele>
        <time>2021-06-30T12:45:10Z</time>
      </trkpt>
      <trkpt lat="45.00875" lon="-0.4285">
        <ele>36.67</ele>
        <time>2021-06-30T12:45:16Z</time>
      </trkpt>
      <trkpt lat="45.00875" lon="-0.4285">
        <ele>37.15</ele>
        <time>2021-06-30T12:45:17Z</time>
      </trkpt>
      <trkpt lat="45.0068" lon="-0.42783">
        <ele>42.92</ele>
        <time>2021-06-30T12:45:27Z</time>
      </trkpt>
      <trkpt lat="45.00404" lon="-0.42735">
        <ele>45.8</ele>
        <time>2021-06-30T12:45:39Z</time>
      </trkpt>
      <trkpt lat="45.00069" lon="-0.42701">
        <ele>42.92</ele>
        <time>2021-06-30T12:45:52Z</time>
      </trkpt>
      <trkpt lat="44.99591" lon="-0.42698">
        <ele>33.78</ele>
        <time>2021-06-30T12:46:10Z</time>
      </trkpt>
      <trkpt lat="44.99053" lon="-0.42718">
        <ele>28.5</ele>
        <time>2021-06-30T12:46:30Z</time>
      </trkpt>
      <trkpt lat="44.98674" lon="-0.4276">
        <ele>24.65</ele>
        <time>2021-06-30T12:46:44Z</time>
      </trkpt>
      <trkpt lat="44.98279" lon="-0.42884">
        <ele>22.73</ele>
        <time>2021-06-30T12:46:59Z</time>
      </trkpt>
      <trkpt lat="44.97933" lon="-0.4307">
        <ele>22.25</ele>
        <time>2021-06-30T12:47:13Z</time>
      </trkpt>
      <trkpt lat="44.9758" lon="-0.43316">
        <ele>19.84</ele>
        <time>2021-06-30T12:47:28Z</time>
      </trkpt>
      <trkpt lat="44.97305" lon="-0.43462">
        <ele>20.32</ele>
        <time>2021-06-30T12:47:39Z</time>
      </trkpt>
      <trkpt lat="44.96968" lon="-0.43625">
        <ele>9.75</ele>
        <time>2021-06-30T12:47:52Z</time>
      </trkpt>
      <trkpt lat="44.96719" lon="-0.43815">
        <ele>2.06</ele>
        <time>2021-06-30T12:48:02Z</time>
      </trkpt>
      <trkpt lat="44.9633" lon="-0.44191">
        <ele>0.62</ele>
        <time>2021-06-30T12:48:19Z</time>
      </trkpt>
      <trkpt lat="44.95959" lon="-0.44602">
        <ele>-0.82</ele>
        <time>2021-06-30T12:48:35Z</time>
      </trkpt>
      <trkpt lat="44.95777" lon="-0.44898">
        <ele>1.1</ele>
        <time>2021-06-30T12:48:46Z</time>
      </trkpt>
      <trkpt lat="44.95578" lon="-0.45292">
        <ele>17.92</ele>
        <time>2021-06-30T12:48:59Z</time>
      </trkpt>
      <trkpt lat="44.95249" lon="-0.45954">
        <ele>12.63</ele>
        <time>2021-06-30T12:49:21Z</time>
      </trkpt>
      <trkpt lat="44.9508" lon="-0.46216">
        <ele>3.02</ele>
        <time>2021-06-30T12:49:30Z</time>
      </trkpt>
      <trkpt lat="44.94881" lon="-0.46414">
        <ele>2.54</ele>
        <time>2021-06-30T12:49:38Z</time>
      </trkpt>
      <trkpt lat="44.94677" lon="-0.46534">
        <ele>-0.34</ele>
        <time>2021-06-30T12:49:47Z</time>
      </trkpt>
      <trkpt lat="44.94405" lon="-0.46606">
        <ele>-3.71</ele>
        <time>2021-06-30T12:49:56Z</time>
      </trkpt>
      <trkpt lat="44.93916" lon="-0.46689">
        <ele>-2.75</ele>
        <time>2021-06-30T12:50:14Z</time>
      </trkpt>
      <trkpt lat="44.93571" lon="-0.46749">
        <ele>11.67</ele>
        <time>2021-06-30T12:50:28Z</time>
      </trkpt>
      <trkpt lat="44.9328" lon="-0.46812">
        <ele>18.4</ele>
        <time>2021-06-30T12:50:41Z</time>
      </trkpt>
      <trkpt lat="44.93065" lon="-0.46918">
        <ele>18.88</ele>
        <time>2021-06-30T12:50:51Z</time>
      </trkpt>
      <trkpt lat="44.92774" lon="-0.4711">
        <ele>18.4</ele>
        <time>2021-06-30T12:51:05Z</time>
      </trkpt>
      <trkpt lat="44.92303" lon="-0.47418">
        <ele>19.36</ele>
        <time>2021-06-30T12:51:26Z</time>
      </trkpt>
      <trkpt lat="44.92017" lon="-0.47578">
        <ele>11.67</ele>
        <time>2021-06-30T12:51:40Z</time>
      </trkpt>
      <trkpt lat="44.91696" lon="-0.47757">
        <ele>0.62</ele>
        <time>2021-06-30T12:51:55Z</time>
      </trkpt>
      <trkpt lat="44.91526" lon="-0.47905">
        <ele>4.94</ele>
        <time>2021-06-30T12:52:03Z</time>
      </trkpt>
      <trkpt lat="44.91367" lon="-0.48135">
        <ele>8.79</ele>
        <time>2021-06-30T12:52:12Z</time>
      </trkpt>
      <trkpt lat="44.91122" lon="-0.48624">
        <ele>13.6</ele>
        <time>2021-06-30T12:52:29Z</time>
      </trkpt>
      <trkpt lat="44.90939" lon="-0.48935">
        <ele>9.27</ele>
        <time>2021-06-30T12:52:40Z</time>
      </trkpt>
      <trkpt lat="44.90758" lon="-0.49118">
        <ele>10.71</ele>
        <time>2021-06-30T12:52:49Z</time>
      </trkpt>
      <trkpt lat="44.90528" lon="-0.49245">
        <ele>8.31</ele>
        <time>2021-06-30T12:52:58Z</time>
      </trkpt>
      <trkpt lat="44.90151" lon="-0.49399">
        <ele>9.75</ele>
        <time>2021-06-30T12:53:16Z</time>
      </trkpt>
      <trkpt lat="44.89741" lon="-0.49578">
        <ele>14.56</ele>
        <time>2021-06-30T12:53:34Z</time>
      </trkpt>
      <trkpt lat="44.89547" lon="-0.49728">
        <ele>12.15</ele>
        <time>2021-06-30T12:53:45Z</time>
      </trkpt>
      <trkpt lat="44.89292" lon="-0.50008">
        <ele>14.56</ele>
        <time>2021-06-30T12:54:00Z</time>
      </trkpt>
      <trkpt lat="44.89036" lon="-0.5029">
        <ele>15.04</ele>
        <time>2021-06-30T12:54:16Z</time>
      </trkpt>
      <trkpt lat="44.88865" lon="-0.50465">
        <ele>17.44</ele>
        <time>2021-06-30T12:54:28Z</time>
      </trkpt>
      <trkpt lat="44.88696" lon="-0.50628">
        <ele>17.92</ele>
        <time>2021-06-30T12:54:40Z</time>
      </trkpt>
      <trkpt lat="44.88585" lon="-0.508">
        <ele>20.81</ele>
        <time>2021-06-30T12:54:50Z</time>
      </trkpt>
      <trkpt lat="44.88533" lon="-0.50968">
        <ele>23.21</ele>
        <time>2021-06-30T12:54:57Z</time>
      </trkpt>
      <trkpt lat="44.88532" lon="-0.51099">
        <ele>34.26</ele>
        <time>2021-06-30T12:55:04Z</time>
      </trkpt>
      <trkpt lat="44.88535" lon="-0.51136">
        <ele>36.19</ele>
        <time>2021-06-30T12:55:06Z</time>
      </trkpt>
      <trkpt lat="44.88535" lon="-0.51154">
        <ele>36.19</ele>
        <time>2021-06-30T12:55:07Z</time>
      </trkpt>
      <trkpt lat="44.88534" lon="-0.5117">
        <ele>36.19</ele>
        <time>2021-06-30T12:55:08Z</time>
      </trkpt>
      <trkpt lat="44.88531" lon="-0.51185">
        <ele>35.71</ele>
        <time>2021-06-30T12:55:09Z</time>
      </trkpt>
      <trkpt lat="44.88527" lon="-0.512">
        <ele>36.67</ele>
        <time>2021-06-30T12:55:10Z</time>
      </trkpt>
      <trkpt lat="44.88523" lon="-0.51214">
        <ele>37.63</ele>
        <time>2021-06-30T12:55:11Z</time>
      </trkpt>
      <trkpt lat="44.88519" lon="-0.51229">
        <ele>38.59</ele>
        <time>2021-06-30T12:55:12Z</time>
      </trkpt>
      <trkpt lat="44.88514" lon="-0.51244">
        <ele>39.55</ele>
        <time>2021-06-30T12:55:13Z</time>
      </trkpt>
      <trkpt lat="44.88505" lon="-0.51256">
        <ele>40.03</ele>
        <time>2021-06-30T12:55:14Z</time>
      </trkpt>
      <trkpt lat="44.88495" lon="-0.51269">
        <ele>41.47</ele>
        <time>2021-06-30T12:55:15Z</time>
      </trkpt>
      <trkpt lat="44.88485" lon="-0.51279">
        <ele>42.44</ele>
        <time>2021-06-30T12:55:16Z</time>
      </trkpt>
      <trkpt lat="44.88475" lon="-0.51288">
        <ele>43.4</ele>
        <time>2021-06-30T12:55:17Z</time>
      </trkpt>
      <trkpt lat="44.88463" lon="-0.51294">
        <ele>42.44</ele>
        <time>2021-06-30T12:55:18Z</time>
      </trkpt>
      <trkpt lat="44.88452" lon="-0.513">
        <ele>41.95</ele>
        <time>2021-06-30T12:55:19Z</time>
      </trkpt>
      <trkpt lat="44.88439" lon="-0.51302">
        <ele>40.51</ele>
        <time>2021-06-30T12:55:20Z</time>
      </trkpt>
      <trkpt lat="44.88426" lon="-0.51304">
        <ele>39.55</ele>
        <time>2021-06-30T12:55:21Z</time>
      </trkpt>
      <trkpt lat="44.88402" lon="-0.51301">
        <ele>38.59</ele>
        <time>2021-06-30T12:55:22Z</time>
      </trkpt>
      <trkpt lat="44.88389" lon="-0.51297">
        <ele>38.59</ele>
        <time>2021-06-30T12:55:23Z</time>
      </trkpt>
      <trkpt lat="44.88377" lon="-0.51293">
        <ele>38.11</ele>
        <time>2021-06-30T12:55:24Z</time>
      </trkpt>
      <trkpt lat="44.88377" lon="-0.51293">
        <ele>37.63</ele>
        <time>2021-06-30T12:55:25Z</time>
      </trkpt>
      <trkpt lat="44.88364" lon="-0.51283">
        <ele>37.15</ele>
        <time>2021-06-30T12:55:26Z</time>
      </trkpt>
      <trkpt lat="44.88229" lon="-0.51179">
        <ele>29.46</ele>
        <time>2021-06-30T12:55:35Z</time>
      </trkpt>
      <trkpt lat="44.88017" lon="-0.51048">
        <ele>27.05</ele>
        <time>2021-06-30T12:55:47Z</time>
      </trkpt>
      <trkpt lat="44.87709" lon="-0.50881">
        <ele>34.26</ele>
        <time>2021-06-30T12:56:04Z</time>
      </trkpt>
      <trkpt lat="44.87525" lon="-0.50779">
        <ele>34.74</ele>
        <time>2021-06-30T12:56:17Z</time>
      </trkpt>
      <trkpt lat="44.87307" lon="-0.50659">
        <ele>34.74</ele>
        <time>2021-06-30T12:56:31Z</time>
      </trkpt>
      <trkpt lat="44.87097" lon="-0.50555">
        <ele>34.26</ele>
        <time>2021-06-30T12:56:42Z</time>
      </trkpt>
      <trkpt lat="44.86875" lon="-0.50472">
        <ele>34.74</ele>
        <time>2021-06-30T12:56:54Z</time>
      </trkpt>
      <trkpt lat="44.86663" lon="-0.50424">
        <ele>39.07</ele>
        <time>2021-06-30T12:57:06Z</time>
      </trkpt>
      <trkpt lat="44.8642" lon="-0.50398">
        <ele>42.44</ele>
        <time>2021-06-30T12:57:19Z</time>
      </trkpt>
      <trkpt lat="44.86123" lon="-0.50413">
        <ele>46.28</ele>
        <time>2021-06-30T12:57:33Z</time>
      </trkpt>
      <trkpt lat="44.85822" lon="-0.50479">
        <ele>49.65</ele>
        <time>2021-06-30T12:57:47Z</time>
      </trkpt>
      <trkpt lat="44.85577" lon="-0.50529">
        <ele>50.61</ele>
        <time>2021-06-30T12:57:59Z</time>
      </trkpt>
      <trkpt lat="44.85364" lon="-0.50528">
        <ele>51.09</ele>
        <time>2021-06-30T12:58:09Z</time>
      </trkpt>
      <trkpt lat="44.85161" lon="-0.50471">
        <ele>52.05</ele>
        <time>2021-06-30T12:58:19Z</time>
      </trkpt>
      <trkpt lat="44.84906" lon="-0.50369">
        <ele>55.89</ele>
        <time>2021-06-30T12:58:34Z</time>
      </trkpt>
      <trkpt lat="44.84683" lon="-0.50279">
        <ele>57.34</ele>
        <time>2021-06-30T12:58:47Z</time>
      </trkpt>
      <trkpt lat="44.84565" lon="-0.5023">
        <ele>58.3</ele>
        <time>2021-06-30T12:58:56Z</time>
      </trkpt>
      <trkpt lat="44.84356" lon="-0.50172">
        <ele>62.14</ele>
        <time>2021-06-30T12:59:10Z</time>
      </trkpt>
      <trkpt lat="44.84184" lon="-0.50169">
        <ele>64.07</ele>
        <time>2021-06-30T12:59:20Z</time>
      </trkpt>
      <trkpt lat="44.84027" lon="-0.50171">
        <ele>64.55</ele>
        <time>2021-06-30T12:59:31Z</time>
      </trkpt>
      <trkpt lat="44.83887" lon="-0.5014">
        <ele>62.14</ele>
        <time>2021-06-30T12:59:41Z</time>
      </trkpt>
      <trkpt lat="44.83762" lon="-0.50085">
        <ele>60.22</ele>
        <time>2021-06-30T12:59:51Z</time>
      </trkpt>
      <trkpt lat="44.83628" lon="-0.50024">
        <ele>53.49</ele>
        <time>2021-06-30T13:00:00Z</time>
      </trkpt>
      <trkpt lat="44.83454" lon="-0.50005">
        <ele>46.28</ele>
        <time>2021-06-30T13:00:09Z</time>
      </trkpt>
      <trkpt lat="44.83328" lon="-0.50034">
        <ele>40.03</ele>
        <time>2021-06-30T13:00:17Z</time>
      </trkpt>
      <trkpt lat="44.83276" lon="-0.50055">
        <ele>37.15</ele>
        <time>2021-06-30T13:00:24Z</time>
      </trkpt>
      <trkpt lat="44.83159" lon="-0.50109">
        <ele>30.42</ele>
        <time>2021-06-30T13:00:34Z</time>
      </trkpt>
      <trkpt lat="44.82978" lon="-0.50228">
        <ele>21.29</ele>
        <time>2021-06-30T13:00:48Z</time>
      </trkpt>
      <trkpt lat="44.82868" lon="-0.50365">
        <ele>17.44</ele>
        <time>2021-06-30T13:00:57Z</time>
      </trkpt>
      <trkpt lat="44.82794" lon="-0.5054">
        <ele>11.67</ele>
        <time>2021-06-30T13:01:06Z</time>
      </trkpt>
      <trkpt lat="44.82703" lon="-0.5078">
        <ele>10.23</ele>
        <time>2021-06-30T13:01:18Z</time>
      </trkpt>
      <trkpt lat="44.82576" lon="-0.50977">
        <ele>10.23</ele>
        <time>2021-06-30T13:01:28Z</time>
      </trkpt>
      <trkpt lat="44.82418" lon="-0.51142">
        <ele>8.31</ele>
        <time>2021-06-30T13:01:39Z</time>
      </trkpt>
      <trkpt lat="44.82279" lon="-0.51351">
        <ele>1.58</ele>
        <time>2021-06-30T13:01:49Z</time>
      </trkpt>
      <trkpt lat="44.82208" lon="-0.51515">
        <ele>-4.67</ele>
        <time>2021-06-30T13:01:58Z</time>
      </trkpt>
      <trkpt lat="44.82135" lon="-0.51751">
        <ele>-4.19</ele>
        <time>2021-06-30T13:02:08Z</time>
      </trkpt>
      <trkpt lat="44.82051" lon="-0.51901">
        <ele>-2.27</ele>
        <time>2021-06-30T13:02:18Z</time>
      </trkpt>
      <trkpt lat="44.81925" lon="-0.52021">
        <ele>-2.75</ele>
        <time>2021-06-30T13:02:28Z</time>
      </trkpt>
      <trkpt lat="44.81787" lon="-0.52084">
        <ele>-3.23</ele>
        <time>2021-06-30T13:02:38Z</time>
      </trkpt>
      <trkpt lat="44.81617" lon="-0.52088">
        <ele>-6.11</ele>
        <time>2021-06-30T13:02:49Z</time>
      </trkpt>
      <trkpt lat="44.81418" lon="-0.5208">
        <ele>-3.71</ele>
        <time>2021-06-30T13:03:03Z</time>
      </trkpt>
      <trkpt lat="44.81292" lon="-0.52119">
        <ele>-2.27</ele>
        <time>2021-06-30T13:03:14Z</time>
      </trkpt>
      <trkpt lat="44.81231" lon="-0.52154">
        <ele>-2.75</ele>
        <time>2021-06-30T13:03:22Z</time>
      </trkpt>
      <trkpt lat="44.81177" lon="-0.52191">
        <ele>-3.71</ele>
        <time>2021-06-30T13:03:34Z</time>
      </trkpt>
      <trkpt lat="44.81161" lon="-0.52204">
        <ele>-4.19</ele>
        <time>2021-06-30T13:03:46Z</time>
      </trkpt>
      <trkpt lat="44.81158" lon="-0.52207">
        <ele>-4.19</ele>
        <time>2021-06-30T13:03:48Z</time>
      </trkpt>
      <trkpt lat="44.81116" lon="-0.52248">
        <ele>-5.63</ele>
        <time>2021-06-30T13:04:00Z</time>
      </trkpt>
      <trkpt lat="44.81065" lon="-0.52308">
        <ele>-6.11</ele>
        <time>2021-06-30T13:04:13Z</time>
      </trkpt>
      <trkpt lat="44.81026" lon="-0.52363">
        <ele>-3.71</ele>
        <time>2021-06-30T13:04:22Z</time>
      </trkpt>
      <trkpt lat="44.80971" lon="-0.52446">
        <ele>-2.27</ele>
        <time>2021-06-30T13:04:33Z</time>
      </trkpt>
      <trkpt lat="44.80963" lon="-0.52455">
        <ele>-0.82</ele>
        <time>2021-06-30T13:04:41Z</time>
      </trkpt>
      <trkpt lat="44.80923" lon="-0.52517">
        <ele>0.14</ele>
        <time>2021-06-30T13:04:52Z</time>
      </trkpt>
      <trkpt lat="44.80863" lon="-0.52607">
        <ele>1.58</ele>
        <time>2021-06-30T13:05:04Z</time>
      </trkpt>
      <trkpt lat="44.80773" lon="-0.52742">
        <ele>3.98</ele>
        <time>2021-06-30T13:05:16Z</time>
      </trkpt>
      <trkpt lat="44.80678" lon="-0.52885">
        <ele>7.83</ele>
        <time>2021-06-30T13:05:31Z</time>
      </trkpt>
      <trkpt lat="44.80553" lon="-0.53071">
        <ele>5.91</ele>
        <time>2021-06-30T13:05:48Z</time>
      </trkpt>
      <trkpt lat="44.8046" lon="-0.53193">
        <ele>3.98</ele>
        <time>2021-06-30T13:05:58Z</time>
      </trkpt>
      <trkpt lat="44.80314" lon="-0.53304">
        <ele>-0.34</ele>
        <time>2021-06-30T13:06:11Z</time>
      </trkpt>
      <trkpt lat="44.80217" lon="-0.53373">
        <ele>0.62</ele>
        <time>2021-06-30T13:06:21Z</time>
      </trkpt>
      <trkpt lat="44.80081" lon="-0.53494">
        <ele>3.02</ele>
        <time>2021-06-30T13:06:33Z</time>
      </trkpt>
      <trkpt lat="44.79887" lon="-0.53663">
        <ele>2.06</ele>
        <time>2021-06-30T13:06:47Z</time>
      </trkpt>
      <trkpt lat="44.79747" lon="-0.5377">
        <ele>3.02</ele>
        <time>2021-06-30T13:06:58Z</time>
      </trkpt>
      <trkpt lat="44.79594" lon="-0.53873">
        <ele>2.54</ele>
        <time>2021-06-30T13:07:08Z</time>
      </trkpt>
      <trkpt lat="44.79326" lon="-0.53989">
        <ele>3.02</ele>
        <time>2021-06-30T13:07:23Z</time>
      </trkpt>
      <trkpt lat="44.79096" lon="-0.54054">
        <ele>3.98</ele>
        <time>2021-06-30T13:07:36Z</time>
      </trkpt>
      <trkpt lat="44.78794" lon="-0.54122">
        <ele>4.94</ele>
        <time>2021-06-30T13:07:53Z</time>
      </trkpt>
      <trkpt lat="44.78502" lon="-0.54188">
        <ele>3.98</ele>
        <time>2021-06-30T13:08:08Z</time>
      </trkpt>
      <trkpt lat="44.78311" lon="-0.54272">
        <ele>5.91</ele>
        <time>2021-06-30T13:08:17Z</time>
      </trkpt>
      <trkpt lat="44.78181" lon="-0.54391">
        <ele>10.71</ele>
        <time>2021-06-30T13:08:24Z</time>
      </trkpt>
      <trkpt lat="44.78071" lon="-0.54576">
        <ele>10.23</ele>
        <time>2021-06-30T13:08:32Z</time>
      </trkpt>
      <trkpt lat="44.78006" lon="-0.54791">
        <ele>9.75</ele>
        <time>2021-06-30T13:08:40Z</time>
      </trkpt>
      <trkpt lat="44.77896" lon="-0.55289">
        <ele>11.19</ele>
        <time>2021-06-30T13:08:58Z</time>
      </trkpt>
      <trkpt lat="44.77789" lon="-0.55824">
        <ele>9.75</ele>
        <time>2021-06-30T13:09:17Z</time>
      </trkpt>
      <trkpt lat="44.7777" lon="-0.56113">
        <ele>9.75</ele>
        <time>2021-06-30T13:09:27Z</time>
      </trkpt>
      <trkpt lat="44.77796" lon="-0.56388">
        <ele>8.79</ele>
        <time>2021-06-30T13:09:37Z</time>
      </trkpt>
      <trkpt lat="44.77883" lon="-0.56893">
        <ele>7.83</ele>
        <time>2021-06-30T13:09:55Z</time>
      </trkpt>
      <trkpt lat="44.77968" lon="-0.57362">
        <ele>5.91</ele>
        <time>2021-06-30T13:10:12Z</time>
      </trkpt>
      <trkpt lat="44.78091" lon="-0.57931">
        <ele>5.42</ele>
        <time>2021-06-30T13:10:32Z</time>
      </trkpt>
      <trkpt lat="44.78161" lon="-0.58212">
        <ele>4.46</ele>
        <time>2021-06-30T13:10:43Z</time>
      </trkpt>
      <trkpt lat="44.7826" lon="-0.58551">
        <ele>4.46</ele>
        <time>2021-06-30T13:10:57Z</time>
      </trkpt>
      <trkpt lat="44.78376" lon="-0.58895">
        <ele>6.39</ele>
        <time>2021-06-30T13:11:11Z</time>
      </trkpt>
      <trkpt lat="44.78527" lon="-0.59292">
        <ele>14.08</ele>
        <time>2021-06-30T13:11:26Z</time>
      </trkpt>
      <trkpt lat="44.78663" lon="-0.59622">
        <ele>16</ele>
        <time>2021-06-30T13:11:40Z</time>
      </trkpt>
      <trkpt lat="44.78836" lon="-0.60041">
        <ele>15.52</ele>
        <time>2021-06-30T13:11:57Z</time>
      </trkpt>
      <trkpt lat="44.78943" lon="-0.60376">
        <ele>13.12</ele>
        <time>2021-06-30T13:12:10Z</time>
      </trkpt>
      <trkpt lat="44.79" lon="-0.60708">
        <ele>14.56</ele>
        <time>2021-06-30T13:12:22Z</time>
      </trkpt>
      <trkpt lat="44.79014" lon="-0.61063">
        <ele>17.92</ele>
        <time>2021-06-30T13:12:34Z</time>
      </trkpt>
      <trkpt lat="44.78984" lon="-0.61483">
        <ele>21.29</ele>
        <time>2021-06-30T13:12:48Z</time>
      </trkpt>
      <trkpt lat="44.78939" lon="-0.61952">
        <ele>25.61</ele>
        <time>2021-06-30T13:13:04Z</time>
      </trkpt>
      <trkpt lat="44.78911" lon="-0.62273">
        <ele>27.53</ele>
        <time>2021-06-30T13:13:16Z</time>
      </trkpt>
      <trkpt lat="44.78857" lon="-0.62858">
        <ele>31.38</ele>
        <time>2021-06-30T13:13:37Z</time>
      </trkpt>
      <trkpt lat="44.78802" lon="-0.63443">
        <ele>34.74</ele>
        <time>2021-06-30T13:13:57Z</time>
      </trkpt>
      <trkpt lat="44.78785" lon="-0.6385">
        <ele>36.67</ele>
        <time>2021-06-30T13:14:11Z</time>
      </trkpt>
      <trkpt lat="44.78822" lon="-0.64126">
        <ele>36.67</ele>
        <time>2021-06-30T13:14:21Z</time>
      </trkpt>
      <trkpt lat="44.78901" lon="-0.64389">
        <ele>37.15</ele>
        <time>2021-06-30T13:14:31Z</time>
      </trkpt>
      <trkpt lat="44.79022" lon="-0.64612">
        <ele>41.95</ele>
        <time>2021-06-30T13:14:41Z</time>
      </trkpt>
      <trkpt lat="44.79191" lon="-0.64815">
        <ele>39.07</ele>
        <time>2021-06-30T13:14:51Z</time>
      </trkpt>
      <trkpt lat="44.7943" lon="-0.65012">
        <ele>41.95</ele>
        <time>2021-06-30T13:15:05Z</time>
      </trkpt>
      <trkpt lat="44.79709" lon="-0.65231">
        <ele>40.03</ele>
        <time>2021-06-30T13:15:20Z</time>
      </trkpt>
      <trkpt lat="44.79946" lon="-0.65449">
        <ele>40.03</ele>
        <time>2021-06-30T13:15:33Z</time>
      </trkpt>
      <trkpt lat="44.80102" lon="-0.65671">
        <ele>38.59</ele>
        <time>2021-06-30T13:15:43Z</time>
      </trkpt>
      <trkpt lat="44.80221" lon="-0.65871">
        <ele>40.51</ele>
        <time>2021-06-30T13:15:52Z</time>
      </trkpt>
      <trkpt lat="44.80383" lon="-0.66147">
        <ele>40.03</ele>
        <time>2021-06-30T13:16:04Z</time>
      </trkpt>
      <trkpt lat="44.80572" lon="-0.66462">
        <ele>38.59</ele>
        <time>2021-06-30T13:16:18Z</time>
      </trkpt>
      <trkpt lat="44.80784" lon="-0.66808">
        <ele>37.63</ele>
        <time>2021-06-30T13:16:33Z</time>
      </trkpt>
      <trkpt lat="44.80946" lon="-0.6701">
        <ele>37.63</ele>
        <time>2021-06-30T13:16:43Z</time>
      </trkpt>
      <trkpt lat="44.81142" lon="-0.67153">
        <ele>33.3</ele>
        <time>2021-06-30T13:16:53Z</time>
      </trkpt>
      <trkpt lat="44.81349" lon="-0.67226">
        <ele>31.86</ele>
        <time>2021-06-30T13:17:03Z</time>
      </trkpt>
      <trkpt lat="44.81645" lon="-0.67288">
        <ele>35.71</ele>
        <time>2021-06-30T13:17:17Z</time>
      </trkpt>
      <trkpt lat="44.81917" lon="-0.67346">
        <ele>33.3</ele>
        <time>2021-06-30T13:17:30Z</time>
      </trkpt>
      <trkpt lat="44.82319" lon="-0.67431">
        <ele>35.23</ele>
        <time>2021-06-30T13:17:47Z</time>
      </trkpt>
      <trkpt lat="44.82726" lon="-0.67516">
        <ele>39.07</ele>
        <time>2021-06-30T13:18:05Z</time>
      </trkpt>
      <trkpt lat="44.82976" lon="-0.6757">
        <ele>39.55</ele>
        <time>2021-06-30T13:18:16Z</time>
      </trkpt>
      <trkpt lat="44.83345" lon="-0.67639">
        <ele>42.44</ele>
        <time>2021-06-30T13:18:32Z</time>
      </trkpt>
      <trkpt lat="44.83598" lon="-0.67633">
        <ele>44.36</ele>
        <time>2021-06-30T13:18:43Z</time>
      </trkpt>
      <trkpt lat="44.8385" lon="-0.67559">
        <ele>45.32</ele>
        <time>2021-06-30T13:18:54Z</time>
      </trkpt>
      <trkpt lat="44.84106" lon="-0.67406">
        <ele>44.36</ele>
        <time>2021-06-30T13:19:06Z</time>
      </trkpt>
      <trkpt lat="44.84489" lon="-0.67129">
        <ele>43.4</ele>
        <time>2021-06-30T13:19:25Z</time>
      </trkpt>
      <trkpt lat="44.84776" lon="-0.66922">
        <ele>42.92</ele>
        <time>2021-06-30T13:19:40Z</time>
      </trkpt>
      <trkpt lat="44.85018" lon="-0.66749">
        <ele>42.44</ele>
        <time>2021-06-30T13:19:55Z</time>
      </trkpt>
      <trkpt lat="44.85317" lon="-0.66532">
        <ele>39.55</ele>
        <time>2021-06-30T13:20:11Z</time>
      </trkpt>
      <trkpt lat="44.85588" lon="-0.66335">
        <ele>38.11</ele>
        <time>2021-06-30T13:20:26Z</time>
      </trkpt>
      <trkpt lat="44.85716" lon="-0.66236">
        <ele>37.63</ele>
        <time>2021-06-30T13:20:34Z</time>
      </trkpt>
      <trkpt lat="44.85835" lon="-0.66139">
        <ele>38.11</ele>
        <time>2021-06-30T13:20:45Z</time>
      </trkpt>
      <trkpt lat="44.85976" lon="-0.66001">
        <ele>37.63</ele>
        <time>2021-06-30T13:20:58Z</time>
      </trkpt>
      <trkpt lat="44.86104" lon="-0.6586">
        <ele>35.71</ele>
        <time>2021-06-30T13:21:09Z</time>
      </trkpt>
      <trkpt lat="44.86284" lon="-0.65631">
        <ele>34.26</ele>
        <time>2021-06-30T13:21:24Z</time>
      </trkpt>
      <trkpt lat="44.86417" lon="-0.65431">
        <ele>31.38</ele>
        <time>2021-06-30T13:21:37Z</time>
      </trkpt>
      <trkpt lat="44.86465" lon="-0.65318">
        <ele>28.98</ele>
        <time>2021-06-30T13:21:45Z</time>
      </trkpt>
      <trkpt lat="44.86474" lon="-0.65265">
        <ele>28.98</ele>
        <time>2021-06-30T13:21:48Z</time>
      </trkpt>
      <trkpt lat="44.86474" lon="-0.65246">
        <ele>29.46</ele>
        <time>2021-06-30T13:21:49Z</time>
      </trkpt>
      <trkpt lat="44.86475" lon="-0.65228">
        <ele>30.9</ele>
        <time>2021-06-30T13:21:50Z</time>
      </trkpt>
      <trkpt lat="44.86473" lon="-0.65161">
        <ele>33.3</ele>
        <time>2021-06-30T13:21:54Z</time>
      </trkpt>
      <trkpt lat="44.86476" lon="-0.65148">
        <ele>32.82</ele>
        <time>2021-06-30T13:21:55Z</time>
      </trkpt>
      <trkpt lat="44.86479" lon="-0.65135">
        <ele>32.82</ele>
        <time>2021-06-30T13:21:56Z</time>
      </trkpt>
      <trkpt lat="44.86483" lon="-0.65122">
        <ele>32.82</ele>
        <time>2021-06-30T13:21:57Z</time>
      </trkpt>
      <trkpt lat="44.86493" lon="-0.651">
        <ele>33.3</ele>
        <time>2021-06-30T13:21:58Z</time>
      </trkpt>
      <trkpt lat="44.86493" lon="-0.651">
        <ele>33.78</ele>
        <time>2021-06-30T13:21:59Z</time>
      </trkpt>
      <trkpt lat="44.865" lon="-0.65094">
        <ele>33.78</ele>
        <time>2021-06-30T13:22:00Z</time>
      </trkpt>
      <trkpt lat="44.8651" lon="-0.65088">
        <ele>34.26</ele>
        <time>2021-06-30T13:22:01Z</time>
      </trkpt>
      <trkpt lat="44.86519" lon="-0.65083">
        <ele>33.78</ele>
        <time>2021-06-30T13:22:02Z</time>
      </trkpt>
      <trkpt lat="44.86539" lon="-0.65089">
        <ele>33.78</ele>
        <time>2021-06-30T13:22:03Z</time>
      </trkpt>
      <trkpt lat="44.86539" lon="-0.65089">
        <ele>33.78</ele>
        <time>2021-06-30T13:22:04Z</time>
      </trkpt>
      <trkpt lat="44.86548" lon="-0.65094">
        <ele>33.3</ele>
        <time>2021-06-30T13:22:05Z</time>
      </trkpt>
      <trkpt lat="44.86559" lon="-0.65104">
        <ele>33.3</ele>
        <time>2021-06-30T13:22:06Z</time>
      </trkpt>
      <trkpt lat="44.86636" lon="-0.65188">
        <ele>33.3</ele>
        <time>2021-06-30T13:22:15Z</time>
      </trkpt>
      <trkpt lat="44.86753" lon="-0.65322">
        <ele>29.94</ele>
        <time>2021-06-30T13:22:27Z</time>
      </trkpt>
      <trkpt lat="44.86918" lon="-0.655">
        <ele>25.13</ele>
        <time>2021-06-30T13:22:40Z</time>
      </trkpt>
      <trkpt lat="44.87149" lon="-0.65754">
        <ele>23.69</ele>
        <time>2021-06-30T13:22:56Z</time>
      </trkpt>
      <trkpt lat="44.87288" lon="-0.65864">
        <ele>23.21</ele>
        <time>2021-06-30T13:23:07Z</time>
      </trkpt>
      <trkpt lat="44.87431" lon="-0.6595">
        <ele>21.29</ele>
        <time>2021-06-30T13:23:19Z</time>
      </trkpt>
      <trkpt lat="44.87488" lon="-0.65984">
        <ele>20.32</ele>
        <time>2021-06-30T13:23:25Z</time>
      </trkpt>
      <trkpt lat="44.87495" lon="-0.65985">
        <ele>20.81</ele>
        <time>2021-06-30T13:23:26Z</time>
      </trkpt>
      <trkpt lat="44.87506" lon="-0.65983">
        <ele>21.29</ele>
        <time>2021-06-30T13:23:27Z</time>
      </trkpt>
      <trkpt lat="44.87506" lon="-0.65983">
        <ele>21.77</ele>
        <time>2021-06-30T13:23:28Z</time>
      </trkpt>
      <trkpt lat="44.87519" lon="-0.65978">
        <ele>21.77</ele>
        <time>2021-06-30T13:23:29Z</time>
      </trkpt>
      <trkpt lat="44.87525" lon="-0.65981">
        <ele>21.77</ele>
        <time>2021-06-30T13:23:30Z</time>
      </trkpt>
      <trkpt lat="44.87532" lon="-0.65984">
        <ele>20.81</ele>
        <time>2021-06-30T13:23:31Z</time>
      </trkpt>
      <trkpt lat="44.87536" lon="-0.65989">
        <ele>20.81</ele>
        <time>2021-06-30T13:23:32Z</time>
      </trkpt>
      <trkpt lat="44.8754" lon="-0.65999">
        <ele>20.32</ele>
        <time>2021-06-30T13:23:33Z</time>
      </trkpt>
      <trkpt lat="44.8754" lon="-0.65999">
        <ele>20.32</ele>
        <time>2021-06-30T13:23:34Z</time>
      </trkpt>
      <trkpt lat="44.87557" lon="-0.66012">
        <ele>20.81</ele>
        <time>2021-06-30T13:23:35Z</time>
      </trkpt>
      <trkpt lat="44.87557" lon="-0.66012">
        <ele>20.81</ele>
        <time>2021-06-30T13:23:36Z</time>
      </trkpt>
      <trkpt lat="44.87565" lon="-0.66016">
        <ele>20.81</ele>
        <time>2021-06-30T13:23:37Z</time>
      </trkpt>
      <trkpt lat="44.87661" lon="-0.66058">
        <ele>19.84</ele>
        <time>2021-06-30T13:23:45Z</time>
      </trkpt>
      <trkpt lat="44.87832" lon="-0.66128">
        <ele>18.88</ele>
        <time>2021-06-30T13:23:55Z</time>
      </trkpt>
      <trkpt lat="44.88144" lon="-0.66247">
        <ele>16.48</ele>
        <time>2021-06-30T13:24:11Z</time>
      </trkpt>
      <trkpt lat="44.88298" lon="-0.66315">
        <ele>16.48</ele>
        <time>2021-06-30T13:24:21Z</time>
      </trkpt>
      <trkpt lat="44.88423" lon="-0.66399">
        <ele>12.63</ele>
        <time>2021-06-30T13:24:33Z</time>
      </trkpt>
      <trkpt lat="44.88453" lon="-0.66416">
        <ele>12.15</ele>
        <time>2021-06-30T13:24:37Z</time>
      </trkpt>
      <trkpt lat="44.88453" lon="-0.66416">
        <ele>12.15</ele>
        <time>2021-06-30T13:24:38Z</time>
      </trkpt>
      <trkpt lat="44.88465" lon="-0.66417">
        <ele>12.15</ele>
        <time>2021-06-30T13:24:39Z</time>
      </trkpt>
      <trkpt lat="44.88465" lon="-0.66417">
        <ele>12.15</ele>
        <time>2021-06-30T13:24:40Z</time>
      </trkpt>
      <trkpt lat="44.88473" lon="-0.66416">
        <ele>12.15</ele>
        <time>2021-06-30T13:24:41Z</time>
      </trkpt>
      <trkpt lat="44.88486" lon="-0.66423">
        <ele>12.63</ele>
        <time>2021-06-30T13:24:42Z</time>
      </trkpt>
      <trkpt lat="44.88486" lon="-0.66423">
        <ele>12.63</ele>
        <time>2021-06-30T13:24:43Z</time>
      </trkpt>
      <trkpt lat="44.8849" lon="-0.66431">
        <ele>13.12</ele>
        <time>2021-06-30T13:24:44Z</time>
      </trkpt>
      <trkpt lat="44.885" lon="-0.66451">
        <ele>13.12</ele>
        <time>2021-06-30T13:24:45Z</time>
      </trkpt>
      <trkpt lat="44.885" lon="-0.66451">
        <ele>13.6</ele>
        <time>2021-06-30T13:24:46Z</time>
      </trkpt>
      <trkpt lat="44.88505" lon="-0.6646">
        <ele>14.08</ele>
        <time>2021-06-30T13:24:47Z</time>
      </trkpt>
      <trkpt lat="44.88511" lon="-0.6647">
        <ele>14.08</ele>
        <time>2021-06-30T13:24:48Z</time>
      </trkpt>
      <trkpt lat="44.886" lon="-0.66556">
        <ele>12.63</ele>
        <time>2021-06-30T13:24:56Z</time>
      </trkpt>
      <trkpt lat="44.88755" lon="-0.66708">
        <ele>9.27</ele>
        <time>2021-06-30T13:25:06Z</time>
      </trkpt>
      <trkpt lat="44.89042" lon="-0.66982">
        <ele>2.54</ele>
        <time>2021-06-30T13:25:24Z</time>
      </trkpt>
      <trkpt lat="44.89103" lon="-0.67042">
        <ele>1.1</ele>
        <time>2021-06-30T13:25:30Z</time>
      </trkpt>
      <trkpt lat="44.89109" lon="-0.67046">
        <ele>1.1</ele>
        <time>2021-06-30T13:25:31Z</time>
      </trkpt>
      <trkpt lat="44.89115" lon="-0.67049">
        <ele>1.1</ele>
        <time>2021-06-30T13:25:32Z</time>
      </trkpt>
      <trkpt lat="44.89128" lon="-0.67052">
        <ele>1.58</ele>
        <time>2021-06-30T13:25:34Z</time>
      </trkpt>
      <trkpt lat="44.89136" lon="-0.67052">
        <ele>1.58</ele>
        <time>2021-06-30T13:25:35Z</time>
      </trkpt>
      <trkpt lat="44.89148" lon="-0.67062">
        <ele>1.58</ele>
        <time>2021-06-30T13:25:36Z</time>
      </trkpt>
      <trkpt lat="44.89152" lon="-0.67072">
        <ele>1.58</ele>
        <time>2021-06-30T13:25:37Z</time>
      </trkpt>
      <trkpt lat="44.89152" lon="-0.67072">
        <ele>2.06</ele>
        <time>2021-06-30T13:25:38Z</time>
      </trkpt>
      <trkpt lat="44.89153" lon="-0.67075">
        <ele>2.06</ele>
        <time>2021-06-30T13:25:39Z</time>
      </trkpt>
      <trkpt lat="44.89156" lon="-0.67105">
        <ele>2.06</ele>
        <time>2021-06-30T13:25:40Z</time>
      </trkpt>
      <trkpt lat="44.89162" lon="-0.6711">
        <ele>2.06</ele>
        <time>2021-06-30T13:25:41Z</time>
      </trkpt>
      <trkpt lat="44.89178" lon="-0.67125">
        <ele>2.54</ele>
        <time>2021-06-30T13:25:42Z</time>
      </trkpt>
      <trkpt lat="44.89178" lon="-0.67125">
        <ele>2.54</ele>
        <time>2021-06-30T13:25:43Z</time>
      </trkpt>
      <trkpt lat="44.89269" lon="-0.67209">
        <ele>0.14</ele>
        <time>2021-06-30T13:25:51Z</time>
      </trkpt>
      <trkpt lat="44.89411" lon="-0.67347">
        <ele>-0.34</ele>
        <time>2021-06-30T13:26:00Z</time>
      </trkpt>
      <trkpt lat="44.89697" lon="-0.67629">
        <ele>2.54</ele>
        <time>2021-06-30T13:26:15Z</time>
      </trkpt>
      <trkpt lat="44.89902" lon="-0.67878">
        <ele>10.23</ele>
        <time>2021-06-30T13:26:26Z</time>
      </trkpt>
      <trkpt lat="44.90027" lon="-0.68074">
        <ele>11.67</ele>
        <time>2021-06-30T13:26:35Z</time>
      </trkpt>
      <trkpt lat="44.90062" lon="-0.68131">
        <ele>11.67</ele>
        <time>2021-06-30T13:26:39Z</time>
      </trkpt>
      <trkpt lat="44.9007" lon="-0.6814">
        <ele>10.71</ele>
        <time>2021-06-30T13:26:40Z</time>
      </trkpt>
      <trkpt lat="44.90078" lon="-0.68149">
        <ele>11.19</ele>
        <time>2021-06-30T13:26:41Z</time>
      </trkpt>
      <trkpt lat="44.90084" lon="-0.68156">
        <ele>10.71</ele>
        <time>2021-06-30T13:26:42Z</time>
      </trkpt>
      <trkpt lat="44.90092" lon="-0.68159">
        <ele>11.19</ele>
        <time>2021-06-30T13:26:43Z</time>
      </trkpt>
      <trkpt lat="44.901" lon="-0.68166">
        <ele>11.67</ele>
        <time>2021-06-30T13:26:44Z</time>
      </trkpt>
      <trkpt lat="44.90105" lon="-0.68175">
        <ele>12.15</ele>
        <time>2021-06-30T13:26:45Z</time>
      </trkpt>
      <trkpt lat="44.90107" lon="-0.68185">
        <ele>13.12</ele>
        <time>2021-06-30T13:26:46Z</time>
      </trkpt>
      <trkpt lat="44.90106" lon="-0.68196">
        <ele>13.12</ele>
        <time>2021-06-30T13:26:47Z</time>
      </trkpt>
      <trkpt lat="44.90106" lon="-0.68211">
        <ele>11.67</ele>
        <time>2021-06-30T13:26:48Z</time>
      </trkpt>
      <trkpt lat="44.90109" lon="-0.68223">
        <ele>11.19</ele>
        <time>2021-06-30T13:26:49Z</time>
      </trkpt>
      <trkpt lat="44.90112" lon="-0.68236">
        <ele>11.67</ele>
        <time>2021-06-30T13:26:50Z</time>
      </trkpt>
      <trkpt lat="44.90164" lon="-0.6837">
        <ele>11.67</ele>
        <time>2021-06-30T13:26:58Z</time>
      </trkpt>
      <trkpt lat="44.90245" lon="-0.6861">
        <ele>16.96</ele>
        <time>2021-06-30T13:27:09Z</time>
      </trkpt>
      <trkpt lat="44.90339" lon="-0.6896">
        <ele>19.84</ele>
        <time>2021-06-30T13:27:25Z</time>
      </trkpt>
      <trkpt lat="44.90395" lon="-0.69176">
        <ele>20.32</ele>
        <time>2021-06-30T13:27:35Z</time>
      </trkpt>
      <trkpt lat="44.90464" lon="-0.69449">
        <ele>20.32</ele>
        <time>2021-06-30T13:27:49Z</time>
      </trkpt>
      <trkpt lat="44.90499" lon="-0.69588">
        <ele>18.88</ele>
        <time>2021-06-30T13:27:59Z</time>
      </trkpt>
      <trkpt lat="44.90501" lon="-0.69598">
        <ele>18.88</ele>
        <time>2021-06-30T13:28:00Z</time>
      </trkpt>
      <trkpt lat="44.90514" lon="-0.69604">
        <ele>18.88</ele>
        <time>2021-06-30T13:28:01Z</time>
      </trkpt>
      <trkpt lat="44.90524" lon="-0.69612">
        <ele>19.36</ele>
        <time>2021-06-30T13:28:03Z</time>
      </trkpt>
      <trkpt lat="44.90529" lon="-0.6962">
        <ele>19.36</ele>
        <time>2021-06-30T13:28:04Z</time>
      </trkpt>
      <trkpt lat="44.90533" lon="-0.69633">
        <ele>19.36</ele>
        <time>2021-06-30T13:28:05Z</time>
      </trkpt>
      <trkpt lat="44.90532" lon="-0.69643">
        <ele>19.84</ele>
        <time>2021-06-30T13:28:06Z</time>
      </trkpt>
      <trkpt lat="44.90531" lon="-0.69652">
        <ele>18.88</ele>
        <time>2021-06-30T13:28:07Z</time>
      </trkpt>
      <trkpt lat="44.90531" lon="-0.69652">
        <ele>17.44</ele>
        <time>2021-06-30T13:28:08Z</time>
      </trkpt>
      <trkpt lat="44.90523" lon="-0.69684">
        <ele>16.48</ele>
        <time>2021-06-30T13:28:09Z</time>
      </trkpt>
      <trkpt lat="44.90528" lon="-0.69697">
        <ele>16.48</ele>
        <time>2021-06-30T13:28:10Z</time>
      </trkpt>
      <trkpt lat="44.90572" lon="-0.69861">
        <ele>16</ele>
        <time>2021-06-30T13:28:19Z</time>
      </trkpt>
      <trkpt lat="44.90645" lon="-0.70146">
        <ele>19.36</ele>
        <time>2021-06-30T13:28:34Z</time>
      </trkpt>
      <trkpt lat="44.90711" lon="-0.70467">
        <ele>23.21</ele>
        <time>2021-06-30T13:28:51Z</time>
      </trkpt>
      <trkpt lat="44.90746" lon="-0.70716">
        <ele>24.65</ele>
        <time>2021-06-30T13:29:04Z</time>
      </trkpt>
      <trkpt lat="44.90755" lon="-0.70821">
        <ele>25.61</ele>
        <time>2021-06-30T13:29:11Z</time>
      </trkpt>
      <trkpt lat="44.90756" lon="-0.70832">
        <ele>25.61</ele>
        <time>2021-06-30T13:29:12Z</time>
      </trkpt>
      <trkpt lat="44.90756" lon="-0.7084">
        <ele>26.09</ele>
        <time>2021-06-30T13:29:13Z</time>
      </trkpt>
      <trkpt lat="44.90778" lon="-0.70856">
        <ele>27.05</ele>
        <time>2021-06-30T13:29:15Z</time>
      </trkpt>
      <trkpt lat="44.90781" lon="-0.70864">
        <ele>27.05</ele>
        <time>2021-06-30T13:29:16Z</time>
      </trkpt>
      <trkpt lat="44.90784" lon="-0.70873">
        <ele>27.53</ele>
        <time>2021-06-30T13:29:17Z</time>
      </trkpt>
      <trkpt lat="44.9078" lon="-0.70887">
        <ele>27.05</ele>
        <time>2021-06-30T13:29:18Z</time>
      </trkpt>
      <trkpt lat="44.90778" lon="-0.70894">
        <ele>27.05</ele>
        <time>2021-06-30T13:29:19Z</time>
      </trkpt>
      <trkpt lat="44.90778" lon="-0.70894">
        <ele>27.05</ele>
        <time>2021-06-30T13:29:20Z</time>
      </trkpt>
      <trkpt lat="44.90763" lon="-0.70916">
        <ele>26.57</ele>
        <time>2021-06-30T13:29:21Z</time>
      </trkpt>
      <trkpt lat="44.90763" lon="-0.70929">
        <ele>27.05</ele>
        <time>2021-06-30T13:29:22Z</time>
      </trkpt>
      <trkpt lat="44.90763" lon="-0.70943">
        <ele>27.05</ele>
        <time>2021-06-30T13:29:23Z</time>
      </trkpt>
      <trkpt lat="44.90768" lon="-0.7113">
        <ele>27.05</ele>
        <time>2021-06-30T13:29:33Z</time>
      </trkpt>
      <trkpt lat="44.90766" lon="-0.71311">
        <ele>28.02</ele>
        <time>2021-06-30T13:29:44Z</time>
      </trkpt>
      <trkpt lat="44.90765" lon="-0.71342">
        <ele>27.53</ele>
        <time>2021-06-30T13:29:47Z</time>
      </trkpt>
      <trkpt lat="44.90765" lon="-0.7135">
        <ele>28.02</ele>
        <time>2021-06-30T13:29:48Z</time>
      </trkpt>
      <trkpt lat="44.90769" lon="-0.7136">
        <ele>28.02</ele>
        <time>2021-06-30T13:29:49Z</time>
      </trkpt>
      <trkpt lat="44.90773" lon="-0.71365">
        <ele>28.5</ele>
        <time>2021-06-30T13:29:50Z</time>
      </trkpt>
      <trkpt lat="44.90778" lon="-0.71378">
        <ele>28.98</ele>
        <time>2021-06-30T13:29:51Z</time>
      </trkpt>
      <trkpt lat="44.90776" lon="-0.71387">
        <ele>29.46</ele>
        <time>2021-06-30T13:29:52Z</time>
      </trkpt>
      <trkpt lat="44.90764" lon="-0.71403">
        <ele>28.02</ele>
        <time>2021-06-30T13:29:53Z</time>
      </trkpt>
      <trkpt lat="44.90764" lon="-0.71403">
        <ele>28.02</ele>
        <time>2021-06-30T13:29:54Z</time>
      </trkpt>
      <trkpt lat="44.90762" lon="-0.71423">
        <ele>27.53</ele>
        <time>2021-06-30T13:29:55Z</time>
      </trkpt>
      <trkpt lat="44.90762" lon="-0.71423">
        <ele>27.05</ele>
        <time>2021-06-30T13:29:56Z</time>
      </trkpt>
      <trkpt lat="44.90761" lon="-0.71436">
        <ele>26.57</ele>
        <time>2021-06-30T13:29:57Z</time>
      </trkpt>
      <trkpt lat="44.90754" lon="-0.71576">
        <ele>26.09</ele>
        <time>2021-06-30T13:30:05Z</time>
      </trkpt>
      <trkpt lat="44.90734" lon="-0.71802">
        <ele>28.02</ele>
        <time>2021-06-30T13:30:16Z</time>
      </trkpt>
      <trkpt lat="44.90694" lon="-0.72166">
        <ele>28.02</ele>
        <time>2021-06-30T13:30:33Z</time>
      </trkpt>
      <trkpt lat="44.90673" lon="-0.72376">
        <ele>28.5</ele>
        <time>2021-06-30T13:30:45Z</time>
      </trkpt>
      <trkpt lat="44.90668" lon="-0.72419">
        <ele>30.42</ele>
        <time>2021-06-30T13:30:51Z</time>
      </trkpt>
      <trkpt lat="44.90667" lon="-0.72455">
        <ele>28.98</ele>
        <time>2021-06-30T13:30:59Z</time>
      </trkpt>
      <trkpt lat="44.90667" lon="-0.72464">
        <ele>28.98</ele>
        <time>2021-06-30T13:31:00Z</time>
      </trkpt>
      <trkpt lat="44.90668" lon="-0.72473">
        <ele>28.98</ele>
        <time>2021-06-30T13:31:01Z</time>
      </trkpt>
      <trkpt lat="44.90677" lon="-0.72487">
        <ele>29.46</ele>
        <time>2021-06-30T13:31:02Z</time>
      </trkpt>
      <trkpt lat="44.90677" lon="-0.72487">
        <ele>29.46</ele>
        <time>2021-06-30T13:31:03Z</time>
      </trkpt>
      <trkpt lat="44.90683" lon="-0.72494">
        <ele>28.98</ele>
        <time>2021-06-30T13:31:04Z</time>
      </trkpt>
      <trkpt lat="44.90689" lon="-0.72506">
        <ele>28.98</ele>
        <time>2021-06-30T13:31:05Z</time>
      </trkpt>
      <trkpt lat="44.90689" lon="-0.72518">
        <ele>29.46</ele>
        <time>2021-06-30T13:31:06Z</time>
      </trkpt>
      <trkpt lat="44.90688" lon="-0.72527">
        <ele>29.94</ele>
        <time>2021-06-30T13:31:07Z</time>
      </trkpt>
      <trkpt lat="44.90683" lon="-0.72536">
        <ele>29.94</ele>
        <time>2021-06-30T13:31:08Z</time>
      </trkpt>
      <trkpt lat="44.90677" lon="-0.72542">
        <ele>29.94</ele>
        <time>2021-06-30T13:31:09Z</time>
      </trkpt>
      <trkpt lat="44.90672" lon="-0.72546">
        <ele>29.94</ele>
        <time>2021-06-30T13:31:10Z</time>
      </trkpt>
      <trkpt lat="44.9066" lon="-0.7256">
        <ele>29.94</ele>
        <time>2021-06-30T13:31:11Z</time>
      </trkpt>
      <trkpt lat="44.90659" lon="-0.72571">
        <ele>29.94</ele>
        <time>2021-06-30T13:31:12Z</time>
      </trkpt>
      <trkpt lat="44.90658" lon="-0.72583">
        <ele>29.94</ele>
        <time>2021-06-30T13:31:13Z</time>
      </trkpt>
      <trkpt lat="44.90657" lon="-0.72598">
        <ele>29.94</ele>
        <time>2021-06-30T13:31:14Z</time>
      </trkpt>
      <trkpt lat="44.90655" lon="-0.72755">
        <ele>28.02</ele>
        <time>2021-06-30T13:31:22Z</time>
      </trkpt>
      <trkpt lat="44.90661" lon="-0.73058">
        <ele>28.5</ele>
        <time>2021-06-30T13:31:34Z</time>
      </trkpt>
      <trkpt lat="44.90678" lon="-0.73506">
        <ele>29.46</ele>
        <time>2021-06-30T13:31:52Z</time>
      </trkpt>
      <trkpt lat="44.90691" lon="-0.73968">
        <ele>30.42</ele>
        <time>2021-06-30T13:32:10Z</time>
      </trkpt>
      <trkpt lat="44.90691" lon="-0.74272">
        <ele>30.42</ele>
        <time>2021-06-30T13:32:23Z</time>
      </trkpt>
      <trkpt lat="44.90687" lon="-0.74404">
        <ele>31.38</ele>
        <time>2021-06-30T13:32:31Z</time>
      </trkpt>
      <trkpt lat="44.90686" lon="-0.74424">
        <ele>32.34</ele>
        <time>2021-06-30T13:32:38Z</time>
      </trkpt>
      <trkpt lat="44.90685" lon="-0.74466">
        <ele>31.86</ele>
        <time>2021-06-30T13:32:45Z</time>
      </trkpt>
      <trkpt lat="44.90685" lon="-0.74473">
        <ele>31.86</ele>
        <time>2021-06-30T13:32:46Z</time>
      </trkpt>
      <trkpt lat="44.90685" lon="-0.7448">
        <ele>31.86</ele>
        <time>2021-06-30T13:32:47Z</time>
      </trkpt>
      <trkpt lat="44.90685" lon="-0.7448">
        <ele>31.86</ele>
        <time>2021-06-30T13:32:48Z</time>
      </trkpt>
      <trkpt lat="44.90696" lon="-0.74483">
        <ele>31.86</ele>
        <time>2021-06-30T13:32:49Z</time>
      </trkpt>
      <trkpt lat="44.90703" lon="-0.74493">
        <ele>32.34</ele>
        <time>2021-06-30T13:32:50Z</time>
      </trkpt>
      <trkpt lat="44.90707" lon="-0.74501">
        <ele>32.82</ele>
        <time>2021-06-30T13:32:51Z</time>
      </trkpt>
      <trkpt lat="44.90709" lon="-0.74516">
        <ele>33.3</ele>
        <time>2021-06-30T13:32:52Z</time>
      </trkpt>
      <trkpt lat="44.90707" lon="-0.7453">
        <ele>33.3</ele>
        <time>2021-06-30T13:32:53Z</time>
      </trkpt>
      <trkpt lat="44.90703" lon="-0.74539">
        <ele>32.82</ele>
        <time>2021-06-30T13:32:54Z</time>
      </trkpt>
      <trkpt lat="44.90687" lon="-0.74547">
        <ele>32.82</ele>
        <time>2021-06-30T13:32:55Z</time>
      </trkpt>
      <trkpt lat="44.90687" lon="-0.74547">
        <ele>32.82</ele>
        <time>2021-06-30T13:32:56Z</time>
      </trkpt>
      <trkpt lat="44.90676" lon="-0.74559">
        <ele>33.3</ele>
        <time>2021-06-30T13:32:57Z</time>
      </trkpt>
      <trkpt lat="44.90674" lon="-0.74572">
        <ele>33.3</ele>
        <time>2021-06-30T13:32:58Z</time>
      </trkpt>
      <trkpt lat="44.90671" lon="-0.74587">
        <ele>33.78</ele>
        <time>2021-06-30T13:32:59Z</time>
      </trkpt>
      <trkpt lat="44.90668" lon="-0.74604">
        <ele>33.3</ele>
        <time>2021-06-30T13:33:00Z</time>
      </trkpt>
      <trkpt lat="44.90646" lon="-0.74766">
        <ele>33.3</ele>
        <time>2021-06-30T13:33:08Z</time>
      </trkpt>
      <trkpt lat="44.90653" lon="-0.7495">
        <ele>32.34</ele>
        <time>2021-06-30T13:33:15Z</time>
      </trkpt>
      <trkpt lat="44.90719" lon="-0.75155">
        <ele>32.82</ele>
        <time>2021-06-30T13:33:23Z</time>
      </trkpt>
      <trkpt lat="44.90908" lon="-0.7564">
        <ele>32.34</ele>
        <time>2021-06-30T13:33:41Z</time>
      </trkpt>
      <trkpt lat="44.9107" lon="-0.76047">
        <ele>34.26</ele>
        <time>2021-06-30T13:33:57Z</time>
      </trkpt>
      <trkpt lat="44.91262" lon="-0.76528">
        <ele>38.59</ele>
        <time>2021-06-30T13:34:17Z</time>
      </trkpt>
      <trkpt lat="44.91437" lon="-0.76966">
        <ele>41.47</ele>
        <time>2021-06-30T13:34:35Z</time>
      </trkpt>
      <trkpt lat="44.91584" lon="-0.77327">
        <ele>42.44</ele>
        <time>2021-06-30T13:34:50Z</time>
      </trkpt>
      <trkpt lat="44.91811" lon="-0.77893">
        <ele>43.4</ele>
        <time>2021-06-30T13:35:13Z</time>
      </trkpt>
      <trkpt lat="44.9198" lon="-0.78313">
        <ele>44.84</ele>
        <time>2021-06-30T13:35:30Z</time>
      </trkpt>
      <trkpt lat="44.92243" lon="-0.78961">
        <ele>45.8</ele>
        <time>2021-06-30T13:35:56Z</time>
      </trkpt>
      <trkpt lat="44.92474" lon="-0.79533">
        <ele>44.36</ele>
        <time>2021-06-30T13:36:19Z</time>
      </trkpt>
      <trkpt lat="44.92689" lon="-0.80065">
        <ele>44.36</ele>
        <time>2021-06-30T13:36:41Z</time>
      </trkpt>
      <trkpt lat="44.92927" lon="-0.80655">
        <ele>45.32</ele>
        <time>2021-06-30T13:37:05Z</time>
      </trkpt>
      <trkpt lat="44.93095" lon="-0.81071">
        <ele>44.36</ele>
        <time>2021-06-30T13:37:22Z</time>
      </trkpt>
      <trkpt lat="44.93307" lon="-0.81597">
        <ele>43.88</ele>
        <time>2021-06-30T13:37:43Z</time>
      </trkpt>
      <trkpt lat="44.93514" lon="-0.8211">
        <ele>45.8</ele>
        <time>2021-06-30T13:38:04Z</time>
      </trkpt>
      <trkpt lat="44.93715" lon="-0.82609">
        <ele>48.2</ele>
        <time>2021-06-30T13:38:25Z</time>
      </trkpt>
      <trkpt lat="44.93772" lon="-0.82748">
        <ele>52.05</ele>
        <time>2021-06-30T13:38:32Z</time>
      </trkpt>
      <trkpt lat="44.9378" lon="-0.82769">
        <ele>50.61</ele>
        <time>2021-06-30T13:38:35Z</time>
      </trkpt>
      <trkpt lat="44.93784" lon="-0.82777">
        <ele>50.13</ele>
        <time>2021-06-30T13:38:36Z</time>
      </trkpt>
      <trkpt lat="44.93801" lon="-0.82783">
        <ele>48.68</ele>
        <time>2021-06-30T13:38:38Z</time>
      </trkpt>
      <trkpt lat="44.93805" lon="-0.82788">
        <ele>48.2</ele>
        <time>2021-06-30T13:38:39Z</time>
      </trkpt>
      <trkpt lat="44.93805" lon="-0.82799">
        <ele>48.2</ele>
        <time>2021-06-30T13:38:40Z</time>
      </trkpt>
      <trkpt lat="44.93805" lon="-0.82803">
        <ele>47.72</ele>
        <time>2021-06-30T13:38:41Z</time>
      </trkpt>
      <trkpt lat="44.93802" lon="-0.82823">
        <ele>46.28</ele>
        <time>2021-06-30T13:38:42Z</time>
      </trkpt>
      <trkpt lat="44.93806" lon="-0.82832">
        <ele>46.28</ele>
        <time>2021-06-30T13:38:43Z</time>
      </trkpt>
      <trkpt lat="44.9381" lon="-0.82843">
        <ele>46.28</ele>
        <time>2021-06-30T13:38:44Z</time>
      </trkpt>
      <trkpt lat="44.93815" lon="-0.82856">
        <ele>44.84</ele>
        <time>2021-06-30T13:38:45Z</time>
      </trkpt>
      <trkpt lat="44.93873" lon="-0.82999">
        <ele>40.51</ele>
        <time>2021-06-30T13:38:53Z</time>
      </trkpt>
      <trkpt lat="44.93965" lon="-0.83238">
        <ele>40.03</ele>
        <time>2021-06-30T13:39:03Z</time>
      </trkpt>
      <trkpt lat="44.94136" lon="-0.83698">
        <ele>40.99</ele>
        <time>2021-06-30T13:39:19Z</time>
      </trkpt>
      <trkpt lat="44.94242" lon="-0.83981">
        <ele>44.36</ele>
        <time>2021-06-30T13:39:31Z</time>
      </trkpt>
      <trkpt lat="44.9435" lon="-0.84202">
        <ele>43.4</ele>
        <time>2021-06-30T13:39:40Z</time>
      </trkpt>
      <trkpt lat="44.94541" lon="-0.84557">
        <ele>43.4</ele>
        <time>2021-06-30T13:39:55Z</time>
      </trkpt>
      <trkpt lat="44.94722" lon="-0.84894">
        <ele>42.44</ele>
        <time>2021-06-30T13:40:09Z</time>
      </trkpt>
      <trkpt lat="44.94853" lon="-0.85137">
        <ele>40.51</ele>
        <time>2021-06-30T13:40:21Z</time>
      </trkpt>
      <trkpt lat="44.95101" lon="-0.85591">
        <ele>39.55</ele>
        <time>2021-06-30T13:40:42Z</time>
      </trkpt>
      <trkpt lat="44.95301" lon="-0.85965">
        <ele>35.23</ele>
        <time>2021-06-30T13:40:58Z</time>
      </trkpt>
      <trkpt lat="44.95508" lon="-0.86347">
        <ele>34.74</ele>
        <time>2021-06-30T13:41:17Z</time>
      </trkpt>
      <trkpt lat="44.95629" lon="-0.86545">
        <ele>33.78</ele>
        <time>2021-06-30T13:41:28Z</time>
      </trkpt>
      <trkpt lat="44.95734" lon="-0.86692">
        <ele>33.3</ele>
        <time>2021-06-30T13:41:39Z</time>
      </trkpt>
      <trkpt lat="44.95764" lon="-0.86728">
        <ele>34.74</ele>
        <time>2021-06-30T13:41:43Z</time>
      </trkpt>
      <trkpt lat="44.95777" lon="-0.86741">
        <ele>35.71</ele>
        <time>2021-06-30T13:41:44Z</time>
      </trkpt>
      <trkpt lat="44.95784" lon="-0.86742">
        <ele>37.15</ele>
        <time>2021-06-30T13:41:46Z</time>
      </trkpt>
      <trkpt lat="44.95792" lon="-0.86743">
        <ele>37.63</ele>
        <time>2021-06-30T13:41:47Z</time>
      </trkpt>
      <trkpt lat="44.95798" lon="-0.86754">
        <ele>37.63</ele>
        <time>2021-06-30T13:41:48Z</time>
      </trkpt>
      <trkpt lat="44.95869" lon="-0.86815">
        <ele>40.51</ele>
        <time>2021-06-30T13:41:55Z</time>
      </trkpt>
      <trkpt lat="44.95994" lon="-0.86899">
        <ele>41.95</ele>
        <time>2021-06-30T13:42:03Z</time>
      </trkpt>
      <trkpt lat="44.96286" lon="-0.8705">
        <ele>44.36</ele>
        <time>2021-06-30T13:42:18Z</time>
      </trkpt>
      <trkpt lat="44.96531" lon="-0.87176">
        <ele>42.92</ele>
        <time>2021-06-30T13:42:31Z</time>
      </trkpt>
      <trkpt lat="44.96684" lon="-0.8726">
        <ele>44.36</ele>
        <time>2021-06-30T13:42:40Z</time>
      </trkpt>
      <trkpt lat="44.96852" lon="-0.874">
        <ele>43.88</ele>
        <time>2021-06-30T13:42:52Z</time>
      </trkpt>
      <trkpt lat="44.96999" lon="-0.87584">
        <ele>34.26</ele>
        <time>2021-06-30T13:43:03Z</time>
      </trkpt>
      <trkpt lat="44.97103" lon="-0.87783">
        <ele>32.34</ele>
        <time>2021-06-30T13:43:13Z</time>
      </trkpt>
      <trkpt lat="44.97184" lon="-0.88011">
        <ele>33.3</ele>
        <time>2021-06-30T13:43:23Z</time>
      </trkpt>
      <trkpt lat="44.97235" lon="-0.88294">
        <ele>36.67</ele>
        <time>2021-06-30T13:43:34Z</time>
      </trkpt>
      <trkpt lat="44.97241" lon="-0.88613">
        <ele>36.67</ele>
        <time>2021-06-30T13:43:46Z</time>
      </trkpt>
      <trkpt lat="44.97205" lon="-0.88881">
        <ele>36.19</ele>
        <time>2021-06-30T13:43:57Z</time>
      </trkpt>
      <trkpt lat="44.97127" lon="-0.8914">
        <ele>36.67</ele>
        <time>2021-06-30T13:44:08Z</time>
      </trkpt>
      <trkpt lat="44.97005" lon="-0.89444">
        <ele>34.26</ele>
        <time>2021-06-30T13:44:20Z</time>
      </trkpt>
      <trkpt lat="44.96872" lon="-0.89769">
        <ele>33.3</ele>
        <time>2021-06-30T13:44:33Z</time>
      </trkpt>
      <trkpt lat="44.96793" lon="-0.90072">
        <ele>30.42</ele>
        <time>2021-06-30T13:44:43Z</time>
      </trkpt>
      <trkpt lat="44.96769" lon="-0.90338">
        <ele>29.94</ele>
        <time>2021-06-30T13:44:53Z</time>
      </trkpt>
      <trkpt lat="44.96785" lon="-0.9076">
        <ele>29.94</ele>
        <time>2021-06-30T13:45:07Z</time>
      </trkpt>
      <trkpt lat="44.96822" lon="-0.91259">
        <ele>33.3</ele>
        <time>2021-06-30T13:45:23Z</time>
      </trkpt>
      <trkpt lat="44.96865" lon="-0.91824">
        <ele>34.26</ele>
        <time>2021-06-30T13:45:43Z</time>
      </trkpt>
      <trkpt lat="44.96912" lon="-0.92428">
        <ele>34.26</ele>
        <time>2021-06-30T13:46:02Z</time>
      </trkpt>
      <trkpt lat="44.96953" lon="-0.92952">
        <ele>33.3</ele>
        <time>2021-06-30T13:46:20Z</time>
      </trkpt>
      <trkpt lat="44.97" lon="-0.93566">
        <ele>33.3</ele>
        <time>2021-06-30T13:46:40Z</time>
      </trkpt>
      <trkpt lat="44.97051" lon="-0.94209">
        <ele>33.78</ele>
        <time>2021-06-30T13:47:01Z</time>
      </trkpt>
      <trkpt lat="44.97095" lon="-0.94797">
        <ele>33.78</ele>
        <time>2021-06-30T13:47:19Z</time>
      </trkpt>
      <trkpt lat="44.97142" lon="-0.95407">
        <ele>33.3</ele>
        <time>2021-06-30T13:47:40Z</time>
      </trkpt>
      <trkpt lat="44.97184" lon="-0.95973">
        <ele>32.82</ele>
        <time>2021-06-30T13:47:59Z</time>
      </trkpt>
      <trkpt lat="44.97228" lon="-0.96556">
        <ele>32.82</ele>
        <time>2021-06-30T13:48:20Z</time>
      </trkpt>
      <trkpt lat="44.97264" lon="-0.97026">
        <ele>32.34</ele>
        <time>2021-06-30T13:48:37Z</time>
      </trkpt>
      <trkpt lat="44.97299" lon="-0.97498">
        <ele>32.34</ele>
        <time>2021-06-30T13:48:54Z</time>
      </trkpt>
      <trkpt lat="44.97331" lon="-0.9792">
        <ele>31.86</ele>
        <time>2021-06-30T13:49:09Z</time>
      </trkpt>
      <trkpt lat="44.97366" lon="-0.98473">
        <ele>30.42</ele>
        <time>2021-06-30T13:49:28Z</time>
      </trkpt>
      <trkpt lat="44.97397" lon="-0.98948">
        <ele>28.02</ele>
        <time>2021-06-30T13:49:45Z</time>
      </trkpt>
      <trkpt lat="44.97422" lon="-0.99351">
        <ele>27.53</ele>
        <time>2021-06-30T13:49:59Z</time>
      </trkpt>
      <trkpt lat="44.9746" lon="-0.9994">
        <ele>26.09</ele>
        <time>2021-06-30T13:50:19Z</time>
      </trkpt>
      <trkpt lat="44.97482" lon="-1.00275">
        <ele>25.61</ele>
        <time>2021-06-30T13:50:31Z</time>
      </trkpt>
      <trkpt lat="44.97512" lon="-1.00752">
        <ele>24.17</ele>
        <time>2021-06-30T13:50:50Z</time>
      </trkpt>
      <trkpt lat="44.97542" lon="-1.01227">
        <ele>23.69</ele>
        <time>2021-06-30T13:51:08Z</time>
      </trkpt>
      <trkpt lat="44.9757" lon="-1.01671">
        <ele>22.73</ele>
        <time>2021-06-30T13:51:24Z</time>
      </trkpt>
      <trkpt lat="44.97577" lon="-1.02036">
        <ele>23.69</ele>
        <time>2021-06-30T13:51:37Z</time>
      </trkpt>
      <trkpt lat="44.97588" lon="-1.02739">
        <ele>22.73</ele>
        <time>2021-06-30T13:52:01Z</time>
      </trkpt>
      <trkpt lat="44.97595" lon="-1.03166">
        <ele>22.73</ele>
        <time>2021-06-30T13:52:16Z</time>
      </trkpt>
      <trkpt lat="44.97605" lon="-1.03796">
        <ele>19.36</ele>
        <time>2021-06-30T13:52:38Z</time>
      </trkpt>
      <trkpt lat="44.97613" lon="-1.04381">
        <ele>19.36</ele>
        <time>2021-06-30T13:52:58Z</time>
      </trkpt>
      <trkpt lat="44.97624" lon="-1.04977">
        <ele>18.4</ele>
        <time>2021-06-30T13:53:18Z</time>
      </trkpt>
      <trkpt lat="44.97633" lon="-1.05492">
        <ele>17.44</ele>
        <time>2021-06-30T13:53:36Z</time>
      </trkpt>
      <trkpt lat="44.9764" lon="-1.05896">
        <ele>16.48</ele>
        <time>2021-06-30T13:53:51Z</time>
      </trkpt>
      <trkpt lat="44.97643" lon="-1.06082">
        <ele>15.52</ele>
        <time>2021-06-30T13:54:00Z</time>
      </trkpt>
      <trkpt lat="44.97644" lon="-1.06113">
        <ele>15.52</ele>
        <time>2021-06-30T13:54:02Z</time>
      </trkpt>
      <trkpt lat="44.97644" lon="-1.06126">
        <ele>15.52</ele>
        <time>2021-06-30T13:54:03Z</time>
      </trkpt>
      <trkpt lat="44.97644" lon="-1.06136">
        <ele>15.04</ele>
        <time>2021-06-30T13:54:04Z</time>
      </trkpt>
      <trkpt lat="44.97644" lon="-1.06143">
        <ele>14.08</ele>
        <time>2021-06-30T13:54:05Z</time>
      </trkpt>
      <trkpt lat="44.97656" lon="-1.06151">
        <ele>13.6</ele>
        <time>2021-06-30T13:54:06Z</time>
      </trkpt>
      <trkpt lat="44.9766" lon="-1.0616">
        <ele>13.6</ele>
        <time>2021-06-30T13:54:07Z</time>
      </trkpt>
      <trkpt lat="44.97667" lon="-1.06171">
        <ele>13.6</ele>
        <time>2021-06-30T13:54:08Z</time>
      </trkpt>
      <trkpt lat="44.97676" lon="-1.06171">
        <ele>13.6</ele>
        <time>2021-06-30T13:54:09Z</time>
      </trkpt>
      <trkpt lat="44.97686" lon="-1.06172">
        <ele>13.6</ele>
        <time>2021-06-30T13:54:10Z</time>
      </trkpt>
      <trkpt lat="44.97812" lon="-1.0619">
        <ele>12.63</ele>
        <time>2021-06-30T13:54:19Z</time>
      </trkpt>
      <trkpt lat="44.97942" lon="-1.0623">
        <ele>12.63</ele>
        <time>2021-06-30T13:54:28Z</time>
      </trkpt>
      <trkpt lat="44.97952" lon="-1.06233">
        <ele>13.12</ele>
        <time>2021-06-30T13:54:29Z</time>
      </trkpt>
      <trkpt lat="44.9796" lon="-1.06235">
        <ele>13.12</ele>
        <time>2021-06-30T13:54:30Z</time>
      </trkpt>
      <trkpt lat="44.97977" lon="-1.06225">
        <ele>13.12</ele>
        <time>2021-06-30T13:54:32Z</time>
      </trkpt>
      <trkpt lat="44.97985" lon="-1.06224">
        <ele>13.12</ele>
        <time>2021-06-30T13:54:33Z</time>
      </trkpt>
      <trkpt lat="44.97991" lon="-1.06231">
        <ele>13.12</ele>
        <time>2021-06-30T13:54:34Z</time>
      </trkpt>
      <trkpt lat="44.97994" lon="-1.06235">
        <ele>13.12</ele>
        <time>2021-06-30T13:54:36Z</time>
      </trkpt>
      <trkpt lat="44.98007" lon="-1.06256">
        <ele>13.12</ele>
        <time>2021-06-30T13:54:37Z</time>
      </trkpt>
      <trkpt lat="44.98015" lon="-1.06258">
        <ele>14.08</ele>
        <time>2021-06-30T13:54:38Z</time>
      </trkpt>
      <trkpt lat="44.98113" lon="-1.06304">
        <ele>15.04</ele>
        <time>2021-06-30T13:54:46Z</time>
      </trkpt>
      <trkpt lat="44.98256" lon="-1.06407">
        <ele>16.48</ele>
        <time>2021-06-30T13:54:55Z</time>
      </trkpt>
      <trkpt lat="44.98396" lon="-1.0657">
        <ele>14.56</ele>
        <time>2021-06-30T13:55:04Z</time>
      </trkpt>
      <trkpt lat="44.98516" lon="-1.06786">
        <ele>11.67</ele>
        <time>2021-06-30T13:55:14Z</time>
      </trkpt>
      <trkpt lat="44.987" lon="-1.07202">
        <ele>8.31</ele>
        <time>2021-06-30T13:55:32Z</time>
      </trkpt>
      <trkpt lat="44.98912" lon="-1.0768">
        <ele>7.83</ele>
        <time>2021-06-30T13:55:53Z</time>
      </trkpt>
      <trkpt lat="44.98957" lon="-1.07783">
        <ele>6.39</ele>
        <time>2021-06-30T13:55:59Z</time>
      </trkpt>
      <trkpt lat="44.98967" lon="-1.07806">
        <ele>7.35</ele>
        <time>2021-06-30T13:56:01Z</time>
      </trkpt>
      <trkpt lat="44.9897" lon="-1.07814">
        <ele>8.79</ele>
        <time>2021-06-30T13:56:02Z</time>
      </trkpt>
      <trkpt lat="44.98987" lon="-1.07818">
        <ele>9.75</ele>
        <time>2021-06-30T13:56:04Z</time>
      </trkpt>
      <trkpt lat="44.98994" lon="-1.07836">
        <ele>9.75</ele>
        <time>2021-06-30T13:56:05Z</time>
      </trkpt>
      <trkpt lat="44.98994" lon="-1.07836">
        <ele>10.71</ele>
        <time>2021-06-30T13:56:06Z</time>
      </trkpt>
      <trkpt lat="44.98994" lon="-1.07846">
        <ele>11.19</ele>
        <time>2021-06-30T13:56:07Z</time>
      </trkpt>
      <trkpt lat="44.98994" lon="-1.07846">
        <ele>11.67</ele>
        <time>2021-06-30T13:56:08Z</time>
      </trkpt>
      <trkpt lat="44.98995" lon="-1.07871">
        <ele>11.67</ele>
        <time>2021-06-30T13:56:09Z</time>
      </trkpt>
      <trkpt lat="44.99001" lon="-1.07883">
        <ele>11.67</ele>
        <time>2021-06-30T13:56:10Z</time>
      </trkpt>
      <trkpt lat="44.99057" lon="-1.07994">
        <ele>9.75</ele>
        <time>2021-06-30T13:56:17Z</time>
      </trkpt>
      <trkpt lat="44.99171" lon="-1.08176">
        <ele>11.67</ele>
        <time>2021-06-30T13:56:26Z</time>
      </trkpt>
      <trkpt lat="44.99423" lon="-1.08526">
        <ele>12.63</ele>
        <time>2021-06-30T13:56:44Z</time>
      </trkpt>
      <trkpt lat="44.99542" lon="-1.08692">
        <ele>14.08</ele>
        <time>2021-06-30T13:56:55Z</time>
      </trkpt>
      <trkpt lat="44.99567" lon="-1.08727">
        <ele>15.04</ele>
        <time>2021-06-30T13:56:58Z</time>
      </trkpt>
      <trkpt lat="44.99567" lon="-1.08727">
        <ele>15.04</ele>
        <time>2021-06-30T13:56:59Z</time>
      </trkpt>
      <trkpt lat="44.99581" lon="-1.08728">
        <ele>15.04</ele>
        <time>2021-06-30T13:57:00Z</time>
      </trkpt>
      <trkpt lat="44.99589" lon="-1.08725">
        <ele>14.56</ele>
        <time>2021-06-30T13:57:01Z</time>
      </trkpt>
      <trkpt lat="44.99597" lon="-1.08729">
        <ele>14.08</ele>
        <time>2021-06-30T13:57:02Z</time>
      </trkpt>
      <trkpt lat="44.99603" lon="-1.08733">
        <ele>14.08</ele>
        <time>2021-06-30T13:57:03Z</time>
      </trkpt>
      <trkpt lat="44.99608" lon="-1.08744">
        <ele>14.08</ele>
        <time>2021-06-30T13:57:04Z</time>
      </trkpt>
      <trkpt lat="44.99612" lon="-1.08754">
        <ele>13.6</ele>
        <time>2021-06-30T13:57:05Z</time>
      </trkpt>
      <trkpt lat="44.99612" lon="-1.08754">
        <ele>12.63</ele>
        <time>2021-06-30T13:57:06Z</time>
      </trkpt>
      <trkpt lat="44.99618" lon="-1.08784">
        <ele>12.63</ele>
        <time>2021-06-30T13:57:07Z</time>
      </trkpt>
      <trkpt lat="44.99713" lon="-1.0889">
        <ele>14.08</ele>
        <time>2021-06-30T13:57:16Z</time>
      </trkpt>
      <trkpt lat="44.99932" lon="-1.0904">
        <ele>14.56</ele>
        <time>2021-06-30T13:57:30Z</time>
      </trkpt>
      <trkpt lat="45.00166" lon="-1.09202">
        <ele>16</ele>
        <time>2021-06-30T13:57:44Z</time>
      </trkpt>
      <trkpt lat="45.00366" lon="-1.09358">
        <ele>15.04</ele>
        <time>2021-06-30T13:57:56Z</time>
      </trkpt>
      <trkpt lat="45.00452" lon="-1.09514">
        <ele>10.23</ele>
        <time>2021-06-30T13:58:03Z</time>
      </trkpt>
      <trkpt lat="45.00506" lon="-1.09715">
        <ele>11.67</ele>
        <time>2021-06-30T13:58:11Z</time>
      </trkpt>
      <trkpt lat="45.00619" lon="-1.10173">
        <ele>9.75</ele>
        <time>2021-06-30T13:58:29Z</time>
      </trkpt>
      <trkpt lat="45.0073" lon="-1.10652">
        <ele>8.79</ele>
        <time>2021-06-30T13:58:48Z</time>
      </trkpt>
      <trkpt lat="45.00754" lon="-1.10933">
        <ele>10.71</ele>
        <time>2021-06-30T13:58:59Z</time>
      </trkpt>
      <trkpt lat="45.00763" lon="-1.11277">
        <ele>10.71</ele>
        <time>2021-06-30T13:59:13Z</time>
      </trkpt>
      <trkpt lat="45.00771" lon="-1.11616">
        <ele>11.67</ele>
        <time>2021-06-30T13:59:27Z</time>
      </trkpt>
      <trkpt lat="45.00778" lon="-1.11724">
        <ele>11.67</ele>
        <time>2021-06-30T13:59:33Z</time>
      </trkpt>
      <trkpt lat="45.00782" lon="-1.11736">
        <ele>11.19</ele>
        <time>2021-06-30T13:59:34Z</time>
      </trkpt>
      <trkpt lat="45.00793" lon="-1.11756">
        <ele>10.23</ele>
        <time>2021-06-30T13:59:35Z</time>
      </trkpt>
      <trkpt lat="45.008" lon="-1.11768">
        <ele>10.71</ele>
        <time>2021-06-30T13:59:36Z</time>
      </trkpt>
      <trkpt lat="45.00803" lon="-1.1178">
        <ele>10.71</ele>
        <time>2021-06-30T13:59:37Z</time>
      </trkpt>
      <trkpt lat="45.00803" lon="-1.1178">
        <ele>10.71</ele>
        <time>2021-06-30T13:59:38Z</time>
      </trkpt>
      <trkpt lat="45.00798" lon="-1.11797">
        <ele>11.19</ele>
        <time>2021-06-30T13:59:39Z</time>
      </trkpt>
      <trkpt lat="45.00799" lon="-1.11805">
        <ele>10.23</ele>
        <time>2021-06-30T13:59:40Z</time>
      </trkpt>
      <trkpt lat="45.00799" lon="-1.11817">
        <ele>10.23</ele>
        <time>2021-06-30T13:59:41Z</time>
      </trkpt>
      <trkpt lat="45.008" lon="-1.11829">
        <ele>10.23</ele>
        <time>2021-06-30T13:59:42Z</time>
      </trkpt>
      <trkpt lat="45.00802" lon="-1.11844">
        <ele>10.71</ele>
        <time>2021-06-30T13:59:43Z</time>
      </trkpt>
      <trkpt lat="45.00823" lon="-1.11987">
        <ele>7.83</ele>
        <time>2021-06-30T13:59:51Z</time>
      </trkpt>
      <trkpt lat="45.00818" lon="-1.12053">
        <ele>6.87</ele>
        <time>2021-06-30T13:59:54Z</time>
      </trkpt>
      <trkpt lat="45.00773" lon="-1.12368">
        <ele>8.31</ele>
        <time>2021-06-30T14:00:07Z</time>
      </trkpt>
      <trkpt lat="45.00735" lon="-1.12735">
        <ele>12.63</ele>
        <time>2021-06-30T14:00:21Z</time>
      </trkpt>
      <trkpt lat="45.00754" lon="-1.13084">
        <ele>11.19</ele>
        <time>2021-06-30T14:00:33Z</time>
      </trkpt>
      <trkpt lat="45.00787" lon="-1.13724">
        <ele>12.63</ele>
        <time>2021-06-30T14:00:55Z</time>
      </trkpt>
      <trkpt lat="45.00753" lon="-1.14041">
        <ele>16.96</ele>
        <time>2021-06-30T14:01:06Z</time>
      </trkpt>
      <trkpt lat="45.00672" lon="-1.14544">
        <ele>28.5</ele>
        <time>2021-06-30T14:01:25Z</time>
      </trkpt>
      <trkpt lat="45.00617" lon="-1.14719">
        <ele>27.05</ele>
        <time>2021-06-30T14:01:32Z</time>
      </trkpt>
      <trkpt lat="45.00509" lon="-1.14888">
        <ele>24.65</ele>
        <time>2021-06-30T14:01:40Z</time>
      </trkpt>
      <trkpt lat="45.00395" lon="-1.15054">
        <ele>21.77</ele>
        <time>2021-06-30T14:01:48Z</time>
      </trkpt>
      <trkpt lat="45.00382" lon="-1.15075">
        <ele>21.77</ele>
        <time>2021-06-30T14:01:49Z</time>
      </trkpt>
      <trkpt lat="45.00374" lon="-1.15099">
        <ele>21.77</ele>
        <time>2021-06-30T14:01:50Z</time>
      </trkpt>
      <trkpt lat="45.00367" lon="-1.15123">
        <ele>22.73</ele>
        <time>2021-06-30T14:01:51Z</time>
      </trkpt>
      <trkpt lat="45.00359" lon="-1.15149">
        <ele>22.73</ele>
        <time>2021-06-30T14:01:52Z</time>
      </trkpt>
      <trkpt lat="45.00353" lon="-1.15175">
        <ele>22.25</ele>
        <time>2021-06-30T14:01:53Z</time>
      </trkpt>
      <trkpt lat="45.00349" lon="-1.15201">
        <ele>22.73</ele>
        <time>2021-06-30T14:01:54Z</time>
      </trkpt>
      <trkpt lat="45.00348" lon="-1.15228">
        <ele>23.69</ele>
        <time>2021-06-30T14:01:55Z</time>
      </trkpt>
      <trkpt lat="45.00349" lon="-1.15284">
        <ele>24.17</ele>
        <time>2021-06-30T14:01:56Z</time>
      </trkpt>
      <trkpt lat="45.0036" lon="-1.15534">
        <ele>19.36</ele>
        <time>2021-06-30T14:02:06Z</time>
      </trkpt>
      <trkpt lat="45.00365" lon="-1.15574">
        <ele>18.4</ele>
        <time>2021-06-30T14:02:08Z</time>
      </trkpt>
      <trkpt lat="45.00368" lon="-1.15592">
        <ele>17.92</ele>
        <time>2021-06-30T14:02:09Z</time>
      </trkpt>
      <trkpt lat="45.00373" lon="-1.15609">
        <ele>17.92</ele>
        <time>2021-06-30T14:02:10Z</time>
      </trkpt>
      <trkpt lat="45.0038" lon="-1.15625">
        <ele>17.44</ele>
        <time>2021-06-30T14:02:11Z</time>
      </trkpt>
      <trkpt lat="45.00388" lon="-1.15641">
        <ele>16.96</ele>
        <time>2021-06-30T14:02:12Z</time>
      </trkpt>
      <trkpt lat="45.00397" lon="-1.15657">
        <ele>16.96</ele>
        <time>2021-06-30T14:02:13Z</time>
      </trkpt>
      <trkpt lat="45.00523" lon="-1.15818">
        <ele>13.12</ele>
        <time>2021-06-30T14:02:23Z</time>
      </trkpt>
      <trkpt lat="45.00607" lon="-1.15923">
        <ele>16.48</ele>
        <time>2021-06-30T14:02:29Z</time>
      </trkpt>
      <trkpt lat="45.00619" lon="-1.15939">
        <ele>15.52</ele>
        <time>2021-06-30T14:02:30Z</time>
      </trkpt>
      <trkpt lat="45.00628" lon="-1.15957">
        <ele>16</ele>
        <time>2021-06-30T14:02:31Z</time>
      </trkpt>
      <trkpt lat="45.00637" lon="-1.15976">
        <ele>15.52</ele>
        <time>2021-06-30T14:02:32Z</time>
      </trkpt>
      <trkpt lat="45.00642" lon="-1.15997">
        <ele>16</ele>
        <time>2021-06-30T14:02:33Z</time>
      </trkpt>
      <trkpt lat="45.00645" lon="-1.1602">
        <ele>16</ele>
        <time>2021-06-30T14:02:34Z</time>
      </trkpt>
      <trkpt lat="45.00649" lon="-1.16044">
        <ele>16.96</ele>
        <time>2021-06-30T14:02:35Z</time>
      </trkpt>
      <trkpt lat="45.00649" lon="-1.16066">
        <ele>17.44</ele>
        <time>2021-06-30T14:02:36Z</time>
      </trkpt>
      <trkpt lat="45.00648" lon="-1.16088">
        <ele>16.96</ele>
        <time>2021-06-30T14:02:37Z</time>
      </trkpt>
      <trkpt lat="45.00643" lon="-1.16111">
        <ele>16.96</ele>
        <time>2021-06-30T14:02:38Z</time>
      </trkpt>
      <trkpt lat="45.00637" lon="-1.16134">
        <ele>16.96</ele>
        <time>2021-06-30T14:02:39Z</time>
      </trkpt>
      <trkpt lat="45.00568" lon="-1.16355">
        <ele>14.08</ele>
        <time>2021-06-30T14:02:49Z</time>
      </trkpt>
      <trkpt lat="45.00556" lon="-1.165">
        <ele>14.08</ele>
        <time>2021-06-30T14:02:57Z</time>
      </trkpt>
      <trkpt lat="45.00548" lon="-1.16593">
        <ele>14.08</ele>
        <time>2021-06-30T14:03:06Z</time>
      </trkpt>
      <trkpt lat="45.0054" lon="-1.16757">
        <ele>13.6</ele>
        <time>2021-06-30T14:03:16Z</time>
      </trkpt>
      <trkpt lat="45.00548" lon="-1.16923">
        <ele>13.12</ele>
        <time>2021-06-30T14:03:27Z</time>
      </trkpt>
      <trkpt lat="45.00583" lon="-1.17161">
        <ele>12.63</ele>
        <time>2021-06-30T14:03:41Z</time>
      </trkpt>
      <trkpt lat="45.00605" lon="-1.17364">
        <ele>12.15</ele>
        <time>2021-06-30T14:03:53Z</time>
      </trkpt>
      <trkpt lat="45.00607" lon="-1.17508">
        <ele>12.63</ele>
        <time>2021-06-30T14:04:03Z</time>
      </trkpt>
      <trkpt lat="45.00612" lon="-1.17541">
        <ele>13.12</ele>
        <time>2021-06-30T14:04:06Z</time>
      </trkpt>
      <trkpt lat="45.00614" lon="-1.1755">
        <ele>13.12</ele>
        <time>2021-06-30T14:04:07Z</time>
      </trkpt>
      <trkpt lat="45.00616" lon="-1.17558">
        <ele>12.63</ele>
        <time>2021-06-30T14:04:08Z</time>
      </trkpt>
      <trkpt lat="45.00618" lon="-1.17564">
        <ele>12.63</ele>
        <time>2021-06-30T14:04:09Z</time>
      </trkpt>
      <trkpt lat="45.00619" lon="-1.17568">
        <ele>12.15</ele>
        <time>2021-06-30T14:04:10Z</time>
      </trkpt>
      <trkpt lat="45.00622" lon="-1.17573">
        <ele>12.15</ele>
        <time>2021-06-30T14:04:11Z</time>
      </trkpt>
      <trkpt lat="45.00626" lon="-1.17578">
        <ele>12.15</ele>
        <time>2021-06-30T14:04:12Z</time>
      </trkpt>
      <trkpt lat="45.00627" lon="-1.17586">
        <ele>11.67</ele>
        <time>2021-06-30T14:04:13Z</time>
      </trkpt>
      <trkpt lat="45.00629" lon="-1.17603">
        <ele>11.19</ele>
        <time>2021-06-30T14:04:14Z</time>
      </trkpt>
      <trkpt lat="45.00625" lon="-1.1761">
        <ele>11.67</ele>
        <time>2021-06-30T14:04:15Z</time>
      </trkpt>
      <trkpt lat="45.00625" lon="-1.1761">
        <ele>12.15</ele>
        <time>2021-06-30T14:04:16Z</time>
      </trkpt>
      <trkpt lat="45.00616" lon="-1.1763">
        <ele>12.15</ele>
        <time>2021-06-30T14:04:17Z</time>
      </trkpt>
      <trkpt lat="45.00616" lon="-1.1763">
        <ele>12.15</ele>
        <time>2021-06-30T14:04:18Z</time>
      </trkpt>
      <trkpt lat="45.00613" lon="-1.1764">
        <ele>12.15</ele>
        <time>2021-06-30T14:04:19Z</time>
      </trkpt>
      <trkpt lat="45.0061" lon="-1.17651">
        <ele>12.63</ele>
        <time>2021-06-30T14:04:20Z</time>
      </trkpt>
      <trkpt lat="45.006" lon="-1.17778">
        <ele>12.63</ele>
        <time>2021-06-30T14:04:28Z</time>
      </trkpt>
      <trkpt lat="45.00589" lon="-1.17832">
        <ele>12.15</ele>
        <time>2021-06-30T14:04:31Z</time>
      </trkpt>
      <trkpt lat="45.00508" lon="-1.17984">
        <ele>8.79</ele>
        <time>2021-06-30T14:04:40Z</time>
      </trkpt>
      <trkpt lat="45.0045" lon="-1.18065">
        <ele>3.98</ele>
        <time>2021-06-30T14:04:48Z</time>
      </trkpt>
      <trkpt lat="45.00402" lon="-1.18148">
        <ele>2.54</ele>
        <time>2021-06-30T14:04:58Z</time>
      </trkpt>
      <trkpt lat="45.00399" lon="-1.18155">
        <ele>2.54</ele>
        <time>2021-06-30T14:04:59Z</time>
      </trkpt>
      <trkpt lat="45.00391" lon="-1.18174">
        <ele>3.02</ele>
        <time>2021-06-30T14:05:00Z</time>
      </trkpt>
      <trkpt lat="45.00393" lon="-1.18192">
        <ele>3.02</ele>
        <time>2021-06-30T14:05:02Z</time>
      </trkpt>
      <trkpt lat="45.00393" lon="-1.18192">
        <ele>2.06</ele>
        <time>2021-06-30T14:05:03Z</time>
      </trkpt>
      <trkpt lat="45.0039" lon="-1.182">
        <ele>2.06</ele>
        <time>2021-06-30T14:05:04Z</time>
      </trkpt>
      <trkpt lat="45.00388" lon="-1.18208">
        <ele>1.58</ele>
        <time>2021-06-30T14:05:05Z</time>
      </trkpt>
      <trkpt lat="45.00384" lon="-1.18219">
        <ele>1.58</ele>
        <time>2021-06-30T14:05:06Z</time>
      </trkpt>
      <trkpt lat="45.00379" lon="-1.1822">
        <ele>1.1</ele>
        <time>2021-06-30T14:05:07Z</time>
      </trkpt>
      <trkpt lat="45.00373" lon="-1.18222">
        <ele>0.62</ele>
        <time>2021-06-30T14:05:08Z</time>
      </trkpt>
      <trkpt lat="45.00359" lon="-1.18219">
        <ele>0.14</ele>
        <time>2021-06-30T14:05:09Z</time>
      </trkpt>
      <trkpt lat="45.00353" lon="-1.18217">
        <ele>-0.34</ele>
        <time>2021-06-30T14:05:10Z</time>
      </trkpt>
      <trkpt lat="45.00352" lon="-1.18217">
        <ele>-1.3</ele>
        <time>2021-06-30T14:05:12Z</time>
      </trkpt>
      <trkpt lat="45.00339" lon="-1.1821">
        <ele>-0.82</ele>
        <time>2021-06-30T14:05:13Z</time>
      </trkpt>
      <trkpt lat="45.00333" lon="-1.18215">
        <ele>-1.3</ele>
        <time>2021-06-30T14:05:14Z</time>
      </trkpt>
      <trkpt lat="45.00328" lon="-1.1822">
        <ele>-1.79</ele>
        <time>2021-06-30T14:05:15Z</time>
      </trkpt>
      <trkpt lat="45.00322" lon="-1.18226">
        <ele>-2.27</ele>
        <time>2021-06-30T14:05:16Z</time>
      </trkpt>
      <trkpt lat="45.00317" lon="-1.18234">
        <ele>-2.27</ele>
        <time>2021-06-30T14:05:17Z</time>
      </trkpt>
      <trkpt lat="45.00273" lon="-1.18371">
        <ele>-6.11</ele>
        <time>2021-06-30T14:05:26Z</time>
      </trkpt>
      <trkpt lat="45.00255" lon="-1.18497">
        <ele>-6.11</ele>
        <time>2021-06-30T14:05:35Z</time>
      </trkpt>
      <trkpt lat="45.00255" lon="-1.18554">
        <ele>-6.59</ele>
        <time>2021-06-30T14:05:40Z</time>
      </trkpt>
      <trkpt lat="45.00255" lon="-1.18573">
        <ele>-6.59</ele>
        <time>2021-06-30T14:05:41Z</time>
      </trkpt>
      <trkpt lat="45.00255" lon="-1.18574">
        <ele>-6.59</ele>
        <time>2021-06-30T14:05:42Z</time>
      </trkpt>
      <trkpt lat="45.00254" lon="-1.18584">
        <ele>-5.63</ele>
        <time>2021-06-30T14:05:43Z</time>
      </trkpt>
      <trkpt lat="45.00253" lon="-1.18596">
        <ele>-4.67</ele>
        <time>2021-06-30T14:05:44Z</time>
      </trkpt>
      <trkpt lat="45.00247" lon="-1.18776">
        <ele>2.06</ele>
        <time>2021-06-30T14:05:57Z</time>
      </trkpt>
      <trkpt lat="45.00227" lon="-1.18947">
        <ele>6.87</ele>
        <time>2021-06-30T14:06:10Z</time>
      </trkpt>
      <trkpt lat="45.00187" lon="-1.19076">
        <ele>5.42</ele>
        <time>2021-06-30T14:06:22Z</time>
      </trkpt>
      <trkpt lat="45.00144" lon="-1.19181">
        <ele>5.91</ele>
        <time>2021-06-30T14:06:34Z</time>
      </trkpt>
      <trkpt lat="45.0013" lon="-1.19213">
        <ele>5.42</ele>
        <time>2021-06-30T14:06:38Z</time>
      </trkpt>
      <trkpt lat="45.00129" lon="-1.19217">
        <ele>5.42</ele>
        <time>2021-06-30T14:06:39Z</time>
      </trkpt>
      <trkpt lat="45.00133" lon="-1.19233">
        <ele>5.42</ele>
        <time>2021-06-30T14:06:40Z</time>
      </trkpt>
      <trkpt lat="45.00129" lon="-1.19243">
        <ele>5.42</ele>
        <time>2021-06-30T14:06:41Z</time>
      </trkpt>
      <trkpt lat="45.00132" lon="-1.19251">
        <ele>5.42</ele>
        <time>2021-06-30T14:06:42Z</time>
      </trkpt>
      <trkpt lat="45.00136" lon="-1.19259">
        <ele>5.42</ele>
        <time>2021-06-30T14:06:43Z</time>
      </trkpt>
      <trkpt lat="45.00142" lon="-1.19276">
        <ele>5.42</ele>
        <time>2021-06-30T14:06:44Z</time>
      </trkpt>
      <trkpt lat="45.00146" lon="-1.19284">
        <ele>5.42</ele>
        <time>2021-06-30T14:06:45Z</time>
      </trkpt>
      <trkpt lat="45.00146" lon="-1.19284">
        <ele>5.42</ele>
        <time>2021-06-30T14:06:46Z</time>
      </trkpt>
      <trkpt lat="45.00149" lon="-1.19291">
        <ele>5.42</ele>
        <time>2021-06-30T14:06:47Z</time>
      </trkpt>
      <trkpt lat="45.00154" lon="-1.19297">
        <ele>5.42</ele>
        <time>2021-06-30T14:06:48Z</time>
      </trkpt>
      <trkpt lat="45.00158" lon="-1.19302">
        <ele>5.42</ele>
        <time>2021-06-30T14:06:49Z</time>
      </trkpt>
      <trkpt lat="45.00166" lon="-1.19312">
        <ele>5.42</ele>
        <time>2021-06-30T14:06:50Z</time>
      </trkpt>
      <trkpt lat="45.00166" lon="-1.19312">
        <ele>5.91</ele>
        <time>2021-06-30T14:06:51Z</time>
      </trkpt>
      <trkpt lat="45.00194" lon="-1.19329">
        <ele>6.39</ele>
        <time>2021-06-30T14:06:57Z</time>
      </trkpt>
      <trkpt lat="45.00197" lon="-1.19334">
        <ele>6.39</ele>
        <time>2021-06-30T14:06:58Z</time>
      </trkpt>
      <trkpt lat="45.00201" lon="-1.19339">
        <ele>6.39</ele>
        <time>2021-06-30T14:06:59Z</time>
      </trkpt>
      <trkpt lat="45.00204" lon="-1.19343">
        <ele>6.39</ele>
        <time>2021-06-30T14:07:00Z</time>
      </trkpt>
      <trkpt lat="45.00206" lon="-1.19351">
        <ele>5.91</ele>
        <time>2021-06-30T14:07:01Z</time>
      </trkpt>
      <trkpt lat="45.00208" lon="-1.19358">
        <ele>5.91</ele>
        <time>2021-06-30T14:07:02Z</time>
      </trkpt>
      <trkpt lat="45.00207" lon="-1.19368">
        <ele>5.91</ele>
        <time>2021-06-30T14:07:03Z</time>
      </trkpt>
      <trkpt lat="45.00206" lon="-1.19378">
        <ele>5.91</ele>
        <time>2021-06-30T14:07:04Z</time>
      </trkpt>
      <trkpt lat="45.00191" lon="-1.19499">
        <ele>6.87</ele>
        <time>2021-06-30T14:07:18Z</time>
      </trkpt>
      <trkpt lat="45.00186" lon="-1.19533">
        <ele>7.35</ele>
        <time>2021-06-30T14:07:26Z</time>
      </trkpt>
    </trkseg>
  </trk>
  <trk>
    <name><![CDATA[Journal actif: 2021-06-30 12:07]]></name>
    <trkseg>
      <trkpt lat="45.00181" lon="-1.1957">
        <ele>7.35</ele>
        <time>2021-06-30T14:07:30Z</time>
      </trkpt>
      <trkpt lat="45.00178" lon="-1.19617">
        <ele>7.83</ele>
        <time>2021-06-30T14:07:39Z</time>
      </trkpt>
      <trkpt lat="45.00178" lon="-1.19621">
        <ele>7.35</ele>
        <time>2021-06-30T14:07:40Z</time>
      </trkpt>
      <trkpt lat="45.00181" lon="-1.19623">
        <ele>7.35</ele>
        <time>2021-06-30T14:07:41Z</time>
      </trkpt>
      <trkpt lat="45.00185" lon="-1.19624">
        <ele>7.35</ele>
        <time>2021-06-30T14:07:42Z</time>
      </trkpt>
      <trkpt lat="45.00189" lon="-1.19628">
        <ele>7.35</ele>
        <time>2021-06-30T14:07:43Z</time>
      </trkpt>
      <trkpt lat="45.00192" lon="-1.19632">
        <ele>7.35</ele>
        <time>2021-06-30T14:07:44Z</time>
      </trkpt>
      <trkpt lat="45.00193" lon="-1.19639">
        <ele>7.35</ele>
        <time>2021-06-30T14:07:45Z</time>
      </trkpt>
      <trkpt lat="45.00192" lon="-1.19643">
        <ele>7.35</ele>
        <time>2021-06-30T14:07:46Z</time>
      </trkpt>
      <trkpt lat="45.00192" lon="-1.19652">
        <ele>7.35</ele>
        <time>2021-06-30T14:07:48Z</time>
      </trkpt>
      <trkpt lat="45.00191" lon="-1.19657">
        <ele>7.35</ele>
        <time>2021-06-30T14:07:49Z</time>
      </trkpt>
      <trkpt lat="45.00189" lon="-1.19658">
        <ele>6.87</ele>
        <time>2021-06-30T14:07:50Z</time>
      </trkpt>
      <trkpt lat="45.00185" lon="-1.1966">
        <ele>6.87</ele>
        <time>2021-06-30T14:07:51Z</time>
      </trkpt>
      <trkpt lat="45.00185" lon="-1.1966">
        <ele>6.87</ele>
        <time>2021-06-30T14:07:52Z</time>
      </trkpt>
      <trkpt lat="45.0017" lon="-1.19665">
        <ele>6.87</ele>
        <time>2021-06-30T14:08:01Z</time>
      </trkpt>
      <trkpt lat="45.00169" lon="-1.19674">
        <ele>6.87</ele>
        <time>2021-06-30T14:08:02Z</time>
      </trkpt>
      <trkpt lat="45.00158" lon="-1.19741">
        <ele>6.87</ele>
        <time>2021-06-30T14:08:17Z</time>
      </trkpt>
      <trkpt lat="45.00149" lon="-1.19804">
        <ele>6.87</ele>
        <time>2021-06-30T14:08:30Z</time>
      </trkpt>
      <trkpt lat="45.00158" lon="-1.19856">
        <ele>7.35</ele>
        <time>2021-06-30T14:08:43Z</time>
      </trkpt>
      <trkpt lat="45.00194" lon="-1.19898">
        <ele>5.42</ele>
        <time>2021-06-30T14:08:55Z</time>
      </trkpt>
      <trkpt lat="45.0025" lon="-1.19963">
        <ele>4.46</ele>
        <time>2021-06-30T14:09:11Z</time>
      </trkpt>
      <trkpt lat="45.00252" lon="-1.19966">
        <ele>3.98</ele>
        <time>2021-06-30T14:09:12Z</time>
      </trkpt>
      <trkpt lat="45.00254" lon="-1.19969">
        <ele>3.5</ele>
        <time>2021-06-30T14:09:13Z</time>
      </trkpt>
      <trkpt lat="45.00258" lon="-1.19967">
        <ele>3.5</ele>
        <time>2021-06-30T14:09:14Z</time>
      </trkpt>
      <trkpt lat="45.0026" lon="-1.19964">
        <ele>3.98</ele>
        <time>2021-06-30T14:09:15Z</time>
      </trkpt>
      <trkpt lat="45.00265" lon="-1.19962">
        <ele>3.98</ele>
        <time>2021-06-30T14:09:16Z</time>
      </trkpt>
      <trkpt lat="45.00269" lon="-1.19964">
        <ele>3.98</ele>
        <time>2021-06-30T14:09:17Z</time>
      </trkpt>
      <trkpt lat="45.00272" lon="-1.19965">
        <ele>3.98</ele>
        <time>2021-06-30T14:09:18Z</time>
      </trkpt>
      <trkpt lat="45.00276" lon="-1.19971">
        <ele>3.98</ele>
        <time>2021-06-30T14:09:19Z</time>
      </trkpt>
      <trkpt lat="45.00278" lon="-1.19976">
        <ele>3.98</ele>
        <time>2021-06-30T14:09:20Z</time>
      </trkpt>
      <trkpt lat="45.00278" lon="-1.19976">
        <ele>3.98</ele>
        <time>2021-06-30T14:09:21Z</time>
      </trkpt>
      <trkpt lat="45.00279" lon="-1.1998">
        <ele>3.98</ele>
        <time>2021-06-30T14:09:22Z</time>
      </trkpt>
      <trkpt lat="45.003" lon="-1.20023">
        <ele>4.94</ele>
        <time>2021-06-30T14:09:31Z</time>
      </trkpt>
      <trkpt lat="45.00366" lon="-1.20088">
        <ele>6.39</ele>
        <time>2021-06-30T14:09:49Z</time>
      </trkpt>
      <trkpt lat="45.00373" lon="-1.2012">
        <ele>7.35</ele>
        <time>2021-06-30T14:09:59Z</time>
      </trkpt>
      <trkpt lat="45.00373" lon="-1.20135">
        <ele>6.87</ele>
        <time>2021-06-30T14:10:06Z</time>
      </trkpt>
      <trkpt lat="45.00373" lon="-1.20137">
        <ele>6.87</ele>
        <time>2021-06-30T14:10:07Z</time>
      </trkpt>
      <trkpt lat="45.00371" lon="-1.20137">
        <ele>6.87</ele>
        <time>2021-06-30T14:10:08Z</time>
      </trkpt>
      <trkpt lat="45.00369" lon="-1.20137">
        <ele>6.39</ele>
        <time>2021-06-30T14:10:09Z</time>
      </trkpt>
      <trkpt lat="45.00366" lon="-1.20138">
        <ele>6.39</ele>
        <time>2021-06-30T14:10:10Z</time>
      </trkpt>
      <trkpt lat="45.00369" lon="-1.20135">
        <ele>6.39</ele>
        <time>2021-06-30T14:10:11Z</time>
      </trkpt>
      <trkpt lat="45.00369" lon="-1.20133">
        <ele>5.91</ele>
        <time>2021-06-30T14:10:12Z</time>
      </trkpt>
      <trkpt lat="45.00369" lon="-1.2013">
        <ele>5.42</ele>
        <time>2021-06-30T14:10:19Z</time>
      </trkpt>
      <trkpt lat="45.00371" lon="-1.20088">
        <ele>5.91</ele>
        <time>2021-06-30T14:10:30Z</time>
      </trkpt>
      <trkpt lat="45.00426" lon="-1.19985">
        <ele>3.5</ele>
        <time>2021-06-30T14:10:50Z</time>
      </trkpt>
      <trkpt lat="45.00433" lon="-1.19958">
        <ele>2.54</ele>
        <time>2021-06-30T14:10:59Z</time>
      </trkpt>
      <trkpt lat="45.00451" lon="-1.19938">
        <ele>1.58</ele>
        <time>2021-06-30T14:11:07Z</time>
      </trkpt>
      <trkpt lat="45.00457" lon="-1.19966">
        <ele>1.58</ele>
        <time>2021-06-30T14:11:17Z</time>
      </trkpt>
      <trkpt lat="45.00459" lon="-1.19969">
        <ele>1.58</ele>
        <time>2021-06-30T14:11:18Z</time>
      </trkpt>
      <trkpt lat="45.00497" lon="-1.20017">
        <ele>6.39</ele>
        <time>2021-06-30T14:11:30Z</time>
      </trkpt>
      <trkpt lat="45.00526" lon="-1.20053">
        <ele>7.83</ele>
        <time>2021-06-30T14:11:41Z</time>
      </trkpt>
      <trkpt lat="45.00543" lon="-1.201">
        <ele>7.35</ele>
        <time>2021-06-30T14:11:53Z</time>
      </trkpt>
      <trkpt lat="45.00538" lon="-1.20114">
        <ele>6.39</ele>
        <time>2021-06-30T14:11:58Z</time>
      </trkpt>
      <trkpt lat="45.00536" lon="-1.20114">
        <ele>6.39</ele>
        <time>2021-06-30T14:11:59Z</time>
      </trkpt>
      <trkpt lat="45.00533" lon="-1.20115">
        <ele>5.91</ele>
        <time>2021-06-30T14:12:00Z</time>
      </trkpt>
      <trkpt lat="45.00462" lon="-1.20125">
        <ele>4.46</ele>
        <time>2021-06-30T14:12:17Z</time>
      </trkpt>
      <trkpt lat="45.00459" lon="-1.20126">
        <ele>4.94</ele>
        <time>2021-06-30T14:12:18Z</time>
      </trkpt>
      <trkpt lat="45.00456" lon="-1.20126">
        <ele>4.94</ele>
        <time>2021-06-30T14:12:19Z</time>
      </trkpt>
      <trkpt lat="45.00455" lon="-1.20122">
        <ele>4.94</ele>
        <time>2021-06-30T14:12:20Z</time>
      </trkpt>
      <trkpt lat="45.00454" lon="-1.20117">
        <ele>4.94</ele>
        <time>2021-06-30T14:12:21Z</time>
      </trkpt>
      <trkpt lat="45.00454" lon="-1.20112">
        <ele>4.94</ele>
        <time>2021-06-30T14:12:22Z</time>
      </trkpt>
      <trkpt lat="45.00447" lon="-1.20025">
        <ele>3.02</ele>
        <time>2021-06-30T14:12:36Z</time>
      </trkpt>
      <trkpt lat="45.00446" lon="-1.20011">
        <ele>2.54</ele>
        <time>2021-06-30T14:12:43Z</time>
      </trkpt>
      <trkpt lat="45.00445" lon="-1.20009">
        <ele>2.06</ele>
        <time>2021-06-30T14:12:44Z</time>
      </trkpt>
      <trkpt lat="45.00445" lon="-1.20007">
        <ele>2.54</ele>
        <time>2021-06-30T14:13:01Z</time>
      </trkpt>
    </trkseg>
  </trk>
  <trk>
    <name><![CDATA[Journal actif: 2021-06-30 15:38]]></name>
    <trkseg>
      <trkpt lat="45.00449" lon="-1.20013">
        <ele>17.92</ele>
        <time>2021-06-30T17:38:16Z</time>
      </trkpt>
      <trkpt lat="45.00446" lon="-1.19996">
        <ele>16.96</ele>
        <time>2021-06-30T17:39:06Z</time>
      </trkpt>
      <trkpt lat="45.00433" lon="-1.19959">
        <ele>15.04</ele>
        <time>2021-06-30T17:39:22Z</time>
      </trkpt>
      <trkpt lat="45.00446" lon="-1.19936">
        <ele>14.56</ele>
        <time>2021-06-30T17:39:31Z</time>
      </trkpt>
      <trkpt lat="45.00471" lon="-1.19906">
        <ele>13.6</ele>
        <time>2021-06-30T17:39:42Z</time>
      </trkpt>
      <trkpt lat="45.00539" lon="-1.198">
        <ele>10.71</ele>
        <time>2021-06-30T17:40:01Z</time>
      </trkpt>
      <trkpt lat="45.00562" lon="-1.19756">
        <ele>9.75</ele>
        <time>2021-06-30T17:40:10Z</time>
      </trkpt>
      <trkpt lat="45.00562" lon="-1.19751">
        <ele>9.75</ele>
        <time>2021-06-30T17:40:11Z</time>
      </trkpt>
      <trkpt lat="45.00562" lon="-1.19745">
        <ele>9.27</ele>
        <time>2021-06-30T17:40:12Z</time>
      </trkpt>
      <trkpt lat="45.00556" lon="-1.19626">
        <ele>9.75</ele>
        <time>2021-06-30T17:40:29Z</time>
      </trkpt>
      <trkpt lat="45.00554" lon="-1.19568">
        <ele>12.15</ele>
        <time>2021-06-30T17:40:40Z</time>
      </trkpt>
      <trkpt lat="45.00554" lon="-1.19568">
        <ele>11.19</ele>
        <time>2021-06-30T17:40:46Z</time>
      </trkpt>
      <trkpt lat="45.00554" lon="-1.19566">
        <ele>11.19</ele>
        <time>2021-06-30T17:40:47Z</time>
      </trkpt>
      <trkpt lat="45.00554" lon="-1.19566">
        <ele>10.71</ele>
        <time>2021-06-30T17:40:48Z</time>
      </trkpt>
      <trkpt lat="45.00556" lon="-1.19565">
        <ele>10.71</ele>
        <time>2021-06-30T17:40:49Z</time>
      </trkpt>
      <trkpt lat="45.00558" lon="-1.19563">
        <ele>10.23</ele>
        <time>2021-06-30T17:40:50Z</time>
      </trkpt>
      <trkpt lat="45.00561" lon="-1.19561">
        <ele>10.23</ele>
        <time>2021-06-30T17:40:51Z</time>
      </trkpt>
      <trkpt lat="45.00562" lon="-1.19547">
        <ele>9.75</ele>
        <time>2021-06-30T17:40:52Z</time>
      </trkpt>
      <trkpt lat="45.00562" lon="-1.19543">
        <ele>9.75</ele>
        <time>2021-06-30T17:40:53Z</time>
      </trkpt>
      <trkpt lat="45.00562" lon="-1.19543">
        <ele>9.75</ele>
        <time>2021-06-30T17:40:54Z</time>
      </trkpt>
      <trkpt lat="45.00563" lon="-1.19534">
        <ele>9.75</ele>
        <time>2021-06-30T17:40:55Z</time>
      </trkpt>
      <trkpt lat="45.00563" lon="-1.19534">
        <ele>10.23</ele>
        <time>2021-06-30T17:40:56Z</time>
      </trkpt>
      <trkpt lat="45.00564" lon="-1.19529">
        <ele>10.23</ele>
        <time>2021-06-30T17:40:57Z</time>
      </trkpt>
      <trkpt lat="45.00576" lon="-1.19476">
        <ele>10.71</ele>
        <time>2021-06-30T17:41:06Z</time>
      </trkpt>
      <trkpt lat="45.00576" lon="-1.19469">
        <ele>10.71</ele>
        <time>2021-06-30T17:41:07Z</time>
      </trkpt>
      <trkpt lat="45.00577" lon="-1.19462">
        <ele>10.23</ele>
        <time>2021-06-30T17:41:08Z</time>
      </trkpt>
      <trkpt lat="45.00576" lon="-1.19448">
        <ele>10.23</ele>
        <time>2021-06-30T17:41:09Z</time>
      </trkpt>
      <trkpt lat="45.00575" lon="-1.19442">
        <ele>9.75</ele>
        <time>2021-06-30T17:41:10Z</time>
      </trkpt>
      <trkpt lat="45.0057" lon="-1.19422">
        <ele>8.79</ele>
        <time>2021-06-30T17:41:14Z</time>
      </trkpt>
      <trkpt lat="45.00563" lon="-1.1939">
        <ele>8.79</ele>
        <time>2021-06-30T17:41:20Z</time>
      </trkpt>
      <trkpt lat="45.00562" lon="-1.19386">
        <ele>8.79</ele>
        <time>2021-06-30T17:41:21Z</time>
      </trkpt>
      <trkpt lat="45.00562" lon="-1.19378">
        <ele>8.79</ele>
        <time>2021-06-30T17:41:22Z</time>
      </trkpt>
      <trkpt lat="45.00565" lon="-1.19376">
        <ele>8.31</ele>
        <time>2021-06-30T17:41:23Z</time>
      </trkpt>
      <trkpt lat="45.00568" lon="-1.19373">
        <ele>8.31</ele>
        <time>2021-06-30T17:41:24Z</time>
      </trkpt>
      <trkpt lat="45.00571" lon="-1.19371">
        <ele>8.31</ele>
        <time>2021-06-30T17:41:25Z</time>
      </trkpt>
      <trkpt lat="45.00586" lon="-1.19359">
        <ele>7.83</ele>
        <time>2021-06-30T17:41:29Z</time>
      </trkpt>
      <trkpt lat="45.00589" lon="-1.19356">
        <ele>7.83</ele>
        <time>2021-06-30T17:41:30Z</time>
      </trkpt>
      <trkpt lat="45.00597" lon="-1.19351">
        <ele>7.35</ele>
        <time>2021-06-30T17:41:31Z</time>
      </trkpt>
      <trkpt lat="45.00597" lon="-1.19351">
        <ele>6.87</ele>
        <time>2021-06-30T17:41:32Z</time>
      </trkpt>
      <trkpt lat="45.00602" lon="-1.1935">
        <ele>6.39</ele>
        <time>2021-06-30T17:41:33Z</time>
      </trkpt>
      <trkpt lat="45.00606" lon="-1.1935">
        <ele>6.87</ele>
        <time>2021-06-30T17:41:34Z</time>
      </trkpt>
      <trkpt lat="45.00636" lon="-1.19344">
        <ele>6.87</ele>
        <time>2021-06-30T17:41:40Z</time>
      </trkpt>
      <trkpt lat="45.00645" lon="-1.19337">
        <ele>6.87</ele>
        <time>2021-06-30T17:41:41Z</time>
      </trkpt>
      <trkpt lat="45.00645" lon="-1.19337">
        <ele>6.87</ele>
        <time>2021-06-30T17:41:42Z</time>
      </trkpt>
      <trkpt lat="45.00664" lon="-1.19324">
        <ele>5.91</ele>
        <time>2021-06-30T17:41:46Z</time>
      </trkpt>
      <trkpt lat="45.00669" lon="-1.1932">
        <ele>5.91</ele>
        <time>2021-06-30T17:41:47Z</time>
      </trkpt>
      <trkpt lat="45.00692" lon="-1.19306">
        <ele>3.98</ele>
        <time>2021-06-30T17:41:55Z</time>
      </trkpt>
      <trkpt lat="45.00694" lon="-1.193">
        <ele>3.5</ele>
        <time>2021-06-30T17:41:56Z</time>
      </trkpt>
      <trkpt lat="45.00694" lon="-1.19296">
        <ele>3.5</ele>
        <time>2021-06-30T17:41:57Z</time>
      </trkpt>
      <trkpt lat="45.00692" lon="-1.19286">
        <ele>3.5</ele>
        <time>2021-06-30T17:41:58Z</time>
      </trkpt>
      <trkpt lat="45.00691" lon="-1.1928">
        <ele>3.98</ele>
        <time>2021-06-30T17:41:59Z</time>
      </trkpt>
      <trkpt lat="45.0069" lon="-1.19273">
        <ele>3.98</ele>
        <time>2021-06-30T17:42:00Z</time>
      </trkpt>
      <trkpt lat="45.00681" lon="-1.1922">
        <ele>4.94</ele>
        <time>2021-06-30T17:42:09Z</time>
      </trkpt>
      <trkpt lat="45.00685" lon="-1.19215">
        <ele>4.94</ele>
        <time>2021-06-30T17:42:10Z</time>
      </trkpt>
      <trkpt lat="45.00685" lon="-1.19215">
        <ele>4.46</ele>
        <time>2021-06-30T17:42:11Z</time>
      </trkpt>
      <trkpt lat="45.00712" lon="-1.19188">
        <ele>4.46</ele>
        <time>2021-06-30T17:42:22Z</time>
      </trkpt>
      <trkpt lat="45.00713" lon="-1.19183">
        <ele>4.46</ele>
        <time>2021-06-30T17:42:23Z</time>
      </trkpt>
      <trkpt lat="45.00714" lon="-1.19178">
        <ele>4.94</ele>
        <time>2021-06-30T17:42:24Z</time>
      </trkpt>
      <trkpt lat="45.00696" lon="-1.19107">
        <ele>9.75</ele>
        <time>2021-06-30T17:42:36Z</time>
      </trkpt>
      <trkpt lat="45.00694" lon="-1.191">
        <ele>10.23</ele>
        <time>2021-06-30T17:42:37Z</time>
      </trkpt>
    </trkseg>
  </trk>
  <trk>
    <name><![CDATA[Journal actif: 2021-06-30 15:42]]></name>
    <trkseg>
      <trkpt lat="45.00647" lon="-1.19013">
        <ele>12.15</ele>
        <time>2021-06-30T17:42:52Z</time>
      </trkpt>
      <trkpt lat="45.00619" lon="-1.18973">
        <ele>10.23</ele>
        <time>2021-06-30T17:43:00Z</time>
      </trkpt>
      <trkpt lat="45.00616" lon="-1.18968">
        <ele>9.75</ele>
        <time>2021-06-30T17:43:01Z</time>
      </trkpt>
      <trkpt lat="45.00614" lon="-1.18965">
        <ele>9.75</ele>
        <time>2021-06-30T17:43:02Z</time>
      </trkpt>
      <trkpt lat="45.00614" lon="-1.1896">
        <ele>9.27</ele>
        <time>2021-06-30T17:43:03Z</time>
      </trkpt>
      <trkpt lat="45.00614" lon="-1.18955">
        <ele>8.79</ele>
        <time>2021-06-30T17:43:04Z</time>
      </trkpt>
      <trkpt lat="45.00614" lon="-1.1895">
        <ele>8.79</ele>
        <time>2021-06-30T17:43:05Z</time>
      </trkpt>
      <trkpt lat="45.00616" lon="-1.18945">
        <ele>8.31</ele>
        <time>2021-06-30T17:43:06Z</time>
      </trkpt>
      <trkpt lat="45.00644" lon="-1.18882">
        <ele>5.91</ele>
        <time>2021-06-30T17:43:19Z</time>
      </trkpt>
      <trkpt lat="45.00646" lon="-1.18879">
        <ele>5.91</ele>
        <time>2021-06-30T17:43:20Z</time>
      </trkpt>
      <trkpt lat="45.00652" lon="-1.18877">
        <ele>6.39</ele>
        <time>2021-06-30T17:43:21Z</time>
      </trkpt>
      <trkpt lat="45.00656" lon="-1.18879">
        <ele>6.39</ele>
        <time>2021-06-30T17:43:22Z</time>
      </trkpt>
      <trkpt lat="45.0066" lon="-1.18884">
        <ele>6.39</ele>
        <time>2021-06-30T17:43:23Z</time>
      </trkpt>
      <trkpt lat="45.00663" lon="-1.18889">
        <ele>6.39</ele>
        <time>2021-06-30T17:43:24Z</time>
      </trkpt>
      <trkpt lat="45.00666" lon="-1.18893">
        <ele>6.39</ele>
        <time>2021-06-30T17:43:25Z</time>
      </trkpt>
      <trkpt lat="45.00669" lon="-1.18898">
        <ele>6.39</ele>
        <time>2021-06-30T17:43:26Z</time>
      </trkpt>
      <trkpt lat="45.00672" lon="-1.18904">
        <ele>6.87</ele>
        <time>2021-06-30T17:43:27Z</time>
      </trkpt>
      <trkpt lat="45.00678" lon="-1.18917">
        <ele>6.87</ele>
        <time>2021-06-30T17:43:28Z</time>
      </trkpt>
      <trkpt lat="45.0072" lon="-1.19006">
        <ele>9.27</ele>
        <time>2021-06-30T17:43:43Z</time>
      </trkpt>
      <trkpt lat="45.00747" lon="-1.19084">
        <ele>6.87</ele>
        <time>2021-06-30T17:44:01Z</time>
      </trkpt>
      <trkpt lat="45.0073" lon="-1.19116">
        <ele>6.39</ele>
        <time>2021-06-30T17:44:11Z</time>
      </trkpt>
      <trkpt lat="45.00712" lon="-1.19161">
        <ele>3.98</ele>
        <time>2021-06-30T17:44:23Z</time>
      </trkpt>
      <trkpt lat="45.00715" lon="-1.19172">
        <ele>3.02</ele>
        <time>2021-06-30T17:44:25Z</time>
      </trkpt>
      <trkpt lat="45.00714" lon="-1.19178">
        <ele>2.54</ele>
        <time>2021-06-30T17:44:26Z</time>
      </trkpt>
      <trkpt lat="45.00712" lon="-1.19184">
        <ele>2.54</ele>
        <time>2021-06-30T17:44:27Z</time>
      </trkpt>
      <trkpt lat="45.00711" lon="-1.19191">
        <ele>2.54</ele>
        <time>2021-06-30T17:44:28Z</time>
      </trkpt>
      <trkpt lat="45.0071" lon="-1.19196">
        <ele>2.54</ele>
        <time>2021-06-30T17:44:29Z</time>
      </trkpt>
      <trkpt lat="45.00708" lon="-1.19201">
        <ele>2.54</ele>
        <time>2021-06-30T17:44:30Z</time>
      </trkpt>
      <trkpt lat="45.00706" lon="-1.19206">
        <ele>2.54</ele>
        <time>2021-06-30T17:44:31Z</time>
      </trkpt>
      <trkpt lat="45.00702" lon="-1.19208">
        <ele>2.54</ele>
        <time>2021-06-30T17:44:32Z</time>
      </trkpt>
      <trkpt lat="45.00681" lon="-1.19222">
        <ele>3.5</ele>
        <time>2021-06-30T17:44:40Z</time>
      </trkpt>
      <trkpt lat="45.00682" lon="-1.19227">
        <ele>3.02</ele>
        <time>2021-06-30T17:44:41Z</time>
      </trkpt>
      <trkpt lat="45.00683" lon="-1.19232">
        <ele>3.02</ele>
        <time>2021-06-30T17:44:42Z</time>
      </trkpt>
      <trkpt lat="45.00694" lon="-1.19299">
        <ele>1.58</ele>
        <time>2021-06-30T17:44:54Z</time>
      </trkpt>
      <trkpt lat="45.00692" lon="-1.19306">
        <ele>2.06</ele>
        <time>2021-06-30T17:44:55Z</time>
      </trkpt>
      <trkpt lat="45.00689" lon="-1.19307">
        <ele>1.58</ele>
        <time>2021-06-30T17:44:56Z</time>
      </trkpt>
      <trkpt lat="45.00686" lon="-1.19308">
        <ele>2.06</ele>
        <time>2021-06-30T17:44:57Z</time>
      </trkpt>
      <trkpt lat="45.00683" lon="-1.1931">
        <ele>2.54</ele>
        <time>2021-06-30T17:44:58Z</time>
      </trkpt>
      <trkpt lat="45.0068" lon="-1.19312">
        <ele>3.02</ele>
        <time>2021-06-30T17:44:59Z</time>
      </trkpt>
      <trkpt lat="45.00631" lon="-1.19347">
        <ele>3.5</ele>
        <time>2021-06-30T17:45:12Z</time>
      </trkpt>
      <trkpt lat="45.00627" lon="-1.19348">
        <ele>3.5</ele>
        <time>2021-06-30T17:45:13Z</time>
      </trkpt>
      <trkpt lat="45.006" lon="-1.19351">
        <ele>3.98</ele>
        <time>2021-06-30T17:45:19Z</time>
      </trkpt>
      <trkpt lat="45.00596" lon="-1.19352">
        <ele>3.98</ele>
        <time>2021-06-30T17:45:20Z</time>
      </trkpt>
      <trkpt lat="45.00591" lon="-1.19354">
        <ele>4.46</ele>
        <time>2021-06-30T17:45:21Z</time>
      </trkpt>
      <trkpt lat="45.00588" lon="-1.19357">
        <ele>4.46</ele>
        <time>2021-06-30T17:45:22Z</time>
      </trkpt>
      <trkpt lat="45.00584" lon="-1.1936">
        <ele>3.98</ele>
        <time>2021-06-30T17:45:23Z</time>
      </trkpt>
      <trkpt lat="45.0056" lon="-1.19379">
        <ele>5.42</ele>
        <time>2021-06-30T17:45:35Z</time>
      </trkpt>
      <trkpt lat="45.00558" lon="-1.19374">
        <ele>4.94</ele>
        <time>2021-06-30T17:45:36Z</time>
      </trkpt>
      <trkpt lat="45.00549" lon="-1.19357">
        <ele>4.46</ele>
        <time>2021-06-30T17:45:40Z</time>
      </trkpt>
      <trkpt lat="45.00499" lon="-1.19305">
        <ele>4.94</ele>
        <time>2021-06-30T17:45:55Z</time>
      </trkpt>
      <trkpt lat="45.00496" lon="-1.19306">
        <ele>4.94</ele>
        <time>2021-06-30T17:45:56Z</time>
      </trkpt>
      <trkpt lat="45.00493" lon="-1.19309">
        <ele>5.42</ele>
        <time>2021-06-30T17:45:57Z</time>
      </trkpt>
      <trkpt lat="45.00475" lon="-1.19327">
        <ele>7.83</ele>
        <time>2021-06-30T17:46:01Z</time>
      </trkpt>
      <trkpt lat="45.00475" lon="-1.19327">
        <ele>8.31</ele>
        <time>2021-06-30T17:46:02Z</time>
      </trkpt>
      <trkpt lat="45.0047" lon="-1.1933">
        <ele>8.31</ele>
        <time>2021-06-30T17:46:03Z</time>
      </trkpt>
      <trkpt lat="45.00407" lon="-1.19369">
        <ele>5.42</ele>
        <time>2021-06-30T17:46:16Z</time>
      </trkpt>
      <trkpt lat="45.00403" lon="-1.19372">
        <ele>4.94</ele>
        <time>2021-06-30T17:46:17Z</time>
      </trkpt>
      <trkpt lat="45.00398" lon="-1.19376">
        <ele>4.46</ele>
        <time>2021-06-30T17:46:18Z</time>
      </trkpt>
      <trkpt lat="45.00394" lon="-1.19379">
        <ele>4.46</ele>
        <time>2021-06-30T17:46:19Z</time>
      </trkpt>
      <trkpt lat="45.00385" lon="-1.19386">
        <ele>4.46</ele>
        <time>2021-06-30T17:46:20Z</time>
      </trkpt>
      <trkpt lat="45.00385" lon="-1.19386">
        <ele>4.46</ele>
        <time>2021-06-30T17:46:21Z</time>
      </trkpt>
      <trkpt lat="45.00339" lon="-1.19401">
        <ele>8.79</ele>
        <time>2021-06-30T17:46:34Z</time>
      </trkpt>
      <trkpt lat="45.00329" lon="-1.19397">
        <ele>8.31</ele>
        <time>2021-06-30T17:46:43Z</time>
      </trkpt>
      <trkpt lat="45.00301" lon="-1.19367">
        <ele>4.94</ele>
        <time>2021-06-30T17:46:57Z</time>
      </trkpt>
      <trkpt lat="45.00247" lon="-1.1935">
        <ele>3.5</ele>
        <time>2021-06-30T17:47:12Z</time>
      </trkpt>
      <trkpt lat="45.00234" lon="-1.19346">
        <ele>3.5</ele>
        <time>2021-06-30T17:47:24Z</time>
      </trkpt>
      <trkpt lat="45.00234" lon="-1.19346">
        <ele>2.54</ele>
        <time>2021-06-30T18:01:47Z</time>
      </trkpt>
    </trkseg>
  </trk>
  <trk>
    <name><![CDATA[Journal actif: 2021-06-30 16:03]]></name>
    <trkseg>
      <trkpt lat="45.00234" lon="-1.19346">
        <ele>2.54</ele>
        <time>2021-06-30T18:03:43Z</time>
      </trkpt>
      <trkpt lat="45.00234" lon="-1.19346">
        <ele>2.06</ele>
        <time>2021-06-30T18:04:22Z</time>
      </trkpt>
      <trkpt lat="45.00228" lon="-1.19344">
        <ele>2.54</ele>
        <time>2021-06-30T18:04:23Z</time>
      </trkpt>
      <trkpt lat="45.00228" lon="-1.19344">
        <ele>2.54</ele>
        <time>2021-06-30T18:04:24Z</time>
      </trkpt>
      <trkpt lat="45.002" lon="-1.19338">
        <ele>3.02</ele>
        <time>2021-06-30T18:04:40Z</time>
      </trkpt>
      <trkpt lat="45.0016" lon="-1.19305">
        <ele>3.5</ele>
        <time>2021-06-30T18:04:52Z</time>
      </trkpt>
      <trkpt lat="45.00123" lon="-1.19242">
        <ele>2.54</ele>
        <time>2021-06-30T18:05:06Z</time>
      </trkpt>
      <trkpt lat="45.00115" lon="-1.19228">
        <ele>3.02</ele>
        <time>2021-06-30T18:05:10Z</time>
      </trkpt>
      <trkpt lat="45.00117" lon="-1.19224">
        <ele>3.02</ele>
        <time>2021-06-30T18:05:11Z</time>
      </trkpt>
      <trkpt lat="45.00118" lon="-1.19219">
        <ele>3.5</ele>
        <time>2021-06-30T18:05:12Z</time>
      </trkpt>
      <trkpt lat="45.0015" lon="-1.19165">
        <ele>4.94</ele>
        <time>2021-06-30T18:05:20Z</time>
      </trkpt>
      <trkpt lat="45.00217" lon="-1.18989">
        <ele>6.87</ele>
        <time>2021-06-30T18:05:36Z</time>
      </trkpt>
      <trkpt lat="45.00244" lon="-1.18854">
        <ele>4.46</ele>
        <time>2021-06-30T18:05:48Z</time>
      </trkpt>
      <trkpt lat="45.00252" lon="-1.18655">
        <ele>3.5</ele>
        <time>2021-06-30T18:06:04Z</time>
      </trkpt>
      <trkpt lat="45.00255" lon="-1.18583">
        <ele>3.02</ele>
        <time>2021-06-30T18:06:11Z</time>
      </trkpt>
      <trkpt lat="45.00255" lon="-1.18573">
        <ele>3.5</ele>
        <time>2021-06-30T18:06:13Z</time>
      </trkpt>
      <trkpt lat="45.00255" lon="-1.18554">
        <ele>3.98</ele>
        <time>2021-06-30T18:06:14Z</time>
      </trkpt>
      <trkpt lat="45.00255" lon="-1.18541">
        <ele>3.98</ele>
        <time>2021-06-30T18:06:15Z</time>
      </trkpt>
      <trkpt lat="45.00255" lon="-1.18541">
        <ele>3.98</ele>
        <time>2021-06-30T18:06:16Z</time>
      </trkpt>
      <trkpt lat="45.00255" lon="-1.18531">
        <ele>3.98</ele>
        <time>2021-06-30T18:06:17Z</time>
      </trkpt>
      <trkpt lat="45.00255" lon="-1.18521">
        <ele>3.98</ele>
        <time>2021-06-30T18:06:18Z</time>
      </trkpt>
      <trkpt lat="45.00258" lon="-1.1847">
        <ele>4.46</ele>
        <time>2021-06-30T18:06:22Z</time>
      </trkpt>
      <trkpt lat="45.00259" lon="-1.18454">
        <ele>4.46</ele>
        <time>2021-06-30T18:06:23Z</time>
      </trkpt>
      <trkpt lat="45.00291" lon="-1.18299">
        <ele>7.35</ele>
        <time>2021-06-30T18:06:33Z</time>
      </trkpt>
      <trkpt lat="45.00301" lon="-1.18272">
        <ele>5.91</ele>
        <time>2021-06-30T18:06:35Z</time>
      </trkpt>
      <trkpt lat="45.00309" lon="-1.18249">
        <ele>6.87</ele>
        <time>2021-06-30T18:06:37Z</time>
      </trkpt>
      <trkpt lat="45.00314" lon="-1.18238">
        <ele>6.39</ele>
        <time>2021-06-30T18:06:38Z</time>
      </trkpt>
      <trkpt lat="45.0032" lon="-1.18229">
        <ele>6.39</ele>
        <time>2021-06-30T18:06:39Z</time>
      </trkpt>
      <trkpt lat="45.00325" lon="-1.18222">
        <ele>7.35</ele>
        <time>2021-06-30T18:06:40Z</time>
      </trkpt>
      <trkpt lat="45.00331" lon="-1.18217">
        <ele>6.87</ele>
        <time>2021-06-30T18:06:41Z</time>
      </trkpt>
      <trkpt lat="45.00337" lon="-1.18212">
        <ele>7.35</ele>
        <time>2021-06-30T18:06:42Z</time>
      </trkpt>
      <trkpt lat="45.00341" lon="-1.18208">
        <ele>7.83</ele>
        <time>2021-06-30T18:06:43Z</time>
      </trkpt>
      <trkpt lat="45.00345" lon="-1.18205">
        <ele>7.83</ele>
        <time>2021-06-30T18:06:44Z</time>
      </trkpt>
      <trkpt lat="45.00344" lon="-1.18174">
        <ele>8.31</ele>
        <time>2021-06-30T18:06:46Z</time>
      </trkpt>
      <trkpt lat="45.00344" lon="-1.18174">
        <ele>8.79</ele>
        <time>2021-06-30T18:06:47Z</time>
      </trkpt>
      <trkpt lat="45.00349" lon="-1.18168">
        <ele>9.27</ele>
        <time>2021-06-30T18:06:48Z</time>
      </trkpt>
      <trkpt lat="45.00353" lon="-1.18161">
        <ele>9.27</ele>
        <time>2021-06-30T18:06:49Z</time>
      </trkpt>
      <trkpt lat="45.00359" lon="-1.18157">
        <ele>9.27</ele>
        <time>2021-06-30T18:06:50Z</time>
      </trkpt>
      <trkpt lat="45.00366" lon="-1.18155">
        <ele>8.79</ele>
        <time>2021-06-30T18:06:51Z</time>
      </trkpt>
      <trkpt lat="45.00372" lon="-1.18154">
        <ele>8.79</ele>
        <time>2021-06-30T18:06:52Z</time>
      </trkpt>
      <trkpt lat="45.00382" lon="-1.18145">
        <ele>8.79</ele>
        <time>2021-06-30T18:06:53Z</time>
      </trkpt>
      <trkpt lat="45.00382" lon="-1.18145">
        <ele>9.27</ele>
        <time>2021-06-30T18:06:54Z</time>
      </trkpt>
      <trkpt lat="45.00387" lon="-1.1814">
        <ele>9.27</ele>
        <time>2021-06-30T18:06:55Z</time>
      </trkpt>
      <trkpt lat="45.00393" lon="-1.18133">
        <ele>9.27</ele>
        <time>2021-06-30T18:06:56Z</time>
      </trkpt>
      <trkpt lat="45.004" lon="-1.18126">
        <ele>9.75</ele>
        <time>2021-06-30T18:06:57Z</time>
      </trkpt>
      <trkpt lat="45.00407" lon="-1.18119">
        <ele>9.75</ele>
        <time>2021-06-30T18:06:58Z</time>
      </trkpt>
      <trkpt lat="45.00486" lon="-1.18015">
        <ele>10.23</ele>
        <time>2021-06-30T18:07:08Z</time>
      </trkpt>
      <trkpt lat="45.00588" lon="-1.17834">
        <ele>15.52</ele>
        <time>2021-06-30T18:07:21Z</time>
      </trkpt>
      <trkpt lat="45.00596" lon="-1.17802">
        <ele>16</ele>
        <time>2021-06-30T18:07:23Z</time>
      </trkpt>
      <trkpt lat="45.00599" lon="-1.17784">
        <ele>15.52</ele>
        <time>2021-06-30T18:07:24Z</time>
      </trkpt>
      <trkpt lat="45.006" lon="-1.17639">
        <ele>11.19</ele>
        <time>2021-06-30T18:07:33Z</time>
      </trkpt>
      <trkpt lat="45.00599" lon="-1.17631">
        <ele>11.67</ele>
        <time>2021-06-30T18:07:35Z</time>
      </trkpt>
      <trkpt lat="45.00597" lon="-1.17623">
        <ele>11.67</ele>
        <time>2021-06-30T18:07:36Z</time>
      </trkpt>
      <trkpt lat="45.00593" lon="-1.1761">
        <ele>12.15</ele>
        <time>2021-06-30T18:07:38Z</time>
      </trkpt>
      <trkpt lat="45.0059" lon="-1.17603">
        <ele>12.15</ele>
        <time>2021-06-30T18:07:39Z</time>
      </trkpt>
      <trkpt lat="45.00587" lon="-1.17596">
        <ele>12.63</ele>
        <time>2021-06-30T18:07:40Z</time>
      </trkpt>
      <trkpt lat="45.00588" lon="-1.17586">
        <ele>12.63</ele>
        <time>2021-06-30T18:07:41Z</time>
      </trkpt>
      <trkpt lat="45.0059" lon="-1.1758">
        <ele>13.12</ele>
        <time>2021-06-30T18:07:42Z</time>
      </trkpt>
      <trkpt lat="45.00593" lon="-1.17575">
        <ele>13.12</ele>
        <time>2021-06-30T18:07:43Z</time>
      </trkpt>
      <trkpt lat="45.00597" lon="-1.17569">
        <ele>12.15</ele>
        <time>2021-06-30T18:07:44Z</time>
      </trkpt>
      <trkpt lat="45.006" lon="-1.17567">
        <ele>11.67</ele>
        <time>2021-06-30T18:07:45Z</time>
      </trkpt>
      <trkpt lat="45.00606" lon="-1.17567">
        <ele>10.71</ele>
        <time>2021-06-30T18:07:46Z</time>
      </trkpt>
      <trkpt lat="45.00612" lon="-1.17567">
        <ele>10.23</ele>
        <time>2021-06-30T18:07:47Z</time>
      </trkpt>
      <trkpt lat="45.00618" lon="-1.17567">
        <ele>9.75</ele>
        <time>2021-06-30T18:07:48Z</time>
      </trkpt>
      <trkpt lat="45.00622" lon="-1.17573">
        <ele>9.27</ele>
        <time>2021-06-30T18:07:49Z</time>
      </trkpt>
      <trkpt lat="45.00629" lon="-1.1758">
        <ele>8.79</ele>
        <time>2021-06-30T18:07:50Z</time>
      </trkpt>
      <trkpt lat="45.00635" lon="-1.17583">
        <ele>8.31</ele>
        <time>2021-06-30T18:07:51Z</time>
      </trkpt>
      <trkpt lat="45.00642" lon="-1.17585">
        <ele>7.83</ele>
        <time>2021-06-30T18:07:52Z</time>
      </trkpt>
      <trkpt lat="45.00649" lon="-1.17588">
        <ele>7.35</ele>
        <time>2021-06-30T18:07:53Z</time>
      </trkpt>
      <trkpt lat="45.00658" lon="-1.1759">
        <ele>6.87</ele>
        <time>2021-06-30T18:07:54Z</time>
      </trkpt>
      <trkpt lat="45.00667" lon="-1.1759">
        <ele>6.87</ele>
        <time>2021-06-30T18:07:55Z</time>
      </trkpt>
      <trkpt lat="45.00793" lon="-1.17583">
        <ele>8.31</ele>
        <time>2021-06-30T18:08:06Z</time>
      </trkpt>
      <trkpt lat="45.00979" lon="-1.1756">
        <ele>10.23</ele>
        <time>2021-06-30T18:08:22Z</time>
      </trkpt>
      <trkpt lat="45.00991" lon="-1.17554">
        <ele>9.75</ele>
        <time>2021-06-30T18:08:23Z</time>
      </trkpt>
      <trkpt lat="45.01015" lon="-1.17541">
        <ele>9.75</ele>
        <time>2021-06-30T18:08:24Z</time>
      </trkpt>
      <trkpt lat="45.01026" lon="-1.1753">
        <ele>9.75</ele>
        <time>2021-06-30T18:08:25Z</time>
      </trkpt>
      <trkpt lat="45.01106" lon="-1.17435">
        <ele>11.19</ele>
        <time>2021-06-30T18:08:34Z</time>
      </trkpt>
      <trkpt lat="45.01201" lon="-1.17293">
        <ele>9.75</ele>
        <time>2021-06-30T18:08:44Z</time>
      </trkpt>
      <trkpt lat="45.01311" lon="-1.17232">
        <ele>8.79</ele>
        <time>2021-06-30T18:08:52Z</time>
      </trkpt>
      <trkpt lat="45.01427" lon="-1.17243">
        <ele>13.6</ele>
        <time>2021-06-30T18:09:00Z</time>
      </trkpt>
      <trkpt lat="45.01539" lon="-1.17324">
        <ele>12.15</ele>
        <time>2021-06-30T18:09:09Z</time>
      </trkpt>
      <trkpt lat="45.01725" lon="-1.17498">
        <ele>9.75</ele>
        <time>2021-06-30T18:09:25Z</time>
      </trkpt>
      <trkpt lat="45.01857" lon="-1.17655">
        <ele>11.19</ele>
        <time>2021-06-30T18:09:37Z</time>
      </trkpt>
      <trkpt lat="45.0197" lon="-1.17761">
        <ele>7.83</ele>
        <time>2021-06-30T18:09:47Z</time>
      </trkpt>
      <trkpt lat="45.01998" lon="-1.17769">
        <ele>8.79</ele>
        <time>2021-06-30T18:09:49Z</time>
      </trkpt>
      <trkpt lat="45.02041" lon="-1.1777">
        <ele>9.75</ele>
        <time>2021-06-30T18:09:51Z</time>
      </trkpt>
      <trkpt lat="45.02041" lon="-1.1777">
        <ele>9.75</ele>
        <time>2021-06-30T18:09:52Z</time>
      </trkpt>
      <trkpt lat="45.02055" lon="-1.17768">
        <ele>9.75</ele>
        <time>2021-06-30T18:09:53Z</time>
      </trkpt>
      <trkpt lat="45.02068" lon="-1.17763">
        <ele>10.23</ele>
        <time>2021-06-30T18:09:54Z</time>
      </trkpt>
      <trkpt lat="45.02095" lon="-1.17751">
        <ele>10.23</ele>
        <time>2021-06-30T18:09:55Z</time>
      </trkpt>
      <trkpt lat="45.02302" lon="-1.17618">
        <ele>12.15</ele>
        <time>2021-06-30T18:10:10Z</time>
      </trkpt>
      <trkpt lat="45.02494" lon="-1.17521">
        <ele>9.75</ele>
        <time>2021-06-30T18:10:25Z</time>
      </trkpt>
      <trkpt lat="45.02663" lon="-1.17518">
        <ele>11.19</ele>
        <time>2021-06-30T18:10:36Z</time>
      </trkpt>
      <trkpt lat="45.02899" lon="-1.17509">
        <ele>10.71</ele>
        <time>2021-06-30T18:10:52Z</time>
      </trkpt>
      <trkpt lat="45.03052" lon="-1.17504">
        <ele>13.12</ele>
        <time>2021-06-30T18:11:04Z</time>
      </trkpt>
      <trkpt lat="45.03228" lon="-1.17565">
        <ele>8.79</ele>
        <time>2021-06-30T18:11:18Z</time>
      </trkpt>
      <trkpt lat="45.0327" lon="-1.17579">
        <ele>8.31</ele>
        <time>2021-06-30T18:11:21Z</time>
      </trkpt>
      <trkpt lat="45.03283" lon="-1.17581">
        <ele>8.31</ele>
        <time>2021-06-30T18:11:22Z</time>
      </trkpt>
      <trkpt lat="45.03297" lon="-1.1758">
        <ele>8.31</ele>
        <time>2021-06-30T18:11:23Z</time>
      </trkpt>
      <trkpt lat="45.03311" lon="-1.17578">
        <ele>8.79</ele>
        <time>2021-06-30T18:11:24Z</time>
      </trkpt>
      <trkpt lat="45.03325" lon="-1.17576">
        <ele>8.79</ele>
        <time>2021-06-30T18:11:25Z</time>
      </trkpt>
      <trkpt lat="45.03468" lon="-1.1755">
        <ele>14.08</ele>
        <time>2021-06-30T18:11:35Z</time>
      </trkpt>
      <trkpt lat="45.03695" lon="-1.17588">
        <ele>15.52</ele>
        <time>2021-06-30T18:11:50Z</time>
      </trkpt>
      <trkpt lat="45.0389" lon="-1.17615">
        <ele>13.12</ele>
        <time>2021-06-30T18:12:03Z</time>
      </trkpt>
      <trkpt lat="45.04062" lon="-1.17593">
        <ele>13.6</ele>
        <time>2021-06-30T18:12:15Z</time>
      </trkpt>
      <trkpt lat="45.04164" lon="-1.17535">
        <ele>13.6</ele>
        <time>2021-06-30T18:12:23Z</time>
      </trkpt>
      <trkpt lat="45.0432" lon="-1.17418">
        <ele>12.15</ele>
        <time>2021-06-30T18:12:35Z</time>
      </trkpt>
      <trkpt lat="45.04409" lon="-1.17364">
        <ele>14.56</ele>
        <time>2021-06-30T18:12:41Z</time>
      </trkpt>
      <trkpt lat="45.04409" lon="-1.17364">
        <ele>16</ele>
        <time>2021-06-30T18:12:42Z</time>
      </trkpt>
      <trkpt lat="45.04424" lon="-1.17363">
        <ele>16.96</ele>
        <time>2021-06-30T18:12:43Z</time>
      </trkpt>
      <trkpt lat="45.04507" lon="-1.17356">
        <ele>18.4</ele>
        <time>2021-06-30T18:12:49Z</time>
      </trkpt>
      <trkpt lat="45.0452" lon="-1.17357">
        <ele>18.4</ele>
        <time>2021-06-30T18:12:50Z</time>
      </trkpt>
      <trkpt lat="45.04533" lon="-1.17362">
        <ele>17.92</ele>
        <time>2021-06-30T18:12:51Z</time>
      </trkpt>
      <trkpt lat="45.04547" lon="-1.17368">
        <ele>16.48</ele>
        <time>2021-06-30T18:12:52Z</time>
      </trkpt>
      <trkpt lat="45.04561" lon="-1.17374">
        <ele>15.52</ele>
        <time>2021-06-30T18:12:53Z</time>
      </trkpt>
      <trkpt lat="45.04671" lon="-1.17405">
        <ele>17.44</ele>
        <time>2021-06-30T18:13:01Z</time>
      </trkpt>
      <trkpt lat="45.04839" lon="-1.17403">
        <ele>16.96</ele>
        <time>2021-06-30T18:13:12Z</time>
      </trkpt>
      <trkpt lat="45.04967" lon="-1.17338">
        <ele>16.48</ele>
        <time>2021-06-30T18:13:23Z</time>
      </trkpt>
      <trkpt lat="45.04979" lon="-1.1733">
        <ele>16.96</ele>
        <time>2021-06-30T18:13:24Z</time>
      </trkpt>
      <trkpt lat="45.04992" lon="-1.17322">
        <ele>15.52</ele>
        <time>2021-06-30T18:13:25Z</time>
      </trkpt>
      <trkpt lat="45.05004" lon="-1.17317">
        <ele>16</ele>
        <time>2021-06-30T18:13:26Z</time>
      </trkpt>
      <trkpt lat="45.05017" lon="-1.17312">
        <ele>16.48</ele>
        <time>2021-06-30T18:13:27Z</time>
      </trkpt>
      <trkpt lat="45.05029" lon="-1.17312">
        <ele>16.96</ele>
        <time>2021-06-30T18:13:28Z</time>
      </trkpt>
      <trkpt lat="45.05041" lon="-1.17314">
        <ele>16.48</ele>
        <time>2021-06-30T18:13:29Z</time>
      </trkpt>
      <trkpt lat="45.05055" lon="-1.17315">
        <ele>16.48</ele>
        <time>2021-06-30T18:13:30Z</time>
      </trkpt>
      <trkpt lat="45.05068" lon="-1.17319">
        <ele>15.52</ele>
        <time>2021-06-30T18:13:31Z</time>
      </trkpt>
      <trkpt lat="45.05081" lon="-1.17327">
        <ele>13.12</ele>
        <time>2021-06-30T18:13:32Z</time>
      </trkpt>
      <trkpt lat="45.05093" lon="-1.17337">
        <ele>11.19</ele>
        <time>2021-06-30T18:13:33Z</time>
      </trkpt>
      <trkpt lat="45.05236" lon="-1.17478">
        <ele>7.83</ele>
        <time>2021-06-30T18:13:45Z</time>
      </trkpt>
      <trkpt lat="45.05278" lon="-1.17516">
        <ele>10.23</ele>
        <time>2021-06-30T18:13:49Z</time>
      </trkpt>
      <trkpt lat="45.05289" lon="-1.17523">
        <ele>11.67</ele>
        <time>2021-06-30T18:13:50Z</time>
      </trkpt>
      <trkpt lat="45.05299" lon="-1.17529">
        <ele>10.23</ele>
        <time>2021-06-30T18:13:51Z</time>
      </trkpt>
      <trkpt lat="45.0531" lon="-1.17532">
        <ele>10.71</ele>
        <time>2021-06-30T18:13:52Z</time>
      </trkpt>
      <trkpt lat="45.05322" lon="-1.17535">
        <ele>11.19</ele>
        <time>2021-06-30T18:13:53Z</time>
      </trkpt>
      <trkpt lat="45.05481" lon="-1.17591">
        <ele>12.63</ele>
        <time>2021-06-30T18:14:05Z</time>
      </trkpt>
      <trkpt lat="45.05546" lon="-1.17624">
        <ele>12.63</ele>
        <time>2021-06-30T18:14:10Z</time>
      </trkpt>
      <trkpt lat="45.05625" lon="-1.17712">
        <ele>12.63</ele>
        <time>2021-06-30T18:14:17Z</time>
      </trkpt>
      <trkpt lat="45.05636" lon="-1.17721">
        <ele>12.15</ele>
        <time>2021-06-30T18:14:18Z</time>
      </trkpt>
      <trkpt lat="45.05649" lon="-1.17728">
        <ele>12.15</ele>
        <time>2021-06-30T18:14:19Z</time>
      </trkpt>
      <trkpt lat="45.05662" lon="-1.17735">
        <ele>12.63</ele>
        <time>2021-06-30T18:14:20Z</time>
      </trkpt>
      <trkpt lat="45.05675" lon="-1.17738">
        <ele>12.63</ele>
        <time>2021-06-30T18:14:21Z</time>
      </trkpt>
      <trkpt lat="45.05689" lon="-1.17738">
        <ele>13.12</ele>
        <time>2021-06-30T18:14:22Z</time>
      </trkpt>
      <trkpt lat="45.05704" lon="-1.17738">
        <ele>12.63</ele>
        <time>2021-06-30T18:14:23Z</time>
      </trkpt>
      <trkpt lat="45.05789" lon="-1.17721">
        <ele>12.15</ele>
        <time>2021-06-30T18:14:29Z</time>
      </trkpt>
      <trkpt lat="45.05803" lon="-1.17717">
        <ele>12.63</ele>
        <time>2021-06-30T18:14:30Z</time>
      </trkpt>
      <trkpt lat="45.05815" lon="-1.17707">
        <ele>11.19</ele>
        <time>2021-06-30T18:14:31Z</time>
      </trkpt>
      <trkpt lat="45.05826" lon="-1.17697">
        <ele>10.23</ele>
        <time>2021-06-30T18:14:32Z</time>
      </trkpt>
      <trkpt lat="45.05836" lon="-1.17685">
        <ele>10.71</ele>
        <time>2021-06-30T18:14:33Z</time>
      </trkpt>
      <trkpt lat="45.05846" lon="-1.17669">
        <ele>11.19</ele>
        <time>2021-06-30T18:14:34Z</time>
      </trkpt>
      <trkpt lat="45.05898" lon="-1.17598">
        <ele>11.19</ele>
        <time>2021-06-30T18:14:39Z</time>
      </trkpt>
      <trkpt lat="45.05909" lon="-1.17588">
        <ele>10.71</ele>
        <time>2021-06-30T18:14:40Z</time>
      </trkpt>
      <trkpt lat="45.05921" lon="-1.17576">
        <ele>8.79</ele>
        <time>2021-06-30T18:14:41Z</time>
      </trkpt>
      <trkpt lat="45.05934" lon="-1.17568">
        <ele>8.31</ele>
        <time>2021-06-30T18:14:42Z</time>
      </trkpt>
      <trkpt lat="45.05949" lon="-1.17562">
        <ele>7.35</ele>
        <time>2021-06-30T18:14:43Z</time>
      </trkpt>
      <trkpt lat="45.05962" lon="-1.17558">
        <ele>7.35</ele>
        <time>2021-06-30T18:14:44Z</time>
      </trkpt>
      <trkpt lat="45.06088" lon="-1.17545">
        <ele>10.23</ele>
        <time>2021-06-30T18:14:52Z</time>
      </trkpt>
      <trkpt lat="45.06103" lon="-1.17546">
        <ele>10.23</ele>
        <time>2021-06-30T18:14:53Z</time>
      </trkpt>
      <trkpt lat="45.06118" lon="-1.1755">
        <ele>9.75</ele>
        <time>2021-06-30T18:14:54Z</time>
      </trkpt>
      <trkpt lat="45.06204" lon="-1.17589">
        <ele>11.67</ele>
        <time>2021-06-30T18:15:00Z</time>
      </trkpt>
      <trkpt lat="45.06248" lon="-1.17598">
        <ele>12.63</ele>
        <time>2021-06-30T18:15:03Z</time>
      </trkpt>
      <trkpt lat="45.06261" lon="-1.17601">
        <ele>13.12</ele>
        <time>2021-06-30T18:15:04Z</time>
      </trkpt>
      <trkpt lat="45.06275" lon="-1.17609">
        <ele>13.12</ele>
        <time>2021-06-30T18:15:05Z</time>
      </trkpt>
      <trkpt lat="45.06288" lon="-1.17616">
        <ele>12.15</ele>
        <time>2021-06-30T18:15:06Z</time>
      </trkpt>
      <trkpt lat="45.063" lon="-1.17627">
        <ele>12.15</ele>
        <time>2021-06-30T18:15:07Z</time>
      </trkpt>
      <trkpt lat="45.06349" lon="-1.17671">
        <ele>11.19</ele>
        <time>2021-06-30T18:15:11Z</time>
      </trkpt>
      <trkpt lat="45.06362" lon="-1.17678">
        <ele>11.19</ele>
        <time>2021-06-30T18:15:12Z</time>
      </trkpt>
      <trkpt lat="45.06376" lon="-1.17683">
        <ele>11.19</ele>
        <time>2021-06-30T18:15:13Z</time>
      </trkpt>
      <trkpt lat="45.0639" lon="-1.17686">
        <ele>10.71</ele>
        <time>2021-06-30T18:15:14Z</time>
      </trkpt>
      <trkpt lat="45.06405" lon="-1.17688">
        <ele>10.71</ele>
        <time>2021-06-30T18:15:15Z</time>
      </trkpt>
      <trkpt lat="45.06418" lon="-1.17684">
        <ele>9.75</ele>
        <time>2021-06-30T18:15:16Z</time>
      </trkpt>
      <trkpt lat="45.06431" lon="-1.17678">
        <ele>9.75</ele>
        <time>2021-06-30T18:15:17Z</time>
      </trkpt>
      <trkpt lat="45.06446" lon="-1.17671">
        <ele>9.75</ele>
        <time>2021-06-30T18:15:18Z</time>
      </trkpt>
      <trkpt lat="45.06458" lon="-1.17664">
        <ele>9.75</ele>
        <time>2021-06-30T18:15:19Z</time>
      </trkpt>
      <trkpt lat="45.06469" lon="-1.17652">
        <ele>11.19</ele>
        <time>2021-06-30T18:15:20Z</time>
      </trkpt>
      <trkpt lat="45.0648" lon="-1.1764">
        <ele>11.67</ele>
        <time>2021-06-30T18:15:21Z</time>
      </trkpt>
      <trkpt lat="45.06491" lon="-1.17626">
        <ele>11.19</ele>
        <time>2021-06-30T18:15:22Z</time>
      </trkpt>
      <trkpt lat="45.065" lon="-1.1761">
        <ele>10.71</ele>
        <time>2021-06-30T18:15:23Z</time>
      </trkpt>
      <trkpt lat="45.06548" lon="-1.17526">
        <ele>11.19</ele>
        <time>2021-06-30T18:15:28Z</time>
      </trkpt>
      <trkpt lat="45.06557" lon="-1.17509">
        <ele>11.19</ele>
        <time>2021-06-30T18:15:29Z</time>
      </trkpt>
      <trkpt lat="45.06568" lon="-1.17501">
        <ele>10.71</ele>
        <time>2021-06-30T18:15:30Z</time>
      </trkpt>
      <trkpt lat="45.06583" lon="-1.17491">
        <ele>11.19</ele>
        <time>2021-06-30T18:15:31Z</time>
      </trkpt>
      <trkpt lat="45.06597" lon="-1.17481">
        <ele>10.71</ele>
        <time>2021-06-30T18:15:32Z</time>
      </trkpt>
      <trkpt lat="45.06706" lon="-1.17395">
        <ele>13.6</ele>
        <time>2021-06-30T18:15:39Z</time>
      </trkpt>
      <trkpt lat="45.06706" lon="-1.17395">
        <ele>12.63</ele>
        <time>2021-06-30T18:15:40Z</time>
      </trkpt>
      <trkpt lat="45.06728" lon="-1.17366">
        <ele>12.63</ele>
        <time>2021-06-30T18:15:41Z</time>
      </trkpt>
      <trkpt lat="45.06767" lon="-1.17305">
        <ele>12.15</ele>
        <time>2021-06-30T18:15:46Z</time>
      </trkpt>
      <trkpt lat="45.0679" lon="-1.17281">
        <ele>12.63</ele>
        <time>2021-06-30T18:15:47Z</time>
      </trkpt>
      <trkpt lat="45.06803" lon="-1.17269">
        <ele>13.12</ele>
        <time>2021-06-30T18:15:48Z</time>
      </trkpt>
      <trkpt lat="45.06816" lon="-1.1726">
        <ele>12.63</ele>
        <time>2021-06-30T18:15:49Z</time>
      </trkpt>
      <trkpt lat="45.06831" lon="-1.17254">
        <ele>12.15</ele>
        <time>2021-06-30T18:15:50Z</time>
      </trkpt>
      <trkpt lat="45.06846" lon="-1.17248">
        <ele>13.6</ele>
        <time>2021-06-30T18:15:51Z</time>
      </trkpt>
      <trkpt lat="45.06846" lon="-1.17248">
        <ele>14.08</ele>
        <time>2021-06-30T18:15:52Z</time>
      </trkpt>
      <trkpt lat="45.06862" lon="-1.17242">
        <ele>14.56</ele>
        <time>2021-06-30T18:15:53Z</time>
      </trkpt>
      <trkpt lat="45.06878" lon="-1.17241">
        <ele>15.04</ele>
        <time>2021-06-30T18:15:54Z</time>
      </trkpt>
      <trkpt lat="45.06895" lon="-1.17242">
        <ele>15.04</ele>
        <time>2021-06-30T18:15:55Z</time>
      </trkpt>
      <trkpt lat="45.06912" lon="-1.17243">
        <ele>15.52</ele>
        <time>2021-06-30T18:15:56Z</time>
      </trkpt>
      <trkpt lat="45.0703" lon="-1.17229">
        <ele>14.08</ele>
        <time>2021-06-30T18:16:04Z</time>
      </trkpt>
      <trkpt lat="45.07133" lon="-1.17224">
        <ele>11.19</ele>
        <time>2021-06-30T18:16:10Z</time>
      </trkpt>
      <trkpt lat="45.07133" lon="-1.17224">
        <ele>10.71</ele>
        <time>2021-06-30T18:16:11Z</time>
      </trkpt>
      <trkpt lat="45.07148" lon="-1.17227">
        <ele>9.27</ele>
        <time>2021-06-30T18:16:12Z</time>
      </trkpt>
      <trkpt lat="45.07266" lon="-1.17236">
        <ele>10.23</ele>
        <time>2021-06-30T18:16:20Z</time>
      </trkpt>
      <trkpt lat="45.07432" lon="-1.17212">
        <ele>13.12</ele>
        <time>2021-06-30T18:16:31Z</time>
      </trkpt>
      <trkpt lat="45.07483" lon="-1.17191">
        <ele>15.04</ele>
        <time>2021-06-30T18:16:34Z</time>
      </trkpt>
      <trkpt lat="45.07483" lon="-1.17191">
        <ele>15.04</ele>
        <time>2021-06-30T18:16:35Z</time>
      </trkpt>
      <trkpt lat="45.07521" lon="-1.17163">
        <ele>15.04</ele>
        <time>2021-06-30T18:16:38Z</time>
      </trkpt>
      <trkpt lat="45.07533" lon="-1.17158">
        <ele>16</ele>
        <time>2021-06-30T18:16:39Z</time>
      </trkpt>
      <trkpt lat="45.07546" lon="-1.17154">
        <ele>16</ele>
        <time>2021-06-30T18:16:40Z</time>
      </trkpt>
      <trkpt lat="45.0756" lon="-1.17153">
        <ele>16</ele>
        <time>2021-06-30T18:16:41Z</time>
      </trkpt>
      <trkpt lat="45.07574" lon="-1.17153">
        <ele>15.04</ele>
        <time>2021-06-30T18:16:42Z</time>
      </trkpt>
      <trkpt lat="45.07773" lon="-1.17156">
        <ele>14.08</ele>
        <time>2021-06-30T18:16:56Z</time>
      </trkpt>
      <trkpt lat="45.07834" lon="-1.17157">
        <ele>14.56</ele>
        <time>2021-06-30T18:17:02Z</time>
      </trkpt>
      <trkpt lat="45.07848" lon="-1.17153">
        <ele>14.56</ele>
        <time>2021-06-30T18:17:03Z</time>
      </trkpt>
      <trkpt lat="45.07854" lon="-1.17148">
        <ele>14.56</ele>
        <time>2021-06-30T18:17:04Z</time>
      </trkpt>
      <trkpt lat="45.07858" lon="-1.17144">
        <ele>15.04</ele>
        <time>2021-06-30T18:17:05Z</time>
      </trkpt>
      <trkpt lat="45.07858" lon="-1.17144">
        <ele>14.56</ele>
        <time>2021-06-30T18:17:06Z</time>
      </trkpt>
      <trkpt lat="45.07864" lon="-1.17143">
        <ele>14.08</ele>
        <time>2021-06-30T18:17:07Z</time>
      </trkpt>
      <trkpt lat="45.07868" lon="-1.17143">
        <ele>13.6</ele>
        <time>2021-06-30T18:17:08Z</time>
      </trkpt>
      <trkpt lat="45.07871" lon="-1.17142">
        <ele>14.08</ele>
        <time>2021-06-30T18:17:09Z</time>
      </trkpt>
      <trkpt lat="45.07873" lon="-1.17142">
        <ele>14.08</ele>
        <time>2021-06-30T18:17:10Z</time>
      </trkpt>
      <trkpt lat="45.07878" lon="-1.17143">
        <ele>14.08</ele>
        <time>2021-06-30T18:17:14Z</time>
      </trkpt>
      <trkpt lat="45.07879" lon="-1.17147">
        <ele>13.6</ele>
        <time>2021-06-30T18:17:15Z</time>
      </trkpt>
      <trkpt lat="45.07881" lon="-1.17153">
        <ele>13.12</ele>
        <time>2021-06-30T18:17:16Z</time>
      </trkpt>
      <trkpt lat="45.0792" lon="-1.17235">
        <ele>8.31</ele>
        <time>2021-06-30T18:17:23Z</time>
      </trkpt>
      <trkpt lat="45.08002" lon="-1.17414">
        <ele>4.46</ele>
        <time>2021-06-30T18:17:35Z</time>
      </trkpt>
      <trkpt lat="45.08093" lon="-1.17642">
        <ele>4.94</ele>
        <time>2021-06-30T18:17:50Z</time>
      </trkpt>
      <trkpt lat="45.08111" lon="-1.1769">
        <ele>6.39</ele>
        <time>2021-06-30T18:17:53Z</time>
      </trkpt>
      <trkpt lat="45.08129" lon="-1.17791">
        <ele>12.15</ele>
        <time>2021-06-30T18:17:59Z</time>
      </trkpt>
      <trkpt lat="45.0813" lon="-1.17807">
        <ele>11.67</ele>
        <time>2021-06-30T18:18:00Z</time>
      </trkpt>
      <trkpt lat="45.0812" lon="-1.17982">
        <ele>7.35</ele>
        <time>2021-06-30T18:18:10Z</time>
      </trkpt>
      <trkpt lat="45.08122" lon="-1.17998">
        <ele>8.31</ele>
        <time>2021-06-30T18:18:11Z</time>
      </trkpt>
      <trkpt lat="45.08124" lon="-1.18015">
        <ele>7.83</ele>
        <time>2021-06-30T18:18:12Z</time>
      </trkpt>
      <trkpt lat="45.08128" lon="-1.18032">
        <ele>6.87</ele>
        <time>2021-06-30T18:18:13Z</time>
      </trkpt>
      <trkpt lat="45.08134" lon="-1.18049">
        <ele>5.91</ele>
        <time>2021-06-30T18:18:14Z</time>
      </trkpt>
      <trkpt lat="45.0814" lon="-1.18065">
        <ele>6.39</ele>
        <time>2021-06-30T18:18:15Z</time>
      </trkpt>
      <trkpt lat="45.08208" lon="-1.18252">
        <ele>4.46</ele>
        <time>2021-06-30T18:18:26Z</time>
      </trkpt>
      <trkpt lat="45.08262" lon="-1.18392">
        <ele>5.42</ele>
        <time>2021-06-30T18:18:38Z</time>
      </trkpt>
      <trkpt lat="45.08283" lon="-1.18438">
        <ele>4.94</ele>
        <time>2021-06-30T18:18:42Z</time>
      </trkpt>
      <trkpt lat="45.08288" lon="-1.18449">
        <ele>4.94</ele>
        <time>2021-06-30T18:18:43Z</time>
      </trkpt>
      <trkpt lat="45.08304" lon="-1.18526">
        <ele>8.79</ele>
        <time>2021-06-30T18:18:48Z</time>
      </trkpt>
      <trkpt lat="45.08299" lon="-1.18625">
        <ele>4.94</ele>
        <time>2021-06-30T18:18:58Z</time>
      </trkpt>
      <trkpt lat="45.08298" lon="-1.18648">
        <ele>4.46</ele>
        <time>2021-06-30T18:19:01Z</time>
      </trkpt>
      <trkpt lat="45.08297" lon="-1.18654">
        <ele>4.46</ele>
        <time>2021-06-30T18:19:02Z</time>
      </trkpt>
      <trkpt lat="45.08297" lon="-1.18659">
        <ele>4.94</ele>
        <time>2021-06-30T18:19:03Z</time>
      </trkpt>
      <trkpt lat="45.08296" lon="-1.18664">
        <ele>4.46</ele>
        <time>2021-06-30T18:19:04Z</time>
      </trkpt>
      <trkpt lat="45.08291" lon="-1.18671">
        <ele>4.46</ele>
        <time>2021-06-30T18:19:05Z</time>
      </trkpt>
      <trkpt lat="45.08288" lon="-1.18672">
        <ele>4.46</ele>
        <time>2021-06-30T18:19:06Z</time>
      </trkpt>
      <trkpt lat="45.08285" lon="-1.18673">
        <ele>4.94</ele>
        <time>2021-06-30T18:19:07Z</time>
      </trkpt>
      <trkpt lat="45.08282" lon="-1.18674">
        <ele>5.42</ele>
        <time>2021-06-30T18:19:08Z</time>
      </trkpt>
      <trkpt lat="45.0828" lon="-1.18675">
        <ele>5.42</ele>
        <time>2021-06-30T18:19:09Z</time>
      </trkpt>
      <trkpt lat="45.08296" lon="-1.18663">
        <ele>5.42</ele>
        <time>2021-06-30T18:19:11Z</time>
      </trkpt>
      <trkpt lat="45.08297" lon="-1.18658">
        <ele>5.42</ele>
        <time>2021-06-30T18:19:12Z</time>
      </trkpt>
    </trkseg>
  </trk>
  <trk>
    <name><![CDATA[Journal actif: 2021-06-30 16:49]]></name>
    <trkseg>
      <trkpt lat="45.08268" lon="-1.18575">
        <ele>0.62</ele>
        <time>2021-06-30T18:49:48Z</time>
      </trkpt>
      <trkpt lat="45.08268" lon="-1.18576">
        <ele>0.14</ele>
        <time>2021-06-30T18:50:49Z</time>
      </trkpt>
      <trkpt lat="45.08273" lon="-1.18584">
        <ele>0.14</ele>
        <time>2021-06-30T18:51:03Z</time>
      </trkpt>
      <trkpt lat="45.08291" lon="-1.18583">
        <ele>0.14</ele>
        <time>2021-06-30T18:51:17Z</time>
      </trkpt>
      <trkpt lat="45.08304" lon="-1.18569">
        <ele>0.14</ele>
        <time>2021-06-30T18:51:30Z</time>
      </trkpt>
      <trkpt lat="45.08304" lon="-1.18569">
        <ele>0.14</ele>
        <time>2021-06-30T18:52:15Z</time>
      </trkpt>
      <trkpt lat="45.08304" lon="-1.18569">
        <ele>0.14</ele>
        <time>2021-06-30T18:52:16Z</time>
      </trkpt>
      <trkpt lat="45.08304" lon="-1.18569">
        <ele>0.14</ele>
        <time>2021-06-30T18:52:17Z</time>
      </trkpt>
      <trkpt lat="45.08303" lon="-1.18582">
        <ele>0.14</ele>
        <time>2021-06-30T18:52:18Z</time>
      </trkpt>
      <trkpt lat="45.08303" lon="-1.18585">
        <ele>0.14</ele>
        <time>2021-06-30T18:52:19Z</time>
      </trkpt>
      <trkpt lat="45.08302" lon="-1.18589">
        <ele>0.14</ele>
        <time>2021-06-30T18:52:20Z</time>
      </trkpt>
      <trkpt lat="45.08302" lon="-1.18594">
        <ele>-0.34</ele>
        <time>2021-06-30T18:52:21Z</time>
      </trkpt>
      <trkpt lat="45.08302" lon="-1.18598">
        <ele>-0.34</ele>
        <time>2021-06-30T18:52:22Z</time>
      </trkpt>
      <trkpt lat="45.08298" lon="-1.1864">
        <ele>-0.34</ele>
        <time>2021-06-30T18:52:30Z</time>
      </trkpt>
      <trkpt lat="45.08298" lon="-1.18646">
        <ele>-0.34</ele>
        <time>2021-06-30T18:52:31Z</time>
      </trkpt>
      <trkpt lat="45.08297" lon="-1.18658">
        <ele>-0.34</ele>
        <time>2021-06-30T18:52:32Z</time>
      </trkpt>
      <trkpt lat="45.08297" lon="-1.18658">
        <ele>-0.34</ele>
        <time>2021-06-30T18:52:33Z</time>
      </trkpt>
      <trkpt lat="45.0829" lon="-1.18672">
        <ele>-0.34</ele>
        <time>2021-06-30T18:52:34Z</time>
      </trkpt>
      <trkpt lat="45.08286" lon="-1.18673">
        <ele>-0.34</ele>
        <time>2021-06-30T18:52:35Z</time>
      </trkpt>
      <trkpt lat="45.08286" lon="-1.18673">
        <ele>-0.34</ele>
        <time>2021-06-30T18:52:36Z</time>
      </trkpt>
      <trkpt lat="45.08282" lon="-1.18674">
        <ele>-0.34</ele>
        <time>2021-06-30T18:52:37Z</time>
      </trkpt>
      <trkpt lat="45.08278" lon="-1.18676">
        <ele>-0.34</ele>
        <time>2021-06-30T18:52:38Z</time>
      </trkpt>
      <trkpt lat="45.08274" lon="-1.18677">
        <ele>-0.34</ele>
        <time>2021-06-30T18:52:39Z</time>
      </trkpt>
      <trkpt lat="45.0827" lon="-1.18679">
        <ele>-0.34</ele>
        <time>2021-06-30T18:52:40Z</time>
      </trkpt>
      <trkpt lat="45.08265" lon="-1.18681">
        <ele>-0.34</ele>
        <time>2021-06-30T18:52:41Z</time>
      </trkpt>
      <trkpt lat="45.08191" lon="-1.1871">
        <ele>-0.34</ele>
        <time>2021-06-30T18:52:55Z</time>
      </trkpt>
      <trkpt lat="45.08127" lon="-1.18737">
        <ele>0.14</ele>
        <time>2021-06-30T18:53:10Z</time>
      </trkpt>
      <trkpt lat="45.08123" lon="-1.18739">
        <ele>1.58</ele>
        <time>2021-06-30T18:53:19Z</time>
      </trkpt>
      <trkpt lat="45.0812" lon="-1.18756">
        <ele>1.58</ele>
        <time>2021-06-30T18:53:20Z</time>
      </trkpt>
      <trkpt lat="45.08139" lon="-1.18819">
        <ele>1.1</ele>
        <time>2021-06-30T18:53:34Z</time>
      </trkpt>
      <trkpt lat="45.08166" lon="-1.18902">
        <ele>0.14</ele>
        <time>2021-06-30T18:53:53Z</time>
      </trkpt>
      <trkpt lat="45.08177" lon="-1.18946">
        <ele>-0.34</ele>
        <time>2021-06-30T18:54:04Z</time>
      </trkpt>
      <trkpt lat="45.08176" lon="-1.1895">
        <ele>-0.34</ele>
        <time>2021-06-30T18:54:05Z</time>
      </trkpt>
      <trkpt lat="45.08176" lon="-1.18953">
        <ele>-0.34</ele>
        <time>2021-06-30T18:54:06Z</time>
      </trkpt>
      <trkpt lat="45.08175" lon="-1.18955">
        <ele>-0.82</ele>
        <time>2021-06-30T18:54:07Z</time>
      </trkpt>
      <trkpt lat="45.08173" lon="-1.18953">
        <ele>-0.82</ele>
        <time>2021-06-30T18:54:08Z</time>
      </trkpt>
      <trkpt lat="45.08171" lon="-1.1895">
        <ele>-0.34</ele>
        <time>2021-06-30T18:54:09Z</time>
      </trkpt>
      <trkpt lat="45.08169" lon="-1.18949">
        <ele>-0.82</ele>
        <time>2021-06-30T18:54:10Z</time>
      </trkpt>
      <trkpt lat="45.08168" lon="-1.18944">
        <ele>-0.34</ele>
        <time>2021-06-30T18:54:11Z</time>
      </trkpt>
      <trkpt lat="45.08166" lon="-1.1894">
        <ele>-0.34</ele>
        <time>2021-06-30T18:54:12Z</time>
      </trkpt>
      <trkpt lat="45.08165" lon="-1.18936">
        <ele>-0.34</ele>
        <time>2021-06-30T18:54:13Z</time>
      </trkpt>
      <trkpt lat="45.08148" lon="-1.18888">
        <ele>0.62</ele>
        <time>2021-06-30T18:54:29Z</time>
      </trkpt>
      <trkpt lat="45.08119" lon="-1.18804">
        <ele>2.06</ele>
        <time>2021-06-30T18:54:45Z</time>
      </trkpt>
      <trkpt lat="45.08113" lon="-1.18748">
        <ele>3.02</ele>
        <time>2021-06-30T18:54:58Z</time>
      </trkpt>
      <trkpt lat="45.0815" lon="-1.18727">
        <ele>2.54</ele>
        <time>2021-06-30T18:55:08Z</time>
      </trkpt>
      <trkpt lat="45.0825" lon="-1.18686">
        <ele>3.02</ele>
        <time>2021-06-30T18:55:26Z</time>
      </trkpt>
      <trkpt lat="45.08266" lon="-1.1868">
        <ele>2.54</ele>
        <time>2021-06-30T18:55:29Z</time>
      </trkpt>
      <trkpt lat="45.08271" lon="-1.18678">
        <ele>2.54</ele>
        <time>2021-06-30T18:55:30Z</time>
      </trkpt>
      <trkpt lat="45.08277" lon="-1.18676">
        <ele>2.54</ele>
        <time>2021-06-30T18:55:31Z</time>
      </trkpt>
      <trkpt lat="45.08282" lon="-1.18674">
        <ele>2.54</ele>
        <time>2021-06-30T18:55:32Z</time>
      </trkpt>
      <trkpt lat="45.08288" lon="-1.18673">
        <ele>2.54</ele>
        <time>2021-06-30T18:55:33Z</time>
      </trkpt>
      <trkpt lat="45.08293" lon="-1.18671">
        <ele>2.54</ele>
        <time>2021-06-30T18:55:34Z</time>
      </trkpt>
      <trkpt lat="45.08297" lon="-1.18657">
        <ele>2.54</ele>
        <time>2021-06-30T18:55:35Z</time>
      </trkpt>
      <trkpt lat="45.08297" lon="-1.18649">
        <ele>2.54</ele>
        <time>2021-06-30T18:55:36Z</time>
      </trkpt>
      <trkpt lat="45.08298" lon="-1.18641">
        <ele>2.54</ele>
        <time>2021-06-30T18:55:37Z</time>
      </trkpt>
      <trkpt lat="45.08299" lon="-1.18632">
        <ele>2.54</ele>
        <time>2021-06-30T18:55:38Z</time>
      </trkpt>
      <trkpt lat="45.08298" lon="-1.18493">
        <ele>3.5</ele>
        <time>2021-06-30T18:55:50Z</time>
      </trkpt>
      <trkpt lat="45.08262" lon="-1.18391">
        <ele>3.98</ele>
        <time>2021-06-30T18:56:00Z</time>
      </trkpt>
      <trkpt lat="45.08232" lon="-1.18323">
        <ele>0.62</ele>
        <time>2021-06-30T18:56:05Z</time>
      </trkpt>
      <trkpt lat="45.08175" lon="-1.18161">
        <ele>3.02</ele>
        <time>2021-06-30T18:56:15Z</time>
      </trkpt>
      <trkpt lat="45.08138" lon="-1.18061">
        <ele>4.94</ele>
        <time>2021-06-30T18:56:21Z</time>
      </trkpt>
      <trkpt lat="45.08133" lon="-1.18047">
        <ele>4.94</ele>
        <time>2021-06-30T18:56:22Z</time>
      </trkpt>
      <trkpt lat="45.08127" lon="-1.1803">
        <ele>3.02</ele>
        <time>2021-06-30T18:56:23Z</time>
      </trkpt>
      <trkpt lat="45.08124" lon="-1.18014">
        <ele>2.54</ele>
        <time>2021-06-30T18:56:24Z</time>
      </trkpt>
      <trkpt lat="45.08121" lon="-1.17996">
        <ele>3.98</ele>
        <time>2021-06-30T18:56:25Z</time>
      </trkpt>
      <trkpt lat="45.0812" lon="-1.17979">
        <ele>5.42</ele>
        <time>2021-06-30T18:56:26Z</time>
      </trkpt>
      <trkpt lat="45.08129" lon="-1.17801">
        <ele>8.31</ele>
        <time>2021-06-30T18:56:36Z</time>
      </trkpt>
      <trkpt lat="45.08127" lon="-1.1777">
        <ele>7.83</ele>
        <time>2021-06-30T18:56:38Z</time>
      </trkpt>
      <trkpt lat="45.08126" lon="-1.17755">
        <ele>6.87</ele>
        <time>2021-06-30T18:56:39Z</time>
      </trkpt>
      <trkpt lat="45.08079" lon="-1.17607">
        <ele>3.98</ele>
        <time>2021-06-30T18:56:48Z</time>
      </trkpt>
      <trkpt lat="45.08014" lon="-1.17443">
        <ele>6.87</ele>
        <time>2021-06-30T18:56:58Z</time>
      </trkpt>
      <trkpt lat="45.07932" lon="-1.17258">
        <ele>9.75</ele>
        <time>2021-06-30T18:57:09Z</time>
      </trkpt>
      <trkpt lat="45.07867" lon="-1.17108">
        <ele>11.67</ele>
        <time>2021-06-30T18:57:19Z</time>
      </trkpt>
      <trkpt lat="45.07862" lon="-1.17092">
        <ele>11.19</ele>
        <time>2021-06-30T18:57:20Z</time>
      </trkpt>
      <trkpt lat="45.07826" lon="-1.16832">
        <ele>22.73</ele>
        <time>2021-06-30T18:57:34Z</time>
      </trkpt>
      <trkpt lat="45.07816" lon="-1.16584">
        <ele>28.98</ele>
        <time>2021-06-30T18:57:48Z</time>
      </trkpt>
      <trkpt lat="45.0781" lon="-1.1652">
        <ele>33.78</ele>
        <time>2021-06-30T18:57:52Z</time>
      </trkpt>
      <trkpt lat="45.07806" lon="-1.16506">
        <ele>32.34</ele>
        <time>2021-06-30T18:57:53Z</time>
      </trkpt>
      <trkpt lat="45.07801" lon="-1.16492">
        <ele>31.86</ele>
        <time>2021-06-30T18:57:54Z</time>
      </trkpt>
      <trkpt lat="45.07794" lon="-1.16478">
        <ele>32.34</ele>
        <time>2021-06-30T18:57:55Z</time>
      </trkpt>
      <trkpt lat="45.07787" lon="-1.16467">
        <ele>33.78</ele>
        <time>2021-06-30T18:57:56Z</time>
      </trkpt>
      <trkpt lat="45.07779" lon="-1.16457">
        <ele>34.74</ele>
        <time>2021-06-30T18:57:57Z</time>
      </trkpt>
      <trkpt lat="45.077" lon="-1.16343">
        <ele>35.71</ele>
        <time>2021-06-30T18:58:06Z</time>
      </trkpt>
      <trkpt lat="45.07671" lon="-1.16241">
        <ele>29.46</ele>
        <time>2021-06-30T18:58:12Z</time>
      </trkpt>
      <trkpt lat="45.07668" lon="-1.16222">
        <ele>28.5</ele>
        <time>2021-06-30T18:58:13Z</time>
      </trkpt>
      <trkpt lat="45.07665" lon="-1.16204">
        <ele>28.02</ele>
        <time>2021-06-30T18:58:14Z</time>
      </trkpt>
      <trkpt lat="45.07665" lon="-1.16187">
        <ele>27.53</ele>
        <time>2021-06-30T18:58:15Z</time>
      </trkpt>
      <trkpt lat="45.07666" lon="-1.16167">
        <ele>26.57</ele>
        <time>2021-06-30T18:58:16Z</time>
      </trkpt>
      <trkpt lat="45.07668" lon="-1.16108">
        <ele>24.17</ele>
        <time>2021-06-30T18:58:19Z</time>
      </trkpt>
      <trkpt lat="45.07666" lon="-1.16089">
        <ele>23.21</ele>
        <time>2021-06-30T18:58:20Z</time>
      </trkpt>
      <trkpt lat="45.07626" lon="-1.15913">
        <ele>20.32</ele>
        <time>2021-06-30T18:58:28Z</time>
      </trkpt>
      <trkpt lat="45.07541" lon="-1.15615">
        <ele>15.04</ele>
        <time>2021-06-30T18:58:44Z</time>
      </trkpt>
      <trkpt lat="45.07477" lon="-1.15422">
        <ele>16.96</ele>
        <time>2021-06-30T18:58:55Z</time>
      </trkpt>
      <trkpt lat="45.07393" lon="-1.15232">
        <ele>20.32</ele>
        <time>2021-06-30T18:59:08Z</time>
      </trkpt>
      <trkpt lat="45.07301" lon="-1.15051">
        <ele>28.02</ele>
        <time>2021-06-30T18:59:23Z</time>
      </trkpt>
      <trkpt lat="45.07252" lon="-1.14944">
        <ele>28.98</ele>
        <time>2021-06-30T18:59:34Z</time>
      </trkpt>
      <trkpt lat="45.07233" lon="-1.14902">
        <ele>27.05</ele>
        <time>2021-06-30T18:59:39Z</time>
      </trkpt>
      <trkpt lat="45.07232" lon="-1.14892">
        <ele>26.57</ele>
        <time>2021-06-30T18:59:40Z</time>
      </trkpt>
      <trkpt lat="45.0723" lon="-1.14883">
        <ele>26.57</ele>
        <time>2021-06-30T18:59:41Z</time>
      </trkpt>
      <trkpt lat="45.07229" lon="-1.14874">
        <ele>26.09</ele>
        <time>2021-06-30T18:59:42Z</time>
      </trkpt>
      <trkpt lat="45.0723" lon="-1.14865">
        <ele>26.57</ele>
        <time>2021-06-30T18:59:43Z</time>
      </trkpt>
      <trkpt lat="45.07241" lon="-1.14727">
        <ele>18.4</ele>
        <time>2021-06-30T18:59:58Z</time>
      </trkpt>
      <trkpt lat="45.07242" lon="-1.1472">
        <ele>17.92</ele>
        <time>2021-06-30T18:59:59Z</time>
      </trkpt>
      <trkpt lat="45.07242" lon="-1.14717">
        <ele>17.92</ele>
        <time>2021-06-30T19:00:00Z</time>
      </trkpt>
      <trkpt lat="45.07228" lon="-1.14694">
        <ele>16.96</ele>
        <time>2021-06-30T19:00:03Z</time>
      </trkpt>
      <trkpt lat="45.07227" lon="-1.14687">
        <ele>16.96</ele>
        <time>2021-06-30T19:00:04Z</time>
      </trkpt>
      <trkpt lat="45.0723" lon="-1.14678">
        <ele>16.96</ele>
        <time>2021-06-30T19:00:05Z</time>
      </trkpt>
      <trkpt lat="45.07233" lon="-1.14672">
        <ele>16.48</ele>
        <time>2021-06-30T19:00:06Z</time>
      </trkpt>
      <trkpt lat="45.07236" lon="-1.14668">
        <ele>16.48</ele>
        <time>2021-06-30T19:00:07Z</time>
      </trkpt>
      <trkpt lat="45.0724" lon="-1.14666">
        <ele>16</ele>
        <time>2021-06-30T19:00:08Z</time>
      </trkpt>
      <trkpt lat="45.07245" lon="-1.14663">
        <ele>15.52</ele>
        <time>2021-06-30T19:00:09Z</time>
      </trkpt>
      <trkpt lat="45.0725" lon="-1.14664">
        <ele>15.04</ele>
        <time>2021-06-30T19:00:10Z</time>
      </trkpt>
      <trkpt lat="45.07255" lon="-1.14666">
        <ele>15.04</ele>
        <time>2021-06-30T19:00:11Z</time>
      </trkpt>
      <trkpt lat="45.07324" lon="-1.14697">
        <ele>11.19</ele>
        <time>2021-06-30T19:00:23Z</time>
      </trkpt>
      <trkpt lat="45.07415" lon="-1.1471">
        <ele>14.08</ele>
        <time>2021-06-30T19:00:33Z</time>
      </trkpt>
      <trkpt lat="45.07504" lon="-1.14707">
        <ele>11.19</ele>
        <time>2021-06-30T19:00:43Z</time>
      </trkpt>
      <trkpt lat="45.07638" lon="-1.14698">
        <ele>10.23</ele>
        <time>2021-06-30T19:00:58Z</time>
      </trkpt>
      <trkpt lat="45.07743" lon="-1.14674">
        <ele>9.27</ele>
        <time>2021-06-30T19:01:11Z</time>
      </trkpt>
      <trkpt lat="45.07881" lon="-1.14586">
        <ele>12.15</ele>
        <time>2021-06-30T19:01:28Z</time>
      </trkpt>
      <trkpt lat="45.07956" lon="-1.1455">
        <ele>12.63</ele>
        <time>2021-06-30T19:01:37Z</time>
      </trkpt>
      <trkpt lat="45.07967" lon="-1.14548">
        <ele>12.15</ele>
        <time>2021-06-30T19:01:38Z</time>
      </trkpt>
      <trkpt lat="45.08073" lon="-1.14567">
        <ele>11.67</ele>
        <time>2021-06-30T19:01:48Z</time>
      </trkpt>
      <trkpt lat="45.08172" lon="-1.14655">
        <ele>9.27</ele>
        <time>2021-06-30T19:01:59Z</time>
      </trkpt>
      <trkpt lat="45.08247" lon="-1.14715">
        <ele>9.27</ele>
        <time>2021-06-30T19:02:08Z</time>
      </trkpt>
      <trkpt lat="45.08345" lon="-1.14755">
        <ele>11.67</ele>
        <time>2021-06-30T19:02:17Z</time>
      </trkpt>
      <trkpt lat="45.08467" lon="-1.14787">
        <ele>10.71</ele>
        <time>2021-06-30T19:02:30Z</time>
      </trkpt>
      <trkpt lat="45.08512" lon="-1.14799">
        <ele>9.75</ele>
        <time>2021-06-30T19:02:39Z</time>
      </trkpt>
      <trkpt lat="45.08549" lon="-1.14811">
        <ele>11.19</ele>
        <time>2021-06-30T19:02:52Z</time>
      </trkpt>
      <trkpt lat="45.08601" lon="-1.14827">
        <ele>9.27</ele>
        <time>2021-06-30T19:03:03Z</time>
      </trkpt>
      <trkpt lat="45.08666" lon="-1.14848">
        <ele>10.71</ele>
        <time>2021-06-30T19:03:16Z</time>
      </trkpt>
      <trkpt lat="45.08673" lon="-1.1485">
        <ele>11.67</ele>
        <time>2021-06-30T19:03:19Z</time>
      </trkpt>
      <trkpt lat="45.08674" lon="-1.14851">
        <ele>10.71</ele>
        <time>2021-06-30T19:03:20Z</time>
      </trkpt>
      <trkpt lat="45.08673" lon="-1.1485">
        <ele>11.19</ele>
        <time>2021-06-30T19:03:23Z</time>
      </trkpt>
      <trkpt lat="45.08671" lon="-1.1485">
        <ele>15.52</ele>
        <time>2021-06-30T19:03:36Z</time>
      </trkpt>
      <trkpt lat="45.08667" lon="-1.14849">
        <ele>16</ele>
        <time>2021-06-30T19:03:46Z</time>
      </trkpt>
      <trkpt lat="45.08667" lon="-1.14849">
        <ele>16</ele>
        <time>2021-06-30T19:05:20Z</time>
      </trkpt>
    </trkseg>
  </trk>
  <trk>
    <name><![CDATA[Journal actif: 2021-06-30 17:06]]></name>
    <trkseg>
      <trkpt lat="45.08667" lon="-1.14849">
        <ele>16</ele>
        <time>2021-06-30T19:06:19Z</time>
      </trkpt>
      <trkpt lat="45.08661" lon="-1.14847">
        <ele>15.52</ele>
        <time>2021-06-30T19:06:27Z</time>
      </trkpt>
      <trkpt lat="45.08653" lon="-1.14844">
        <ele>15.52</ele>
        <time>2021-06-30T19:06:28Z</time>
      </trkpt>
      <trkpt lat="45.08653" lon="-1.14844">
        <ele>15.52</ele>
        <time>2021-06-30T19:06:29Z</time>
      </trkpt>
      <trkpt lat="45.08582" lon="-1.14822">
        <ele>12.15</ele>
        <time>2021-06-30T19:06:40Z</time>
      </trkpt>
      <trkpt lat="45.0851" lon="-1.14799">
        <ele>12.15</ele>
        <time>2021-06-30T19:06:51Z</time>
      </trkpt>
      <trkpt lat="45.08405" lon="-1.1477">
        <ele>12.15</ele>
        <time>2021-06-30T19:07:02Z</time>
      </trkpt>
      <trkpt lat="45.08298" lon="-1.14737">
        <ele>14.56</ele>
        <time>2021-06-30T19:07:13Z</time>
      </trkpt>
      <trkpt lat="45.08289" lon="-1.14733">
        <ele>13.6</ele>
        <time>2021-06-30T19:07:14Z</time>
      </trkpt>
      <trkpt lat="45.08207" lon="-1.14687">
        <ele>13.12</ele>
        <time>2021-06-30T19:07:24Z</time>
      </trkpt>
      <trkpt lat="45.08117" lon="-1.14606">
        <ele>11.19</ele>
        <time>2021-06-30T19:07:36Z</time>
      </trkpt>
      <trkpt lat="45.08107" lon="-1.14597">
        <ele>13.6</ele>
        <time>2021-06-30T19:07:43Z</time>
      </trkpt>
      <trkpt lat="45.08091" lon="-1.14582">
        <ele>13.6</ele>
        <time>2021-06-30T19:08:58Z</time>
      </trkpt>
      <trkpt lat="45.08013" lon="-1.14544">
        <ele>14.08</ele>
        <time>2021-06-30T19:09:11Z</time>
      </trkpt>
      <trkpt lat="45.07929" lon="-1.14562">
        <ele>14.56</ele>
        <time>2021-06-30T19:09:23Z</time>
      </trkpt>
      <trkpt lat="45.0783" lon="-1.14618">
        <ele>12.63</ele>
        <time>2021-06-30T19:09:35Z</time>
      </trkpt>
      <trkpt lat="45.07706" lon="-1.14689">
        <ele>14.08</ele>
        <time>2021-06-30T19:09:48Z</time>
      </trkpt>
      <trkpt lat="45.07572" lon="-1.14705">
        <ele>15.04</ele>
        <time>2021-06-30T19:09:59Z</time>
      </trkpt>
      <trkpt lat="45.07449" lon="-1.14709">
        <ele>12.15</ele>
        <time>2021-06-30T19:10:10Z</time>
      </trkpt>
      <trkpt lat="45.07332" lon="-1.147">
        <ele>14.08</ele>
        <time>2021-06-30T19:10:23Z</time>
      </trkpt>
      <trkpt lat="45.07324" lon="-1.14697">
        <ele>16.48</ele>
        <time>2021-06-30T19:10:30Z</time>
      </trkpt>
      <trkpt lat="45.07301" lon="-1.14688">
        <ele>15.52</ele>
        <time>2021-06-30T19:10:38Z</time>
      </trkpt>
      <trkpt lat="45.07297" lon="-1.14686">
        <ele>15.04</ele>
        <time>2021-06-30T19:10:39Z</time>
      </trkpt>
      <trkpt lat="45.07293" lon="-1.14685">
        <ele>15.04</ele>
        <time>2021-06-30T19:10:40Z</time>
      </trkpt>
      <trkpt lat="45.07289" lon="-1.14683">
        <ele>15.04</ele>
        <time>2021-06-30T19:10:41Z</time>
      </trkpt>
      <trkpt lat="45.0726" lon="-1.14704">
        <ele>15.52</ele>
        <time>2021-06-30T19:10:48Z</time>
      </trkpt>
      <trkpt lat="45.07259" lon="-1.14709">
        <ele>15.04</ele>
        <time>2021-06-30T19:10:49Z</time>
      </trkpt>
      <trkpt lat="45.07254" lon="-1.14711">
        <ele>15.04</ele>
        <time>2021-06-30T19:10:50Z</time>
      </trkpt>
      <trkpt lat="45.0725" lon="-1.14713">
        <ele>15.04</ele>
        <time>2021-06-30T19:10:51Z</time>
      </trkpt>
      <trkpt lat="45.07246" lon="-1.14715">
        <ele>15.04</ele>
        <time>2021-06-30T19:10:52Z</time>
      </trkpt>
      <trkpt lat="45.07239" lon="-1.14715">
        <ele>15.52</ele>
        <time>2021-06-30T19:10:53Z</time>
      </trkpt>
      <trkpt lat="45.07234" lon="-1.14712">
        <ele>15.04</ele>
        <time>2021-06-30T19:10:54Z</time>
      </trkpt>
      <trkpt lat="45.07229" lon="-1.14702">
        <ele>15.04</ele>
        <time>2021-06-30T19:10:55Z</time>
      </trkpt>
      <trkpt lat="45.07228" lon="-1.14694">
        <ele>14.56</ele>
        <time>2021-06-30T19:10:56Z</time>
      </trkpt>
      <trkpt lat="45.07229" lon="-1.14682">
        <ele>14.56</ele>
        <time>2021-06-30T19:10:57Z</time>
      </trkpt>
      <trkpt lat="45.07232" lon="-1.14674">
        <ele>14.08</ele>
        <time>2021-06-30T19:10:58Z</time>
      </trkpt>
      <trkpt lat="45.07233" lon="-1.1467">
        <ele>14.08</ele>
        <time>2021-06-30T19:10:59Z</time>
      </trkpt>
      <trkpt lat="45.07233" lon="-1.1467">
        <ele>13.6</ele>
        <time>2021-06-30T19:11:00Z</time>
      </trkpt>
      <trkpt lat="45.07244" lon="-1.1465">
        <ele>13.6</ele>
        <time>2021-06-30T19:11:01Z</time>
      </trkpt>
      <trkpt lat="45.07243" lon="-1.14641">
        <ele>14.08</ele>
        <time>2021-06-30T19:11:02Z</time>
      </trkpt>
      <trkpt lat="45.07243" lon="-1.1463">
        <ele>14.08</ele>
        <time>2021-06-30T19:11:03Z</time>
      </trkpt>
      <trkpt lat="45.07241" lon="-1.14589">
        <ele>14.08</ele>
        <time>2021-06-30T19:11:05Z</time>
      </trkpt>
      <trkpt lat="45.0724" lon="-1.14574">
        <ele>15.04</ele>
        <time>2021-06-30T19:11:06Z</time>
      </trkpt>
      <trkpt lat="45.07228" lon="-1.14518">
        <ele>14.56</ele>
        <time>2021-06-30T19:11:11Z</time>
      </trkpt>
      <trkpt lat="45.07176" lon="-1.14408">
        <ele>10.71</ele>
        <time>2021-06-30T19:11:20Z</time>
      </trkpt>
      <trkpt lat="45.07166" lon="-1.14397">
        <ele>12.63</ele>
        <time>2021-06-30T19:11:23Z</time>
      </trkpt>
      <trkpt lat="45.07162" lon="-1.14392">
        <ele>13.12</ele>
        <time>2021-06-30T19:11:24Z</time>
      </trkpt>
      <trkpt lat="45.07157" lon="-1.14389">
        <ele>13.12</ele>
        <time>2021-06-30T19:11:25Z</time>
      </trkpt>
      <trkpt lat="45.07153" lon="-1.14386">
        <ele>12.63</ele>
        <time>2021-06-30T19:11:26Z</time>
      </trkpt>
      <trkpt lat="45.07148" lon="-1.14382">
        <ele>12.63</ele>
        <time>2021-06-30T19:11:27Z</time>
      </trkpt>
      <trkpt lat="45.07138" lon="-1.14386">
        <ele>12.63</ele>
        <time>2021-06-30T19:11:28Z</time>
      </trkpt>
      <trkpt lat="45.07131" lon="-1.14383">
        <ele>12.15</ele>
        <time>2021-06-30T19:11:29Z</time>
      </trkpt>
      <trkpt lat="45.07123" lon="-1.14375">
        <ele>12.15</ele>
        <time>2021-06-30T19:11:31Z</time>
      </trkpt>
      <trkpt lat="45.07123" lon="-1.14375">
        <ele>12.15</ele>
        <time>2021-06-30T19:11:32Z</time>
      </trkpt>
      <trkpt lat="45.07101" lon="-1.14381">
        <ele>12.63</ele>
        <time>2021-06-30T19:11:35Z</time>
      </trkpt>
      <trkpt lat="45.07101" lon="-1.14381">
        <ele>12.63</ele>
        <time>2021-06-30T19:11:36Z</time>
      </trkpt>
      <trkpt lat="45.07033" lon="-1.144">
        <ele>11.67</ele>
        <time>2021-06-30T19:11:46Z</time>
      </trkpt>
      <trkpt lat="45.07027" lon="-1.14402">
        <ele>11.67</ele>
        <time>2021-06-30T19:11:47Z</time>
      </trkpt>
      <trkpt lat="45.0702" lon="-1.14404">
        <ele>11.67</ele>
        <time>2021-06-30T19:11:48Z</time>
      </trkpt>
      <trkpt lat="45.07013" lon="-1.14402">
        <ele>11.19</ele>
        <time>2021-06-30T19:11:49Z</time>
      </trkpt>
      <trkpt lat="45.07007" lon="-1.14401">
        <ele>11.67</ele>
        <time>2021-06-30T19:11:50Z</time>
      </trkpt>
      <trkpt lat="45.06946" lon="-1.1438">
        <ele>12.15</ele>
        <time>2021-06-30T19:12:01Z</time>
      </trkpt>
      <trkpt lat="45.06936" lon="-1.1437">
        <ele>12.15</ele>
        <time>2021-06-30T19:12:02Z</time>
      </trkpt>
      <trkpt lat="45.06936" lon="-1.1437">
        <ele>12.15</ele>
        <time>2021-06-30T19:12:03Z</time>
      </trkpt>
      <trkpt lat="45.06927" lon="-1.1436">
        <ele>12.15</ele>
        <time>2021-06-30T19:12:04Z</time>
      </trkpt>
      <trkpt lat="45.06927" lon="-1.1436">
        <ele>12.15</ele>
        <time>2021-06-30T19:12:05Z</time>
      </trkpt>
      <trkpt lat="45.06923" lon="-1.14354">
        <ele>12.15</ele>
        <time>2021-06-30T19:12:06Z</time>
      </trkpt>
      <trkpt lat="45.06919" lon="-1.14348">
        <ele>12.15</ele>
        <time>2021-06-30T19:12:07Z</time>
      </trkpt>
      <trkpt lat="45.06863" lon="-1.14267">
        <ele>11.19</ele>
        <time>2021-06-30T19:12:17Z</time>
      </trkpt>
      <trkpt lat="45.06789" lon="-1.14149">
        <ele>11.19</ele>
        <time>2021-06-30T19:12:30Z</time>
      </trkpt>
      <trkpt lat="45.06778" lon="-1.14115">
        <ele>10.23</ele>
        <time>2021-06-30T19:12:35Z</time>
      </trkpt>
      <trkpt lat="45.06776" lon="-1.14109">
        <ele>9.75</ele>
        <time>2021-06-30T19:12:36Z</time>
      </trkpt>
      <trkpt lat="45.06767" lon="-1.14103">
        <ele>9.75</ele>
        <time>2021-06-30T19:12:38Z</time>
      </trkpt>
      <trkpt lat="45.06766" lon="-1.1408">
        <ele>9.27</ele>
        <time>2021-06-30T19:12:39Z</time>
      </trkpt>
      <trkpt lat="45.0676" lon="-1.14069">
        <ele>9.27</ele>
        <time>2021-06-30T19:12:42Z</time>
      </trkpt>
      <trkpt lat="45.06758" lon="-1.14063">
        <ele>9.27</ele>
        <time>2021-06-30T19:12:43Z</time>
      </trkpt>
      <trkpt lat="45.06712" lon="-1.13971">
        <ele>10.23</ele>
        <time>2021-06-30T19:12:54Z</time>
      </trkpt>
      <trkpt lat="45.06641" lon="-1.13826">
        <ele>10.71</ele>
        <time>2021-06-30T19:13:08Z</time>
      </trkpt>
      <trkpt lat="45.06555" lon="-1.13682">
        <ele>12.15</ele>
        <time>2021-06-30T19:13:22Z</time>
      </trkpt>
      <trkpt lat="45.06401" lon="-1.13505">
        <ele>9.75</ele>
        <time>2021-06-30T19:13:39Z</time>
      </trkpt>
      <trkpt lat="45.06331" lon="-1.13387">
        <ele>9.75</ele>
        <time>2021-06-30T19:13:51Z</time>
      </trkpt>
      <trkpt lat="45.06293" lon="-1.1332">
        <ele>10.23</ele>
        <time>2021-06-30T19:14:02Z</time>
      </trkpt>
      <trkpt lat="45.06218" lon="-1.13178">
        <ele>10.71</ele>
        <time>2021-06-30T19:14:16Z</time>
      </trkpt>
      <trkpt lat="45.06182" lon="-1.13041">
        <ele>9.75</ele>
        <time>2021-06-30T19:14:26Z</time>
      </trkpt>
      <trkpt lat="45.0614" lon="-1.12874">
        <ele>9.27</ele>
        <time>2021-06-30T19:14:38Z</time>
      </trkpt>
      <trkpt lat="45.06135" lon="-1.12861">
        <ele>8.79</ele>
        <time>2021-06-30T19:14:39Z</time>
      </trkpt>
      <trkpt lat="45.06128" lon="-1.12852">
        <ele>8.31</ele>
        <time>2021-06-30T19:14:40Z</time>
      </trkpt>
      <trkpt lat="45.06092" lon="-1.128">
        <ele>11.19</ele>
        <time>2021-06-30T19:14:45Z</time>
      </trkpt>
      <trkpt lat="45.06086" lon="-1.12788">
        <ele>11.67</ele>
        <time>2021-06-30T19:14:46Z</time>
      </trkpt>
      <trkpt lat="45.06081" lon="-1.12776">
        <ele>11.19</ele>
        <time>2021-06-30T19:14:47Z</time>
      </trkpt>
      <trkpt lat="45.06076" lon="-1.12762">
        <ele>11.67</ele>
        <time>2021-06-30T19:14:48Z</time>
      </trkpt>
      <trkpt lat="45.06068" lon="-1.12733">
        <ele>10.71</ele>
        <time>2021-06-30T19:14:49Z</time>
      </trkpt>
      <trkpt lat="45.06068" lon="-1.12733">
        <ele>10.71</ele>
        <time>2021-06-30T19:14:50Z</time>
      </trkpt>
      <trkpt lat="45.06058" lon="-1.12582">
        <ele>12.15</ele>
        <time>2021-06-30T19:15:00Z</time>
      </trkpt>
      <trkpt lat="45.06059" lon="-1.12464">
        <ele>14.08</ele>
        <time>2021-06-30T19:15:10Z</time>
      </trkpt>
      <trkpt lat="45.06063" lon="-1.12429">
        <ele>14.08</ele>
        <time>2021-06-30T19:15:12Z</time>
      </trkpt>
      <trkpt lat="45.06067" lon="-1.12417">
        <ele>13.12</ele>
        <time>2021-06-30T19:15:13Z</time>
      </trkpt>
      <trkpt lat="45.06114" lon="-1.12282">
        <ele>10.23</ele>
        <time>2021-06-30T19:15:23Z</time>
      </trkpt>
      <trkpt lat="45.06179" lon="-1.12112">
        <ele>9.27</ele>
        <time>2021-06-30T19:15:34Z</time>
      </trkpt>
      <trkpt lat="45.06251" lon="-1.11927">
        <ele>7.83</ele>
        <time>2021-06-30T19:15:45Z</time>
      </trkpt>
      <trkpt lat="45.06373" lon="-1.1161">
        <ele>7.35</ele>
        <time>2021-06-30T19:15:59Z</time>
      </trkpt>
      <trkpt lat="45.06612" lon="-1.10988">
        <ele>6.87</ele>
        <time>2021-06-30T19:16:25Z</time>
      </trkpt>
      <trkpt lat="45.06801" lon="-1.105">
        <ele>7.35</ele>
        <time>2021-06-30T19:16:45Z</time>
      </trkpt>
      <trkpt lat="45.06998" lon="-1.09988">
        <ele>7.83</ele>
        <time>2021-06-30T19:17:06Z</time>
      </trkpt>
      <trkpt lat="45.07148" lon="-1.09596">
        <ele>7.35</ele>
        <time>2021-06-30T19:17:23Z</time>
      </trkpt>
      <trkpt lat="45.07288" lon="-1.09228">
        <ele>7.83</ele>
        <time>2021-06-30T19:17:41Z</time>
      </trkpt>
      <trkpt lat="45.07304" lon="-1.09166">
        <ele>9.27</ele>
        <time>2021-06-30T19:17:43Z</time>
      </trkpt>
      <trkpt lat="45.07334" lon="-1.08911">
        <ele>11.67</ele>
        <time>2021-06-30T19:17:55Z</time>
      </trkpt>
      <trkpt lat="45.0738" lon="-1.08487">
        <ele>12.63</ele>
        <time>2021-06-30T19:18:13Z</time>
      </trkpt>
      <trkpt lat="45.07429" lon="-1.08055">
        <ele>13.6</ele>
        <time>2021-06-30T19:18:30Z</time>
      </trkpt>
      <trkpt lat="45.07473" lon="-1.07666">
        <ele>14.56</ele>
        <time>2021-06-30T19:18:45Z</time>
      </trkpt>
      <trkpt lat="45.07514" lon="-1.07291">
        <ele>13.6</ele>
        <time>2021-06-30T19:19:01Z</time>
      </trkpt>
      <trkpt lat="45.07559" lon="-1.06886">
        <ele>16</ele>
        <time>2021-06-30T19:19:18Z</time>
      </trkpt>
      <trkpt lat="45.07603" lon="-1.06496">
        <ele>15.52</ele>
        <time>2021-06-30T19:19:34Z</time>
      </trkpt>
      <trkpt lat="45.07654" lon="-1.0603">
        <ele>14.56</ele>
        <time>2021-06-30T19:19:52Z</time>
      </trkpt>
      <trkpt lat="45.07693" lon="-1.05668">
        <ele>14.56</ele>
        <time>2021-06-30T19:20:07Z</time>
      </trkpt>
      <trkpt lat="45.07717" lon="-1.05456">
        <ele>13.12</ele>
        <time>2021-06-30T19:20:18Z</time>
      </trkpt>
      <trkpt lat="45.07736" lon="-1.0528">
        <ele>15.04</ele>
        <time>2021-06-30T19:20:28Z</time>
      </trkpt>
      <trkpt lat="45.07761" lon="-1.05065">
        <ele>16.96</ele>
        <time>2021-06-30T19:20:41Z</time>
      </trkpt>
      <trkpt lat="45.07772" lon="-1.04954">
        <ele>17.44</ele>
        <time>2021-06-30T19:20:51Z</time>
      </trkpt>
      <trkpt lat="45.07787" lon="-1.04826">
        <ele>16.96</ele>
        <time>2021-06-30T19:21:03Z</time>
      </trkpt>
      <trkpt lat="45.07801" lon="-1.04706">
        <ele>17.44</ele>
        <time>2021-06-30T19:21:16Z</time>
      </trkpt>
      <trkpt lat="45.07811" lon="-1.04635">
        <ele>18.4</ele>
        <time>2021-06-30T19:21:24Z</time>
      </trkpt>
      <trkpt lat="45.07812" lon="-1.04628">
        <ele>17.92</ele>
        <time>2021-06-30T19:21:25Z</time>
      </trkpt>
      <trkpt lat="45.07813" lon="-1.04623">
        <ele>17.92</ele>
        <time>2021-06-30T19:21:26Z</time>
      </trkpt>
      <trkpt lat="45.07814" lon="-1.04618">
        <ele>18.4</ele>
        <time>2021-06-30T19:21:27Z</time>
      </trkpt>
      <trkpt lat="45.07813" lon="-1.0461">
        <ele>18.88</ele>
        <time>2021-06-30T19:21:28Z</time>
      </trkpt>
      <trkpt lat="45.07809" lon="-1.04599">
        <ele>18.88</ele>
        <time>2021-06-30T19:21:30Z</time>
      </trkpt>
      <trkpt lat="45.0781" lon="-1.04595">
        <ele>18.88</ele>
        <time>2021-06-30T19:21:31Z</time>
      </trkpt>
      <trkpt lat="45.07811" lon="-1.04591">
        <ele>18.4</ele>
        <time>2021-06-30T19:21:32Z</time>
      </trkpt>
      <trkpt lat="45.07816" lon="-1.0459">
        <ele>18.4</ele>
        <time>2021-06-30T19:21:33Z</time>
      </trkpt>
      <trkpt lat="45.07819" lon="-1.04589">
        <ele>17.92</ele>
        <time>2021-06-30T19:21:34Z</time>
      </trkpt>
      <trkpt lat="45.07823" lon="-1.04591">
        <ele>17.44</ele>
        <time>2021-06-30T19:21:35Z</time>
      </trkpt>
      <trkpt lat="45.07826" lon="-1.04593">
        <ele>17.44</ele>
        <time>2021-06-30T19:21:36Z</time>
      </trkpt>
      <trkpt lat="45.07826" lon="-1.04593">
        <ele>16.96</ele>
        <time>2021-06-30T19:21:37Z</time>
      </trkpt>
      <trkpt lat="45.07833" lon="-1.04605">
        <ele>16.48</ele>
        <time>2021-06-30T19:21:38Z</time>
      </trkpt>
      <trkpt lat="45.07842" lon="-1.04606">
        <ele>16</ele>
        <time>2021-06-30T19:21:39Z</time>
      </trkpt>
      <trkpt lat="45.07842" lon="-1.04606">
        <ele>16</ele>
        <time>2021-06-30T19:21:40Z</time>
      </trkpt>
      <trkpt lat="45.07846" lon="-1.04607">
        <ele>15.52</ele>
        <time>2021-06-30T19:21:41Z</time>
      </trkpt>
      <trkpt lat="45.0792" lon="-1.0461">
        <ele>15.52</ele>
        <time>2021-06-30T19:21:53Z</time>
      </trkpt>
      <trkpt lat="45.08018" lon="-1.04608">
        <ele>16.48</ele>
        <time>2021-06-30T19:22:06Z</time>
      </trkpt>
      <trkpt lat="45.08138" lon="-1.04606">
        <ele>16</ele>
        <time>2021-06-30T19:22:16Z</time>
      </trkpt>
      <trkpt lat="45.08298" lon="-1.04604">
        <ele>16.96</ele>
        <time>2021-06-30T19:22:28Z</time>
      </trkpt>
      <trkpt lat="45.08356" lon="-1.04602">
        <ele>15.04</ele>
        <time>2021-06-30T19:22:36Z</time>
      </trkpt>
      <trkpt lat="45.0848" lon="-1.046">
        <ele>16</ele>
        <time>2021-06-30T19:22:46Z</time>
      </trkpt>
      <trkpt lat="45.08683" lon="-1.04596">
        <ele>15.52</ele>
        <time>2021-06-30T19:23:00Z</time>
      </trkpt>
      <trkpt lat="45.08924" lon="-1.04592">
        <ele>17.92</ele>
        <time>2021-06-30T19:23:15Z</time>
      </trkpt>
      <trkpt lat="45.0918" lon="-1.04589">
        <ele>13.12</ele>
        <time>2021-06-30T19:23:30Z</time>
      </trkpt>
      <trkpt lat="45.09485" lon="-1.04584">
        <ele>14.08</ele>
        <time>2021-06-30T19:23:47Z</time>
      </trkpt>
      <trkpt lat="45.09782" lon="-1.04579">
        <ele>14.56</ele>
        <time>2021-06-30T19:24:02Z</time>
      </trkpt>
      <trkpt lat="45.10231" lon="-1.04572">
        <ele>13.6</ele>
        <time>2021-06-30T19:24:24Z</time>
      </trkpt>
      <trkpt lat="45.10667" lon="-1.04566">
        <ele>12.63</ele>
        <time>2021-06-30T19:24:46Z</time>
      </trkpt>
      <trkpt lat="45.11095" lon="-1.04559">
        <ele>13.6</ele>
        <time>2021-06-30T19:25:07Z</time>
      </trkpt>
      <trkpt lat="45.11539" lon="-1.04552">
        <ele>12.63</ele>
        <time>2021-06-30T19:25:28Z</time>
      </trkpt>
      <trkpt lat="45.12091" lon="-1.04545">
        <ele>13.12</ele>
        <time>2021-06-30T19:25:54Z</time>
      </trkpt>
      <trkpt lat="45.12438" lon="-1.0454">
        <ele>12.63</ele>
        <time>2021-06-30T19:26:11Z</time>
      </trkpt>
      <trkpt lat="45.12817" lon="-1.04536">
        <ele>12.63</ele>
        <time>2021-06-30T19:26:31Z</time>
      </trkpt>
      <trkpt lat="45.13197" lon="-1.04531">
        <ele>13.6</ele>
        <time>2021-06-30T19:26:51Z</time>
      </trkpt>
      <trkpt lat="45.13557" lon="-1.04526">
        <ele>13.12</ele>
        <time>2021-06-30T19:27:10Z</time>
      </trkpt>
      <trkpt lat="45.13985" lon="-1.0452">
        <ele>12.63</ele>
        <time>2021-06-30T19:27:34Z</time>
      </trkpt>
      <trkpt lat="45.14419" lon="-1.04517">
        <ele>13.12</ele>
        <time>2021-06-30T19:27:56Z</time>
      </trkpt>
      <trkpt lat="45.1459" lon="-1.04545">
        <ele>13.12</ele>
        <time>2021-06-30T19:28:06Z</time>
      </trkpt>
      <trkpt lat="45.14922" lon="-1.04643">
        <ele>11.19</ele>
        <time>2021-06-30T19:28:22Z</time>
      </trkpt>
      <trkpt lat="45.15339" lon="-1.04767">
        <ele>12.15</ele>
        <time>2021-06-30T19:28:42Z</time>
      </trkpt>
      <trkpt lat="45.15603" lon="-1.04845">
        <ele>9.75</ele>
        <time>2021-06-30T19:28:55Z</time>
      </trkpt>
      <trkpt lat="45.15847" lon="-1.04918">
        <ele>9.75</ele>
        <time>2021-06-30T19:29:07Z</time>
      </trkpt>
      <trkpt lat="45.16296" lon="-1.05051">
        <ele>8.31</ele>
        <time>2021-06-30T19:29:28Z</time>
      </trkpt>
      <trkpt lat="45.16678" lon="-1.05165">
        <ele>6.87</ele>
        <time>2021-06-30T19:29:47Z</time>
      </trkpt>
      <trkpt lat="45.1709" lon="-1.05288">
        <ele>8.31</ele>
        <time>2021-06-30T19:30:09Z</time>
      </trkpt>
      <trkpt lat="45.17249" lon="-1.05337">
        <ele>7.83</ele>
        <time>2021-06-30T19:30:19Z</time>
      </trkpt>
      <trkpt lat="45.17419" lon="-1.05388">
        <ele>7.35</ele>
        <time>2021-06-30T19:30:33Z</time>
      </trkpt>
      <trkpt lat="45.17637" lon="-1.05452">
        <ele>7.83</ele>
        <time>2021-06-30T19:30:49Z</time>
      </trkpt>
      <trkpt lat="45.17888" lon="-1.05526">
        <ele>6.87</ele>
        <time>2021-06-30T19:31:08Z</time>
      </trkpt>
      <trkpt lat="45.18032" lon="-1.0557">
        <ele>7.83</ele>
        <time>2021-06-30T19:31:21Z</time>
      </trkpt>
      <trkpt lat="45.18215" lon="-1.05624">
        <ele>7.35</ele>
        <time>2021-06-30T19:31:37Z</time>
      </trkpt>
      <trkpt lat="45.18284" lon="-1.05646">
        <ele>8.31</ele>
        <time>2021-06-30T19:31:46Z</time>
      </trkpt>
      <trkpt lat="45.18337" lon="-1.05661">
        <ele>7.35</ele>
        <time>2021-06-30T19:31:57Z</time>
      </trkpt>
      <trkpt lat="45.18437" lon="-1.0569">
        <ele>6.87</ele>
        <time>2021-06-30T19:32:10Z</time>
      </trkpt>
      <trkpt lat="45.18529" lon="-1.05716">
        <ele>7.83</ele>
        <time>2021-06-30T19:32:24Z</time>
      </trkpt>
      <trkpt lat="45.18546" lon="-1.0572">
        <ele>10.23</ele>
        <time>2021-06-30T19:32:29Z</time>
      </trkpt>
      <trkpt lat="45.18547" lon="-1.05725">
        <ele>10.23</ele>
        <time>2021-06-30T19:32:30Z</time>
      </trkpt>
      <trkpt lat="45.18547" lon="-1.05729">
        <ele>10.71</ele>
        <time>2021-06-30T19:32:31Z</time>
      </trkpt>
      <trkpt lat="45.18548" lon="-1.05735">
        <ele>10.71</ele>
        <time>2021-06-30T19:32:32Z</time>
      </trkpt>
      <trkpt lat="45.18548" lon="-1.05742">
        <ele>10.71</ele>
        <time>2021-06-30T19:32:33Z</time>
      </trkpt>
      <trkpt lat="45.18559" lon="-1.0583">
        <ele>9.27</ele>
        <time>2021-06-30T19:32:46Z</time>
      </trkpt>
      <trkpt lat="45.18561" lon="-1.0586">
        <ele>10.23</ele>
        <time>2021-06-30T19:32:52Z</time>
      </trkpt>
      <trkpt lat="45.18561" lon="-1.05865">
        <ele>10.71</ele>
        <time>2021-06-30T19:32:53Z</time>
      </trkpt>
      <trkpt lat="45.18561" lon="-1.05871">
        <ele>10.23</ele>
        <time>2021-06-30T19:32:54Z</time>
      </trkpt>
      <trkpt lat="45.1856" lon="-1.05876">
        <ele>10.23</ele>
        <time>2021-06-30T19:32:55Z</time>
      </trkpt>
      <trkpt lat="45.18559" lon="-1.05883">
        <ele>9.75</ele>
        <time>2021-06-30T19:32:56Z</time>
      </trkpt>
      <trkpt lat="45.18558" lon="-1.0589">
        <ele>9.75</ele>
        <time>2021-06-30T19:32:57Z</time>
      </trkpt>
      <trkpt lat="45.18531" lon="-1.06025">
        <ele>9.75</ele>
        <time>2021-06-30T19:33:09Z</time>
      </trkpt>
      <trkpt lat="45.18484" lon="-1.06265">
        <ele>11.19</ele>
        <time>2021-06-30T19:33:26Z</time>
      </trkpt>
      <trkpt lat="45.18472" lon="-1.06333">
        <ele>12.63</ele>
        <time>2021-06-30T19:33:32Z</time>
      </trkpt>
      <trkpt lat="45.18471" lon="-1.0634">
        <ele>12.63</ele>
        <time>2021-06-30T19:33:33Z</time>
      </trkpt>
      <trkpt lat="45.18471" lon="-1.0634">
        <ele>12.15</ele>
        <time>2021-06-30T19:33:34Z</time>
      </trkpt>
      <trkpt lat="45.18478" lon="-1.06351">
        <ele>12.15</ele>
        <time>2021-06-30T19:33:35Z</time>
      </trkpt>
      <trkpt lat="45.18479" lon="-1.06357">
        <ele>12.15</ele>
        <time>2021-06-30T19:33:36Z</time>
      </trkpt>
      <trkpt lat="45.18477" lon="-1.06365">
        <ele>12.63</ele>
        <time>2021-06-30T19:33:37Z</time>
      </trkpt>
      <trkpt lat="45.18475" lon="-1.0637">
        <ele>12.15</ele>
        <time>2021-06-30T19:33:38Z</time>
      </trkpt>
      <trkpt lat="45.18475" lon="-1.0637">
        <ele>12.15</ele>
        <time>2021-06-30T19:33:39Z</time>
      </trkpt>
      <trkpt lat="45.18461" lon="-1.06383">
        <ele>12.15</ele>
        <time>2021-06-30T19:33:40Z</time>
      </trkpt>
      <trkpt lat="45.18461" lon="-1.06383">
        <ele>12.15</ele>
        <time>2021-06-30T19:33:41Z</time>
      </trkpt>
      <trkpt lat="45.1846" lon="-1.06391">
        <ele>11.67</ele>
        <time>2021-06-30T19:33:42Z</time>
      </trkpt>
      <trkpt lat="45.18458" lon="-1.064">
        <ele>11.67</ele>
        <time>2021-06-30T19:33:43Z</time>
      </trkpt>
      <trkpt lat="45.18429" lon="-1.06549">
        <ele>10.71</ele>
        <time>2021-06-30T19:33:55Z</time>
      </trkpt>
      <trkpt lat="45.18372" lon="-1.0685">
        <ele>10.71</ele>
        <time>2021-06-30T19:34:15Z</time>
      </trkpt>
      <trkpt lat="45.18331" lon="-1.07066">
        <ele>9.75</ele>
        <time>2021-06-30T19:34:32Z</time>
      </trkpt>
      <trkpt lat="45.18286" lon="-1.07297">
        <ele>9.75</ele>
        <time>2021-06-30T19:34:50Z</time>
      </trkpt>
      <trkpt lat="45.18247" lon="-1.07501">
        <ele>10.71</ele>
        <time>2021-06-30T19:35:06Z</time>
      </trkpt>
      <trkpt lat="45.18216" lon="-1.07674">
        <ele>10.23</ele>
        <time>2021-06-30T19:35:21Z</time>
      </trkpt>
      <trkpt lat="45.18178" lon="-1.07873">
        <ele>9.27</ele>
        <time>2021-06-30T19:35:35Z</time>
      </trkpt>
      <trkpt lat="45.18136" lon="-1.08081">
        <ele>8.79</ele>
        <time>2021-06-30T19:35:49Z</time>
      </trkpt>
      <trkpt lat="45.18132" lon="-1.08104">
        <ele>10.23</ele>
        <time>2021-06-30T19:35:54Z</time>
      </trkpt>
      <trkpt lat="45.1813" lon="-1.08103">
        <ele>9.75</ele>
        <time>2021-06-30T19:35:55Z</time>
      </trkpt>
      <trkpt lat="45.18128" lon="-1.08102">
        <ele>9.75</ele>
        <time>2021-06-30T19:35:56Z</time>
      </trkpt>
      <trkpt lat="45.18126" lon="-1.081">
        <ele>10.23</ele>
        <time>2021-06-30T19:35:57Z</time>
      </trkpt>
      <trkpt lat="45.18124" lon="-1.08099">
        <ele>10.23</ele>
        <time>2021-06-30T19:35:58Z</time>
      </trkpt>
      <trkpt lat="45.18121" lon="-1.08097">
        <ele>10.23</ele>
        <time>2021-06-30T19:35:59Z</time>
      </trkpt>
    </trkseg>
  </trk>
  <trk>
    <name><![CDATA[Journal actif: 2021-07-01 10:26]]></name>
    <trkseg>
      <trkpt lat="45.18025" lon="-1.08218">
        <ele>13.12</ele>
        <time>2021-07-01T12:26:45Z</time>
      </trkpt>
      <trkpt lat="45.18025" lon="-1.08215">
        <ele>10.23</ele>
        <time>2021-07-01T12:27:32Z</time>
      </trkpt>
      <trkpt lat="45.18025" lon="-1.08219">
        <ele>11.19</ele>
        <time>2021-07-01T12:27:41Z</time>
      </trkpt>
      <trkpt lat="45.18027" lon="-1.08224">
        <ele>11.19</ele>
        <time>2021-07-01T12:27:45Z</time>
      </trkpt>
      <trkpt lat="45.18044" lon="-1.08214">
        <ele>8.79</ele>
        <time>2021-07-01T12:27:58Z</time>
      </trkpt>
      <trkpt lat="45.18055" lon="-1.08171">
        <ele>8.79</ele>
        <time>2021-07-01T12:28:14Z</time>
      </trkpt>
      <trkpt lat="45.18072" lon="-1.08119">
        <ele>7.83</ele>
        <time>2021-07-01T12:28:31Z</time>
      </trkpt>
      <trkpt lat="45.18087" lon="-1.08089">
        <ele>8.31</ele>
        <time>2021-07-01T12:28:47Z</time>
      </trkpt>
      <trkpt lat="45.18087" lon="-1.08088">
        <ele>8.31</ele>
        <time>2021-07-01T12:29:07Z</time>
      </trkpt>
      <trkpt lat="45.18087" lon="-1.08087">
        <ele>8.31</ele>
        <time>2021-07-01T12:29:32Z</time>
      </trkpt>
      <trkpt lat="45.18094" lon="-1.08081">
        <ele>7.83</ele>
        <time>2021-07-01T12:31:18Z</time>
      </trkpt>
      <trkpt lat="45.18095" lon="-1.08081">
        <ele>7.83</ele>
        <time>2021-07-01T12:31:19Z</time>
      </trkpt>
      <trkpt lat="45.18099" lon="-1.08082">
        <ele>7.83</ele>
        <time>2021-07-01T12:31:22Z</time>
      </trkpt>
      <trkpt lat="45.18101" lon="-1.08084">
        <ele>7.35</ele>
        <time>2021-07-01T12:31:23Z</time>
      </trkpt>
      <trkpt lat="45.18104" lon="-1.08086">
        <ele>7.35</ele>
        <time>2021-07-01T12:31:24Z</time>
      </trkpt>
      <trkpt lat="45.18107" lon="-1.08088">
        <ele>7.35</ele>
        <time>2021-07-01T12:31:25Z</time>
      </trkpt>
      <trkpt lat="45.18109" lon="-1.08089">
        <ele>7.35</ele>
        <time>2021-07-01T12:31:26Z</time>
      </trkpt>
      <trkpt lat="45.1811" lon="-1.0809">
        <ele>6.87</ele>
        <time>2021-07-01T12:31:27Z</time>
      </trkpt>
      <trkpt lat="45.18112" lon="-1.08091">
        <ele>6.87</ele>
        <time>2021-07-01T12:31:28Z</time>
      </trkpt>
      <trkpt lat="45.18112" lon="-1.08091">
        <ele>7.83</ele>
        <time>2021-07-01T12:31:48Z</time>
      </trkpt>
      <trkpt lat="45.18124" lon="-1.08099">
        <ele>7.35</ele>
        <time>2021-07-01T12:32:33Z</time>
      </trkpt>
      <trkpt lat="45.18127" lon="-1.081">
        <ele>7.83</ele>
        <time>2021-07-01T12:32:35Z</time>
      </trkpt>
      <trkpt lat="45.18134" lon="-1.08094">
        <ele>7.83</ele>
        <time>2021-07-01T12:32:36Z</time>
      </trkpt>
      <trkpt lat="45.18134" lon="-1.08091">
        <ele>7.83</ele>
        <time>2021-07-01T12:32:37Z</time>
      </trkpt>
      <trkpt lat="45.18135" lon="-1.08086">
        <ele>7.83</ele>
        <time>2021-07-01T12:32:38Z</time>
      </trkpt>
      <trkpt lat="45.18136" lon="-1.08081">
        <ele>7.83</ele>
        <time>2021-07-01T12:32:39Z</time>
      </trkpt>
      <trkpt lat="45.18156" lon="-1.07982">
        <ele>8.31</ele>
        <time>2021-07-01T12:32:49Z</time>
      </trkpt>
      <trkpt lat="45.18196" lon="-1.07782">
        <ele>8.79</ele>
        <time>2021-07-01T12:33:06Z</time>
      </trkpt>
      <trkpt lat="45.18239" lon="-1.07547">
        <ele>9.75</ele>
        <time>2021-07-01T12:33:21Z</time>
      </trkpt>
      <trkpt lat="45.1832" lon="-1.07125">
        <ele>11.19</ele>
        <time>2021-07-01T12:33:47Z</time>
      </trkpt>
      <trkpt lat="45.18355" lon="-1.0694">
        <ele>11.67</ele>
        <time>2021-07-01T12:34:00Z</time>
      </trkpt>
      <trkpt lat="45.18416" lon="-1.06622">
        <ele>11.19</ele>
        <time>2021-07-01T12:34:23Z</time>
      </trkpt>
      <trkpt lat="45.18455" lon="-1.0641">
        <ele>11.19</ele>
        <time>2021-07-01T12:34:40Z</time>
      </trkpt>
      <trkpt lat="45.18459" lon="-1.06392">
        <ele>11.19</ele>
        <time>2021-07-01T12:34:48Z</time>
      </trkpt>
      <trkpt lat="45.18462" lon="-1.06379">
        <ele>11.19</ele>
        <time>2021-07-01T12:34:52Z</time>
      </trkpt>
      <trkpt lat="45.18464" lon="-1.06373">
        <ele>11.19</ele>
        <time>2021-07-01T12:34:53Z</time>
      </trkpt>
      <trkpt lat="45.18464" lon="-1.0637">
        <ele>11.19</ele>
        <time>2021-07-01T12:34:54Z</time>
      </trkpt>
      <trkpt lat="45.1846" lon="-1.06351">
        <ele>11.19</ele>
        <time>2021-07-01T12:34:55Z</time>
      </trkpt>
      <trkpt lat="45.1846" lon="-1.06351">
        <ele>11.19</ele>
        <time>2021-07-01T12:34:56Z</time>
      </trkpt>
      <trkpt lat="45.18464" lon="-1.06345">
        <ele>11.19</ele>
        <time>2021-07-01T12:34:57Z</time>
      </trkpt>
      <trkpt lat="45.18471" lon="-1.06337">
        <ele>11.19</ele>
        <time>2021-07-01T12:34:58Z</time>
      </trkpt>
      <trkpt lat="45.18474" lon="-1.06319">
        <ele>11.19</ele>
        <time>2021-07-01T12:34:59Z</time>
      </trkpt>
      <trkpt lat="45.18497" lon="-1.06201">
        <ele>11.19</ele>
        <time>2021-07-01T12:35:10Z</time>
      </trkpt>
      <trkpt lat="45.18516" lon="-1.06104">
        <ele>11.19</ele>
        <time>2021-07-01T12:35:22Z</time>
      </trkpt>
      <trkpt lat="45.18516" lon="-1.06101">
        <ele>11.19</ele>
        <time>2021-07-01T12:35:35Z</time>
      </trkpt>
      <trkpt lat="45.18522" lon="-1.0607">
        <ele>11.19</ele>
        <time>2021-07-01T12:35:50Z</time>
      </trkpt>
      <trkpt lat="45.18543" lon="-1.05964">
        <ele>11.67</ele>
        <time>2021-07-01T12:36:05Z</time>
      </trkpt>
      <trkpt lat="45.18551" lon="-1.05924">
        <ele>11.67</ele>
        <time>2021-07-01T12:36:16Z</time>
      </trkpt>
      <trkpt lat="45.18561" lon="-1.05869">
        <ele>11.67</ele>
        <time>2021-07-01T12:36:26Z</time>
      </trkpt>
      <trkpt lat="45.18561" lon="-1.05863">
        <ele>11.19</ele>
        <time>2021-07-01T12:36:27Z</time>
      </trkpt>
      <trkpt lat="45.18561" lon="-1.05857">
        <ele>11.19</ele>
        <time>2021-07-01T12:36:28Z</time>
      </trkpt>
      <trkpt lat="45.18561" lon="-1.0585">
        <ele>10.71</ele>
        <time>2021-07-01T12:36:29Z</time>
      </trkpt>
      <trkpt lat="45.1856" lon="-1.05843">
        <ele>10.71</ele>
        <time>2021-07-01T12:36:30Z</time>
      </trkpt>
      <trkpt lat="45.18548" lon="-1.05738">
        <ele>8.31</ele>
        <time>2021-07-01T12:36:47Z</time>
      </trkpt>
      <trkpt lat="45.18547" lon="-1.05727">
        <ele>8.79</ele>
        <time>2021-07-01T12:36:50Z</time>
      </trkpt>
      <trkpt lat="45.18543" lon="-1.05719">
        <ele>8.79</ele>
        <time>2021-07-01T12:36:51Z</time>
      </trkpt>
      <trkpt lat="45.1854" lon="-1.05719">
        <ele>8.79</ele>
        <time>2021-07-01T12:36:52Z</time>
      </trkpt>
      <trkpt lat="45.18489" lon="-1.05705">
        <ele>8.79</ele>
        <time>2021-07-01T12:37:02Z</time>
      </trkpt>
      <trkpt lat="45.18392" lon="-1.05677">
        <ele>9.27</ele>
        <time>2021-07-01T12:37:15Z</time>
      </trkpt>
      <trkpt lat="45.18294" lon="-1.05649">
        <ele>10.71</ele>
        <time>2021-07-01T12:37:28Z</time>
      </trkpt>
      <trkpt lat="45.18226" lon="-1.05628">
        <ele>11.19</ele>
        <time>2021-07-01T12:37:38Z</time>
      </trkpt>
      <trkpt lat="45.18073" lon="-1.05582">
        <ele>11.67</ele>
        <time>2021-07-01T12:37:52Z</time>
      </trkpt>
      <trkpt lat="45.1789" lon="-1.05526">
        <ele>13.6</ele>
        <time>2021-07-01T12:38:09Z</time>
      </trkpt>
      <trkpt lat="45.17685" lon="-1.05465">
        <ele>14.08</ele>
        <time>2021-07-01T12:38:26Z</time>
      </trkpt>
      <trkpt lat="45.17458" lon="-1.05399">
        <ele>14.56</ele>
        <time>2021-07-01T12:38:44Z</time>
      </trkpt>
      <trkpt lat="45.17206" lon="-1.05323">
        <ele>15.52</ele>
        <time>2021-07-01T12:39:04Z</time>
      </trkpt>
      <trkpt lat="45.1705" lon="-1.05276">
        <ele>15.52</ele>
        <time>2021-07-01T12:39:15Z</time>
      </trkpt>
      <trkpt lat="45.16764" lon="-1.05191">
        <ele>16</ele>
        <time>2021-07-01T12:39:33Z</time>
      </trkpt>
      <trkpt lat="45.1635" lon="-1.05068">
        <ele>16.48</ele>
        <time>2021-07-01T12:39:56Z</time>
      </trkpt>
      <trkpt lat="45.15804" lon="-1.04905">
        <ele>16.96</ele>
        <time>2021-07-01T12:40:27Z</time>
      </trkpt>
      <trkpt lat="45.15544" lon="-1.04827">
        <ele>16</ele>
        <time>2021-07-01T12:40:41Z</time>
      </trkpt>
      <trkpt lat="45.15231" lon="-1.04735">
        <ele>16.48</ele>
        <time>2021-07-01T12:40:57Z</time>
      </trkpt>
      <trkpt lat="45.14916" lon="-1.04641">
        <ele>13.6</ele>
        <time>2021-07-01T12:41:14Z</time>
      </trkpt>
      <trkpt lat="45.14595" lon="-1.04546">
        <ele>15.04</ele>
        <time>2021-07-01T12:41:31Z</time>
      </trkpt>
      <trkpt lat="45.14402" lon="-1.04517">
        <ele>11.19</ele>
        <time>2021-07-01T12:41:40Z</time>
      </trkpt>
      <trkpt lat="45.13977" lon="-1.0452">
        <ele>13.12</ele>
        <time>2021-07-01T12:42:02Z</time>
      </trkpt>
      <trkpt lat="45.13459" lon="-1.04527">
        <ele>12.15</ele>
        <time>2021-07-01T12:42:28Z</time>
      </trkpt>
      <trkpt lat="45.13153" lon="-1.04531">
        <ele>11.67</ele>
        <time>2021-07-01T12:42:44Z</time>
      </trkpt>
      <trkpt lat="45.12875" lon="-1.04535">
        <ele>9.75</ele>
        <time>2021-07-01T12:42:58Z</time>
      </trkpt>
      <trkpt lat="45.1246" lon="-1.0454">
        <ele>7.35</ele>
        <time>2021-07-01T12:43:18Z</time>
      </trkpt>
      <trkpt lat="45.11723" lon="-1.04549">
        <ele>7.35</ele>
        <time>2021-07-01T12:43:53Z</time>
      </trkpt>
      <trkpt lat="45.11125" lon="-1.04559">
        <ele>9.75</ele>
        <time>2021-07-01T12:44:23Z</time>
      </trkpt>
      <trkpt lat="45.10824" lon="-1.04564">
        <ele>9.27</ele>
        <time>2021-07-01T12:44:38Z</time>
      </trkpt>
      <trkpt lat="45.10378" lon="-1.0457">
        <ele>8.31</ele>
        <time>2021-07-01T12:45:00Z</time>
      </trkpt>
      <trkpt lat="45.09825" lon="-1.04578">
        <ele>6.87</ele>
        <time>2021-07-01T12:45:27Z</time>
      </trkpt>
      <trkpt lat="45.09522" lon="-1.04583">
        <ele>3.98</ele>
        <time>2021-07-01T12:45:43Z</time>
      </trkpt>
      <trkpt lat="45.09188" lon="-1.04589">
        <ele>7.83</ele>
        <time>2021-07-01T12:46:01Z</time>
      </trkpt>
      <trkpt lat="45.089" lon="-1.04592">
        <ele>3.5</ele>
        <time>2021-07-01T12:46:16Z</time>
      </trkpt>
      <trkpt lat="45.08619" lon="-1.04597">
        <ele>2.06</ele>
        <time>2021-07-01T12:46:31Z</time>
      </trkpt>
      <trkpt lat="45.08403" lon="-1.04602">
        <ele>5.91</ele>
        <time>2021-07-01T12:46:44Z</time>
      </trkpt>
      <trkpt lat="45.08322" lon="-1.04604">
        <ele>2.06</ele>
        <time>2021-07-01T12:46:51Z</time>
      </trkpt>
      <trkpt lat="45.08253" lon="-1.04604">
        <ele>-0.34</ele>
        <time>2021-07-01T12:47:00Z</time>
      </trkpt>
      <trkpt lat="45.08083" lon="-1.04608">
        <ele>4.94</ele>
        <time>2021-07-01T12:47:15Z</time>
      </trkpt>
      <trkpt lat="45.07932" lon="-1.04609">
        <ele>13.12</ele>
        <time>2021-07-01T12:47:29Z</time>
      </trkpt>
      <trkpt lat="45.07878" lon="-1.0461">
        <ele>13.12</ele>
        <time>2021-07-01T12:47:38Z</time>
      </trkpt>
      <trkpt lat="45.07825" lon="-1.04606">
        <ele>12.63</ele>
        <time>2021-07-01T12:47:46Z</time>
      </trkpt>
      <trkpt lat="45.07817" lon="-1.04613">
        <ele>12.63</ele>
        <time>2021-07-01T12:47:48Z</time>
      </trkpt>
      <trkpt lat="45.07815" lon="-1.04613">
        <ele>12.63</ele>
        <time>2021-07-01T12:47:49Z</time>
      </trkpt>
      <trkpt lat="45.07753" lon="-1.04585">
        <ele>8.31</ele>
        <time>2021-07-01T12:47:57Z</time>
      </trkpt>
      <trkpt lat="45.07583" lon="-1.04536">
        <ele>10.23</ele>
        <time>2021-07-01T12:48:12Z</time>
      </trkpt>
      <trkpt lat="45.07489" lon="-1.04506">
        <ele>13.12</ele>
        <time>2021-07-01T12:48:22Z</time>
      </trkpt>
      <trkpt lat="45.07396" lon="-1.045">
        <ele>14.56</ele>
        <time>2021-07-01T12:48:31Z</time>
      </trkpt>
      <trkpt lat="45.07385" lon="-1.04503">
        <ele>15.04</ele>
        <time>2021-07-01T12:48:32Z</time>
      </trkpt>
      <trkpt lat="45.07209" lon="-1.04578">
        <ele>16</ele>
        <time>2021-07-01T12:48:45Z</time>
      </trkpt>
      <trkpt lat="45.07051" lon="-1.04649">
        <ele>11.67</ele>
        <time>2021-07-01T12:48:55Z</time>
      </trkpt>
      <trkpt lat="45.06798" lon="-1.04762">
        <ele>5.91</ele>
        <time>2021-07-01T12:49:09Z</time>
      </trkpt>
      <trkpt lat="45.06519" lon="-1.04887">
        <ele>3.5</ele>
        <time>2021-07-01T12:49:24Z</time>
      </trkpt>
      <trkpt lat="45.06229" lon="-1.05017">
        <ele>-2.75</ele>
        <time>2021-07-01T12:49:39Z</time>
      </trkpt>
      <trkpt lat="45.05872" lon="-1.05178">
        <ele>-0.34</ele>
        <time>2021-07-01T12:49:57Z</time>
      </trkpt>
      <trkpt lat="45.05371" lon="-1.05404">
        <ele>13.6</ele>
        <time>2021-07-01T12:50:22Z</time>
      </trkpt>
      <trkpt lat="45.04772" lon="-1.05675">
        <ele>14.56</ele>
        <time>2021-07-01T12:50:52Z</time>
      </trkpt>
      <trkpt lat="45.04439" lon="-1.058">
        <ele>11.67</ele>
        <time>2021-07-01T12:51:08Z</time>
      </trkpt>
      <trkpt lat="45.03951" lon="-1.05936">
        <ele>11.19</ele>
        <time>2021-07-01T12:51:31Z</time>
      </trkpt>
      <trkpt lat="45.03609" lon="-1.06031">
        <ele>5.42</ele>
        <time>2021-07-01T12:51:47Z</time>
      </trkpt>
      <trkpt lat="45.03272" lon="-1.06125">
        <ele>0.62</ele>
        <time>2021-07-01T12:52:03Z</time>
      </trkpt>
      <trkpt lat="45.02942" lon="-1.06217">
        <ele>-2.75</ele>
        <time>2021-07-01T12:52:19Z</time>
      </trkpt>
      <trkpt lat="45.02722" lon="-1.06278">
        <ele>-5.63</ele>
        <time>2021-07-01T12:52:30Z</time>
      </trkpt>
      <trkpt lat="45.02299" lon="-1.06399">
        <ele>-0.34</ele>
        <time>2021-07-01T12:52:50Z</time>
      </trkpt>
      <trkpt lat="45.01993" lon="-1.06479">
        <ele>4.94</ele>
        <time>2021-07-01T12:53:06Z</time>
      </trkpt>
      <trkpt lat="45.01506" lon="-1.06593">
        <ele>10.23</ele>
        <time>2021-07-01T12:53:30Z</time>
      </trkpt>
      <trkpt lat="45.00856" lon="-1.06742">
        <ele>11.19</ele>
        <time>2021-07-01T12:54:02Z</time>
      </trkpt>
      <trkpt lat="45.00428" lon="-1.06844">
        <ele>10.23</ele>
        <time>2021-07-01T12:54:24Z</time>
      </trkpt>
      <trkpt lat="45.00281" lon="-1.06935">
        <ele>5.91</ele>
        <time>2021-07-01T12:54:32Z</time>
      </trkpt>
      <trkpt lat="44.99884" lon="-1.07207">
        <ele>6.87</ele>
        <time>2021-07-01T12:54:52Z</time>
      </trkpt>
      <trkpt lat="44.99461" lon="-1.07502">
        <ele>5.42</ele>
        <time>2021-07-01T12:55:16Z</time>
      </trkpt>
      <trkpt lat="44.99214" lon="-1.0767">
        <ele>3.02</ele>
        <time>2021-07-01T12:55:31Z</time>
      </trkpt>
      <trkpt lat="44.99049" lon="-1.07783">
        <ele>3.02</ele>
        <time>2021-07-01T12:55:43Z</time>
      </trkpt>
      <trkpt lat="44.99001" lon="-1.07818">
        <ele>3.98</ele>
        <time>2021-07-01T12:55:51Z</time>
      </trkpt>
      <trkpt lat="44.98996" lon="-1.07821">
        <ele>4.46</ele>
        <time>2021-07-01T12:55:52Z</time>
      </trkpt>
      <trkpt lat="44.98994" lon="-1.07846">
        <ele>5.42</ele>
        <time>2021-07-01T12:55:54Z</time>
      </trkpt>
      <trkpt lat="44.98989" lon="-1.07853">
        <ele>5.42</ele>
        <time>2021-07-01T12:55:55Z</time>
      </trkpt>
      <trkpt lat="44.98981" lon="-1.07857">
        <ele>4.94</ele>
        <time>2021-07-01T12:55:56Z</time>
      </trkpt>
      <trkpt lat="44.98979" lon="-1.07857">
        <ele>4.94</ele>
        <time>2021-07-01T12:55:57Z</time>
      </trkpt>
      <trkpt lat="44.98965" lon="-1.07847">
        <ele>4.94</ele>
        <time>2021-07-01T12:55:58Z</time>
      </trkpt>
      <trkpt lat="44.98958" lon="-1.07851">
        <ele>5.42</ele>
        <time>2021-07-01T12:55:59Z</time>
      </trkpt>
      <trkpt lat="44.98952" lon="-1.07855">
        <ele>5.42</ele>
        <time>2021-07-01T12:56:00Z</time>
      </trkpt>
      <trkpt lat="44.98945" lon="-1.0786">
        <ele>5.42</ele>
        <time>2021-07-01T12:56:01Z</time>
      </trkpt>
      <trkpt lat="44.98854" lon="-1.0792">
        <ele>1.1</ele>
        <time>2021-07-01T12:56:11Z</time>
      </trkpt>
      <trkpt lat="44.98743" lon="-1.07998">
        <ele>-6.11</ele>
        <time>2021-07-01T12:56:23Z</time>
      </trkpt>
      <trkpt lat="44.98664" lon="-1.08046">
        <ele>-8.51</ele>
        <time>2021-07-01T12:56:34Z</time>
      </trkpt>
      <trkpt lat="44.98602" lon="-1.08056">
        <ele>0.14</ele>
        <time>2021-07-01T12:56:45Z</time>
      </trkpt>
      <trkpt lat="44.98548" lon="-1.08056">
        <ele>7.35</ele>
        <time>2021-07-01T12:56:56Z</time>
      </trkpt>
      <trkpt lat="44.98514" lon="-1.08069">
        <ele>8.31</ele>
        <time>2021-07-01T12:57:07Z</time>
      </trkpt>
      <trkpt lat="44.9851" lon="-1.08068">
        <ele>8.31</ele>
        <time>2021-07-01T12:57:08Z</time>
      </trkpt>
      <trkpt lat="44.98506" lon="-1.08066">
        <ele>8.31</ele>
        <time>2021-07-01T12:57:09Z</time>
      </trkpt>
      <trkpt lat="44.98501" lon="-1.08064">
        <ele>8.31</ele>
        <time>2021-07-01T12:57:10Z</time>
      </trkpt>
      <trkpt lat="44.98436" lon="-1.08049">
        <ele>8.79</ele>
        <time>2021-07-01T12:57:20Z</time>
      </trkpt>
      <trkpt lat="44.98314" lon="-1.08042">
        <ele>8.79</ele>
        <time>2021-07-01T12:57:33Z</time>
      </trkpt>
      <trkpt lat="44.98154" lon="-1.0802">
        <ele>7.35</ele>
        <time>2021-07-01T12:57:48Z</time>
      </trkpt>
      <trkpt lat="44.98025" lon="-1.07988">
        <ele>6.87</ele>
        <time>2021-07-01T12:58:04Z</time>
      </trkpt>
      <trkpt lat="44.9792" lon="-1.07961">
        <ele>7.35</ele>
        <time>2021-07-01T12:58:19Z</time>
      </trkpt>
      <trkpt lat="44.97843" lon="-1.07941">
        <ele>7.35</ele>
        <time>2021-07-01T12:58:34Z</time>
      </trkpt>
      <trkpt lat="44.97806" lon="-1.07921">
        <ele>7.35</ele>
        <time>2021-07-01T12:58:45Z</time>
      </trkpt>
      <trkpt lat="44.97802" lon="-1.0792">
        <ele>7.35</ele>
        <time>2021-07-01T12:58:46Z</time>
      </trkpt>
      <trkpt lat="44.97798" lon="-1.07918">
        <ele>7.35</ele>
        <time>2021-07-01T12:58:47Z</time>
      </trkpt>
      <trkpt lat="44.97744" lon="-1.07893">
        <ele>7.35</ele>
        <time>2021-07-01T12:59:02Z</time>
      </trkpt>
      <trkpt lat="44.97728" lon="-1.07884">
        <ele>7.83</ele>
        <time>2021-07-01T12:59:12Z</time>
      </trkpt>
      <trkpt lat="44.97728" lon="-1.07884">
        <ele>7.83</ele>
        <time>2021-07-01T12:59:40Z</time>
      </trkpt>
      <trkpt lat="44.97728" lon="-1.07884">
        <ele>7.83</ele>
        <time>2021-07-01T13:00:10Z</time>
      </trkpt>
      <trkpt lat="44.97701" lon="-1.0787">
        <ele>7.83</ele>
        <time>2021-07-01T13:00:33Z</time>
      </trkpt>
      <trkpt lat="44.97648" lon="-1.0784">
        <ele>7.83</ele>
        <time>2021-07-01T13:00:47Z</time>
      </trkpt>
      <trkpt lat="44.97612" lon="-1.07819">
        <ele>7.83</ele>
        <time>2021-07-01T13:01:00Z</time>
      </trkpt>
      <trkpt lat="44.97557" lon="-1.07788">
        <ele>7.83</ele>
        <time>2021-07-01T13:01:16Z</time>
      </trkpt>
      <trkpt lat="44.97473" lon="-1.0775">
        <ele>7.83</ele>
        <time>2021-07-01T13:01:31Z</time>
      </trkpt>
      <trkpt lat="44.97403" lon="-1.07718">
        <ele>7.83</ele>
        <time>2021-07-01T13:01:43Z</time>
      </trkpt>
      <trkpt lat="44.97314" lon="-1.07679">
        <ele>6.87</ele>
        <time>2021-07-01T13:01:59Z</time>
      </trkpt>
      <trkpt lat="44.97273" lon="-1.0766">
        <ele>5.91</ele>
        <time>2021-07-01T13:02:09Z</time>
      </trkpt>
      <trkpt lat="44.97208" lon="-1.07631">
        <ele>5.42</ele>
        <time>2021-07-01T13:02:19Z</time>
      </trkpt>
      <trkpt lat="44.97133" lon="-1.07598">
        <ele>5.91</ele>
        <time>2021-07-01T13:02:29Z</time>
      </trkpt>
      <trkpt lat="44.97055" lon="-1.07563">
        <ele>5.42</ele>
        <time>2021-07-01T13:02:39Z</time>
      </trkpt>
      <trkpt lat="44.96966" lon="-1.07523">
        <ele>5.42</ele>
        <time>2021-07-01T13:02:47Z</time>
      </trkpt>
      <trkpt lat="44.968" lon="-1.0745">
        <ele>6.39</ele>
        <time>2021-07-01T13:02:58Z</time>
      </trkpt>
      <trkpt lat="44.96544" lon="-1.07336">
        <ele>5.91</ele>
        <time>2021-07-01T13:03:13Z</time>
      </trkpt>
      <trkpt lat="44.96253" lon="-1.07207">
        <ele>7.83</ele>
        <time>2021-07-01T13:03:29Z</time>
      </trkpt>
      <trkpt lat="44.95973" lon="-1.07082">
        <ele>16</ele>
        <time>2021-07-01T13:03:44Z</time>
      </trkpt>
      <trkpt lat="44.95627" lon="-1.06928">
        <ele>11.19</ele>
        <time>2021-07-01T13:04:02Z</time>
      </trkpt>
      <trkpt lat="44.95318" lon="-1.06792">
        <ele>10.71</ele>
        <time>2021-07-01T13:04:18Z</time>
      </trkpt>
      <trkpt lat="44.95027" lon="-1.06663">
        <ele>12.15</ele>
        <time>2021-07-01T13:04:33Z</time>
      </trkpt>
      <trkpt lat="44.94749" lon="-1.0654">
        <ele>14.08</ele>
        <time>2021-07-01T13:04:48Z</time>
      </trkpt>
      <trkpt lat="44.94599" lon="-1.06503">
        <ele>13.6</ele>
        <time>2021-07-01T13:04:56Z</time>
      </trkpt>
      <trkpt lat="44.94327" lon="-1.06494">
        <ele>15.04</ele>
        <time>2021-07-01T13:05:10Z</time>
      </trkpt>
      <trkpt lat="44.94176" lon="-1.0652">
        <ele>14.56</ele>
        <time>2021-07-01T13:05:18Z</time>
      </trkpt>
      <trkpt lat="44.93924" lon="-1.0664">
        <ele>10.71</ele>
        <time>2021-07-01T13:05:31Z</time>
      </trkpt>
      <trkpt lat="44.93563" lon="-1.06816">
        <ele>8.79</ele>
        <time>2021-07-01T13:05:49Z</time>
      </trkpt>
      <trkpt lat="44.93167" lon="-1.07008">
        <ele>11.19</ele>
        <time>2021-07-01T13:06:07Z</time>
      </trkpt>
      <trkpt lat="44.92833" lon="-1.0717">
        <ele>11.67</ele>
        <time>2021-07-01T13:06:24Z</time>
      </trkpt>
      <trkpt lat="44.92283" lon="-1.07437">
        <ele>10.71</ele>
        <time>2021-07-01T13:06:50Z</time>
      </trkpt>
      <trkpt lat="44.91669" lon="-1.07734">
        <ele>12.15</ele>
        <time>2021-07-01T13:07:19Z</time>
      </trkpt>
      <trkpt lat="44.91378" lon="-1.07875">
        <ele>12.15</ele>
        <time>2021-07-01T13:07:33Z</time>
      </trkpt>
      <trkpt lat="44.91032" lon="-1.08042">
        <ele>11.19</ele>
        <time>2021-07-01T13:07:51Z</time>
      </trkpt>
      <trkpt lat="44.90773" lon="-1.08167">
        <ele>9.27</ele>
        <time>2021-07-01T13:08:04Z</time>
      </trkpt>
      <trkpt lat="44.90458" lon="-1.08318">
        <ele>9.75</ele>
        <time>2021-07-01T13:08:19Z</time>
      </trkpt>
      <trkpt lat="44.89896" lon="-1.08588">
        <ele>10.71</ele>
        <time>2021-07-01T13:08:45Z</time>
      </trkpt>
      <trkpt lat="44.89535" lon="-1.08761">
        <ele>14.08</ele>
        <time>2021-07-01T13:09:02Z</time>
      </trkpt>
      <trkpt lat="44.89342" lon="-1.08853">
        <ele>12.63</ele>
        <time>2021-07-01T13:09:12Z</time>
      </trkpt>
      <trkpt lat="44.89115" lon="-1.0896">
        <ele>13.6</ele>
        <time>2021-07-01T13:09:25Z</time>
      </trkpt>
      <trkpt lat="44.89066" lon="-1.08975">
        <ele>12.63</ele>
        <time>2021-07-01T13:09:28Z</time>
      </trkpt>
      <trkpt lat="44.8905" lon="-1.08976">
        <ele>12.63</ele>
        <time>2021-07-01T13:09:29Z</time>
      </trkpt>
      <trkpt lat="44.89034" lon="-1.08976">
        <ele>14.08</ele>
        <time>2021-07-01T13:09:30Z</time>
      </trkpt>
      <trkpt lat="44.89017" lon="-1.08977">
        <ele>14.56</ele>
        <time>2021-07-01T13:09:31Z</time>
      </trkpt>
      <trkpt lat="44.89002" lon="-1.08974">
        <ele>15.04</ele>
        <time>2021-07-01T13:09:32Z</time>
      </trkpt>
      <trkpt lat="44.88986" lon="-1.08968">
        <ele>15.04</ele>
        <time>2021-07-01T13:09:33Z</time>
      </trkpt>
      <trkpt lat="44.88971" lon="-1.08962">
        <ele>15.52</ele>
        <time>2021-07-01T13:09:34Z</time>
      </trkpt>
      <trkpt lat="44.88957" lon="-1.08953">
        <ele>15.52</ele>
        <time>2021-07-01T13:09:35Z</time>
      </trkpt>
      <trkpt lat="44.88943" lon="-1.08943">
        <ele>16</ele>
        <time>2021-07-01T13:09:36Z</time>
      </trkpt>
      <trkpt lat="44.88785" lon="-1.08827">
        <ele>16</ele>
        <time>2021-07-01T13:09:47Z</time>
      </trkpt>
      <trkpt lat="44.88601" lon="-1.08719">
        <ele>14.08</ele>
        <time>2021-07-01T13:09:58Z</time>
      </trkpt>
      <trkpt lat="44.88294" lon="-1.08576">
        <ele>15.04</ele>
        <time>2021-07-01T13:10:16Z</time>
      </trkpt>
      <trkpt lat="44.88021" lon="-1.08504">
        <ele>15.04</ele>
        <time>2021-07-01T13:10:32Z</time>
      </trkpt>
      <trkpt lat="44.87876" lon="-1.08483">
        <ele>14.08</ele>
        <time>2021-07-01T13:10:42Z</time>
      </trkpt>
      <trkpt lat="44.87679" lon="-1.08454">
        <ele>15.52</ele>
        <time>2021-07-01T13:10:57Z</time>
      </trkpt>
      <trkpt lat="44.87633" lon="-1.0845">
        <ele>15.04</ele>
        <time>2021-07-01T13:11:01Z</time>
      </trkpt>
      <trkpt lat="44.87622" lon="-1.08454">
        <ele>14.56</ele>
        <time>2021-07-01T13:11:02Z</time>
      </trkpt>
      <trkpt lat="44.87612" lon="-1.08458">
        <ele>14.56</ele>
        <time>2021-07-01T13:11:03Z</time>
      </trkpt>
      <trkpt lat="44.87602" lon="-1.08461">
        <ele>14.08</ele>
        <time>2021-07-01T13:11:04Z</time>
      </trkpt>
      <trkpt lat="44.87586" lon="-1.08467">
        <ele>14.08</ele>
        <time>2021-07-01T13:11:05Z</time>
      </trkpt>
      <trkpt lat="44.87561" lon="-1.08494">
        <ele>16</ele>
        <time>2021-07-01T13:11:11Z</time>
      </trkpt>
      <trkpt lat="44.87544" lon="-1.08512">
        <ele>15.52</ele>
        <time>2021-07-01T13:11:12Z</time>
      </trkpt>
      <trkpt lat="44.87544" lon="-1.08512">
        <ele>15.04</ele>
        <time>2021-07-01T13:11:13Z</time>
      </trkpt>
      <trkpt lat="44.8754" lon="-1.08524">
        <ele>14.56</ele>
        <time>2021-07-01T13:11:14Z</time>
      </trkpt>
      <trkpt lat="44.87537" lon="-1.08538">
        <ele>13.12</ele>
        <time>2021-07-01T13:11:15Z</time>
      </trkpt>
      <trkpt lat="44.87535" lon="-1.08554">
        <ele>12.15</ele>
        <time>2021-07-01T13:11:16Z</time>
      </trkpt>
      <trkpt lat="44.87535" lon="-1.0857">
        <ele>11.67</ele>
        <time>2021-07-01T13:11:17Z</time>
      </trkpt>
      <trkpt lat="44.87534" lon="-1.08587">
        <ele>11.67</ele>
        <time>2021-07-01T13:11:18Z</time>
      </trkpt>
      <trkpt lat="44.87518" lon="-1.08845">
        <ele>11.67</ele>
        <time>2021-07-01T13:11:33Z</time>
      </trkpt>
      <trkpt lat="44.87496" lon="-1.08977">
        <ele>11.67</ele>
        <time>2021-07-01T13:11:42Z</time>
      </trkpt>
      <trkpt lat="44.87491" lon="-1.08988">
        <ele>11.67</ele>
        <time>2021-07-01T13:11:43Z</time>
      </trkpt>
      <trkpt lat="44.87485" lon="-1.08999">
        <ele>11.19</ele>
        <time>2021-07-01T13:11:44Z</time>
      </trkpt>
      <trkpt lat="44.87478" lon="-1.09011">
        <ele>11.19</ele>
        <time>2021-07-01T13:11:45Z</time>
      </trkpt>
      <trkpt lat="44.87471" lon="-1.09023">
        <ele>12.15</ele>
        <time>2021-07-01T13:11:46Z</time>
      </trkpt>
      <trkpt lat="44.87452" lon="-1.09058">
        <ele>11.67</ele>
        <time>2021-07-01T13:11:49Z</time>
      </trkpt>
      <trkpt lat="44.87446" lon="-1.0907">
        <ele>12.15</ele>
        <time>2021-07-01T13:11:50Z</time>
      </trkpt>
      <trkpt lat="44.87441" lon="-1.09082">
        <ele>11.19</ele>
        <time>2021-07-01T13:11:51Z</time>
      </trkpt>
      <trkpt lat="44.87415" lon="-1.09166">
        <ele>11.19</ele>
        <time>2021-07-01T13:11:58Z</time>
      </trkpt>
      <trkpt lat="44.87411" lon="-1.09172">
        <ele>11.19</ele>
        <time>2021-07-01T13:11:59Z</time>
      </trkpt>
      <trkpt lat="44.87406" lon="-1.09176">
        <ele>11.19</ele>
        <time>2021-07-01T13:12:00Z</time>
      </trkpt>
      <trkpt lat="44.87401" lon="-1.0918">
        <ele>11.19</ele>
        <time>2021-07-01T13:12:01Z</time>
      </trkpt>
      <trkpt lat="44.87396" lon="-1.09184">
        <ele>11.19</ele>
        <time>2021-07-01T13:12:02Z</time>
      </trkpt>
      <trkpt lat="44.87327" lon="-1.0924">
        <ele>12.63</ele>
        <time>2021-07-01T13:12:13Z</time>
      </trkpt>
      <trkpt lat="44.87316" lon="-1.0925">
        <ele>13.12</ele>
        <time>2021-07-01T13:12:15Z</time>
      </trkpt>
      <trkpt lat="44.87312" lon="-1.09253">
        <ele>13.12</ele>
        <time>2021-07-01T13:12:16Z</time>
      </trkpt>
      <trkpt lat="44.87301" lon="-1.09275">
        <ele>14.08</ele>
        <time>2021-07-01T13:12:24Z</time>
      </trkpt>
      <trkpt lat="44.87301" lon="-1.09275">
        <ele>14.08</ele>
        <time>2021-07-01T13:12:25Z</time>
      </trkpt>
      <trkpt lat="44.87297" lon="-1.09274">
        <ele>14.08</ele>
        <time>2021-07-01T13:12:26Z</time>
      </trkpt>
      <trkpt lat="44.87294" lon="-1.09273">
        <ele>14.08</ele>
        <time>2021-07-01T13:12:27Z</time>
      </trkpt>
      <trkpt lat="44.87291" lon="-1.0927">
        <ele>13.6</ele>
        <time>2021-07-01T13:12:28Z</time>
      </trkpt>
      <trkpt lat="44.87291" lon="-1.09254">
        <ele>13.6</ele>
        <time>2021-07-01T13:12:29Z</time>
      </trkpt>
      <trkpt lat="44.87291" lon="-1.09254">
        <ele>13.6</ele>
        <time>2021-07-01T13:12:30Z</time>
      </trkpt>
      <trkpt lat="44.87287" lon="-1.09248">
        <ele>13.6</ele>
        <time>2021-07-01T13:12:31Z</time>
      </trkpt>
      <trkpt lat="44.87245" lon="-1.09197">
        <ele>13.6</ele>
        <time>2021-07-01T13:12:37Z</time>
      </trkpt>
      <trkpt lat="44.87245" lon="-1.09197">
        <ele>14.08</ele>
        <time>2021-07-01T13:12:38Z</time>
      </trkpt>
      <trkpt lat="44.87126" lon="-1.09113">
        <ele>13.6</ele>
        <time>2021-07-01T13:12:49Z</time>
      </trkpt>
      <trkpt lat="44.86946" lon="-1.09">
        <ele>13.6</ele>
        <time>2021-07-01T13:13:02Z</time>
      </trkpt>
      <trkpt lat="44.86933" lon="-1.08998">
        <ele>14.08</ele>
        <time>2021-07-01T13:13:03Z</time>
      </trkpt>
      <trkpt lat="44.86919" lon="-1.08997">
        <ele>13.6</ele>
        <time>2021-07-01T13:13:04Z</time>
      </trkpt>
      <trkpt lat="44.8687" lon="-1.08991">
        <ele>13.12</ele>
        <time>2021-07-01T13:13:10Z</time>
      </trkpt>
      <trkpt lat="44.86784" lon="-1.08983">
        <ele>14.08</ele>
        <time>2021-07-01T13:13:20Z</time>
      </trkpt>
      <trkpt lat="44.86728" lon="-1.0898">
        <ele>13.6</ele>
        <time>2021-07-01T13:13:25Z</time>
      </trkpt>
      <trkpt lat="44.86717" lon="-1.08986">
        <ele>11.67</ele>
        <time>2021-07-01T13:13:26Z</time>
      </trkpt>
      <trkpt lat="44.86705" lon="-1.08992">
        <ele>11.19</ele>
        <time>2021-07-01T13:13:27Z</time>
      </trkpt>
      <trkpt lat="44.86696" lon="-1.08997">
        <ele>12.15</ele>
        <time>2021-07-01T13:13:28Z</time>
      </trkpt>
      <trkpt lat="44.86689" lon="-1.09003">
        <ele>11.67</ele>
        <time>2021-07-01T13:13:29Z</time>
      </trkpt>
      <trkpt lat="44.86645" lon="-1.09044">
        <ele>13.12</ele>
        <time>2021-07-01T13:13:39Z</time>
      </trkpt>
      <trkpt lat="44.86589" lon="-1.09094">
        <ele>12.63</ele>
        <time>2021-07-01T13:13:49Z</time>
      </trkpt>
      <trkpt lat="44.86488" lon="-1.09187">
        <ele>13.6</ele>
        <time>2021-07-01T13:14:01Z</time>
      </trkpt>
      <trkpt lat="44.86361" lon="-1.09304">
        <ele>12.15</ele>
        <time>2021-07-01T13:14:12Z</time>
      </trkpt>
      <trkpt lat="44.86146" lon="-1.09506">
        <ele>11.67</ele>
        <time>2021-07-01T13:14:26Z</time>
      </trkpt>
      <trkpt lat="44.85937" lon="-1.09706">
        <ele>9.75</ele>
        <time>2021-07-01T13:14:43Z</time>
      </trkpt>
      <trkpt lat="44.85689" lon="-1.09945">
        <ele>9.75</ele>
        <time>2021-07-01T13:15:02Z</time>
      </trkpt>
      <trkpt lat="44.85583" lon="-1.1005">
        <ele>9.27</ele>
        <time>2021-07-01T13:15:12Z</time>
      </trkpt>
      <trkpt lat="44.85439" lon="-1.10189">
        <ele>9.75</ele>
        <time>2021-07-01T13:15:25Z</time>
      </trkpt>
      <trkpt lat="44.85298" lon="-1.10327">
        <ele>10.23</ele>
        <time>2021-07-01T13:15:40Z</time>
      </trkpt>
      <trkpt lat="44.85197" lon="-1.10455">
        <ele>8.31</ele>
        <time>2021-07-01T13:15:51Z</time>
      </trkpt>
      <trkpt lat="44.85087" lon="-1.10606">
        <ele>7.83</ele>
        <time>2021-07-01T13:16:04Z</time>
      </trkpt>
      <trkpt lat="44.84937" lon="-1.10821">
        <ele>6.87</ele>
        <time>2021-07-01T13:16:18Z</time>
      </trkpt>
      <trkpt lat="44.84714" lon="-1.11135">
        <ele>5.42</ele>
        <time>2021-07-01T13:16:37Z</time>
      </trkpt>
      <trkpt lat="44.84453" lon="-1.11502">
        <ele>3.98</ele>
        <time>2021-07-01T13:16:58Z</time>
      </trkpt>
      <trkpt lat="44.84236" lon="-1.11804">
        <ele>3.5</ele>
        <time>2021-07-01T13:17:15Z</time>
      </trkpt>
      <trkpt lat="44.84009" lon="-1.12122">
        <ele>5.42</ele>
        <time>2021-07-01T13:17:34Z</time>
      </trkpt>
      <trkpt lat="44.83963" lon="-1.12183">
        <ele>8.31</ele>
        <time>2021-07-01T13:17:40Z</time>
      </trkpt>
      <trkpt lat="44.83894" lon="-1.12281">
        <ele>1.58</ele>
        <time>2021-07-01T13:17:50Z</time>
      </trkpt>
      <trkpt lat="44.83781" lon="-1.12439">
        <ele>8.79</ele>
        <time>2021-07-01T13:18:01Z</time>
      </trkpt>
      <trkpt lat="44.83633" lon="-1.12631">
        <ele>6.87</ele>
        <time>2021-07-01T13:18:13Z</time>
      </trkpt>
      <trkpt lat="44.83619" lon="-1.12644">
        <ele>8.31</ele>
        <time>2021-07-01T13:18:14Z</time>
      </trkpt>
      <trkpt lat="44.83588" lon="-1.12663">
        <ele>9.75</ele>
        <time>2021-07-01T13:18:15Z</time>
      </trkpt>
      <trkpt lat="44.83569" lon="-1.12668">
        <ele>10.71</ele>
        <time>2021-07-01T13:18:16Z</time>
      </trkpt>
      <trkpt lat="44.83551" lon="-1.12674">
        <ele>11.19</ele>
        <time>2021-07-01T13:18:17Z</time>
      </trkpt>
      <trkpt lat="44.83532" lon="-1.1268">
        <ele>11.19</ele>
        <time>2021-07-01T13:18:18Z</time>
      </trkpt>
      <trkpt lat="44.8328" lon="-1.12726">
        <ele>8.31</ele>
        <time>2021-07-01T13:18:31Z</time>
      </trkpt>
      <trkpt lat="44.82739" lon="-1.12825">
        <ele>9.27</ele>
        <time>2021-07-01T13:18:55Z</time>
      </trkpt>
      <trkpt lat="44.82391" lon="-1.12888">
        <ele>7.83</ele>
        <time>2021-07-01T13:19:12Z</time>
      </trkpt>
      <trkpt lat="44.82064" lon="-1.12945">
        <ele>5.42</ele>
        <time>2021-07-01T13:19:30Z</time>
      </trkpt>
      <trkpt lat="44.81627" lon="-1.13018">
        <ele>4.94</ele>
        <time>2021-07-01T13:19:52Z</time>
      </trkpt>
      <trkpt lat="44.81266" lon="-1.13066">
        <ele>3.98</ele>
        <time>2021-07-01T13:20:10Z</time>
      </trkpt>
      <trkpt lat="44.80965" lon="-1.13106">
        <ele>3.5</ele>
        <time>2021-07-01T13:20:26Z</time>
      </trkpt>
      <trkpt lat="44.8074" lon="-1.13135">
        <ele>3.98</ele>
        <time>2021-07-01T13:20:38Z</time>
      </trkpt>
      <trkpt lat="44.80535" lon="-1.13164">
        <ele>3.98</ele>
        <time>2021-07-01T13:20:51Z</time>
      </trkpt>
      <trkpt lat="44.80422" lon="-1.13191">
        <ele>3.98</ele>
        <time>2021-07-01T13:20:59Z</time>
      </trkpt>
      <trkpt lat="44.80351" lon="-1.13245">
        <ele>3.5</ele>
        <time>2021-07-01T13:21:09Z</time>
      </trkpt>
      <trkpt lat="44.80274" lon="-1.13341">
        <ele>2.54</ele>
        <time>2021-07-01T13:21:20Z</time>
      </trkpt>
      <trkpt lat="44.80184" lon="-1.13491">
        <ele>3.02</ele>
        <time>2021-07-01T13:21:35Z</time>
      </trkpt>
      <trkpt lat="44.80157" lon="-1.13539">
        <ele>2.54</ele>
        <time>2021-07-01T13:21:46Z</time>
      </trkpt>
      <trkpt lat="44.80112" lon="-1.13647">
        <ele>2.06</ele>
        <time>2021-07-01T13:21:55Z</time>
      </trkpt>
      <trkpt lat="44.80035" lon="-1.13833">
        <ele>2.54</ele>
        <time>2021-07-01T13:22:09Z</time>
      </trkpt>
      <trkpt lat="44.79941" lon="-1.14054">
        <ele>1.58</ele>
        <time>2021-07-01T13:22:24Z</time>
      </trkpt>
      <trkpt lat="44.79862" lon="-1.14245">
        <ele>2.54</ele>
        <time>2021-07-01T13:22:39Z</time>
      </trkpt>
      <trkpt lat="44.79776" lon="-1.14431">
        <ele>1.58</ele>
        <time>2021-07-01T13:22:53Z</time>
      </trkpt>
      <trkpt lat="44.79676" lon="-1.14543">
        <ele>0.62</ele>
        <time>2021-07-01T13:23:04Z</time>
      </trkpt>
      <trkpt lat="44.79579" lon="-1.14644">
        <ele>-0.34</ele>
        <time>2021-07-01T13:23:16Z</time>
      </trkpt>
      <trkpt lat="44.79577" lon="-1.14647">
        <ele>-0.34</ele>
        <time>2021-07-01T13:23:17Z</time>
      </trkpt>
      <trkpt lat="44.7954" lon="-1.14681">
        <ele>0.14</ele>
        <time>2021-07-01T13:23:26Z</time>
      </trkpt>
      <trkpt lat="44.79496" lon="-1.14715">
        <ele>-0.34</ele>
        <time>2021-07-01T13:23:38Z</time>
      </trkpt>
      <trkpt lat="44.79446" lon="-1.14757">
        <ele>-0.34</ele>
        <time>2021-07-01T13:23:48Z</time>
      </trkpt>
      <trkpt lat="44.79371" lon="-1.14818">
        <ele>-1.3</ele>
        <time>2021-07-01T13:24:00Z</time>
      </trkpt>
      <trkpt lat="44.79272" lon="-1.14875">
        <ele>-1.3</ele>
        <time>2021-07-01T13:24:11Z</time>
      </trkpt>
      <trkpt lat="44.79174" lon="-1.14913">
        <ele>-3.23</ele>
        <time>2021-07-01T13:24:23Z</time>
      </trkpt>
      <trkpt lat="44.79085" lon="-1.14981">
        <ele>-3.23</ele>
        <time>2021-07-01T13:24:33Z</time>
      </trkpt>
      <trkpt lat="44.79085" lon="-1.14981">
        <ele>-2.75</ele>
        <time>2021-07-01T13:24:34Z</time>
      </trkpt>
      <trkpt lat="44.7908" lon="-1.14993">
        <ele>-2.75</ele>
        <time>2021-07-01T13:24:35Z</time>
      </trkpt>
      <trkpt lat="44.79075" lon="-1.15005">
        <ele>-2.27</ele>
        <time>2021-07-01T13:24:36Z</time>
      </trkpt>
      <trkpt lat="44.7907" lon="-1.15017">
        <ele>-2.75</ele>
        <time>2021-07-01T13:24:37Z</time>
      </trkpt>
      <trkpt lat="44.79066" lon="-1.15027">
        <ele>-2.27</ele>
        <time>2021-07-01T13:24:38Z</time>
      </trkpt>
      <trkpt lat="44.79063" lon="-1.15036">
        <ele>-1.3</ele>
        <time>2021-07-01T13:24:39Z</time>
      </trkpt>
      <trkpt lat="44.79059" lon="-1.15052">
        <ele>-0.82</ele>
        <time>2021-07-01T13:24:41Z</time>
      </trkpt>
      <trkpt lat="44.79057" lon="-1.15058">
        <ele>-1.3</ele>
        <time>2021-07-01T13:24:42Z</time>
      </trkpt>
      <trkpt lat="44.79056" lon="-1.15063">
        <ele>-1.3</ele>
        <time>2021-07-01T13:24:43Z</time>
      </trkpt>
      <trkpt lat="44.79057" lon="-1.15071">
        <ele>-1.3</ele>
        <time>2021-07-01T13:24:44Z</time>
      </trkpt>
      <trkpt lat="44.79059" lon="-1.15077">
        <ele>-1.3</ele>
        <time>2021-07-01T13:24:45Z</time>
      </trkpt>
      <trkpt lat="44.79061" lon="-1.15082">
        <ele>-1.3</ele>
        <time>2021-07-01T13:24:46Z</time>
      </trkpt>
      <trkpt lat="44.79059" lon="-1.15088">
        <ele>-1.3</ele>
        <time>2021-07-01T13:24:47Z</time>
      </trkpt>
      <trkpt lat="44.79057" lon="-1.1509">
        <ele>-1.3</ele>
        <time>2021-07-01T13:24:48Z</time>
      </trkpt>
      <trkpt lat="44.79049" lon="-1.15095">
        <ele>-1.3</ele>
        <time>2021-07-01T13:24:49Z</time>
      </trkpt>
      <trkpt lat="44.79049" lon="-1.15095">
        <ele>-1.3</ele>
        <time>2021-07-01T13:24:50Z</time>
      </trkpt>
      <trkpt lat="44.79049" lon="-1.15095">
        <ele>-1.3</ele>
        <time>2021-07-01T13:24:51Z</time>
      </trkpt>
      <trkpt lat="44.79046" lon="-1.15091">
        <ele>-1.3</ele>
        <time>2021-07-01T13:24:52Z</time>
      </trkpt>
      <trkpt lat="44.79042" lon="-1.15086">
        <ele>-0.82</ele>
        <time>2021-07-01T13:24:53Z</time>
      </trkpt>
      <trkpt lat="44.79041" lon="-1.15083">
        <ele>-1.3</ele>
        <time>2021-07-01T13:24:54Z</time>
      </trkpt>
      <trkpt lat="44.79043" lon="-1.15078">
        <ele>-1.3</ele>
        <time>2021-07-01T13:24:55Z</time>
      </trkpt>
      <trkpt lat="44.79045" lon="-1.15072">
        <ele>-1.3</ele>
        <time>2021-07-01T13:24:56Z</time>
      </trkpt>
      <trkpt lat="44.79045" lon="-1.15072">
        <ele>-1.3</ele>
        <time>2021-07-01T13:24:57Z</time>
      </trkpt>
      <trkpt lat="44.79047" lon="-1.15067">
        <ele>-1.3</ele>
        <time>2021-07-01T13:24:58Z</time>
      </trkpt>
      <trkpt lat="44.79053" lon="-1.15067">
        <ele>-1.79</ele>
        <time>2021-07-01T13:24:59Z</time>
      </trkpt>
      <trkpt lat="44.79056" lon="-1.15069">
        <ele>-2.27</ele>
        <time>2021-07-01T13:25:00Z</time>
      </trkpt>
      <trkpt lat="44.79056" lon="-1.15069">
        <ele>-2.27</ele>
        <time>2021-07-01T13:25:01Z</time>
      </trkpt>
      <trkpt lat="44.79058" lon="-1.15075">
        <ele>-2.27</ele>
        <time>2021-07-01T13:25:02Z</time>
      </trkpt>
      <trkpt lat="44.7906" lon="-1.1508">
        <ele>-2.27</ele>
        <time>2021-07-01T13:25:03Z</time>
      </trkpt>
      <trkpt lat="44.79058" lon="-1.15089">
        <ele>-2.75</ele>
        <time>2021-07-01T13:25:04Z</time>
      </trkpt>
      <trkpt lat="44.79049" lon="-1.151">
        <ele>-3.23</ele>
        <time>2021-07-01T13:25:05Z</time>
      </trkpt>
      <trkpt lat="44.79049" lon="-1.151">
        <ele>-3.23</ele>
        <time>2021-07-01T13:25:06Z</time>
      </trkpt>
      <trkpt lat="44.79048" lon="-1.15108">
        <ele>-3.23</ele>
        <time>2021-07-01T13:25:07Z</time>
      </trkpt>
      <trkpt lat="44.79048" lon="-1.15117">
        <ele>-3.71</ele>
        <time>2021-07-01T13:25:08Z</time>
      </trkpt>
      <trkpt lat="44.79047" lon="-1.15128">
        <ele>-3.71</ele>
        <time>2021-07-01T13:25:09Z</time>
      </trkpt>
      <trkpt lat="44.79046" lon="-1.15139">
        <ele>-3.71</ele>
        <time>2021-07-01T13:25:10Z</time>
      </trkpt>
      <trkpt lat="44.79047" lon="-1.15303">
        <ele>-6.59</ele>
        <time>2021-07-01T13:25:21Z</time>
      </trkpt>
      <trkpt lat="44.79049" lon="-1.15555">
        <ele>-7.55</ele>
        <time>2021-07-01T13:25:34Z</time>
      </trkpt>
      <trkpt lat="44.79031" lon="-1.15792">
        <ele>-5.15</ele>
        <time>2021-07-01T13:25:45Z</time>
      </trkpt>
      <trkpt lat="44.78989" lon="-1.16108">
        <ele>-0.82</ele>
        <time>2021-07-01T13:26:00Z</time>
      </trkpt>
      <trkpt lat="44.78961" lon="-1.16241">
        <ele>-3.71</ele>
        <time>2021-07-01T13:26:08Z</time>
      </trkpt>
      <trkpt lat="44.78954" lon="-1.16254">
        <ele>-3.71</ele>
        <time>2021-07-01T13:26:09Z</time>
      </trkpt>
      <trkpt lat="44.78946" lon="-1.16267">
        <ele>-3.23</ele>
        <time>2021-07-01T13:26:10Z</time>
      </trkpt>
      <trkpt lat="44.78937" lon="-1.16281">
        <ele>-3.71</ele>
        <time>2021-07-01T13:26:11Z</time>
      </trkpt>
      <trkpt lat="44.78928" lon="-1.16293">
        <ele>-3.71</ele>
        <time>2021-07-01T13:26:12Z</time>
      </trkpt>
      <trkpt lat="44.78917" lon="-1.16305">
        <ele>-4.19</ele>
        <time>2021-07-01T13:26:13Z</time>
      </trkpt>
      <trkpt lat="44.78905" lon="-1.16314">
        <ele>-4.19</ele>
        <time>2021-07-01T13:26:14Z</time>
      </trkpt>
      <trkpt lat="44.78893" lon="-1.16323">
        <ele>-4.67</ele>
        <time>2021-07-01T13:26:15Z</time>
      </trkpt>
      <trkpt lat="44.78705" lon="-1.16438">
        <ele>-7.55</ele>
        <time>2021-07-01T13:26:28Z</time>
      </trkpt>
      <trkpt lat="44.78505" lon="-1.16561">
        <ele>-7.07</ele>
        <time>2021-07-01T13:26:44Z</time>
      </trkpt>
      <trkpt lat="44.78419" lon="-1.16615">
        <ele>-7.55</ele>
        <time>2021-07-01T13:26:53Z</time>
      </trkpt>
      <trkpt lat="44.7841" lon="-1.1662">
        <ele>-7.07</ele>
        <time>2021-07-01T13:26:54Z</time>
      </trkpt>
      <trkpt lat="44.78364" lon="-1.16647">
        <ele>-9.48</ele>
        <time>2021-07-01T13:27:02Z</time>
      </trkpt>
      <trkpt lat="44.78349" lon="-1.16656">
        <ele>-10.44</ele>
        <time>2021-07-01T13:27:14Z</time>
      </trkpt>
    </trkseg>
  </trk>
  <trk>
    <name><![CDATA[Journal actif: 2021-07-01 11:27]]></name>
    <trkseg>
      <trkpt lat="44.78349" lon="-1.16656">
        <ele>-10.92</ele>
        <time>2021-07-01T13:27:27Z</time>
      </trkpt>
      <trkpt lat="44.78333" lon="-1.16666">
        <ele>-11.88</ele>
        <time>2021-07-01T13:27:41Z</time>
      </trkpt>
      <trkpt lat="44.78316" lon="-1.16676">
        <ele>-11.88</ele>
        <time>2021-07-01T13:27:59Z</time>
      </trkpt>
      <trkpt lat="44.78308" lon="-1.16681">
        <ele>-10.92</ele>
        <time>2021-07-01T13:28:19Z</time>
      </trkpt>
      <trkpt lat="44.78291" lon="-1.16687">
        <ele>-12.36</ele>
        <time>2021-07-01T13:28:43Z</time>
      </trkpt>
      <trkpt lat="44.78274" lon="-1.16693">
        <ele>-14.76</ele>
        <time>2021-07-01T13:28:57Z</time>
      </trkpt>
      <trkpt lat="44.7827" lon="-1.16694">
        <ele>-17.65</ele>
        <time>2021-07-01T13:29:15Z</time>
      </trkpt>
      <trkpt lat="44.78232" lon="-1.16701">
        <ele>-19.09</ele>
        <time>2021-07-01T13:29:39Z</time>
      </trkpt>
      <trkpt lat="44.78204" lon="-1.16703">
        <ele>-18.61</ele>
        <time>2021-07-01T13:29:56Z</time>
      </trkpt>
      <trkpt lat="44.78184" lon="-1.16705">
        <ele>-15.72</ele>
        <time>2021-07-01T13:30:13Z</time>
      </trkpt>
      <trkpt lat="44.78177" lon="-1.16706">
        <ele>-15.72</ele>
        <time>2021-07-01T13:30:28Z</time>
      </trkpt>
      <trkpt lat="44.78177" lon="-1.16706">
        <ele>-15.24</ele>
        <time>2021-07-01T13:31:11Z</time>
      </trkpt>
      <trkpt lat="44.78154" lon="-1.16707">
        <ele>-17.17</ele>
        <time>2021-07-01T13:31:38Z</time>
      </trkpt>
      <trkpt lat="44.78125" lon="-1.1671">
        <ele>-19.57</ele>
        <time>2021-07-01T13:31:58Z</time>
      </trkpt>
      <trkpt lat="44.78091" lon="-1.16712">
        <ele>-20.53</ele>
        <time>2021-07-01T13:32:22Z</time>
      </trkpt>
      <trkpt lat="44.78068" lon="-1.16714">
        <ele>-19.57</ele>
        <time>2021-07-01T13:32:39Z</time>
      </trkpt>
      <trkpt lat="44.78039" lon="-1.16715">
        <ele>-19.57</ele>
        <time>2021-07-01T13:32:59Z</time>
      </trkpt>
      <trkpt lat="44.78008" lon="-1.16717">
        <ele>-21.01</ele>
        <time>2021-07-01T13:33:20Z</time>
      </trkpt>
      <trkpt lat="44.77981" lon="-1.16717">
        <ele>-18.61</ele>
        <time>2021-07-01T13:33:36Z</time>
      </trkpt>
      <trkpt lat="44.7796" lon="-1.16719">
        <ele>-21.01</ele>
        <time>2021-07-01T13:33:53Z</time>
      </trkpt>
      <trkpt lat="44.77929" lon="-1.16721">
        <ele>-21.49</ele>
        <time>2021-07-01T13:34:08Z</time>
      </trkpt>
      <trkpt lat="44.7789" lon="-1.16723">
        <ele>-16.69</ele>
        <time>2021-07-01T13:34:23Z</time>
      </trkpt>
      <trkpt lat="44.7787" lon="-1.16723">
        <ele>-14.28</ele>
        <time>2021-07-01T13:34:39Z</time>
      </trkpt>
      <trkpt lat="44.77859" lon="-1.16722">
        <ele>-12.84</ele>
        <time>2021-07-01T13:34:55Z</time>
      </trkpt>
      <trkpt lat="44.77847" lon="-1.16719">
        <ele>-11.4</ele>
        <time>2021-07-01T13:35:10Z</time>
      </trkpt>
      <trkpt lat="44.77839" lon="-1.16714">
        <ele>-10.92</ele>
        <time>2021-07-01T13:35:24Z</time>
      </trkpt>
      <trkpt lat="44.77833" lon="-1.1671">
        <ele>-10.92</ele>
        <time>2021-07-01T13:35:39Z</time>
      </trkpt>
      <trkpt lat="44.77816" lon="-1.16699">
        <ele>-10.92</ele>
        <time>2021-07-01T13:36:05Z</time>
      </trkpt>
      <trkpt lat="44.77791" lon="-1.167">
        <ele>-11.4</ele>
        <time>2021-07-01T13:36:22Z</time>
      </trkpt>
      <trkpt lat="44.77752" lon="-1.16739">
        <ele>-11.88</ele>
        <time>2021-07-01T13:36:59Z</time>
      </trkpt>
      <trkpt lat="44.77749" lon="-1.16742">
        <ele>-9.96</ele>
        <time>2021-07-01T13:37:16Z</time>
      </trkpt>
      <trkpt lat="44.77736" lon="-1.16754">
        <ele>-9.96</ele>
        <time>2021-07-01T13:37:49Z</time>
      </trkpt>
      <trkpt lat="44.77728" lon="-1.16761">
        <ele>-9.96</ele>
        <time>2021-07-01T13:38:05Z</time>
      </trkpt>
      <trkpt lat="44.77717" lon="-1.16771">
        <ele>-9</ele>
        <time>2021-07-01T13:38:25Z</time>
      </trkpt>
      <trkpt lat="44.77705" lon="-1.16782">
        <ele>-9</ele>
        <time>2021-07-01T13:38:54Z</time>
      </trkpt>
      <trkpt lat="44.7767" lon="-1.16811">
        <ele>-9.48</ele>
        <time>2021-07-01T13:39:12Z</time>
      </trkpt>
      <trkpt lat="44.77638" lon="-1.16833">
        <ele>-6.11</ele>
        <time>2021-07-01T13:39:26Z</time>
      </trkpt>
      <trkpt lat="44.7759" lon="-1.16879">
        <ele>-5.63</ele>
        <time>2021-07-01T13:39:41Z</time>
      </trkpt>
      <trkpt lat="44.77538" lon="-1.16929">
        <ele>-3.23</ele>
        <time>2021-07-01T13:39:53Z</time>
      </trkpt>
      <trkpt lat="44.77454" lon="-1.17011">
        <ele>2.54</ele>
        <time>2021-07-01T13:40:06Z</time>
      </trkpt>
      <trkpt lat="44.77391" lon="-1.17071">
        <ele>-0.82</ele>
        <time>2021-07-01T13:40:23Z</time>
      </trkpt>
      <trkpt lat="44.77339" lon="-1.17121">
        <ele>-2.27</ele>
        <time>2021-07-01T13:40:40Z</time>
      </trkpt>
      <trkpt lat="44.77282" lon="-1.17176">
        <ele>0.62</ele>
        <time>2021-07-01T13:40:56Z</time>
      </trkpt>
      <trkpt lat="44.77205" lon="-1.1725">
        <ele>2.54</ele>
        <time>2021-07-01T13:41:12Z</time>
      </trkpt>
      <trkpt lat="44.77145" lon="-1.17307">
        <ele>3.98</ele>
        <time>2021-07-01T13:41:26Z</time>
      </trkpt>
      <trkpt lat="44.77134" lon="-1.17318">
        <ele>3.98</ele>
        <time>2021-07-01T13:41:36Z</time>
      </trkpt>
      <trkpt lat="44.77116" lon="-1.17335">
        <ele>3.98</ele>
        <time>2021-07-01T13:42:04Z</time>
      </trkpt>
      <trkpt lat="44.77077" lon="-1.17373">
        <ele>5.42</ele>
        <time>2021-07-01T13:42:20Z</time>
      </trkpt>
      <trkpt lat="44.77037" lon="-1.1741">
        <ele>4.94</ele>
        <time>2021-07-01T13:42:35Z</time>
      </trkpt>
      <trkpt lat="44.76974" lon="-1.17471">
        <ele>2.06</ele>
        <time>2021-07-01T13:42:50Z</time>
      </trkpt>
      <trkpt lat="44.76894" lon="-1.17547">
        <ele>1.58</ele>
        <time>2021-07-01T13:43:03Z</time>
      </trkpt>
      <trkpt lat="44.76824" lon="-1.17614">
        <ele>2.54</ele>
        <time>2021-07-01T13:43:18Z</time>
      </trkpt>
      <trkpt lat="44.76797" lon="-1.1764">
        <ele>4.46</ele>
        <time>2021-07-01T13:43:30Z</time>
      </trkpt>
      <trkpt lat="44.76792" lon="-1.17645">
        <ele>3.5</ele>
        <time>2021-07-01T13:43:50Z</time>
      </trkpt>
      <trkpt lat="44.76761" lon="-1.17675">
        <ele>3.98</ele>
        <time>2021-07-01T13:44:05Z</time>
      </trkpt>
      <trkpt lat="44.76712" lon="-1.17722">
        <ele>6.87</ele>
        <time>2021-07-01T13:44:18Z</time>
      </trkpt>
      <trkpt lat="44.76644" lon="-1.17787">
        <ele>7.35</ele>
        <time>2021-07-01T13:44:32Z</time>
      </trkpt>
      <trkpt lat="44.76601" lon="-1.17829">
        <ele>7.35</ele>
        <time>2021-07-01T13:44:44Z</time>
      </trkpt>
      <trkpt lat="44.76539" lon="-1.1789">
        <ele>5.42</ele>
        <time>2021-07-01T13:45:03Z</time>
      </trkpt>
      <trkpt lat="44.76529" lon="-1.17899">
        <ele>3.98</ele>
        <time>2021-07-01T13:45:14Z</time>
      </trkpt>
      <trkpt lat="44.76512" lon="-1.17914">
        <ele>3.02</ele>
        <time>2021-07-01T13:45:59Z</time>
      </trkpt>
      <trkpt lat="44.76457" lon="-1.17964">
        <ele>2.06</ele>
        <time>2021-07-01T13:46:13Z</time>
      </trkpt>
      <trkpt lat="44.76373" lon="-1.18026">
        <ele>3.02</ele>
        <time>2021-07-01T13:46:33Z</time>
      </trkpt>
      <trkpt lat="44.76317" lon="-1.18042">
        <ele>-0.82</ele>
        <time>2021-07-01T13:46:47Z</time>
      </trkpt>
      <trkpt lat="44.76264" lon="-1.1804">
        <ele>-3.23</ele>
        <time>2021-07-01T13:47:03Z</time>
      </trkpt>
      <trkpt lat="44.76249" lon="-1.18038">
        <ele>-2.75</ele>
        <time>2021-07-01T13:48:59Z</time>
      </trkpt>
      <trkpt lat="44.76172" lon="-1.18028">
        <ele>-2.75</ele>
        <time>2021-07-01T13:49:09Z</time>
      </trkpt>
      <trkpt lat="44.75992" lon="-1.18011">
        <ele>-2.75</ele>
        <time>2021-07-01T13:49:28Z</time>
      </trkpt>
      <trkpt lat="44.75787" lon="-1.18005">
        <ele>0.14</ele>
        <time>2021-07-01T13:49:46Z</time>
      </trkpt>
      <trkpt lat="44.75614" lon="-1.18007">
        <ele>-0.34</ele>
        <time>2021-07-01T13:50:01Z</time>
      </trkpt>
      <trkpt lat="44.75432" lon="-1.18029">
        <ele>2.54</ele>
        <time>2021-07-01T13:50:18Z</time>
      </trkpt>
      <trkpt lat="44.75272" lon="-1.18049">
        <ele>2.54</ele>
        <time>2021-07-01T13:50:34Z</time>
      </trkpt>
      <trkpt lat="44.75152" lon="-1.18074">
        <ele>1.58</ele>
        <time>2021-07-01T13:50:49Z</time>
      </trkpt>
      <trkpt lat="44.75136" lon="-1.18077">
        <ele>2.54</ele>
        <time>2021-07-01T13:50:52Z</time>
      </trkpt>
      <trkpt lat="44.75127" lon="-1.18079">
        <ele>2.54</ele>
        <time>2021-07-01T13:50:53Z</time>
      </trkpt>
      <trkpt lat="44.75124" lon="-1.18084">
        <ele>2.54</ele>
        <time>2021-07-01T13:50:54Z</time>
      </trkpt>
      <trkpt lat="44.7512" lon="-1.18089">
        <ele>2.54</ele>
        <time>2021-07-01T13:50:55Z</time>
      </trkpt>
      <trkpt lat="44.7512" lon="-1.18089">
        <ele>2.54</ele>
        <time>2021-07-01T13:50:56Z</time>
      </trkpt>
      <trkpt lat="44.75114" lon="-1.18093">
        <ele>2.54</ele>
        <time>2021-07-01T13:50:57Z</time>
      </trkpt>
      <trkpt lat="44.75109" lon="-1.18094">
        <ele>2.06</ele>
        <time>2021-07-01T13:50:58Z</time>
      </trkpt>
      <trkpt lat="44.75099" lon="-1.18088">
        <ele>2.06</ele>
        <time>2021-07-01T13:50:59Z</time>
      </trkpt>
      <trkpt lat="44.75093" lon="-1.18086">
        <ele>1.58</ele>
        <time>2021-07-01T13:51:00Z</time>
      </trkpt>
      <trkpt lat="44.75087" lon="-1.18084">
        <ele>1.58</ele>
        <time>2021-07-01T13:51:01Z</time>
      </trkpt>
      <trkpt lat="44.75081" lon="-1.18083">
        <ele>1.58</ele>
        <time>2021-07-01T13:51:02Z</time>
      </trkpt>
      <trkpt lat="44.75081" lon="-1.18083">
        <ele>1.1</ele>
        <time>2021-07-01T13:51:03Z</time>
      </trkpt>
      <trkpt lat="44.75073" lon="-1.18082">
        <ele>0.62</ele>
        <time>2021-07-01T13:51:04Z</time>
      </trkpt>
      <trkpt lat="44.74963" lon="-1.18085">
        <ele>1.58</ele>
        <time>2021-07-01T13:51:16Z</time>
      </trkpt>
      <trkpt lat="44.74794" lon="-1.18104">
        <ele>5.42</ele>
        <time>2021-07-01T13:51:34Z</time>
      </trkpt>
      <trkpt lat="44.74642" lon="-1.18121">
        <ele>3.5</ele>
        <time>2021-07-01T13:51:51Z</time>
      </trkpt>
      <trkpt lat="44.74592" lon="-1.18127">
        <ele>2.06</ele>
        <time>2021-07-01T13:52:00Z</time>
      </trkpt>
      <trkpt lat="44.74529" lon="-1.18133">
        <ele>4.94</ele>
        <time>2021-07-01T13:52:11Z</time>
      </trkpt>
      <trkpt lat="44.74476" lon="-1.18133">
        <ele>4.94</ele>
        <time>2021-07-01T13:52:23Z</time>
      </trkpt>
      <trkpt lat="44.74453" lon="-1.18133">
        <ele>4.46</ele>
        <time>2021-07-01T13:52:32Z</time>
      </trkpt>
      <trkpt lat="44.74385" lon="-1.18152">
        <ele>3.5</ele>
        <time>2021-07-01T13:52:42Z</time>
      </trkpt>
      <trkpt lat="44.74307" lon="-1.18236">
        <ele>1.58</ele>
        <time>2021-07-01T13:52:54Z</time>
      </trkpt>
      <trkpt lat="44.74225" lon="-1.18336">
        <ele>-2.75</ele>
        <time>2021-07-01T13:53:05Z</time>
      </trkpt>
      <trkpt lat="44.74167" lon="-1.18478">
        <ele>-2.75</ele>
        <time>2021-07-01T13:53:15Z</time>
      </trkpt>
      <trkpt lat="44.74094" lon="-1.18695">
        <ele>-4.67</ele>
        <time>2021-07-01T13:53:29Z</time>
      </trkpt>
      <trkpt lat="44.74009" lon="-1.18905">
        <ele>-6.59</ele>
        <time>2021-07-01T13:53:40Z</time>
      </trkpt>
      <trkpt lat="44.73847" lon="-1.19239">
        <ele>-4.19</ele>
        <time>2021-07-01T13:53:57Z</time>
      </trkpt>
      <trkpt lat="44.73726" lon="-1.19481">
        <ele>-0.82</ele>
        <time>2021-07-01T13:54:10Z</time>
      </trkpt>
      <trkpt lat="44.73639" lon="-1.1961">
        <ele>3.02</ele>
        <time>2021-07-01T13:54:18Z</time>
      </trkpt>
      <trkpt lat="44.73601" lon="-1.19646">
        <ele>5.42</ele>
        <time>2021-07-01T13:54:21Z</time>
      </trkpt>
      <trkpt lat="44.73586" lon="-1.19655">
        <ele>6.39</ele>
        <time>2021-07-01T13:54:22Z</time>
      </trkpt>
      <trkpt lat="44.73572" lon="-1.19663">
        <ele>6.87</ele>
        <time>2021-07-01T13:54:23Z</time>
      </trkpt>
      <trkpt lat="44.73556" lon="-1.19664">
        <ele>5.91</ele>
        <time>2021-07-01T13:54:24Z</time>
      </trkpt>
      <trkpt lat="44.7354" lon="-1.19664">
        <ele>4.46</ele>
        <time>2021-07-01T13:54:25Z</time>
      </trkpt>
      <trkpt lat="44.73524" lon="-1.19665">
        <ele>3.02</ele>
        <time>2021-07-01T13:54:26Z</time>
      </trkpt>
      <trkpt lat="44.73507" lon="-1.19665">
        <ele>1.58</ele>
        <time>2021-07-01T13:54:27Z</time>
      </trkpt>
      <trkpt lat="44.73245" lon="-1.19627">
        <ele>2.06</ele>
        <time>2021-07-01T13:54:43Z</time>
      </trkpt>
      <trkpt lat="44.73025" lon="-1.19608">
        <ele>1.58</ele>
        <time>2021-07-01T13:54:58Z</time>
      </trkpt>
      <trkpt lat="44.72925" lon="-1.19661">
        <ele>1.1</ele>
        <time>2021-07-01T13:55:06Z</time>
      </trkpt>
      <trkpt lat="44.72862" lon="-1.19706">
        <ele>-0.82</ele>
        <time>2021-07-01T13:55:13Z</time>
      </trkpt>
      <trkpt lat="44.72802" lon="-1.19769">
        <ele>-2.27</ele>
        <time>2021-07-01T13:55:26Z</time>
      </trkpt>
      <trkpt lat="44.72762" lon="-1.19811">
        <ele>-4.67</ele>
        <time>2021-07-01T13:55:38Z</time>
      </trkpt>
      <trkpt lat="44.72678" lon="-1.19904">
        <ele>-6.59</ele>
        <time>2021-07-01T13:55:51Z</time>
      </trkpt>
      <trkpt lat="44.72536" lon="-1.2005">
        <ele>-5.63</ele>
        <time>2021-07-01T13:56:07Z</time>
      </trkpt>
      <trkpt lat="44.72474" lon="-1.20114">
        <ele>-4.67</ele>
        <time>2021-07-01T13:56:16Z</time>
      </trkpt>
      <trkpt lat="44.72411" lon="-1.20202">
        <ele>-6.11</ele>
        <time>2021-07-01T13:56:29Z</time>
      </trkpt>
      <trkpt lat="44.72373" lon="-1.20317">
        <ele>-4.19</ele>
        <time>2021-07-01T13:56:42Z</time>
      </trkpt>
      <trkpt lat="44.72355" lon="-1.2038">
        <ele>-3.71</ele>
        <time>2021-07-01T13:56:51Z</time>
      </trkpt>
      <trkpt lat="44.72353" lon="-1.20388">
        <ele>-3.71</ele>
        <time>2021-07-01T13:56:52Z</time>
      </trkpt>
      <trkpt lat="44.72351" lon="-1.20395">
        <ele>-3.23</ele>
        <time>2021-07-01T13:56:53Z</time>
      </trkpt>
      <trkpt lat="44.72358" lon="-1.20412">
        <ele>-3.23</ele>
        <time>2021-07-01T13:56:55Z</time>
      </trkpt>
      <trkpt lat="44.72358" lon="-1.20419">
        <ele>-3.23</ele>
        <time>2021-07-01T13:56:56Z</time>
      </trkpt>
      <trkpt lat="44.72353" lon="-1.20426">
        <ele>-3.23</ele>
        <time>2021-07-01T13:56:57Z</time>
      </trkpt>
      <trkpt lat="44.7235" lon="-1.20429">
        <ele>-3.71</ele>
        <time>2021-07-01T13:56:59Z</time>
      </trkpt>
      <trkpt lat="44.7234" lon="-1.20439">
        <ele>-3.71</ele>
        <time>2021-07-01T13:57:00Z</time>
      </trkpt>
      <trkpt lat="44.72338" lon="-1.20447">
        <ele>-3.23</ele>
        <time>2021-07-01T13:57:01Z</time>
      </trkpt>
      <trkpt lat="44.72304" lon="-1.20562">
        <ele>-2.27</ele>
        <time>2021-07-01T13:57:10Z</time>
      </trkpt>
      <trkpt lat="44.72235" lon="-1.20797">
        <ele>0.62</ele>
        <time>2021-07-01T13:57:26Z</time>
      </trkpt>
      <trkpt lat="44.72191" lon="-1.20929">
        <ele>-1.79</ele>
        <time>2021-07-01T13:57:35Z</time>
      </trkpt>
      <trkpt lat="44.72183" lon="-1.20939">
        <ele>-2.27</ele>
        <time>2021-07-01T13:57:36Z</time>
      </trkpt>
      <trkpt lat="44.72174" lon="-1.20951">
        <ele>-3.23</ele>
        <time>2021-07-01T13:57:37Z</time>
      </trkpt>
      <trkpt lat="44.72165" lon="-1.20962">
        <ele>-2.75</ele>
        <time>2021-07-01T13:57:38Z</time>
      </trkpt>
      <trkpt lat="44.72157" lon="-1.20972">
        <ele>-3.23</ele>
        <time>2021-07-01T13:57:39Z</time>
      </trkpt>
      <trkpt lat="44.72146" lon="-1.20979">
        <ele>-2.75</ele>
        <time>2021-07-01T13:57:40Z</time>
      </trkpt>
      <trkpt lat="44.72033" lon="-1.21023">
        <ele>-1.3</ele>
        <time>2021-07-01T13:57:50Z</time>
      </trkpt>
      <trkpt lat="44.71862" lon="-1.21085">
        <ele>-3.71</ele>
        <time>2021-07-01T13:58:03Z</time>
      </trkpt>
      <trkpt lat="44.71744" lon="-1.21178">
        <ele>-4.67</ele>
        <time>2021-07-01T13:58:13Z</time>
      </trkpt>
      <trkpt lat="44.71681" lon="-1.21233">
        <ele>-5.15</ele>
        <time>2021-07-01T13:58:23Z</time>
      </trkpt>
      <trkpt lat="44.71651" lon="-1.21259">
        <ele>-4.19</ele>
        <time>2021-07-01T13:58:31Z</time>
      </trkpt>
      <trkpt lat="44.71637" lon="-1.21271">
        <ele>-4.19</ele>
        <time>2021-07-01T13:58:39Z</time>
      </trkpt>
      <trkpt lat="44.71604" lon="-1.213">
        <ele>-3.71</ele>
        <time>2021-07-01T13:58:48Z</time>
      </trkpt>
      <trkpt lat="44.716" lon="-1.21303">
        <ele>-3.71</ele>
        <time>2021-07-01T13:58:49Z</time>
      </trkpt>
      <trkpt lat="44.71544" lon="-1.21365">
        <ele>-3.23</ele>
        <time>2021-07-01T13:59:01Z</time>
      </trkpt>
      <trkpt lat="44.71466" lon="-1.21474">
        <ele>-7.07</ele>
        <time>2021-07-01T13:59:12Z</time>
      </trkpt>
      <trkpt lat="44.71361" lon="-1.21633">
        <ele>-9.96</ele>
        <time>2021-07-01T13:59:25Z</time>
      </trkpt>
      <trkpt lat="44.71208" lon="-1.21867">
        <ele>-8.51</ele>
        <time>2021-07-01T13:59:43Z</time>
      </trkpt>
      <trkpt lat="44.71144" lon="-1.22017">
        <ele>-7.55</ele>
        <time>2021-07-01T13:59:53Z</time>
      </trkpt>
      <trkpt lat="44.71084" lon="-1.22171">
        <ele>-8.03</ele>
        <time>2021-07-01T14:00:04Z</time>
      </trkpt>
      <trkpt lat="44.70985" lon="-1.2235">
        <ele>-7.55</ele>
        <time>2021-07-01T14:00:22Z</time>
      </trkpt>
      <trkpt lat="44.70918" lon="-1.22443">
        <ele>-4.67</ele>
        <time>2021-07-01T14:00:33Z</time>
      </trkpt>
      <trkpt lat="44.70831" lon="-1.22479">
        <ele>-2.75</ele>
        <time>2021-07-01T14:00:43Z</time>
      </trkpt>
      <trkpt lat="44.70759" lon="-1.22469">
        <ele>-2.75</ele>
        <time>2021-07-01T14:00:53Z</time>
      </trkpt>
      <trkpt lat="44.70753" lon="-1.22467">
        <ele>-1.79</ele>
        <time>2021-07-01T14:01:02Z</time>
      </trkpt>
      <trkpt lat="44.70734" lon="-1.22463">
        <ele>-1.79</ele>
        <time>2021-07-01T14:01:12Z</time>
      </trkpt>
      <trkpt lat="44.70732" lon="-1.22463">
        <ele>-1.79</ele>
        <time>2021-07-01T14:01:13Z</time>
      </trkpt>
      <trkpt lat="44.70736" lon="-1.2246">
        <ele>-1.79</ele>
        <time>2021-07-01T14:01:14Z</time>
      </trkpt>
      <trkpt lat="44.70735" lon="-1.22456">
        <ele>-1.79</ele>
        <time>2021-07-01T14:01:15Z</time>
      </trkpt>
      <trkpt lat="44.70734" lon="-1.22452">
        <ele>-1.79</ele>
        <time>2021-07-01T14:01:16Z</time>
      </trkpt>
      <trkpt lat="44.70733" lon="-1.22447">
        <ele>-1.79</ele>
        <time>2021-07-01T14:01:17Z</time>
      </trkpt>
      <trkpt lat="44.70732" lon="-1.22439">
        <ele>-2.27</ele>
        <time>2021-07-01T14:01:19Z</time>
      </trkpt>
      <trkpt lat="44.70731" lon="-1.22433">
        <ele>-2.27</ele>
        <time>2021-07-01T14:01:20Z</time>
      </trkpt>
      <trkpt lat="44.70711" lon="-1.22328">
        <ele>-4.67</ele>
        <time>2021-07-01T14:01:38Z</time>
      </trkpt>
      <trkpt lat="44.70691" lon="-1.22312">
        <ele>-4.67</ele>
        <time>2021-07-01T14:01:47Z</time>
      </trkpt>
      <trkpt lat="44.70689" lon="-1.22311">
        <ele>-4.67</ele>
        <time>2021-07-01T14:01:49Z</time>
      </trkpt>
      <trkpt lat="44.70689" lon="-1.22311">
        <ele>-4.67</ele>
        <time>2021-07-01T14:01:50Z</time>
      </trkpt>
      <trkpt lat="44.70689" lon="-1.22311">
        <ele>-4.67</ele>
        <time>2021-07-01T14:01:51Z</time>
      </trkpt>
      <trkpt lat="44.70692" lon="-1.22301">
        <ele>-4.67</ele>
        <time>2021-07-01T14:01:52Z</time>
      </trkpt>
      <trkpt lat="44.70693" lon="-1.22298">
        <ele>-4.19</ele>
        <time>2021-07-01T14:01:53Z</time>
      </trkpt>
      <trkpt lat="44.70697" lon="-1.22285">
        <ele>-4.67</ele>
        <time>2021-07-01T14:01:59Z</time>
      </trkpt>
      <trkpt lat="44.70698" lon="-1.22278">
        <ele>-4.67</ele>
        <time>2021-07-01T14:02:00Z</time>
      </trkpt>
      <trkpt lat="44.70699" lon="-1.22279">
        <ele>-4.19</ele>
        <time>2021-07-01T14:02:01Z</time>
      </trkpt>
      <trkpt lat="44.70699" lon="-1.22279">
        <ele>-4.19</ele>
        <time>2021-07-01T14:02:02Z</time>
      </trkpt>
      <trkpt lat="44.707" lon="-1.22279">
        <ele>-4.19</ele>
        <time>2021-07-01T14:02:03Z</time>
      </trkpt>
      <trkpt lat="44.707" lon="-1.22279">
        <ele>-4.19</ele>
        <time>2021-07-01T14:02:04Z</time>
      </trkpt>
      <trkpt lat="44.70703" lon="-1.22291">
        <ele>-4.19</ele>
        <time>2021-07-01T14:02:09Z</time>
      </trkpt>
      <trkpt lat="44.70703" lon="-1.22293">
        <ele>-4.19</ele>
        <time>2021-07-01T14:02:10Z</time>
      </trkpt>
      <trkpt lat="44.70703" lon="-1.22295">
        <ele>-4.19</ele>
        <time>2021-07-01T14:02:11Z</time>
      </trkpt>
      <trkpt lat="44.70704" lon="-1.22296">
        <ele>-4.19</ele>
        <time>2021-07-01T14:02:12Z</time>
      </trkpt>
      <trkpt lat="44.70704" lon="-1.22296">
        <ele>-4.19</ele>
        <time>2021-07-01T14:02:13Z</time>
      </trkpt>
      <trkpt lat="44.70714" lon="-1.22345">
        <ele>-4.67</ele>
        <time>2021-07-01T14:02:28Z</time>
      </trkpt>
      <trkpt lat="44.70727" lon="-1.22416">
        <ele>-3.23</ele>
        <time>2021-07-01T14:02:43Z</time>
      </trkpt>
      <trkpt lat="44.7073" lon="-1.22428">
        <ele>-3.23</ele>
        <time>2021-07-01T14:02:55Z</time>
      </trkpt>
      <trkpt lat="44.70716" lon="-1.2242">
        <ele>-12.84</ele>
        <time>2021-07-01T14:16:34Z</time>
      </trkpt>
      <trkpt lat="44.70728" lon="-1.22428">
        <ele>2.06</ele>
        <time>2021-07-01T14:16:58Z</time>
      </trkpt>
      <trkpt lat="44.7073" lon="-1.22431">
        <ele>1.58</ele>
        <time>2021-07-01T14:17:03Z</time>
      </trkpt>
      <trkpt lat="44.70734" lon="-1.22454">
        <ele>2.06</ele>
        <time>2021-07-01T14:17:15Z</time>
      </trkpt>
      <trkpt lat="44.70733" lon="-1.22463">
        <ele>1.58</ele>
        <time>2021-07-01T14:17:24Z</time>
      </trkpt>
      <trkpt lat="44.70731" lon="-1.22463">
        <ele>1.58</ele>
        <time>2021-07-01T14:17:25Z</time>
      </trkpt>
      <trkpt lat="44.70728" lon="-1.22462">
        <ele>1.58</ele>
        <time>2021-07-01T14:17:26Z</time>
      </trkpt>
      <trkpt lat="44.70665" lon="-1.22463">
        <ele>0.62</ele>
        <time>2021-07-01T14:17:37Z</time>
      </trkpt>
      <trkpt lat="44.70642" lon="-1.22469">
        <ele>0.62</ele>
        <time>2021-07-01T14:17:39Z</time>
      </trkpt>
      <trkpt lat="44.70561" lon="-1.22515">
        <ele>0.14</ele>
        <time>2021-07-01T14:17:50Z</time>
      </trkpt>
      <trkpt lat="44.70457" lon="-1.22617">
        <ele>-0.82</ele>
        <time>2021-07-01T14:18:05Z</time>
      </trkpt>
      <trkpt lat="44.70388" lon="-1.22691">
        <ele>-1.79</ele>
        <time>2021-07-01T14:18:17Z</time>
      </trkpt>
      <trkpt lat="44.70317" lon="-1.2276">
        <ele>-4.19</ele>
        <time>2021-07-01T14:18:30Z</time>
      </trkpt>
      <trkpt lat="44.70311" lon="-1.22766">
        <ele>-4.67</ele>
        <time>2021-07-01T14:18:37Z</time>
      </trkpt>
      <trkpt lat="44.70263" lon="-1.22816">
        <ele>-2.75</ele>
        <time>2021-07-01T14:18:48Z</time>
      </trkpt>
      <trkpt lat="44.70193" lon="-1.22891">
        <ele>-3.23</ele>
        <time>2021-07-01T14:19:03Z</time>
      </trkpt>
      <trkpt lat="44.70133" lon="-1.22951">
        <ele>-3.23</ele>
        <time>2021-07-01T14:19:15Z</time>
      </trkpt>
      <trkpt lat="44.70042" lon="-1.2299">
        <ele>-2.75</ele>
        <time>2021-07-01T14:19:28Z</time>
      </trkpt>
      <trkpt lat="44.69962" lon="-1.22983">
        <ele>-1.79</ele>
        <time>2021-07-01T14:19:39Z</time>
      </trkpt>
      <trkpt lat="44.69881" lon="-1.22984">
        <ele>1.58</ele>
        <time>2021-07-01T14:19:48Z</time>
      </trkpt>
      <trkpt lat="44.69843" lon="-1.22999">
        <ele>3.98</ele>
        <time>2021-07-01T14:19:53Z</time>
      </trkpt>
      <trkpt lat="44.69815" lon="-1.23017">
        <ele>4.46</ele>
        <time>2021-07-01T14:19:54Z</time>
      </trkpt>
      <trkpt lat="44.69769" lon="-1.23071">
        <ele>3.98</ele>
        <time>2021-07-01T14:20:02Z</time>
      </trkpt>
      <trkpt lat="44.69727" lon="-1.23129">
        <ele>1.58</ele>
        <time>2021-07-01T14:20:11Z</time>
      </trkpt>
      <trkpt lat="44.69647" lon="-1.23227">
        <ele>3.98</ele>
        <time>2021-07-01T14:20:20Z</time>
      </trkpt>
      <trkpt lat="44.6952" lon="-1.23363">
        <ele>8.31</ele>
        <time>2021-07-01T14:20:32Z</time>
      </trkpt>
      <trkpt lat="44.69467" lon="-1.23445">
        <ele>11.19</ele>
        <time>2021-07-01T14:20:41Z</time>
      </trkpt>
      <trkpt lat="44.69417" lon="-1.23526">
        <ele>12.15</ele>
        <time>2021-07-01T14:20:50Z</time>
      </trkpt>
      <trkpt lat="44.69338" lon="-1.23674">
        <ele>4.94</ele>
        <time>2021-07-01T14:21:03Z</time>
      </trkpt>
      <trkpt lat="44.69249" lon="-1.23839">
        <ele>4.94</ele>
        <time>2021-07-01T14:21:13Z</time>
      </trkpt>
      <trkpt lat="44.69168" lon="-1.23924">
        <ele>4.94</ele>
        <time>2021-07-01T14:21:20Z</time>
      </trkpt>
      <trkpt lat="44.69047" lon="-1.23959">
        <ele>6.87</ele>
        <time>2021-07-01T14:21:28Z</time>
      </trkpt>
      <trkpt lat="44.6894" lon="-1.23964">
        <ele>8.79</ele>
        <time>2021-07-01T14:21:37Z</time>
      </trkpt>
      <trkpt lat="44.68848" lon="-1.23918">
        <ele>10.71</ele>
        <time>2021-07-01T14:21:45Z</time>
      </trkpt>
      <trkpt lat="44.6874" lon="-1.2381">
        <ele>1.1</ele>
        <time>2021-07-01T14:21:55Z</time>
      </trkpt>
      <trkpt lat="44.68682" lon="-1.23788">
        <ele>6.39</ele>
        <time>2021-07-01T14:22:02Z</time>
      </trkpt>
      <trkpt lat="44.68676" lon="-1.23789">
        <ele>7.35</ele>
        <time>2021-07-01T14:22:03Z</time>
      </trkpt>
      <trkpt lat="44.68671" lon="-1.2379">
        <ele>8.79</ele>
        <time>2021-07-01T14:22:04Z</time>
      </trkpt>
      <trkpt lat="44.68666" lon="-1.2379">
        <ele>8.31</ele>
        <time>2021-07-01T14:22:05Z</time>
      </trkpt>
      <trkpt lat="44.68662" lon="-1.23791">
        <ele>7.35</ele>
        <time>2021-07-01T14:22:06Z</time>
      </trkpt>
      <trkpt lat="44.68658" lon="-1.23791">
        <ele>6.39</ele>
        <time>2021-07-01T14:22:07Z</time>
      </trkpt>
      <trkpt lat="44.68658" lon="-1.23791">
        <ele>6.87</ele>
        <time>2021-07-01T14:22:08Z</time>
      </trkpt>
      <trkpt lat="44.68642" lon="-1.23805">
        <ele>6.87</ele>
        <time>2021-07-01T14:22:10Z</time>
      </trkpt>
      <trkpt lat="44.68632" lon="-1.23821">
        <ele>6.87</ele>
        <time>2021-07-01T14:22:11Z</time>
      </trkpt>
      <trkpt lat="44.68632" lon="-1.23821">
        <ele>7.83</ele>
        <time>2021-07-01T14:22:12Z</time>
      </trkpt>
      <trkpt lat="44.68632" lon="-1.23821">
        <ele>7.35</ele>
        <time>2021-07-01T14:22:13Z</time>
      </trkpt>
      <trkpt lat="44.68625" lon="-1.23831">
        <ele>6.39</ele>
        <time>2021-07-01T14:22:14Z</time>
      </trkpt>
      <trkpt lat="44.68617" lon="-1.23857">
        <ele>8.31</ele>
        <time>2021-07-01T14:22:15Z</time>
      </trkpt>
      <trkpt lat="44.68588" lon="-1.24003">
        <ele>7.35</ele>
        <time>2021-07-01T14:22:24Z</time>
      </trkpt>
      <trkpt lat="44.68582" lon="-1.24149">
        <ele>6.87</ele>
        <time>2021-07-01T14:22:33Z</time>
      </trkpt>
      <trkpt lat="44.68635" lon="-1.24342">
        <ele>3.5</ele>
        <time>2021-07-01T14:22:45Z</time>
      </trkpt>
      <trkpt lat="44.68658" lon="-1.24493">
        <ele>2.54</ele>
        <time>2021-07-01T14:22:54Z</time>
      </trkpt>
      <trkpt lat="44.6864" lon="-1.2467">
        <ele>0.14</ele>
        <time>2021-07-01T14:23:05Z</time>
      </trkpt>
      <trkpt lat="44.68589" lon="-1.24808">
        <ele>-2.75</ele>
        <time>2021-07-01T14:23:14Z</time>
      </trkpt>
      <trkpt lat="44.68572" lon="-1.2483">
        <ele>-1.79</ele>
        <time>2021-07-01T14:23:15Z</time>
      </trkpt>
      <trkpt lat="44.68562" lon="-1.24841">
        <ele>-1.79</ele>
        <time>2021-07-01T14:23:16Z</time>
      </trkpt>
      <trkpt lat="44.68562" lon="-1.24841">
        <ele>-2.75</ele>
        <time>2021-07-01T14:23:17Z</time>
      </trkpt>
      <trkpt lat="44.6855" lon="-1.24848">
        <ele>-3.23</ele>
        <time>2021-07-01T14:23:18Z</time>
      </trkpt>
      <trkpt lat="44.68538" lon="-1.24854">
        <ele>-3.23</ele>
        <time>2021-07-01T14:23:19Z</time>
      </trkpt>
      <trkpt lat="44.68526" lon="-1.2486">
        <ele>-3.71</ele>
        <time>2021-07-01T14:23:20Z</time>
      </trkpt>
      <trkpt lat="44.68513" lon="-1.24862">
        <ele>-4.19</ele>
        <time>2021-07-01T14:23:21Z</time>
      </trkpt>
      <trkpt lat="44.685" lon="-1.24864">
        <ele>-4.19</ele>
        <time>2021-07-01T14:23:22Z</time>
      </trkpt>
      <trkpt lat="44.68298" lon="-1.24895">
        <ele>-3.71</ele>
        <time>2021-07-01T14:23:36Z</time>
      </trkpt>
      <trkpt lat="44.6814" lon="-1.24896">
        <ele>-5.63</ele>
        <time>2021-07-01T14:23:47Z</time>
      </trkpt>
      <trkpt lat="44.67877" lon="-1.24861">
        <ele>-1.3</ele>
        <time>2021-07-01T14:24:05Z</time>
      </trkpt>
      <trkpt lat="44.67683" lon="-1.24843">
        <ele>2.06</ele>
        <time>2021-07-01T14:24:17Z</time>
      </trkpt>
      <trkpt lat="44.67655" lon="-1.24847">
        <ele>1.1</ele>
        <time>2021-07-01T14:24:19Z</time>
      </trkpt>
      <trkpt lat="44.67642" lon="-1.24852">
        <ele>0.62</ele>
        <time>2021-07-01T14:24:20Z</time>
      </trkpt>
      <trkpt lat="44.67629" lon="-1.24859">
        <ele>-0.34</ele>
        <time>2021-07-01T14:24:21Z</time>
      </trkpt>
      <trkpt lat="44.67629" lon="-1.24859">
        <ele>-0.34</ele>
        <time>2021-07-01T14:24:22Z</time>
      </trkpt>
      <trkpt lat="44.67616" lon="-1.24866">
        <ele>-0.82</ele>
        <time>2021-07-01T14:24:23Z</time>
      </trkpt>
      <trkpt lat="44.67515" lon="-1.24938">
        <ele>-5.15</ele>
        <time>2021-07-01T14:24:30Z</time>
      </trkpt>
      <trkpt lat="44.67501" lon="-1.24943">
        <ele>-5.15</ele>
        <time>2021-07-01T14:24:31Z</time>
      </trkpt>
      <trkpt lat="44.6738" lon="-1.24972">
        <ele>-2.75</ele>
        <time>2021-07-01T14:24:41Z</time>
      </trkpt>
      <trkpt lat="44.67314" lon="-1.24984">
        <ele>-4.19</ele>
        <time>2021-07-01T14:24:47Z</time>
      </trkpt>
      <trkpt lat="44.67311" lon="-1.24984">
        <ele>-4.19</ele>
        <time>2021-07-01T14:24:48Z</time>
      </trkpt>
      <trkpt lat="44.67308" lon="-1.24985">
        <ele>-4.19</ele>
        <time>2021-07-01T14:24:49Z</time>
      </trkpt>
      <trkpt lat="44.67307" lon="-1.24985">
        <ele>-4.67</ele>
        <time>2021-07-01T14:24:50Z</time>
      </trkpt>
      <trkpt lat="44.67314" lon="-1.24984">
        <ele>-5.63</ele>
        <time>2021-07-01T14:24:53Z</time>
      </trkpt>
      <trkpt lat="44.67313" lon="-1.24957">
        <ele>-6.59</ele>
        <time>2021-07-01T14:24:56Z</time>
      </trkpt>
      <trkpt lat="44.67312" lon="-1.24939">
        <ele>-9</ele>
        <time>2021-07-01T14:25:05Z</time>
      </trkpt>
      <trkpt lat="44.67316" lon="-1.24926">
        <ele>-7.07</ele>
        <time>2021-07-01T14:25:18Z</time>
      </trkpt>
      <trkpt lat="44.67319" lon="-1.2492">
        <ele>-7.55</ele>
        <time>2021-07-01T14:27:03Z</time>
      </trkpt>
      <trkpt lat="44.67328" lon="-1.24921">
        <ele>-8.51</ele>
        <time>2021-07-01T14:27:08Z</time>
      </trkpt>
      <trkpt lat="44.67344" lon="-1.24943">
        <ele>-8.51</ele>
        <time>2021-07-01T14:27:22Z</time>
      </trkpt>
      <trkpt lat="44.67356" lon="-1.24967">
        <ele>-5.15</ele>
        <time>2021-07-01T14:27:35Z</time>
      </trkpt>
      <trkpt lat="44.67357" lon="-1.24969">
        <ele>-3.71</ele>
        <time>2021-07-01T14:27:55Z</time>
      </trkpt>
      <trkpt lat="44.67354" lon="-1.24976">
        <ele>-4.19</ele>
        <time>2021-07-01T14:27:58Z</time>
      </trkpt>
      <trkpt lat="44.67351" lon="-1.24977">
        <ele>-4.67</ele>
        <time>2021-07-01T14:27:59Z</time>
      </trkpt>
      <trkpt lat="44.67346" lon="-1.24978">
        <ele>-4.67</ele>
        <time>2021-07-01T14:28:00Z</time>
      </trkpt>
      <trkpt lat="44.67291" lon="-1.24988">
        <ele>-7.07</ele>
        <time>2021-07-01T14:28:06Z</time>
      </trkpt>
      <trkpt lat="44.67135" lon="-1.25016">
        <ele>-5.63</ele>
        <time>2021-07-01T14:28:17Z</time>
      </trkpt>
      <trkpt lat="44.66998" lon="-1.25014">
        <ele>-7.07</ele>
        <time>2021-07-01T14:28:26Z</time>
      </trkpt>
      <trkpt lat="44.66814" lon="-1.2499">
        <ele>0.14</ele>
        <time>2021-07-01T14:28:39Z</time>
      </trkpt>
      <trkpt lat="44.6658" lon="-1.24994">
        <ele>1.58</ele>
        <time>2021-07-01T14:28:51Z</time>
      </trkpt>
      <trkpt lat="44.66346" lon="-1.25">
        <ele>5.91</ele>
        <time>2021-07-01T14:29:06Z</time>
      </trkpt>
      <trkpt lat="44.66295" lon="-1.25003">
        <ele>5.91</ele>
        <time>2021-07-01T14:29:09Z</time>
      </trkpt>
      <trkpt lat="44.66279" lon="-1.25009">
        <ele>5.91</ele>
        <time>2021-07-01T14:29:10Z</time>
      </trkpt>
      <trkpt lat="44.66262" lon="-1.25015">
        <ele>6.39</ele>
        <time>2021-07-01T14:29:11Z</time>
      </trkpt>
      <trkpt lat="44.66245" lon="-1.25024">
        <ele>6.87</ele>
        <time>2021-07-01T14:29:12Z</time>
      </trkpt>
      <trkpt lat="44.6623" lon="-1.25037">
        <ele>7.35</ele>
        <time>2021-07-01T14:29:13Z</time>
      </trkpt>
      <trkpt lat="44.66215" lon="-1.2505">
        <ele>7.83</ele>
        <time>2021-07-01T14:29:14Z</time>
      </trkpt>
      <trkpt lat="44.662" lon="-1.25063">
        <ele>8.79</ele>
        <time>2021-07-01T14:29:15Z</time>
      </trkpt>
      <trkpt lat="44.66083" lon="-1.25184">
        <ele>6.87</ele>
        <time>2021-07-01T14:29:24Z</time>
      </trkpt>
      <trkpt lat="44.66072" lon="-1.25194">
        <ele>6.39</ele>
        <time>2021-07-01T14:29:25Z</time>
      </trkpt>
      <trkpt lat="44.6606" lon="-1.25201">
        <ele>6.39</ele>
        <time>2021-07-01T14:29:26Z</time>
      </trkpt>
      <trkpt lat="44.66048" lon="-1.25208">
        <ele>6.39</ele>
        <time>2021-07-01T14:29:27Z</time>
      </trkpt>
      <trkpt lat="44.65964" lon="-1.25213">
        <ele>1.58</ele>
        <time>2021-07-01T14:29:35Z</time>
      </trkpt>
      <trkpt lat="44.65905" lon="-1.25191">
        <ele>3.5</ele>
        <time>2021-07-01T14:29:43Z</time>
      </trkpt>
      <trkpt lat="44.65868" lon="-1.25169">
        <ele>2.06</ele>
        <time>2021-07-01T14:29:48Z</time>
      </trkpt>
      <trkpt lat="44.65861" lon="-1.25167">
        <ele>2.54</ele>
        <time>2021-07-01T14:29:49Z</time>
      </trkpt>
      <trkpt lat="44.65854" lon="-1.25165">
        <ele>2.54</ele>
        <time>2021-07-01T14:29:50Z</time>
      </trkpt>
      <trkpt lat="44.65808" lon="-1.25154">
        <ele>1.58</ele>
        <time>2021-07-01T14:29:57Z</time>
      </trkpt>
      <trkpt lat="44.65793" lon="-1.25155">
        <ele>1.1</ele>
        <time>2021-07-01T14:29:58Z</time>
      </trkpt>
      <trkpt lat="44.65784" lon="-1.25158">
        <ele>0.62</ele>
        <time>2021-07-01T14:29:59Z</time>
      </trkpt>
      <trkpt lat="44.65688" lon="-1.25189">
        <ele>0.62</ele>
        <time>2021-07-01T14:30:10Z</time>
      </trkpt>
      <trkpt lat="44.65596" lon="-1.25183">
        <ele>2.54</ele>
        <time>2021-07-01T14:30:20Z</time>
      </trkpt>
      <trkpt lat="44.65521" lon="-1.25195">
        <ele>3.98</ele>
        <time>2021-07-01T14:30:31Z</time>
      </trkpt>
      <trkpt lat="44.65498" lon="-1.25208">
        <ele>3.5</ele>
        <time>2021-07-01T14:30:39Z</time>
      </trkpt>
      <trkpt lat="44.65498" lon="-1.25208">
        <ele>3.5</ele>
        <time>2021-07-01T14:30:40Z</time>
      </trkpt>
      <trkpt lat="44.65497" lon="-1.25203">
        <ele>3.5</ele>
        <time>2021-07-01T14:30:41Z</time>
      </trkpt>
      <trkpt lat="44.65495" lon="-1.25199">
        <ele>3.5</ele>
        <time>2021-07-01T14:30:42Z</time>
      </trkpt>
      <trkpt lat="44.65492" lon="-1.2519">
        <ele>3.02</ele>
        <time>2021-07-01T14:30:43Z</time>
      </trkpt>
      <trkpt lat="44.65488" lon="-1.2518">
        <ele>2.54</ele>
        <time>2021-07-01T14:30:45Z</time>
      </trkpt>
      <trkpt lat="44.65488" lon="-1.2518">
        <ele>2.54</ele>
        <time>2021-07-01T14:30:46Z</time>
      </trkpt>
      <trkpt lat="44.65483" lon="-1.25163">
        <ele>2.54</ele>
        <time>2021-07-01T14:30:47Z</time>
      </trkpt>
      <trkpt lat="44.65479" lon="-1.25159">
        <ele>3.02</ele>
        <time>2021-07-01T14:30:48Z</time>
      </trkpt>
      <trkpt lat="44.65474" lon="-1.25155">
        <ele>3.02</ele>
        <time>2021-07-01T14:30:49Z</time>
      </trkpt>
      <trkpt lat="44.6547" lon="-1.2515">
        <ele>3.02</ele>
        <time>2021-07-01T14:30:50Z</time>
      </trkpt>
      <trkpt lat="44.6547" lon="-1.2515">
        <ele>3.02</ele>
        <time>2021-07-01T14:30:51Z</time>
      </trkpt>
      <trkpt lat="44.65459" lon="-1.2514">
        <ele>3.5</ele>
        <time>2021-07-01T14:30:52Z</time>
      </trkpt>
      <trkpt lat="44.65453" lon="-1.25136">
        <ele>3.5</ele>
        <time>2021-07-01T14:30:53Z</time>
      </trkpt>
      <trkpt lat="44.65453" lon="-1.25136">
        <ele>3.98</ele>
        <time>2021-07-01T14:30:54Z</time>
      </trkpt>
      <trkpt lat="44.65446" lon="-1.25135">
        <ele>3.98</ele>
        <time>2021-07-01T14:30:55Z</time>
      </trkpt>
      <trkpt lat="44.65407" lon="-1.25127">
        <ele>5.91</ele>
        <time>2021-07-01T14:31:00Z</time>
      </trkpt>
      <trkpt lat="44.65321" lon="-1.25147">
        <ele>5.91</ele>
        <time>2021-07-01T14:31:10Z</time>
      </trkpt>
      <trkpt lat="44.65313" lon="-1.25148">
        <ele>5.91</ele>
        <time>2021-07-01T14:31:11Z</time>
      </trkpt>
      <trkpt lat="44.65304" lon="-1.25148">
        <ele>5.91</ele>
        <time>2021-07-01T14:31:12Z</time>
      </trkpt>
      <trkpt lat="44.65271" lon="-1.25141">
        <ele>4.46</ele>
        <time>2021-07-01T14:31:16Z</time>
      </trkpt>
      <trkpt lat="44.65262" lon="-1.25139">
        <ele>4.46</ele>
        <time>2021-07-01T14:31:17Z</time>
      </trkpt>
      <trkpt lat="44.65238" lon="-1.25123">
        <ele>3.5</ele>
        <time>2021-07-01T14:31:21Z</time>
      </trkpt>
      <trkpt lat="44.65231" lon="-1.25117">
        <ele>3.5</ele>
        <time>2021-07-01T14:31:22Z</time>
      </trkpt>
      <trkpt lat="44.65223" lon="-1.25112">
        <ele>3.5</ele>
        <time>2021-07-01T14:31:23Z</time>
      </trkpt>
      <trkpt lat="44.65182" lon="-1.25101">
        <ele>3.5</ele>
        <time>2021-07-01T14:31:27Z</time>
      </trkpt>
      <trkpt lat="44.65173" lon="-1.251">
        <ele>3.02</ele>
        <time>2021-07-01T14:31:28Z</time>
      </trkpt>
      <trkpt lat="44.65173" lon="-1.251">
        <ele>2.54</ele>
        <time>2021-07-01T14:31:29Z</time>
      </trkpt>
      <trkpt lat="44.65137" lon="-1.25113">
        <ele>1.1</ele>
        <time>2021-07-01T14:31:32Z</time>
      </trkpt>
      <trkpt lat="44.65129" lon="-1.25117">
        <ele>1.1</ele>
        <time>2021-07-01T14:31:33Z</time>
      </trkpt>
      <trkpt lat="44.65113" lon="-1.25121">
        <ele>3.02</ele>
        <time>2021-07-01T14:31:35Z</time>
      </trkpt>
      <trkpt lat="44.65007" lon="-1.25127">
        <ele>3.02</ele>
        <time>2021-07-01T14:31:46Z</time>
      </trkpt>
      <trkpt lat="44.64998" lon="-1.25131">
        <ele>3.5</ele>
        <time>2021-07-01T14:31:47Z</time>
      </trkpt>
      <trkpt lat="44.64988" lon="-1.25135">
        <ele>4.46</ele>
        <time>2021-07-01T14:31:48Z</time>
      </trkpt>
      <trkpt lat="44.64969" lon="-1.25144">
        <ele>5.91</ele>
        <time>2021-07-01T14:31:50Z</time>
      </trkpt>
      <trkpt lat="44.6496" lon="-1.25147">
        <ele>6.87</ele>
        <time>2021-07-01T14:31:51Z</time>
      </trkpt>
      <trkpt lat="44.64921" lon="-1.25163">
        <ele>5.42</ele>
        <time>2021-07-01T14:31:55Z</time>
      </trkpt>
      <trkpt lat="44.64921" lon="-1.25163">
        <ele>4.94</ele>
        <time>2021-07-01T14:31:56Z</time>
      </trkpt>
      <trkpt lat="44.64911" lon="-1.25169">
        <ele>5.91</ele>
        <time>2021-07-01T14:31:57Z</time>
      </trkpt>
      <trkpt lat="44.64901" lon="-1.25175">
        <ele>5.91</ele>
        <time>2021-07-01T14:31:58Z</time>
      </trkpt>
      <trkpt lat="44.64882" lon="-1.25187">
        <ele>6.39</ele>
        <time>2021-07-01T14:31:59Z</time>
      </trkpt>
      <trkpt lat="44.64882" lon="-1.25187">
        <ele>6.87</ele>
        <time>2021-07-01T14:32:00Z</time>
      </trkpt>
      <trkpt lat="44.64874" lon="-1.25197">
        <ele>6.87</ele>
        <time>2021-07-01T14:32:01Z</time>
      </trkpt>
      <trkpt lat="44.64867" lon="-1.25207">
        <ele>7.35</ele>
        <time>2021-07-01T14:32:02Z</time>
      </trkpt>
      <trkpt lat="44.64849" lon="-1.25242">
        <ele>8.31</ele>
        <time>2021-07-01T14:32:03Z</time>
      </trkpt>
      <trkpt lat="44.64849" lon="-1.25242">
        <ele>8.79</ele>
        <time>2021-07-01T14:32:04Z</time>
      </trkpt>
      <trkpt lat="44.64841" lon="-1.25271">
        <ele>8.79</ele>
        <time>2021-07-01T14:32:05Z</time>
      </trkpt>
      <trkpt lat="44.64834" lon="-1.25298">
        <ele>8.79</ele>
        <time>2021-07-01T14:32:09Z</time>
      </trkpt>
      <trkpt lat="44.6483" lon="-1.2531">
        <ele>8.79</ele>
        <time>2021-07-01T14:32:10Z</time>
      </trkpt>
      <trkpt lat="44.64824" lon="-1.25321">
        <ele>8.31</ele>
        <time>2021-07-01T14:32:11Z</time>
      </trkpt>
      <trkpt lat="44.64813" lon="-1.25336">
        <ele>8.31</ele>
        <time>2021-07-01T14:32:12Z</time>
      </trkpt>
      <trkpt lat="44.64813" lon="-1.25336">
        <ele>7.35</ele>
        <time>2021-07-01T14:32:13Z</time>
      </trkpt>
      <trkpt lat="44.64797" lon="-1.25347">
        <ele>7.35</ele>
        <time>2021-07-01T14:32:14Z</time>
      </trkpt>
      <trkpt lat="44.64788" lon="-1.2535">
        <ele>6.87</ele>
        <time>2021-07-01T14:32:15Z</time>
      </trkpt>
      <trkpt lat="44.64788" lon="-1.2535">
        <ele>7.35</ele>
        <time>2021-07-01T14:32:16Z</time>
      </trkpt>
      <trkpt lat="44.6475" lon="-1.25357">
        <ele>9.27</ele>
        <time>2021-07-01T14:32:18Z</time>
      </trkpt>
      <trkpt lat="44.64742" lon="-1.25359">
        <ele>8.79</ele>
        <time>2021-07-01T14:32:19Z</time>
      </trkpt>
      <trkpt lat="44.64742" lon="-1.25359">
        <ele>7.83</ele>
        <time>2021-07-01T14:32:20Z</time>
      </trkpt>
      <trkpt lat="44.64728" lon="-1.25374">
        <ele>7.83</ele>
        <time>2021-07-01T14:32:21Z</time>
      </trkpt>
      <trkpt lat="44.64728" lon="-1.25374">
        <ele>7.83</ele>
        <time>2021-07-01T14:32:22Z</time>
      </trkpt>
      <trkpt lat="44.64722" lon="-1.25382">
        <ele>8.31</ele>
        <time>2021-07-01T14:32:23Z</time>
      </trkpt>
      <trkpt lat="44.64709" lon="-1.254">
        <ele>8.79</ele>
        <time>2021-07-01T14:32:24Z</time>
      </trkpt>
      <trkpt lat="44.64709" lon="-1.254">
        <ele>8.79</ele>
        <time>2021-07-01T14:32:25Z</time>
      </trkpt>
      <trkpt lat="44.64703" lon="-1.25409">
        <ele>8.79</ele>
        <time>2021-07-01T14:32:26Z</time>
      </trkpt>
      <trkpt lat="44.64696" lon="-1.25418">
        <ele>7.83</ele>
        <time>2021-07-01T14:32:27Z</time>
      </trkpt>
      <trkpt lat="44.64688" lon="-1.25422">
        <ele>6.87</ele>
        <time>2021-07-01T14:32:28Z</time>
      </trkpt>
      <trkpt lat="44.64679" lon="-1.25428">
        <ele>6.39</ele>
        <time>2021-07-01T14:32:29Z</time>
      </trkpt>
      <trkpt lat="44.64651" lon="-1.25443">
        <ele>5.42</ele>
        <time>2021-07-01T14:32:33Z</time>
      </trkpt>
      <trkpt lat="44.64634" lon="-1.25448">
        <ele>5.91</ele>
        <time>2021-07-01T14:32:34Z</time>
      </trkpt>
      <trkpt lat="44.64634" lon="-1.25448">
        <ele>6.87</ele>
        <time>2021-07-01T14:32:35Z</time>
      </trkpt>
      <trkpt lat="44.64618" lon="-1.25448">
        <ele>6.87</ele>
        <time>2021-07-01T14:32:36Z</time>
      </trkpt>
      <trkpt lat="44.6461" lon="-1.25445">
        <ele>7.35</ele>
        <time>2021-07-01T14:32:37Z</time>
      </trkpt>
      <trkpt lat="44.64602" lon="-1.25442">
        <ele>7.35</ele>
        <time>2021-07-01T14:32:38Z</time>
      </trkpt>
      <trkpt lat="44.64602" lon="-1.25442">
        <ele>7.83</ele>
        <time>2021-07-01T14:32:39Z</time>
      </trkpt>
      <trkpt lat="44.64562" lon="-1.25404">
        <ele>7.35</ele>
        <time>2021-07-01T14:32:45Z</time>
      </trkpt>
      <trkpt lat="44.64551" lon="-1.25404">
        <ele>7.35</ele>
        <time>2021-07-01T14:32:46Z</time>
      </trkpt>
      <trkpt lat="44.64551" lon="-1.25404">
        <ele>6.87</ele>
        <time>2021-07-01T14:32:48Z</time>
      </trkpt>
      <trkpt lat="44.64545" lon="-1.25403">
        <ele>7.35</ele>
        <time>2021-07-01T14:32:49Z</time>
      </trkpt>
      <trkpt lat="44.6453" lon="-1.25385">
        <ele>7.35</ele>
        <time>2021-07-01T14:32:51Z</time>
      </trkpt>
      <trkpt lat="44.64531" lon="-1.25385">
        <ele>6.87</ele>
        <time>2021-07-01T14:32:52Z</time>
      </trkpt>
      <trkpt lat="44.64515" lon="-1.25379">
        <ele>6.87</ele>
        <time>2021-07-01T14:32:53Z</time>
      </trkpt>
      <trkpt lat="44.64453" lon="-1.2536">
        <ele>3.98</ele>
        <time>2021-07-01T14:32:59Z</time>
      </trkpt>
      <trkpt lat="44.64453" lon="-1.2536">
        <ele>4.46</ele>
        <time>2021-07-01T14:33:00Z</time>
      </trkpt>
      <trkpt lat="44.64446" lon="-1.25363">
        <ele>5.42</ele>
        <time>2021-07-01T14:33:01Z</time>
      </trkpt>
      <trkpt lat="44.64439" lon="-1.25365">
        <ele>4.94</ele>
        <time>2021-07-01T14:33:02Z</time>
      </trkpt>
      <trkpt lat="44.64432" lon="-1.25369">
        <ele>4.46</ele>
        <time>2021-07-01T14:33:03Z</time>
      </trkpt>
      <trkpt lat="44.64425" lon="-1.2538">
        <ele>4.46</ele>
        <time>2021-07-01T14:33:04Z</time>
      </trkpt>
      <trkpt lat="44.64419" lon="-1.25392">
        <ele>3.98</ele>
        <time>2021-07-01T14:33:05Z</time>
      </trkpt>
      <trkpt lat="44.64412" lon="-1.25403">
        <ele>3.98</ele>
        <time>2021-07-01T14:33:06Z</time>
      </trkpt>
      <trkpt lat="44.64405" lon="-1.25414">
        <ele>4.46</ele>
        <time>2021-07-01T14:33:07Z</time>
      </trkpt>
      <trkpt lat="44.64399" lon="-1.25426">
        <ele>4.94</ele>
        <time>2021-07-01T14:33:08Z</time>
      </trkpt>
      <trkpt lat="44.64399" lon="-1.25426">
        <ele>4.94</ele>
        <time>2021-07-01T14:33:09Z</time>
      </trkpt>
      <trkpt lat="44.64381" lon="-1.25443">
        <ele>4.46</ele>
        <time>2021-07-01T14:33:10Z</time>
      </trkpt>
      <trkpt lat="44.64363" lon="-1.25454">
        <ele>4.46</ele>
        <time>2021-07-01T14:33:11Z</time>
      </trkpt>
      <trkpt lat="44.64363" lon="-1.25454">
        <ele>3.98</ele>
        <time>2021-07-01T14:33:12Z</time>
      </trkpt>
      <trkpt lat="44.64354" lon="-1.2546">
        <ele>4.94</ele>
        <time>2021-07-01T14:33:13Z</time>
      </trkpt>
      <trkpt lat="44.64344" lon="-1.25462">
        <ele>4.94</ele>
        <time>2021-07-01T14:33:14Z</time>
      </trkpt>
      <trkpt lat="44.64214" lon="-1.25478">
        <ele>5.42</ele>
        <time>2021-07-01T14:33:25Z</time>
      </trkpt>
      <trkpt lat="44.64196" lon="-1.25482">
        <ele>5.91</ele>
        <time>2021-07-01T14:33:28Z</time>
      </trkpt>
      <trkpt lat="44.64185" lon="-1.25484">
        <ele>6.39</ele>
        <time>2021-07-01T14:33:29Z</time>
      </trkpt>
      <trkpt lat="44.64165" lon="-1.25479">
        <ele>6.39</ele>
        <time>2021-07-01T14:33:30Z</time>
      </trkpt>
      <trkpt lat="44.64165" lon="-1.25479">
        <ele>7.35</ele>
        <time>2021-07-01T14:33:31Z</time>
      </trkpt>
      <trkpt lat="44.64155" lon="-1.25476">
        <ele>6.87</ele>
        <time>2021-07-01T14:33:32Z</time>
      </trkpt>
      <trkpt lat="44.64134" lon="-1.25471">
        <ele>6.39</ele>
        <time>2021-07-01T14:33:34Z</time>
      </trkpt>
      <trkpt lat="44.64124" lon="-1.25468">
        <ele>6.87</ele>
        <time>2021-07-01T14:33:35Z</time>
      </trkpt>
      <trkpt lat="44.64079" lon="-1.25463">
        <ele>9.27</ele>
        <time>2021-07-01T14:33:40Z</time>
      </trkpt>
      <trkpt lat="44.64071" lon="-1.25461">
        <ele>9.27</ele>
        <time>2021-07-01T14:33:41Z</time>
      </trkpt>
      <trkpt lat="44.64063" lon="-1.25459">
        <ele>9.27</ele>
        <time>2021-07-01T14:33:42Z</time>
      </trkpt>
      <trkpt lat="44.64021" lon="-1.25442">
        <ele>8.31</ele>
        <time>2021-07-01T14:33:47Z</time>
      </trkpt>
      <trkpt lat="44.64013" lon="-1.25438">
        <ele>8.31</ele>
        <time>2021-07-01T14:33:48Z</time>
      </trkpt>
      <trkpt lat="44.64004" lon="-1.25434">
        <ele>8.31</ele>
        <time>2021-07-01T14:33:49Z</time>
      </trkpt>
      <trkpt lat="44.63905" lon="-1.25428">
        <ele>6.87</ele>
        <time>2021-07-01T14:34:01Z</time>
      </trkpt>
      <trkpt lat="44.63869" lon="-1.2543">
        <ele>6.39</ele>
        <time>2021-07-01T14:34:04Z</time>
      </trkpt>
      <trkpt lat="44.63822" lon="-1.25439">
        <ele>3.98</ele>
        <time>2021-07-01T14:34:09Z</time>
      </trkpt>
      <trkpt lat="44.63754" lon="-1.25436">
        <ele>2.54</ele>
        <time>2021-07-01T14:34:16Z</time>
      </trkpt>
      <trkpt lat="44.63744" lon="-1.25436">
        <ele>3.5</ele>
        <time>2021-07-01T14:34:17Z</time>
      </trkpt>
      <trkpt lat="44.63734" lon="-1.25435">
        <ele>3.5</ele>
        <time>2021-07-01T14:34:18Z</time>
      </trkpt>
      <trkpt lat="44.63725" lon="-1.25439">
        <ele>2.54</ele>
        <time>2021-07-01T14:34:19Z</time>
      </trkpt>
      <trkpt lat="44.63715" lon="-1.25443">
        <ele>2.54</ele>
        <time>2021-07-01T14:34:20Z</time>
      </trkpt>
      <trkpt lat="44.63706" lon="-1.25447">
        <ele>3.02</ele>
        <time>2021-07-01T14:34:21Z</time>
      </trkpt>
      <trkpt lat="44.63696" lon="-1.25451">
        <ele>2.54</ele>
        <time>2021-07-01T14:34:22Z</time>
      </trkpt>
      <trkpt lat="44.63685" lon="-1.25456">
        <ele>3.02</ele>
        <time>2021-07-01T14:34:23Z</time>
      </trkpt>
      <trkpt lat="44.63569" lon="-1.25443">
        <ele>4.46</ele>
        <time>2021-07-01T14:34:34Z</time>
      </trkpt>
      <trkpt lat="44.63569" lon="-1.25443">
        <ele>5.91</ele>
        <time>2021-07-01T14:34:35Z</time>
      </trkpt>
      <trkpt lat="44.63569" lon="-1.25443">
        <ele>5.91</ele>
        <time>2021-07-01T14:34:36Z</time>
      </trkpt>
      <trkpt lat="44.63506" lon="-1.25404">
        <ele>5.42</ele>
        <time>2021-07-01T14:34:43Z</time>
      </trkpt>
      <trkpt lat="44.63487" lon="-1.25396">
        <ele>5.42</ele>
        <time>2021-07-01T14:34:44Z</time>
      </trkpt>
      <trkpt lat="44.63478" lon="-1.25395">
        <ele>4.94</ele>
        <time>2021-07-01T14:34:45Z</time>
      </trkpt>
      <trkpt lat="44.63365" lon="-1.2538">
        <ele>-0.34</ele>
        <time>2021-07-01T14:34:58Z</time>
      </trkpt>
      <trkpt lat="44.63232" lon="-1.25367">
        <ele>-1.3</ele>
        <time>2021-07-01T14:35:11Z</time>
      </trkpt>
      <trkpt lat="44.63179" lon="-1.25367">
        <ele>-2.27</ele>
        <time>2021-07-01T14:35:17Z</time>
      </trkpt>
      <trkpt lat="44.63179" lon="-1.25367">
        <ele>-1.79</ele>
        <time>2021-07-01T14:35:18Z</time>
      </trkpt>
      <trkpt lat="44.63175" lon="-1.25368">
        <ele>-1.3</ele>
        <time>2021-07-01T14:35:19Z</time>
      </trkpt>
      <trkpt lat="44.63163" lon="-1.25382">
        <ele>-1.3</ele>
        <time>2021-07-01T14:35:22Z</time>
      </trkpt>
      <trkpt lat="44.6316" lon="-1.25386">
        <ele>-0.82</ele>
        <time>2021-07-01T14:35:23Z</time>
      </trkpt>
      <trkpt lat="44.63156" lon="-1.25388">
        <ele>0.14</ele>
        <time>2021-07-01T14:35:24Z</time>
      </trkpt>
      <trkpt lat="44.63156" lon="-1.25388">
        <ele>1.1</ele>
        <time>2021-07-01T14:35:25Z</time>
      </trkpt>
      <trkpt lat="44.63152" lon="-1.2539">
        <ele>1.58</ele>
        <time>2021-07-01T14:35:26Z</time>
      </trkpt>
      <trkpt lat="44.63146" lon="-1.25387">
        <ele>2.06</ele>
        <time>2021-07-01T14:35:27Z</time>
      </trkpt>
      <trkpt lat="44.63142" lon="-1.25383">
        <ele>1.58</ele>
        <time>2021-07-01T14:35:28Z</time>
      </trkpt>
      <trkpt lat="44.6314" lon="-1.25382">
        <ele>1.58</ele>
        <time>2021-07-01T14:35:29Z</time>
      </trkpt>
      <trkpt lat="44.63133" lon="-1.25364">
        <ele>1.58</ele>
        <time>2021-07-01T14:35:30Z</time>
      </trkpt>
      <trkpt lat="44.63122" lon="-1.25359">
        <ele>2.06</ele>
        <time>2021-07-01T14:35:31Z</time>
      </trkpt>
      <trkpt lat="44.63122" lon="-1.25359">
        <ele>2.06</ele>
        <time>2021-07-01T14:35:32Z</time>
      </trkpt>
      <trkpt lat="44.63016" lon="-1.25303">
        <ele>6.87</ele>
        <time>2021-07-01T14:35:48Z</time>
      </trkpt>
      <trkpt lat="44.6301" lon="-1.25298">
        <ele>6.39</ele>
        <time>2021-07-01T14:35:50Z</time>
      </trkpt>
      <trkpt lat="44.62999" lon="-1.25287">
        <ele>6.39</ele>
        <time>2021-07-01T14:35:51Z</time>
      </trkpt>
      <trkpt lat="44.62999" lon="-1.25287">
        <ele>6.39</ele>
        <time>2021-07-01T14:35:52Z</time>
      </trkpt>
      <trkpt lat="44.62983" lon="-1.25284">
        <ele>6.39</ele>
        <time>2021-07-01T14:35:53Z</time>
      </trkpt>
      <trkpt lat="44.62975" lon="-1.25282">
        <ele>6.39</ele>
        <time>2021-07-01T14:35:54Z</time>
      </trkpt>
      <trkpt lat="44.62967" lon="-1.2528">
        <ele>6.39</ele>
        <time>2021-07-01T14:35:55Z</time>
      </trkpt>
      <trkpt lat="44.62967" lon="-1.2528">
        <ele>6.39</ele>
        <time>2021-07-01T14:35:56Z</time>
      </trkpt>
      <trkpt lat="44.62952" lon="-1.25279">
        <ele>6.39</ele>
        <time>2021-07-01T14:35:57Z</time>
      </trkpt>
      <trkpt lat="44.62945" lon="-1.25279">
        <ele>5.91</ele>
        <time>2021-07-01T14:35:58Z</time>
      </trkpt>
      <trkpt lat="44.62938" lon="-1.25276">
        <ele>5.91</ele>
        <time>2021-07-01T14:35:59Z</time>
      </trkpt>
      <trkpt lat="44.62931" lon="-1.25272">
        <ele>6.39</ele>
        <time>2021-07-01T14:36:00Z</time>
      </trkpt>
      <trkpt lat="44.62924" lon="-1.25268">
        <ele>6.39</ele>
        <time>2021-07-01T14:36:01Z</time>
      </trkpt>
      <trkpt lat="44.62918" lon="-1.25264">
        <ele>6.39</ele>
        <time>2021-07-01T14:36:02Z</time>
      </trkpt>
      <trkpt lat="44.62918" lon="-1.25264">
        <ele>6.39</ele>
        <time>2021-07-01T14:36:03Z</time>
      </trkpt>
      <trkpt lat="44.62912" lon="-1.25259">
        <ele>5.91</ele>
        <time>2021-07-01T14:36:04Z</time>
      </trkpt>
      <trkpt lat="44.62904" lon="-1.25244">
        <ele>5.91</ele>
        <time>2021-07-01T14:36:05Z</time>
      </trkpt>
      <trkpt lat="44.62904" lon="-1.25244">
        <ele>5.91</ele>
        <time>2021-07-01T14:36:06Z</time>
      </trkpt>
      <trkpt lat="44.629" lon="-1.25236">
        <ele>5.91</ele>
        <time>2021-07-01T14:36:07Z</time>
      </trkpt>
      <trkpt lat="44.62897" lon="-1.25228">
        <ele>6.39</ele>
        <time>2021-07-01T14:36:08Z</time>
      </trkpt>
      <trkpt lat="44.62895" lon="-1.25211">
        <ele>6.87</ele>
        <time>2021-07-01T14:36:09Z</time>
      </trkpt>
      <trkpt lat="44.62895" lon="-1.25211">
        <ele>6.87</ele>
        <time>2021-07-01T14:36:10Z</time>
      </trkpt>
      <trkpt lat="44.62893" lon="-1.25198">
        <ele>6.87</ele>
        <time>2021-07-01T14:36:11Z</time>
      </trkpt>
      <trkpt lat="44.62892" lon="-1.25191">
        <ele>6.87</ele>
        <time>2021-07-01T14:36:12Z</time>
      </trkpt>
      <trkpt lat="44.62886" lon="-1.25149">
        <ele>4.94</ele>
        <time>2021-07-01T14:36:18Z</time>
      </trkpt>
      <trkpt lat="44.62885" lon="-1.25141">
        <ele>4.94</ele>
        <time>2021-07-01T14:36:19Z</time>
      </trkpt>
      <trkpt lat="44.62885" lon="-1.25141">
        <ele>4.94</ele>
        <time>2021-07-01T14:36:20Z</time>
      </trkpt>
      <trkpt lat="44.62884" lon="-1.25133">
        <ele>4.94</ele>
        <time>2021-07-01T14:36:21Z</time>
      </trkpt>
      <trkpt lat="44.62882" lon="-1.25118">
        <ele>4.46</ele>
        <time>2021-07-01T14:36:22Z</time>
      </trkpt>
      <trkpt lat="44.62882" lon="-1.25118">
        <ele>4.94</ele>
        <time>2021-07-01T14:36:23Z</time>
      </trkpt>
      <trkpt lat="44.62871" lon="-1.25116">
        <ele>4.94</ele>
        <time>2021-07-01T14:36:24Z</time>
      </trkpt>
      <trkpt lat="44.62868" lon="-1.25109">
        <ele>4.94</ele>
        <time>2021-07-01T14:36:25Z</time>
      </trkpt>
      <trkpt lat="44.62864" lon="-1.25103">
        <ele>4.94</ele>
        <time>2021-07-01T14:36:26Z</time>
      </trkpt>
      <trkpt lat="44.62854" lon="-1.25094">
        <ele>5.91</ele>
        <time>2021-07-01T14:36:27Z</time>
      </trkpt>
      <trkpt lat="44.62774" lon="-1.25034">
        <ele>6.87</ele>
        <time>2021-07-01T14:36:41Z</time>
      </trkpt>
      <trkpt lat="44.62699" lon="-1.24974">
        <ele>3.98</ele>
        <time>2021-07-01T14:36:55Z</time>
      </trkpt>
      <trkpt lat="44.62594" lon="-1.24938">
        <ele>4.94</ele>
        <time>2021-07-01T14:37:09Z</time>
      </trkpt>
      <trkpt lat="44.62542" lon="-1.24921">
        <ele>6.39</ele>
        <time>2021-07-01T14:37:19Z</time>
      </trkpt>
      <trkpt lat="44.62454" lon="-1.24891">
        <ele>4.46</ele>
        <time>2021-07-01T14:37:34Z</time>
      </trkpt>
      <trkpt lat="44.62386" lon="-1.24863">
        <ele>3.02</ele>
        <time>2021-07-01T14:37:45Z</time>
      </trkpt>
      <trkpt lat="44.62386" lon="-1.24863">
        <ele>2.54</ele>
        <time>2021-07-01T14:37:46Z</time>
      </trkpt>
      <trkpt lat="44.62376" lon="-1.24857">
        <ele>2.54</ele>
        <time>2021-07-01T14:37:47Z</time>
      </trkpt>
      <trkpt lat="44.62376" lon="-1.24857">
        <ele>2.06</ele>
        <time>2021-07-01T14:37:48Z</time>
      </trkpt>
      <trkpt lat="44.6237" lon="-1.24847">
        <ele>2.06</ele>
        <time>2021-07-01T14:37:49Z</time>
      </trkpt>
      <trkpt lat="44.62367" lon="-1.24842">
        <ele>1.58</ele>
        <time>2021-07-01T14:37:50Z</time>
      </trkpt>
      <trkpt lat="44.62365" lon="-1.24836">
        <ele>1.58</ele>
        <time>2021-07-01T14:37:51Z</time>
      </trkpt>
      <trkpt lat="44.62362" lon="-1.2483">
        <ele>1.1</ele>
        <time>2021-07-01T14:37:52Z</time>
      </trkpt>
      <trkpt lat="44.62362" lon="-1.2483">
        <ele>0.62</ele>
        <time>2021-07-01T14:37:53Z</time>
      </trkpt>
      <trkpt lat="44.62359" lon="-1.24825">
        <ele>0.62</ele>
        <time>2021-07-01T14:37:54Z</time>
      </trkpt>
      <trkpt lat="44.62357" lon="-1.24814">
        <ele>-0.34</ele>
        <time>2021-07-01T14:37:55Z</time>
      </trkpt>
      <trkpt lat="44.62358" lon="-1.24807">
        <ele>-0.82</ele>
        <time>2021-07-01T14:37:56Z</time>
      </trkpt>
      <trkpt lat="44.62358" lon="-1.24807">
        <ele>-1.3</ele>
        <time>2021-07-01T14:37:57Z</time>
      </trkpt>
      <trkpt lat="44.62358" lon="-1.24801">
        <ele>-1.3</ele>
        <time>2021-07-01T14:37:58Z</time>
      </trkpt>
      <trkpt lat="44.62358" lon="-1.24794">
        <ele>-1.79</ele>
        <time>2021-07-01T14:37:59Z</time>
      </trkpt>
      <trkpt lat="44.62365" lon="-1.24766">
        <ele>-2.75</ele>
        <time>2021-07-01T14:38:02Z</time>
      </trkpt>
      <trkpt lat="44.62365" lon="-1.24766">
        <ele>-2.75</ele>
        <time>2021-07-01T14:38:03Z</time>
      </trkpt>
      <trkpt lat="44.62369" lon="-1.24757">
        <ele>-2.75</ele>
        <time>2021-07-01T14:38:04Z</time>
      </trkpt>
      <trkpt lat="44.62369" lon="-1.24757">
        <ele>-2.75</ele>
        <time>2021-07-01T14:38:05Z</time>
      </trkpt>
      <trkpt lat="44.6237" lon="-1.24753">
        <ele>-2.75</ele>
        <time>2021-07-01T14:38:06Z</time>
      </trkpt>
      <trkpt lat="44.62372" lon="-1.2475">
        <ele>-2.75</ele>
        <time>2021-07-01T14:38:07Z</time>
      </trkpt>
      <trkpt lat="44.62381" lon="-1.24735">
        <ele>-3.23</ele>
        <time>2021-07-01T14:38:18Z</time>
      </trkpt>
    </trkseg>
  </trk>
  <trk>
    <name><![CDATA[Journal actif: 2021-07-01 13:04]]></name>
    <trkseg>
      <trkpt lat="44.62989" lon="-1.25261">
        <ele>1.58</ele>
        <time>2021-07-01T15:04:15Z</time>
      </trkpt>
      <trkpt lat="44.62992" lon="-1.25269">
        <ele>-0.82</ele>
        <time>2021-07-01T15:04:16Z</time>
      </trkpt>
      <trkpt lat="44.62992" lon="-1.25269">
        <ele>-2.75</ele>
        <time>2021-07-01T15:04:17Z</time>
      </trkpt>
      <trkpt lat="44.62999" lon="-1.25287">
        <ele>-2.27</ele>
        <time>2021-07-01T15:04:19Z</time>
      </trkpt>
      <trkpt lat="44.62999" lon="-1.25287">
        <ele>-2.75</ele>
        <time>2021-07-01T15:04:21Z</time>
      </trkpt>
      <trkpt lat="44.63004" lon="-1.25292">
        <ele>-3.23</ele>
        <time>2021-07-01T15:04:22Z</time>
      </trkpt>
      <trkpt lat="44.63008" lon="-1.25296">
        <ele>-2.75</ele>
        <time>2021-07-01T15:04:23Z</time>
      </trkpt>
      <trkpt lat="44.63018" lon="-1.25304">
        <ele>-2.75</ele>
        <time>2021-07-01T15:04:24Z</time>
      </trkpt>
      <trkpt lat="44.63023" lon="-1.25309">
        <ele>-2.27</ele>
        <time>2021-07-01T15:04:25Z</time>
      </trkpt>
      <trkpt lat="44.63028" lon="-1.25314">
        <ele>-3.71</ele>
        <time>2021-07-01T15:04:27Z</time>
      </trkpt>
      <trkpt lat="44.63034" lon="-1.25319">
        <ele>-3.71</ele>
        <time>2021-07-01T15:04:28Z</time>
      </trkpt>
      <trkpt lat="44.63042" lon="-1.25322">
        <ele>-3.71</ele>
        <time>2021-07-01T15:04:29Z</time>
      </trkpt>
      <trkpt lat="44.63122" lon="-1.25359">
        <ele>-5.15</ele>
        <time>2021-07-01T15:04:42Z</time>
      </trkpt>
      <trkpt lat="44.63153" lon="-1.25348">
        <ele>-3.71</ele>
        <time>2021-07-01T15:04:51Z</time>
      </trkpt>
      <trkpt lat="44.63157" lon="-1.25349">
        <ele>-3.71</ele>
        <time>2021-07-01T15:04:52Z</time>
      </trkpt>
      <trkpt lat="44.63161" lon="-1.25351">
        <ele>-3.71</ele>
        <time>2021-07-01T15:04:53Z</time>
      </trkpt>
      <trkpt lat="44.63173" lon="-1.25368">
        <ele>-3.23</ele>
        <time>2021-07-01T15:04:55Z</time>
      </trkpt>
      <trkpt lat="44.63173" lon="-1.25368">
        <ele>-2.75</ele>
        <time>2021-07-01T15:04:56Z</time>
      </trkpt>
      <trkpt lat="44.63178" lon="-1.25368">
        <ele>-3.23</ele>
        <time>2021-07-01T15:04:57Z</time>
      </trkpt>
      <trkpt lat="44.63182" lon="-1.25367">
        <ele>-3.23</ele>
        <time>2021-07-01T15:04:58Z</time>
      </trkpt>
      <trkpt lat="44.63188" lon="-1.25366">
        <ele>-3.23</ele>
        <time>2021-07-01T15:04:59Z</time>
      </trkpt>
      <trkpt lat="44.633" lon="-1.25373">
        <ele>-2.75</ele>
        <time>2021-07-01T15:05:14Z</time>
      </trkpt>
      <trkpt lat="44.63398" lon="-1.25384">
        <ele>-0.82</ele>
        <time>2021-07-01T15:05:26Z</time>
      </trkpt>
      <trkpt lat="44.63489" lon="-1.25396">
        <ele>2.54</ele>
        <time>2021-07-01T15:05:38Z</time>
      </trkpt>
      <trkpt lat="44.63509" lon="-1.25405">
        <ele>2.06</ele>
        <time>2021-07-01T15:05:41Z</time>
      </trkpt>
      <trkpt lat="44.63593" lon="-1.2545">
        <ele>1.1</ele>
        <time>2021-07-01T15:05:53Z</time>
      </trkpt>
      <trkpt lat="44.63688" lon="-1.25455">
        <ele>2.06</ele>
        <time>2021-07-01T15:06:05Z</time>
      </trkpt>
      <trkpt lat="44.63695" lon="-1.25452">
        <ele>2.06</ele>
        <time>2021-07-01T15:06:06Z</time>
      </trkpt>
      <trkpt lat="44.63735" lon="-1.25435">
        <ele>1.1</ele>
        <time>2021-07-01T15:06:15Z</time>
      </trkpt>
      <trkpt lat="44.63739" lon="-1.25435">
        <ele>1.58</ele>
        <time>2021-07-01T15:06:17Z</time>
      </trkpt>
      <trkpt lat="44.63735" lon="-1.25439">
        <ele>1.58</ele>
        <time>2021-07-01T15:06:18Z</time>
      </trkpt>
      <trkpt lat="44.63735" lon="-1.25442">
        <ele>1.58</ele>
        <time>2021-07-01T15:06:19Z</time>
      </trkpt>
      <trkpt lat="44.63739" lon="-1.25498">
        <ele>2.54</ele>
        <time>2021-07-01T15:06:33Z</time>
      </trkpt>
      <trkpt lat="44.63741" lon="-1.25504">
        <ele>2.06</ele>
        <time>2021-07-01T15:06:44Z</time>
      </trkpt>
      <trkpt lat="44.63737" lon="-1.25482">
        <ele>0.62</ele>
        <time>2021-07-01T15:07:00Z</time>
      </trkpt>
      <trkpt lat="44.63737" lon="-1.25482">
        <ele>0.62</ele>
        <time>2021-07-01T15:07:02Z</time>
      </trkpt>
      <trkpt lat="44.63736" lon="-1.25475">
        <ele>0.62</ele>
        <time>2021-07-01T15:07:03Z</time>
      </trkpt>
      <trkpt lat="44.63736" lon="-1.25475">
        <ele>0.62</ele>
        <time>2021-07-01T15:07:04Z</time>
      </trkpt>
      <trkpt lat="44.63736" lon="-1.25478">
        <ele>0.62</ele>
        <time>2021-07-01T15:07:05Z</time>
      </trkpt>
      <trkpt lat="44.63736" lon="-1.2548">
        <ele>0.62</ele>
        <time>2021-07-01T15:07:06Z</time>
      </trkpt>
      <trkpt lat="44.63737" lon="-1.25482">
        <ele>0.62</ele>
        <time>2021-07-01T15:07:07Z</time>
      </trkpt>
      <trkpt lat="44.63737" lon="-1.25482">
        <ele>0.62</ele>
        <time>2021-07-01T15:07:25Z</time>
      </trkpt>
      <trkpt lat="44.63731" lon="-1.25481">
        <ele>-10.44</ele>
        <time>2021-07-01T15:41:14Z</time>
      </trkpt>
      <trkpt lat="44.63735" lon="-1.2548">
        <ele>-7.55</ele>
        <time>2021-07-01T15:41:46Z</time>
      </trkpt>
      <trkpt lat="44.63735" lon="-1.25457">
        <ele>-9</ele>
        <time>2021-07-01T15:42:08Z</time>
      </trkpt>
      <trkpt lat="44.63734" lon="-1.2545">
        <ele>-9.48</ele>
        <time>2021-07-01T15:42:26Z</time>
      </trkpt>
      <trkpt lat="44.63735" lon="-1.2545">
        <ele>-9.48</ele>
        <time>2021-07-01T15:42:29Z</time>
      </trkpt>
      <trkpt lat="44.63738" lon="-1.25449">
        <ele>-9.96</ele>
        <time>2021-07-01T15:42:43Z</time>
      </trkpt>
      <trkpt lat="44.63739" lon="-1.25448">
        <ele>-9.96</ele>
        <time>2021-07-01T15:42:45Z</time>
      </trkpt>
      <trkpt lat="44.6374" lon="-1.25442">
        <ele>-10.44</ele>
        <time>2021-07-01T15:43:04Z</time>
      </trkpt>
      <trkpt lat="44.6374" lon="-1.25442">
        <ele>-10.44</ele>
        <time>2021-07-01T15:43:08Z</time>
      </trkpt>
      <trkpt lat="44.63741" lon="-1.25436">
        <ele>-9.96</ele>
        <time>2021-07-01T15:43:11Z</time>
      </trkpt>
      <trkpt lat="44.63743" lon="-1.25436">
        <ele>-9.96</ele>
        <time>2021-07-01T15:43:12Z</time>
      </trkpt>
      <trkpt lat="44.63746" lon="-1.25436">
        <ele>-9.96</ele>
        <time>2021-07-01T15:43:13Z</time>
      </trkpt>
      <trkpt lat="44.6375" lon="-1.25436">
        <ele>-9.96</ele>
        <time>2021-07-01T15:43:14Z</time>
      </trkpt>
      <trkpt lat="44.63818" lon="-1.25439">
        <ele>-6.59</ele>
        <time>2021-07-01T15:43:25Z</time>
      </trkpt>
      <trkpt lat="44.63884" lon="-1.25427">
        <ele>-5.15</ele>
        <time>2021-07-01T15:43:33Z</time>
      </trkpt>
      <trkpt lat="44.63893" lon="-1.25427">
        <ele>-4.67</ele>
        <time>2021-07-01T15:43:34Z</time>
      </trkpt>
      <trkpt lat="44.64" lon="-1.25433">
        <ele>-3.71</ele>
        <time>2021-07-01T15:43:46Z</time>
      </trkpt>
      <trkpt lat="44.64008" lon="-1.25436">
        <ele>-3.71</ele>
        <time>2021-07-01T15:43:47Z</time>
      </trkpt>
      <trkpt lat="44.64016" lon="-1.2544">
        <ele>-3.71</ele>
        <time>2021-07-01T15:43:48Z</time>
      </trkpt>
      <trkpt lat="44.64057" lon="-1.25458">
        <ele>-3.71</ele>
        <time>2021-07-01T15:43:53Z</time>
      </trkpt>
      <trkpt lat="44.64065" lon="-1.2546">
        <ele>-3.71</ele>
        <time>2021-07-01T15:43:54Z</time>
      </trkpt>
      <trkpt lat="44.64073" lon="-1.25462">
        <ele>-3.71</ele>
        <time>2021-07-01T15:43:55Z</time>
      </trkpt>
      <trkpt lat="44.64081" lon="-1.25464">
        <ele>-3.71</ele>
        <time>2021-07-01T15:43:56Z</time>
      </trkpt>
      <trkpt lat="44.6409" lon="-1.25465">
        <ele>-3.23</ele>
        <time>2021-07-01T15:43:57Z</time>
      </trkpt>
      <trkpt lat="44.64099" lon="-1.25466">
        <ele>-3.23</ele>
        <time>2021-07-01T15:43:58Z</time>
      </trkpt>
      <trkpt lat="44.64159" lon="-1.25478">
        <ele>-1.79</ele>
        <time>2021-07-01T15:44:05Z</time>
      </trkpt>
      <trkpt lat="44.64167" lon="-1.2548">
        <ele>-1.3</ele>
        <time>2021-07-01T15:44:06Z</time>
      </trkpt>
      <trkpt lat="44.64176" lon="-1.25482">
        <ele>-1.79</ele>
        <time>2021-07-01T15:44:07Z</time>
      </trkpt>
      <trkpt lat="44.64194" lon="-1.25482">
        <ele>-1.3</ele>
        <time>2021-07-01T15:44:08Z</time>
      </trkpt>
      <trkpt lat="44.64194" lon="-1.25482">
        <ele>-1.3</ele>
        <time>2021-07-01T15:44:09Z</time>
      </trkpt>
      <trkpt lat="44.64293" lon="-1.25467">
        <ele>1.1</ele>
        <time>2021-07-01T15:44:21Z</time>
      </trkpt>
    </trkseg>
  </trk>
  <trk>
    <name><![CDATA[Journal actif: 2021-07-01 13:44]]></name>
    <trkseg>
      <trkpt lat="44.64301" lon="-1.25467">
        <ele>1.1</ele>
        <time>2021-07-01T15:44:22Z</time>
      </trkpt>
      <trkpt lat="44.64371" lon="-1.25449">
        <ele>-0.34</ele>
        <time>2021-07-01T15:44:30Z</time>
      </trkpt>
      <trkpt lat="44.64371" lon="-1.25449">
        <ele>-0.82</ele>
        <time>2021-07-01T15:44:31Z</time>
      </trkpt>
      <trkpt lat="44.64378" lon="-1.25445">
        <ele>-1.3</ele>
        <time>2021-07-01T15:44:32Z</time>
      </trkpt>
      <trkpt lat="44.64385" lon="-1.25441">
        <ele>-1.3</ele>
        <time>2021-07-01T15:44:33Z</time>
      </trkpt>
      <trkpt lat="44.64391" lon="-1.25436">
        <ele>-1.3</ele>
        <time>2021-07-01T15:44:34Z</time>
      </trkpt>
      <trkpt lat="44.64403" lon="-1.25419">
        <ele>-1.79</ele>
        <time>2021-07-01T15:44:35Z</time>
      </trkpt>
      <trkpt lat="44.64403" lon="-1.25419">
        <ele>-1.79</ele>
        <time>2021-07-01T15:44:36Z</time>
      </trkpt>
      <trkpt lat="44.64408" lon="-1.25409">
        <ele>-1.79</ele>
        <time>2021-07-01T15:44:37Z</time>
      </trkpt>
      <trkpt lat="44.64414" lon="-1.254">
        <ele>-1.79</ele>
        <time>2021-07-01T15:44:38Z</time>
      </trkpt>
      <trkpt lat="44.64419" lon="-1.25391">
        <ele>-1.79</ele>
        <time>2021-07-01T15:44:39Z</time>
      </trkpt>
      <trkpt lat="44.64424" lon="-1.25382">
        <ele>-1.3</ele>
        <time>2021-07-01T15:44:40Z</time>
      </trkpt>
      <trkpt lat="44.6443" lon="-1.25372">
        <ele>-1.3</ele>
        <time>2021-07-01T15:44:41Z</time>
      </trkpt>
      <trkpt lat="44.64436" lon="-1.25367">
        <ele>-1.3</ele>
        <time>2021-07-01T15:44:42Z</time>
      </trkpt>
      <trkpt lat="44.64444" lon="-1.25363">
        <ele>-0.82</ele>
        <time>2021-07-01T15:44:43Z</time>
      </trkpt>
      <trkpt lat="44.64453" lon="-1.2536">
        <ele>-0.82</ele>
        <time>2021-07-01T15:44:44Z</time>
      </trkpt>
      <trkpt lat="44.6446" lon="-1.25359">
        <ele>-1.3</ele>
        <time>2021-07-01T15:44:45Z</time>
      </trkpt>
      <trkpt lat="44.64478" lon="-1.25365">
        <ele>-1.79</ele>
        <time>2021-07-01T15:44:46Z</time>
      </trkpt>
      <trkpt lat="44.64478" lon="-1.25365">
        <ele>-1.3</ele>
        <time>2021-07-01T15:44:47Z</time>
      </trkpt>
      <trkpt lat="44.64486" lon="-1.25367">
        <ele>-1.79</ele>
        <time>2021-07-01T15:44:48Z</time>
      </trkpt>
      <trkpt lat="44.64515" lon="-1.25379">
        <ele>0.14</ele>
        <time>2021-07-01T15:44:52Z</time>
      </trkpt>
      <trkpt lat="44.64522" lon="-1.25381">
        <ele>1.1</ele>
        <time>2021-07-01T15:44:53Z</time>
      </trkpt>
      <trkpt lat="44.64527" lon="-1.25384">
        <ele>1.1</ele>
        <time>2021-07-01T15:44:54Z</time>
      </trkpt>
      <trkpt lat="44.64536" lon="-1.25388">
        <ele>1.1</ele>
        <time>2021-07-01T15:44:55Z</time>
      </trkpt>
      <trkpt lat="44.64536" lon="-1.25388">
        <ele>1.1</ele>
        <time>2021-07-01T15:44:56Z</time>
      </trkpt>
      <trkpt lat="44.64543" lon="-1.25377">
        <ele>1.1</ele>
        <time>2021-07-01T15:44:57Z</time>
      </trkpt>
      <trkpt lat="44.64541" lon="-1.25377">
        <ele>0.62</ele>
        <time>2021-07-01T15:44:58Z</time>
      </trkpt>
      <trkpt lat="44.64553" lon="-1.25367">
        <ele>0.14</ele>
        <time>2021-07-01T15:44:59Z</time>
      </trkpt>
      <trkpt lat="44.64555" lon="-1.25358">
        <ele>0.14</ele>
        <time>2021-07-01T15:45:00Z</time>
      </trkpt>
      <trkpt lat="44.64575" lon="-1.25231">
        <ele>-5.15</ele>
        <time>2021-07-01T15:45:13Z</time>
      </trkpt>
      <trkpt lat="44.6458" lon="-1.25196">
        <ele>-6.59</ele>
        <time>2021-07-01T15:45:21Z</time>
      </trkpt>
      <trkpt lat="44.64583" lon="-1.25173">
        <ele>-6.59</ele>
        <time>2021-07-01T15:45:25Z</time>
      </trkpt>
      <trkpt lat="44.64588" lon="-1.25086">
        <ele>-5.15</ele>
        <time>2021-07-01T15:45:35Z</time>
      </trkpt>
      <trkpt lat="44.64592" lon="-1.25011">
        <ele>-2.75</ele>
        <time>2021-07-01T15:45:46Z</time>
      </trkpt>
      <trkpt lat="44.64592" lon="-1.25011">
        <ele>-2.75</ele>
        <time>2021-07-01T15:45:48Z</time>
      </trkpt>
      <trkpt lat="44.64593" lon="-1.25006">
        <ele>-2.27</ele>
        <time>2021-07-01T15:45:49Z</time>
      </trkpt>
      <trkpt lat="44.64593" lon="-1.25006">
        <ele>-2.27</ele>
        <time>2021-07-01T15:45:50Z</time>
      </trkpt>
      <trkpt lat="44.64595" lon="-1.25005">
        <ele>-2.27</ele>
        <time>2021-07-01T15:45:51Z</time>
      </trkpt>
      <trkpt lat="44.64598" lon="-1.25004">
        <ele>-1.79</ele>
        <time>2021-07-01T15:45:52Z</time>
      </trkpt>
      <trkpt lat="44.64602" lon="-1.25002">
        <ele>-1.79</ele>
        <time>2021-07-01T15:45:53Z</time>
      </trkpt>
      <trkpt lat="44.64606" lon="-1.25001">
        <ele>-1.79</ele>
        <time>2021-07-01T15:45:54Z</time>
      </trkpt>
      <trkpt lat="44.6461" lon="-1.24999">
        <ele>-1.79</ele>
        <time>2021-07-01T15:45:55Z</time>
      </trkpt>
      <trkpt lat="44.64678" lon="-1.24969">
        <ele>-3.23</ele>
        <time>2021-07-01T15:46:07Z</time>
      </trkpt>
      <trkpt lat="44.64698" lon="-1.24949">
        <ele>-4.19</ele>
        <time>2021-07-01T15:46:14Z</time>
      </trkpt>
      <trkpt lat="44.64699" lon="-1.24943">
        <ele>-4.19</ele>
        <time>2021-07-01T15:46:15Z</time>
      </trkpt>
      <trkpt lat="44.647" lon="-1.24897">
        <ele>-1.79</ele>
        <time>2021-07-01T15:46:25Z</time>
      </trkpt>
      <trkpt lat="44.647" lon="-1.24897">
        <ele>-1.79</ele>
        <time>2021-07-01T15:46:26Z</time>
      </trkpt>
      <trkpt lat="44.647" lon="-1.24897">
        <ele>-1.79</ele>
        <time>2021-07-01T15:46:27Z</time>
      </trkpt>
      <trkpt lat="44.647" lon="-1.24897">
        <ele>-1.79</ele>
        <time>2021-07-01T15:46:28Z</time>
      </trkpt>
      <trkpt lat="44.64701" lon="-1.24896">
        <ele>-1.79</ele>
        <time>2021-07-01T15:46:29Z</time>
      </trkpt>
      <trkpt lat="44.64704" lon="-1.24895">
        <ele>-1.79</ele>
        <time>2021-07-01T15:46:30Z</time>
      </trkpt>
      <trkpt lat="44.64706" lon="-1.24895">
        <ele>-1.3</ele>
        <time>2021-07-01T15:46:31Z</time>
      </trkpt>
      <trkpt lat="44.64741" lon="-1.24891">
        <ele>-2.27</ele>
        <time>2021-07-01T15:46:44Z</time>
      </trkpt>
      <trkpt lat="44.64808" lon="-1.24888">
        <ele>-2.75</ele>
        <time>2021-07-01T15:47:01Z</time>
      </trkpt>
      <trkpt lat="44.64813" lon="-1.24888">
        <ele>-3.23</ele>
        <time>2021-07-01T15:47:05Z</time>
      </trkpt>
      <trkpt lat="44.64816" lon="-1.24888">
        <ele>-3.23</ele>
        <time>2021-07-01T15:47:06Z</time>
      </trkpt>
      <trkpt lat="44.64817" lon="-1.24892">
        <ele>-3.23</ele>
        <time>2021-07-01T15:47:07Z</time>
      </trkpt>
      <trkpt lat="44.64816" lon="-1.24895">
        <ele>-3.23</ele>
        <time>2021-07-01T15:47:08Z</time>
      </trkpt>
      <trkpt lat="44.64815" lon="-1.24899">
        <ele>-2.75</ele>
        <time>2021-07-01T15:47:09Z</time>
      </trkpt>
      <trkpt lat="44.64814" lon="-1.24904">
        <ele>-2.75</ele>
        <time>2021-07-01T15:47:10Z</time>
      </trkpt>
      <trkpt lat="44.64813" lon="-1.24908">
        <ele>-2.75</ele>
        <time>2021-07-01T15:47:11Z</time>
      </trkpt>
      <trkpt lat="44.64795" lon="-1.24991">
        <ele>-4.67</ele>
        <time>2021-07-01T15:47:25Z</time>
      </trkpt>
      <trkpt lat="44.64773" lon="-1.2509">
        <ele>-4.19</ele>
        <time>2021-07-01T15:47:41Z</time>
      </trkpt>
      <trkpt lat="44.64767" lon="-1.25095">
        <ele>-4.19</ele>
        <time>2021-07-01T15:47:42Z</time>
      </trkpt>
      <trkpt lat="44.64763" lon="-1.25099">
        <ele>-4.19</ele>
        <time>2021-07-01T15:47:43Z</time>
      </trkpt>
      <trkpt lat="44.64758" lon="-1.25102">
        <ele>-4.19</ele>
        <time>2021-07-01T15:47:44Z</time>
      </trkpt>
      <trkpt lat="44.64754" lon="-1.25106">
        <ele>-4.67</ele>
        <time>2021-07-01T15:47:45Z</time>
      </trkpt>
      <trkpt lat="44.64696" lon="-1.25152">
        <ele>-6.59</ele>
        <time>2021-07-01T15:47:56Z</time>
      </trkpt>
      <trkpt lat="44.64683" lon="-1.25162">
        <ele>-7.55</ele>
        <time>2021-07-01T15:47:59Z</time>
      </trkpt>
      <trkpt lat="44.64678" lon="-1.25164">
        <ele>-8.03</ele>
        <time>2021-07-01T15:48:00Z</time>
      </trkpt>
      <trkpt lat="44.64602" lon="-1.25181">
        <ele>-9.48</ele>
        <time>2021-07-01T15:48:13Z</time>
      </trkpt>
      <trkpt lat="44.64561" lon="-1.25188">
        <ele>-9</ele>
        <time>2021-07-01T15:48:22Z</time>
      </trkpt>
      <trkpt lat="44.64489" lon="-1.25189">
        <ele>-5.15</ele>
        <time>2021-07-01T15:48:34Z</time>
      </trkpt>
      <trkpt lat="44.64457" lon="-1.25168">
        <ele>-5.63</ele>
        <time>2021-07-01T15:48:42Z</time>
      </trkpt>
      <trkpt lat="44.64441" lon="-1.25153">
        <ele>-7.55</ele>
        <time>2021-07-01T15:48:45Z</time>
      </trkpt>
      <trkpt lat="44.64423" lon="-1.25131">
        <ele>-9.48</ele>
        <time>2021-07-01T15:48:48Z</time>
      </trkpt>
      <trkpt lat="44.64421" lon="-1.25124">
        <ele>-9.48</ele>
        <time>2021-07-01T15:48:49Z</time>
      </trkpt>
      <trkpt lat="44.64419" lon="-1.25117">
        <ele>-9.48</ele>
        <time>2021-07-01T15:48:50Z</time>
      </trkpt>
      <trkpt lat="44.64394" lon="-1.25028">
        <ele>-6.11</ele>
        <time>2021-07-01T15:49:03Z</time>
      </trkpt>
      <trkpt lat="44.64378" lon="-1.24923">
        <ele>-2.27</ele>
        <time>2021-07-01T15:49:16Z</time>
      </trkpt>
      <trkpt lat="44.64374" lon="-1.24881">
        <ele>-0.34</ele>
        <time>2021-07-01T15:49:25Z</time>
      </trkpt>
      <trkpt lat="44.64374" lon="-1.24876">
        <ele>-0.34</ele>
        <time>2021-07-01T15:49:26Z</time>
      </trkpt>
      <trkpt lat="44.64374" lon="-1.24873">
        <ele>-0.82</ele>
        <time>2021-07-01T15:49:27Z</time>
      </trkpt>
      <trkpt lat="44.64377" lon="-1.2488">
        <ele>-0.82</ele>
        <time>2021-07-01T15:49:28Z</time>
      </trkpt>
      <trkpt lat="44.64381" lon="-1.2488">
        <ele>-0.82</ele>
        <time>2021-07-01T15:49:29Z</time>
      </trkpt>
      <trkpt lat="44.64423" lon="-1.24883">
        <ele>-1.79</ele>
        <time>2021-07-01T15:49:41Z</time>
      </trkpt>
      <trkpt lat="44.64449" lon="-1.24889">
        <ele>-1.79</ele>
        <time>2021-07-01T15:49:48Z</time>
      </trkpt>
      <trkpt lat="44.64448" lon="-1.24894">
        <ele>-1.79</ele>
        <time>2021-07-01T15:49:49Z</time>
      </trkpt>
      <trkpt lat="44.64448" lon="-1.24899">
        <ele>-1.79</ele>
        <time>2021-07-01T15:49:50Z</time>
      </trkpt>
      <trkpt lat="44.64442" lon="-1.24971">
        <ele>-3.71</ele>
        <time>2021-07-01T15:50:02Z</time>
      </trkpt>
    </trkseg>
  </trk>
  <trk>
    <name><![CDATA[Journal actif: 2021-07-01 14:11]]></name>
    <trkseg>
      <trkpt lat="44.64609" lon="-1.24987">
        <ele>1.58</ele>
        <time>2021-07-01T16:11:53Z</time>
      </trkpt>
      <trkpt lat="44.64613" lon="-1.24987">
        <ele>2.06</ele>
        <time>2021-07-01T16:12:39Z</time>
      </trkpt>
      <trkpt lat="44.64618" lon="-1.24995">
        <ele>2.06</ele>
        <time>2021-07-01T16:12:42Z</time>
      </trkpt>
      <trkpt lat="44.64621" lon="-1.24994">
        <ele>2.06</ele>
        <time>2021-07-01T16:12:43Z</time>
      </trkpt>
      <trkpt lat="44.64624" lon="-1.24993">
        <ele>2.06</ele>
        <time>2021-07-01T16:12:44Z</time>
      </trkpt>
      <trkpt lat="44.64671" lon="-1.24972">
        <ele>1.1</ele>
        <time>2021-07-01T16:12:56Z</time>
      </trkpt>
      <trkpt lat="44.64693" lon="-1.24963">
        <ele>2.06</ele>
        <time>2021-07-01T16:13:03Z</time>
      </trkpt>
      <trkpt lat="44.64698" lon="-1.24952">
        <ele>2.54</ele>
        <time>2021-07-01T16:13:04Z</time>
      </trkpt>
      <trkpt lat="44.64696" lon="-1.24878">
        <ele>4.46</ele>
        <time>2021-07-01T16:13:17Z</time>
      </trkpt>
      <trkpt lat="44.64697" lon="-1.24835">
        <ele>1.58</ele>
        <time>2021-07-01T16:13:27Z</time>
      </trkpt>
      <trkpt lat="44.64729" lon="-1.24769">
        <ele>1.1</ele>
        <time>2021-07-01T16:13:41Z</time>
      </trkpt>
      <trkpt lat="44.64734" lon="-1.24759">
        <ele>0.62</ele>
        <time>2021-07-01T16:13:42Z</time>
      </trkpt>
      <trkpt lat="44.64734" lon="-1.24759">
        <ele>0.14</ele>
        <time>2021-07-01T16:13:43Z</time>
      </trkpt>
      <trkpt lat="44.64736" lon="-1.24754">
        <ele>0.14</ele>
        <time>2021-07-01T16:13:44Z</time>
      </trkpt>
      <trkpt lat="44.64738" lon="-1.24748">
        <ele>0.14</ele>
        <time>2021-07-01T16:13:45Z</time>
      </trkpt>
      <trkpt lat="44.6474" lon="-1.24744">
        <ele>-0.34</ele>
        <time>2021-07-01T16:13:46Z</time>
      </trkpt>
      <trkpt lat="44.64744" lon="-1.2474">
        <ele>-0.82</ele>
        <time>2021-07-01T16:13:47Z</time>
      </trkpt>
      <trkpt lat="44.64751" lon="-1.24731">
        <ele>-1.3</ele>
        <time>2021-07-01T16:13:48Z</time>
      </trkpt>
      <trkpt lat="44.64754" lon="-1.24727">
        <ele>-0.82</ele>
        <time>2021-07-01T16:13:49Z</time>
      </trkpt>
      <trkpt lat="44.64754" lon="-1.24727">
        <ele>-1.3</ele>
        <time>2021-07-01T16:13:50Z</time>
      </trkpt>
      <trkpt lat="44.64758" lon="-1.24723">
        <ele>-1.79</ele>
        <time>2021-07-01T16:13:51Z</time>
      </trkpt>
      <trkpt lat="44.64811" lon="-1.24676">
        <ele>-1.79</ele>
        <time>2021-07-01T16:14:06Z</time>
      </trkpt>
      <trkpt lat="44.64822" lon="-1.24653">
        <ele>-2.27</ele>
        <time>2021-07-01T16:14:16Z</time>
      </trkpt>
      <trkpt lat="44.64822" lon="-1.24587">
        <ele>-1.3</ele>
        <time>2021-07-01T16:14:30Z</time>
      </trkpt>
      <trkpt lat="44.64822" lon="-1.24556">
        <ele>0.62</ele>
        <time>2021-07-01T16:14:41Z</time>
      </trkpt>
      <trkpt lat="44.64822" lon="-1.24549">
        <ele>0.14</ele>
        <time>2021-07-01T16:14:42Z</time>
      </trkpt>
      <trkpt lat="44.64826" lon="-1.24545">
        <ele>-0.34</ele>
        <time>2021-07-01T16:14:43Z</time>
      </trkpt>
      <trkpt lat="44.64829" lon="-1.24545">
        <ele>-0.82</ele>
        <time>2021-07-01T16:14:44Z</time>
      </trkpt>
      <trkpt lat="44.64831" lon="-1.24545">
        <ele>-0.34</ele>
        <time>2021-07-01T16:14:45Z</time>
      </trkpt>
      <trkpt lat="44.64888" lon="-1.2455">
        <ele>0.62</ele>
        <time>2021-07-01T16:14:58Z</time>
      </trkpt>
      <trkpt lat="44.64919" lon="-1.24553">
        <ele>0.62</ele>
        <time>2021-07-01T16:15:09Z</time>
      </trkpt>
      <trkpt lat="44.64948" lon="-1.24556">
        <ele>-1.3</ele>
        <time>2021-07-01T16:15:22Z</time>
      </trkpt>
      <trkpt lat="44.64956" lon="-1.24557">
        <ele>-1.79</ele>
        <time>2021-07-01T16:15:24Z</time>
      </trkpt>
      <trkpt lat="44.64961" lon="-1.24558">
        <ele>-1.79</ele>
        <time>2021-07-01T16:15:25Z</time>
      </trkpt>
      <trkpt lat="44.65072" lon="-1.24568">
        <ele>-2.27</ele>
        <time>2021-07-01T16:15:45Z</time>
      </trkpt>
      <trkpt lat="44.65121" lon="-1.24571">
        <ele>0.14</ele>
        <time>2021-07-01T16:15:55Z</time>
      </trkpt>
      <trkpt lat="44.65161" lon="-1.24565">
        <ele>0.14</ele>
        <time>2021-07-01T16:16:07Z</time>
      </trkpt>
      <trkpt lat="44.65197" lon="-1.24525">
        <ele>-0.82</ele>
        <time>2021-07-01T16:16:19Z</time>
      </trkpt>
      <trkpt lat="44.6528" lon="-1.24427">
        <ele>-2.75</ele>
        <time>2021-07-01T16:16:39Z</time>
      </trkpt>
      <trkpt lat="44.65312" lon="-1.24382">
        <ele>-5.63</ele>
        <time>2021-07-01T16:16:50Z</time>
      </trkpt>
      <trkpt lat="44.65312" lon="-1.24382">
        <ele>-5.63</ele>
        <time>2021-07-01T16:16:51Z</time>
      </trkpt>
      <trkpt lat="44.65301" lon="-1.24308">
        <ele>-4.67</ele>
        <time>2021-07-01T16:17:06Z</time>
      </trkpt>
      <trkpt lat="44.65282" lon="-1.243">
        <ele>-3.71</ele>
        <time>2021-07-01T16:17:15Z</time>
      </trkpt>
      <trkpt lat="44.65241" lon="-1.24287">
        <ele>-3.71</ele>
        <time>2021-07-01T16:17:30Z</time>
      </trkpt>
      <trkpt lat="44.65215" lon="-1.2429">
        <ele>-2.75</ele>
        <time>2021-07-01T16:17:42Z</time>
      </trkpt>
      <trkpt lat="44.65187" lon="-1.24319">
        <ele>-3.23</ele>
        <time>2021-07-01T16:17:57Z</time>
      </trkpt>
      <trkpt lat="44.65144" lon="-1.24355">
        <ele>-4.19</ele>
        <time>2021-07-01T16:18:12Z</time>
      </trkpt>
      <trkpt lat="44.65087" lon="-1.24402">
        <ele>-9.96</ele>
        <time>2021-07-01T16:18:32Z</time>
      </trkpt>
      <trkpt lat="44.65044" lon="-1.24437">
        <ele>-9.96</ele>
        <time>2021-07-01T16:18:47Z</time>
      </trkpt>
      <trkpt lat="44.65009" lon="-1.24468">
        <ele>-7.55</ele>
        <time>2021-07-01T16:19:02Z</time>
      </trkpt>
      <trkpt lat="44.64967" lon="-1.24511">
        <ele>-6.59</ele>
        <time>2021-07-01T16:19:16Z</time>
      </trkpt>
      <trkpt lat="44.64942" lon="-1.24541">
        <ele>-6.11</ele>
        <time>2021-07-01T16:19:29Z</time>
      </trkpt>
      <trkpt lat="44.64957" lon="-1.24557">
        <ele>-7.07</ele>
        <time>2021-07-01T16:19:38Z</time>
      </trkpt>
      <trkpt lat="44.64962" lon="-1.24558">
        <ele>-7.55</ele>
        <time>2021-07-01T16:19:39Z</time>
      </trkpt>
      <trkpt lat="44.65042" lon="-1.24565">
        <ele>-9</ele>
        <time>2021-07-01T16:19:51Z</time>
      </trkpt>
      <trkpt lat="44.65144" lon="-1.24572">
        <ele>0.14</ele>
        <time>2021-07-01T16:20:07Z</time>
      </trkpt>
      <trkpt lat="44.65163" lon="-1.24548">
        <ele>0.14</ele>
        <time>2021-07-01T16:20:16Z</time>
      </trkpt>
      <trkpt lat="44.65176" lon="-1.2445">
        <ele>-1.79</ele>
        <time>2021-07-01T16:20:35Z</time>
      </trkpt>
      <trkpt lat="44.65184" lon="-1.24385">
        <ele>-4.19</ele>
        <time>2021-07-01T16:20:51Z</time>
      </trkpt>
      <trkpt lat="44.65191" lon="-1.24332">
        <ele>-3.71</ele>
        <time>2021-07-01T16:21:07Z</time>
      </trkpt>
      <trkpt lat="44.65213" lon="-1.24292">
        <ele>-2.75</ele>
        <time>2021-07-01T16:21:19Z</time>
      </trkpt>
      <trkpt lat="44.65241" lon="-1.24277">
        <ele>-4.19</ele>
        <time>2021-07-01T16:21:30Z</time>
      </trkpt>
      <trkpt lat="44.65275" lon="-1.24244">
        <ele>-4.67</ele>
        <time>2021-07-01T16:21:45Z</time>
      </trkpt>
      <trkpt lat="44.65324" lon="-1.24203">
        <ele>-4.19</ele>
        <time>2021-07-01T16:22:05Z</time>
      </trkpt>
      <trkpt lat="44.65371" lon="-1.24163">
        <ele>-3.71</ele>
        <time>2021-07-01T16:22:27Z</time>
      </trkpt>
      <trkpt lat="44.65384" lon="-1.24151">
        <ele>-3.71</ele>
        <time>2021-07-01T16:22:42Z</time>
      </trkpt>
      <trkpt lat="44.65411" lon="-1.24133">
        <ele>-4.19</ele>
        <time>2021-07-01T16:22:55Z</time>
      </trkpt>
      <trkpt lat="44.65435" lon="-1.24118">
        <ele>-3.71</ele>
        <time>2021-07-01T16:23:06Z</time>
      </trkpt>
      <trkpt lat="44.65471" lon="-1.24096">
        <ele>-2.75</ele>
        <time>2021-07-01T16:23:23Z</time>
      </trkpt>
      <trkpt lat="44.65505" lon="-1.24075">
        <ele>-2.75</ele>
        <time>2021-07-01T16:23:39Z</time>
      </trkpt>
      <trkpt lat="44.65549" lon="-1.24048">
        <ele>-3.71</ele>
        <time>2021-07-01T16:23:56Z</time>
      </trkpt>
      <trkpt lat="44.65556" lon="-1.2405">
        <ele>-3.71</ele>
        <time>2021-07-01T16:23:58Z</time>
      </trkpt>
      <trkpt lat="44.65556" lon="-1.2405">
        <ele>-3.71</ele>
        <time>2021-07-01T16:23:59Z</time>
      </trkpt>
      <trkpt lat="44.65556" lon="-1.24053">
        <ele>-4.19</ele>
        <time>2021-07-01T16:24:00Z</time>
      </trkpt>
      <trkpt lat="44.65572" lon="-1.24108">
        <ele>-5.63</ele>
        <time>2021-07-01T16:24:11Z</time>
      </trkpt>
      <trkpt lat="44.65579" lon="-1.24132">
        <ele>-6.11</ele>
        <time>2021-07-01T16:24:15Z</time>
      </trkpt>
      <trkpt lat="44.65599" lon="-1.24185">
        <ele>-7.07</ele>
        <time>2021-07-01T16:24:26Z</time>
      </trkpt>
      <trkpt lat="44.65602" lon="-1.24186">
        <ele>-7.07</ele>
        <time>2021-07-01T16:24:27Z</time>
      </trkpt>
      <trkpt lat="44.65643" lon="-1.24195">
        <ele>-5.63</ele>
        <time>2021-07-01T16:24:40Z</time>
      </trkpt>
      <trkpt lat="44.65653" lon="-1.24198">
        <ele>-6.11</ele>
        <time>2021-07-01T16:25:05Z</time>
      </trkpt>
      <trkpt lat="44.65652" lon="-1.24261">
        <ele>-6.59</ele>
        <time>2021-07-01T16:25:19Z</time>
      </trkpt>
      <trkpt lat="44.65645" lon="-1.24363">
        <ele>-6.11</ele>
        <time>2021-07-01T16:25:36Z</time>
      </trkpt>
      <trkpt lat="44.65636" lon="-1.24424">
        <ele>-5.63</ele>
        <time>2021-07-01T16:25:51Z</time>
      </trkpt>
      <trkpt lat="44.65635" lon="-1.24428">
        <ele>-4.67</ele>
        <time>2021-07-01T16:26:06Z</time>
      </trkpt>
      <trkpt lat="44.65636" lon="-1.24441">
        <ele>-0.34</ele>
        <time>2021-07-01T16:33:47Z</time>
      </trkpt>
      <trkpt lat="44.65631" lon="-1.24437">
        <ele>-1.79</ele>
        <time>2021-07-01T16:34:03Z</time>
      </trkpt>
      <trkpt lat="44.65631" lon="-1.24442">
        <ele>-1.3</ele>
        <time>2021-07-01T16:34:06Z</time>
      </trkpt>
      <trkpt lat="44.6561" lon="-1.24514">
        <ele>-1.3</ele>
        <time>2021-07-01T16:34:17Z</time>
      </trkpt>
      <trkpt lat="44.65566" lon="-1.24664">
        <ele>-0.34</ele>
        <time>2021-07-01T16:34:33Z</time>
      </trkpt>
      <trkpt lat="44.6553" lon="-1.24786">
        <ele>0.14</ele>
        <time>2021-07-01T16:34:47Z</time>
      </trkpt>
      <trkpt lat="44.65508" lon="-1.24862">
        <ele>-0.82</ele>
        <time>2021-07-01T16:34:57Z</time>
      </trkpt>
      <trkpt lat="44.65506" lon="-1.24868">
        <ele>-1.3</ele>
        <time>2021-07-01T16:34:58Z</time>
      </trkpt>
      <trkpt lat="44.65505" lon="-1.24873">
        <ele>-1.3</ele>
        <time>2021-07-01T16:34:59Z</time>
      </trkpt>
      <trkpt lat="44.65514" lon="-1.24891">
        <ele>-1.79</ele>
        <time>2021-07-01T16:35:02Z</time>
      </trkpt>
      <trkpt lat="44.65515" lon="-1.24897">
        <ele>-1.79</ele>
        <time>2021-07-01T16:35:03Z</time>
      </trkpt>
      <trkpt lat="44.65513" lon="-1.24909">
        <ele>-1.79</ele>
        <time>2021-07-01T16:35:04Z</time>
      </trkpt>
      <trkpt lat="44.65511" lon="-1.24914">
        <ele>-1.79</ele>
        <time>2021-07-01T16:35:05Z</time>
      </trkpt>
      <trkpt lat="44.6551" lon="-1.24918">
        <ele>-1.79</ele>
        <time>2021-07-01T16:35:06Z</time>
      </trkpt>
      <trkpt lat="44.65509" lon="-1.2492">
        <ele>-1.79</ele>
        <time>2021-07-01T16:35:07Z</time>
      </trkpt>
      <trkpt lat="44.65502" lon="-1.24923">
        <ele>-1.79</ele>
        <time>2021-07-01T16:35:08Z</time>
      </trkpt>
      <trkpt lat="44.65498" lon="-1.2493">
        <ele>-1.79</ele>
        <time>2021-07-01T16:35:09Z</time>
      </trkpt>
      <trkpt lat="44.65498" lon="-1.24936">
        <ele>-2.27</ele>
        <time>2021-07-01T16:35:10Z</time>
      </trkpt>
      <trkpt lat="44.65498" lon="-1.24943">
        <ele>-2.27</ele>
        <time>2021-07-01T16:35:11Z</time>
      </trkpt>
      <trkpt lat="44.65498" lon="-1.24951">
        <ele>-2.27</ele>
        <time>2021-07-01T16:35:12Z</time>
      </trkpt>
      <trkpt lat="44.65498" lon="-1.25136">
        <ele>-3.23</ele>
        <time>2021-07-01T16:35:30Z</time>
      </trkpt>
      <trkpt lat="44.65498" lon="-1.25164">
        <ele>-2.75</ele>
        <time>2021-07-01T16:35:37Z</time>
      </trkpt>
      <trkpt lat="44.65508" lon="-1.25183">
        <ele>-2.75</ele>
        <time>2021-07-01T16:35:46Z</time>
      </trkpt>
      <trkpt lat="44.65509" lon="-1.25189">
        <ele>-2.75</ele>
        <time>2021-07-01T16:35:47Z</time>
      </trkpt>
      <trkpt lat="44.65513" lon="-1.25197">
        <ele>-2.75</ele>
        <time>2021-07-01T16:35:48Z</time>
      </trkpt>
      <trkpt lat="44.65519" lon="-1.25196">
        <ele>-3.23</ele>
        <time>2021-07-01T16:35:49Z</time>
      </trkpt>
      <trkpt lat="44.65525" lon="-1.25195">
        <ele>-3.71</ele>
        <time>2021-07-01T16:35:50Z</time>
      </trkpt>
      <trkpt lat="44.65532" lon="-1.25193">
        <ele>-3.71</ele>
        <time>2021-07-01T16:35:51Z</time>
      </trkpt>
      <trkpt lat="44.6554" lon="-1.25192">
        <ele>-3.71</ele>
        <time>2021-07-01T16:35:52Z</time>
      </trkpt>
      <trkpt lat="44.65652" lon="-1.25188">
        <ele>-4.67</ele>
        <time>2021-07-01T16:36:04Z</time>
      </trkpt>
      <trkpt lat="44.65745" lon="-1.25171">
        <ele>-3.23</ele>
        <time>2021-07-01T16:36:13Z</time>
      </trkpt>
      <trkpt lat="44.65778" lon="-1.25159">
        <ele>-2.27</ele>
        <time>2021-07-01T16:36:16Z</time>
      </trkpt>
      <trkpt lat="44.65789" lon="-1.25156">
        <ele>-1.79</ele>
        <time>2021-07-01T16:36:17Z</time>
      </trkpt>
      <trkpt lat="44.658" lon="-1.25152">
        <ele>-1.79</ele>
        <time>2021-07-01T16:36:18Z</time>
      </trkpt>
      <trkpt lat="44.65841" lon="-1.25162">
        <ele>-1.3</ele>
        <time>2021-07-01T16:36:22Z</time>
      </trkpt>
      <trkpt lat="44.65851" lon="-1.25164">
        <ele>-0.82</ele>
        <time>2021-07-01T16:36:23Z</time>
      </trkpt>
      <trkpt lat="44.65861" lon="-1.25167">
        <ele>-0.82</ele>
        <time>2021-07-01T16:36:24Z</time>
      </trkpt>
      <trkpt lat="44.6587" lon="-1.2517">
        <ele>-1.3</ele>
        <time>2021-07-01T16:36:25Z</time>
      </trkpt>
      <trkpt lat="44.65879" lon="-1.25176">
        <ele>-1.3</ele>
        <time>2021-07-01T16:36:26Z</time>
      </trkpt>
      <trkpt lat="44.65897" lon="-1.25188">
        <ele>-0.82</ele>
        <time>2021-07-01T16:36:28Z</time>
      </trkpt>
      <trkpt lat="44.65907" lon="-1.25192">
        <ele>-1.3</ele>
        <time>2021-07-01T16:36:29Z</time>
      </trkpt>
      <trkpt lat="44.65917" lon="-1.25196">
        <ele>-1.79</ele>
        <time>2021-07-01T16:36:30Z</time>
      </trkpt>
      <trkpt lat="44.65927" lon="-1.252">
        <ele>-1.79</ele>
        <time>2021-07-01T16:36:31Z</time>
      </trkpt>
      <trkpt lat="44.65938" lon="-1.25205">
        <ele>-1.79</ele>
        <time>2021-07-01T16:36:32Z</time>
      </trkpt>
      <trkpt lat="44.66054" lon="-1.25204">
        <ele>-0.34</ele>
        <time>2021-07-01T16:36:42Z</time>
      </trkpt>
      <trkpt lat="44.66146" lon="-1.25123">
        <ele>0.62</ele>
        <time>2021-07-01T16:36:50Z</time>
      </trkpt>
      <trkpt lat="44.66268" lon="-1.25013">
        <ele>-0.34</ele>
        <time>2021-07-01T16:37:00Z</time>
      </trkpt>
      <trkpt lat="44.66283" lon="-1.25007">
        <ele>-0.34</ele>
        <time>2021-07-01T16:37:01Z</time>
      </trkpt>
      <trkpt lat="44.66299" lon="-1.25002">
        <ele>-0.82</ele>
        <time>2021-07-01T16:37:02Z</time>
      </trkpt>
      <trkpt lat="44.66315" lon="-1.25001">
        <ele>-1.3</ele>
        <time>2021-07-01T16:37:03Z</time>
      </trkpt>
      <trkpt lat="44.66597" lon="-1.24993">
        <ele>-7.07</ele>
        <time>2021-07-01T16:37:18Z</time>
      </trkpt>
      <trkpt lat="44.66847" lon="-1.24989">
        <ele>-14.76</ele>
        <time>2021-07-01T16:37:33Z</time>
      </trkpt>
      <trkpt lat="44.67059" lon="-1.25023">
        <ele>-12.84</ele>
        <time>2021-07-01T16:37:45Z</time>
      </trkpt>
      <trkpt lat="44.67255" lon="-1.24994">
        <ele>-9.48</ele>
        <time>2021-07-01T16:37:56Z</time>
      </trkpt>
      <trkpt lat="44.6751" lon="-1.2494">
        <ele>-8.03</ele>
        <time>2021-07-01T16:38:11Z</time>
      </trkpt>
      <trkpt lat="44.67526" lon="-1.24934">
        <ele>-8.03</ele>
        <time>2021-07-01T16:38:12Z</time>
      </trkpt>
      <trkpt lat="44.67662" lon="-1.24846">
        <ele>-3.71</ele>
        <time>2021-07-01T16:38:20Z</time>
      </trkpt>
      <trkpt lat="44.67678" lon="-1.24843">
        <ele>-3.23</ele>
        <time>2021-07-01T16:38:21Z</time>
      </trkpt>
      <trkpt lat="44.67678" lon="-1.24843">
        <ele>-2.75</ele>
        <time>2021-07-01T16:38:22Z</time>
      </trkpt>
      <trkpt lat="44.67712" lon="-1.24842">
        <ele>-2.27</ele>
        <time>2021-07-01T16:38:23Z</time>
      </trkpt>
      <trkpt lat="44.67712" lon="-1.24842">
        <ele>-1.79</ele>
        <time>2021-07-01T16:38:24Z</time>
      </trkpt>
      <trkpt lat="44.67885" lon="-1.24862">
        <ele>-2.75</ele>
        <time>2021-07-01T16:38:33Z</time>
      </trkpt>
      <trkpt lat="44.68174" lon="-1.249">
        <ele>-3.71</ele>
        <time>2021-07-01T16:38:47Z</time>
      </trkpt>
      <trkpt lat="44.68319" lon="-1.24892">
        <ele>-2.75</ele>
        <time>2021-07-01T16:38:55Z</time>
      </trkpt>
      <trkpt lat="44.68518" lon="-1.24861">
        <ele>-4.19</ele>
        <time>2021-07-01T16:39:06Z</time>
      </trkpt>
      <trkpt lat="44.68534" lon="-1.24856">
        <ele>-4.67</ele>
        <time>2021-07-01T16:39:07Z</time>
      </trkpt>
      <trkpt lat="44.6855" lon="-1.24848">
        <ele>-4.67</ele>
        <time>2021-07-01T16:39:08Z</time>
      </trkpt>
      <trkpt lat="44.68564" lon="-1.24839">
        <ele>-4.67</ele>
        <time>2021-07-01T16:39:09Z</time>
      </trkpt>
      <trkpt lat="44.68587" lon="-1.24812">
        <ele>-4.67</ele>
        <time>2021-07-01T16:39:10Z</time>
      </trkpt>
      <trkpt lat="44.68587" lon="-1.24812">
        <ele>-5.15</ele>
        <time>2021-07-01T16:39:11Z</time>
      </trkpt>
      <trkpt lat="44.68596" lon="-1.24795">
        <ele>-5.15</ele>
        <time>2021-07-01T16:39:12Z</time>
      </trkpt>
      <trkpt lat="44.68606" lon="-1.24778">
        <ele>-5.15</ele>
        <time>2021-07-01T16:39:13Z</time>
      </trkpt>
      <trkpt lat="44.68613" lon="-1.2476">
        <ele>-5.63</ele>
        <time>2021-07-01T16:39:14Z</time>
      </trkpt>
      <trkpt lat="44.68652" lon="-1.24587">
        <ele>-9.48</ele>
        <time>2021-07-01T16:39:23Z</time>
      </trkpt>
      <trkpt lat="44.68658" lon="-1.24466">
        <ele>-9.48</ele>
        <time>2021-07-01T16:39:29Z</time>
      </trkpt>
      <trkpt lat="44.68657" lon="-1.24444">
        <ele>-8.51</ele>
        <time>2021-07-01T16:39:30Z</time>
      </trkpt>
      <trkpt lat="44.68655" lon="-1.24421">
        <ele>-7.55</ele>
        <time>2021-07-01T16:39:31Z</time>
      </trkpt>
      <trkpt lat="44.68608" lon="-1.24255">
        <ele>-8.03</ele>
        <time>2021-07-01T16:39:39Z</time>
      </trkpt>
      <trkpt lat="44.68585" lon="-1.24168">
        <ele>-6.11</ele>
        <time>2021-07-01T16:39:43Z</time>
      </trkpt>
      <trkpt lat="44.68581" lon="-1.24144">
        <ele>-6.11</ele>
        <time>2021-07-01T16:39:44Z</time>
      </trkpt>
      <trkpt lat="44.6858" lon="-1.24121">
        <ele>-5.15</ele>
        <time>2021-07-01T16:39:45Z</time>
      </trkpt>
      <trkpt lat="44.6858" lon="-1.24096">
        <ele>-4.19</ele>
        <time>2021-07-01T16:39:46Z</time>
      </trkpt>
      <trkpt lat="44.68581" lon="-1.24073">
        <ele>-2.75</ele>
        <time>2021-07-01T16:39:47Z</time>
      </trkpt>
      <trkpt lat="44.68608" lon="-1.23898">
        <ele>-2.27</ele>
        <time>2021-07-01T16:39:55Z</time>
      </trkpt>
      <trkpt lat="44.68623" lon="-1.23819">
        <ele>-4.67</ele>
        <time>2021-07-01T16:40:00Z</time>
      </trkpt>
      <trkpt lat="44.68624" lon="-1.23809">
        <ele>-5.15</ele>
        <time>2021-07-01T16:40:01Z</time>
      </trkpt>
      <trkpt lat="44.68625" lon="-1.238">
        <ele>-5.15</ele>
        <time>2021-07-01T16:40:02Z</time>
      </trkpt>
      <trkpt lat="44.68626" lon="-1.23793">
        <ele>-5.15</ele>
        <time>2021-07-01T16:40:03Z</time>
      </trkpt>
      <trkpt lat="44.68627" lon="-1.23787">
        <ele>-5.63</ele>
        <time>2021-07-01T16:40:04Z</time>
      </trkpt>
      <trkpt lat="44.68627" lon="-1.2378">
        <ele>-5.63</ele>
        <time>2021-07-01T16:40:05Z</time>
      </trkpt>
      <trkpt lat="44.68627" lon="-1.23773">
        <ele>-5.63</ele>
        <time>2021-07-01T16:40:06Z</time>
      </trkpt>
      <trkpt lat="44.6863" lon="-1.23766">
        <ele>-5.63</ele>
        <time>2021-07-01T16:40:07Z</time>
      </trkpt>
      <trkpt lat="44.68634" lon="-1.23762">
        <ele>-5.63</ele>
        <time>2021-07-01T16:40:08Z</time>
      </trkpt>
      <trkpt lat="44.68638" lon="-1.2376">
        <ele>-5.63</ele>
        <time>2021-07-01T16:40:09Z</time>
      </trkpt>
      <trkpt lat="44.68643" lon="-1.23761">
        <ele>-5.63</ele>
        <time>2021-07-01T16:40:10Z</time>
      </trkpt>
      <trkpt lat="44.68648" lon="-1.23762">
        <ele>-5.15</ele>
        <time>2021-07-01T16:40:11Z</time>
      </trkpt>
      <trkpt lat="44.68659" lon="-1.23772">
        <ele>-5.15</ele>
        <time>2021-07-01T16:40:12Z</time>
      </trkpt>
      <trkpt lat="44.68659" lon="-1.23772">
        <ele>-5.15</ele>
        <time>2021-07-01T16:40:13Z</time>
      </trkpt>
      <trkpt lat="44.68665" lon="-1.23775">
        <ele>-4.67</ele>
        <time>2021-07-01T16:40:14Z</time>
      </trkpt>
      <trkpt lat="44.68743" lon="-1.23811">
        <ele>-3.23</ele>
        <time>2021-07-01T16:40:22Z</time>
      </trkpt>
      <trkpt lat="44.68836" lon="-1.23904">
        <ele>1.1</ele>
        <time>2021-07-01T16:40:30Z</time>
      </trkpt>
      <trkpt lat="44.68904" lon="-1.23958">
        <ele>6.39</ele>
        <time>2021-07-01T16:40:36Z</time>
      </trkpt>
      <trkpt lat="44.68904" lon="-1.23958">
        <ele>7.83</ele>
        <time>2021-07-01T16:40:37Z</time>
      </trkpt>
      <trkpt lat="44.68917" lon="-1.23961">
        <ele>7.83</ele>
        <time>2021-07-01T16:40:38Z</time>
      </trkpt>
      <trkpt lat="44.68931" lon="-1.23963">
        <ele>6.87</ele>
        <time>2021-07-01T16:40:39Z</time>
      </trkpt>
      <trkpt lat="44.68945" lon="-1.23965">
        <ele>6.39</ele>
        <time>2021-07-01T16:40:40Z</time>
      </trkpt>
      <trkpt lat="44.68957" lon="-1.23967">
        <ele>6.87</ele>
        <time>2021-07-01T16:40:41Z</time>
      </trkpt>
      <trkpt lat="44.69113" lon="-1.23951">
        <ele>2.06</ele>
        <time>2021-07-01T16:40:52Z</time>
      </trkpt>
      <trkpt lat="44.6921" lon="-1.23883">
        <ele>0.62</ele>
        <time>2021-07-01T16:40:59Z</time>
      </trkpt>
      <trkpt lat="44.693" lon="-1.23746">
        <ele>0.14</ele>
        <time>2021-07-01T16:41:07Z</time>
      </trkpt>
      <trkpt lat="44.69412" lon="-1.23537">
        <ele>6.39</ele>
        <time>2021-07-01T16:41:18Z</time>
      </trkpt>
      <trkpt lat="44.695" lon="-1.23393">
        <ele>4.94</ele>
        <time>2021-07-01T16:41:30Z</time>
      </trkpt>
      <trkpt lat="44.69619" lon="-1.23255">
        <ele>-5.63</ele>
        <time>2021-07-01T16:41:43Z</time>
      </trkpt>
      <trkpt lat="44.69699" lon="-1.23166">
        <ele>-6.11</ele>
        <time>2021-07-01T16:41:52Z</time>
      </trkpt>
      <trkpt lat="44.69741" lon="-1.23109">
        <ele>-4.67</ele>
        <time>2021-07-01T16:42:03Z</time>
      </trkpt>
      <trkpt lat="44.69771" lon="-1.23068">
        <ele>-3.71</ele>
        <time>2021-07-01T16:42:15Z</time>
      </trkpt>
      <trkpt lat="44.69812" lon="-1.23019">
        <ele>-3.23</ele>
        <time>2021-07-01T16:42:25Z</time>
      </trkpt>
      <trkpt lat="44.69863" lon="-1.22991">
        <ele>-3.23</ele>
        <time>2021-07-01T16:42:35Z</time>
      </trkpt>
      <trkpt lat="44.69875" lon="-1.22986">
        <ele>-4.19</ele>
        <time>2021-07-01T16:42:40Z</time>
      </trkpt>
      <trkpt lat="44.69951" lon="-1.22981">
        <ele>-6.59</ele>
        <time>2021-07-01T16:42:57Z</time>
      </trkpt>
      <trkpt lat="44.70007" lon="-1.22991">
        <ele>-5.15</ele>
        <time>2021-07-01T16:43:08Z</time>
      </trkpt>
      <trkpt lat="44.70014" lon="-1.22992">
        <ele>-5.15</ele>
        <time>2021-07-01T16:43:09Z</time>
      </trkpt>
      <trkpt lat="44.70107" lon="-1.22966">
        <ele>-5.15</ele>
        <time>2021-07-01T16:43:20Z</time>
      </trkpt>
      <trkpt lat="44.70209" lon="-1.22873">
        <ele>-5.63</ele>
        <time>2021-07-01T16:43:33Z</time>
      </trkpt>
      <trkpt lat="44.70266" lon="-1.22813">
        <ele>-5.63</ele>
        <time>2021-07-01T16:43:44Z</time>
      </trkpt>
      <trkpt lat="44.7036" lon="-1.22718">
        <ele>-6.11</ele>
        <time>2021-07-01T16:44:00Z</time>
      </trkpt>
      <trkpt lat="44.70444" lon="-1.22631">
        <ele>-7.07</ele>
        <time>2021-07-01T16:44:12Z</time>
      </trkpt>
      <trkpt lat="44.70568" lon="-1.2251">
        <ele>-5.63</ele>
        <time>2021-07-01T16:44:26Z</time>
      </trkpt>
      <trkpt lat="44.70661" lon="-1.22463">
        <ele>-3.71</ele>
        <time>2021-07-01T16:44:36Z</time>
      </trkpt>
      <trkpt lat="44.70778" lon="-1.22473">
        <ele>-5.15</ele>
        <time>2021-07-01T16:44:47Z</time>
      </trkpt>
      <trkpt lat="44.70873" lon="-1.22471">
        <ele>-8.03</ele>
        <time>2021-07-01T16:44:55Z</time>
      </trkpt>
      <trkpt lat="44.70885" lon="-1.22464">
        <ele>-8.51</ele>
        <time>2021-07-01T16:44:56Z</time>
      </trkpt>
      <trkpt lat="44.70897" lon="-1.22458">
        <ele>-9</ele>
        <time>2021-07-01T16:44:57Z</time>
      </trkpt>
      <trkpt lat="44.70968" lon="-1.22379">
        <ele>-9</ele>
        <time>2021-07-01T16:45:05Z</time>
      </trkpt>
      <trkpt lat="44.71074" lon="-1.22189">
        <ele>-9</ele>
        <time>2021-07-01T16:45:21Z</time>
      </trkpt>
      <trkpt lat="44.71145" lon="-1.22011">
        <ele>-9.96</ele>
        <time>2021-07-01T16:45:33Z</time>
      </trkpt>
      <trkpt lat="44.71173" lon="-1.21936">
        <ele>-12.36</ele>
        <time>2021-07-01T16:45:38Z</time>
      </trkpt>
      <trkpt lat="44.7126" lon="-1.21788">
        <ele>-10.92</ele>
        <time>2021-07-01T16:45:49Z</time>
      </trkpt>
      <trkpt lat="44.7135" lon="-1.21649">
        <ele>-10.44</ele>
        <time>2021-07-01T16:46:05Z</time>
      </trkpt>
      <trkpt lat="44.71418" lon="-1.21547">
        <ele>-9</ele>
        <time>2021-07-01T16:46:16Z</time>
      </trkpt>
      <trkpt lat="44.71494" lon="-1.21431">
        <ele>-7.07</ele>
        <time>2021-07-01T16:46:30Z</time>
      </trkpt>
      <trkpt lat="44.71599" lon="-1.21304">
        <ele>-6.59</ele>
        <time>2021-07-01T16:46:43Z</time>
      </trkpt>
      <trkpt lat="44.7176" lon="-1.21164">
        <ele>-6.11</ele>
        <time>2021-07-01T16:47:02Z</time>
      </trkpt>
      <trkpt lat="44.7188" lon="-1.21074">
        <ele>-6.11</ele>
        <time>2021-07-01T16:47:13Z</time>
      </trkpt>
      <trkpt lat="44.71982" lon="-1.21038">
        <ele>-4.67</ele>
        <time>2021-07-01T16:47:23Z</time>
      </trkpt>
      <trkpt lat="44.7206" lon="-1.21015">
        <ele>-3.71</ele>
        <time>2021-07-01T16:47:33Z</time>
      </trkpt>
      <trkpt lat="44.72133" lon="-1.20988">
        <ele>-4.67</ele>
        <time>2021-07-01T16:47:41Z</time>
      </trkpt>
      <trkpt lat="44.72183" lon="-1.20939">
        <ele>-5.63</ele>
        <time>2021-07-01T16:47:46Z</time>
      </trkpt>
      <trkpt lat="44.72199" lon="-1.20913">
        <ele>-6.11</ele>
        <time>2021-07-01T16:47:47Z</time>
      </trkpt>
      <trkpt lat="44.72199" lon="-1.20913">
        <ele>-6.11</ele>
        <time>2021-07-01T16:47:48Z</time>
      </trkpt>
      <trkpt lat="44.72258" lon="-1.20719">
        <ele>0.14</ele>
        <time>2021-07-01T16:47:59Z</time>
      </trkpt>
      <trkpt lat="44.72301" lon="-1.20571">
        <ele>-4.19</ele>
        <time>2021-07-01T16:48:12Z</time>
      </trkpt>
      <trkpt lat="44.7234" lon="-1.2044">
        <ele>-5.15</ele>
        <time>2021-07-01T16:48:22Z</time>
      </trkpt>
      <trkpt lat="44.72343" lon="-1.20429">
        <ele>-5.15</ele>
        <time>2021-07-01T16:48:24Z</time>
      </trkpt>
      <trkpt lat="44.72338" lon="-1.20412">
        <ele>-5.63</ele>
        <time>2021-07-01T16:48:25Z</time>
      </trkpt>
      <trkpt lat="44.72339" lon="-1.20405">
        <ele>-6.11</ele>
        <time>2021-07-01T16:48:26Z</time>
      </trkpt>
      <trkpt lat="44.72348" lon="-1.204">
        <ele>-6.11</ele>
        <time>2021-07-01T16:48:27Z</time>
      </trkpt>
      <trkpt lat="44.72352" lon="-1.20391">
        <ele>-6.11</ele>
        <time>2021-07-01T16:48:28Z</time>
      </trkpt>
      <trkpt lat="44.72355" lon="-1.20381">
        <ele>-6.11</ele>
        <time>2021-07-01T16:48:29Z</time>
      </trkpt>
      <trkpt lat="44.72357" lon="-1.20372">
        <ele>-6.11</ele>
        <time>2021-07-01T16:48:30Z</time>
      </trkpt>
      <trkpt lat="44.72389" lon="-1.20262">
        <ele>-6.11</ele>
        <time>2021-07-01T16:48:42Z</time>
      </trkpt>
      <trkpt lat="44.72414" lon="-1.20195">
        <ele>-7.55</ele>
        <time>2021-07-01T16:48:48Z</time>
      </trkpt>
      <trkpt lat="44.7247" lon="-1.20119">
        <ele>-7.07</ele>
        <time>2021-07-01T16:48:58Z</time>
      </trkpt>
      <trkpt lat="44.72522" lon="-1.20063">
        <ele>-5.63</ele>
        <time>2021-07-01T16:49:08Z</time>
      </trkpt>
      <trkpt lat="44.72608" lon="-1.19982">
        <ele>-5.63</ele>
        <time>2021-07-01T16:49:18Z</time>
      </trkpt>
      <trkpt lat="44.72727" lon="-1.1985">
        <ele>-6.11</ele>
        <time>2021-07-01T16:49:32Z</time>
      </trkpt>
      <trkpt lat="44.72778" lon="-1.19791">
        <ele>-5.15</ele>
        <time>2021-07-01T16:49:43Z</time>
      </trkpt>
      <trkpt lat="44.72832" lon="-1.19735">
        <ele>-6.11</ele>
        <time>2021-07-01T16:49:52Z</time>
      </trkpt>
      <trkpt lat="44.7288" lon="-1.19692">
        <ele>-6.11</ele>
        <time>2021-07-01T16:50:01Z</time>
      </trkpt>
      <trkpt lat="44.72986" lon="-1.19621">
        <ele>-5.15</ele>
        <time>2021-07-01T16:50:12Z</time>
      </trkpt>
      <trkpt lat="44.73036" lon="-1.19605">
        <ele>-5.15</ele>
        <time>2021-07-01T16:50:16Z</time>
      </trkpt>
      <trkpt lat="44.7305" lon="-1.19604">
        <ele>-4.67</ele>
        <time>2021-07-01T16:50:17Z</time>
      </trkpt>
      <trkpt lat="44.73063" lon="-1.19603">
        <ele>-4.67</ele>
        <time>2021-07-01T16:50:18Z</time>
      </trkpt>
      <trkpt lat="44.7325" lon="-1.19628">
        <ele>0.62</ele>
        <time>2021-07-01T16:50:32Z</time>
      </trkpt>
      <trkpt lat="44.73405" lon="-1.1965">
        <ele>-5.15</ele>
        <time>2021-07-01T16:50:44Z</time>
      </trkpt>
      <trkpt lat="44.73543" lon="-1.19664">
        <ele>-1.3</ele>
        <time>2021-07-01T16:50:55Z</time>
      </trkpt>
      <trkpt lat="44.73557" lon="-1.19664">
        <ele>-0.82</ele>
        <time>2021-07-01T16:50:56Z</time>
      </trkpt>
      <trkpt lat="44.73572" lon="-1.19663">
        <ele>-0.82</ele>
        <time>2021-07-01T16:50:57Z</time>
      </trkpt>
      <trkpt lat="44.73584" lon="-1.19656">
        <ele>-1.3</ele>
        <time>2021-07-01T16:50:58Z</time>
      </trkpt>
      <trkpt lat="44.73597" lon="-1.19648">
        <ele>-1.79</ele>
        <time>2021-07-01T16:50:59Z</time>
      </trkpt>
      <trkpt lat="44.73611" lon="-1.1964">
        <ele>-2.27</ele>
        <time>2021-07-01T16:51:00Z</time>
      </trkpt>
      <trkpt lat="44.73623" lon="-1.19629">
        <ele>-1.79</ele>
        <time>2021-07-01T16:51:01Z</time>
      </trkpt>
      <trkpt lat="44.73731" lon="-1.19471">
        <ele>-5.15</ele>
        <time>2021-07-01T16:51:11Z</time>
      </trkpt>
      <trkpt lat="44.738" lon="-1.19336">
        <ele>-4.67</ele>
        <time>2021-07-01T16:51:20Z</time>
      </trkpt>
      <trkpt lat="44.73879" lon="-1.19171">
        <ele>-4.67</ele>
        <time>2021-07-01T16:51:30Z</time>
      </trkpt>
      <trkpt lat="44.73962" lon="-1.19001">
        <ele>-9</ele>
        <time>2021-07-01T16:51:40Z</time>
      </trkpt>
      <trkpt lat="44.7406" lon="-1.18791">
        <ele>-9</ele>
        <time>2021-07-01T16:51:52Z</time>
      </trkpt>
      <trkpt lat="44.74146" lon="-1.18543">
        <ele>-6.59</ele>
        <time>2021-07-01T16:52:05Z</time>
      </trkpt>
      <trkpt lat="44.74199" lon="-1.18388">
        <ele>-6.59</ele>
        <time>2021-07-01T16:52:17Z</time>
      </trkpt>
      <trkpt lat="44.74236" lon="-1.18322">
        <ele>-5.15</ele>
        <time>2021-07-01T16:52:25Z</time>
      </trkpt>
      <trkpt lat="44.74254" lon="-1.18297">
        <ele>-5.15</ele>
        <time>2021-07-01T16:52:41Z</time>
      </trkpt>
      <trkpt lat="44.74272" lon="-1.18276">
        <ele>-4.67</ele>
        <time>2021-07-01T16:52:57Z</time>
      </trkpt>
      <trkpt lat="44.74276" lon="-1.18271">
        <ele>-5.15</ele>
        <time>2021-07-01T16:53:14Z</time>
      </trkpt>
      <trkpt lat="44.74284" lon="-1.18262">
        <ele>-5.15</ele>
        <time>2021-07-01T16:53:30Z</time>
      </trkpt>
      <trkpt lat="44.743" lon="-1.18243">
        <ele>-5.15</ele>
        <time>2021-07-01T16:53:51Z</time>
      </trkpt>
      <trkpt lat="44.74307" lon="-1.18236">
        <ele>-5.15</ele>
        <time>2021-07-01T16:54:06Z</time>
      </trkpt>
      <trkpt lat="44.74319" lon="-1.18221">
        <ele>-5.15</ele>
        <time>2021-07-01T16:54:18Z</time>
      </trkpt>
      <trkpt lat="44.74329" lon="-1.18211">
        <ele>-5.15</ele>
        <time>2021-07-01T16:55:00Z</time>
      </trkpt>
      <trkpt lat="44.74346" lon="-1.18193">
        <ele>-5.63</ele>
        <time>2021-07-01T16:55:20Z</time>
      </trkpt>
      <trkpt lat="44.74352" lon="-1.18186">
        <ele>-5.63</ele>
        <time>2021-07-01T16:55:33Z</time>
      </trkpt>
      <trkpt lat="44.74369" lon="-1.18169">
        <ele>-5.63</ele>
        <time>2021-07-01T16:55:53Z</time>
      </trkpt>
      <trkpt lat="44.74391" lon="-1.18147">
        <ele>-6.11</ele>
        <time>2021-07-01T16:56:12Z</time>
      </trkpt>
      <trkpt lat="44.74412" lon="-1.18138">
        <ele>-6.59</ele>
        <time>2021-07-01T16:56:31Z</time>
      </trkpt>
      <trkpt lat="44.74438" lon="-1.18133">
        <ele>-6.11</ele>
        <time>2021-07-01T16:56:53Z</time>
      </trkpt>
      <trkpt lat="44.74459" lon="-1.18133">
        <ele>-5.63</ele>
        <time>2021-07-01T16:57:13Z</time>
      </trkpt>
      <trkpt lat="44.74476" lon="-1.18133">
        <ele>-5.15</ele>
        <time>2021-07-01T16:57:28Z</time>
      </trkpt>
      <trkpt lat="44.74497" lon="-1.18133">
        <ele>-6.59</ele>
        <time>2021-07-01T16:57:44Z</time>
      </trkpt>
      <trkpt lat="44.74499" lon="-1.18133">
        <ele>-6.11</ele>
        <time>2021-07-01T16:58:03Z</time>
      </trkpt>
      <trkpt lat="44.74499" lon="-1.18133">
        <ele>-6.11</ele>
        <time>2021-07-01T16:59:01Z</time>
      </trkpt>
      <trkpt lat="44.7453" lon="-1.18133">
        <ele>-7.07</ele>
        <time>2021-07-01T16:59:18Z</time>
      </trkpt>
      <trkpt lat="44.74555" lon="-1.18131">
        <ele>-6.11</ele>
        <time>2021-07-01T16:59:32Z</time>
      </trkpt>
      <trkpt lat="44.74568" lon="-1.1813">
        <ele>-6.11</ele>
        <time>2021-07-01T16:59:46Z</time>
      </trkpt>
      <trkpt lat="44.74582" lon="-1.18128">
        <ele>-6.11</ele>
        <time>2021-07-01T17:00:00Z</time>
      </trkpt>
      <trkpt lat="44.74582" lon="-1.18128">
        <ele>-6.11</ele>
        <time>2021-07-01T17:00:24Z</time>
      </trkpt>
      <trkpt lat="44.74601" lon="-1.18126">
        <ele>-5.63</ele>
        <time>2021-07-01T17:00:59Z</time>
      </trkpt>
      <trkpt lat="44.74614" lon="-1.18125">
        <ele>-5.63</ele>
        <time>2021-07-01T17:01:14Z</time>
      </trkpt>
      <trkpt lat="44.74614" lon="-1.18125">
        <ele>-5.63</ele>
        <time>2021-07-01T17:01:30Z</time>
      </trkpt>
      <trkpt lat="44.74614" lon="-1.18125">
        <ele>-5.63</ele>
        <time>2021-07-01T17:01:31Z</time>
      </trkpt>
      <trkpt lat="44.74644" lon="-1.18121">
        <ele>-6.59</ele>
        <time>2021-07-01T17:01:47Z</time>
      </trkpt>
      <trkpt lat="44.74658" lon="-1.18119">
        <ele>-8.03</ele>
        <time>2021-07-01T17:02:17Z</time>
      </trkpt>
      <trkpt lat="44.74665" lon="-1.18119">
        <ele>-7.55</ele>
        <time>2021-07-01T17:02:52Z</time>
      </trkpt>
      <trkpt lat="44.74684" lon="-1.18116">
        <ele>-7.55</ele>
        <time>2021-07-01T17:03:08Z</time>
      </trkpt>
      <trkpt lat="44.74708" lon="-1.18113">
        <ele>-7.55</ele>
        <time>2021-07-01T17:03:28Z</time>
      </trkpt>
      <trkpt lat="44.74723" lon="-1.18112">
        <ele>-7.55</ele>
        <time>2021-07-01T17:03:47Z</time>
      </trkpt>
      <trkpt lat="44.74753" lon="-1.18108">
        <ele>-8.03</ele>
        <time>2021-07-01T17:04:02Z</time>
      </trkpt>
      <trkpt lat="44.74786" lon="-1.18105">
        <ele>-9.96</ele>
        <time>2021-07-01T17:04:16Z</time>
      </trkpt>
      <trkpt lat="44.74814" lon="-1.18101">
        <ele>-8.03</ele>
        <time>2021-07-01T17:04:29Z</time>
      </trkpt>
      <trkpt lat="44.74824" lon="-1.181">
        <ele>-8.03</ele>
        <time>2021-07-01T17:04:43Z</time>
      </trkpt>
      <trkpt lat="44.74846" lon="-1.18097">
        <ele>-7.55</ele>
        <time>2021-07-01T17:04:58Z</time>
      </trkpt>
      <trkpt lat="44.74866" lon="-1.18095">
        <ele>-7.07</ele>
        <time>2021-07-01T17:05:12Z</time>
      </trkpt>
      <trkpt lat="44.74901" lon="-1.18091">
        <ele>-2.75</ele>
        <time>2021-07-01T17:05:34Z</time>
      </trkpt>
      <trkpt lat="44.74913" lon="-1.1809">
        <ele>-0.82</ele>
        <time>2021-07-01T17:05:51Z</time>
      </trkpt>
      <trkpt lat="44.74913" lon="-1.1809">
        <ele>-0.34</ele>
        <time>2021-07-01T17:06:08Z</time>
      </trkpt>
      <trkpt lat="44.74948" lon="-1.18087">
        <ele>1.1</ele>
        <time>2021-07-01T17:06:26Z</time>
      </trkpt>
      <trkpt lat="44.7498" lon="-1.18084">
        <ele>1.58</ele>
        <time>2021-07-01T17:06:48Z</time>
      </trkpt>
      <trkpt lat="44.74983" lon="-1.18083">
        <ele>-0.82</ele>
        <time>2021-07-01T17:07:08Z</time>
      </trkpt>
      <trkpt lat="44.74998" lon="-1.18082">
        <ele>-0.82</ele>
        <time>2021-07-01T17:07:59Z</time>
      </trkpt>
      <trkpt lat="44.75005" lon="-1.18081">
        <ele>-0.82</ele>
        <time>2021-07-01T17:08:16Z</time>
      </trkpt>
      <trkpt lat="44.75023" lon="-1.18079">
        <ele>-0.82</ele>
        <time>2021-07-01T17:08:33Z</time>
      </trkpt>
      <trkpt lat="44.75047" lon="-1.18077">
        <ele>-1.79</ele>
        <time>2021-07-01T17:08:48Z</time>
      </trkpt>
      <trkpt lat="44.75047" lon="-1.18077">
        <ele>-1.79</ele>
        <time>2021-07-01T17:09:14Z</time>
      </trkpt>
      <trkpt lat="44.75047" lon="-1.18077">
        <ele>-1.79</ele>
        <time>2021-07-01T17:09:31Z</time>
      </trkpt>
      <trkpt lat="44.75061" lon="-1.18076">
        <ele>-1.79</ele>
        <time>2021-07-01T17:10:18Z</time>
      </trkpt>
      <trkpt lat="44.75071" lon="-1.18075">
        <ele>-1.79</ele>
        <time>2021-07-01T17:10:32Z</time>
      </trkpt>
      <trkpt lat="44.75071" lon="-1.18075">
        <ele>-1.79</ele>
        <time>2021-07-01T17:10:49Z</time>
      </trkpt>
      <trkpt lat="44.7508" lon="-1.18074">
        <ele>-2.27</ele>
        <time>2021-07-01T17:11:24Z</time>
      </trkpt>
      <trkpt lat="44.75084" lon="-1.18073">
        <ele>-2.75</ele>
        <time>2021-07-01T17:11:37Z</time>
      </trkpt>
      <trkpt lat="44.75087" lon="-1.18073">
        <ele>-2.27</ele>
        <time>2021-07-01T17:11:49Z</time>
      </trkpt>
      <trkpt lat="44.75087" lon="-1.18073">
        <ele>-2.27</ele>
        <time>2021-07-01T17:12:32Z</time>
      </trkpt>
      <trkpt lat="44.75105" lon="-1.1803">
        <ele>-3.23</ele>
        <time>2021-07-01T17:12:43Z</time>
      </trkpt>
      <trkpt lat="44.75072" lon="-1.18027">
        <ele>-4.19</ele>
        <time>2021-07-01T17:12:58Z</time>
      </trkpt>
      <trkpt lat="44.7507" lon="-1.18037">
        <ele>-5.15</ele>
        <time>2021-07-01T17:13:11Z</time>
      </trkpt>
      <trkpt lat="44.75071" lon="-1.18039">
        <ele>-5.15</ele>
        <time>2021-07-01T17:13:35Z</time>
      </trkpt>
      <trkpt lat="44.75073" lon="-1.1804">
        <ele>-5.15</ele>
        <time>2021-07-01T17:15:15Z</time>
      </trkpt>
      <trkpt lat="44.75073" lon="-1.18041">
        <ele>-5.63</ele>
        <time>2021-07-01T17:16:06Z</time>
      </trkpt>
      <trkpt lat="44.75073" lon="-1.18041">
        <ele>-5.63</ele>
        <time>2021-07-01T17:17:17Z</time>
      </trkpt>
      <trkpt lat="44.75075" lon="-1.18033">
        <ele>-0.34</ele>
        <time>2021-07-01T17:17:47Z</time>
      </trkpt>
      <trkpt lat="44.75076" lon="-1.18032">
        <ele>-0.34</ele>
        <time>2021-07-01T17:17:54Z</time>
      </trkpt>
      <trkpt lat="44.75081" lon="-1.18032">
        <ele>-0.34</ele>
        <time>2021-07-01T17:17:58Z</time>
      </trkpt>
      <trkpt lat="44.75108" lon="-1.18034">
        <ele>-2.27</ele>
        <time>2021-07-01T17:18:11Z</time>
      </trkpt>
      <trkpt lat="44.75109" lon="-1.18034">
        <ele>-3.23</ele>
        <time>2021-07-01T17:18:12Z</time>
      </trkpt>
      <trkpt lat="44.7511" lon="-1.18034">
        <ele>-3.71</ele>
        <time>2021-07-01T17:18:13Z</time>
      </trkpt>
      <trkpt lat="44.75106" lon="-1.18045">
        <ele>-4.67</ele>
        <time>2021-07-01T17:18:28Z</time>
      </trkpt>
      <trkpt lat="44.75112" lon="-1.18059">
        <ele>-6.11</ele>
        <time>2021-07-01T17:18:43Z</time>
      </trkpt>
      <trkpt lat="44.75123" lon="-1.1806">
        <ele>-6.59</ele>
        <time>2021-07-01T17:18:57Z</time>
      </trkpt>
      <trkpt lat="44.75143" lon="-1.18062">
        <ele>-8.03</ele>
        <time>2021-07-01T17:19:13Z</time>
      </trkpt>
      <trkpt lat="44.75176" lon="-1.18059">
        <ele>-10.92</ele>
        <time>2021-07-01T17:19:32Z</time>
      </trkpt>
      <trkpt lat="44.7519" lon="-1.18058">
        <ele>-11.88</ele>
        <time>2021-07-01T17:19:45Z</time>
      </trkpt>
      <trkpt lat="44.75205" lon="-1.18057">
        <ele>-12.36</ele>
        <time>2021-07-01T17:20:00Z</time>
      </trkpt>
      <trkpt lat="44.75225" lon="-1.18055">
        <ele>-11.88</ele>
        <time>2021-07-01T17:20:18Z</time>
      </trkpt>
      <trkpt lat="44.75253" lon="-1.18051">
        <ele>-11.4</ele>
        <time>2021-07-01T17:20:36Z</time>
      </trkpt>
      <trkpt lat="44.75278" lon="-1.18048">
        <ele>-11.88</ele>
        <time>2021-07-01T17:20:52Z</time>
      </trkpt>
      <trkpt lat="44.75284" lon="-1.18047">
        <ele>-11.4</ele>
        <time>2021-07-01T17:21:12Z</time>
      </trkpt>
      <trkpt lat="44.75299" lon="-1.18045">
        <ele>-11.4</ele>
        <time>2021-07-01T17:21:23Z</time>
      </trkpt>
      <trkpt lat="44.75324" lon="-1.18042">
        <ele>-11.4</ele>
        <time>2021-07-01T17:21:44Z</time>
      </trkpt>
      <trkpt lat="44.75324" lon="-1.18042">
        <ele>-11.88</ele>
        <time>2021-07-01T17:22:09Z</time>
      </trkpt>
      <trkpt lat="44.75347" lon="-1.18039">
        <ele>-12.36</ele>
        <time>2021-07-01T17:22:23Z</time>
      </trkpt>
      <trkpt lat="44.7538" lon="-1.18035">
        <ele>-13.32</ele>
        <time>2021-07-01T17:22:39Z</time>
      </trkpt>
      <trkpt lat="44.75413" lon="-1.18031">
        <ele>-14.28</ele>
        <time>2021-07-01T17:22:55Z</time>
      </trkpt>
      <trkpt lat="44.75443" lon="-1.18027">
        <ele>-10.44</ele>
        <time>2021-07-01T17:23:16Z</time>
      </trkpt>
      <trkpt lat="44.75443" lon="-1.18027">
        <ele>-9.96</ele>
        <time>2021-07-01T17:23:41Z</time>
      </trkpt>
      <trkpt lat="44.75464" lon="-1.18025">
        <ele>-10.44</ele>
        <time>2021-07-01T17:24:07Z</time>
      </trkpt>
      <trkpt lat="44.755" lon="-1.18019">
        <ele>-10.44</ele>
        <time>2021-07-01T17:24:31Z</time>
      </trkpt>
      <trkpt lat="44.75532" lon="-1.18016">
        <ele>-10.44</ele>
        <time>2021-07-01T17:24:44Z</time>
      </trkpt>
      <trkpt lat="44.75588" lon="-1.1801">
        <ele>-8.51</ele>
        <time>2021-07-01T17:25:05Z</time>
      </trkpt>
      <trkpt lat="44.75601" lon="-1.18009">
        <ele>-8.51</ele>
        <time>2021-07-01T17:25:21Z</time>
      </trkpt>
      <trkpt lat="44.75621" lon="-1.18007">
        <ele>-8.51</ele>
        <time>2021-07-01T17:25:47Z</time>
      </trkpt>
      <trkpt lat="44.75658" lon="-1.18007">
        <ele>-8.03</ele>
        <time>2021-07-01T17:26:01Z</time>
      </trkpt>
      <trkpt lat="44.75697" lon="-1.18007">
        <ele>-7.55</ele>
        <time>2021-07-01T17:26:13Z</time>
      </trkpt>
      <trkpt lat="44.75709" lon="-1.18007">
        <ele>-7.07</ele>
        <time>2021-07-01T17:26:25Z</time>
      </trkpt>
      <trkpt lat="44.75734" lon="-1.18007">
        <ele>-6.59</ele>
        <time>2021-07-01T17:27:20Z</time>
      </trkpt>
      <trkpt lat="44.75832" lon="-1.18004">
        <ele>-6.59</ele>
        <time>2021-07-01T17:27:32Z</time>
      </trkpt>
      <trkpt lat="44.75968" lon="-1.1801">
        <ele>-1.79</ele>
        <time>2021-07-01T17:27:46Z</time>
      </trkpt>
      <trkpt lat="44.76136" lon="-1.18025">
        <ele>-0.82</ele>
        <time>2021-07-01T17:28:00Z</time>
      </trkpt>
      <trkpt lat="44.76308" lon="-1.18042">
        <ele>1.58</ele>
        <time>2021-07-01T17:28:11Z</time>
      </trkpt>
      <trkpt lat="44.76354" lon="-1.18035">
        <ele>2.54</ele>
        <time>2021-07-01T17:28:14Z</time>
      </trkpt>
      <trkpt lat="44.76369" lon="-1.18028">
        <ele>2.54</ele>
        <time>2021-07-01T17:28:15Z</time>
      </trkpt>
      <trkpt lat="44.76384" lon="-1.18022">
        <ele>1.58</ele>
        <time>2021-07-01T17:28:16Z</time>
      </trkpt>
      <trkpt lat="44.76522" lon="-1.17905">
        <ele>4.94</ele>
        <time>2021-07-01T17:28:25Z</time>
      </trkpt>
      <trkpt lat="44.76714" lon="-1.1772">
        <ele>3.02</ele>
        <time>2021-07-01T17:28:39Z</time>
      </trkpt>
      <trkpt lat="44.76958" lon="-1.17486">
        <ele>3.02</ele>
        <time>2021-07-01T17:28:54Z</time>
      </trkpt>
      <trkpt lat="44.77175" lon="-1.17278">
        <ele>3.02</ele>
        <time>2021-07-01T17:29:08Z</time>
      </trkpt>
      <trkpt lat="44.77494" lon="-1.16972">
        <ele>3.5</ele>
        <time>2021-07-01T17:29:30Z</time>
      </trkpt>
      <trkpt lat="44.77606" lon="-1.16864">
        <ele>2.06</ele>
        <time>2021-07-01T17:29:39Z</time>
      </trkpt>
      <trkpt lat="44.77755" lon="-1.16724">
        <ele>3.02</ele>
        <time>2021-07-01T17:29:51Z</time>
      </trkpt>
      <trkpt lat="44.77796" lon="-1.16682">
        <ele>3.5</ele>
        <time>2021-07-01T17:29:57Z</time>
      </trkpt>
      <trkpt lat="44.77799" lon="-1.16666">
        <ele>3.5</ele>
        <time>2021-07-01T17:30:00Z</time>
      </trkpt>
      <trkpt lat="44.778" lon="-1.16659">
        <ele>3.5</ele>
        <time>2021-07-01T17:30:01Z</time>
      </trkpt>
      <trkpt lat="44.77803" lon="-1.1665">
        <ele>3.98</ele>
        <time>2021-07-01T17:30:02Z</time>
      </trkpt>
      <trkpt lat="44.7781" lon="-1.16643">
        <ele>3.98</ele>
        <time>2021-07-01T17:30:03Z</time>
      </trkpt>
      <trkpt lat="44.77817" lon="-1.1664">
        <ele>3.98</ele>
        <time>2021-07-01T17:30:04Z</time>
      </trkpt>
      <trkpt lat="44.77836" lon="-1.16638">
        <ele>3.98</ele>
        <time>2021-07-01T17:30:05Z</time>
      </trkpt>
      <trkpt lat="44.77836" lon="-1.16638">
        <ele>3.5</ele>
        <time>2021-07-01T17:30:06Z</time>
      </trkpt>
      <trkpt lat="44.77916" lon="-1.1654">
        <ele>3.98</ele>
        <time>2021-07-01T17:30:14Z</time>
      </trkpt>
      <trkpt lat="44.78029" lon="-1.16369">
        <ele>4.46</ele>
        <time>2021-07-01T17:30:23Z</time>
      </trkpt>
      <trkpt lat="44.78118" lon="-1.16152">
        <ele>4.94</ele>
        <time>2021-07-01T17:30:33Z</time>
      </trkpt>
      <trkpt lat="44.7818" lon="-1.15867">
        <ele>2.54</ele>
        <time>2021-07-01T17:30:45Z</time>
      </trkpt>
      <trkpt lat="44.78203" lon="-1.15548">
        <ele>3.5</ele>
        <time>2021-07-01T17:30:57Z</time>
      </trkpt>
      <trkpt lat="44.78224" lon="-1.15081">
        <ele>4.46</ele>
        <time>2021-07-01T17:31:12Z</time>
      </trkpt>
      <trkpt lat="44.78228" lon="-1.14809">
        <ele>6.39</ele>
        <time>2021-07-01T17:31:23Z</time>
      </trkpt>
      <trkpt lat="44.78206" lon="-1.14609">
        <ele>8.79</ele>
        <time>2021-07-01T17:31:32Z</time>
      </trkpt>
      <trkpt lat="44.78128" lon="-1.14425">
        <ele>4.46</ele>
        <time>2021-07-01T17:31:43Z</time>
      </trkpt>
      <trkpt lat="44.78117" lon="-1.14367">
        <ele>4.46</ele>
        <time>2021-07-01T17:31:49Z</time>
      </trkpt>
      <trkpt lat="44.7811" lon="-1.14354">
        <ele>4.46</ele>
        <time>2021-07-01T17:31:52Z</time>
      </trkpt>
      <trkpt lat="44.7811" lon="-1.14354">
        <ele>4.46</ele>
        <time>2021-07-01T17:31:53Z</time>
      </trkpt>
      <trkpt lat="44.78109" lon="-1.14352">
        <ele>4.46</ele>
        <time>2021-07-01T17:31:54Z</time>
      </trkpt>
      <trkpt lat="44.781" lon="-1.14346">
        <ele>4.46</ele>
        <time>2021-07-01T17:31:55Z</time>
      </trkpt>
      <trkpt lat="44.78093" lon="-1.14346">
        <ele>4.46</ele>
        <time>2021-07-01T17:31:56Z</time>
      </trkpt>
      <trkpt lat="44.78085" lon="-1.14347">
        <ele>3.98</ele>
        <time>2021-07-01T17:31:57Z</time>
      </trkpt>
      <trkpt lat="44.77967" lon="-1.14348">
        <ele>2.06</ele>
        <time>2021-07-01T17:32:07Z</time>
      </trkpt>
      <trkpt lat="44.77849" lon="-1.1432">
        <ele>4.46</ele>
        <time>2021-07-01T17:32:17Z</time>
      </trkpt>
      <trkpt lat="44.77714" lon="-1.14248">
        <ele>5.91</ele>
        <time>2021-07-01T17:32:28Z</time>
      </trkpt>
      <trkpt lat="44.77576" lon="-1.14169">
        <ele>4.46</ele>
        <time>2021-07-01T17:32:41Z</time>
      </trkpt>
      <trkpt lat="44.77563" lon="-1.14155">
        <ele>4.94</ele>
        <time>2021-07-01T17:32:43Z</time>
      </trkpt>
      <trkpt lat="44.77562" lon="-1.14153">
        <ele>4.94</ele>
        <time>2021-07-01T17:32:44Z</time>
      </trkpt>
      <trkpt lat="44.77455" lon="-1.14122">
        <ele>3.98</ele>
        <time>2021-07-01T17:32:57Z</time>
      </trkpt>
      <trkpt lat="44.7737" lon="-1.14118">
        <ele>2.54</ele>
        <time>2021-07-01T17:33:07Z</time>
      </trkpt>
      <trkpt lat="44.77221" lon="-1.14132">
        <ele>2.54</ele>
        <time>2021-07-01T17:33:21Z</time>
      </trkpt>
      <trkpt lat="44.77109" lon="-1.14113">
        <ele>3.02</ele>
        <time>2021-07-01T17:33:33Z</time>
      </trkpt>
      <trkpt lat="44.77031" lon="-1.14081">
        <ele>5.42</ele>
        <time>2021-07-01T17:33:44Z</time>
      </trkpt>
      <trkpt lat="44.77022" lon="-1.14077">
        <ele>5.42</ele>
        <time>2021-07-01T17:33:50Z</time>
      </trkpt>
      <trkpt lat="44.76966" lon="-1.14061">
        <ele>4.46</ele>
        <time>2021-07-01T17:33:58Z</time>
      </trkpt>
      <trkpt lat="44.76865" lon="-1.14038">
        <ele>3.98</ele>
        <time>2021-07-01T17:34:12Z</time>
      </trkpt>
      <trkpt lat="44.7678" lon="-1.14013">
        <ele>4.94</ele>
        <time>2021-07-01T17:34:26Z</time>
      </trkpt>
      <trkpt lat="44.76752" lon="-1.14025">
        <ele>5.42</ele>
        <time>2021-07-01T17:34:34Z</time>
      </trkpt>
      <trkpt lat="44.76736" lon="-1.1403">
        <ele>5.42</ele>
        <time>2021-07-01T17:34:38Z</time>
      </trkpt>
      <trkpt lat="44.76736" lon="-1.1403">
        <ele>5.42</ele>
        <time>2021-07-01T17:34:39Z</time>
      </trkpt>
      <trkpt lat="44.76732" lon="-1.1403">
        <ele>5.91</ele>
        <time>2021-07-01T17:34:40Z</time>
      </trkpt>
      <trkpt lat="44.76728" lon="-1.14028">
        <ele>6.39</ele>
        <time>2021-07-01T17:34:41Z</time>
      </trkpt>
      <trkpt lat="44.76724" lon="-1.14026">
        <ele>7.35</ele>
        <time>2021-07-01T17:34:42Z</time>
      </trkpt>
      <trkpt lat="44.76719" lon="-1.14023">
        <ele>7.83</ele>
        <time>2021-07-01T17:34:43Z</time>
      </trkpt>
      <trkpt lat="44.76716" lon="-1.14019">
        <ele>7.35</ele>
        <time>2021-07-01T17:34:44Z</time>
      </trkpt>
      <trkpt lat="44.76712" lon="-1.14004">
        <ele>7.35</ele>
        <time>2021-07-01T17:34:45Z</time>
      </trkpt>
      <trkpt lat="44.76711" lon="-1.13996">
        <ele>7.35</ele>
        <time>2021-07-01T17:34:46Z</time>
      </trkpt>
      <trkpt lat="44.76704" lon="-1.13962">
        <ele>6.87</ele>
        <time>2021-07-01T17:34:52Z</time>
      </trkpt>
      <trkpt lat="44.76698" lon="-1.13951">
        <ele>6.87</ele>
        <time>2021-07-01T17:34:53Z</time>
      </trkpt>
      <trkpt lat="44.76692" lon="-1.13939">
        <ele>6.87</ele>
        <time>2021-07-01T17:34:54Z</time>
      </trkpt>
      <trkpt lat="44.76692" lon="-1.13939">
        <ele>6.87</ele>
        <time>2021-07-01T17:34:55Z</time>
      </trkpt>
      <trkpt lat="44.76686" lon="-1.13927">
        <ele>6.87</ele>
        <time>2021-07-01T17:34:56Z</time>
      </trkpt>
      <trkpt lat="44.76597" lon="-1.13864">
        <ele>5.91</ele>
        <time>2021-07-01T17:35:08Z</time>
      </trkpt>
      <trkpt lat="44.7659" lon="-1.13856">
        <ele>5.42</ele>
        <time>2021-07-01T17:35:09Z</time>
      </trkpt>
      <trkpt lat="44.76583" lon="-1.13847">
        <ele>4.94</ele>
        <time>2021-07-01T17:35:10Z</time>
      </trkpt>
      <trkpt lat="44.76577" lon="-1.1384">
        <ele>4.94</ele>
        <time>2021-07-01T17:35:11Z</time>
      </trkpt>
      <trkpt lat="44.76571" lon="-1.13833">
        <ele>4.46</ele>
        <time>2021-07-01T17:35:12Z</time>
      </trkpt>
      <trkpt lat="44.76563" lon="-1.13815">
        <ele>3.98</ele>
        <time>2021-07-01T17:35:13Z</time>
      </trkpt>
      <trkpt lat="44.76563" lon="-1.13815">
        <ele>3.98</ele>
        <time>2021-07-01T17:35:14Z</time>
      </trkpt>
      <trkpt lat="44.76517" lon="-1.13662">
        <ele>2.06</ele>
        <time>2021-07-01T17:35:27Z</time>
      </trkpt>
      <trkpt lat="44.76496" lon="-1.13598">
        <ele>2.54</ele>
        <time>2021-07-01T17:35:33Z</time>
      </trkpt>
      <trkpt lat="44.76492" lon="-1.13587">
        <ele>2.54</ele>
        <time>2021-07-01T17:35:34Z</time>
      </trkpt>
      <trkpt lat="44.76378" lon="-1.13422">
        <ele>2.54</ele>
        <time>2021-07-01T17:35:49Z</time>
      </trkpt>
      <trkpt lat="44.76307" lon="-1.13303">
        <ele>3.98</ele>
        <time>2021-07-01T17:36:01Z</time>
      </trkpt>
      <trkpt lat="44.76285" lon="-1.13249">
        <ele>3.5</ele>
        <time>2021-07-01T17:36:10Z</time>
      </trkpt>
      <trkpt lat="44.76276" lon="-1.13243">
        <ele>3.5</ele>
        <time>2021-07-01T17:36:11Z</time>
      </trkpt>
      <trkpt lat="44.76243" lon="-1.1313">
        <ele>3.02</ele>
        <time>2021-07-01T17:36:26Z</time>
      </trkpt>
      <trkpt lat="44.76196" lon="-1.12998">
        <ele>3.02</ele>
        <time>2021-07-01T17:36:42Z</time>
      </trkpt>
      <trkpt lat="44.7618" lon="-1.12954">
        <ele>3.5</ele>
        <time>2021-07-01T17:36:48Z</time>
      </trkpt>
      <trkpt lat="44.76178" lon="-1.12948">
        <ele>3.5</ele>
        <time>2021-07-01T17:36:49Z</time>
      </trkpt>
      <trkpt lat="44.76169" lon="-1.12943">
        <ele>3.5</ele>
        <time>2021-07-01T17:36:50Z</time>
      </trkpt>
      <trkpt lat="44.76164" lon="-1.12943">
        <ele>3.98</ele>
        <time>2021-07-01T17:36:51Z</time>
      </trkpt>
      <trkpt lat="44.76158" lon="-1.12939">
        <ele>3.98</ele>
        <time>2021-07-01T17:36:52Z</time>
      </trkpt>
      <trkpt lat="44.76154" lon="-1.12933">
        <ele>3.98</ele>
        <time>2021-07-01T17:36:53Z</time>
      </trkpt>
      <trkpt lat="44.76152" lon="-1.12925">
        <ele>3.98</ele>
        <time>2021-07-01T17:36:54Z</time>
      </trkpt>
      <trkpt lat="44.76152" lon="-1.12916">
        <ele>3.98</ele>
        <time>2021-07-01T17:36:55Z</time>
      </trkpt>
      <trkpt lat="44.76152" lon="-1.1291">
        <ele>3.98</ele>
        <time>2021-07-01T17:36:56Z</time>
      </trkpt>
      <trkpt lat="44.76152" lon="-1.1291">
        <ele>3.98</ele>
        <time>2021-07-01T17:36:57Z</time>
      </trkpt>
      <trkpt lat="44.76154" lon="-1.12885">
        <ele>3.5</ele>
        <time>2021-07-01T17:36:58Z</time>
      </trkpt>
      <trkpt lat="44.7615" lon="-1.12875">
        <ele>3.5</ele>
        <time>2021-07-01T17:36:59Z</time>
      </trkpt>
      <trkpt lat="44.76105" lon="-1.12747">
        <ele>2.54</ele>
        <time>2021-07-01T17:37:09Z</time>
      </trkpt>
      <trkpt lat="44.76029" lon="-1.1253">
        <ele>3.5</ele>
        <time>2021-07-01T17:37:23Z</time>
      </trkpt>
      <trkpt lat="44.7594" lon="-1.12289">
        <ele>3.02</ele>
        <time>2021-07-01T17:37:38Z</time>
      </trkpt>
      <trkpt lat="44.75864" lon="-1.12078">
        <ele>3.02</ele>
        <time>2021-07-01T17:37:50Z</time>
      </trkpt>
      <trkpt lat="44.75792" lon="-1.11884">
        <ele>3.98</ele>
        <time>2021-07-01T17:38:02Z</time>
      </trkpt>
      <trkpt lat="44.75784" lon="-1.11864">
        <ele>3.5</ele>
        <time>2021-07-01T17:38:04Z</time>
      </trkpt>
      <trkpt lat="44.75781" lon="-1.11856">
        <ele>3.5</ele>
        <time>2021-07-01T17:38:05Z</time>
      </trkpt>
      <trkpt lat="44.75767" lon="-1.1185">
        <ele>3.02</ele>
        <time>2021-07-01T17:38:07Z</time>
      </trkpt>
      <trkpt lat="44.75763" lon="-1.11845">
        <ele>3.02</ele>
        <time>2021-07-01T17:38:08Z</time>
      </trkpt>
      <trkpt lat="44.75762" lon="-1.11834">
        <ele>3.02</ele>
        <time>2021-07-01T17:38:09Z</time>
      </trkpt>
      <trkpt lat="44.75767" lon="-1.11815">
        <ele>3.5</ele>
        <time>2021-07-01T17:38:11Z</time>
      </trkpt>
      <trkpt lat="44.75764" lon="-1.11806">
        <ele>3.5</ele>
        <time>2021-07-01T17:38:12Z</time>
      </trkpt>
      <trkpt lat="44.75734" lon="-1.11717">
        <ele>1.58</ele>
        <time>2021-07-01T17:38:19Z</time>
      </trkpt>
      <trkpt lat="44.75658" lon="-1.1151">
        <ele>0.14</ele>
        <time>2021-07-01T17:38:30Z</time>
      </trkpt>
      <trkpt lat="44.7561" lon="-1.11402">
        <ele>1.58</ele>
        <time>2021-07-01T17:38:35Z</time>
      </trkpt>
      <trkpt lat="44.75599" lon="-1.11387">
        <ele>2.06</ele>
        <time>2021-07-01T17:38:36Z</time>
      </trkpt>
      <trkpt lat="44.75587" lon="-1.11374">
        <ele>2.06</ele>
        <time>2021-07-01T17:38:37Z</time>
      </trkpt>
      <trkpt lat="44.75429" lon="-1.11218">
        <ele>2.06</ele>
        <time>2021-07-01T17:38:51Z</time>
      </trkpt>
      <trkpt lat="44.75309" lon="-1.111">
        <ele>2.54</ele>
        <time>2021-07-01T17:39:02Z</time>
      </trkpt>
      <trkpt lat="44.7519" lon="-1.10985">
        <ele>4.46</ele>
        <time>2021-07-01T17:39:14Z</time>
      </trkpt>
      <trkpt lat="44.75048" lon="-1.10846">
        <ele>5.42</ele>
        <time>2021-07-01T17:39:29Z</time>
      </trkpt>
      <trkpt lat="44.74965" lon="-1.10763">
        <ele>3.5</ele>
        <time>2021-07-01T17:39:41Z</time>
      </trkpt>
      <trkpt lat="44.74887" lon="-1.10689">
        <ele>3.98</ele>
        <time>2021-07-01T17:39:54Z</time>
      </trkpt>
      <trkpt lat="44.74883" lon="-1.10686">
        <ele>3.98</ele>
        <time>2021-07-01T17:39:55Z</time>
      </trkpt>
      <trkpt lat="44.7488" lon="-1.10684">
        <ele>3.98</ele>
        <time>2021-07-01T17:39:56Z</time>
      </trkpt>
      <trkpt lat="44.74872" lon="-1.10692">
        <ele>3.98</ele>
        <time>2021-07-01T17:39:58Z</time>
      </trkpt>
      <trkpt lat="44.74862" lon="-1.10694">
        <ele>3.98</ele>
        <time>2021-07-01T17:39:59Z</time>
      </trkpt>
      <trkpt lat="44.74856" lon="-1.10691">
        <ele>3.98</ele>
        <time>2021-07-01T17:40:00Z</time>
      </trkpt>
      <trkpt lat="44.74856" lon="-1.10691">
        <ele>3.98</ele>
        <time>2021-07-01T17:40:01Z</time>
      </trkpt>
      <trkpt lat="44.74851" lon="-1.10679">
        <ele>3.98</ele>
        <time>2021-07-01T17:40:02Z</time>
      </trkpt>
      <trkpt lat="44.74851" lon="-1.10679">
        <ele>3.98</ele>
        <time>2021-07-01T17:40:03Z</time>
      </trkpt>
      <trkpt lat="44.7485" lon="-1.10674">
        <ele>3.5</ele>
        <time>2021-07-01T17:40:04Z</time>
      </trkpt>
      <trkpt lat="44.74852" lon="-1.10664">
        <ele>3.5</ele>
        <time>2021-07-01T17:40:05Z</time>
      </trkpt>
      <trkpt lat="44.74852" lon="-1.10664">
        <ele>3.02</ele>
        <time>2021-07-01T17:40:06Z</time>
      </trkpt>
      <trkpt lat="44.74843" lon="-1.10642">
        <ele>3.02</ele>
        <time>2021-07-01T17:40:07Z</time>
      </trkpt>
      <trkpt lat="44.74843" lon="-1.10642">
        <ele>3.02</ele>
        <time>2021-07-01T17:40:08Z</time>
      </trkpt>
      <trkpt lat="44.74838" lon="-1.10637">
        <ele>3.02</ele>
        <time>2021-07-01T17:40:09Z</time>
      </trkpt>
      <trkpt lat="44.74751" lon="-1.10554">
        <ele>2.06</ele>
        <time>2021-07-01T17:40:21Z</time>
      </trkpt>
      <trkpt lat="44.74677" lon="-1.10482">
        <ele>2.06</ele>
        <time>2021-07-01T17:40:31Z</time>
      </trkpt>
      <trkpt lat="44.74603" lon="-1.10408">
        <ele>2.06</ele>
        <time>2021-07-01T17:40:42Z</time>
      </trkpt>
      <trkpt lat="44.74495" lon="-1.10306">
        <ele>3.5</ele>
        <time>2021-07-01T17:40:57Z</time>
      </trkpt>
      <trkpt lat="44.74478" lon="-1.10288">
        <ele>3.5</ele>
        <time>2021-07-01T17:41:05Z</time>
      </trkpt>
      <trkpt lat="44.74462" lon="-1.10272">
        <ele>3.02</ele>
        <time>2021-07-01T17:41:38Z</time>
      </trkpt>
      <trkpt lat="44.74396" lon="-1.10202">
        <ele>2.54</ele>
        <time>2021-07-01T17:41:49Z</time>
      </trkpt>
      <trkpt lat="44.74356" lon="-1.10141">
        <ele>1.1</ele>
        <time>2021-07-01T17:42:00Z</time>
      </trkpt>
      <trkpt lat="44.74343" lon="-1.10119">
        <ele>2.06</ele>
        <time>2021-07-01T17:42:06Z</time>
      </trkpt>
      <trkpt lat="44.74327" lon="-1.10088">
        <ele>1.58</ele>
        <time>2021-07-01T17:42:17Z</time>
      </trkpt>
      <trkpt lat="44.74274" lon="-1.09985">
        <ele>1.58</ele>
        <time>2021-07-01T17:42:34Z</time>
      </trkpt>
      <trkpt lat="44.74228" lon="-1.09896">
        <ele>1.58</ele>
        <time>2021-07-01T17:42:49Z</time>
      </trkpt>
      <trkpt lat="44.742" lon="-1.09848">
        <ele>1.58</ele>
        <time>2021-07-01T17:43:01Z</time>
      </trkpt>
      <trkpt lat="44.74176" lon="-1.09795">
        <ele>1.58</ele>
        <time>2021-07-01T17:43:14Z</time>
      </trkpt>
      <trkpt lat="44.7414" lon="-1.09726">
        <ele>1.58</ele>
        <time>2021-07-01T17:43:29Z</time>
      </trkpt>
      <trkpt lat="44.74089" lon="-1.09626">
        <ele>2.06</ele>
        <time>2021-07-01T17:43:42Z</time>
      </trkpt>
      <trkpt lat="44.74042" lon="-1.09536">
        <ele>1.58</ele>
        <time>2021-07-01T17:43:55Z</time>
      </trkpt>
      <trkpt lat="44.74038" lon="-1.09527">
        <ele>2.54</ele>
        <time>2021-07-01T17:44:02Z</time>
      </trkpt>
      <trkpt lat="44.74025" lon="-1.09502">
        <ele>1.1</ele>
        <time>2021-07-01T17:44:12Z</time>
      </trkpt>
      <trkpt lat="44.73991" lon="-1.09437">
        <ele>0.14</ele>
        <time>2021-07-01T17:44:24Z</time>
      </trkpt>
      <trkpt lat="44.73988" lon="-1.0943">
        <ele>1.58</ele>
        <time>2021-07-01T17:44:33Z</time>
      </trkpt>
      <trkpt lat="44.73971" lon="-1.09397">
        <ele>1.58</ele>
        <time>2021-07-01T17:44:58Z</time>
      </trkpt>
      <trkpt lat="44.7396" lon="-1.09375">
        <ele>2.06</ele>
        <time>2021-07-01T17:45:01Z</time>
      </trkpt>
      <trkpt lat="44.73913" lon="-1.09285">
        <ele>1.58</ele>
        <time>2021-07-01T17:45:14Z</time>
      </trkpt>
      <trkpt lat="44.73862" lon="-1.09183">
        <ele>2.06</ele>
        <time>2021-07-01T17:45:25Z</time>
      </trkpt>
      <trkpt lat="44.73847" lon="-1.09156">
        <ele>2.06</ele>
        <time>2021-07-01T17:45:28Z</time>
      </trkpt>
      <trkpt lat="44.73839" lon="-1.09138">
        <ele>2.54</ele>
        <time>2021-07-01T17:45:30Z</time>
      </trkpt>
      <trkpt lat="44.73802" lon="-1.09068">
        <ele>1.1</ele>
        <time>2021-07-01T17:45:40Z</time>
      </trkpt>
      <trkpt lat="44.73795" lon="-1.09056">
        <ele>0.62</ele>
        <time>2021-07-01T17:45:41Z</time>
      </trkpt>
      <trkpt lat="44.73795" lon="-1.09056">
        <ele>0.62</ele>
        <time>2021-07-01T17:45:42Z</time>
      </trkpt>
      <trkpt lat="44.7379" lon="-1.09062">
        <ele>0.62</ele>
        <time>2021-07-01T17:45:43Z</time>
      </trkpt>
      <trkpt lat="44.73787" lon="-1.09066">
        <ele>0.62</ele>
        <time>2021-07-01T17:45:44Z</time>
      </trkpt>
      <trkpt lat="44.73782" lon="-1.0907">
        <ele>0.62</ele>
        <time>2021-07-01T17:45:45Z</time>
      </trkpt>
      <trkpt lat="44.73726" lon="-1.09125">
        <ele>-0.82</ele>
        <time>2021-07-01T17:45:56Z</time>
      </trkpt>
      <trkpt lat="44.73678" lon="-1.09179">
        <ele>-1.3</ele>
        <time>2021-07-01T17:46:09Z</time>
      </trkpt>
      <trkpt lat="44.73675" lon="-1.09183">
        <ele>-1.3</ele>
        <time>2021-07-01T17:46:10Z</time>
      </trkpt>
      <trkpt lat="44.73672" lon="-1.09186">
        <ele>-1.3</ele>
        <time>2021-07-01T17:46:11Z</time>
      </trkpt>
      <trkpt lat="44.73669" lon="-1.09189">
        <ele>-1.79</ele>
        <time>2021-07-01T17:46:12Z</time>
      </trkpt>
      <trkpt lat="44.73665" lon="-1.09194">
        <ele>-1.79</ele>
        <time>2021-07-01T17:46:13Z</time>
      </trkpt>
      <trkpt lat="44.73666" lon="-1.09199">
        <ele>-2.27</ele>
        <time>2021-07-01T17:46:14Z</time>
      </trkpt>
      <trkpt lat="44.73666" lon="-1.09204">
        <ele>-2.27</ele>
        <time>2021-07-01T17:46:15Z</time>
      </trkpt>
      <trkpt lat="44.73666" lon="-1.09213">
        <ele>-2.27</ele>
        <time>2021-07-01T17:46:16Z</time>
      </trkpt>
      <trkpt lat="44.73666" lon="-1.09213">
        <ele>-2.27</ele>
        <time>2021-07-01T17:46:17Z</time>
      </trkpt>
      <trkpt lat="44.73658" lon="-1.09215">
        <ele>-2.27</ele>
        <time>2021-07-01T17:46:18Z</time>
      </trkpt>
      <trkpt lat="44.73655" lon="-1.09213">
        <ele>-2.27</ele>
        <time>2021-07-01T17:46:19Z</time>
      </trkpt>
      <trkpt lat="44.73652" lon="-1.09211">
        <ele>-2.27</ele>
        <time>2021-07-01T17:46:20Z</time>
      </trkpt>
      <trkpt lat="44.73648" lon="-1.09215">
        <ele>-1.79</ele>
        <time>2021-07-01T17:46:21Z</time>
      </trkpt>
      <trkpt lat="44.73645" lon="-1.09217">
        <ele>-1.79</ele>
        <time>2021-07-01T17:46:22Z</time>
      </trkpt>
      <trkpt lat="44.73643" lon="-1.09219">
        <ele>-1.79</ele>
        <time>2021-07-01T17:46:23Z</time>
      </trkpt>
      <trkpt lat="44.73639" lon="-1.09222">
        <ele>-2.27</ele>
        <time>2021-07-01T17:46:24Z</time>
      </trkpt>
      <trkpt lat="44.73636" lon="-1.09225">
        <ele>-2.27</ele>
        <time>2021-07-01T17:46:25Z</time>
      </trkpt>
      <trkpt lat="44.73591" lon="-1.09264">
        <ele>-1.79</ele>
        <time>2021-07-01T17:46:39Z</time>
      </trkpt>
      <trkpt lat="44.73551" lon="-1.09303">
        <ele>-0.82</ele>
        <time>2021-07-01T17:46:53Z</time>
      </trkpt>
      <trkpt lat="44.73543" lon="-1.09309">
        <ele>-0.82</ele>
        <time>2021-07-01T17:46:54Z</time>
      </trkpt>
      <trkpt lat="44.73543" lon="-1.09309">
        <ele>-0.82</ele>
        <time>2021-07-01T17:46:55Z</time>
      </trkpt>
      <trkpt lat="44.73539" lon="-1.09312">
        <ele>-0.82</ele>
        <time>2021-07-01T17:46:56Z</time>
      </trkpt>
      <trkpt lat="44.73535" lon="-1.09315">
        <ele>-0.34</ele>
        <time>2021-07-01T17:46:57Z</time>
      </trkpt>
      <trkpt lat="44.73531" lon="-1.09316">
        <ele>-0.34</ele>
        <time>2021-07-01T17:46:58Z</time>
      </trkpt>
      <trkpt lat="44.73527" lon="-1.09316">
        <ele>-0.34</ele>
        <time>2021-07-01T17:46:59Z</time>
      </trkpt>
      <trkpt lat="44.73523" lon="-1.09315">
        <ele>-0.34</ele>
        <time>2021-07-01T17:47:00Z</time>
      </trkpt>
      <trkpt lat="44.73463" lon="-1.09307">
        <ele>1.1</ele>
        <time>2021-07-01T17:47:15Z</time>
      </trkpt>
      <trkpt lat="44.73459" lon="-1.09306">
        <ele>1.58</ele>
        <time>2021-07-01T17:47:28Z</time>
      </trkpt>
      <trkpt lat="44.73459" lon="-1.09306">
        <ele>1.58</ele>
        <time>2021-07-01T17:47:34Z</time>
      </trkpt>
      <trkpt lat="44.73456" lon="-1.09306">
        <ele>1.58</ele>
        <time>2021-07-01T17:47:35Z</time>
      </trkpt>
      <trkpt lat="44.73455" lon="-1.09306">
        <ele>1.1</ele>
        <time>2021-07-01T17:47:36Z</time>
      </trkpt>
      <trkpt lat="44.73456" lon="-1.09312">
        <ele>1.1</ele>
        <time>2021-07-01T17:47:50Z</time>
      </trkpt>
      <trkpt lat="44.73457" lon="-1.09312">
        <ele>1.1</ele>
        <time>2021-07-01T17:47:51Z</time>
      </trkpt>
      <trkpt lat="44.73464" lon="-1.09307">
        <ele>0.62</ele>
        <time>2021-07-01T17:47:57Z</time>
      </trkpt>
      <trkpt lat="44.73466" lon="-1.09307">
        <ele>1.1</ele>
        <time>2021-07-01T17:47:58Z</time>
      </trkpt>
      <trkpt lat="44.73503" lon="-1.09313">
        <ele>0.62</ele>
        <time>2021-07-01T17:48:10Z</time>
      </trkpt>
      <trkpt lat="44.73545" lon="-1.09308">
        <ele>0.14</ele>
        <time>2021-07-01T17:48:25Z</time>
      </trkpt>
      <trkpt lat="44.73558" lon="-1.09298">
        <ele>0.14</ele>
        <time>2021-07-01T17:48:31Z</time>
      </trkpt>
      <trkpt lat="44.73557" lon="-1.0929">
        <ele>0.14</ele>
        <time>2021-07-01T17:48:32Z</time>
      </trkpt>
      <trkpt lat="44.73555" lon="-1.09287">
        <ele>0.14</ele>
        <time>2021-07-01T17:48:33Z</time>
      </trkpt>
      <trkpt lat="44.73505" lon="-1.09236">
        <ele>-1.79</ele>
        <time>2021-07-01T17:48:47Z</time>
      </trkpt>
      <trkpt lat="44.73458" lon="-1.09185">
        <ele>-3.23</ele>
        <time>2021-07-01T17:49:01Z</time>
      </trkpt>
      <trkpt lat="44.73392" lon="-1.09118">
        <ele>-3.71</ele>
        <time>2021-07-01T17:49:21Z</time>
      </trkpt>
      <trkpt lat="44.73344" lon="-1.0907">
        <ele>-4.19</ele>
        <time>2021-07-01T17:49:38Z</time>
      </trkpt>
      <trkpt lat="44.73309" lon="-1.09035">
        <ele>-4.67</ele>
        <time>2021-07-01T17:49:50Z</time>
      </trkpt>
      <trkpt lat="44.73224" lon="-1.08982">
        <ele>-4.67</ele>
        <time>2021-07-01T17:50:06Z</time>
      </trkpt>
      <trkpt lat="44.73188" lon="-1.08955">
        <ele>-3.71</ele>
        <time>2021-07-01T17:50:18Z</time>
      </trkpt>
      <trkpt lat="44.73169" lon="-1.08921">
        <ele>-6.11</ele>
        <time>2021-07-01T17:50:29Z</time>
      </trkpt>
      <trkpt lat="44.73132" lon="-1.08942">
        <ele>-4.67</ele>
        <time>2021-07-01T17:50:39Z</time>
      </trkpt>
      <trkpt lat="44.73078" lon="-1.08985">
        <ele>-3.71</ele>
        <time>2021-07-01T17:50:53Z</time>
      </trkpt>
      <trkpt lat="44.7305" lon="-1.08977">
        <ele>-2.27</ele>
        <time>2021-07-01T17:51:04Z</time>
      </trkpt>
      <trkpt lat="44.73024" lon="-1.08933">
        <ele>-2.75</ele>
        <time>2021-07-01T17:51:15Z</time>
      </trkpt>
      <trkpt lat="44.73019" lon="-1.08923">
        <ele>-2.27</ele>
        <time>2021-07-01T17:51:18Z</time>
      </trkpt>
      <trkpt lat="44.73017" lon="-1.08919">
        <ele>-2.27</ele>
        <time>2021-07-01T17:51:19Z</time>
      </trkpt>
      <trkpt lat="44.7302" lon="-1.08917">
        <ele>-2.27</ele>
        <time>2021-07-01T17:51:20Z</time>
      </trkpt>
      <trkpt lat="44.73022" lon="-1.08914">
        <ele>-2.27</ele>
        <time>2021-07-01T17:51:21Z</time>
      </trkpt>
      <trkpt lat="44.73027" lon="-1.08909">
        <ele>-2.27</ele>
        <time>2021-07-01T17:51:22Z</time>
      </trkpt>
      <trkpt lat="44.73048" lon="-1.08889">
        <ele>-2.27</ele>
        <time>2021-07-01T17:51:34Z</time>
      </trkpt>
      <trkpt lat="44.73069" lon="-1.08864">
        <ele>-2.75</ele>
        <time>2021-07-01T17:51:44Z</time>
      </trkpt>
      <trkpt lat="44.73111" lon="-1.08812">
        <ele>-3.23</ele>
        <time>2021-07-01T17:51:55Z</time>
      </trkpt>
      <trkpt lat="44.73179" lon="-1.08739">
        <ele>-3.23</ele>
        <time>2021-07-01T17:52:07Z</time>
      </trkpt>
      <trkpt lat="44.73223" lon="-1.08692">
        <ele>-1.79</ele>
        <time>2021-07-01T17:52:17Z</time>
      </trkpt>
      <trkpt lat="44.73223" lon="-1.08692">
        <ele>-1.79</ele>
        <time>2021-07-01T17:52:18Z</time>
      </trkpt>
      <trkpt lat="44.73221" lon="-1.08687">
        <ele>-1.79</ele>
        <time>2021-07-01T17:52:19Z</time>
      </trkpt>
      <trkpt lat="44.73219" lon="-1.08684">
        <ele>-1.79</ele>
        <time>2021-07-01T17:52:20Z</time>
      </trkpt>
      <trkpt lat="44.73218" lon="-1.08681">
        <ele>-1.79</ele>
        <time>2021-07-01T17:52:21Z</time>
      </trkpt>
      <trkpt lat="44.73216" lon="-1.08677">
        <ele>-1.79</ele>
        <time>2021-07-01T17:52:22Z</time>
      </trkpt>
      <trkpt lat="44.73175" lon="-1.08596">
        <ele>-0.82</ele>
        <time>2021-07-01T17:52:35Z</time>
      </trkpt>
      <trkpt lat="44.7316" lon="-1.08568">
        <ele>0.14</ele>
        <time>2021-07-01T17:52:42Z</time>
      </trkpt>
      <trkpt lat="44.73126" lon="-1.08502">
        <ele>0.62</ele>
        <time>2021-07-01T17:52:55Z</time>
      </trkpt>
      <trkpt lat="44.73117" lon="-1.08485">
        <ele>1.1</ele>
        <time>2021-07-01T17:52:59Z</time>
      </trkpt>
      <trkpt lat="44.73104" lon="-1.08461">
        <ele>1.58</ele>
        <time>2021-07-01T17:53:09Z</time>
      </trkpt>
      <trkpt lat="44.73089" lon="-1.08428">
        <ele>1.58</ele>
        <time>2021-07-01T17:53:19Z</time>
      </trkpt>
      <trkpt lat="44.73055" lon="-1.08356">
        <ele>2.06</ele>
        <time>2021-07-01T17:53:34Z</time>
      </trkpt>
      <trkpt lat="44.7303" lon="-1.08302">
        <ele>1.58</ele>
        <time>2021-07-01T17:53:47Z</time>
      </trkpt>
      <trkpt lat="44.73022" lon="-1.08271">
        <ele>1.58</ele>
        <time>2021-07-01T17:53:57Z</time>
      </trkpt>
      <trkpt lat="44.73023" lon="-1.08267">
        <ele>1.58</ele>
        <time>2021-07-01T17:53:58Z</time>
      </trkpt>
      <trkpt lat="44.73023" lon="-1.08264">
        <ele>2.06</ele>
        <time>2021-07-01T17:53:59Z</time>
      </trkpt>
      <trkpt lat="44.73023" lon="-1.08255">
        <ele>2.06</ele>
        <time>2021-07-01T17:54:00Z</time>
      </trkpt>
      <trkpt lat="44.73021" lon="-1.08254">
        <ele>2.06</ele>
        <time>2021-07-01T17:54:01Z</time>
      </trkpt>
      <trkpt lat="44.73019" lon="-1.08252">
        <ele>2.06</ele>
        <time>2021-07-01T17:54:02Z</time>
      </trkpt>
      <trkpt lat="44.7301" lon="-1.08237">
        <ele>1.58</ele>
        <time>2021-07-01T17:54:09Z</time>
      </trkpt>
      <trkpt lat="44.7301" lon="-1.08235">
        <ele>1.58</ele>
        <time>2021-07-01T17:54:10Z</time>
      </trkpt>
      <trkpt lat="44.73006" lon="-1.08231">
        <ele>1.58</ele>
        <time>2021-07-01T17:54:11Z</time>
      </trkpt>
      <trkpt lat="44.73003" lon="-1.08231">
        <ele>1.1</ele>
        <time>2021-07-01T17:54:12Z</time>
      </trkpt>
      <trkpt lat="44.73" lon="-1.08232">
        <ele>1.1</ele>
        <time>2021-07-01T17:54:13Z</time>
      </trkpt>
      <trkpt lat="44.72997" lon="-1.08232">
        <ele>0.62</ele>
        <time>2021-07-01T17:54:14Z</time>
      </trkpt>
      <trkpt lat="44.72994" lon="-1.08233">
        <ele>1.1</ele>
        <time>2021-07-01T17:54:15Z</time>
      </trkpt>
      <trkpt lat="44.72915" lon="-1.08246">
        <ele>1.1</ele>
        <time>2021-07-01T17:54:30Z</time>
      </trkpt>
      <trkpt lat="44.72826" lon="-1.08273">
        <ele>1.1</ele>
        <time>2021-07-01T17:54:45Z</time>
      </trkpt>
      <trkpt lat="44.72712" lon="-1.0829">
        <ele>1.1</ele>
        <time>2021-07-01T17:55:03Z</time>
      </trkpt>
      <trkpt lat="44.72667" lon="-1.08274">
        <ele>2.06</ele>
        <time>2021-07-01T17:55:13Z</time>
      </trkpt>
      <trkpt lat="44.72667" lon="-1.08274">
        <ele>2.06</ele>
        <time>2021-07-01T17:55:16Z</time>
      </trkpt>
      <trkpt lat="44.72664" lon="-1.08272">
        <ele>2.06</ele>
        <time>2021-07-01T17:55:17Z</time>
      </trkpt>
      <trkpt lat="44.72662" lon="-1.08271">
        <ele>2.06</ele>
        <time>2021-07-01T17:55:18Z</time>
      </trkpt>
      <trkpt lat="44.7266" lon="-1.0827">
        <ele>2.06</ele>
        <time>2021-07-01T17:55:19Z</time>
      </trkpt>
      <trkpt lat="44.72657" lon="-1.08269">
        <ele>1.58</ele>
        <time>2021-07-01T17:55:20Z</time>
      </trkpt>
      <trkpt lat="44.72656" lon="-1.08266">
        <ele>1.58</ele>
        <time>2021-07-01T17:55:21Z</time>
      </trkpt>
      <trkpt lat="44.72629" lon="-1.08199">
        <ele>1.1</ele>
        <time>2021-07-01T17:55:34Z</time>
      </trkpt>
      <trkpt lat="44.72617" lon="-1.08169">
        <ele>0.62</ele>
        <time>2021-07-01T17:55:40Z</time>
      </trkpt>
      <trkpt lat="44.72615" lon="-1.08163">
        <ele>1.1</ele>
        <time>2021-07-01T17:55:41Z</time>
      </trkpt>
      <trkpt lat="44.726" lon="-1.08126">
        <ele>1.1</ele>
        <time>2021-07-01T17:55:52Z</time>
      </trkpt>
      <trkpt lat="44.72598" lon="-1.08121">
        <ele>1.58</ele>
        <time>2021-07-01T17:55:55Z</time>
      </trkpt>
      <trkpt lat="44.72597" lon="-1.08119">
        <ele>1.58</ele>
        <time>2021-07-01T17:55:56Z</time>
      </trkpt>
      <trkpt lat="44.72597" lon="-1.08119">
        <ele>1.58</ele>
        <time>2021-07-01T17:55:57Z</time>
      </trkpt>
      <trkpt lat="44.72599" lon="-1.08114">
        <ele>2.06</ele>
        <time>2021-07-01T17:55:58Z</time>
      </trkpt>
      <trkpt lat="44.72602" lon="-1.08111">
        <ele>2.06</ele>
        <time>2021-07-01T17:55:59Z</time>
      </trkpt>
      <trkpt lat="44.72605" lon="-1.08107">
        <ele>2.54</ele>
        <time>2021-07-01T17:56:00Z</time>
      </trkpt>
      <trkpt lat="44.72626" lon="-1.0808">
        <ele>3.02</ele>
        <time>2021-07-01T17:56:04Z</time>
      </trkpt>
      <trkpt lat="44.72717" lon="-1.07955">
        <ele>3.02</ele>
        <time>2021-07-01T17:56:21Z</time>
      </trkpt>
      <trkpt lat="44.72825" lon="-1.07818">
        <ele>4.46</ele>
        <time>2021-07-01T17:56:36Z</time>
      </trkpt>
      <trkpt lat="44.72989" lon="-1.07608">
        <ele>5.91</ele>
        <time>2021-07-01T17:56:56Z</time>
      </trkpt>
      <trkpt lat="44.73014" lon="-1.07572">
        <ele>5.91</ele>
        <time>2021-07-01T17:57:02Z</time>
      </trkpt>
      <trkpt lat="44.73018" lon="-1.07567">
        <ele>6.39</ele>
        <time>2021-07-01T17:57:03Z</time>
      </trkpt>
      <trkpt lat="44.7302" lon="-1.07563">
        <ele>6.39</ele>
        <time>2021-07-01T17:57:04Z</time>
      </trkpt>
      <trkpt lat="44.73023" lon="-1.07556">
        <ele>6.39</ele>
        <time>2021-07-01T17:57:05Z</time>
      </trkpt>
      <trkpt lat="44.73021" lon="-1.07551">
        <ele>5.91</ele>
        <time>2021-07-01T17:57:06Z</time>
      </trkpt>
      <trkpt lat="44.73018" lon="-1.07545">
        <ele>5.42</ele>
        <time>2021-07-01T17:57:07Z</time>
      </trkpt>
      <trkpt lat="44.73014" lon="-1.07538">
        <ele>4.46</ele>
        <time>2021-07-01T17:57:08Z</time>
      </trkpt>
      <trkpt lat="44.72965" lon="-1.07438">
        <ele>2.54</ele>
        <time>2021-07-01T17:57:17Z</time>
      </trkpt>
      <trkpt lat="44.72885" lon="-1.07284">
        <ele>3.5</ele>
        <time>2021-07-01T17:57:30Z</time>
      </trkpt>
      <trkpt lat="44.72855" lon="-1.07222">
        <ele>4.94</ele>
        <time>2021-07-01T17:57:38Z</time>
      </trkpt>
      <trkpt lat="44.72762" lon="-1.07058">
        <ele>4.46</ele>
        <time>2021-07-01T17:57:50Z</time>
      </trkpt>
      <trkpt lat="44.72762" lon="-1.07058">
        <ele>4.46</ele>
        <time>2021-07-01T17:57:51Z</time>
      </trkpt>
      <trkpt lat="44.72754" lon="-1.07047">
        <ele>4.46</ele>
        <time>2021-07-01T17:57:52Z</time>
      </trkpt>
      <trkpt lat="44.72743" lon="-1.07037">
        <ele>5.91</ele>
        <time>2021-07-01T17:57:53Z</time>
      </trkpt>
      <trkpt lat="44.7272" lon="-1.0702">
        <ele>5.91</ele>
        <time>2021-07-01T17:57:54Z</time>
      </trkpt>
      <trkpt lat="44.7263" lon="-1.06964">
        <ele>4.94</ele>
        <time>2021-07-01T17:58:04Z</time>
      </trkpt>
      <trkpt lat="44.72623" lon="-1.0696">
        <ele>5.42</ele>
        <time>2021-07-01T17:58:05Z</time>
      </trkpt>
      <trkpt lat="44.72612" lon="-1.06954">
        <ele>5.91</ele>
        <time>2021-07-01T17:58:06Z</time>
      </trkpt>
      <trkpt lat="44.72612" lon="-1.06954">
        <ele>5.42</ele>
        <time>2021-07-01T17:58:07Z</time>
      </trkpt>
      <trkpt lat="44.72606" lon="-1.06959">
        <ele>5.42</ele>
        <time>2021-07-01T17:58:08Z</time>
      </trkpt>
      <trkpt lat="44.72599" lon="-1.06964">
        <ele>5.42</ele>
        <time>2021-07-01T17:58:09Z</time>
      </trkpt>
      <trkpt lat="44.72599" lon="-1.06964">
        <ele>5.42</ele>
        <time>2021-07-01T17:58:10Z</time>
      </trkpt>
      <trkpt lat="44.72587" lon="-1.06967">
        <ele>5.42</ele>
        <time>2021-07-01T17:58:11Z</time>
      </trkpt>
      <trkpt lat="44.72578" lon="-1.06988">
        <ele>5.42</ele>
        <time>2021-07-01T17:58:12Z</time>
      </trkpt>
      <trkpt lat="44.72578" lon="-1.06988">
        <ele>4.94</ele>
        <time>2021-07-01T17:58:13Z</time>
      </trkpt>
      <trkpt lat="44.72502" lon="-1.07157">
        <ele>0.62</ele>
        <time>2021-07-01T17:58:25Z</time>
      </trkpt>
      <trkpt lat="44.72437" lon="-1.07303">
        <ele>-0.34</ele>
        <time>2021-07-01T17:58:36Z</time>
      </trkpt>
      <trkpt lat="44.72431" lon="-1.07316">
        <ele>0.14</ele>
        <time>2021-07-01T17:58:37Z</time>
      </trkpt>
      <trkpt lat="44.72391" lon="-1.07406">
        <ele>-1.79</ele>
        <time>2021-07-01T17:58:45Z</time>
      </trkpt>
      <trkpt lat="44.72388" lon="-1.07414">
        <ele>-1.79</ele>
        <time>2021-07-01T17:58:46Z</time>
      </trkpt>
      <trkpt lat="44.72384" lon="-1.07421">
        <ele>-1.79</ele>
        <time>2021-07-01T17:58:47Z</time>
      </trkpt>
      <trkpt lat="44.72382" lon="-1.07427">
        <ele>-1.79</ele>
        <time>2021-07-01T17:58:48Z</time>
      </trkpt>
      <trkpt lat="44.72385" lon="-1.07445">
        <ele>-1.3</ele>
        <time>2021-07-01T17:58:49Z</time>
      </trkpt>
      <trkpt lat="44.72385" lon="-1.07445">
        <ele>-1.3</ele>
        <time>2021-07-01T17:58:50Z</time>
      </trkpt>
      <trkpt lat="44.72385" lon="-1.07452">
        <ele>-1.79</ele>
        <time>2021-07-01T17:58:51Z</time>
      </trkpt>
      <trkpt lat="44.72386" lon="-1.07458">
        <ele>-1.3</ele>
        <time>2021-07-01T17:58:52Z</time>
      </trkpt>
      <trkpt lat="44.72386" lon="-1.07462">
        <ele>-1.3</ele>
        <time>2021-07-01T17:58:53Z</time>
      </trkpt>
      <trkpt lat="44.72385" lon="-1.07464">
        <ele>-0.82</ele>
        <time>2021-07-01T17:58:54Z</time>
      </trkpt>
      <trkpt lat="44.72382" lon="-1.07467">
        <ele>-0.82</ele>
        <time>2021-07-01T17:58:55Z</time>
      </trkpt>
      <trkpt lat="44.7238" lon="-1.0747">
        <ele>-0.82</ele>
        <time>2021-07-01T17:58:56Z</time>
      </trkpt>
      <trkpt lat="44.72378" lon="-1.07473">
        <ele>-0.34</ele>
        <time>2021-07-01T17:58:57Z</time>
      </trkpt>
      <trkpt lat="44.72375" lon="-1.07473">
        <ele>-0.34</ele>
        <time>2021-07-01T17:58:58Z</time>
      </trkpt>
      <trkpt lat="44.72369" lon="-1.07473">
        <ele>-0.34</ele>
        <time>2021-07-01T17:58:59Z</time>
      </trkpt>
      <trkpt lat="44.72366" lon="-1.0747">
        <ele>-0.34</ele>
        <time>2021-07-01T17:59:00Z</time>
      </trkpt>
      <trkpt lat="44.72361" lon="-1.07465">
        <ele>-0.82</ele>
        <time>2021-07-01T17:59:01Z</time>
      </trkpt>
      <trkpt lat="44.72353" lon="-1.07446">
        <ele>-0.82</ele>
        <time>2021-07-01T17:59:02Z</time>
      </trkpt>
      <trkpt lat="44.72353" lon="-1.07446">
        <ele>-0.82</ele>
        <time>2021-07-01T17:59:03Z</time>
      </trkpt>
      <trkpt lat="44.72279" lon="-1.07402">
        <ele>1.1</ele>
        <time>2021-07-01T17:59:14Z</time>
      </trkpt>
      <trkpt lat="44.72228" lon="-1.07352">
        <ele>2.54</ele>
        <time>2021-07-01T17:59:26Z</time>
      </trkpt>
      <trkpt lat="44.72193" lon="-1.0732">
        <ele>0.14</ele>
        <time>2021-07-01T17:59:34Z</time>
      </trkpt>
      <trkpt lat="44.72151" lon="-1.07283">
        <ele>-1.79</ele>
        <time>2021-07-01T17:59:46Z</time>
      </trkpt>
      <trkpt lat="44.72112" lon="-1.07247">
        <ele>-1.3</ele>
        <time>2021-07-01T17:59:58Z</time>
      </trkpt>
      <trkpt lat="44.72083" lon="-1.07222">
        <ele>-0.82</ele>
        <time>2021-07-01T18:00:10Z</time>
      </trkpt>
      <trkpt lat="44.72082" lon="-1.07209">
        <ele>-0.82</ele>
        <time>2021-07-01T18:00:11Z</time>
      </trkpt>
      <trkpt lat="44.72084" lon="-1.07208">
        <ele>-0.82</ele>
        <time>2021-07-01T18:00:12Z</time>
      </trkpt>
      <trkpt lat="44.72113" lon="-1.07174">
        <ele>0.14</ele>
        <time>2021-07-01T18:00:21Z</time>
      </trkpt>
      <trkpt lat="44.72117" lon="-1.0717">
        <ele>0.14</ele>
        <time>2021-07-01T18:00:22Z</time>
      </trkpt>
      <trkpt lat="44.72121" lon="-1.07166">
        <ele>0.14</ele>
        <time>2021-07-01T18:00:23Z</time>
      </trkpt>
      <trkpt lat="44.72126" lon="-1.07162">
        <ele>0.14</ele>
        <time>2021-07-01T18:00:24Z</time>
      </trkpt>
      <trkpt lat="44.7213" lon="-1.07155">
        <ele>0.14</ele>
        <time>2021-07-01T18:00:25Z</time>
      </trkpt>
      <trkpt lat="44.72173" lon="-1.07062">
        <ele>2.06</ele>
        <time>2021-07-01T18:00:38Z</time>
      </trkpt>
      <trkpt lat="44.72212" lon="-1.06972">
        <ele>3.5</ele>
        <time>2021-07-01T18:00:52Z</time>
      </trkpt>
      <trkpt lat="44.72276" lon="-1.06841">
        <ele>5.42</ele>
        <time>2021-07-01T18:01:06Z</time>
      </trkpt>
      <trkpt lat="44.72308" lon="-1.06769">
        <ele>7.35</ele>
        <time>2021-07-01T18:01:17Z</time>
      </trkpt>
      <trkpt lat="44.72309" lon="-1.06768">
        <ele>6.87</ele>
        <time>2021-07-01T18:01:20Z</time>
      </trkpt>
      <trkpt lat="44.72306" lon="-1.06759">
        <ele>6.87</ele>
        <time>2021-07-01T18:01:21Z</time>
      </trkpt>
      <trkpt lat="44.72304" lon="-1.06758">
        <ele>6.87</ele>
        <time>2021-07-01T18:01:22Z</time>
      </trkpt>
      <trkpt lat="44.72301" lon="-1.06756">
        <ele>6.87</ele>
        <time>2021-07-01T18:01:23Z</time>
      </trkpt>
      <trkpt lat="44.72297" lon="-1.06753">
        <ele>6.87</ele>
        <time>2021-07-01T18:01:24Z</time>
      </trkpt>
      <trkpt lat="44.72234" lon="-1.06713">
        <ele>5.91</ele>
        <time>2021-07-01T18:01:34Z</time>
      </trkpt>
      <trkpt lat="44.72155" lon="-1.06663">
        <ele>5.42</ele>
        <time>2021-07-01T18:01:47Z</time>
      </trkpt>
      <trkpt lat="44.72076" lon="-1.06614">
        <ele>3.98</ele>
        <time>2021-07-01T18:01:57Z</time>
      </trkpt>
      <trkpt lat="44.71899" lon="-1.06504">
        <ele>4.94</ele>
        <time>2021-07-01T18:02:14Z</time>
      </trkpt>
      <trkpt lat="44.71681" lon="-1.06368">
        <ele>4.46</ele>
        <time>2021-07-01T18:02:33Z</time>
      </trkpt>
      <trkpt lat="44.71601" lon="-1.06311">
        <ele>2.54</ele>
        <time>2021-07-01T18:02:44Z</time>
      </trkpt>
      <trkpt lat="44.71596" lon="-1.06305">
        <ele>2.54</ele>
        <time>2021-07-01T18:02:45Z</time>
      </trkpt>
      <trkpt lat="44.71533" lon="-1.06201">
        <ele>0.62</ele>
        <time>2021-07-01T18:02:54Z</time>
      </trkpt>
      <trkpt lat="44.71461" lon="-1.06072">
        <ele>0.62</ele>
        <time>2021-07-01T18:03:04Z</time>
      </trkpt>
      <trkpt lat="44.71341" lon="-1.05862">
        <ele>1.58</ele>
        <time>2021-07-01T18:03:19Z</time>
      </trkpt>
      <trkpt lat="44.71231" lon="-1.05667">
        <ele>1.1</ele>
        <time>2021-07-01T18:03:35Z</time>
      </trkpt>
      <trkpt lat="44.71191" lon="-1.05597">
        <ele>0.62</ele>
        <time>2021-07-01T18:03:44Z</time>
      </trkpt>
      <trkpt lat="44.71118" lon="-1.05465">
        <ele>0.62</ele>
        <time>2021-07-01T18:04:00Z</time>
      </trkpt>
      <trkpt lat="44.71061" lon="-1.05364">
        <ele>0.62</ele>
        <time>2021-07-01T18:04:12Z</time>
      </trkpt>
      <trkpt lat="44.70973" lon="-1.05208">
        <ele>2.06</ele>
        <time>2021-07-01T18:04:28Z</time>
      </trkpt>
      <trkpt lat="44.70845" lon="-1.04982">
        <ele>1.1</ele>
        <time>2021-07-01T18:04:47Z</time>
      </trkpt>
      <trkpt lat="44.70733" lon="-1.04769">
        <ele>2.06</ele>
        <time>2021-07-01T18:05:02Z</time>
      </trkpt>
      <trkpt lat="44.70632" lon="-1.04532">
        <ele>2.06</ele>
        <time>2021-07-01T18:05:19Z</time>
      </trkpt>
      <trkpt lat="44.7057" lon="-1.04386">
        <ele>2.06</ele>
        <time>2021-07-01T18:05:34Z</time>
      </trkpt>
      <trkpt lat="44.70565" lon="-1.04374">
        <ele>2.54</ele>
        <time>2021-07-01T18:05:36Z</time>
      </trkpt>
      <trkpt lat="44.70562" lon="-1.04368">
        <ele>2.54</ele>
        <time>2021-07-01T18:05:37Z</time>
      </trkpt>
      <trkpt lat="44.70555" lon="-1.04369">
        <ele>2.54</ele>
        <time>2021-07-01T18:05:39Z</time>
      </trkpt>
      <trkpt lat="44.70548" lon="-1.04365">
        <ele>2.54</ele>
        <time>2021-07-01T18:05:40Z</time>
      </trkpt>
      <trkpt lat="44.70545" lon="-1.04351">
        <ele>2.54</ele>
        <time>2021-07-01T18:05:41Z</time>
      </trkpt>
      <trkpt lat="44.70545" lon="-1.04351">
        <ele>3.02</ele>
        <time>2021-07-01T18:05:42Z</time>
      </trkpt>
      <trkpt lat="44.70545" lon="-1.04347">
        <ele>3.02</ele>
        <time>2021-07-01T18:05:43Z</time>
      </trkpt>
      <trkpt lat="44.70547" lon="-1.04333">
        <ele>3.02</ele>
        <time>2021-07-01T18:05:44Z</time>
      </trkpt>
      <trkpt lat="44.70544" lon="-1.04325">
        <ele>2.54</ele>
        <time>2021-07-01T18:05:45Z</time>
      </trkpt>
      <trkpt lat="44.7054" lon="-1.04317">
        <ele>2.54</ele>
        <time>2021-07-01T18:05:46Z</time>
      </trkpt>
      <trkpt lat="44.70486" lon="-1.04188">
        <ele>2.06</ele>
        <time>2021-07-01T18:05:56Z</time>
      </trkpt>
      <trkpt lat="44.70404" lon="-1.03982">
        <ele>2.06</ele>
        <time>2021-07-01T18:06:11Z</time>
      </trkpt>
      <trkpt lat="44.70382" lon="-1.03895">
        <ele>2.06</ele>
        <time>2021-07-01T18:06:20Z</time>
      </trkpt>
      <trkpt lat="44.7038" lon="-1.03888">
        <ele>2.06</ele>
        <time>2021-07-01T18:06:21Z</time>
      </trkpt>
      <trkpt lat="44.70378" lon="-1.03882">
        <ele>2.54</ele>
        <time>2021-07-01T18:06:22Z</time>
      </trkpt>
      <trkpt lat="44.70372" lon="-1.03876">
        <ele>2.54</ele>
        <time>2021-07-01T18:06:23Z</time>
      </trkpt>
      <trkpt lat="44.70369" lon="-1.03874">
        <ele>2.54</ele>
        <time>2021-07-01T18:06:24Z</time>
      </trkpt>
      <trkpt lat="44.70369" lon="-1.03868">
        <ele>2.54</ele>
        <time>2021-07-01T18:06:25Z</time>
      </trkpt>
      <trkpt lat="44.70369" lon="-1.03861">
        <ele>2.54</ele>
        <time>2021-07-01T18:06:26Z</time>
      </trkpt>
      <trkpt lat="44.70369" lon="-1.03859">
        <ele>2.06</ele>
        <time>2021-07-01T18:06:27Z</time>
      </trkpt>
      <trkpt lat="44.7037" lon="-1.03842">
        <ele>3.02</ele>
        <time>2021-07-01T18:06:28Z</time>
      </trkpt>
      <trkpt lat="44.70368" lon="-1.03833">
        <ele>3.02</ele>
        <time>2021-07-01T18:06:29Z</time>
      </trkpt>
      <trkpt lat="44.70328" lon="-1.03692">
        <ele>3.02</ele>
        <time>2021-07-01T18:06:43Z</time>
      </trkpt>
      <trkpt lat="44.70273" lon="-1.0358">
        <ele>3.02</ele>
        <time>2021-07-01T18:06:57Z</time>
      </trkpt>
      <trkpt lat="44.702" lon="-1.03462">
        <ele>2.54</ele>
        <time>2021-07-01T18:07:13Z</time>
      </trkpt>
      <trkpt lat="44.70167" lon="-1.03353">
        <ele>2.54</ele>
        <time>2021-07-01T18:07:27Z</time>
      </trkpt>
      <trkpt lat="44.70165" lon="-1.03345">
        <ele>2.54</ele>
        <time>2021-07-01T18:07:28Z</time>
      </trkpt>
      <trkpt lat="44.70159" lon="-1.03334">
        <ele>2.54</ele>
        <time>2021-07-01T18:07:29Z</time>
      </trkpt>
      <trkpt lat="44.70153" lon="-1.03329">
        <ele>2.54</ele>
        <time>2021-07-01T18:07:30Z</time>
      </trkpt>
      <trkpt lat="44.70151" lon="-1.03319">
        <ele>2.54</ele>
        <time>2021-07-01T18:07:31Z</time>
      </trkpt>
      <trkpt lat="44.70152" lon="-1.03312">
        <ele>2.54</ele>
        <time>2021-07-01T18:07:32Z</time>
      </trkpt>
      <trkpt lat="44.70152" lon="-1.03312">
        <ele>2.54</ele>
        <time>2021-07-01T18:07:33Z</time>
      </trkpt>
      <trkpt lat="44.70152" lon="-1.03308">
        <ele>2.54</ele>
        <time>2021-07-01T18:07:34Z</time>
      </trkpt>
      <trkpt lat="44.70158" lon="-1.03294">
        <ele>2.54</ele>
        <time>2021-07-01T18:07:35Z</time>
      </trkpt>
      <trkpt lat="44.70157" lon="-1.03284">
        <ele>2.54</ele>
        <time>2021-07-01T18:07:36Z</time>
      </trkpt>
      <trkpt lat="44.70156" lon="-1.03272">
        <ele>2.06</ele>
        <time>2021-07-01T18:07:37Z</time>
      </trkpt>
      <trkpt lat="44.70137" lon="-1.03114">
        <ele>2.06</ele>
        <time>2021-07-01T18:07:46Z</time>
      </trkpt>
      <trkpt lat="44.70103" lon="-1.02848">
        <ele>4.94</ele>
        <time>2021-07-01T18:07:58Z</time>
      </trkpt>
      <trkpt lat="44.70051" lon="-1.02515">
        <ele>3.5</ele>
        <time>2021-07-01T18:08:12Z</time>
      </trkpt>
      <trkpt lat="44.70008" lon="-1.02379">
        <ele>4.46</ele>
        <time>2021-07-01T18:08:20Z</time>
      </trkpt>
      <trkpt lat="44.7" lon="-1.02361">
        <ele>4.94</ele>
        <time>2021-07-01T18:08:21Z</time>
      </trkpt>
      <trkpt lat="44.6999" lon="-1.02346">
        <ele>5.42</ele>
        <time>2021-07-01T18:08:22Z</time>
      </trkpt>
      <trkpt lat="44.6998" lon="-1.02334">
        <ele>8.31</ele>
        <time>2021-07-01T18:08:23Z</time>
      </trkpt>
      <trkpt lat="44.69967" lon="-1.02322">
        <ele>9.27</ele>
        <time>2021-07-01T18:08:24Z</time>
      </trkpt>
      <trkpt lat="44.69952" lon="-1.02313">
        <ele>9.27</ele>
        <time>2021-07-01T18:08:25Z</time>
      </trkpt>
      <trkpt lat="44.69937" lon="-1.02306">
        <ele>10.71</ele>
        <time>2021-07-01T18:08:26Z</time>
      </trkpt>
      <trkpt lat="44.69725" lon="-1.02252">
        <ele>12.63</ele>
        <time>2021-07-01T18:08:40Z</time>
      </trkpt>
      <trkpt lat="44.6952" lon="-1.02202">
        <ele>11.67</ele>
        <time>2021-07-01T18:08:54Z</time>
      </trkpt>
      <trkpt lat="44.69337" lon="-1.02158">
        <ele>13.6</ele>
        <time>2021-07-01T18:09:08Z</time>
      </trkpt>
      <trkpt lat="44.69276" lon="-1.02145">
        <ele>12.15</ele>
        <time>2021-07-01T18:09:16Z</time>
      </trkpt>
      <trkpt lat="44.69271" lon="-1.02144">
        <ele>12.15</ele>
        <time>2021-07-01T18:09:17Z</time>
      </trkpt>
      <trkpt lat="44.69259" lon="-1.02154">
        <ele>12.15</ele>
        <time>2021-07-01T18:09:19Z</time>
      </trkpt>
      <trkpt lat="44.69253" lon="-1.02155">
        <ele>11.67</ele>
        <time>2021-07-01T18:09:20Z</time>
      </trkpt>
      <trkpt lat="44.69247" lon="-1.0215">
        <ele>11.19</ele>
        <time>2021-07-01T18:09:21Z</time>
      </trkpt>
      <trkpt lat="44.69238" lon="-1.02133">
        <ele>10.23</ele>
        <time>2021-07-01T18:09:23Z</time>
      </trkpt>
      <trkpt lat="44.69231" lon="-1.02132">
        <ele>9.75</ele>
        <time>2021-07-01T18:09:24Z</time>
      </trkpt>
      <trkpt lat="44.69223" lon="-1.0213">
        <ele>9.27</ele>
        <time>2021-07-01T18:09:25Z</time>
      </trkpt>
      <trkpt lat="44.69113" lon="-1.02102">
        <ele>8.31</ele>
        <time>2021-07-01T18:09:37Z</time>
      </trkpt>
      <trkpt lat="44.69048" lon="-1.02093">
        <ele>7.35</ele>
        <time>2021-07-01T18:09:46Z</time>
      </trkpt>
      <trkpt lat="44.6893" lon="-1.0207">
        <ele>6.39</ele>
        <time>2021-07-01T18:09:59Z</time>
      </trkpt>
      <trkpt lat="44.68865" lon="-1.02016">
        <ele>6.87</ele>
        <time>2021-07-01T18:10:10Z</time>
      </trkpt>
      <trkpt lat="44.68779" lon="-1.01924">
        <ele>5.91</ele>
        <time>2021-07-01T18:10:26Z</time>
      </trkpt>
      <trkpt lat="44.68771" lon="-1.01919">
        <ele>5.91</ele>
        <time>2021-07-01T18:10:27Z</time>
      </trkpt>
      <trkpt lat="44.68763" lon="-1.01917">
        <ele>5.91</ele>
        <time>2021-07-01T18:10:28Z</time>
      </trkpt>
      <trkpt lat="44.68752" lon="-1.01914">
        <ele>5.42</ele>
        <time>2021-07-01T18:10:29Z</time>
      </trkpt>
      <trkpt lat="44.68677" lon="-1.01891">
        <ele>4.94</ele>
        <time>2021-07-01T18:10:35Z</time>
      </trkpt>
      <trkpt lat="44.68677" lon="-1.01891">
        <ele>4.46</ele>
        <time>2021-07-01T18:10:36Z</time>
      </trkpt>
      <trkpt lat="44.68606" lon="-1.01832">
        <ele>5.42</ele>
        <time>2021-07-01T18:10:46Z</time>
      </trkpt>
      <trkpt lat="44.68509" lon="-1.01733">
        <ele>5.91</ele>
        <time>2021-07-01T18:11:02Z</time>
      </trkpt>
      <trkpt lat="44.68426" lon="-1.0164">
        <ele>5.42</ele>
        <time>2021-07-01T18:11:14Z</time>
      </trkpt>
      <trkpt lat="44.68419" lon="-1.01631">
        <ele>6.87</ele>
        <time>2021-07-01T18:11:15Z</time>
      </trkpt>
      <trkpt lat="44.68339" lon="-1.0154">
        <ele>6.39</ele>
        <time>2021-07-01T18:11:27Z</time>
      </trkpt>
      <trkpt lat="44.68252" lon="-1.01438">
        <ele>5.91</ele>
        <time>2021-07-01T18:11:41Z</time>
      </trkpt>
      <trkpt lat="44.68181" lon="-1.01352">
        <ele>4.94</ele>
        <time>2021-07-01T18:11:53Z</time>
      </trkpt>
      <trkpt lat="44.68177" lon="-1.01347">
        <ele>4.46</ele>
        <time>2021-07-01T18:11:54Z</time>
      </trkpt>
      <trkpt lat="44.68169" lon="-1.0135">
        <ele>4.46</ele>
        <time>2021-07-01T18:11:55Z</time>
      </trkpt>
      <trkpt lat="44.68164" lon="-1.01347">
        <ele>3.98</ele>
        <time>2021-07-01T18:11:56Z</time>
      </trkpt>
      <trkpt lat="44.68161" lon="-1.01345">
        <ele>3.98</ele>
        <time>2021-07-01T18:11:57Z</time>
      </trkpt>
      <trkpt lat="44.68161" lon="-1.01327">
        <ele>3.98</ele>
        <time>2021-07-01T18:11:58Z</time>
      </trkpt>
      <trkpt lat="44.68101" lon="-1.01256">
        <ele>3.98</ele>
        <time>2021-07-01T18:12:08Z</time>
      </trkpt>
      <trkpt lat="44.68064" lon="-1.01208">
        <ele>4.46</ele>
        <time>2021-07-01T18:12:14Z</time>
      </trkpt>
      <trkpt lat="44.68055" lon="-1.01191">
        <ele>4.46</ele>
        <time>2021-07-01T18:12:15Z</time>
      </trkpt>
      <trkpt lat="44.67997" lon="-1.01072">
        <ele>3.5</ele>
        <time>2021-07-01T18:12:28Z</time>
      </trkpt>
      <trkpt lat="44.67913" lon="-1.00953">
        <ele>6.87</ele>
        <time>2021-07-01T18:12:39Z</time>
      </trkpt>
      <trkpt lat="44.67908" lon="-1.00944">
        <ele>6.39</ele>
        <time>2021-07-01T18:12:40Z</time>
      </trkpt>
      <trkpt lat="44.67903" lon="-1.00935">
        <ele>6.39</ele>
        <time>2021-07-01T18:12:41Z</time>
      </trkpt>
      <trkpt lat="44.67903" lon="-1.00935">
        <ele>5.91</ele>
        <time>2021-07-01T18:12:42Z</time>
      </trkpt>
      <trkpt lat="44.67898" lon="-1.00926">
        <ele>5.91</ele>
        <time>2021-07-01T18:12:43Z</time>
      </trkpt>
      <trkpt lat="44.67894" lon="-1.00916">
        <ele>5.91</ele>
        <time>2021-07-01T18:12:44Z</time>
      </trkpt>
      <trkpt lat="44.67891" lon="-1.00905">
        <ele>5.42</ele>
        <time>2021-07-01T18:12:45Z</time>
      </trkpt>
      <trkpt lat="44.6787" lon="-1.00839">
        <ele>4.94</ele>
        <time>2021-07-01T18:12:52Z</time>
      </trkpt>
      <trkpt lat="44.67868" lon="-1.00833">
        <ele>4.94</ele>
        <time>2021-07-01T18:12:53Z</time>
      </trkpt>
      <trkpt lat="44.67856" lon="-1.00829">
        <ele>4.94</ele>
        <time>2021-07-01T18:12:55Z</time>
      </trkpt>
      <trkpt lat="44.67852" lon="-1.00823">
        <ele>4.94</ele>
        <time>2021-07-01T18:12:56Z</time>
      </trkpt>
      <trkpt lat="44.67851" lon="-1.00814">
        <ele>4.94</ele>
        <time>2021-07-01T18:12:57Z</time>
      </trkpt>
      <trkpt lat="44.67849" lon="-1.00794">
        <ele>4.94</ele>
        <time>2021-07-01T18:12:59Z</time>
      </trkpt>
      <trkpt lat="44.67844" lon="-1.00785">
        <ele>4.94</ele>
        <time>2021-07-01T18:13:00Z</time>
      </trkpt>
      <trkpt lat="44.67839" lon="-1.00776">
        <ele>4.46</ele>
        <time>2021-07-01T18:13:01Z</time>
      </trkpt>
      <trkpt lat="44.67753" lon="-1.00646">
        <ele>4.94</ele>
        <time>2021-07-01T18:13:12Z</time>
      </trkpt>
      <trkpt lat="44.67584" lon="-1.00396">
        <ele>6.39</ele>
        <time>2021-07-01T18:13:30Z</time>
      </trkpt>
      <trkpt lat="44.67459" lon="-1.00208">
        <ele>6.39</ele>
        <time>2021-07-01T18:13:43Z</time>
      </trkpt>
      <trkpt lat="44.67317" lon="-1">
        <ele>7.35</ele>
        <time>2021-07-01T18:14:00Z</time>
      </trkpt>
      <trkpt lat="44.67257" lon="-0.99913">
        <ele>8.31</ele>
        <time>2021-07-01T18:14:09Z</time>
      </trkpt>
      <trkpt lat="44.67253" lon="-0.99908">
        <ele>8.31</ele>
        <time>2021-07-01T18:14:10Z</time>
      </trkpt>
      <trkpt lat="44.67249" lon="-0.99903">
        <ele>8.31</ele>
        <time>2021-07-01T18:14:11Z</time>
      </trkpt>
      <trkpt lat="44.67241" lon="-0.99907">
        <ele>8.31</ele>
        <time>2021-07-01T18:14:12Z</time>
      </trkpt>
      <trkpt lat="44.67236" lon="-0.99903">
        <ele>8.31</ele>
        <time>2021-07-01T18:14:13Z</time>
      </trkpt>
      <trkpt lat="44.67232" lon="-0.99901">
        <ele>8.31</ele>
        <time>2021-07-01T18:14:14Z</time>
      </trkpt>
      <trkpt lat="44.67231" lon="-0.99886">
        <ele>8.31</ele>
        <time>2021-07-01T18:14:15Z</time>
      </trkpt>
      <trkpt lat="44.67226" lon="-0.99881">
        <ele>8.31</ele>
        <time>2021-07-01T18:14:16Z</time>
      </trkpt>
      <trkpt lat="44.6722" lon="-0.99876">
        <ele>8.31</ele>
        <time>2021-07-01T18:14:17Z</time>
      </trkpt>
      <trkpt lat="44.67214" lon="-0.9987">
        <ele>7.83</ele>
        <time>2021-07-01T18:14:18Z</time>
      </trkpt>
      <trkpt lat="44.67206" lon="-0.99865">
        <ele>8.31</ele>
        <time>2021-07-01T18:14:19Z</time>
      </trkpt>
      <trkpt lat="44.67197" lon="-0.99859">
        <ele>9.27</ele>
        <time>2021-07-01T18:14:20Z</time>
      </trkpt>
      <trkpt lat="44.67188" lon="-0.99854">
        <ele>8.79</ele>
        <time>2021-07-01T18:14:21Z</time>
      </trkpt>
      <trkpt lat="44.67178" lon="-0.99848">
        <ele>9.27</ele>
        <time>2021-07-01T18:14:22Z</time>
      </trkpt>
      <trkpt lat="44.67065" lon="-0.99821">
        <ele>8.79</ele>
        <time>2021-07-01T18:14:31Z</time>
      </trkpt>
      <trkpt lat="44.6684" lon="-0.99823">
        <ele>7.83</ele>
        <time>2021-07-01T18:14:47Z</time>
      </trkpt>
      <trkpt lat="44.66735" lon="-0.9982">
        <ele>8.31</ele>
        <time>2021-07-01T18:14:55Z</time>
      </trkpt>
      <trkpt lat="44.66711" lon="-0.99811">
        <ele>7.83</ele>
        <time>2021-07-01T18:14:56Z</time>
      </trkpt>
      <trkpt lat="44.66711" lon="-0.99811">
        <ele>7.35</ele>
        <time>2021-07-01T18:14:57Z</time>
      </trkpt>
      <trkpt lat="44.66697" lon="-0.99806">
        <ele>7.35</ele>
        <time>2021-07-01T18:14:58Z</time>
      </trkpt>
      <trkpt lat="44.66684" lon="-0.99797">
        <ele>6.87</ele>
        <time>2021-07-01T18:14:59Z</time>
      </trkpt>
      <trkpt lat="44.66671" lon="-0.99787">
        <ele>6.87</ele>
        <time>2021-07-01T18:15:00Z</time>
      </trkpt>
      <trkpt lat="44.66647" lon="-0.99765">
        <ele>6.87</ele>
        <time>2021-07-01T18:15:01Z</time>
      </trkpt>
      <trkpt lat="44.66647" lon="-0.99765">
        <ele>7.35</ele>
        <time>2021-07-01T18:15:02Z</time>
      </trkpt>
      <trkpt lat="44.66637" lon="-0.99752">
        <ele>6.87</ele>
        <time>2021-07-01T18:15:03Z</time>
      </trkpt>
      <trkpt lat="44.66618" lon="-0.99723">
        <ele>6.39</ele>
        <time>2021-07-01T18:15:04Z</time>
      </trkpt>
      <trkpt lat="44.66618" lon="-0.99723">
        <ele>6.39</ele>
        <time>2021-07-01T18:15:05Z</time>
      </trkpt>
      <trkpt lat="44.6661" lon="-0.99705">
        <ele>6.39</ele>
        <time>2021-07-01T18:15:06Z</time>
      </trkpt>
      <trkpt lat="44.66601" lon="-0.99686">
        <ele>5.91</ele>
        <time>2021-07-01T18:15:07Z</time>
      </trkpt>
      <trkpt lat="44.66496" lon="-0.9944">
        <ele>7.83</ele>
        <time>2021-07-01T18:15:20Z</time>
      </trkpt>
      <trkpt lat="44.66387" lon="-0.99327">
        <ele>9.75</ele>
        <time>2021-07-01T18:15:29Z</time>
      </trkpt>
      <trkpt lat="44.6629" lon="-0.99243">
        <ele>9.27</ele>
        <time>2021-07-01T18:15:39Z</time>
      </trkpt>
      <trkpt lat="44.66284" lon="-0.99238">
        <ele>9.27</ele>
        <time>2021-07-01T18:15:40Z</time>
      </trkpt>
      <trkpt lat="44.66268" lon="-0.9924">
        <ele>8.79</ele>
        <time>2021-07-01T18:15:42Z</time>
      </trkpt>
      <trkpt lat="44.66265" lon="-0.99235">
        <ele>8.79</ele>
        <time>2021-07-01T18:15:43Z</time>
      </trkpt>
      <trkpt lat="44.66262" lon="-0.99231">
        <ele>8.79</ele>
        <time>2021-07-01T18:15:44Z</time>
      </trkpt>
      <trkpt lat="44.66262" lon="-0.99231">
        <ele>8.79</ele>
        <time>2021-07-01T18:15:45Z</time>
      </trkpt>
      <trkpt lat="44.66254" lon="-0.99214">
        <ele>8.79</ele>
        <time>2021-07-01T18:15:46Z</time>
      </trkpt>
      <trkpt lat="44.66247" lon="-0.99208">
        <ele>8.79</ele>
        <time>2021-07-01T18:15:47Z</time>
      </trkpt>
      <trkpt lat="44.66239" lon="-0.99201">
        <ele>9.75</ele>
        <time>2021-07-01T18:15:48Z</time>
      </trkpt>
      <trkpt lat="44.6613" lon="-0.99105">
        <ele>9.75</ele>
        <time>2021-07-01T18:15:58Z</time>
      </trkpt>
      <trkpt lat="44.65959" lon="-0.98956">
        <ele>8.79</ele>
        <time>2021-07-01T18:16:11Z</time>
      </trkpt>
      <trkpt lat="44.65798" lon="-0.9882">
        <ele>8.79</ele>
        <time>2021-07-01T18:16:24Z</time>
      </trkpt>
      <trkpt lat="44.65665" lon="-0.9875">
        <ele>9.27</ele>
        <time>2021-07-01T18:16:37Z</time>
      </trkpt>
      <trkpt lat="44.6563" lon="-0.98735">
        <ele>9.27</ele>
        <time>2021-07-01T18:16:43Z</time>
      </trkpt>
      <trkpt lat="44.65625" lon="-0.98733">
        <ele>10.23</ele>
        <time>2021-07-01T18:16:53Z</time>
      </trkpt>
      <trkpt lat="44.65602" lon="-0.98722">
        <ele>10.71</ele>
        <time>2021-07-01T18:17:16Z</time>
      </trkpt>
      <trkpt lat="44.65525" lon="-0.98686">
        <ele>10.71</ele>
        <time>2021-07-01T18:17:24Z</time>
      </trkpt>
      <trkpt lat="44.65298" lon="-0.9858">
        <ele>11.19</ele>
        <time>2021-07-01T18:17:42Z</time>
      </trkpt>
      <trkpt lat="44.65126" lon="-0.98499">
        <ele>10.23</ele>
        <time>2021-07-01T18:17:57Z</time>
      </trkpt>
      <trkpt lat="44.64952" lon="-0.98418">
        <ele>9.75</ele>
        <time>2021-07-01T18:18:12Z</time>
      </trkpt>
      <trkpt lat="44.64779" lon="-0.98338">
        <ele>9.27</ele>
        <time>2021-07-01T18:18:27Z</time>
      </trkpt>
      <trkpt lat="44.64668" lon="-0.98294">
        <ele>8.79</ele>
        <time>2021-07-01T18:18:38Z</time>
      </trkpt>
      <trkpt lat="44.64605" lon="-0.98295">
        <ele>8.79</ele>
        <time>2021-07-01T18:18:48Z</time>
      </trkpt>
      <trkpt lat="44.64553" lon="-0.98299">
        <ele>8.31</ele>
        <time>2021-07-01T18:18:57Z</time>
      </trkpt>
      <trkpt lat="44.64541" lon="-0.98293">
        <ele>8.31</ele>
        <time>2021-07-01T18:19:04Z</time>
      </trkpt>
      <trkpt lat="44.64537" lon="-0.98291">
        <ele>8.31</ele>
        <time>2021-07-01T18:19:05Z</time>
      </trkpt>
      <trkpt lat="44.64536" lon="-0.9829">
        <ele>8.31</ele>
        <time>2021-07-01T18:19:06Z</time>
      </trkpt>
      <trkpt lat="44.64533" lon="-0.98286">
        <ele>7.83</ele>
        <time>2021-07-01T18:19:07Z</time>
      </trkpt>
      <trkpt lat="44.64529" lon="-0.98282">
        <ele>8.31</ele>
        <time>2021-07-01T18:19:08Z</time>
      </trkpt>
      <trkpt lat="44.64509" lon="-0.98244">
        <ele>8.31</ele>
        <time>2021-07-01T18:19:13Z</time>
      </trkpt>
      <trkpt lat="44.64503" lon="-0.98217">
        <ele>8.31</ele>
        <time>2021-07-01T18:19:14Z</time>
      </trkpt>
      <trkpt lat="44.64492" lon="-0.98096">
        <ele>8.79</ele>
        <time>2021-07-01T18:19:25Z</time>
      </trkpt>
      <trkpt lat="44.64489" lon="-0.98085">
        <ele>8.31</ele>
        <time>2021-07-01T18:19:26Z</time>
      </trkpt>
      <trkpt lat="44.64487" lon="-0.98075">
        <ele>8.31</ele>
        <time>2021-07-01T18:19:27Z</time>
      </trkpt>
      <trkpt lat="44.64441" lon="-0.97933">
        <ele>6.87</ele>
        <time>2021-07-01T18:19:39Z</time>
      </trkpt>
      <trkpt lat="44.64423" lon="-0.97868">
        <ele>5.91</ele>
        <time>2021-07-01T18:19:48Z</time>
      </trkpt>
      <trkpt lat="44.64421" lon="-0.9786">
        <ele>5.42</ele>
        <time>2021-07-01T18:19:50Z</time>
      </trkpt>
      <trkpt lat="44.64413" lon="-0.97852">
        <ele>5.42</ele>
        <time>2021-07-01T18:19:51Z</time>
      </trkpt>
      <trkpt lat="44.64411" lon="-0.97842">
        <ele>5.42</ele>
        <time>2021-07-01T18:19:52Z</time>
      </trkpt>
      <trkpt lat="44.64407" lon="-0.97839">
        <ele>5.91</ele>
        <time>2021-07-01T18:19:53Z</time>
      </trkpt>
      <trkpt lat="44.64402" lon="-0.97835">
        <ele>6.39</ele>
        <time>2021-07-01T18:19:54Z</time>
      </trkpt>
      <trkpt lat="44.64396" lon="-0.97831">
        <ele>6.87</ele>
        <time>2021-07-01T18:19:55Z</time>
      </trkpt>
      <trkpt lat="44.6439" lon="-0.97828">
        <ele>6.87</ele>
        <time>2021-07-01T18:19:56Z</time>
      </trkpt>
      <trkpt lat="44.64383" lon="-0.97826">
        <ele>6.87</ele>
        <time>2021-07-01T18:19:57Z</time>
      </trkpt>
      <trkpt lat="44.64299" lon="-0.97811">
        <ele>8.31</ele>
        <time>2021-07-01T18:20:08Z</time>
      </trkpt>
      <trkpt lat="44.64294" lon="-0.97815">
        <ele>8.79</ele>
        <time>2021-07-01T18:20:16Z</time>
      </trkpt>
      <trkpt lat="44.6427" lon="-0.97821">
        <ele>8.79</ele>
        <time>2021-07-01T18:20:26Z</time>
      </trkpt>
      <trkpt lat="44.64265" lon="-0.97823">
        <ele>8.79</ele>
        <time>2021-07-01T18:20:27Z</time>
      </trkpt>
      <trkpt lat="44.64179" lon="-0.97818">
        <ele>9.75</ele>
        <time>2021-07-01T18:20:38Z</time>
      </trkpt>
      <trkpt lat="44.64049" lon="-0.97798">
        <ele>9.27</ele>
        <time>2021-07-01T18:20:48Z</time>
      </trkpt>
      <trkpt lat="44.64049" lon="-0.97798">
        <ele>8.79</ele>
        <time>2021-07-01T18:20:49Z</time>
      </trkpt>
      <trkpt lat="44.64036" lon="-0.978">
        <ele>8.31</ele>
        <time>2021-07-01T18:20:50Z</time>
      </trkpt>
      <trkpt lat="44.63933" lon="-0.97856">
        <ele>4.46</ele>
        <time>2021-07-01T18:21:00Z</time>
      </trkpt>
      <trkpt lat="44.63906" lon="-0.97872">
        <ele>5.42</ele>
        <time>2021-07-01T18:21:06Z</time>
      </trkpt>
      <trkpt lat="44.63884" lon="-0.97883">
        <ele>5.91</ele>
        <time>2021-07-01T18:22:18Z</time>
      </trkpt>
      <trkpt lat="44.63818" lon="-0.97892">
        <ele>6.39</ele>
        <time>2021-07-01T18:22:30Z</time>
      </trkpt>
      <trkpt lat="44.63768" lon="-0.97869">
        <ele>6.87</ele>
        <time>2021-07-01T18:22:41Z</time>
      </trkpt>
      <trkpt lat="44.63733" lon="-0.97852">
        <ele>6.87</ele>
        <time>2021-07-01T18:22:50Z</time>
      </trkpt>
      <trkpt lat="44.63614" lon="-0.97835">
        <ele>6.39</ele>
        <time>2021-07-01T18:23:05Z</time>
      </trkpt>
      <trkpt lat="44.63503" lon="-0.97876">
        <ele>3.5</ele>
        <time>2021-07-01T18:23:16Z</time>
      </trkpt>
      <trkpt lat="44.63313" lon="-0.97954">
        <ele>1.1</ele>
        <time>2021-07-01T18:23:34Z</time>
      </trkpt>
      <trkpt lat="44.63284" lon="-0.97965">
        <ele>2.54</ele>
        <time>2021-07-01T18:23:41Z</time>
      </trkpt>
      <trkpt lat="44.63276" lon="-0.97968">
        <ele>2.06</ele>
        <time>2021-07-01T18:23:50Z</time>
      </trkpt>
      <trkpt lat="44.63271" lon="-0.97972">
        <ele>2.06</ele>
        <time>2021-07-01T18:24:00Z</time>
      </trkpt>
      <trkpt lat="44.63268" lon="-0.97976">
        <ele>2.06</ele>
        <time>2021-07-01T18:24:01Z</time>
      </trkpt>
      <trkpt lat="44.63267" lon="-0.97978">
        <ele>2.06</ele>
        <time>2021-07-01T18:24:02Z</time>
      </trkpt>
      <trkpt lat="44.63249" lon="-0.97988">
        <ele>2.06</ele>
        <time>2021-07-01T18:24:03Z</time>
      </trkpt>
      <trkpt lat="44.63245" lon="-0.97998">
        <ele>1.58</ele>
        <time>2021-07-01T18:24:04Z</time>
      </trkpt>
      <trkpt lat="44.63245" lon="-0.97998">
        <ele>2.06</ele>
        <time>2021-07-01T18:24:05Z</time>
      </trkpt>
      <trkpt lat="44.63241" lon="-0.98009">
        <ele>2.54</ele>
        <time>2021-07-01T18:24:06Z</time>
      </trkpt>
      <trkpt lat="44.63183" lon="-0.9814">
        <ele>1.58</ele>
        <time>2021-07-01T18:24:15Z</time>
      </trkpt>
      <trkpt lat="44.63089" lon="-0.98351">
        <ele>0.14</ele>
        <time>2021-07-01T18:24:26Z</time>
      </trkpt>
      <trkpt lat="44.62887" lon="-0.98799">
        <ele>0.62</ele>
        <time>2021-07-01T18:24:48Z</time>
      </trkpt>
      <trkpt lat="44.627" lon="-0.99212">
        <ele>1.58</ele>
        <time>2021-07-01T18:25:07Z</time>
      </trkpt>
      <trkpt lat="44.62665" lon="-0.99372">
        <ele>2.54</ele>
        <time>2021-07-01T18:25:14Z</time>
      </trkpt>
      <trkpt lat="44.62634" lon="-0.99675">
        <ele>3.02</ele>
        <time>2021-07-01T18:25:27Z</time>
      </trkpt>
      <trkpt lat="44.62613" lon="-0.99918">
        <ele>3.5</ele>
        <time>2021-07-01T18:25:40Z</time>
      </trkpt>
      <trkpt lat="44.62582" lon="-1.00196">
        <ele>3.98</ele>
        <time>2021-07-01T18:25:54Z</time>
      </trkpt>
      <trkpt lat="44.62571" lon="-1.00353">
        <ele>5.91</ele>
        <time>2021-07-01T18:26:02Z</time>
      </trkpt>
      <trkpt lat="44.62573" lon="-1.00378">
        <ele>6.87</ele>
        <time>2021-07-01T18:26:03Z</time>
      </trkpt>
      <trkpt lat="44.62578" lon="-1.00402">
        <ele>7.35</ele>
        <time>2021-07-01T18:26:04Z</time>
      </trkpt>
      <trkpt lat="44.62584" lon="-1.00425">
        <ele>7.83</ele>
        <time>2021-07-01T18:26:05Z</time>
      </trkpt>
      <trkpt lat="44.6259" lon="-1.00448">
        <ele>8.31</ele>
        <time>2021-07-01T18:26:06Z</time>
      </trkpt>
      <trkpt lat="44.62709" lon="-1.00861">
        <ele>15.04</ele>
        <time>2021-07-01T18:26:24Z</time>
      </trkpt>
      <trkpt lat="44.62766" lon="-1.01057">
        <ele>18.88</ele>
        <time>2021-07-01T18:26:35Z</time>
      </trkpt>
      <trkpt lat="44.62785" lon="-1.01099">
        <ele>20.32</ele>
        <time>2021-07-01T18:26:41Z</time>
      </trkpt>
      <trkpt lat="44.62793" lon="-1.01111">
        <ele>15.04</ele>
        <time>2021-07-01T18:26:50Z</time>
      </trkpt>
      <trkpt lat="44.62797" lon="-1.01116">
        <ele>15.04</ele>
        <time>2021-07-01T18:26:51Z</time>
      </trkpt>
      <trkpt lat="44.62792" lon="-1.01132">
        <ele>14.56</ele>
        <time>2021-07-01T18:26:52Z</time>
      </trkpt>
      <trkpt lat="44.62794" lon="-1.01139">
        <ele>14.56</ele>
        <time>2021-07-01T18:26:53Z</time>
      </trkpt>
      <trkpt lat="44.62796" lon="-1.0115">
        <ele>14.08</ele>
        <time>2021-07-01T18:26:54Z</time>
      </trkpt>
      <trkpt lat="44.62798" lon="-1.01162">
        <ele>15.04</ele>
        <time>2021-07-01T18:26:55Z</time>
      </trkpt>
      <trkpt lat="44.62804" lon="-1.01188">
        <ele>16.48</ele>
        <time>2021-07-01T18:26:56Z</time>
      </trkpt>
      <trkpt lat="44.62839" lon="-1.01327">
        <ele>14.56</ele>
        <time>2021-07-01T18:27:05Z</time>
      </trkpt>
      <trkpt lat="44.62887" lon="-1.016">
        <ele>13.6</ele>
        <time>2021-07-01T18:27:20Z</time>
      </trkpt>
      <trkpt lat="44.62902" lon="-1.0168">
        <ele>14.56</ele>
        <time>2021-07-01T18:27:25Z</time>
      </trkpt>
      <trkpt lat="44.62911" lon="-1.01709">
        <ele>13.6</ele>
        <time>2021-07-01T18:27:26Z</time>
      </trkpt>
      <trkpt lat="44.62911" lon="-1.01709">
        <ele>13.12</ele>
        <time>2021-07-01T18:27:27Z</time>
      </trkpt>
      <trkpt lat="44.62925" lon="-1.01727">
        <ele>11.67</ele>
        <time>2021-07-01T18:27:28Z</time>
      </trkpt>
      <trkpt lat="44.62932" lon="-1.01735">
        <ele>11.19</ele>
        <time>2021-07-01T18:27:29Z</time>
      </trkpt>
      <trkpt lat="44.62932" lon="-1.01735">
        <ele>10.23</ele>
        <time>2021-07-01T18:27:30Z</time>
      </trkpt>
      <trkpt lat="44.62997" lon="-1.01796">
        <ele>9.75</ele>
        <time>2021-07-01T18:27:38Z</time>
      </trkpt>
      <trkpt lat="44.63003" lon="-1.01804">
        <ele>9.75</ele>
        <time>2021-07-01T18:27:39Z</time>
      </trkpt>
      <trkpt lat="44.63008" lon="-1.01811">
        <ele>9.27</ele>
        <time>2021-07-01T18:27:40Z</time>
      </trkpt>
      <trkpt lat="44.63013" lon="-1.01819">
        <ele>9.27</ele>
        <time>2021-07-01T18:27:41Z</time>
      </trkpt>
      <trkpt lat="44.63017" lon="-1.01826">
        <ele>8.79</ele>
        <time>2021-07-01T18:27:42Z</time>
      </trkpt>
      <trkpt lat="44.63018" lon="-1.01827">
        <ele>8.79</ele>
        <time>2021-07-01T18:27:43Z</time>
      </trkpt>
      <trkpt lat="44.63033" lon="-1.01825">
        <ele>8.79</ele>
        <time>2021-07-01T18:27:44Z</time>
      </trkpt>
      <trkpt lat="44.63042" lon="-1.01848">
        <ele>8.31</ele>
        <time>2021-07-01T18:27:46Z</time>
      </trkpt>
      <trkpt lat="44.63048" lon="-1.0185">
        <ele>8.31</ele>
        <time>2021-07-01T18:27:47Z</time>
      </trkpt>
      <trkpt lat="44.6307" lon="-1.01862">
        <ele>8.31</ele>
        <time>2021-07-01T18:27:49Z</time>
      </trkpt>
      <trkpt lat="44.6307" lon="-1.01862">
        <ele>8.31</ele>
        <time>2021-07-01T18:27:50Z</time>
      </trkpt>
      <trkpt lat="44.6316" lon="-1.01943">
        <ele>7.35</ele>
        <time>2021-07-01T18:28:01Z</time>
      </trkpt>
      <trkpt lat="44.63246" lon="-1.0202">
        <ele>7.83</ele>
        <time>2021-07-01T18:28:15Z</time>
      </trkpt>
      <trkpt lat="44.63246" lon="-1.0202">
        <ele>7.83</ele>
        <time>2021-07-01T18:28:16Z</time>
      </trkpt>
      <trkpt lat="44.63251" lon="-1.02027">
        <ele>7.35</ele>
        <time>2021-07-01T18:28:17Z</time>
      </trkpt>
      <trkpt lat="44.63364" lon="-1.02075">
        <ele>5.91</ele>
        <time>2021-07-01T18:28:29Z</time>
      </trkpt>
      <trkpt lat="44.63471" lon="-1.021">
        <ele>4.46</ele>
        <time>2021-07-01T18:28:41Z</time>
      </trkpt>
      <trkpt lat="44.63502" lon="-1.021">
        <ele>5.42</ele>
        <time>2021-07-01T18:28:45Z</time>
      </trkpt>
      <trkpt lat="44.63508" lon="-1.021">
        <ele>5.42</ele>
        <time>2021-07-01T18:28:46Z</time>
      </trkpt>
      <trkpt lat="44.63514" lon="-1.02097">
        <ele>5.91</ele>
        <time>2021-07-01T18:28:47Z</time>
      </trkpt>
      <trkpt lat="44.63518" lon="-1.02093">
        <ele>6.39</ele>
        <time>2021-07-01T18:28:48Z</time>
      </trkpt>
      <trkpt lat="44.63524" lon="-1.02092">
        <ele>6.39</ele>
        <time>2021-07-01T18:28:49Z</time>
      </trkpt>
      <trkpt lat="44.63528" lon="-1.02095">
        <ele>6.39</ele>
        <time>2021-07-01T18:28:50Z</time>
      </trkpt>
      <trkpt lat="44.63528" lon="-1.02096">
        <ele>6.39</ele>
        <time>2021-07-01T18:28:51Z</time>
      </trkpt>
      <trkpt lat="44.63528" lon="-1.02103">
        <ele>6.87</ele>
        <time>2021-07-01T18:28:52Z</time>
      </trkpt>
      <trkpt lat="44.63528" lon="-1.02116">
        <ele>6.87</ele>
        <time>2021-07-01T18:28:53Z</time>
      </trkpt>
      <trkpt lat="44.63531" lon="-1.02121">
        <ele>6.39</ele>
        <time>2021-07-01T18:28:54Z</time>
      </trkpt>
      <trkpt lat="44.63533" lon="-1.02125">
        <ele>6.39</ele>
        <time>2021-07-01T18:28:55Z</time>
      </trkpt>
      <trkpt lat="44.63555" lon="-1.02164">
        <ele>7.35</ele>
        <time>2021-07-01T18:29:03Z</time>
      </trkpt>
      <trkpt lat="44.63557" lon="-1.0217">
        <ele>7.35</ele>
        <time>2021-07-01T18:29:04Z</time>
      </trkpt>
      <trkpt lat="44.6356" lon="-1.02186">
        <ele>7.83</ele>
        <time>2021-07-01T18:29:05Z</time>
      </trkpt>
      <trkpt lat="44.6356" lon="-1.02186">
        <ele>7.83</ele>
        <time>2021-07-01T18:29:06Z</time>
      </trkpt>
      <trkpt lat="44.63563" lon="-1.02204">
        <ele>7.35</ele>
        <time>2021-07-01T18:29:07Z</time>
      </trkpt>
      <trkpt lat="44.63579" lon="-1.02285">
        <ele>6.39</ele>
        <time>2021-07-01T18:29:17Z</time>
      </trkpt>
      <trkpt lat="44.6358" lon="-1.02292">
        <ele>6.87</ele>
        <time>2021-07-01T18:29:18Z</time>
      </trkpt>
      <trkpt lat="44.63584" lon="-1.0231">
        <ele>6.87</ele>
        <time>2021-07-01T18:29:19Z</time>
      </trkpt>
      <trkpt lat="44.63584" lon="-1.0231">
        <ele>6.87</ele>
        <time>2021-07-01T18:29:20Z</time>
      </trkpt>
      <trkpt lat="44.63588" lon="-1.0232">
        <ele>6.87</ele>
        <time>2021-07-01T18:29:21Z</time>
      </trkpt>
      <trkpt lat="44.63619" lon="-1.02393">
        <ele>7.35</ele>
        <time>2021-07-01T18:29:29Z</time>
      </trkpt>
      <trkpt lat="44.63705" lon="-1.02573">
        <ele>8.31</ele>
        <time>2021-07-01T18:29:40Z</time>
      </trkpt>
      <trkpt lat="44.63774" lon="-1.02813">
        <ele>5.42</ele>
        <time>2021-07-01T18:29:51Z</time>
      </trkpt>
      <trkpt lat="44.63825" lon="-1.03137">
        <ele>5.91</ele>
        <time>2021-07-01T18:30:04Z</time>
      </trkpt>
      <trkpt lat="44.63871" lon="-1.03428">
        <ele>5.91</ele>
        <time>2021-07-01T18:30:17Z</time>
      </trkpt>
      <trkpt lat="44.63912" lon="-1.03671">
        <ele>6.87</ele>
        <time>2021-07-01T18:30:29Z</time>
      </trkpt>
      <trkpt lat="44.63956" lon="-1.03945">
        <ele>6.87</ele>
        <time>2021-07-01T18:30:43Z</time>
      </trkpt>
      <trkpt lat="44.63987" lon="-1.04221">
        <ele>4.94</ele>
        <time>2021-07-01T18:30:57Z</time>
      </trkpt>
      <trkpt lat="44.64014" lon="-1.04452">
        <ele>7.35</ele>
        <time>2021-07-01T18:31:10Z</time>
      </trkpt>
      <trkpt lat="44.64056" lon="-1.04707">
        <ele>3.02</ele>
        <time>2021-07-01T18:31:25Z</time>
      </trkpt>
      <trkpt lat="44.64056" lon="-1.04895">
        <ele>2.06</ele>
        <time>2021-07-01T18:31:38Z</time>
      </trkpt>
      <trkpt lat="44.64024" lon="-1.0517">
        <ele>2.54</ele>
        <time>2021-07-01T18:31:55Z</time>
      </trkpt>
      <trkpt lat="44.64002" lon="-1.05286">
        <ele>3.02</ele>
        <time>2021-07-01T18:32:05Z</time>
      </trkpt>
      <trkpt lat="44.64002" lon="-1.05299">
        <ele>1.58</ele>
        <time>2021-07-01T18:32:16Z</time>
      </trkpt>
      <trkpt lat="44.64006" lon="-1.05314">
        <ele>1.58</ele>
        <time>2021-07-01T18:32:17Z</time>
      </trkpt>
      <trkpt lat="44.64006" lon="-1.05314">
        <ele>1.58</ele>
        <time>2021-07-01T18:32:18Z</time>
      </trkpt>
      <trkpt lat="44.64005" lon="-1.0532">
        <ele>1.58</ele>
        <time>2021-07-01T18:32:19Z</time>
      </trkpt>
      <trkpt lat="44.63993" lon="-1.05334">
        <ele>1.58</ele>
        <time>2021-07-01T18:32:21Z</time>
      </trkpt>
      <trkpt lat="44.63991" lon="-1.05344">
        <ele>1.58</ele>
        <time>2021-07-01T18:32:22Z</time>
      </trkpt>
      <trkpt lat="44.63961" lon="-1.05514">
        <ele>1.58</ele>
        <time>2021-07-01T18:32:34Z</time>
      </trkpt>
      <trkpt lat="44.63946" lon="-1.05611">
        <ele>0.62</ele>
        <time>2021-07-01T18:32:40Z</time>
      </trkpt>
      <trkpt lat="44.63943" lon="-1.05643">
        <ele>-0.34</ele>
        <time>2021-07-01T18:32:41Z</time>
      </trkpt>
      <trkpt lat="44.63947" lon="-1.05782">
        <ele>-0.82</ele>
        <time>2021-07-01T18:32:53Z</time>
      </trkpt>
      <trkpt lat="44.63951" lon="-1.0592">
        <ele>0.14</ele>
        <time>2021-07-01T18:33:06Z</time>
      </trkpt>
      <trkpt lat="44.63951" lon="-1.0593">
        <ele>0.14</ele>
        <time>2021-07-01T18:33:07Z</time>
      </trkpt>
      <trkpt lat="44.6395" lon="-1.05941">
        <ele>0.14</ele>
        <time>2021-07-01T18:33:08Z</time>
      </trkpt>
      <trkpt lat="44.63936" lon="-1.06067">
        <ele>1.1</ele>
        <time>2021-07-01T18:33:21Z</time>
      </trkpt>
      <trkpt lat="44.63925" lon="-1.06124">
        <ele>2.06</ele>
        <time>2021-07-01T18:33:32Z</time>
      </trkpt>
      <trkpt lat="44.63918" lon="-1.06165">
        <ele>3.02</ele>
        <time>2021-07-01T18:33:43Z</time>
      </trkpt>
      <trkpt lat="44.63907" lon="-1.06202">
        <ele>3.5</ele>
        <time>2021-07-01T18:33:49Z</time>
      </trkpt>
      <trkpt lat="44.63878" lon="-1.06294">
        <ele>3.5</ele>
        <time>2021-07-01T18:34:02Z</time>
      </trkpt>
      <trkpt lat="44.63852" lon="-1.06394">
        <ele>3.5</ele>
        <time>2021-07-01T18:34:16Z</time>
      </trkpt>
      <trkpt lat="44.63826" lon="-1.06493">
        <ele>3.98</ele>
        <time>2021-07-01T18:34:25Z</time>
      </trkpt>
      <trkpt lat="44.63759" lon="-1.06706">
        <ele>2.54</ele>
        <time>2021-07-01T18:34:41Z</time>
      </trkpt>
      <trkpt lat="44.63677" lon="-1.06929">
        <ele>1.58</ele>
        <time>2021-07-01T18:34:58Z</time>
      </trkpt>
      <trkpt lat="44.63664" lon="-1.07007">
        <ele>0.62</ele>
        <time>2021-07-01T18:35:06Z</time>
      </trkpt>
      <trkpt lat="44.63658" lon="-1.07086">
        <ele>0.14</ele>
        <time>2021-07-01T18:35:16Z</time>
      </trkpt>
      <trkpt lat="44.63652" lon="-1.07164">
        <ele>-0.34</ele>
        <time>2021-07-01T18:35:28Z</time>
      </trkpt>
      <trkpt lat="44.63647" lon="-1.07191">
        <ele>-0.34</ele>
        <time>2021-07-01T18:35:32Z</time>
      </trkpt>
      <trkpt lat="44.63647" lon="-1.07191">
        <ele>0.14</ele>
        <time>2021-07-01T18:35:33Z</time>
      </trkpt>
      <trkpt lat="44.63646" lon="-1.07197">
        <ele>-0.34</ele>
        <time>2021-07-01T18:35:34Z</time>
      </trkpt>
      <trkpt lat="44.63644" lon="-1.072">
        <ele>-0.34</ele>
        <time>2021-07-01T18:35:35Z</time>
      </trkpt>
      <trkpt lat="44.63641" lon="-1.07205">
        <ele>-0.34</ele>
        <time>2021-07-01T18:35:36Z</time>
      </trkpt>
      <trkpt lat="44.63635" lon="-1.07213">
        <ele>-0.34</ele>
        <time>2021-07-01T18:35:37Z</time>
      </trkpt>
      <trkpt lat="44.63635" lon="-1.07213">
        <ele>0.14</ele>
        <time>2021-07-01T18:35:38Z</time>
      </trkpt>
      <trkpt lat="44.63606" lon="-1.07251">
        <ele>0.14</ele>
        <time>2021-07-01T18:35:48Z</time>
      </trkpt>
      <trkpt lat="44.63599" lon="-1.07261">
        <ele>0.14</ele>
        <time>2021-07-01T18:35:49Z</time>
      </trkpt>
      <trkpt lat="44.63599" lon="-1.07261">
        <ele>0.14</ele>
        <time>2021-07-01T18:35:50Z</time>
      </trkpt>
      <trkpt lat="44.63601" lon="-1.07271">
        <ele>-0.34</ele>
        <time>2021-07-01T18:35:51Z</time>
      </trkpt>
      <trkpt lat="44.63601" lon="-1.07276">
        <ele>-0.34</ele>
        <time>2021-07-01T18:35:52Z</time>
      </trkpt>
      <trkpt lat="44.63593" lon="-1.07292">
        <ele>-0.34</ele>
        <time>2021-07-01T18:35:53Z</time>
      </trkpt>
      <trkpt lat="44.63595" lon="-1.07301">
        <ele>-0.34</ele>
        <time>2021-07-01T18:35:54Z</time>
      </trkpt>
      <trkpt lat="44.63597" lon="-1.0731">
        <ele>-0.34</ele>
        <time>2021-07-01T18:35:55Z</time>
      </trkpt>
      <trkpt lat="44.63608" lon="-1.07427">
        <ele>-0.82</ele>
        <time>2021-07-01T18:36:09Z</time>
      </trkpt>
      <trkpt lat="44.63614" lon="-1.07438">
        <ele>-0.82</ele>
        <time>2021-07-01T18:36:11Z</time>
      </trkpt>
      <trkpt lat="44.63614" lon="-1.07443">
        <ele>-0.82</ele>
        <time>2021-07-01T18:36:12Z</time>
      </trkpt>
      <trkpt lat="44.63614" lon="-1.07447">
        <ele>-0.82</ele>
        <time>2021-07-01T18:36:13Z</time>
      </trkpt>
      <trkpt lat="44.63608" lon="-1.07456">
        <ele>-0.82</ele>
        <time>2021-07-01T18:36:14Z</time>
      </trkpt>
      <trkpt lat="44.63608" lon="-1.07462">
        <ele>-0.82</ele>
        <time>2021-07-01T18:36:15Z</time>
      </trkpt>
      <trkpt lat="44.63609" lon="-1.07468">
        <ele>-0.34</ele>
        <time>2021-07-01T18:36:16Z</time>
      </trkpt>
      <trkpt lat="44.63615" lon="-1.07571">
        <ele>-0.34</ele>
        <time>2021-07-01T18:36:28Z</time>
      </trkpt>
      <trkpt lat="44.63623" lon="-1.07712">
        <ele>-0.34</ele>
        <time>2021-07-01T18:36:44Z</time>
      </trkpt>
      <trkpt lat="44.63642" lon="-1.07855">
        <ele>-0.34</ele>
        <time>2021-07-01T18:36:59Z</time>
      </trkpt>
      <trkpt lat="44.6365" lon="-1.07926">
        <ele>-0.34</ele>
        <time>2021-07-01T18:37:08Z</time>
      </trkpt>
      <trkpt lat="44.6365" lon="-1.07926">
        <ele>-0.34</ele>
        <time>2021-07-01T18:37:09Z</time>
      </trkpt>
      <trkpt lat="44.63649" lon="-1.07933">
        <ele>-0.34</ele>
        <time>2021-07-01T18:37:10Z</time>
      </trkpt>
      <trkpt lat="44.63628" lon="-1.08054">
        <ele>0.14</ele>
        <time>2021-07-01T18:37:24Z</time>
      </trkpt>
      <trkpt lat="44.63617" lon="-1.0815">
        <ele>0.14</ele>
        <time>2021-07-01T18:37:38Z</time>
      </trkpt>
      <trkpt lat="44.63627" lon="-1.08249">
        <ele>0.14</ele>
        <time>2021-07-01T18:37:53Z</time>
      </trkpt>
      <trkpt lat="44.63644" lon="-1.084">
        <ele>-0.34</ele>
        <time>2021-07-01T18:38:08Z</time>
      </trkpt>
      <trkpt lat="44.63648" lon="-1.08597">
        <ele>-0.82</ele>
        <time>2021-07-01T18:38:22Z</time>
      </trkpt>
      <trkpt lat="44.63651" lon="-1.08934">
        <ele>-1.3</ele>
        <time>2021-07-01T18:38:42Z</time>
      </trkpt>
      <trkpt lat="44.63633" lon="-1.09104">
        <ele>0.14</ele>
        <time>2021-07-01T18:38:52Z</time>
      </trkpt>
      <trkpt lat="44.63627" lon="-1.09285">
        <ele>-1.3</ele>
        <time>2021-07-01T18:39:02Z</time>
      </trkpt>
      <trkpt lat="44.63646" lon="-1.09544">
        <ele>-1.79</ele>
        <time>2021-07-01T18:39:20Z</time>
      </trkpt>
      <trkpt lat="44.63653" lon="-1.09619">
        <ele>-1.3</ele>
        <time>2021-07-01T18:39:28Z</time>
      </trkpt>
      <trkpt lat="44.63665" lon="-1.09743">
        <ele>-1.3</ele>
        <time>2021-07-01T18:39:41Z</time>
      </trkpt>
      <trkpt lat="44.63693" lon="-1.09897">
        <ele>-0.82</ele>
        <time>2021-07-01T18:39:56Z</time>
      </trkpt>
      <trkpt lat="44.63715" lon="-1.10005">
        <ele>-0.82</ele>
        <time>2021-07-01T18:40:07Z</time>
      </trkpt>
      <trkpt lat="44.63728" lon="-1.10093">
        <ele>-0.82</ele>
        <time>2021-07-01T18:40:19Z</time>
      </trkpt>
      <trkpt lat="44.63731" lon="-1.1012">
        <ele>-0.82</ele>
        <time>2021-07-01T18:40:28Z</time>
      </trkpt>
      <trkpt lat="44.63742" lon="-1.10203">
        <ele>-0.82</ele>
        <time>2021-07-01T18:40:37Z</time>
      </trkpt>
      <trkpt lat="44.63752" lon="-1.10355">
        <ele>-0.34</ele>
        <time>2021-07-01T18:40:49Z</time>
      </trkpt>
      <trkpt lat="44.63752" lon="-1.10558">
        <ele>-0.82</ele>
        <time>2021-07-01T18:41:05Z</time>
      </trkpt>
      <trkpt lat="44.63752" lon="-1.10597">
        <ele>-1.3</ele>
        <time>2021-07-01T18:41:13Z</time>
      </trkpt>
      <trkpt lat="44.63754" lon="-1.10687">
        <ele>-0.82</ele>
        <time>2021-07-01T18:41:23Z</time>
      </trkpt>
      <trkpt lat="44.63766" lon="-1.10885">
        <ele>-1.79</ele>
        <time>2021-07-01T18:41:37Z</time>
      </trkpt>
      <trkpt lat="44.63775" lon="-1.10988">
        <ele>-1.79</ele>
        <time>2021-07-01T18:41:46Z</time>
      </trkpt>
      <trkpt lat="44.63798" lon="-1.11137">
        <ele>-0.82</ele>
        <time>2021-07-01T18:42:00Z</time>
      </trkpt>
      <trkpt lat="44.63816" lon="-1.11219">
        <ele>-0.34</ele>
        <time>2021-07-01T18:42:10Z</time>
      </trkpt>
      <trkpt lat="44.63838" lon="-1.11279">
        <ele>-0.82</ele>
        <time>2021-07-01T18:42:20Z</time>
      </trkpt>
      <trkpt lat="44.6384" lon="-1.11282">
        <ele>-1.3</ele>
        <time>2021-07-01T18:42:21Z</time>
      </trkpt>
      <trkpt lat="44.6384" lon="-1.11282">
        <ele>-1.3</ele>
        <time>2021-07-01T18:42:22Z</time>
      </trkpt>
      <trkpt lat="44.63847" lon="-1.11284">
        <ele>-1.3</ele>
        <time>2021-07-01T18:42:23Z</time>
      </trkpt>
      <trkpt lat="44.63851" lon="-1.11288">
        <ele>-1.3</ele>
        <time>2021-07-01T18:42:24Z</time>
      </trkpt>
      <trkpt lat="44.63862" lon="-1.11294">
        <ele>-1.3</ele>
        <time>2021-07-01T18:42:27Z</time>
      </trkpt>
      <trkpt lat="44.63945" lon="-1.11329">
        <ele>-0.82</ele>
        <time>2021-07-01T18:42:38Z</time>
      </trkpt>
      <trkpt lat="44.64036" lon="-1.11363">
        <ele>0.62</ele>
        <time>2021-07-01T18:42:50Z</time>
      </trkpt>
      <trkpt lat="44.64109" lon="-1.11372">
        <ele>-0.34</ele>
        <time>2021-07-01T18:43:02Z</time>
      </trkpt>
      <trkpt lat="44.64223" lon="-1.11377">
        <ele>-1.3</ele>
        <time>2021-07-01T18:43:18Z</time>
      </trkpt>
      <trkpt lat="44.64292" lon="-1.1139">
        <ele>-0.82</ele>
        <time>2021-07-01T18:43:28Z</time>
      </trkpt>
      <trkpt lat="44.64298" lon="-1.11391">
        <ele>-0.82</ele>
        <time>2021-07-01T18:43:29Z</time>
      </trkpt>
      <trkpt lat="44.64303" lon="-1.11392">
        <ele>-0.34</ele>
        <time>2021-07-01T18:43:30Z</time>
      </trkpt>
      <trkpt lat="44.64307" lon="-1.11393">
        <ele>-0.34</ele>
        <time>2021-07-01T18:43:31Z</time>
      </trkpt>
      <trkpt lat="44.64309" lon="-1.11397">
        <ele>-0.34</ele>
        <time>2021-07-01T18:43:32Z</time>
      </trkpt>
      <trkpt lat="44.64313" lon="-1.11409">
        <ele>-0.34</ele>
        <time>2021-07-01T18:43:33Z</time>
      </trkpt>
      <trkpt lat="44.64315" lon="-1.11415">
        <ele>-0.34</ele>
        <time>2021-07-01T18:43:34Z</time>
      </trkpt>
      <trkpt lat="44.64315" lon="-1.11415">
        <ele>-0.82</ele>
        <time>2021-07-01T18:43:35Z</time>
      </trkpt>
      <trkpt lat="44.64341" lon="-1.11511">
        <ele>-1.3</ele>
        <time>2021-07-01T18:43:48Z</time>
      </trkpt>
      <trkpt lat="44.64377" lon="-1.11581">
        <ele>-0.34</ele>
        <time>2021-07-01T18:43:59Z</time>
      </trkpt>
      <trkpt lat="44.64395" lon="-1.11625">
        <ele>-0.82</ele>
        <time>2021-07-01T18:44:09Z</time>
      </trkpt>
      <trkpt lat="44.64376" lon="-1.11637">
        <ele>-0.82</ele>
        <time>2021-07-01T18:44:17Z</time>
      </trkpt>
      <trkpt lat="44.64322" lon="-1.11636">
        <ele>-1.3</ele>
        <time>2021-07-01T18:44:31Z</time>
      </trkpt>
      <trkpt lat="44.64319" lon="-1.11636">
        <ele>-1.3</ele>
        <time>2021-07-01T18:44:32Z</time>
      </trkpt>
      <trkpt lat="44.64317" lon="-1.11636">
        <ele>-1.3</ele>
        <time>2021-07-01T18:44:33Z</time>
      </trkpt>
      <trkpt lat="44.64316" lon="-1.11636">
        <ele>-1.3</ele>
        <time>2021-07-01T18:44:49Z</time>
      </trkpt>
      <trkpt lat="44.64321" lon="-1.11638">
        <ele>3.02</ele>
        <time>2021-07-01T18:47:44Z</time>
      </trkpt>
      <trkpt lat="44.64317" lon="-1.11624">
        <ele>-0.34</ele>
        <time>2021-07-01T18:48:56Z</time>
      </trkpt>
      <trkpt lat="44.64317" lon="-1.11625">
        <ele>-0.82</ele>
        <time>2021-07-01T18:53:22Z</time>
      </trkpt>
      <trkpt lat="44.64317" lon="-1.11625">
        <ele>-0.82</ele>
        <time>2021-07-01T18:55:11Z</time>
      </trkpt>
      <trkpt lat="44.6432" lon="-1.11631">
        <ele>-1.3</ele>
        <time>2021-07-01T18:55:27Z</time>
      </trkpt>
      <trkpt lat="44.64321" lon="-1.11632">
        <ele>-1.3</ele>
        <time>2021-07-01T18:55:30Z</time>
      </trkpt>
      <trkpt lat="44.64281" lon="-1.11636">
        <ele>-1.3</ele>
        <time>2021-07-01T18:55:45Z</time>
      </trkpt>
      <trkpt lat="44.64218" lon="-1.11655">
        <ele>-1.79</ele>
        <time>2021-07-01T18:56:02Z</time>
      </trkpt>
      <trkpt lat="44.6412" lon="-1.11692">
        <ele>-2.27</ele>
        <time>2021-07-01T18:56:25Z</time>
      </trkpt>
      <trkpt lat="44.6405" lon="-1.11719">
        <ele>-1.79</ele>
        <time>2021-07-01T18:56:41Z</time>
      </trkpt>
      <trkpt lat="44.64048" lon="-1.11719">
        <ele>-1.79</ele>
        <time>2021-07-01T18:56:42Z</time>
      </trkpt>
      <trkpt lat="44.64045" lon="-1.11713">
        <ele>-1.79</ele>
        <time>2021-07-01T18:56:43Z</time>
      </trkpt>
      <trkpt lat="44.64028" lon="-1.11676">
        <ele>-1.79</ele>
        <time>2021-07-01T18:56:48Z</time>
      </trkpt>
      <trkpt lat="44.64025" lon="-1.1167">
        <ele>-1.79</ele>
        <time>2021-07-01T18:56:49Z</time>
      </trkpt>
      <trkpt lat="44.64023" lon="-1.11656">
        <ele>-1.79</ele>
        <time>2021-07-01T18:56:50Z</time>
      </trkpt>
      <trkpt lat="44.64023" lon="-1.11656">
        <ele>-2.27</ele>
        <time>2021-07-01T18:56:51Z</time>
      </trkpt>
      <trkpt lat="44.64025" lon="-1.11651">
        <ele>-2.75</ele>
        <time>2021-07-01T18:56:52Z</time>
      </trkpt>
      <trkpt lat="44.64029" lon="-1.11645">
        <ele>-3.23</ele>
        <time>2021-07-01T18:56:53Z</time>
      </trkpt>
      <trkpt lat="44.64071" lon="-1.116">
        <ele>-4.19</ele>
        <time>2021-07-01T18:57:01Z</time>
      </trkpt>
      <trkpt lat="44.64074" lon="-1.11596">
        <ele>-4.67</ele>
        <time>2021-07-01T18:57:02Z</time>
      </trkpt>
      <trkpt lat="44.64075" lon="-1.11585">
        <ele>-4.67</ele>
        <time>2021-07-01T18:57:03Z</time>
      </trkpt>
      <trkpt lat="44.6407" lon="-1.11536">
        <ele>-4.19</ele>
        <time>2021-07-01T18:57:09Z</time>
      </trkpt>
      <trkpt lat="44.64069" lon="-1.11527">
        <ele>-4.19</ele>
        <time>2021-07-01T18:57:10Z</time>
      </trkpt>
      <trkpt lat="44.64069" lon="-1.11518">
        <ele>-4.19</ele>
        <time>2021-07-01T18:57:11Z</time>
      </trkpt>
      <trkpt lat="44.64069" lon="-1.11509">
        <ele>-4.19</ele>
        <time>2021-07-01T18:57:12Z</time>
      </trkpt>
      <trkpt lat="44.64071" lon="-1.11499">
        <ele>-3.71</ele>
        <time>2021-07-01T18:57:13Z</time>
      </trkpt>
      <trkpt lat="44.64075" lon="-1.11494">
        <ele>-3.71</ele>
        <time>2021-07-01T18:57:14Z</time>
      </trkpt>
      <trkpt lat="44.64078" lon="-1.1149">
        <ele>-3.23</ele>
        <time>2021-07-01T18:57:15Z</time>
      </trkpt>
      <trkpt lat="44.64082" lon="-1.1149">
        <ele>-3.23</ele>
        <time>2021-07-01T18:57:16Z</time>
      </trkpt>
      <trkpt lat="44.64088" lon="-1.1149">
        <ele>-3.23</ele>
        <time>2021-07-01T18:57:17Z</time>
      </trkpt>
      <trkpt lat="44.64094" lon="-1.1149">
        <ele>-3.23</ele>
        <time>2021-07-01T18:57:18Z</time>
      </trkpt>
      <trkpt lat="44.64152" lon="-1.11492">
        <ele>-3.71</ele>
        <time>2021-07-01T18:57:27Z</time>
      </trkpt>
      <trkpt lat="44.64157" lon="-1.11492">
        <ele>-3.71</ele>
        <time>2021-07-01T18:57:28Z</time>
      </trkpt>
      <trkpt lat="44.64161" lon="-1.11492">
        <ele>-3.71</ele>
        <time>2021-07-01T18:57:29Z</time>
      </trkpt>
      <trkpt lat="44.64166" lon="-1.11489">
        <ele>-3.71</ele>
        <time>2021-07-01T18:57:30Z</time>
      </trkpt>
      <trkpt lat="44.64167" lon="-1.11483">
        <ele>-3.71</ele>
        <time>2021-07-01T18:57:31Z</time>
      </trkpt>
      <trkpt lat="44.64168" lon="-1.11477">
        <ele>-3.71</ele>
        <time>2021-07-01T18:57:32Z</time>
      </trkpt>
      <trkpt lat="44.64182" lon="-1.11396">
        <ele>-2.27</ele>
        <time>2021-07-01T18:57:43Z</time>
      </trkpt>
      <trkpt lat="44.64183" lon="-1.11388">
        <ele>-1.79</ele>
        <time>2021-07-01T18:57:46Z</time>
      </trkpt>
      <trkpt lat="44.64176" lon="-1.11376">
        <ele>-1.79</ele>
        <time>2021-07-01T18:57:47Z</time>
      </trkpt>
      <trkpt lat="44.64173" lon="-1.11376">
        <ele>-1.79</ele>
        <time>2021-07-01T18:57:48Z</time>
      </trkpt>
      <trkpt lat="44.64108" lon="-1.11372">
        <ele>-0.82</ele>
        <time>2021-07-01T18:58:00Z</time>
      </trkpt>
      <trkpt lat="44.6404" lon="-1.11364">
        <ele>0.14</ele>
        <time>2021-07-01T18:58:13Z</time>
      </trkpt>
      <trkpt lat="44.63969" lon="-1.11341">
        <ele>0.14</ele>
        <time>2021-07-01T18:58:24Z</time>
      </trkpt>
      <trkpt lat="44.63858" lon="-1.11292">
        <ele>1.58</ele>
        <time>2021-07-01T18:58:41Z</time>
      </trkpt>
      <trkpt lat="44.63853" lon="-1.1129">
        <ele>1.58</ele>
        <time>2021-07-01T18:58:46Z</time>
      </trkpt>
      <trkpt lat="44.63853" lon="-1.1129">
        <ele>1.58</ele>
        <time>2021-07-01T18:58:47Z</time>
      </trkpt>
      <trkpt lat="44.63852" lon="-1.11292">
        <ele>1.1</ele>
        <time>2021-07-01T18:58:48Z</time>
      </trkpt>
      <trkpt lat="44.63846" lon="-1.11301">
        <ele>1.1</ele>
        <time>2021-07-01T18:58:49Z</time>
      </trkpt>
      <trkpt lat="44.63846" lon="-1.11301">
        <ele>1.1</ele>
        <time>2021-07-01T18:58:50Z</time>
      </trkpt>
      <trkpt lat="44.63848" lon="-1.11306">
        <ele>1.1</ele>
        <time>2021-07-01T18:58:51Z</time>
      </trkpt>
      <trkpt lat="44.6385" lon="-1.11312">
        <ele>1.1</ele>
        <time>2021-07-01T18:58:52Z</time>
      </trkpt>
      <trkpt lat="44.6388" lon="-1.114">
        <ele>-0.82</ele>
        <time>2021-07-01T18:59:02Z</time>
      </trkpt>
      <trkpt lat="44.63919" lon="-1.11523">
        <ele>-2.27</ele>
        <time>2021-07-01T18:59:15Z</time>
      </trkpt>
      <trkpt lat="44.63928" lon="-1.11553">
        <ele>-3.23</ele>
        <time>2021-07-01T18:59:25Z</time>
      </trkpt>
      <trkpt lat="44.63947" lon="-1.11597">
        <ele>-3.23</ele>
        <time>2021-07-01T18:59:31Z</time>
      </trkpt>
      <trkpt lat="44.63966" lon="-1.11679">
        <ele>-4.19</ele>
        <time>2021-07-01T18:59:40Z</time>
      </trkpt>
      <trkpt lat="44.63969" lon="-1.11689">
        <ele>-4.67</ele>
        <time>2021-07-01T18:59:41Z</time>
      </trkpt>
      <trkpt lat="44.6397" lon="-1.11701">
        <ele>-4.67</ele>
        <time>2021-07-01T18:59:42Z</time>
      </trkpt>
      <trkpt lat="44.6397" lon="-1.11712">
        <ele>-5.15</ele>
        <time>2021-07-01T18:59:43Z</time>
      </trkpt>
      <trkpt lat="44.63966" lon="-1.11739">
        <ele>-5.63</ele>
        <time>2021-07-01T18:59:44Z</time>
      </trkpt>
      <trkpt lat="44.63966" lon="-1.11739">
        <ele>-7.07</ele>
        <time>2021-07-01T18:59:45Z</time>
      </trkpt>
      <trkpt lat="44.63963" lon="-1.11753">
        <ele>-7.07</ele>
        <time>2021-07-01T18:59:46Z</time>
      </trkpt>
      <trkpt lat="44.63914" lon="-1.11986">
        <ele>-6.11</ele>
        <time>2021-07-01T19:00:02Z</time>
      </trkpt>
      <trkpt lat="44.63873" lon="-1.12129">
        <ele>-4.67</ele>
        <time>2021-07-01T19:00:13Z</time>
      </trkpt>
      <trkpt lat="44.6387" lon="-1.1214">
        <ele>-5.15</ele>
        <time>2021-07-01T19:00:14Z</time>
      </trkpt>
      <trkpt lat="44.63868" lon="-1.12146">
        <ele>-5.15</ele>
        <time>2021-07-01T19:00:15Z</time>
      </trkpt>
      <trkpt lat="44.63872" lon="-1.1216">
        <ele>-5.15</ele>
        <time>2021-07-01T19:00:16Z</time>
      </trkpt>
      <trkpt lat="44.63869" lon="-1.12172">
        <ele>-4.67</ele>
        <time>2021-07-01T19:00:17Z</time>
      </trkpt>
      <trkpt lat="44.63868" lon="-1.12174">
        <ele>-4.19</ele>
        <time>2021-07-01T19:00:18Z</time>
      </trkpt>
      <trkpt lat="44.63856" lon="-1.12183">
        <ele>-4.67</ele>
        <time>2021-07-01T19:00:19Z</time>
      </trkpt>
      <trkpt lat="44.63854" lon="-1.12192">
        <ele>-5.15</ele>
        <time>2021-07-01T19:00:20Z</time>
      </trkpt>
      <trkpt lat="44.63807" lon="-1.12336">
        <ele>-5.63</ele>
        <time>2021-07-01T19:00:31Z</time>
      </trkpt>
      <trkpt lat="44.63752" lon="-1.12511">
        <ele>-4.67</ele>
        <time>2021-07-01T19:00:45Z</time>
      </trkpt>
      <trkpt lat="44.63735" lon="-1.12582">
        <ele>-5.15</ele>
        <time>2021-07-01T19:00:53Z</time>
      </trkpt>
      <trkpt lat="44.63721" lon="-1.1272">
        <ele>-5.63</ele>
        <time>2021-07-01T19:01:04Z</time>
      </trkpt>
      <trkpt lat="44.63715" lon="-1.12816">
        <ele>-5.63</ele>
        <time>2021-07-01T19:01:15Z</time>
      </trkpt>
      <trkpt lat="44.6372" lon="-1.12885">
        <ele>-5.63</ele>
        <time>2021-07-01T19:01:26Z</time>
      </trkpt>
      <trkpt lat="44.63722" lon="-1.12891">
        <ele>-5.63</ele>
        <time>2021-07-01T19:01:27Z</time>
      </trkpt>
      <trkpt lat="44.63712" lon="-1.12909">
        <ele>-5.63</ele>
        <time>2021-07-01T19:01:29Z</time>
      </trkpt>
      <trkpt lat="44.637" lon="-1.13029">
        <ele>-5.15</ele>
        <time>2021-07-01T19:01:43Z</time>
      </trkpt>
      <trkpt lat="44.63704" lon="-1.13047">
        <ele>-5.15</ele>
        <time>2021-07-01T19:01:44Z</time>
      </trkpt>
      <trkpt lat="44.63707" lon="-1.13051">
        <ele>-5.15</ele>
        <time>2021-07-01T19:01:46Z</time>
      </trkpt>
      <trkpt lat="44.63709" lon="-1.13064">
        <ele>-5.15</ele>
        <time>2021-07-01T19:01:47Z</time>
      </trkpt>
      <trkpt lat="44.63701" lon="-1.13083">
        <ele>-4.67</ele>
        <time>2021-07-01T19:01:49Z</time>
      </trkpt>
      <trkpt lat="44.63701" lon="-1.13218">
        <ele>-4.19</ele>
        <time>2021-07-01T19:01:58Z</time>
      </trkpt>
      <trkpt lat="44.63709" lon="-1.13285">
        <ele>-1.3</ele>
        <time>2021-07-01T19:02:02Z</time>
      </trkpt>
      <trkpt lat="44.63713" lon="-1.13302">
        <ele>0.14</ele>
        <time>2021-07-01T19:02:03Z</time>
      </trkpt>
      <trkpt lat="44.63725" lon="-1.13332">
        <ele>1.1</ele>
        <time>2021-07-01T19:02:05Z</time>
      </trkpt>
      <trkpt lat="44.63733" lon="-1.13348">
        <ele>-0.34</ele>
        <time>2021-07-01T19:02:06Z</time>
      </trkpt>
      <trkpt lat="44.63741" lon="-1.13364">
        <ele>-1.3</ele>
        <time>2021-07-01T19:02:07Z</time>
      </trkpt>
      <trkpt lat="44.63837" lon="-1.1354">
        <ele>-1.3</ele>
        <time>2021-07-01T19:02:19Z</time>
      </trkpt>
      <trkpt lat="44.63868" lon="-1.13624">
        <ele>-3.71</ele>
        <time>2021-07-01T19:02:24Z</time>
      </trkpt>
      <trkpt lat="44.63872" lon="-1.13643">
        <ele>-2.75</ele>
        <time>2021-07-01T19:02:25Z</time>
      </trkpt>
      <trkpt lat="44.63876" lon="-1.13659">
        <ele>-2.75</ele>
        <time>2021-07-01T19:02:26Z</time>
      </trkpt>
      <trkpt lat="44.63874" lon="-1.13845">
        <ele>-3.71</ele>
        <time>2021-07-01T19:02:37Z</time>
      </trkpt>
      <trkpt lat="44.63874" lon="-1.1388">
        <ele>-5.63</ele>
        <time>2021-07-01T19:02:40Z</time>
      </trkpt>
      <trkpt lat="44.63874" lon="-1.1389">
        <ele>-4.67</ele>
        <time>2021-07-01T19:02:41Z</time>
      </trkpt>
      <trkpt lat="44.63879" lon="-1.13898">
        <ele>-4.67</ele>
        <time>2021-07-01T19:02:42Z</time>
      </trkpt>
      <trkpt lat="44.63882" lon="-1.13906">
        <ele>-4.67</ele>
        <time>2021-07-01T19:02:43Z</time>
      </trkpt>
      <trkpt lat="44.63874" lon="-1.13919">
        <ele>-4.67</ele>
        <time>2021-07-01T19:02:44Z</time>
      </trkpt>
      <trkpt lat="44.63874" lon="-1.13923">
        <ele>-4.19</ele>
        <time>2021-07-01T19:02:45Z</time>
      </trkpt>
      <trkpt lat="44.63873" lon="-1.13931">
        <ele>-4.19</ele>
        <time>2021-07-01T19:02:46Z</time>
      </trkpt>
      <trkpt lat="44.63858" lon="-1.14031">
        <ele>-0.82</ele>
        <time>2021-07-01T19:02:54Z</time>
      </trkpt>
      <trkpt lat="44.63804" lon="-1.14185">
        <ele>-0.82</ele>
        <time>2021-07-01T19:03:06Z</time>
      </trkpt>
      <trkpt lat="44.63783" lon="-1.14288">
        <ele>-4.19</ele>
        <time>2021-07-01T19:03:15Z</time>
      </trkpt>
      <trkpt lat="44.63782" lon="-1.14309">
        <ele>-4.19</ele>
        <time>2021-07-01T19:03:17Z</time>
      </trkpt>
      <trkpt lat="44.63782" lon="-1.14309">
        <ele>-4.19</ele>
        <time>2021-07-01T19:03:18Z</time>
      </trkpt>
      <trkpt lat="44.63785" lon="-1.1432">
        <ele>-3.71</ele>
        <time>2021-07-01T19:03:19Z</time>
      </trkpt>
      <trkpt lat="44.63788" lon="-1.14323">
        <ele>-3.71</ele>
        <time>2021-07-01T19:03:20Z</time>
      </trkpt>
      <trkpt lat="44.63788" lon="-1.14323">
        <ele>-3.71</ele>
        <time>2021-07-01T19:03:21Z</time>
      </trkpt>
      <trkpt lat="44.6379" lon="-1.14326">
        <ele>-3.71</ele>
        <time>2021-07-01T19:03:22Z</time>
      </trkpt>
      <trkpt lat="44.63791" lon="-1.14333">
        <ele>-3.71</ele>
        <time>2021-07-01T19:03:23Z</time>
      </trkpt>
      <trkpt lat="44.63791" lon="-1.14333">
        <ele>-4.19</ele>
        <time>2021-07-01T19:03:24Z</time>
      </trkpt>
      <trkpt lat="44.63791" lon="-1.14336">
        <ele>-4.67</ele>
        <time>2021-07-01T19:03:25Z</time>
      </trkpt>
      <trkpt lat="44.6379" lon="-1.14337">
        <ele>-4.67</ele>
        <time>2021-07-01T19:03:26Z</time>
      </trkpt>
      <trkpt lat="44.6379" lon="-1.14337">
        <ele>-4.67</ele>
        <time>2021-07-01T19:03:27Z</time>
      </trkpt>
      <trkpt lat="44.63785" lon="-1.14351">
        <ele>-5.15</ele>
        <time>2021-07-01T19:03:29Z</time>
      </trkpt>
      <trkpt lat="44.63785" lon="-1.14356">
        <ele>-5.15</ele>
        <time>2021-07-01T19:03:30Z</time>
      </trkpt>
      <trkpt lat="44.63786" lon="-1.14361">
        <ele>-4.67</ele>
        <time>2021-07-01T19:03:31Z</time>
      </trkpt>
      <trkpt lat="44.63787" lon="-1.14367">
        <ele>-4.67</ele>
        <time>2021-07-01T19:03:32Z</time>
      </trkpt>
      <trkpt lat="44.63788" lon="-1.14373">
        <ele>-4.67</ele>
        <time>2021-07-01T19:03:33Z</time>
      </trkpt>
      <trkpt lat="44.63789" lon="-1.14378">
        <ele>-4.67</ele>
        <time>2021-07-01T19:03:34Z</time>
      </trkpt>
      <trkpt lat="44.63796" lon="-1.1441">
        <ele>-6.11</ele>
        <time>2021-07-01T19:03:44Z</time>
      </trkpt>
      <trkpt lat="44.63802" lon="-1.14428">
        <ele>-5.63</ele>
        <time>2021-07-01T19:03:54Z</time>
      </trkpt>
      <trkpt lat="44.63813" lon="-1.14451">
        <ele>-6.11</ele>
        <time>2021-07-01T19:04:01Z</time>
      </trkpt>
      <trkpt lat="44.63854" lon="-1.14536">
        <ele>-6.59</ele>
        <time>2021-07-01T19:04:14Z</time>
      </trkpt>
      <trkpt lat="44.63909" lon="-1.14655">
        <ele>-5.63</ele>
        <time>2021-07-01T19:04:31Z</time>
      </trkpt>
      <trkpt lat="44.63931" lon="-1.14684">
        <ele>-6.11</ele>
        <time>2021-07-01T19:04:40Z</time>
      </trkpt>
      <trkpt lat="44.63934" lon="-1.14707">
        <ele>-6.59</ele>
        <time>2021-07-01T19:04:43Z</time>
      </trkpt>
      <trkpt lat="44.63941" lon="-1.14722">
        <ele>-6.59</ele>
        <time>2021-07-01T19:04:44Z</time>
      </trkpt>
      <trkpt lat="44.63985" lon="-1.14815">
        <ele>-8.03</ele>
        <time>2021-07-01T19:04:51Z</time>
      </trkpt>
      <trkpt lat="44.64071" lon="-1.14999">
        <ele>-4.19</ele>
        <time>2021-07-01T19:05:02Z</time>
      </trkpt>
      <trkpt lat="44.64212" lon="-1.15294">
        <ele>-6.11</ele>
        <time>2021-07-01T19:05:19Z</time>
      </trkpt>
      <trkpt lat="44.64308" lon="-1.15416">
        <ele>-7.55</ele>
        <time>2021-07-01T19:05:27Z</time>
      </trkpt>
      <trkpt lat="44.64446" lon="-1.15488">
        <ele>-7.07</ele>
        <time>2021-07-01T19:05:36Z</time>
      </trkpt>
      <trkpt lat="44.64592" lon="-1.15475">
        <ele>-6.59</ele>
        <time>2021-07-01T19:05:44Z</time>
      </trkpt>
      <trkpt lat="44.647" lon="-1.15407">
        <ele>-2.75</ele>
        <time>2021-07-01T19:05:52Z</time>
      </trkpt>
      <trkpt lat="44.64752" lon="-1.15348">
        <ele>-4.19</ele>
        <time>2021-07-01T19:05:58Z</time>
      </trkpt>
      <trkpt lat="44.64764" lon="-1.15331">
        <ele>-3.71</ele>
        <time>2021-07-01T19:06:05Z</time>
      </trkpt>
      <trkpt lat="44.64787" lon="-1.15304">
        <ele>-2.75</ele>
        <time>2021-07-01T19:06:16Z</time>
      </trkpt>
      <trkpt lat="44.64793" lon="-1.15297">
        <ele>-3.23</ele>
        <time>2021-07-01T19:06:18Z</time>
      </trkpt>
      <trkpt lat="44.64802" lon="-1.15287">
        <ele>-3.23</ele>
        <time>2021-07-01T19:06:19Z</time>
      </trkpt>
      <trkpt lat="44.64805" lon="-1.1528">
        <ele>-3.23</ele>
        <time>2021-07-01T19:06:21Z</time>
      </trkpt>
      <trkpt lat="44.64808" lon="-1.15271">
        <ele>-3.23</ele>
        <time>2021-07-01T19:06:22Z</time>
      </trkpt>
      <trkpt lat="44.64834" lon="-1.15247">
        <ele>-2.75</ele>
        <time>2021-07-01T19:06:26Z</time>
      </trkpt>
      <trkpt lat="44.64841" lon="-1.15239">
        <ele>-3.23</ele>
        <time>2021-07-01T19:06:27Z</time>
      </trkpt>
      <trkpt lat="44.64919" lon="-1.15123">
        <ele>-3.23</ele>
        <time>2021-07-01T19:06:38Z</time>
      </trkpt>
      <trkpt lat="44.64982" lon="-1.15039">
        <ele>-3.23</ele>
        <time>2021-07-01T19:06:49Z</time>
      </trkpt>
      <trkpt lat="44.64996" lon="-1.15022">
        <ele>-2.75</ele>
        <time>2021-07-01T19:06:56Z</time>
      </trkpt>
      <trkpt lat="44.65006" lon="-1.15007">
        <ele>-2.27</ele>
        <time>2021-07-01T19:07:01Z</time>
      </trkpt>
      <trkpt lat="44.65008" lon="-1.15003">
        <ele>-2.27</ele>
        <time>2021-07-01T19:07:02Z</time>
      </trkpt>
      <trkpt lat="44.65014" lon="-1.14995">
        <ele>-2.27</ele>
        <time>2021-07-01T19:07:04Z</time>
      </trkpt>
      <trkpt lat="44.65015" lon="-1.14989">
        <ele>-2.27</ele>
        <time>2021-07-01T19:07:05Z</time>
      </trkpt>
      <trkpt lat="44.65017" lon="-1.14982">
        <ele>-2.27</ele>
        <time>2021-07-01T19:07:06Z</time>
      </trkpt>
      <trkpt lat="44.65061" lon="-1.14921">
        <ele>-2.27</ele>
        <time>2021-07-01T19:07:14Z</time>
      </trkpt>
      <trkpt lat="44.65156" lon="-1.14791">
        <ele>-2.27</ele>
        <time>2021-07-01T19:07:27Z</time>
      </trkpt>
      <trkpt lat="44.65232" lon="-1.14713">
        <ele>-2.27</ele>
        <time>2021-07-01T19:07:38Z</time>
      </trkpt>
      <trkpt lat="44.65321" lon="-1.14658">
        <ele>-0.82</ele>
        <time>2021-07-01T19:07:51Z</time>
      </trkpt>
      <trkpt lat="44.65341" lon="-1.14649">
        <ele>-0.34</ele>
        <time>2021-07-01T19:07:55Z</time>
      </trkpt>
      <trkpt lat="44.65344" lon="-1.14648">
        <ele>0.14</ele>
        <time>2021-07-01T19:07:56Z</time>
      </trkpt>
      <trkpt lat="44.65347" lon="-1.14641">
        <ele>0.14</ele>
        <time>2021-07-01T19:07:57Z</time>
      </trkpt>
      <trkpt lat="44.65346" lon="-1.14642">
        <ele>0.14</ele>
        <time>2021-07-01T19:07:58Z</time>
      </trkpt>
      <trkpt lat="44.65346" lon="-1.14642">
        <ele>-0.34</ele>
        <time>2021-07-01T19:07:59Z</time>
      </trkpt>
      <trkpt lat="44.65347" lon="-1.14634">
        <ele>-0.34</ele>
        <time>2021-07-01T19:08:00Z</time>
      </trkpt>
      <trkpt lat="44.65345" lon="-1.14629">
        <ele>-0.34</ele>
        <time>2021-07-01T19:08:01Z</time>
      </trkpt>
      <trkpt lat="44.65343" lon="-1.14622">
        <ele>-0.82</ele>
        <time>2021-07-01T19:08:02Z</time>
      </trkpt>
      <trkpt lat="44.65341" lon="-1.14614">
        <ele>-0.82</ele>
        <time>2021-07-01T19:08:03Z</time>
      </trkpt>
      <trkpt lat="44.65312" lon="-1.14505">
        <ele>-1.79</ele>
        <time>2021-07-01T19:08:15Z</time>
      </trkpt>
      <trkpt lat="44.65273" lon="-1.14387">
        <ele>-2.27</ele>
        <time>2021-07-01T19:08:28Z</time>
      </trkpt>
      <trkpt lat="44.65225" lon="-1.14239">
        <ele>-2.75</ele>
        <time>2021-07-01T19:08:48Z</time>
      </trkpt>
      <trkpt lat="44.65219" lon="-1.14201">
        <ele>-1.79</ele>
        <time>2021-07-01T19:08:57Z</time>
      </trkpt>
      <trkpt lat="44.65221" lon="-1.14196">
        <ele>-2.27</ele>
        <time>2021-07-01T19:08:59Z</time>
      </trkpt>
      <trkpt lat="44.65222" lon="-1.14195">
        <ele>-2.27</ele>
        <time>2021-07-01T19:09:00Z</time>
      </trkpt>
      <trkpt lat="44.65228" lon="-1.14194">
        <ele>-2.27</ele>
        <time>2021-07-01T19:09:01Z</time>
      </trkpt>
      <trkpt lat="44.65229" lon="-1.14196">
        <ele>-2.27</ele>
        <time>2021-07-01T19:09:02Z</time>
      </trkpt>
      <trkpt lat="44.6523" lon="-1.142">
        <ele>-2.75</ele>
        <time>2021-07-01T19:09:03Z</time>
      </trkpt>
      <trkpt lat="44.65232" lon="-1.14206">
        <ele>-3.23</ele>
        <time>2021-07-01T19:09:04Z</time>
      </trkpt>
      <trkpt lat="44.65255" lon="-1.14282">
        <ele>-3.71</ele>
        <time>2021-07-01T19:09:13Z</time>
      </trkpt>
      <trkpt lat="44.65264" lon="-1.14313">
        <ele>-3.71</ele>
        <time>2021-07-01T19:09:19Z</time>
      </trkpt>
      <trkpt lat="44.65266" lon="-1.14316">
        <ele>-4.19</ele>
        <time>2021-07-01T19:09:20Z</time>
      </trkpt>
      <trkpt lat="44.65266" lon="-1.14318">
        <ele>-4.19</ele>
        <time>2021-07-01T19:09:21Z</time>
      </trkpt>
      <trkpt lat="44.65272" lon="-1.14316">
        <ele>-4.19</ele>
        <time>2021-07-01T19:09:22Z</time>
      </trkpt>
      <trkpt lat="44.65274" lon="-1.14312">
        <ele>-4.19</ele>
        <time>2021-07-01T19:09:23Z</time>
      </trkpt>
      <trkpt lat="44.65275" lon="-1.14307">
        <ele>-4.19</ele>
        <time>2021-07-01T19:09:24Z</time>
      </trkpt>
      <trkpt lat="44.65278" lon="-1.143">
        <ele>-4.19</ele>
        <time>2021-07-01T19:09:25Z</time>
      </trkpt>
      <trkpt lat="44.65335" lon="-1.14213">
        <ele>-5.63</ele>
        <time>2021-07-01T19:09:39Z</time>
      </trkpt>
      <trkpt lat="44.65378" lon="-1.14143">
        <ele>-6.11</ele>
        <time>2021-07-01T19:09:54Z</time>
      </trkpt>
      <trkpt lat="44.65382" lon="-1.14137">
        <ele>-6.11</ele>
        <time>2021-07-01T19:09:59Z</time>
      </trkpt>
      <trkpt lat="44.65384" lon="-1.14134">
        <ele>-5.63</ele>
        <time>2021-07-01T19:10:00Z</time>
      </trkpt>
      <trkpt lat="44.65388" lon="-1.14139">
        <ele>-6.11</ele>
        <time>2021-07-01T19:10:01Z</time>
      </trkpt>
      <trkpt lat="44.6539" lon="-1.14142">
        <ele>-6.11</ele>
        <time>2021-07-01T19:10:02Z</time>
      </trkpt>
      <trkpt lat="44.65393" lon="-1.14146">
        <ele>-6.11</ele>
        <time>2021-07-01T19:10:03Z</time>
      </trkpt>
      <trkpt lat="44.65396" lon="-1.1415">
        <ele>-6.11</ele>
        <time>2021-07-01T19:10:04Z</time>
      </trkpt>
      <trkpt lat="44.6544" lon="-1.14213">
        <ele>-4.19</ele>
        <time>2021-07-01T19:10:17Z</time>
      </trkpt>
      <trkpt lat="44.65502" lon="-1.14301">
        <ele>-3.71</ele>
        <time>2021-07-01T19:10:32Z</time>
      </trkpt>
      <trkpt lat="44.65518" lon="-1.14328">
        <ele>-4.19</ele>
        <time>2021-07-01T19:10:38Z</time>
      </trkpt>
      <trkpt lat="44.6552" lon="-1.14333">
        <ele>-4.67</ele>
        <time>2021-07-01T19:10:39Z</time>
      </trkpt>
      <trkpt lat="44.65522" lon="-1.14338">
        <ele>-4.67</ele>
        <time>2021-07-01T19:10:40Z</time>
      </trkpt>
      <trkpt lat="44.65533" lon="-1.14361">
        <ele>-4.67</ele>
        <time>2021-07-01T19:10:45Z</time>
      </trkpt>
      <trkpt lat="44.65533" lon="-1.14361">
        <ele>-4.67</ele>
        <time>2021-07-01T19:10:46Z</time>
      </trkpt>
      <trkpt lat="44.65536" lon="-1.14358">
        <ele>-4.67</ele>
        <time>2021-07-01T19:10:47Z</time>
      </trkpt>
      <trkpt lat="44.65538" lon="-1.14356">
        <ele>-4.67</ele>
        <time>2021-07-01T19:10:48Z</time>
      </trkpt>
      <trkpt lat="44.6554" lon="-1.14355">
        <ele>-4.19</ele>
        <time>2021-07-01T19:10:49Z</time>
      </trkpt>
      <trkpt lat="44.65581" lon="-1.14319">
        <ele>-4.19</ele>
        <time>2021-07-01T19:11:01Z</time>
      </trkpt>
      <trkpt lat="44.6561" lon="-1.14303">
        <ele>-5.15</ele>
        <time>2021-07-01T19:11:12Z</time>
      </trkpt>
      <trkpt lat="44.65614" lon="-1.14303">
        <ele>-4.67</ele>
        <time>2021-07-01T19:11:13Z</time>
      </trkpt>
      <trkpt lat="44.65618" lon="-1.14303">
        <ele>-4.67</ele>
        <time>2021-07-01T19:11:14Z</time>
      </trkpt>
      <trkpt lat="44.65619" lon="-1.14303">
        <ele>-4.67</ele>
        <time>2021-07-01T19:11:15Z</time>
      </trkpt>
      <trkpt lat="44.65621" lon="-1.14308">
        <ele>-4.67</ele>
        <time>2021-07-01T19:11:16Z</time>
      </trkpt>
      <trkpt lat="44.65623" lon="-1.14314">
        <ele>-4.67</ele>
        <time>2021-07-01T19:11:17Z</time>
      </trkpt>
      <trkpt lat="44.65654" lon="-1.14394">
        <ele>-4.67</ele>
        <time>2021-07-01T19:11:34Z</time>
      </trkpt>
      <trkpt lat="44.65661" lon="-1.1441">
        <ele>-5.15</ele>
        <time>2021-07-01T19:11:39Z</time>
      </trkpt>
      <trkpt lat="44.65666" lon="-1.1441">
        <ele>-5.15</ele>
        <time>2021-07-01T19:11:40Z</time>
      </trkpt>
      <trkpt lat="44.65668" lon="-1.14408">
        <ele>-5.15</ele>
        <time>2021-07-01T19:11:41Z</time>
      </trkpt>
      <trkpt lat="44.65676" lon="-1.14404">
        <ele>-4.19</ele>
        <time>2021-07-01T19:11:54Z</time>
      </trkpt>
      <trkpt lat="44.6568" lon="-1.14401">
        <ele>-4.19</ele>
        <time>2021-07-01T19:11:55Z</time>
      </trkpt>
      <trkpt lat="44.65682" lon="-1.14413">
        <ele>-3.23</ele>
        <time>2021-07-01T19:12:06Z</time>
      </trkpt>
      <trkpt lat="44.65671" lon="-1.14407">
        <ele>-3.71</ele>
        <time>2021-07-01T19:12:11Z</time>
      </trkpt>
      <trkpt lat="44.65669" lon="-1.14408">
        <ele>-4.19</ele>
        <time>2021-07-01T19:12:12Z</time>
      </trkpt>
      <trkpt lat="44.65665" lon="-1.14424">
        <ele>-3.71</ele>
        <time>2021-07-01T19:12:13Z</time>
      </trkpt>
      <trkpt lat="44.65666" lon="-1.14427">
        <ele>-4.19</ele>
        <time>2021-07-01T19:12:14Z</time>
      </trkpt>
      <trkpt lat="44.65669" lon="-1.14435">
        <ele>-4.19</ele>
        <time>2021-07-01T19:12:15Z</time>
      </trkpt>
      <trkpt lat="44.65669" lon="-1.14435">
        <ele>-4.19</ele>
        <time>2021-07-01T19:12:16Z</time>
      </trkpt>
      <trkpt lat="44.6567" lon="-1.14439">
        <ele>-4.19</ele>
        <time>2021-07-01T19:12:17Z</time>
      </trkpt>
      <trkpt lat="44.65705" lon="-1.14546">
        <ele>-4.67</ele>
        <time>2021-07-01T19:12:35Z</time>
      </trkpt>
      <trkpt lat="44.65744" lon="-1.14656">
        <ele>-5.15</ele>
        <time>2021-07-01T19:12:50Z</time>
      </trkpt>
      <trkpt lat="44.65793" lon="-1.14781">
        <ele>-5.15</ele>
        <time>2021-07-01T19:13:09Z</time>
      </trkpt>
      <trkpt lat="44.65803" lon="-1.14842">
        <ele>-4.19</ele>
        <time>2021-07-01T19:13:22Z</time>
      </trkpt>
      <trkpt lat="44.65779" lon="-1.14861">
        <ele>-5.15</ele>
        <time>2021-07-01T19:13:33Z</time>
      </trkpt>
      <trkpt lat="44.65741" lon="-1.1489">
        <ele>-2.75</ele>
        <time>2021-07-01T19:13:47Z</time>
      </trkpt>
      <trkpt lat="44.65741" lon="-1.1489">
        <ele>-1.79</ele>
        <time>2021-07-01T19:13:56Z</time>
      </trkpt>
      <trkpt lat="44.65737" lon="-1.14892">
        <ele>-1.79</ele>
        <time>2021-07-01T19:13:57Z</time>
      </trkpt>
      <trkpt lat="44.65739" lon="-1.149">
        <ele>-1.79</ele>
        <time>2021-07-01T19:13:58Z</time>
      </trkpt>
      <trkpt lat="44.65775" lon="-1.14983">
        <ele>-2.27</ele>
        <time>2021-07-01T19:14:12Z</time>
      </trkpt>
      <trkpt lat="44.65783" lon="-1.15004">
        <ele>-2.27</ele>
        <time>2021-07-01T19:14:17Z</time>
      </trkpt>
      <trkpt lat="44.6583" lon="-1.15099">
        <ele>-1.79</ele>
        <time>2021-07-01T19:14:30Z</time>
      </trkpt>
      <trkpt lat="44.65881" lon="-1.15175">
        <ele>-2.75</ele>
        <time>2021-07-01T19:14:43Z</time>
      </trkpt>
      <trkpt lat="44.65958" lon="-1.15283">
        <ele>-3.23</ele>
        <time>2021-07-01T19:15:00Z</time>
      </trkpt>
      <trkpt lat="44.6603" lon="-1.15434">
        <ele>-3.23</ele>
        <time>2021-07-01T19:15:18Z</time>
      </trkpt>
      <trkpt lat="44.6608" lon="-1.15542">
        <ele>-2.75</ele>
        <time>2021-07-01T19:15:31Z</time>
      </trkpt>
      <trkpt lat="44.66128" lon="-1.15648">
        <ele>-3.23</ele>
        <time>2021-07-01T19:15:44Z</time>
      </trkpt>
      <trkpt lat="44.66154" lon="-1.15703">
        <ele>-5.63</ele>
        <time>2021-07-01T19:15:54Z</time>
      </trkpt>
      <trkpt lat="44.66191" lon="-1.15794">
        <ele>-3.71</ele>
        <time>2021-07-01T19:16:07Z</time>
      </trkpt>
      <trkpt lat="44.66233" lon="-1.15934">
        <ele>-3.71</ele>
        <time>2021-07-01T19:16:23Z</time>
      </trkpt>
      <trkpt lat="44.66256" lon="-1.16056">
        <ele>-2.75</ele>
        <time>2021-07-01T19:16:37Z</time>
      </trkpt>
      <trkpt lat="44.66268" lon="-1.16225">
        <ele>-1.79</ele>
        <time>2021-07-01T19:16:55Z</time>
      </trkpt>
      <trkpt lat="44.66269" lon="-1.16353">
        <ele>-1.79</ele>
        <time>2021-07-01T19:17:11Z</time>
      </trkpt>
      <trkpt lat="44.66269" lon="-1.1638">
        <ele>-1.3</ele>
        <time>2021-07-01T19:17:20Z</time>
      </trkpt>
      <trkpt lat="44.66266" lon="-1.16422">
        <ele>-0.82</ele>
        <time>2021-07-01T19:17:32Z</time>
      </trkpt>
      <trkpt lat="44.6626" lon="-1.16457">
        <ele>-0.82</ele>
        <time>2021-07-01T19:17:43Z</time>
      </trkpt>
      <trkpt lat="44.66249" lon="-1.16459">
        <ele>-0.82</ele>
        <time>2021-07-01T19:17:45Z</time>
      </trkpt>
      <trkpt lat="44.66214" lon="-1.16466">
        <ele>-4.19</ele>
        <time>2021-07-01T19:17:54Z</time>
      </trkpt>
      <trkpt lat="44.66206" lon="-1.16467">
        <ele>-4.19</ele>
        <time>2021-07-01T19:17:55Z</time>
      </trkpt>
      <trkpt lat="44.66206" lon="-1.16467">
        <ele>-5.15</ele>
        <time>2021-07-01T19:17:56Z</time>
      </trkpt>
      <trkpt lat="44.66155" lon="-1.16476">
        <ele>-8.03</ele>
        <time>2021-07-01T19:18:09Z</time>
      </trkpt>
      <trkpt lat="44.66084" lon="-1.16491">
        <ele>-7.55</ele>
        <time>2021-07-01T19:18:21Z</time>
      </trkpt>
      <trkpt lat="44.65995" lon="-1.16509">
        <ele>-8.51</ele>
        <time>2021-07-01T19:18:35Z</time>
      </trkpt>
      <trkpt lat="44.65957" lon="-1.16517">
        <ele>-0.82</ele>
        <time>2021-07-01T19:18:44Z</time>
      </trkpt>
      <trkpt lat="44.65952" lon="-1.16544">
        <ele>-1.3</ele>
        <time>2021-07-01T19:18:52Z</time>
      </trkpt>
      <trkpt lat="44.65975" lon="-1.16619">
        <ele>-1.79</ele>
        <time>2021-07-01T19:19:04Z</time>
      </trkpt>
      <trkpt lat="44.65984" lon="-1.16646">
        <ele>-0.82</ele>
        <time>2021-07-01T19:19:08Z</time>
      </trkpt>
      <trkpt lat="44.66011" lon="-1.16739">
        <ele>0.14</ele>
        <time>2021-07-01T19:19:22Z</time>
      </trkpt>
      <trkpt lat="44.66021" lon="-1.16815">
        <ele>0.62</ele>
        <time>2021-07-01T19:19:38Z</time>
      </trkpt>
    </trkseg>
  </trk>
  <trk>
    <name><![CDATA[Journal actif: 2021-07-01 17:19]]></name>
    <trkseg>
      <trkpt lat="44.66022" lon="-1.16819">
        <ele>0.62</ele>
        <time>2021-07-01T19:19:39Z</time>
      </trkpt>
      <trkpt lat="44.66035" lon="-1.16841">
        <ele>1.1</ele>
        <time>2021-07-01T19:19:46Z</time>
      </trkpt>
      <trkpt lat="44.66034" lon="-1.16844">
        <ele>1.1</ele>
        <time>2021-07-01T19:19:47Z</time>
      </trkpt>
      <trkpt lat="44.66033" lon="-1.16847">
        <ele>1.1</ele>
        <time>2021-07-01T19:19:48Z</time>
      </trkpt>
      <trkpt lat="44.6603" lon="-1.16851">
        <ele>0.62</ele>
        <time>2021-07-01T19:19:49Z</time>
      </trkpt>
      <trkpt lat="44.66027" lon="-1.16853">
        <ele>0.62</ele>
        <time>2021-07-01T19:19:50Z</time>
      </trkpt>
      <trkpt lat="44.66018" lon="-1.16853">
        <ele>0.62</ele>
        <time>2021-07-01T19:19:51Z</time>
      </trkpt>
      <trkpt lat="44.66015" lon="-1.1685">
        <ele>0.14</ele>
        <time>2021-07-01T19:19:52Z</time>
      </trkpt>
      <trkpt lat="44.66013" lon="-1.16846">
        <ele>-0.34</ele>
        <time>2021-07-01T19:19:53Z</time>
      </trkpt>
      <trkpt lat="44.66011" lon="-1.16843">
        <ele>-1.3</ele>
        <time>2021-07-01T19:19:54Z</time>
      </trkpt>
      <trkpt lat="44.66009" lon="-1.16835">
        <ele>-1.3</ele>
        <time>2021-07-01T19:19:55Z</time>
      </trkpt>
      <trkpt lat="44.66007" lon="-1.16835">
        <ele>-0.82</ele>
        <time>2021-07-01T19:19:56Z</time>
      </trkpt>
      <trkpt lat="44.66003" lon="-1.16835">
        <ele>0.14</ele>
        <time>2021-07-01T19:19:57Z</time>
      </trkpt>
      <trkpt lat="44.6594" lon="-1.1683">
        <ele>-2.75</ele>
        <time>2021-07-01T19:20:09Z</time>
      </trkpt>
      <trkpt lat="44.65934" lon="-1.16829">
        <ele>-2.75</ele>
        <time>2021-07-01T19:20:10Z</time>
      </trkpt>
      <trkpt lat="44.65826" lon="-1.16821">
        <ele>3.98</ele>
        <time>2021-07-01T19:20:25Z</time>
      </trkpt>
      <trkpt lat="44.6572" lon="-1.16809">
        <ele>17.92</ele>
        <time>2021-07-01T19:20:38Z</time>
      </trkpt>
      <trkpt lat="44.65709" lon="-1.16811">
        <ele>18.88</ele>
        <time>2021-07-01T19:20:40Z</time>
      </trkpt>
      <trkpt lat="44.65709" lon="-1.16811">
        <ele>19.36</ele>
        <time>2021-07-01T19:20:41Z</time>
      </trkpt>
      <trkpt lat="44.65705" lon="-1.16813">
        <ele>20.32</ele>
        <time>2021-07-01T19:20:42Z</time>
      </trkpt>
      <trkpt lat="44.65701" lon="-1.16815">
        <ele>20.81</ele>
        <time>2021-07-01T19:20:43Z</time>
      </trkpt>
      <trkpt lat="44.65694" lon="-1.16821">
        <ele>21.29</ele>
        <time>2021-07-01T19:20:44Z</time>
      </trkpt>
      <trkpt lat="44.65694" lon="-1.16821">
        <ele>21.77</ele>
        <time>2021-07-01T19:20:45Z</time>
      </trkpt>
      <trkpt lat="44.65691" lon="-1.16828">
        <ele>21.77</ele>
        <time>2021-07-01T19:20:46Z</time>
      </trkpt>
      <trkpt lat="44.6569" lon="-1.16834">
        <ele>22.25</ele>
        <time>2021-07-01T19:20:47Z</time>
      </trkpt>
      <trkpt lat="44.6569" lon="-1.1684">
        <ele>22.73</ele>
        <time>2021-07-01T19:20:48Z</time>
      </trkpt>
      <trkpt lat="44.65689" lon="-1.16847">
        <ele>23.21</ele>
        <time>2021-07-01T19:20:49Z</time>
      </trkpt>
      <trkpt lat="44.65687" lon="-1.16873">
        <ele>25.13</ele>
        <time>2021-07-01T19:20:53Z</time>
      </trkpt>
      <trkpt lat="44.65687" lon="-1.1688">
        <ele>26.09</ele>
        <time>2021-07-01T19:20:54Z</time>
      </trkpt>
      <trkpt lat="44.65686" lon="-1.16919">
        <ele>27.53</ele>
        <time>2021-07-01T19:20:59Z</time>
      </trkpt>
      <trkpt lat="44.65685" lon="-1.16946">
        <ele>27.53</ele>
        <time>2021-07-01T19:21:03Z</time>
      </trkpt>
      <trkpt lat="44.65681" lon="-1.17025">
        <ele>25.13</ele>
        <time>2021-07-01T19:21:13Z</time>
      </trkpt>
      <trkpt lat="44.65681" lon="-1.17033">
        <ele>25.13</ele>
        <time>2021-07-01T19:21:14Z</time>
      </trkpt>
      <trkpt lat="44.65677" lon="-1.17127">
        <ele>24.65</ele>
        <time>2021-07-01T19:21:26Z</time>
      </trkpt>
      <trkpt lat="44.65676" lon="-1.17159">
        <ele>24.65</ele>
        <time>2021-07-01T19:21:31Z</time>
      </trkpt>
      <trkpt lat="44.65674" lon="-1.1716">
        <ele>24.65</ele>
        <time>2021-07-01T19:21:32Z</time>
      </trkpt>
      <trkpt lat="44.65674" lon="-1.1716">
        <ele>24.17</ele>
        <time>2021-07-01T19:21:33Z</time>
      </trkpt>
      <trkpt lat="44.65672" lon="-1.17161">
        <ele>23.21</ele>
        <time>2021-07-01T19:21:34Z</time>
      </trkpt>
      <trkpt lat="44.65669" lon="-1.17162">
        <ele>22.73</ele>
        <time>2021-07-01T19:21:35Z</time>
      </trkpt>
      <trkpt lat="44.65667" lon="-1.17163">
        <ele>22.25</ele>
        <time>2021-07-01T19:21:36Z</time>
      </trkpt>
      <trkpt lat="44.65664" lon="-1.17164">
        <ele>21.77</ele>
        <time>2021-07-01T19:21:37Z</time>
      </trkpt>
      <trkpt lat="44.65614" lon="-1.17183">
        <ele>16.48</ele>
        <time>2021-07-01T19:21:50Z</time>
      </trkpt>
      <trkpt lat="44.65568" lon="-1.17199">
        <ele>11.19</ele>
        <time>2021-07-01T19:22:03Z</time>
      </trkpt>
      <trkpt lat="44.65524" lon="-1.17214">
        <ele>8.31</ele>
        <time>2021-07-01T19:22:16Z</time>
      </trkpt>
      <trkpt lat="44.65506" lon="-1.17219">
        <ele>7.83</ele>
        <time>2021-07-01T19:22:25Z</time>
      </trkpt>
      <trkpt lat="44.655" lon="-1.17218">
        <ele>7.83</ele>
        <time>2021-07-01T19:22:26Z</time>
      </trkpt>
      <trkpt lat="44.65499" lon="-1.17215">
        <ele>8.31</ele>
        <time>2021-07-01T19:22:27Z</time>
      </trkpt>
      <trkpt lat="44.65498" lon="-1.17212">
        <ele>8.31</ele>
        <time>2021-07-01T19:22:28Z</time>
      </trkpt>
      <trkpt lat="44.65497" lon="-1.17207">
        <ele>8.79</ele>
        <time>2021-07-01T19:22:29Z</time>
      </trkpt>
      <trkpt lat="44.65496" lon="-1.17203">
        <ele>9.75</ele>
        <time>2021-07-01T19:22:30Z</time>
      </trkpt>
      <trkpt lat="44.65478" lon="-1.17126">
        <ele>13.6</ele>
        <time>2021-07-01T19:22:44Z</time>
      </trkpt>
      <trkpt lat="44.65459" lon="-1.17077">
        <ele>15.04</ele>
        <time>2021-07-01T19:22:54Z</time>
      </trkpt>
      <trkpt lat="44.65457" lon="-1.17071">
        <ele>16</ele>
        <time>2021-07-01T19:22:55Z</time>
      </trkpt>
      <trkpt lat="44.65455" lon="-1.17066">
        <ele>16</ele>
        <time>2021-07-01T19:22:56Z</time>
      </trkpt>
      <trkpt lat="44.6545" lon="-1.16991">
        <ele>18.88</ele>
        <time>2021-07-01T19:23:11Z</time>
      </trkpt>
      <trkpt lat="44.6545" lon="-1.16991">
        <ele>19.84</ele>
        <time>2021-07-01T19:23:16Z</time>
      </trkpt>
      <trkpt lat="44.65449" lon="-1.16983">
        <ele>19.84</ele>
        <time>2021-07-01T19:23:17Z</time>
      </trkpt>
      <trkpt lat="44.65483" lon="-1.16951">
        <ele>25.13</ele>
        <time>2021-07-01T19:23:28Z</time>
      </trkpt>
      <trkpt lat="44.65532" lon="-1.16919">
        <ele>32.34</ele>
        <time>2021-07-01T19:23:42Z</time>
      </trkpt>
      <trkpt lat="44.65572" lon="-1.16885">
        <ele>33.78</ele>
        <time>2021-07-01T19:23:56Z</time>
      </trkpt>
      <trkpt lat="44.65608" lon="-1.16831">
        <ele>31.86</ele>
        <time>2021-07-01T19:24:12Z</time>
      </trkpt>
      <trkpt lat="44.65619" lon="-1.16817">
        <ele>29.46</ele>
        <time>2021-07-01T19:24:21Z</time>
      </trkpt>
      <trkpt lat="44.65656" lon="-1.168">
        <ele>24.65</ele>
        <time>2021-07-01T19:24:35Z</time>
      </trkpt>
      <trkpt lat="44.65681" lon="-1.16803">
        <ele>21.77</ele>
        <time>2021-07-01T19:24:47Z</time>
      </trkpt>
      <trkpt lat="44.65681" lon="-1.16803">
        <ele>21.77</ele>
        <time>2021-07-01T19:24:48Z</time>
      </trkpt>
      <trkpt lat="44.65681" lon="-1.16803">
        <ele>21.77</ele>
        <time>2021-07-01T19:24:49Z</time>
      </trkpt>
      <trkpt lat="44.65692" lon="-1.16798">
        <ele>21.29</ele>
        <time>2021-07-01T19:24:50Z</time>
      </trkpt>
      <trkpt lat="44.65692" lon="-1.16795">
        <ele>21.29</ele>
        <time>2021-07-01T19:24:51Z</time>
      </trkpt>
      <trkpt lat="44.65692" lon="-1.16792">
        <ele>21.29</ele>
        <time>2021-07-01T19:24:52Z</time>
      </trkpt>
      <trkpt lat="44.65692" lon="-1.16788">
        <ele>21.77</ele>
        <time>2021-07-01T19:24:53Z</time>
      </trkpt>
      <trkpt lat="44.65692" lon="-1.16783">
        <ele>21.77</ele>
        <time>2021-07-01T19:24:54Z</time>
      </trkpt>
      <trkpt lat="44.65692" lon="-1.16778">
        <ele>21.29</ele>
        <time>2021-07-01T19:24:55Z</time>
      </trkpt>
      <trkpt lat="44.65692" lon="-1.16772">
        <ele>20.81</ele>
        <time>2021-07-01T19:24:56Z</time>
      </trkpt>
      <trkpt lat="44.65692" lon="-1.16766">
        <ele>20.32</ele>
        <time>2021-07-01T19:24:57Z</time>
      </trkpt>
      <trkpt lat="44.65692" lon="-1.16761">
        <ele>19.84</ele>
        <time>2021-07-01T19:24:58Z</time>
      </trkpt>
    </trkseg>
  </trk>
  <trk>
    <name><![CDATA[Journal actif: 2021-07-01 17:24]]></name>
    <trkseg>
      <trkpt lat="44.65693" lon="-1.16756">
        <ele>19.84</ele>
        <time>2021-07-01T19:24:59Z</time>
      </trkpt>
      <trkpt lat="44.65693" lon="-1.16684">
        <ele>16</ele>
        <time>2021-07-01T19:25:13Z</time>
      </trkpt>
      <trkpt lat="44.65687" lon="-1.16622">
        <ele>11.67</ele>
        <time>2021-07-01T19:25:23Z</time>
      </trkpt>
      <trkpt lat="44.65681" lon="-1.1656">
        <ele>9.27</ele>
        <time>2021-07-01T19:25:32Z</time>
      </trkpt>
      <trkpt lat="44.6568" lon="-1.16554">
        <ele>9.27</ele>
        <time>2021-07-01T19:25:33Z</time>
      </trkpt>
      <trkpt lat="44.6568" lon="-1.16548">
        <ele>9.27</ele>
        <time>2021-07-01T19:25:34Z</time>
      </trkpt>
      <trkpt lat="44.65679" lon="-1.16542">
        <ele>8.79</ele>
        <time>2021-07-01T19:25:35Z</time>
      </trkpt>
      <trkpt lat="44.65678" lon="-1.16536">
        <ele>8.79</ele>
        <time>2021-07-01T19:25:36Z</time>
      </trkpt>
      <trkpt lat="44.65665" lon="-1.16462">
        <ele>4.94</ele>
        <time>2021-07-01T19:25:48Z</time>
      </trkpt>
      <trkpt lat="44.65661" lon="-1.1644">
        <ele>4.94</ele>
        <time>2021-07-01T19:25:54Z</time>
      </trkpt>
      <trkpt lat="44.65663" lon="-1.1644">
        <ele>5.42</ele>
        <time>2021-07-01T19:25:55Z</time>
      </trkpt>
      <trkpt lat="44.65665" lon="-1.16438">
        <ele>5.42</ele>
        <time>2021-07-01T19:25:56Z</time>
      </trkpt>
      <trkpt lat="44.65666" lon="-1.16436">
        <ele>5.42</ele>
        <time>2021-07-01T19:25:57Z</time>
      </trkpt>
      <trkpt lat="44.65668" lon="-1.16434">
        <ele>5.42</ele>
        <time>2021-07-01T19:25:58Z</time>
      </trkpt>
      <trkpt lat="44.65668" lon="-1.16435">
        <ele>5.42</ele>
        <time>2021-07-01T19:25:59Z</time>
      </trkpt>
      <trkpt lat="44.6567" lon="-1.1644">
        <ele>5.42</ele>
        <time>2021-07-01T19:26:00Z</time>
      </trkpt>
      <trkpt lat="44.65672" lon="-1.16445">
        <ele>5.42</ele>
        <time>2021-07-01T19:26:01Z</time>
      </trkpt>
      <trkpt lat="44.65676" lon="-1.16457">
        <ele>5.42</ele>
        <time>2021-07-01T19:26:02Z</time>
      </trkpt>
      <trkpt lat="44.65676" lon="-1.16457">
        <ele>4.94</ele>
        <time>2021-07-01T19:26:03Z</time>
      </trkpt>
      <trkpt lat="44.65686" lon="-1.16487">
        <ele>3.5</ele>
        <time>2021-07-01T19:26:08Z</time>
      </trkpt>
      <trkpt lat="44.65741" lon="-1.16583">
        <ele>-1.3</ele>
        <time>2021-07-01T19:26:24Z</time>
      </trkpt>
      <trkpt lat="44.65791" lon="-1.16648">
        <ele>0.62</ele>
        <time>2021-07-01T19:26:35Z</time>
      </trkpt>
      <trkpt lat="44.65794" lon="-1.16657">
        <ele>1.1</ele>
        <time>2021-07-01T19:26:36Z</time>
      </trkpt>
      <trkpt lat="44.65796" lon="-1.16667">
        <ele>1.1</ele>
        <time>2021-07-01T19:26:37Z</time>
      </trkpt>
      <trkpt lat="44.65822" lon="-1.16783">
        <ele>4.94</ele>
        <time>2021-07-01T19:26:49Z</time>
      </trkpt>
      <trkpt lat="44.65825" lon="-1.16789">
        <ele>4.94</ele>
        <time>2021-07-01T19:26:50Z</time>
      </trkpt>
      <trkpt lat="44.65835" lon="-1.16811">
        <ele>4.94</ele>
        <time>2021-07-01T19:26:59Z</time>
      </trkpt>
      <trkpt lat="44.65835" lon="-1.16811">
        <ele>4.94</ele>
        <time>2021-07-01T19:27:00Z</time>
      </trkpt>
      <trkpt lat="44.65836" lon="-1.16813">
        <ele>5.42</ele>
        <time>2021-07-01T19:27:01Z</time>
      </trkpt>
      <trkpt lat="44.65823" lon="-1.1682">
        <ele>5.91</ele>
        <time>2021-07-01T19:27:03Z</time>
      </trkpt>
      <trkpt lat="44.65817" lon="-1.1682">
        <ele>6.39</ele>
        <time>2021-07-01T19:27:04Z</time>
      </trkpt>
      <trkpt lat="44.6581" lon="-1.16819">
        <ele>6.87</ele>
        <time>2021-07-01T19:27:05Z</time>
      </trkpt>
      <trkpt lat="44.65716" lon="-1.1681">
        <ele>17.44</ele>
        <time>2021-07-01T19:27:19Z</time>
      </trkpt>
      <trkpt lat="44.6571" lon="-1.16811">
        <ele>17.92</ele>
        <time>2021-07-01T19:27:20Z</time>
      </trkpt>
      <trkpt lat="44.65705" lon="-1.16813">
        <ele>18.4</ele>
        <time>2021-07-01T19:27:21Z</time>
      </trkpt>
      <trkpt lat="44.65691" lon="-1.16824">
        <ele>19.36</ele>
        <time>2021-07-01T19:27:22Z</time>
      </trkpt>
      <trkpt lat="44.65691" lon="-1.16827">
        <ele>19.84</ele>
        <time>2021-07-01T19:27:23Z</time>
      </trkpt>
      <trkpt lat="44.6569" lon="-1.16836">
        <ele>20.81</ele>
        <time>2021-07-01T19:27:24Z</time>
      </trkpt>
      <trkpt lat="44.65689" lon="-1.16846">
        <ele>21.29</ele>
        <time>2021-07-01T19:27:25Z</time>
      </trkpt>
      <trkpt lat="44.65688" lon="-1.16857">
        <ele>21.77</ele>
        <time>2021-07-01T19:27:26Z</time>
      </trkpt>
      <trkpt lat="44.65684" lon="-1.16966">
        <ele>22.25</ele>
        <time>2021-07-01T19:27:38Z</time>
      </trkpt>
      <trkpt lat="44.65683" lon="-1.16975">
        <ele>22.25</ele>
        <time>2021-07-01T19:27:39Z</time>
      </trkpt>
      <trkpt lat="44.65681" lon="-1.1702">
        <ele>22.25</ele>
        <time>2021-07-01T19:27:44Z</time>
      </trkpt>
      <trkpt lat="44.6568" lon="-1.17039">
        <ele>22.73</ele>
        <time>2021-07-01T19:27:46Z</time>
      </trkpt>
      <trkpt lat="44.6568" lon="-1.17059">
        <ele>23.21</ele>
        <time>2021-07-01T19:27:48Z</time>
      </trkpt>
      <trkpt lat="44.65679" lon="-1.17069">
        <ele>23.69</ele>
        <time>2021-07-01T19:27:49Z</time>
      </trkpt>
      <trkpt lat="44.65677" lon="-1.17147">
        <ele>25.61</ele>
        <time>2021-07-01T19:27:59Z</time>
      </trkpt>
      <trkpt lat="44.65687" lon="-1.17197">
        <ele>25.61</ele>
        <time>2021-07-01T19:28:09Z</time>
      </trkpt>
      <trkpt lat="44.6571" lon="-1.17279">
        <ele>19.84</ele>
        <time>2021-07-01T19:28:23Z</time>
      </trkpt>
      <trkpt lat="44.65706" lon="-1.17327">
        <ele>17.92</ele>
        <time>2021-07-01T19:28:34Z</time>
      </trkpt>
      <trkpt lat="44.65705" lon="-1.17338">
        <ele>17.92</ele>
        <time>2021-07-01T19:28:36Z</time>
      </trkpt>
      <trkpt lat="44.65705" lon="-1.17343">
        <ele>17.92</ele>
        <time>2021-07-01T19:28:37Z</time>
      </trkpt>
      <trkpt lat="44.65706" lon="-1.17348">
        <ele>17.92</ele>
        <time>2021-07-01T19:28:38Z</time>
      </trkpt>
      <trkpt lat="44.65706" lon="-1.17354">
        <ele>17.92</ele>
        <time>2021-07-01T19:28:39Z</time>
      </trkpt>
      <trkpt lat="44.65707" lon="-1.1736">
        <ele>17.92</ele>
        <time>2021-07-01T19:28:40Z</time>
      </trkpt>
      <trkpt lat="44.65708" lon="-1.17365">
        <ele>18.4</ele>
        <time>2021-07-01T19:28:41Z</time>
      </trkpt>
      <trkpt lat="44.65709" lon="-1.1737">
        <ele>18.4</ele>
        <time>2021-07-01T19:28:42Z</time>
      </trkpt>
      <trkpt lat="44.65712" lon="-1.17373">
        <ele>18.4</ele>
        <time>2021-07-01T19:28:43Z</time>
      </trkpt>
      <trkpt lat="44.65754" lon="-1.17419">
        <ele>18.4</ele>
        <time>2021-07-01T19:28:59Z</time>
      </trkpt>
      <trkpt lat="44.65767" lon="-1.17425">
        <ele>18.88</ele>
        <time>2021-07-01T19:29:11Z</time>
      </trkpt>
      <trkpt lat="44.65767" lon="-1.17425">
        <ele>19.36</ele>
        <time>2021-07-01T19:29:29Z</time>
      </trkpt>
      <trkpt lat="44.65767" lon="-1.17425">
        <ele>19.36</ele>
        <time>2021-07-01T19:29:30Z</time>
      </trkpt>
      <trkpt lat="44.6576" lon="-1.17425">
        <ele>19.36</ele>
        <time>2021-07-01T19:29:31Z</time>
      </trkpt>
      <trkpt lat="44.6576" lon="-1.17425">
        <ele>19.36</ele>
        <time>2021-07-01T19:29:38Z</time>
      </trkpt>
      <trkpt lat="44.65757" lon="-1.17428">
        <ele>19.36</ele>
        <time>2021-07-01T19:29:39Z</time>
      </trkpt>
      <trkpt lat="44.6576" lon="-1.17425">
        <ele>19.36</ele>
        <time>2021-07-01T19:29:40Z</time>
      </trkpt>
      <trkpt lat="44.65759" lon="-1.17424">
        <ele>19.36</ele>
        <time>2021-07-01T19:29:41Z</time>
      </trkpt>
      <trkpt lat="44.65757" lon="-1.17422">
        <ele>19.36</ele>
        <time>2021-07-01T19:29:42Z</time>
      </trkpt>
      <trkpt lat="44.65755" lon="-1.1742">
        <ele>19.36</ele>
        <time>2021-07-01T19:29:43Z</time>
      </trkpt>
      <trkpt lat="44.65753" lon="-1.17417">
        <ele>19.36</ele>
        <time>2021-07-01T19:29:44Z</time>
      </trkpt>
      <trkpt lat="44.6575" lon="-1.17415">
        <ele>19.36</ele>
        <time>2021-07-01T19:29:45Z</time>
      </trkpt>
      <trkpt lat="44.65747" lon="-1.17411">
        <ele>19.36</ele>
        <time>2021-07-01T19:29:46Z</time>
      </trkpt>
      <trkpt lat="44.65697" lon="-1.1736">
        <ele>17.92</ele>
        <time>2021-07-01T19:29:59Z</time>
      </trkpt>
      <trkpt lat="44.65689" lon="-1.17348">
        <ele>17.44</ele>
        <time>2021-07-01T19:30:06Z</time>
      </trkpt>
      <trkpt lat="44.6569" lon="-1.17344">
        <ele>17.44</ele>
        <time>2021-07-01T19:30:07Z</time>
      </trkpt>
      <trkpt lat="44.65696" lon="-1.1733">
        <ele>17.44</ele>
        <time>2021-07-01T19:30:15Z</time>
      </trkpt>
      <trkpt lat="44.65713" lon="-1.17288">
        <ele>18.88</ele>
        <time>2021-07-01T19:30:24Z</time>
      </trkpt>
      <trkpt lat="44.65717" lon="-1.17284">
        <ele>18.88</ele>
        <time>2021-07-01T19:30:25Z</time>
      </trkpt>
      <trkpt lat="44.65727" lon="-1.17273">
        <ele>19.84</ele>
        <time>2021-07-01T19:30:28Z</time>
      </trkpt>
      <trkpt lat="44.6573" lon="-1.17269">
        <ele>19.84</ele>
        <time>2021-07-01T19:30:29Z</time>
      </trkpt>
      <trkpt lat="44.65772" lon="-1.17197">
        <ele>19.36</ele>
        <time>2021-07-01T19:30:44Z</time>
      </trkpt>
      <trkpt lat="44.658" lon="-1.17133">
        <ele>21.77</ele>
        <time>2021-07-01T19:30:58Z</time>
      </trkpt>
      <trkpt lat="44.65807" lon="-1.17114">
        <ele>22.73</ele>
        <time>2021-07-01T19:31:11Z</time>
      </trkpt>
      <trkpt lat="44.65807" lon="-1.17114">
        <ele>22.73</ele>
        <time>2021-07-01T19:31:27Z</time>
      </trkpt>
      <trkpt lat="44.658" lon="-1.17109">
        <ele>22.73</ele>
        <time>2021-07-01T19:31:28Z</time>
      </trkpt>
      <trkpt lat="44.658" lon="-1.17109">
        <ele>22.73</ele>
        <time>2021-07-01T19:31:29Z</time>
      </trkpt>
      <trkpt lat="44.65747" lon="-1.17135">
        <ele>22.25</ele>
        <time>2021-07-01T19:31:43Z</time>
      </trkpt>
      <trkpt lat="44.65687" lon="-1.17155">
        <ele>21.77</ele>
        <time>2021-07-01T19:32:00Z</time>
      </trkpt>
      <trkpt lat="44.65681" lon="-1.17158">
        <ele>21.77</ele>
        <time>2021-07-01T19:32:03Z</time>
      </trkpt>
      <trkpt lat="44.65677" lon="-1.17152">
        <ele>21.29</ele>
        <time>2021-07-01T19:32:04Z</time>
      </trkpt>
      <trkpt lat="44.65677" lon="-1.17148">
        <ele>21.77</ele>
        <time>2021-07-01T19:32:05Z</time>
      </trkpt>
      <trkpt lat="44.65677" lon="-1.17145">
        <ele>21.77</ele>
        <time>2021-07-01T19:32:06Z</time>
      </trkpt>
      <trkpt lat="44.65677" lon="-1.1714">
        <ele>21.77</ele>
        <time>2021-07-01T19:32:07Z</time>
      </trkpt>
      <trkpt lat="44.65679" lon="-1.17076">
        <ele>18.88</ele>
        <time>2021-07-01T19:32:18Z</time>
      </trkpt>
      <trkpt lat="44.65681" lon="-1.17025">
        <ele>15.52</ele>
        <time>2021-07-01T19:32:30Z</time>
      </trkpt>
      <trkpt lat="44.65685" lon="-1.16954">
        <ele>18.4</ele>
        <time>2021-07-01T19:32:45Z</time>
      </trkpt>
    </trkseg>
  </trk>
  <trk>
    <name><![CDATA[Journal actif: 2021-07-01 17:32]]></name>
    <trkseg>
      <trkpt lat="44.65686" lon="-1.16898">
        <ele>18.88</ele>
        <time>2021-07-01T19:32:56Z</time>
      </trkpt>
      <trkpt lat="44.65691" lon="-1.16826">
        <ele>14.56</ele>
        <time>2021-07-01T19:33:11Z</time>
      </trkpt>
      <trkpt lat="44.65695" lon="-1.16821">
        <ele>14.08</ele>
        <time>2021-07-01T19:33:13Z</time>
      </trkpt>
      <trkpt lat="44.65699" lon="-1.16816">
        <ele>14.08</ele>
        <time>2021-07-01T19:33:14Z</time>
      </trkpt>
      <trkpt lat="44.65699" lon="-1.16816">
        <ele>13.6</ele>
        <time>2021-07-01T19:33:15Z</time>
      </trkpt>
      <trkpt lat="44.65702" lon="-1.16814">
        <ele>13.12</ele>
        <time>2021-07-01T19:33:16Z</time>
      </trkpt>
      <trkpt lat="44.65703" lon="-1.16813">
        <ele>13.12</ele>
        <time>2021-07-01T19:33:17Z</time>
      </trkpt>
      <trkpt lat="44.65719" lon="-1.16809">
        <ele>10.71</ele>
        <time>2021-07-01T19:33:24Z</time>
      </trkpt>
      <trkpt lat="44.65771" lon="-1.16815">
        <ele>3.98</ele>
        <time>2021-07-01T19:33:39Z</time>
      </trkpt>
      <trkpt lat="44.65818" lon="-1.1682">
        <ele>2.54</ele>
        <time>2021-07-01T19:33:53Z</time>
      </trkpt>
      <trkpt lat="44.65864" lon="-1.16824">
        <ele>4.46</ele>
        <time>2021-07-01T19:34:09Z</time>
      </trkpt>
      <trkpt lat="44.65893" lon="-1.16826">
        <ele>2.54</ele>
        <time>2021-07-01T19:34:22Z</time>
      </trkpt>
      <trkpt lat="44.65932" lon="-1.16829">
        <ele>1.58</ele>
        <time>2021-07-01T19:34:39Z</time>
      </trkpt>
      <trkpt lat="44.65961" lon="-1.16832">
        <ele>2.54</ele>
        <time>2021-07-01T19:34:54Z</time>
      </trkpt>
      <trkpt lat="44.65984" lon="-1.16834">
        <ele>4.46</ele>
        <time>2021-07-01T19:35:06Z</time>
      </trkpt>
      <trkpt lat="44.66002" lon="-1.16835">
        <ele>4.94</ele>
        <time>2021-07-01T19:35:18Z</time>
      </trkpt>
      <trkpt lat="44.66011" lon="-1.16829">
        <ele>6.39</ele>
        <time>2021-07-01T19:35:30Z</time>
      </trkpt>
      <trkpt lat="44.66022" lon="-1.1682">
        <ele>6.87</ele>
        <time>2021-07-01T19:35:43Z</time>
      </trkpt>
      <trkpt lat="44.66028" lon="-1.16822">
        <ele>6.87</ele>
        <time>2021-07-01T19:35:44Z</time>
      </trkpt>
      <trkpt lat="44.66032" lon="-1.16824">
        <ele>6.87</ele>
        <time>2021-07-01T19:35:45Z</time>
      </trkpt>
      <trkpt lat="44.66034" lon="-1.16827">
        <ele>6.87</ele>
        <time>2021-07-01T19:35:46Z</time>
      </trkpt>
      <trkpt lat="44.66036" lon="-1.16831">
        <ele>7.35</ele>
        <time>2021-07-01T19:35:47Z</time>
      </trkpt>
      <trkpt lat="44.66036" lon="-1.16836">
        <ele>7.35</ele>
        <time>2021-07-01T19:35:48Z</time>
      </trkpt>
      <trkpt lat="44.66035" lon="-1.16839">
        <ele>6.87</ele>
        <time>2021-07-01T19:35:49Z</time>
      </trkpt>
      <trkpt lat="44.66034" lon="-1.16843">
        <ele>6.87</ele>
        <time>2021-07-01T19:35:50Z</time>
      </trkpt>
      <trkpt lat="44.66034" lon="-1.16846">
        <ele>6.39</ele>
        <time>2021-07-01T19:35:51Z</time>
      </trkpt>
      <trkpt lat="44.66023" lon="-1.16884">
        <ele>1.58</ele>
        <time>2021-07-01T19:36:00Z</time>
      </trkpt>
      <trkpt lat="44.66029" lon="-1.16985">
        <ele>0.14</ele>
        <time>2021-07-01T19:36:16Z</time>
      </trkpt>
      <trkpt lat="44.66035" lon="-1.17032">
        <ele>3.02</ele>
        <time>2021-07-01T19:36:27Z</time>
      </trkpt>
      <trkpt lat="44.66031" lon="-1.17033">
        <ele>2.54</ele>
        <time>2021-07-01T19:36:28Z</time>
      </trkpt>
      <trkpt lat="44.66029" lon="-1.17033">
        <ele>2.54</ele>
        <time>2021-07-01T19:36:29Z</time>
      </trkpt>
      <trkpt lat="44.66026" lon="-1.17033">
        <ele>2.06</ele>
        <time>2021-07-01T19:36:30Z</time>
      </trkpt>
      <trkpt lat="44.66023" lon="-1.17033">
        <ele>1.58</ele>
        <time>2021-07-01T19:36:31Z</time>
      </trkpt>
      <trkpt lat="44.65963" lon="-1.17039">
        <ele>0.14</ele>
        <time>2021-07-01T19:36:43Z</time>
      </trkpt>
      <trkpt lat="44.65942" lon="-1.17043">
        <ele>-0.34</ele>
        <time>2021-07-01T19:36:52Z</time>
      </trkpt>
      <trkpt lat="44.65938" lon="-1.17044">
        <ele>0.62</ele>
        <time>2021-07-01T19:36:56Z</time>
      </trkpt>
      <trkpt lat="44.65934" lon="-1.17043">
        <ele>0.14</ele>
        <time>2021-07-01T19:36:57Z</time>
      </trkpt>
      <trkpt lat="44.65934" lon="-1.17043">
        <ele>0.14</ele>
        <time>2021-07-01T19:36:58Z</time>
      </trkpt>
      <trkpt lat="44.65933" lon="-1.17035">
        <ele>1.1</ele>
        <time>2021-07-01T19:36:59Z</time>
      </trkpt>
      <trkpt lat="44.65932" lon="-1.1703">
        <ele>1.1</ele>
        <time>2021-07-01T19:37:00Z</time>
      </trkpt>
      <trkpt lat="44.65932" lon="-1.1703">
        <ele>1.1</ele>
        <time>2021-07-01T19:37:01Z</time>
      </trkpt>
      <trkpt lat="44.65919" lon="-1.16958">
        <ele>3.5</ele>
        <time>2021-07-01T19:37:14Z</time>
      </trkpt>
      <trkpt lat="44.65901" lon="-1.16924">
        <ele>5.42</ele>
        <time>2021-07-01T19:37:22Z</time>
      </trkpt>
      <trkpt lat="44.65851" lon="-1.16841">
        <ele>6.39</ele>
        <time>2021-07-01T19:37:35Z</time>
      </trkpt>
      <trkpt lat="44.65836" lon="-1.16815">
        <ele>6.39</ele>
        <time>2021-07-01T19:37:43Z</time>
      </trkpt>
      <trkpt lat="44.65816" lon="-1.16769">
        <ele>3.98</ele>
        <time>2021-07-01T19:37:51Z</time>
      </trkpt>
      <trkpt lat="44.65814" lon="-1.16763">
        <ele>3.5</ele>
        <time>2021-07-01T19:37:52Z</time>
      </trkpt>
      <trkpt lat="44.65811" lon="-1.16757">
        <ele>3.02</ele>
        <time>2021-07-01T19:37:53Z</time>
      </trkpt>
      <trkpt lat="44.65789" lon="-1.16643">
        <ele>-1.3</ele>
        <time>2021-07-01T19:38:06Z</time>
      </trkpt>
      <trkpt lat="44.65781" lon="-1.16627">
        <ele>-2.27</ele>
        <time>2021-07-01T19:38:09Z</time>
      </trkpt>
      <trkpt lat="44.65777" lon="-1.1662">
        <ele>-2.75</ele>
        <time>2021-07-01T19:38:10Z</time>
      </trkpt>
      <trkpt lat="44.65772" lon="-1.16615">
        <ele>-3.23</ele>
        <time>2021-07-01T19:38:11Z</time>
      </trkpt>
      <trkpt lat="44.657" lon="-1.16526">
        <ele>-2.75</ele>
        <time>2021-07-01T19:38:25Z</time>
      </trkpt>
      <trkpt lat="44.65672" lon="-1.16446">
        <ele>3.5</ele>
        <time>2021-07-01T19:38:34Z</time>
      </trkpt>
      <trkpt lat="44.65668" lon="-1.16435">
        <ele>3.5</ele>
        <time>2021-07-01T19:38:35Z</time>
      </trkpt>
      <trkpt lat="44.65668" lon="-1.16434">
        <ele>3.5</ele>
        <time>2021-07-01T19:38:36Z</time>
      </trkpt>
      <trkpt lat="44.65659" lon="-1.16433">
        <ele>4.94</ele>
        <time>2021-07-01T19:38:44Z</time>
      </trkpt>
      <trkpt lat="44.65657" lon="-1.16429">
        <ele>4.94</ele>
        <time>2021-07-01T19:38:45Z</time>
      </trkpt>
      <trkpt lat="44.65655" lon="-1.16423">
        <ele>4.46</ele>
        <time>2021-07-01T19:38:46Z</time>
      </trkpt>
      <trkpt lat="44.65642" lon="-1.16373">
        <ele>3.98</ele>
        <time>2021-07-01T19:38:52Z</time>
      </trkpt>
      <trkpt lat="44.65624" lon="-1.16271">
        <ele>3.02</ele>
        <time>2021-07-01T19:39:04Z</time>
      </trkpt>
      <trkpt lat="44.65622" lon="-1.16175">
        <ele>2.06</ele>
        <time>2021-07-01T19:39:14Z</time>
      </trkpt>
      <trkpt lat="44.65625" lon="-1.16157">
        <ele>1.58</ele>
        <time>2021-07-01T19:39:15Z</time>
      </trkpt>
      <trkpt lat="44.65645" lon="-1.16087">
        <ele>3.5</ele>
        <time>2021-07-01T19:39:27Z</time>
      </trkpt>
      <trkpt lat="44.65663" lon="-1.16031">
        <ele>4.94</ele>
        <time>2021-07-01T19:39:36Z</time>
      </trkpt>
      <trkpt lat="44.65665" lon="-1.16028">
        <ele>4.94</ele>
        <time>2021-07-01T19:39:37Z</time>
      </trkpt>
      <trkpt lat="44.65661" lon="-1.16022">
        <ele>4.46</ele>
        <time>2021-07-01T19:39:38Z</time>
      </trkpt>
      <trkpt lat="44.65659" lon="-1.1602">
        <ele>4.46</ele>
        <time>2021-07-01T19:39:39Z</time>
      </trkpt>
      <trkpt lat="44.65655" lon="-1.16017">
        <ele>3.98</ele>
        <time>2021-07-01T19:39:40Z</time>
      </trkpt>
      <trkpt lat="44.65652" lon="-1.16014">
        <ele>3.98</ele>
        <time>2021-07-01T19:39:41Z</time>
      </trkpt>
      <trkpt lat="44.65642" lon="-1.16005">
        <ele>3.5</ele>
        <time>2021-07-01T19:39:42Z</time>
      </trkpt>
      <trkpt lat="44.6556" lon="-1.15932">
        <ele>5.42</ele>
        <time>2021-07-01T19:39:54Z</time>
      </trkpt>
      <trkpt lat="44.65457" lon="-1.15861">
        <ele>4.94</ele>
        <time>2021-07-01T19:40:05Z</time>
      </trkpt>
      <trkpt lat="44.6545" lon="-1.15858">
        <ele>5.91</ele>
        <time>2021-07-01T19:40:06Z</time>
      </trkpt>
      <trkpt lat="44.65443" lon="-1.15857">
        <ele>5.91</ele>
        <time>2021-07-01T19:40:07Z</time>
      </trkpt>
      <trkpt lat="44.65437" lon="-1.15857">
        <ele>4.94</ele>
        <time>2021-07-01T19:40:08Z</time>
      </trkpt>
      <trkpt lat="44.65433" lon="-1.15859">
        <ele>4.94</ele>
        <time>2021-07-01T19:40:09Z</time>
      </trkpt>
      <trkpt lat="44.65427" lon="-1.15863">
        <ele>4.94</ele>
        <time>2021-07-01T19:40:10Z</time>
      </trkpt>
      <trkpt lat="44.65399" lon="-1.15887">
        <ele>4.94</ele>
        <time>2021-07-01T19:40:15Z</time>
      </trkpt>
      <trkpt lat="44.65395" lon="-1.15891">
        <ele>4.94</ele>
        <time>2021-07-01T19:40:16Z</time>
      </trkpt>
      <trkpt lat="44.65391" lon="-1.15896">
        <ele>4.94</ele>
        <time>2021-07-01T19:40:17Z</time>
      </trkpt>
      <trkpt lat="44.65387" lon="-1.15901">
        <ele>4.94</ele>
        <time>2021-07-01T19:40:18Z</time>
      </trkpt>
      <trkpt lat="44.65384" lon="-1.15906">
        <ele>4.94</ele>
        <time>2021-07-01T19:40:19Z</time>
      </trkpt>
      <trkpt lat="44.65385" lon="-1.15919">
        <ele>4.94</ele>
        <time>2021-07-01T19:40:20Z</time>
      </trkpt>
      <trkpt lat="44.65386" lon="-1.15924">
        <ele>4.46</ele>
        <time>2021-07-01T19:40:21Z</time>
      </trkpt>
      <trkpt lat="44.65384" lon="-1.15932">
        <ele>3.98</ele>
        <time>2021-07-01T19:40:22Z</time>
      </trkpt>
      <trkpt lat="44.65381" lon="-1.15937">
        <ele>3.98</ele>
        <time>2021-07-01T19:40:23Z</time>
      </trkpt>
      <trkpt lat="44.65378" lon="-1.15942">
        <ele>3.98</ele>
        <time>2021-07-01T19:40:24Z</time>
      </trkpt>
      <trkpt lat="44.65373" lon="-1.15943">
        <ele>4.46</ele>
        <time>2021-07-01T19:40:25Z</time>
      </trkpt>
      <trkpt lat="44.65368" lon="-1.15944">
        <ele>4.46</ele>
        <time>2021-07-01T19:40:26Z</time>
      </trkpt>
      <trkpt lat="44.65363" lon="-1.15942">
        <ele>4.46</ele>
        <time>2021-07-01T19:40:27Z</time>
      </trkpt>
      <trkpt lat="44.65359" lon="-1.15936">
        <ele>4.46</ele>
        <time>2021-07-01T19:40:28Z</time>
      </trkpt>
      <trkpt lat="44.65355" lon="-1.1593">
        <ele>4.46</ele>
        <time>2021-07-01T19:40:29Z</time>
      </trkpt>
      <trkpt lat="44.65355" lon="-1.15929">
        <ele>3.98</ele>
        <time>2021-07-01T19:40:30Z</time>
      </trkpt>
      <trkpt lat="44.65349" lon="-1.15914">
        <ele>3.98</ele>
        <time>2021-07-01T19:40:31Z</time>
      </trkpt>
      <trkpt lat="44.65337" lon="-1.15905">
        <ele>3.98</ele>
        <time>2021-07-01T19:40:32Z</time>
      </trkpt>
      <trkpt lat="44.65337" lon="-1.15905">
        <ele>3.98</ele>
        <time>2021-07-01T19:40:33Z</time>
      </trkpt>
      <trkpt lat="44.65329" lon="-1.159">
        <ele>3.5</ele>
        <time>2021-07-01T19:40:34Z</time>
      </trkpt>
      <trkpt lat="44.65319" lon="-1.15895">
        <ele>3.02</ele>
        <time>2021-07-01T19:40:35Z</time>
      </trkpt>
      <trkpt lat="44.65202" lon="-1.1584">
        <ele>-0.82</ele>
        <time>2021-07-01T19:40:44Z</time>
      </trkpt>
      <trkpt lat="44.65063" lon="-1.15799">
        <ele>-9</ele>
        <time>2021-07-01T19:40:54Z</time>
      </trkpt>
      <trkpt lat="44.64897" lon="-1.15799">
        <ele>-6.11</ele>
        <time>2021-07-01T19:41:05Z</time>
      </trkpt>
      <trkpt lat="44.64789" lon="-1.15813">
        <ele>-8.51</ele>
        <time>2021-07-01T19:41:16Z</time>
      </trkpt>
      <trkpt lat="44.64723" lon="-1.15819">
        <ele>-9.96</ele>
        <time>2021-07-01T19:41:24Z</time>
      </trkpt>
      <trkpt lat="44.64718" lon="-1.1582">
        <ele>-9.48</ele>
        <time>2021-07-01T19:41:25Z</time>
      </trkpt>
      <trkpt lat="44.64713" lon="-1.1582">
        <ele>-9.96</ele>
        <time>2021-07-01T19:41:26Z</time>
      </trkpt>
      <trkpt lat="44.64703" lon="-1.15837">
        <ele>-9.96</ele>
        <time>2021-07-01T19:41:28Z</time>
      </trkpt>
      <trkpt lat="44.64698" lon="-1.15842">
        <ele>-9.48</ele>
        <time>2021-07-01T19:41:29Z</time>
      </trkpt>
      <trkpt lat="44.64692" lon="-1.15846">
        <ele>-8.51</ele>
        <time>2021-07-01T19:41:30Z</time>
      </trkpt>
      <trkpt lat="44.64682" lon="-1.15848">
        <ele>-7.55</ele>
        <time>2021-07-01T19:41:31Z</time>
      </trkpt>
      <trkpt lat="44.64675" lon="-1.15845">
        <ele>-7.07</ele>
        <time>2021-07-01T19:41:32Z</time>
      </trkpt>
      <trkpt lat="44.64667" lon="-1.15838">
        <ele>-7.07</ele>
        <time>2021-07-01T19:41:33Z</time>
      </trkpt>
      <trkpt lat="44.6466" lon="-1.15833">
        <ele>-6.11</ele>
        <time>2021-07-01T19:41:34Z</time>
      </trkpt>
      <trkpt lat="44.64564" lon="-1.15822">
        <ele>-4.67</ele>
        <time>2021-07-01T19:41:41Z</time>
      </trkpt>
      <trkpt lat="44.64373" lon="-1.15779">
        <ele>-2.75</ele>
        <time>2021-07-01T19:41:51Z</time>
      </trkpt>
      <trkpt lat="44.64043" lon="-1.15651">
        <ele>-1.79</ele>
        <time>2021-07-01T19:42:07Z</time>
      </trkpt>
      <trkpt lat="44.63739" lon="-1.15567">
        <ele>-2.27</ele>
        <time>2021-07-01T19:42:22Z</time>
      </trkpt>
      <trkpt lat="44.63449" lon="-1.15552">
        <ele>-1.79</ele>
        <time>2021-07-01T19:42:35Z</time>
      </trkpt>
      <trkpt lat="44.63268" lon="-1.15589">
        <ele>-0.82</ele>
        <time>2021-07-01T19:42:44Z</time>
      </trkpt>
      <trkpt lat="44.63101" lon="-1.15635">
        <ele>-0.34</ele>
        <time>2021-07-01T19:42:55Z</time>
      </trkpt>
      <trkpt lat="44.63044" lon="-1.15649">
        <ele>1.1</ele>
        <time>2021-07-01T19:43:01Z</time>
      </trkpt>
      <trkpt lat="44.63029" lon="-1.15669">
        <ele>2.54</ele>
        <time>2021-07-01T19:43:08Z</time>
      </trkpt>
      <trkpt lat="44.63028" lon="-1.15673">
        <ele>2.54</ele>
        <time>2021-07-01T19:43:09Z</time>
      </trkpt>
      <trkpt lat="44.63027" lon="-1.1568">
        <ele>2.06</ele>
        <time>2021-07-01T19:43:10Z</time>
      </trkpt>
      <trkpt lat="44.63026" lon="-1.15685">
        <ele>2.06</ele>
        <time>2021-07-01T19:43:11Z</time>
      </trkpt>
      <trkpt lat="44.6301" lon="-1.15707">
        <ele>1.1</ele>
        <time>2021-07-01T19:43:12Z</time>
      </trkpt>
      <trkpt lat="44.6301" lon="-1.15707">
        <ele>1.1</ele>
        <time>2021-07-01T19:43:13Z</time>
      </trkpt>
      <trkpt lat="44.6301" lon="-1.15718">
        <ele>1.1</ele>
        <time>2021-07-01T19:43:14Z</time>
      </trkpt>
      <trkpt lat="44.63025" lon="-1.15741">
        <ele>0.14</ele>
        <time>2021-07-01T19:43:15Z</time>
      </trkpt>
      <trkpt lat="44.63033" lon="-1.15746">
        <ele>-0.34</ele>
        <time>2021-07-01T19:43:16Z</time>
      </trkpt>
      <trkpt lat="44.63041" lon="-1.15752">
        <ele>0.14</ele>
        <time>2021-07-01T19:43:17Z</time>
      </trkpt>
      <trkpt lat="44.63051" lon="-1.15758">
        <ele>-0.34</ele>
        <time>2021-07-01T19:43:18Z</time>
      </trkpt>
      <trkpt lat="44.63062" lon="-1.15765">
        <ele>-1.79</ele>
        <time>2021-07-01T19:43:19Z</time>
      </trkpt>
      <trkpt lat="44.63074" lon="-1.15773">
        <ele>-2.75</ele>
        <time>2021-07-01T19:43:20Z</time>
      </trkpt>
      <trkpt lat="44.63203" lon="-1.15889">
        <ele>-4.19</ele>
        <time>2021-07-01T19:43:31Z</time>
      </trkpt>
      <trkpt lat="44.63259" lon="-1.16005">
        <ele>-2.75</ele>
        <time>2021-07-01T19:43:38Z</time>
      </trkpt>
      <trkpt lat="44.63259" lon="-1.16005">
        <ele>-2.75</ele>
        <time>2021-07-01T19:43:39Z</time>
      </trkpt>
      <trkpt lat="44.63263" lon="-1.1602">
        <ele>-2.27</ele>
        <time>2021-07-01T19:43:40Z</time>
      </trkpt>
      <trkpt lat="44.63272" lon="-1.1606">
        <ele>-2.27</ele>
        <time>2021-07-01T19:43:43Z</time>
      </trkpt>
      <trkpt lat="44.63276" lon="-1.16067">
        <ele>-2.27</ele>
        <time>2021-07-01T19:43:44Z</time>
      </trkpt>
      <trkpt lat="44.63281" lon="-1.16074">
        <ele>-2.27</ele>
        <time>2021-07-01T19:43:45Z</time>
      </trkpt>
      <trkpt lat="44.63285" lon="-1.16081">
        <ele>-2.27</ele>
        <time>2021-07-01T19:43:46Z</time>
      </trkpt>
      <trkpt lat="44.63289" lon="-1.16086">
        <ele>-2.75</ele>
        <time>2021-07-01T19:43:47Z</time>
      </trkpt>
      <trkpt lat="44.63293" lon="-1.16089">
        <ele>-2.75</ele>
        <time>2021-07-01T19:43:48Z</time>
      </trkpt>
      <trkpt lat="44.63297" lon="-1.16091">
        <ele>-2.75</ele>
        <time>2021-07-01T19:43:49Z</time>
      </trkpt>
      <trkpt lat="44.63301" lon="-1.16093">
        <ele>-2.75</ele>
        <time>2021-07-01T19:43:50Z</time>
      </trkpt>
      <trkpt lat="44.63305" lon="-1.16094">
        <ele>-2.75</ele>
        <time>2021-07-01T19:43:51Z</time>
      </trkpt>
      <trkpt lat="44.63315" lon="-1.16083">
        <ele>-2.75</ele>
        <time>2021-07-01T19:43:52Z</time>
      </trkpt>
      <trkpt lat="44.63314" lon="-1.16078">
        <ele>-2.27</ele>
        <time>2021-07-01T19:43:53Z</time>
      </trkpt>
      <trkpt lat="44.63316" lon="-1.16069">
        <ele>-2.27</ele>
        <time>2021-07-01T19:43:54Z</time>
      </trkpt>
      <trkpt lat="44.6332" lon="-1.16062">
        <ele>-1.79</ele>
        <time>2021-07-01T19:43:55Z</time>
      </trkpt>
      <trkpt lat="44.63334" lon="-1.16053">
        <ele>-1.79</ele>
        <time>2021-07-01T19:43:56Z</time>
      </trkpt>
      <trkpt lat="44.6334" lon="-1.16052">
        <ele>-1.79</ele>
        <time>2021-07-01T19:43:57Z</time>
      </trkpt>
      <trkpt lat="44.6334" lon="-1.16052">
        <ele>-1.79</ele>
        <time>2021-07-01T19:43:58Z</time>
      </trkpt>
      <trkpt lat="44.63348" lon="-1.16055">
        <ele>-1.79</ele>
        <time>2021-07-01T19:43:59Z</time>
      </trkpt>
      <trkpt lat="44.63357" lon="-1.16065">
        <ele>-1.79</ele>
        <time>2021-07-01T19:44:00Z</time>
      </trkpt>
      <trkpt lat="44.63359" lon="-1.16076">
        <ele>-1.79</ele>
        <time>2021-07-01T19:44:01Z</time>
      </trkpt>
      <trkpt lat="44.63359" lon="-1.16086">
        <ele>-2.27</ele>
        <time>2021-07-01T19:44:02Z</time>
      </trkpt>
      <trkpt lat="44.63359" lon="-1.1609">
        <ele>-2.27</ele>
        <time>2021-07-01T19:44:03Z</time>
      </trkpt>
      <trkpt lat="44.63341" lon="-1.1624">
        <ele>-2.27</ele>
        <time>2021-07-01T19:44:13Z</time>
      </trkpt>
      <trkpt lat="44.63336" lon="-1.16386">
        <ele>2.54</ele>
        <time>2021-07-01T19:44:22Z</time>
      </trkpt>
      <trkpt lat="44.63353" lon="-1.16578">
        <ele>4.46</ele>
        <time>2021-07-01T19:44:33Z</time>
      </trkpt>
      <trkpt lat="44.63377" lon="-1.16778">
        <ele>3.98</ele>
        <time>2021-07-01T19:44:46Z</time>
      </trkpt>
      <trkpt lat="44.6338" lon="-1.16802">
        <ele>4.94</ele>
        <time>2021-07-01T19:44:49Z</time>
      </trkpt>
      <trkpt lat="44.6338" lon="-1.16805">
        <ele>4.94</ele>
        <time>2021-07-01T19:44:50Z</time>
      </trkpt>
      <trkpt lat="44.63385" lon="-1.16808">
        <ele>4.94</ele>
        <time>2021-07-01T19:44:51Z</time>
      </trkpt>
      <trkpt lat="44.63389" lon="-1.1681">
        <ele>4.94</ele>
        <time>2021-07-01T19:44:52Z</time>
      </trkpt>
      <trkpt lat="44.63396" lon="-1.16815">
        <ele>4.94</ele>
        <time>2021-07-01T19:44:53Z</time>
      </trkpt>
      <trkpt lat="44.63399" lon="-1.16821">
        <ele>5.42</ele>
        <time>2021-07-01T19:44:54Z</time>
      </trkpt>
      <trkpt lat="44.63401" lon="-1.16827">
        <ele>5.91</ele>
        <time>2021-07-01T19:44:55Z</time>
      </trkpt>
      <trkpt lat="44.63401" lon="-1.16838">
        <ele>6.39</ele>
        <time>2021-07-01T19:44:56Z</time>
      </trkpt>
      <trkpt lat="44.634" lon="-1.16844">
        <ele>6.87</ele>
        <time>2021-07-01T19:44:57Z</time>
      </trkpt>
      <trkpt lat="44.63395" lon="-1.1685">
        <ele>6.87</ele>
        <time>2021-07-01T19:44:58Z</time>
      </trkpt>
      <trkpt lat="44.63391" lon="-1.16854">
        <ele>7.35</ele>
        <time>2021-07-01T19:44:59Z</time>
      </trkpt>
      <trkpt lat="44.63391" lon="-1.16854">
        <ele>7.35</ele>
        <time>2021-07-01T19:45:00Z</time>
      </trkpt>
      <trkpt lat="44.63377" lon="-1.16874">
        <ele>7.83</ele>
        <time>2021-07-01T19:45:01Z</time>
      </trkpt>
      <trkpt lat="44.63376" lon="-1.16886">
        <ele>7.83</ele>
        <time>2021-07-01T19:45:02Z</time>
      </trkpt>
      <trkpt lat="44.63374" lon="-1.16911">
        <ele>8.31</ele>
        <time>2021-07-01T19:45:03Z</time>
      </trkpt>
      <trkpt lat="44.63361" lon="-1.17077">
        <ele>7.83</ele>
        <time>2021-07-01T19:45:14Z</time>
      </trkpt>
      <trkpt lat="44.63344" lon="-1.1732">
        <ele>12.63</ele>
        <time>2021-07-01T19:45:26Z</time>
      </trkpt>
      <trkpt lat="44.63346" lon="-1.17636">
        <ele>22.25</ele>
        <time>2021-07-01T19:45:40Z</time>
      </trkpt>
      <trkpt lat="44.63348" lon="-1.17938">
        <ele>23.69</ele>
        <time>2021-07-01T19:45:54Z</time>
      </trkpt>
      <trkpt lat="44.6335" lon="-1.18141">
        <ele>29.94</ele>
        <time>2021-07-01T19:46:05Z</time>
      </trkpt>
      <trkpt lat="44.63344" lon="-1.18322">
        <ele>25.61</ele>
        <time>2021-07-01T19:46:16Z</time>
      </trkpt>
      <trkpt lat="44.63291" lon="-1.18472">
        <ele>19.36</ele>
        <time>2021-07-01T19:46:25Z</time>
      </trkpt>
      <trkpt lat="44.63199" lon="-1.18626">
        <ele>14.56</ele>
        <time>2021-07-01T19:46:36Z</time>
      </trkpt>
      <trkpt lat="44.63194" lon="-1.18642">
        <ele>15.04</ele>
        <time>2021-07-01T19:46:37Z</time>
      </trkpt>
      <trkpt lat="44.6319" lon="-1.18672">
        <ele>15.52</ele>
        <time>2021-07-01T19:46:38Z</time>
      </trkpt>
      <trkpt lat="44.6319" lon="-1.18672">
        <ele>16.48</ele>
        <time>2021-07-01T19:46:39Z</time>
      </trkpt>
      <trkpt lat="44.63191" lon="-1.1869">
        <ele>16.96</ele>
        <time>2021-07-01T19:46:40Z</time>
      </trkpt>
      <trkpt lat="44.63192" lon="-1.18705">
        <ele>17.44</ele>
        <time>2021-07-01T19:46:41Z</time>
      </trkpt>
      <trkpt lat="44.63197" lon="-1.18721">
        <ele>18.4</ele>
        <time>2021-07-01T19:46:42Z</time>
      </trkpt>
      <trkpt lat="44.63211" lon="-1.18746">
        <ele>19.36</ele>
        <time>2021-07-01T19:46:43Z</time>
      </trkpt>
      <trkpt lat="44.63211" lon="-1.18746">
        <ele>20.81</ele>
        <time>2021-07-01T19:46:44Z</time>
      </trkpt>
      <trkpt lat="44.6322" lon="-1.18757">
        <ele>21.77</ele>
        <time>2021-07-01T19:46:45Z</time>
      </trkpt>
      <trkpt lat="44.6323" lon="-1.18766">
        <ele>22.73</ele>
        <time>2021-07-01T19:46:46Z</time>
      </trkpt>
      <trkpt lat="44.63241" lon="-1.18772">
        <ele>23.69</ele>
        <time>2021-07-01T19:46:47Z</time>
      </trkpt>
      <trkpt lat="44.63252" lon="-1.18776">
        <ele>24.65</ele>
        <time>2021-07-01T19:46:48Z</time>
      </trkpt>
      <trkpt lat="44.63264" lon="-1.18778">
        <ele>25.13</ele>
        <time>2021-07-01T19:46:49Z</time>
      </trkpt>
      <trkpt lat="44.63337" lon="-1.1879">
        <ele>26.09</ele>
        <time>2021-07-01T19:46:55Z</time>
      </trkpt>
      <trkpt lat="44.63348" lon="-1.18792">
        <ele>26.57</ele>
        <time>2021-07-01T19:46:56Z</time>
      </trkpt>
      <trkpt lat="44.63369" lon="-1.18807">
        <ele>28.02</ele>
        <time>2021-07-01T19:46:57Z</time>
      </trkpt>
      <trkpt lat="44.63369" lon="-1.18807">
        <ele>28.5</ele>
        <time>2021-07-01T19:46:58Z</time>
      </trkpt>
      <trkpt lat="44.63376" lon="-1.18819">
        <ele>28.98</ele>
        <time>2021-07-01T19:46:59Z</time>
      </trkpt>
      <trkpt lat="44.63383" lon="-1.18835">
        <ele>29.46</ele>
        <time>2021-07-01T19:47:00Z</time>
      </trkpt>
      <trkpt lat="44.63387" lon="-1.18847">
        <ele>30.42</ele>
        <time>2021-07-01T19:47:01Z</time>
      </trkpt>
      <trkpt lat="44.63387" lon="-1.18865">
        <ele>30.42</ele>
        <time>2021-07-01T19:47:02Z</time>
      </trkpt>
      <trkpt lat="44.63382" lon="-1.18896">
        <ele>30.42</ele>
        <time>2021-07-01T19:47:03Z</time>
      </trkpt>
      <trkpt lat="44.63382" lon="-1.18896">
        <ele>30.9</ele>
        <time>2021-07-01T19:47:04Z</time>
      </trkpt>
      <trkpt lat="44.63367" lon="-1.18919">
        <ele>30.9</ele>
        <time>2021-07-01T19:47:05Z</time>
      </trkpt>
      <trkpt lat="44.63367" lon="-1.18919">
        <ele>31.38</ele>
        <time>2021-07-01T19:47:06Z</time>
      </trkpt>
      <trkpt lat="44.6336" lon="-1.18928">
        <ele>31.86</ele>
        <time>2021-07-01T19:47:07Z</time>
      </trkpt>
      <trkpt lat="44.63348" lon="-1.18935">
        <ele>32.34</ele>
        <time>2021-07-01T19:47:08Z</time>
      </trkpt>
      <trkpt lat="44.63334" lon="-1.18943">
        <ele>32.82</ele>
        <time>2021-07-01T19:47:09Z</time>
      </trkpt>
      <trkpt lat="44.63274" lon="-1.1898">
        <ele>35.23</ele>
        <time>2021-07-01T19:47:14Z</time>
      </trkpt>
      <trkpt lat="44.63265" lon="-1.18993">
        <ele>35.71</ele>
        <time>2021-07-01T19:47:15Z</time>
      </trkpt>
      <trkpt lat="44.63257" lon="-1.19006">
        <ele>36.67</ele>
        <time>2021-07-01T19:47:16Z</time>
      </trkpt>
      <trkpt lat="44.63252" lon="-1.19022">
        <ele>36.67</ele>
        <time>2021-07-01T19:47:17Z</time>
      </trkpt>
      <trkpt lat="44.63247" lon="-1.1904">
        <ele>37.63</ele>
        <time>2021-07-01T19:47:18Z</time>
      </trkpt>
      <trkpt lat="44.63246" lon="-1.19055">
        <ele>38.59</ele>
        <time>2021-07-01T19:47:19Z</time>
      </trkpt>
      <trkpt lat="44.63248" lon="-1.19073">
        <ele>38.59</ele>
        <time>2021-07-01T19:47:20Z</time>
      </trkpt>
      <trkpt lat="44.6325" lon="-1.1909">
        <ele>39.07</ele>
        <time>2021-07-01T19:47:21Z</time>
      </trkpt>
      <trkpt lat="44.63255" lon="-1.19106">
        <ele>39.07</ele>
        <time>2021-07-01T19:47:22Z</time>
      </trkpt>
      <trkpt lat="44.63266" lon="-1.19133">
        <ele>38.59</ele>
        <time>2021-07-01T19:47:23Z</time>
      </trkpt>
      <trkpt lat="44.63272" lon="-1.19146">
        <ele>38.11</ele>
        <time>2021-07-01T19:47:24Z</time>
      </trkpt>
      <trkpt lat="44.63272" lon="-1.19146">
        <ele>37.63</ele>
        <time>2021-07-01T19:47:25Z</time>
      </trkpt>
      <trkpt lat="44.63276" lon="-1.1916">
        <ele>37.63</ele>
        <time>2021-07-01T19:47:26Z</time>
      </trkpt>
      <trkpt lat="44.6328" lon="-1.19174">
        <ele>37.63</ele>
        <time>2021-07-01T19:47:27Z</time>
      </trkpt>
      <trkpt lat="44.63283" lon="-1.19188">
        <ele>38.11</ele>
        <time>2021-07-01T19:47:28Z</time>
      </trkpt>
      <trkpt lat="44.63286" lon="-1.19204">
        <ele>37.63</ele>
        <time>2021-07-01T19:47:29Z</time>
      </trkpt>
      <trkpt lat="44.63285" lon="-1.1922">
        <ele>37.15</ele>
        <time>2021-07-01T19:47:30Z</time>
      </trkpt>
      <trkpt lat="44.63284" lon="-1.19237">
        <ele>36.19</ele>
        <time>2021-07-01T19:47:31Z</time>
      </trkpt>
      <trkpt lat="44.63281" lon="-1.19252">
        <ele>34.74</ele>
        <time>2021-07-01T19:47:32Z</time>
      </trkpt>
      <trkpt lat="44.63272" lon="-1.19281">
        <ele>33.3</ele>
        <time>2021-07-01T19:47:33Z</time>
      </trkpt>
      <trkpt lat="44.63212" lon="-1.19457">
        <ele>24.17</ele>
        <time>2021-07-01T19:47:46Z</time>
      </trkpt>
      <trkpt lat="44.63133" lon="-1.19657">
        <ele>14.56</ele>
        <time>2021-07-01T19:48:00Z</time>
      </trkpt>
      <trkpt lat="44.63113" lon="-1.19707">
        <ele>13.12</ele>
        <time>2021-07-01T19:48:04Z</time>
      </trkpt>
      <trkpt lat="44.6311" lon="-1.19737">
        <ele>13.12</ele>
        <time>2021-07-01T19:48:05Z</time>
      </trkpt>
      <trkpt lat="44.6311" lon="-1.19737">
        <ele>12.15</ele>
        <time>2021-07-01T19:48:06Z</time>
      </trkpt>
      <trkpt lat="44.63094" lon="-1.19916">
        <ele>7.83</ele>
        <time>2021-07-01T19:48:18Z</time>
      </trkpt>
      <trkpt lat="44.63092" lon="-1.19941">
        <ele>6.39</ele>
        <time>2021-07-01T19:48:21Z</time>
      </trkpt>
      <trkpt lat="44.6309" lon="-1.19989">
        <ele>4.46</ele>
        <time>2021-07-01T19:48:28Z</time>
      </trkpt>
      <trkpt lat="44.63082" lon="-1.20102">
        <ele>-0.34</ele>
        <time>2021-07-01T19:48:42Z</time>
      </trkpt>
      <trkpt lat="44.63076" lon="-1.20186">
        <ele>-1.3</ele>
        <time>2021-07-01T19:48:53Z</time>
      </trkpt>
      <trkpt lat="44.63072" lon="-1.2022">
        <ele>1.58</ele>
        <time>2021-07-01T19:49:04Z</time>
      </trkpt>
      <trkpt lat="44.63069" lon="-1.20263">
        <ele>-0.34</ele>
        <time>2021-07-01T19:49:13Z</time>
      </trkpt>
      <trkpt lat="44.63065" lon="-1.20268">
        <ele>-0.82</ele>
        <time>2021-07-01T19:49:14Z</time>
      </trkpt>
      <trkpt lat="44.63062" lon="-1.20267">
        <ele>-0.82</ele>
        <time>2021-07-01T19:49:15Z</time>
      </trkpt>
      <trkpt lat="44.63058" lon="-1.20267">
        <ele>-1.3</ele>
        <time>2021-07-01T19:49:16Z</time>
      </trkpt>
      <trkpt lat="44.63054" lon="-1.20266">
        <ele>-1.79</ele>
        <time>2021-07-01T19:49:17Z</time>
      </trkpt>
      <trkpt lat="44.63051" lon="-1.20266">
        <ele>-2.27</ele>
        <time>2021-07-01T19:49:18Z</time>
      </trkpt>
      <trkpt lat="44.63048" lon="-1.20266">
        <ele>-2.75</ele>
        <time>2021-07-01T19:49:19Z</time>
      </trkpt>
      <trkpt lat="44.63044" lon="-1.20265">
        <ele>-2.75</ele>
        <time>2021-07-01T19:49:20Z</time>
      </trkpt>
      <trkpt lat="44.6304" lon="-1.20265">
        <ele>-3.23</ele>
        <time>2021-07-01T19:49:21Z</time>
      </trkpt>
      <trkpt lat="44.63036" lon="-1.20265">
        <ele>-3.23</ele>
        <time>2021-07-01T19:49:22Z</time>
      </trkpt>
      <trkpt lat="44.63032" lon="-1.20264">
        <ele>-3.71</ele>
        <time>2021-07-01T19:49:23Z</time>
      </trkpt>
      <trkpt lat="44.62942" lon="-1.20256">
        <ele>-2.27</ele>
        <time>2021-07-01T19:49:38Z</time>
      </trkpt>
      <trkpt lat="44.62857" lon="-1.20249">
        <ele>-0.82</ele>
        <time>2021-07-01T19:49:51Z</time>
      </trkpt>
      <trkpt lat="44.62738" lon="-1.20232">
        <ele>-1.3</ele>
        <time>2021-07-01T19:50:05Z</time>
      </trkpt>
      <trkpt lat="44.62686" lon="-1.20228">
        <ele>-2.27</ele>
        <time>2021-07-01T19:50:14Z</time>
      </trkpt>
      <trkpt lat="44.62604" lon="-1.20217">
        <ele>-4.19</ele>
        <time>2021-07-01T19:50:26Z</time>
      </trkpt>
      <trkpt lat="44.62479" lon="-1.20204">
        <ele>-5.63</ele>
        <time>2021-07-01T19:50:41Z</time>
      </trkpt>
      <trkpt lat="44.62471" lon="-1.20203">
        <ele>-6.11</ele>
        <time>2021-07-01T19:50:42Z</time>
      </trkpt>
      <trkpt lat="44.62457" lon="-1.20201">
        <ele>-7.07</ele>
        <time>2021-07-01T19:50:44Z</time>
      </trkpt>
      <trkpt lat="44.62376" lon="-1.20195">
        <ele>-10.44</ele>
        <time>2021-07-01T19:50:57Z</time>
      </trkpt>
      <trkpt lat="44.62351" lon="-1.20194">
        <ele>-11.88</ele>
        <time>2021-07-01T19:51:07Z</time>
      </trkpt>
    </trkseg>
  </trk>
  <trk>
    <name><![CDATA[Journal actif: 2021-07-01 18:05]]></name>
    <trkseg>
      <trkpt lat="44.62093" lon="-1.20189">
        <ele>-5.63</ele>
        <time>2021-07-01T20:05:24Z</time>
      </trkpt>
      <trkpt lat="44.6201" lon="-1.20164">
        <ele>-4.19</ele>
        <time>2021-07-01T20:05:37Z</time>
      </trkpt>
      <trkpt lat="44.61863" lon="-1.20162">
        <ele>-3.71</ele>
        <time>2021-07-01T20:05:55Z</time>
      </trkpt>
      <trkpt lat="44.61752" lon="-1.20154">
        <ele>0.62</ele>
        <time>2021-07-01T20:06:09Z</time>
      </trkpt>
      <trkpt lat="44.61638" lon="-1.20164">
        <ele>5.42</ele>
        <time>2021-07-01T20:06:23Z</time>
      </trkpt>
      <trkpt lat="44.61529" lon="-1.20184">
        <ele>8.31</ele>
        <time>2021-07-01T20:06:35Z</time>
      </trkpt>
      <trkpt lat="44.6137" lon="-1.20212">
        <ele>7.83</ele>
        <time>2021-07-01T20:06:52Z</time>
      </trkpt>
      <trkpt lat="44.61292" lon="-1.20225">
        <ele>6.87</ele>
        <time>2021-07-01T20:07:03Z</time>
      </trkpt>
      <trkpt lat="44.61279" lon="-1.20228">
        <ele>6.87</ele>
        <time>2021-07-01T20:07:05Z</time>
      </trkpt>
      <trkpt lat="44.61242" lon="-1.20242">
        <ele>5.91</ele>
        <time>2021-07-01T20:07:13Z</time>
      </trkpt>
      <trkpt lat="44.61194" lon="-1.20267">
        <ele>6.39</ele>
        <time>2021-07-01T20:07:23Z</time>
      </trkpt>
      <trkpt lat="44.61188" lon="-1.2027">
        <ele>6.39</ele>
        <time>2021-07-01T20:07:24Z</time>
      </trkpt>
      <trkpt lat="44.61181" lon="-1.20275">
        <ele>7.35</ele>
        <time>2021-07-01T20:07:25Z</time>
      </trkpt>
      <trkpt lat="44.61176" lon="-1.20281">
        <ele>7.83</ele>
        <time>2021-07-01T20:07:26Z</time>
      </trkpt>
      <trkpt lat="44.61171" lon="-1.20287">
        <ele>7.35</ele>
        <time>2021-07-01T20:07:27Z</time>
      </trkpt>
      <trkpt lat="44.61166" lon="-1.20294">
        <ele>6.87</ele>
        <time>2021-07-01T20:07:28Z</time>
      </trkpt>
      <trkpt lat="44.61096" lon="-1.20415">
        <ele>7.83</ele>
        <time>2021-07-01T20:07:42Z</time>
      </trkpt>
      <trkpt lat="44.61042" lon="-1.20473">
        <ele>9.27</ele>
        <time>2021-07-01T20:07:51Z</time>
      </trkpt>
      <trkpt lat="44.61026" lon="-1.20483">
        <ele>9.27</ele>
        <time>2021-07-01T20:07:52Z</time>
      </trkpt>
      <trkpt lat="44.60911" lon="-1.20522">
        <ele>5.42</ele>
        <time>2021-07-01T20:08:05Z</time>
      </trkpt>
      <trkpt lat="44.60802" lon="-1.20572">
        <ele>5.42</ele>
        <time>2021-07-01T20:08:18Z</time>
      </trkpt>
      <trkpt lat="44.60771" lon="-1.20591">
        <ele>3.98</ele>
        <time>2021-07-01T20:08:26Z</time>
      </trkpt>
      <trkpt lat="44.60768" lon="-1.20596">
        <ele>3.98</ele>
        <time>2021-07-01T20:08:27Z</time>
      </trkpt>
      <trkpt lat="44.60764" lon="-1.20596">
        <ele>3.98</ele>
        <time>2021-07-01T20:08:28Z</time>
      </trkpt>
      <trkpt lat="44.6076" lon="-1.20596">
        <ele>3.5</ele>
        <time>2021-07-01T20:08:29Z</time>
      </trkpt>
      <trkpt lat="44.60759" lon="-1.20592">
        <ele>3.5</ele>
        <time>2021-07-01T20:08:30Z</time>
      </trkpt>
      <trkpt lat="44.60757" lon="-1.20587">
        <ele>3.02</ele>
        <time>2021-07-01T20:08:31Z</time>
      </trkpt>
      <trkpt lat="44.60757" lon="-1.20582">
        <ele>3.02</ele>
        <time>2021-07-01T20:08:32Z</time>
      </trkpt>
      <trkpt lat="44.6076" lon="-1.20492">
        <ele>0.62</ele>
        <time>2021-07-01T20:08:43Z</time>
      </trkpt>
      <trkpt lat="44.60759" lon="-1.20471">
        <ele>0.62</ele>
        <time>2021-07-01T20:08:44Z</time>
      </trkpt>
      <trkpt lat="44.60746" lon="-1.20396">
        <ele>-1.3</ele>
        <time>2021-07-01T20:08:51Z</time>
      </trkpt>
      <trkpt lat="44.60739" lon="-1.20371">
        <ele>-1.79</ele>
        <time>2021-07-01T20:08:52Z</time>
      </trkpt>
      <trkpt lat="44.60739" lon="-1.20371">
        <ele>-1.79</ele>
        <time>2021-07-01T20:08:53Z</time>
      </trkpt>
      <trkpt lat="44.60734" lon="-1.2036">
        <ele>-3.23</ele>
        <time>2021-07-01T20:08:54Z</time>
      </trkpt>
      <trkpt lat="44.60725" lon="-1.20349">
        <ele>-3.71</ele>
        <time>2021-07-01T20:08:55Z</time>
      </trkpt>
      <trkpt lat="44.60718" lon="-1.20341">
        <ele>-4.19</ele>
        <time>2021-07-01T20:08:56Z</time>
      </trkpt>
      <trkpt lat="44.60712" lon="-1.20334">
        <ele>-4.19</ele>
        <time>2021-07-01T20:08:57Z</time>
      </trkpt>
      <trkpt lat="44.60703" lon="-1.20329">
        <ele>-4.67</ele>
        <time>2021-07-01T20:08:58Z</time>
      </trkpt>
      <trkpt lat="44.6065" lon="-1.203">
        <ele>-7.07</ele>
        <time>2021-07-01T20:09:04Z</time>
      </trkpt>
      <trkpt lat="44.60642" lon="-1.20293">
        <ele>-7.07</ele>
        <time>2021-07-01T20:09:05Z</time>
      </trkpt>
      <trkpt lat="44.60634" lon="-1.20287">
        <ele>-7.55</ele>
        <time>2021-07-01T20:09:06Z</time>
      </trkpt>
      <trkpt lat="44.60619" lon="-1.20272">
        <ele>-8.03</ele>
        <time>2021-07-01T20:09:07Z</time>
      </trkpt>
      <trkpt lat="44.60613" lon="-1.20262">
        <ele>-8.51</ele>
        <time>2021-07-01T20:09:08Z</time>
      </trkpt>
      <trkpt lat="44.60613" lon="-1.20262">
        <ele>-8.03</ele>
        <time>2021-07-01T20:09:09Z</time>
      </trkpt>
      <trkpt lat="44.60607" lon="-1.20252">
        <ele>-7.55</ele>
        <time>2021-07-01T20:09:10Z</time>
      </trkpt>
      <trkpt lat="44.60601" lon="-1.2024">
        <ele>-7.07</ele>
        <time>2021-07-01T20:09:11Z</time>
      </trkpt>
      <trkpt lat="44.60596" lon="-1.20226">
        <ele>-7.07</ele>
        <time>2021-07-01T20:09:12Z</time>
      </trkpt>
      <trkpt lat="44.6053" lon="-1.20044">
        <ele>-1.79</ele>
        <time>2021-07-01T20:09:26Z</time>
      </trkpt>
      <trkpt lat="44.60456" lon="-1.19879">
        <ele>0.14</ele>
        <time>2021-07-01T20:09:40Z</time>
      </trkpt>
      <trkpt lat="44.60448" lon="-1.1987">
        <ele>-0.34</ele>
        <time>2021-07-01T20:09:41Z</time>
      </trkpt>
      <trkpt lat="44.60438" lon="-1.19863">
        <ele>-0.34</ele>
        <time>2021-07-01T20:09:42Z</time>
      </trkpt>
      <trkpt lat="44.60428" lon="-1.19858">
        <ele>-1.3</ele>
        <time>2021-07-01T20:09:43Z</time>
      </trkpt>
      <trkpt lat="44.60417" lon="-1.19852">
        <ele>-1.3</ele>
        <time>2021-07-01T20:09:44Z</time>
      </trkpt>
      <trkpt lat="44.60405" lon="-1.19849">
        <ele>-1.3</ele>
        <time>2021-07-01T20:09:45Z</time>
      </trkpt>
      <trkpt lat="44.60393" lon="-1.19848">
        <ele>-1.79</ele>
        <time>2021-07-01T20:09:46Z</time>
      </trkpt>
      <trkpt lat="44.60381" lon="-1.19846">
        <ele>-2.27</ele>
        <time>2021-07-01T20:09:47Z</time>
      </trkpt>
      <trkpt lat="44.60259" lon="-1.19842">
        <ele>0.62</ele>
        <time>2021-07-01T20:09:58Z</time>
      </trkpt>
      <trkpt lat="44.60192" lon="-1.19817">
        <ele>3.5</ele>
        <time>2021-07-01T20:10:07Z</time>
      </trkpt>
      <trkpt lat="44.60132" lon="-1.19794">
        <ele>3.98</ele>
        <time>2021-07-01T20:10:16Z</time>
      </trkpt>
      <trkpt lat="44.59959" lon="-1.19725">
        <ele>16</ele>
        <time>2021-07-01T20:10:32Z</time>
      </trkpt>
      <trkpt lat="44.5988" lon="-1.19697">
        <ele>21.77</ele>
        <time>2021-07-01T20:10:43Z</time>
      </trkpt>
      <trkpt lat="44.59868" lon="-1.19694">
        <ele>22.25</ele>
        <time>2021-07-01T20:10:46Z</time>
      </trkpt>
      <trkpt lat="44.59865" lon="-1.19693">
        <ele>22.25</ele>
        <time>2021-07-01T20:10:47Z</time>
      </trkpt>
      <trkpt lat="44.59857" lon="-1.19691">
        <ele>22.73</ele>
        <time>2021-07-01T20:10:48Z</time>
      </trkpt>
      <trkpt lat="44.59839" lon="-1.19706">
        <ele>23.69</ele>
        <time>2021-07-01T20:10:52Z</time>
      </trkpt>
      <trkpt lat="44.59835" lon="-1.19708">
        <ele>24.17</ele>
        <time>2021-07-01T20:10:53Z</time>
      </trkpt>
      <trkpt lat="44.5983" lon="-1.19716">
        <ele>24.65</ele>
        <time>2021-07-01T20:10:54Z</time>
      </trkpt>
      <trkpt lat="44.59828" lon="-1.19721">
        <ele>24.65</ele>
        <time>2021-07-01T20:10:55Z</time>
      </trkpt>
      <trkpt lat="44.59827" lon="-1.19727">
        <ele>24.17</ele>
        <time>2021-07-01T20:10:56Z</time>
      </trkpt>
      <trkpt lat="44.59826" lon="-1.19733">
        <ele>24.17</ele>
        <time>2021-07-01T20:10:57Z</time>
      </trkpt>
      <trkpt lat="44.59826" lon="-1.19738">
        <ele>24.17</ele>
        <time>2021-07-01T20:10:58Z</time>
      </trkpt>
      <trkpt lat="44.59825" lon="-1.19745">
        <ele>24.17</ele>
        <time>2021-07-01T20:10:59Z</time>
      </trkpt>
      <trkpt lat="44.59827" lon="-1.1975">
        <ele>23.69</ele>
        <time>2021-07-01T20:11:00Z</time>
      </trkpt>
      <trkpt lat="44.59832" lon="-1.19761">
        <ele>23.69</ele>
        <time>2021-07-01T20:11:01Z</time>
      </trkpt>
      <trkpt lat="44.59832" lon="-1.19761">
        <ele>23.69</ele>
        <time>2021-07-01T20:11:02Z</time>
      </trkpt>
      <trkpt lat="44.59839" lon="-1.19766">
        <ele>23.21</ele>
        <time>2021-07-01T20:11:03Z</time>
      </trkpt>
      <trkpt lat="44.59839" lon="-1.19766">
        <ele>22.73</ele>
        <time>2021-07-01T20:11:04Z</time>
      </trkpt>
      <trkpt lat="44.59846" lon="-1.19771">
        <ele>21.77</ele>
        <time>2021-07-01T20:11:06Z</time>
      </trkpt>
      <trkpt lat="44.59854" lon="-1.19775">
        <ele>20.81</ele>
        <time>2021-07-01T20:11:07Z</time>
      </trkpt>
      <trkpt lat="44.59857" lon="-1.19777">
        <ele>20.32</ele>
        <time>2021-07-01T20:11:08Z</time>
      </trkpt>
      <trkpt lat="44.59859" lon="-1.19779">
        <ele>20.32</ele>
        <time>2021-07-01T20:11:09Z</time>
      </trkpt>
    </trkseg>
  </trk>
  <trk>
    <name><![CDATA[Journal actif: 2021-07-01 19:15]]></name>
    <trkseg>
      <trkpt lat="44.59712" lon="-1.19748">
        <ele>45.32</ele>
        <time>2021-07-01T21:15:04Z</time>
      </trkpt>
      <trkpt lat="44.59709" lon="-1.1975">
        <ele>41.95</ele>
        <time>2021-07-01T21:15:24Z</time>
      </trkpt>
      <trkpt lat="44.59707" lon="-1.19752">
        <ele>40.99</ele>
        <time>2021-07-01T21:15:58Z</time>
      </trkpt>
      <trkpt lat="44.59705" lon="-1.19756">
        <ele>39.55</ele>
        <time>2021-07-01T21:16:37Z</time>
      </trkpt>
      <trkpt lat="44.59705" lon="-1.19758">
        <ele>39.07</ele>
        <time>2021-07-01T21:17:24Z</time>
      </trkpt>
      <trkpt lat="44.59704" lon="-1.19759">
        <ele>38.11</ele>
        <time>2021-07-01T21:18:06Z</time>
      </trkpt>
      <trkpt lat="44.59707" lon="-1.19743">
        <ele>37.15</ele>
        <time>2021-07-01T21:18:26Z</time>
      </trkpt>
      <trkpt lat="44.59722" lon="-1.19708">
        <ele>33.3</ele>
        <time>2021-07-01T21:18:39Z</time>
      </trkpt>
      <trkpt lat="44.59722" lon="-1.19706">
        <ele>32.82</ele>
        <time>2021-07-01T21:18:40Z</time>
      </trkpt>
      <trkpt lat="44.59713" lon="-1.19698">
        <ele>28.5</ele>
        <time>2021-07-01T21:18:49Z</time>
      </trkpt>
      <trkpt lat="44.59694" lon="-1.1974">
        <ele>22.73</ele>
        <time>2021-07-01T21:19:04Z</time>
      </trkpt>
      <trkpt lat="44.59683" lon="-1.19782">
        <ele>18.88</ele>
        <time>2021-07-01T21:19:15Z</time>
      </trkpt>
      <trkpt lat="44.59675" lon="-1.198">
        <ele>18.4</ele>
        <time>2021-07-01T21:19:18Z</time>
      </trkpt>
      <trkpt lat="44.59673" lon="-1.19799">
        <ele>18.88</ele>
        <time>2021-07-01T21:19:19Z</time>
      </trkpt>
      <trkpt lat="44.59671" lon="-1.19798">
        <ele>18.88</ele>
        <time>2021-07-01T21:19:20Z</time>
      </trkpt>
      <trkpt lat="44.59669" lon="-1.19797">
        <ele>18.4</ele>
        <time>2021-07-01T21:19:21Z</time>
      </trkpt>
      <trkpt lat="44.59667" lon="-1.19795">
        <ele>18.4</ele>
        <time>2021-07-01T21:19:22Z</time>
      </trkpt>
      <trkpt lat="44.59698" lon="-1.19707">
        <ele>14.56</ele>
        <time>2021-07-01T21:19:38Z</time>
      </trkpt>
      <trkpt lat="44.59701" lon="-1.19691">
        <ele>14.56</ele>
        <time>2021-07-01T21:19:42Z</time>
      </trkpt>
      <trkpt lat="44.59688" lon="-1.19691">
        <ele>16</ele>
        <time>2021-07-01T21:19:51Z</time>
      </trkpt>
      <trkpt lat="44.59685" lon="-1.19698">
        <ele>16</ele>
        <time>2021-07-01T21:19:53Z</time>
      </trkpt>
      <trkpt lat="44.59667" lon="-1.19752">
        <ele>18.4</ele>
        <time>2021-07-01T21:20:07Z</time>
      </trkpt>
      <trkpt lat="44.59664" lon="-1.19764">
        <ele>19.36</ele>
        <time>2021-07-01T21:20:10Z</time>
      </trkpt>
      <trkpt lat="44.59653" lon="-1.19782">
        <ele>22.25</ele>
        <time>2021-07-01T21:20:14Z</time>
      </trkpt>
      <trkpt lat="44.59652" lon="-1.19781">
        <ele>22.73</ele>
        <time>2021-07-01T21:20:15Z</time>
      </trkpt>
      <trkpt lat="44.5965" lon="-1.19779">
        <ele>22.73</ele>
        <time>2021-07-01T21:20:16Z</time>
      </trkpt>
      <trkpt lat="44.59649" lon="-1.19778">
        <ele>23.21</ele>
        <time>2021-07-01T21:20:17Z</time>
      </trkpt>
      <trkpt lat="44.59647" lon="-1.19777">
        <ele>23.69</ele>
        <time>2021-07-01T21:20:18Z</time>
      </trkpt>
      <trkpt lat="44.59646" lon="-1.19776">
        <ele>24.17</ele>
        <time>2021-07-01T21:20:19Z</time>
      </trkpt>
      <trkpt lat="44.59641" lon="-1.19767">
        <ele>24.65</ele>
        <time>2021-07-01T21:20:20Z</time>
      </trkpt>
      <trkpt lat="44.59647" lon="-1.19694">
        <ele>25.61</ele>
        <time>2021-07-01T21:20:35Z</time>
      </trkpt>
      <trkpt lat="44.59658" lon="-1.19678">
        <ele>27.05</ele>
        <time>2021-07-01T21:20:43Z</time>
      </trkpt>
      <trkpt lat="44.59659" lon="-1.19676">
        <ele>27.05</ele>
        <time>2021-07-01T21:20:44Z</time>
      </trkpt>
      <trkpt lat="44.59664" lon="-1.19669">
        <ele>27.53</ele>
        <time>2021-07-01T21:20:45Z</time>
      </trkpt>
      <trkpt lat="44.59664" lon="-1.19669">
        <ele>27.53</ele>
        <time>2021-07-01T21:20:46Z</time>
      </trkpt>
      <trkpt lat="44.59668" lon="-1.19668">
        <ele>27.05</ele>
        <time>2021-07-01T21:20:47Z</time>
      </trkpt>
      <trkpt lat="44.59672" lon="-1.19667">
        <ele>26.57</ele>
        <time>2021-07-01T21:20:48Z</time>
      </trkpt>
      <trkpt lat="44.59676" lon="-1.19665">
        <ele>26.57</ele>
        <time>2021-07-01T21:20:49Z</time>
      </trkpt>
      <trkpt lat="44.5968" lon="-1.19664">
        <ele>26.09</ele>
        <time>2021-07-01T21:20:50Z</time>
      </trkpt>
      <trkpt lat="44.59687" lon="-1.19664">
        <ele>26.09</ele>
        <time>2021-07-01T21:20:51Z</time>
      </trkpt>
      <trkpt lat="44.59727" lon="-1.19685">
        <ele>22.25</ele>
        <time>2021-07-01T21:21:00Z</time>
      </trkpt>
      <trkpt lat="44.59755" lon="-1.19707">
        <ele>21.29</ele>
        <time>2021-07-01T21:21:12Z</time>
      </trkpt>
      <trkpt lat="44.59771" lon="-1.19728">
        <ele>22.73</ele>
        <time>2021-07-01T21:21:30Z</time>
      </trkpt>
      <trkpt lat="44.59806" lon="-1.19753">
        <ele>23.21</ele>
        <time>2021-07-01T21:21:40Z</time>
      </trkpt>
      <trkpt lat="44.59813" lon="-1.19695">
        <ele>25.13</ele>
        <time>2021-07-01T21:21:50Z</time>
      </trkpt>
      <trkpt lat="44.59811" lon="-1.19691">
        <ele>25.13</ele>
        <time>2021-07-01T21:21:51Z</time>
      </trkpt>
      <trkpt lat="44.59805" lon="-1.19678">
        <ele>24.65</ele>
        <time>2021-07-01T21:21:53Z</time>
      </trkpt>
      <trkpt lat="44.59791" lon="-1.19669">
        <ele>24.65</ele>
        <time>2021-07-01T21:21:54Z</time>
      </trkpt>
      <trkpt lat="44.59791" lon="-1.19669">
        <ele>24.17</ele>
        <time>2021-07-01T21:21:55Z</time>
      </trkpt>
      <trkpt lat="44.59784" lon="-1.19665">
        <ele>24.17</ele>
        <time>2021-07-01T21:21:56Z</time>
      </trkpt>
      <trkpt lat="44.59776" lon="-1.1966">
        <ele>24.65</ele>
        <time>2021-07-01T21:21:57Z</time>
      </trkpt>
      <trkpt lat="44.5967" lon="-1.19617">
        <ele>26.09</ele>
        <time>2021-07-01T21:22:07Z</time>
      </trkpt>
      <trkpt lat="44.59502" lon="-1.19584">
        <ele>23.21</ele>
        <time>2021-07-01T21:22:19Z</time>
      </trkpt>
      <trkpt lat="44.59332" lon="-1.19599">
        <ele>19.36</ele>
        <time>2021-07-01T21:22:29Z</time>
      </trkpt>
      <trkpt lat="44.5919" lon="-1.19627">
        <ele>11.19</ele>
        <time>2021-07-01T21:22:40Z</time>
      </trkpt>
      <trkpt lat="44.59177" lon="-1.19632">
        <ele>9.27</ele>
        <time>2021-07-01T21:22:41Z</time>
      </trkpt>
      <trkpt lat="44.59164" lon="-1.19639">
        <ele>7.83</ele>
        <time>2021-07-01T21:22:42Z</time>
      </trkpt>
      <trkpt lat="44.59151" lon="-1.19646">
        <ele>6.87</ele>
        <time>2021-07-01T21:22:43Z</time>
      </trkpt>
      <trkpt lat="44.59037" lon="-1.19766">
        <ele>8.31</ele>
        <time>2021-07-01T21:22:53Z</time>
      </trkpt>
      <trkpt lat="44.58888" lon="-1.19962">
        <ele>17.44</ele>
        <time>2021-07-01T21:23:07Z</time>
      </trkpt>
      <trkpt lat="44.58818" lon="-1.20117">
        <ele>18.88</ele>
        <time>2021-07-01T21:23:17Z</time>
      </trkpt>
      <trkpt lat="44.58765" lon="-1.20315">
        <ele>12.63</ele>
        <time>2021-07-01T21:23:27Z</time>
      </trkpt>
      <trkpt lat="44.58681" lon="-1.20489">
        <ele>16</ele>
        <time>2021-07-01T21:23:38Z</time>
      </trkpt>
      <trkpt lat="44.58566" lon="-1.20716">
        <ele>23.69</ele>
        <time>2021-07-01T21:23:53Z</time>
      </trkpt>
      <trkpt lat="44.58464" lon="-1.20908">
        <ele>31.86</ele>
        <time>2021-07-01T21:24:07Z</time>
      </trkpt>
      <trkpt lat="44.5835" lon="-1.21056">
        <ele>41.47</ele>
        <time>2021-07-01T21:24:20Z</time>
      </trkpt>
      <trkpt lat="44.58228" lon="-1.21179">
        <ele>53.01</ele>
        <time>2021-07-01T21:24:33Z</time>
      </trkpt>
      <trkpt lat="44.58101" lon="-1.21226">
        <ele>54.93</ele>
        <time>2021-07-01T21:24:45Z</time>
      </trkpt>
      <trkpt lat="44.57957" lon="-1.21269">
        <ele>52.05</ele>
        <time>2021-07-01T21:24:56Z</time>
      </trkpt>
      <trkpt lat="44.5779" lon="-1.21282">
        <ele>57.82</ele>
        <time>2021-07-01T21:25:08Z</time>
      </trkpt>
      <trkpt lat="44.57719" lon="-1.21298">
        <ele>53.49</ele>
        <time>2021-07-01T21:25:13Z</time>
      </trkpt>
      <trkpt lat="44.57704" lon="-1.21305">
        <ele>53.97</ele>
        <time>2021-07-01T21:25:14Z</time>
      </trkpt>
      <trkpt lat="44.57587" lon="-1.21403">
        <ele>58.78</ele>
        <time>2021-07-01T21:25:23Z</time>
      </trkpt>
      <trkpt lat="44.57493" lon="-1.21568">
        <ele>60.22</ele>
        <time>2021-07-01T21:25:33Z</time>
      </trkpt>
      <trkpt lat="44.57395" lon="-1.21734">
        <ele>51.09</ele>
        <time>2021-07-01T21:25:43Z</time>
      </trkpt>
      <trkpt lat="44.57383" lon="-1.21749">
        <ele>49.16</ele>
        <time>2021-07-01T21:25:44Z</time>
      </trkpt>
      <trkpt lat="44.57313" lon="-1.21814">
        <ele>43.4</ele>
        <time>2021-07-01T21:25:49Z</time>
      </trkpt>
      <trkpt lat="44.57302" lon="-1.21829">
        <ele>41.95</ele>
        <time>2021-07-01T21:25:50Z</time>
      </trkpt>
      <trkpt lat="44.57291" lon="-1.21845">
        <ele>40.99</ele>
        <time>2021-07-01T21:25:51Z</time>
      </trkpt>
      <trkpt lat="44.57281" lon="-1.21865">
        <ele>40.51</ele>
        <time>2021-07-01T21:25:52Z</time>
      </trkpt>
      <trkpt lat="44.57271" lon="-1.21884">
        <ele>39.55</ele>
        <time>2021-07-01T21:25:53Z</time>
      </trkpt>
      <trkpt lat="44.57264" lon="-1.21904">
        <ele>40.03</ele>
        <time>2021-07-01T21:25:54Z</time>
      </trkpt>
      <trkpt lat="44.57258" lon="-1.21926">
        <ele>40.99</ele>
        <time>2021-07-01T21:25:55Z</time>
      </trkpt>
      <trkpt lat="44.57247" lon="-1.21972">
        <ele>41.47</ele>
        <time>2021-07-01T21:25:56Z</time>
      </trkpt>
      <trkpt lat="44.57177" lon="-1.22289">
        <ele>53.49</ele>
        <time>2021-07-01T21:26:11Z</time>
      </trkpt>
      <trkpt lat="44.57121" lon="-1.22532">
        <ele>49.16</ele>
        <time>2021-07-01T21:26:24Z</time>
      </trkpt>
      <trkpt lat="44.57114" lon="-1.2255">
        <ele>49.65</ele>
        <time>2021-07-01T21:26:25Z</time>
      </trkpt>
      <trkpt lat="44.57105" lon="-1.22567">
        <ele>48.68</ele>
        <time>2021-07-01T21:26:26Z</time>
      </trkpt>
      <trkpt lat="44.57096" lon="-1.22582">
        <ele>47.72</ele>
        <time>2021-07-01T21:26:27Z</time>
      </trkpt>
      <trkpt lat="44.57083" lon="-1.22596">
        <ele>46.28</ele>
        <time>2021-07-01T21:26:28Z</time>
      </trkpt>
      <trkpt lat="44.57071" lon="-1.2261">
        <ele>44.84</ele>
        <time>2021-07-01T21:26:29Z</time>
      </trkpt>
      <trkpt lat="44.57059" lon="-1.22624">
        <ele>43.4</ele>
        <time>2021-07-01T21:26:30Z</time>
      </trkpt>
      <trkpt lat="44.57044" lon="-1.22634">
        <ele>41.47</ele>
        <time>2021-07-01T21:26:31Z</time>
      </trkpt>
      <trkpt lat="44.57029" lon="-1.22644">
        <ele>40.51</ele>
        <time>2021-07-01T21:26:32Z</time>
      </trkpt>
      <trkpt lat="44.57014" lon="-1.22653">
        <ele>39.07</ele>
        <time>2021-07-01T21:26:33Z</time>
      </trkpt>
      <trkpt lat="44.56846" lon="-1.22722">
        <ele>21.29</ele>
        <time>2021-07-01T21:26:43Z</time>
      </trkpt>
      <trkpt lat="44.56736" lon="-1.22848">
        <ele>16</ele>
        <time>2021-07-01T21:26:51Z</time>
      </trkpt>
      <trkpt lat="44.56517" lon="-1.23148">
        <ele>7.83</ele>
        <time>2021-07-01T21:27:08Z</time>
      </trkpt>
      <trkpt lat="44.56469" lon="-1.23214">
        <ele>9.75</ele>
        <time>2021-07-01T21:27:12Z</time>
      </trkpt>
      <trkpt lat="44.56456" lon="-1.23225">
        <ele>10.23</ele>
        <time>2021-07-01T21:27:13Z</time>
      </trkpt>
      <trkpt lat="44.56443" lon="-1.23236">
        <ele>10.23</ele>
        <time>2021-07-01T21:27:14Z</time>
      </trkpt>
      <trkpt lat="44.5623" lon="-1.23348">
        <ele>11.19</ele>
        <time>2021-07-01T21:27:26Z</time>
      </trkpt>
      <trkpt lat="44.561" lon="-1.23441">
        <ele>14.08</ele>
        <time>2021-07-01T21:27:35Z</time>
      </trkpt>
      <trkpt lat="44.55946" lon="-1.2357">
        <ele>25.13</ele>
        <time>2021-07-01T21:27:46Z</time>
      </trkpt>
      <trkpt lat="44.55812" lon="-1.23589">
        <ele>31.38</ele>
        <time>2021-07-01T21:27:54Z</time>
      </trkpt>
      <trkpt lat="44.55667" lon="-1.23558">
        <ele>26.57</ele>
        <time>2021-07-01T21:28:04Z</time>
      </trkpt>
      <trkpt lat="44.55582" lon="-1.23578">
        <ele>26.57</ele>
        <time>2021-07-01T21:28:09Z</time>
      </trkpt>
      <trkpt lat="44.55393" lon="-1.23677">
        <ele>19.36</ele>
        <time>2021-07-01T21:28:22Z</time>
      </trkpt>
      <trkpt lat="44.55099" lon="-1.23832">
        <ele>7.35</ele>
        <time>2021-07-01T21:28:39Z</time>
      </trkpt>
      <trkpt lat="44.54815" lon="-1.23982">
        <ele>8.79</ele>
        <time>2021-07-01T21:28:56Z</time>
      </trkpt>
      <trkpt lat="44.54681" lon="-1.24048">
        <ele>5.42</ele>
        <time>2021-07-01T21:29:05Z</time>
      </trkpt>
      <trkpt lat="44.54624" lon="-1.24059">
        <ele>6.87</ele>
        <time>2021-07-01T21:29:12Z</time>
      </trkpt>
      <trkpt lat="44.54528" lon="-1.24043">
        <ele>6.39</ele>
        <time>2021-07-01T21:29:19Z</time>
      </trkpt>
      <trkpt lat="44.54299" lon="-1.23959">
        <ele>8.79</ele>
        <time>2021-07-01T21:29:32Z</time>
      </trkpt>
      <trkpt lat="44.53908" lon="-1.23815">
        <ele>9.75</ele>
        <time>2021-07-01T21:29:52Z</time>
      </trkpt>
      <trkpt lat="44.53681" lon="-1.23736">
        <ele>8.79</ele>
        <time>2021-07-01T21:30:04Z</time>
      </trkpt>
      <trkpt lat="44.53499" lon="-1.23748">
        <ele>8.79</ele>
        <time>2021-07-01T21:30:13Z</time>
      </trkpt>
      <trkpt lat="44.53141" lon="-1.23778">
        <ele>11.19</ele>
        <time>2021-07-01T21:30:31Z</time>
      </trkpt>
      <trkpt lat="44.52985" lon="-1.23758">
        <ele>10.23</ele>
        <time>2021-07-01T21:30:39Z</time>
      </trkpt>
      <trkpt lat="44.52689" lon="-1.23665">
        <ele>10.23</ele>
        <time>2021-07-01T21:30:54Z</time>
      </trkpt>
      <trkpt lat="44.52312" lon="-1.23552">
        <ele>11.19</ele>
        <time>2021-07-01T21:31:12Z</time>
      </trkpt>
      <trkpt lat="44.52102" lon="-1.23561">
        <ele>10.23</ele>
        <time>2021-07-01T21:31:22Z</time>
      </trkpt>
      <trkpt lat="44.51638" lon="-1.23585">
        <ele>10.71</ele>
        <time>2021-07-01T21:31:44Z</time>
      </trkpt>
      <trkpt lat="44.51394" lon="-1.23588">
        <ele>11.67</ele>
        <time>2021-07-01T21:31:56Z</time>
      </trkpt>
      <trkpt lat="44.51021" lon="-1.23506">
        <ele>12.15</ele>
        <time>2021-07-01T21:32:14Z</time>
      </trkpt>
      <trkpt lat="44.5076" lon="-1.23466">
        <ele>10.71</ele>
        <time>2021-07-01T21:32:27Z</time>
      </trkpt>
      <trkpt lat="44.50493" lon="-1.23493">
        <ele>10.23</ele>
        <time>2021-07-01T21:32:40Z</time>
      </trkpt>
      <trkpt lat="44.50127" lon="-1.23528">
        <ele>8.79</ele>
        <time>2021-07-01T21:32:57Z</time>
      </trkpt>
      <trkpt lat="44.49646" lon="-1.23575">
        <ele>9.75</ele>
        <time>2021-07-01T21:33:19Z</time>
      </trkpt>
      <trkpt lat="44.49269" lon="-1.23597">
        <ele>10.23</ele>
        <time>2021-07-01T21:33:36Z</time>
      </trkpt>
      <trkpt lat="44.48762" lon="-1.2365">
        <ele>9.75</ele>
        <time>2021-07-01T21:33:58Z</time>
      </trkpt>
      <trkpt lat="44.48476" lon="-1.23659">
        <ele>10.23</ele>
        <time>2021-07-01T21:34:11Z</time>
      </trkpt>
      <trkpt lat="44.48035" lon="-1.23583">
        <ele>11.67</ele>
        <time>2021-07-01T21:34:31Z</time>
      </trkpt>
      <trkpt lat="44.47633" lon="-1.23517">
        <ele>16</ele>
        <time>2021-07-01T21:34:51Z</time>
      </trkpt>
      <trkpt lat="44.47459" lon="-1.23533">
        <ele>13.6</ele>
        <time>2021-07-01T21:34:58Z</time>
      </trkpt>
      <trkpt lat="44.47254" lon="-1.23548">
        <ele>19.36</ele>
        <time>2021-07-01T21:35:09Z</time>
      </trkpt>
      <trkpt lat="44.4695" lon="-1.23476">
        <ele>19.84</ele>
        <time>2021-07-01T21:35:24Z</time>
      </trkpt>
      <trkpt lat="44.46777" lon="-1.2343">
        <ele>18.88</ele>
        <time>2021-07-01T21:35:33Z</time>
      </trkpt>
      <trkpt lat="44.46743" lon="-1.23409">
        <ele>19.36</ele>
        <time>2021-07-01T21:35:34Z</time>
      </trkpt>
      <trkpt lat="44.46743" lon="-1.23409">
        <ele>19.84</ele>
        <time>2021-07-01T21:35:35Z</time>
      </trkpt>
      <trkpt lat="44.46709" lon="-1.23385">
        <ele>19.84</ele>
        <time>2021-07-01T21:35:36Z</time>
      </trkpt>
      <trkpt lat="44.46709" lon="-1.23385">
        <ele>19.36</ele>
        <time>2021-07-01T21:35:37Z</time>
      </trkpt>
      <trkpt lat="44.46695" lon="-1.23367">
        <ele>19.84</ele>
        <time>2021-07-01T21:35:38Z</time>
      </trkpt>
      <trkpt lat="44.46681" lon="-1.23347">
        <ele>18.4</ele>
        <time>2021-07-01T21:35:39Z</time>
      </trkpt>
      <trkpt lat="44.46667" lon="-1.23328">
        <ele>17.92</ele>
        <time>2021-07-01T21:35:40Z</time>
      </trkpt>
      <trkpt lat="44.46588" lon="-1.23181">
        <ele>14.08</ele>
        <time>2021-07-01T21:35:47Z</time>
      </trkpt>
      <trkpt lat="44.46561" lon="-1.23151">
        <ele>13.6</ele>
        <time>2021-07-01T21:35:48Z</time>
      </trkpt>
      <trkpt lat="44.46561" lon="-1.23151">
        <ele>13.6</ele>
        <time>2021-07-01T21:35:49Z</time>
      </trkpt>
      <trkpt lat="44.46546" lon="-1.23136">
        <ele>13.6</ele>
        <time>2021-07-01T21:35:50Z</time>
      </trkpt>
      <trkpt lat="44.46532" lon="-1.23122">
        <ele>14.56</ele>
        <time>2021-07-01T21:35:51Z</time>
      </trkpt>
      <trkpt lat="44.46516" lon="-1.23114">
        <ele>15.52</ele>
        <time>2021-07-01T21:35:52Z</time>
      </trkpt>
      <trkpt lat="44.46499" lon="-1.23104">
        <ele>15.52</ele>
        <time>2021-07-01T21:35:53Z</time>
      </trkpt>
      <trkpt lat="44.46463" lon="-1.2309">
        <ele>14.56</ele>
        <time>2021-07-01T21:35:54Z</time>
      </trkpt>
      <trkpt lat="44.46444" lon="-1.23086">
        <ele>14.08</ele>
        <time>2021-07-01T21:35:55Z</time>
      </trkpt>
      <trkpt lat="44.46444" lon="-1.23086">
        <ele>14.08</ele>
        <time>2021-07-01T21:35:56Z</time>
      </trkpt>
      <trkpt lat="44.46407" lon="-1.23086">
        <ele>14.56</ele>
        <time>2021-07-01T21:35:57Z</time>
      </trkpt>
      <trkpt lat="44.46119" lon="-1.23086">
        <ele>14.08</ele>
        <time>2021-07-01T21:36:12Z</time>
      </trkpt>
      <trkpt lat="44.45737" lon="-1.23087">
        <ele>15.04</ele>
        <time>2021-07-01T21:36:32Z</time>
      </trkpt>
      <trkpt lat="44.45631" lon="-1.23094">
        <ele>15.04</ele>
        <time>2021-07-01T21:36:40Z</time>
      </trkpt>
      <trkpt lat="44.45621" lon="-1.23095">
        <ele>15.04</ele>
        <time>2021-07-01T21:36:41Z</time>
      </trkpt>
      <trkpt lat="44.45611" lon="-1.231">
        <ele>15.04</ele>
        <time>2021-07-01T21:36:42Z</time>
      </trkpt>
      <trkpt lat="44.45602" lon="-1.23109">
        <ele>15.04</ele>
        <time>2021-07-01T21:36:43Z</time>
      </trkpt>
      <trkpt lat="44.45595" lon="-1.23119">
        <ele>14.08</ele>
        <time>2021-07-01T21:36:44Z</time>
      </trkpt>
      <trkpt lat="44.4559" lon="-1.23132">
        <ele>14.56</ele>
        <time>2021-07-01T21:36:45Z</time>
      </trkpt>
      <trkpt lat="44.45584" lon="-1.23145">
        <ele>14.56</ele>
        <time>2021-07-01T21:36:46Z</time>
      </trkpt>
      <trkpt lat="44.45577" lon="-1.2316">
        <ele>13.12</ele>
        <time>2021-07-01T21:36:47Z</time>
      </trkpt>
      <trkpt lat="44.45573" lon="-1.23176">
        <ele>11.67</ele>
        <time>2021-07-01T21:36:48Z</time>
      </trkpt>
      <trkpt lat="44.45572" lon="-1.23192">
        <ele>9.75</ele>
        <time>2021-07-01T21:36:49Z</time>
      </trkpt>
      <trkpt lat="44.45571" lon="-1.23223">
        <ele>8.79</ele>
        <time>2021-07-01T21:36:50Z</time>
      </trkpt>
      <trkpt lat="44.45571" lon="-1.23223">
        <ele>6.87</ele>
        <time>2021-07-01T21:36:51Z</time>
      </trkpt>
      <trkpt lat="44.45576" lon="-1.23256">
        <ele>5.42</ele>
        <time>2021-07-01T21:36:52Z</time>
      </trkpt>
      <trkpt lat="44.45576" lon="-1.23256">
        <ele>4.46</ele>
        <time>2021-07-01T21:36:53Z</time>
      </trkpt>
      <trkpt lat="44.4558" lon="-1.23271">
        <ele>3.5</ele>
        <time>2021-07-01T21:36:54Z</time>
      </trkpt>
      <trkpt lat="44.45586" lon="-1.23285">
        <ele>3.98</ele>
        <time>2021-07-01T21:36:55Z</time>
      </trkpt>
      <trkpt lat="44.45597" lon="-1.23298">
        <ele>3.98</ele>
        <time>2021-07-01T21:36:56Z</time>
      </trkpt>
      <trkpt lat="44.45607" lon="-1.23311">
        <ele>3.5</ele>
        <time>2021-07-01T21:36:57Z</time>
      </trkpt>
      <trkpt lat="44.45766" lon="-1.23504">
        <ele>3.98</ele>
        <time>2021-07-01T21:37:10Z</time>
      </trkpt>
      <trkpt lat="44.45839" lon="-1.23627">
        <ele>5.91</ele>
        <time>2021-07-01T21:37:18Z</time>
      </trkpt>
      <trkpt lat="44.45862" lon="-1.23793">
        <ele>3.02</ele>
        <time>2021-07-01T21:37:27Z</time>
      </trkpt>
      <trkpt lat="44.45861" lon="-1.23811">
        <ele>3.02</ele>
        <time>2021-07-01T21:37:28Z</time>
      </trkpt>
      <trkpt lat="44.45861" lon="-1.23829">
        <ele>3.02</ele>
        <time>2021-07-01T21:37:29Z</time>
      </trkpt>
      <trkpt lat="44.4586" lon="-1.23846">
        <ele>3.02</ele>
        <time>2021-07-01T21:37:30Z</time>
      </trkpt>
      <trkpt lat="44.45858" lon="-1.23862">
        <ele>3.02</ele>
        <time>2021-07-01T21:37:31Z</time>
      </trkpt>
      <trkpt lat="44.45855" lon="-1.23877">
        <ele>3.98</ele>
        <time>2021-07-01T21:37:32Z</time>
      </trkpt>
      <trkpt lat="44.45845" lon="-1.23919">
        <ele>4.94</ele>
        <time>2021-07-01T21:37:35Z</time>
      </trkpt>
      <trkpt lat="44.45842" lon="-1.23929">
        <ele>5.42</ele>
        <time>2021-07-01T21:37:36Z</time>
      </trkpt>
      <trkpt lat="44.4584" lon="-1.23937">
        <ele>5.42</ele>
        <time>2021-07-01T21:37:37Z</time>
      </trkpt>
      <trkpt lat="44.45839" lon="-1.23944">
        <ele>5.42</ele>
        <time>2021-07-01T21:37:38Z</time>
      </trkpt>
      <trkpt lat="44.45844" lon="-1.23953">
        <ele>5.42</ele>
        <time>2021-07-01T21:37:39Z</time>
      </trkpt>
      <trkpt lat="44.45844" lon="-1.23958">
        <ele>5.42</ele>
        <time>2021-07-01T21:37:40Z</time>
      </trkpt>
      <trkpt lat="44.45843" lon="-1.23961">
        <ele>5.91</ele>
        <time>2021-07-01T21:37:41Z</time>
      </trkpt>
      <trkpt lat="44.45843" lon="-1.23961">
        <ele>5.91</ele>
        <time>2021-07-01T21:37:42Z</time>
      </trkpt>
      <trkpt lat="44.45832" lon="-1.23957">
        <ele>5.91</ele>
        <time>2021-07-01T21:37:43Z</time>
      </trkpt>
      <trkpt lat="44.45832" lon="-1.23957">
        <ele>5.91</ele>
        <time>2021-07-01T21:37:44Z</time>
      </trkpt>
      <trkpt lat="44.45827" lon="-1.2396">
        <ele>5.91</ele>
        <time>2021-07-01T21:37:45Z</time>
      </trkpt>
      <trkpt lat="44.45821" lon="-1.23964">
        <ele>5.91</ele>
        <time>2021-07-01T21:37:46Z</time>
      </trkpt>
      <trkpt lat="44.45814" lon="-1.23974">
        <ele>6.39</ele>
        <time>2021-07-01T21:37:47Z</time>
      </trkpt>
      <trkpt lat="44.45751" lon="-1.24044">
        <ele>5.91</ele>
        <time>2021-07-01T21:37:55Z</time>
      </trkpt>
      <trkpt lat="44.45674" lon="-1.24099">
        <ele>6.39</ele>
        <time>2021-07-01T21:38:05Z</time>
      </trkpt>
      <trkpt lat="44.45669" lon="-1.24102">
        <ele>6.87</ele>
        <time>2021-07-01T21:38:06Z</time>
      </trkpt>
      <trkpt lat="44.45666" lon="-1.24104">
        <ele>6.87</ele>
        <time>2021-07-01T21:38:07Z</time>
      </trkpt>
      <trkpt lat="44.45663" lon="-1.24106">
        <ele>6.87</ele>
        <time>2021-07-01T21:38:08Z</time>
      </trkpt>
      <trkpt lat="44.45667" lon="-1.24106">
        <ele>6.87</ele>
        <time>2021-07-01T21:38:09Z</time>
      </trkpt>
      <trkpt lat="44.4567" lon="-1.24108">
        <ele>6.39</ele>
        <time>2021-07-01T21:38:10Z</time>
      </trkpt>
      <trkpt lat="44.45673" lon="-1.24111">
        <ele>6.39</ele>
        <time>2021-07-01T21:38:11Z</time>
      </trkpt>
      <trkpt lat="44.45682" lon="-1.24118">
        <ele>5.91</ele>
        <time>2021-07-01T21:38:13Z</time>
      </trkpt>
      <trkpt lat="44.45707" lon="-1.24137">
        <ele>5.91</ele>
        <time>2021-07-01T21:38:18Z</time>
      </trkpt>
      <trkpt lat="44.45713" lon="-1.24141">
        <ele>5.91</ele>
        <time>2021-07-01T21:38:19Z</time>
      </trkpt>
      <trkpt lat="44.45724" lon="-1.2415">
        <ele>5.42</ele>
        <time>2021-07-01T21:38:20Z</time>
      </trkpt>
      <trkpt lat="44.45732" lon="-1.24162">
        <ele>5.42</ele>
        <time>2021-07-01T21:38:23Z</time>
      </trkpt>
      <trkpt lat="44.45777" lon="-1.24254">
        <ele>1.58</ele>
        <time>2021-07-01T21:38:34Z</time>
      </trkpt>
      <trkpt lat="44.45785" lon="-1.24291">
        <ele>1.1</ele>
        <time>2021-07-01T21:38:37Z</time>
      </trkpt>
      <trkpt lat="44.45785" lon="-1.24291">
        <ele>0.14</ele>
        <time>2021-07-01T21:38:38Z</time>
      </trkpt>
      <trkpt lat="44.45785" lon="-1.24316">
        <ele>0.14</ele>
        <time>2021-07-01T21:38:40Z</time>
      </trkpt>
      <trkpt lat="44.45785" lon="-1.24316">
        <ele>-0.34</ele>
        <time>2021-07-01T21:38:41Z</time>
      </trkpt>
      <trkpt lat="44.45785" lon="-1.24323">
        <ele>-0.82</ele>
        <time>2021-07-01T21:38:42Z</time>
      </trkpt>
      <trkpt lat="44.45785" lon="-1.2433">
        <ele>-0.82</ele>
        <time>2021-07-01T21:38:43Z</time>
      </trkpt>
      <trkpt lat="44.45786" lon="-1.24337">
        <ele>-1.3</ele>
        <time>2021-07-01T21:38:44Z</time>
      </trkpt>
      <trkpt lat="44.45789" lon="-1.24343">
        <ele>-1.79</ele>
        <time>2021-07-01T21:38:45Z</time>
      </trkpt>
      <trkpt lat="44.45791" lon="-1.24349">
        <ele>-2.27</ele>
        <time>2021-07-01T21:38:46Z</time>
      </trkpt>
      <trkpt lat="44.45794" lon="-1.24356">
        <ele>-2.75</ele>
        <time>2021-07-01T21:38:47Z</time>
      </trkpt>
      <trkpt lat="44.45796" lon="-1.24362">
        <ele>-2.27</ele>
        <time>2021-07-01T21:38:48Z</time>
      </trkpt>
      <trkpt lat="44.45809" lon="-1.24397">
        <ele>-3.71</ele>
        <time>2021-07-01T21:38:53Z</time>
      </trkpt>
      <trkpt lat="44.45815" lon="-1.2441">
        <ele>-4.19</ele>
        <time>2021-07-01T21:38:54Z</time>
      </trkpt>
      <trkpt lat="44.45831" lon="-1.24441">
        <ele>-6.59</ele>
        <time>2021-07-01T21:39:00Z</time>
      </trkpt>
      <trkpt lat="44.45835" lon="-1.24446">
        <ele>-7.07</ele>
        <time>2021-07-01T21:39:01Z</time>
      </trkpt>
      <trkpt lat="44.45842" lon="-1.24458">
        <ele>-8.03</ele>
        <time>2021-07-01T21:39:03Z</time>
      </trkpt>
      <trkpt lat="44.45863" lon="-1.24489">
        <ele>-12.84</ele>
        <time>2021-07-01T21:39:12Z</time>
      </trkpt>
      <trkpt lat="44.45868" lon="-1.24496">
        <ele>-10.44</ele>
        <time>2021-07-01T21:39:25Z</time>
      </trkpt>
      <trkpt lat="44.45868" lon="-1.24496">
        <ele>-10.44</ele>
        <time>2021-07-01T21:39:39Z</time>
      </trkpt>
      <trkpt lat="44.45868" lon="-1.24496">
        <ele>-9.96</ele>
        <time>2021-07-01T21:40:56Z</time>
      </trkpt>
      <trkpt lat="44.45868" lon="-1.24496">
        <ele>-9.96</ele>
        <time>2021-07-01T21:41:42Z</time>
      </trkpt>
      <trkpt lat="44.45868" lon="-1.24496">
        <ele>-9.96</ele>
        <time>2021-07-01T21:41:43Z</time>
      </trkpt>
      <trkpt lat="44.45878" lon="-1.24512">
        <ele>-9.96</ele>
        <time>2021-07-01T21:41:44Z</time>
      </trkpt>
      <trkpt lat="44.45879" lon="-1.24514">
        <ele>-9.96</ele>
        <time>2021-07-01T21:41:45Z</time>
      </trkpt>
      <trkpt lat="44.45879" lon="-1.24514">
        <ele>-10.44</ele>
        <time>2021-07-01T21:41:46Z</time>
      </trkpt>
      <trkpt lat="44.4588" lon="-1.24515">
        <ele>-10.44</ele>
        <time>2021-07-01T21:41:47Z</time>
      </trkpt>
      <trkpt lat="44.45881" lon="-1.24516">
        <ele>-11.4</ele>
        <time>2021-07-01T21:42:02Z</time>
      </trkpt>
      <trkpt lat="44.45895" lon="-1.24527">
        <ele>-12.84</ele>
        <time>2021-07-01T21:42:20Z</time>
      </trkpt>
      <trkpt lat="44.45923" lon="-1.24528">
        <ele>-16.69</ele>
        <time>2021-07-01T21:42:36Z</time>
      </trkpt>
      <trkpt lat="44.45949" lon="-1.24516">
        <ele>-19.57</ele>
        <time>2021-07-01T21:42:49Z</time>
      </trkpt>
      <trkpt lat="44.45957" lon="-1.24513">
        <ele>-19.57</ele>
        <time>2021-07-01T21:42:52Z</time>
      </trkpt>
      <trkpt lat="44.45959" lon="-1.24512">
        <ele>-19.57</ele>
        <time>2021-07-01T21:42:53Z</time>
      </trkpt>
      <trkpt lat="44.45962" lon="-1.24511">
        <ele>-19.57</ele>
        <time>2021-07-01T21:42:54Z</time>
      </trkpt>
      <trkpt lat="44.46007" lon="-1.24494">
        <ele>-16.69</ele>
        <time>2021-07-01T21:43:08Z</time>
      </trkpt>
      <trkpt lat="44.46059" lon="-1.24431">
        <ele>-14.76</ele>
        <time>2021-07-01T21:43:22Z</time>
      </trkpt>
      <trkpt lat="44.4609" lon="-1.2443">
        <ele>-13.8</ele>
        <time>2021-07-01T21:43:33Z</time>
      </trkpt>
      <trkpt lat="44.46116" lon="-1.24467">
        <ele>-14.76</ele>
        <time>2021-07-01T21:43:46Z</time>
      </trkpt>
      <trkpt lat="44.4613" lon="-1.24508">
        <ele>-13.8</ele>
        <time>2021-07-01T21:43:58Z</time>
      </trkpt>
      <trkpt lat="44.4614" lon="-1.24545">
        <ele>-15.72</ele>
        <time>2021-07-01T21:44:09Z</time>
      </trkpt>
      <trkpt lat="44.46132" lon="-1.24559">
        <ele>-15.24</ele>
        <time>2021-07-01T21:44:16Z</time>
      </trkpt>
      <trkpt lat="44.46091" lon="-1.24583">
        <ele>-9.96</ele>
        <time>2021-07-01T21:44:32Z</time>
      </trkpt>
      <trkpt lat="44.4608" lon="-1.24596">
        <ele>-4.67</ele>
        <time>2021-07-01T21:44:43Z</time>
      </trkpt>
      <trkpt lat="44.46062" lon="-1.24615">
        <ele>-2.27</ele>
        <time>2021-07-01T21:44:54Z</time>
      </trkpt>
      <trkpt lat="44.46022" lon="-1.24636">
        <ele>-0.82</ele>
        <time>2021-07-01T21:45:05Z</time>
      </trkpt>
      <trkpt lat="44.45993" lon="-1.24652">
        <ele>-0.82</ele>
        <time>2021-07-01T21:45:17Z</time>
      </trkpt>
      <trkpt lat="44.45963" lon="-1.24666">
        <ele>1.58</ele>
        <time>2021-07-01T21:45:28Z</time>
      </trkpt>
      <trkpt lat="44.45934" lon="-1.24667">
        <ele>3.5</ele>
        <time>2021-07-01T21:45:37Z</time>
      </trkpt>
      <trkpt lat="44.45914" lon="-1.24645">
        <ele>2.54</ele>
        <time>2021-07-01T21:45:47Z</time>
      </trkpt>
      <trkpt lat="44.45933" lon="-1.24617">
        <ele>1.58</ele>
        <time>2021-07-01T21:45:56Z</time>
      </trkpt>
      <trkpt lat="44.45934" lon="-1.24615">
        <ele>1.58</ele>
        <time>2021-07-01T21:45:58Z</time>
      </trkpt>
      <trkpt lat="44.45962" lon="-1.24612">
        <ele>0.14</ele>
        <time>2021-07-01T21:46:13Z</time>
      </trkpt>
      <trkpt lat="44.45987" lon="-1.24592">
        <ele>-0.34</ele>
        <time>2021-07-01T21:46:25Z</time>
      </trkpt>
      <trkpt lat="44.45991" lon="-1.24588">
        <ele>-1.79</ele>
        <time>2021-07-01T21:46:41Z</time>
      </trkpt>
      <trkpt lat="44.45993" lon="-1.24586">
        <ele>-1.79</ele>
        <time>2021-07-01T21:47:28Z</time>
      </trkpt>
      <trkpt lat="44.45992" lon="-1.24574">
        <ele>-1.79</ele>
        <time>2021-07-01T21:48:03Z</time>
      </trkpt>
      <trkpt lat="44.45992" lon="-1.24575">
        <ele>-2.27</ele>
        <time>2021-07-01T21:48:34Z</time>
      </trkpt>
      <trkpt lat="44.45992" lon="-1.24576">
        <ele>-2.75</ele>
        <time>2021-07-01T21:49:19Z</time>
      </trkpt>
    </trkseg>
  </trk>
  <trk>
    <name><![CDATA[Journal actif: 2021-07-02 16:07]]></name>
    <trkseg>
      <trkpt lat="44.46058" lon="-1.24534">
        <ele>6.87</ele>
        <time>2021-07-02T18:07:59Z</time>
      </trkpt>
      <trkpt lat="44.46044" lon="-1.245">
        <ele>-0.34</ele>
        <time>2021-07-02T18:08:13Z</time>
      </trkpt>
      <trkpt lat="44.46022" lon="-1.24492">
        <ele>-9.48</ele>
        <time>2021-07-02T18:08:25Z</time>
      </trkpt>
      <trkpt lat="44.46011" lon="-1.24494">
        <ele>-13.32</ele>
        <time>2021-07-02T18:08:30Z</time>
      </trkpt>
      <trkpt lat="44.46008" lon="-1.24494">
        <ele>-14.28</ele>
        <time>2021-07-02T18:08:31Z</time>
      </trkpt>
      <trkpt lat="44.46006" lon="-1.24494">
        <ele>-15.24</ele>
        <time>2021-07-02T18:08:32Z</time>
      </trkpt>
      <trkpt lat="44.46003" lon="-1.24495">
        <ele>-15.24</ele>
        <time>2021-07-02T18:08:33Z</time>
      </trkpt>
      <trkpt lat="44.46001" lon="-1.24495">
        <ele>-15.72</ele>
        <time>2021-07-02T18:08:34Z</time>
      </trkpt>
      <trkpt lat="44.45969" lon="-1.24508">
        <ele>-23.41</ele>
        <time>2021-07-02T18:08:48Z</time>
      </trkpt>
      <trkpt lat="44.45941" lon="-1.2452">
        <ele>-29.18</ele>
        <time>2021-07-02T18:09:00Z</time>
      </trkpt>
      <trkpt lat="44.45925" lon="-1.24527">
        <ele>-27.74</ele>
        <time>2021-07-02T18:09:06Z</time>
      </trkpt>
      <trkpt lat="44.45925" lon="-1.24527">
        <ele>-26.3</ele>
        <time>2021-07-02T18:09:17Z</time>
      </trkpt>
      <trkpt lat="44.45895" lon="-1.24527">
        <ele>-28.22</ele>
        <time>2021-07-02T18:09:26Z</time>
      </trkpt>
      <trkpt lat="44.45893" lon="-1.24526">
        <ele>-28.22</ele>
        <time>2021-07-02T18:09:27Z</time>
      </trkpt>
      <trkpt lat="44.45891" lon="-1.24525">
        <ele>-28.22</ele>
        <time>2021-07-02T18:09:28Z</time>
      </trkpt>
      <trkpt lat="44.45884" lon="-1.24521">
        <ele>-29.18</ele>
        <time>2021-07-02T18:09:40Z</time>
      </trkpt>
      <trkpt lat="44.45884" lon="-1.24521">
        <ele>-29.66</ele>
        <time>2021-07-02T18:10:19Z</time>
      </trkpt>
      <trkpt lat="44.45884" lon="-1.24521">
        <ele>-29.66</ele>
        <time>2021-07-02T18:11:07Z</time>
      </trkpt>
      <trkpt lat="44.45884" lon="-1.24521">
        <ele>-29.18</ele>
        <time>2021-07-02T18:12:12Z</time>
      </trkpt>
      <trkpt lat="44.45884" lon="-1.24521">
        <ele>-28.7</ele>
        <time>2021-07-02T18:13:29Z</time>
      </trkpt>
      <trkpt lat="44.45884" lon="-1.24521">
        <ele>-28.22</ele>
        <time>2021-07-02T18:15:00Z</time>
      </trkpt>
      <trkpt lat="44.45884" lon="-1.24521">
        <ele>-27.26</ele>
        <time>2021-07-02T18:16:38Z</time>
      </trkpt>
      <trkpt lat="44.45884" lon="-1.24521">
        <ele>-26.3</ele>
        <time>2021-07-02T18:17:55Z</time>
      </trkpt>
      <trkpt lat="44.45884" lon="-1.24521">
        <ele>-25.82</ele>
        <time>2021-07-02T18:19:07Z</time>
      </trkpt>
      <trkpt lat="44.45884" lon="-1.24521">
        <ele>-25.34</ele>
        <time>2021-07-02T18:20:34Z</time>
      </trkpt>
      <trkpt lat="44.45884" lon="-1.24521">
        <ele>-25.34</ele>
        <time>2021-07-02T18:21:44Z</time>
      </trkpt>
      <trkpt lat="44.45884" lon="-1.24521">
        <ele>-25.34</ele>
        <time>2021-07-02T18:23:05Z</time>
      </trkpt>
      <trkpt lat="44.45869" lon="-1.24498">
        <ele>-26.78</ele>
        <time>2021-07-02T18:23:49Z</time>
      </trkpt>
      <trkpt lat="44.45847" lon="-1.24465">
        <ele>-25.34</ele>
        <time>2021-07-02T18:24:02Z</time>
      </trkpt>
      <trkpt lat="44.45812" lon="-1.24403">
        <ele>-14.76</ele>
        <time>2021-07-02T18:24:16Z</time>
      </trkpt>
      <trkpt lat="44.45795" lon="-1.2436">
        <ele>-11.88</ele>
        <time>2021-07-02T18:24:26Z</time>
      </trkpt>
      <trkpt lat="44.45789" lon="-1.24345">
        <ele>-12.36</ele>
        <time>2021-07-02T18:24:29Z</time>
      </trkpt>
      <trkpt lat="44.45787" lon="-1.24339">
        <ele>-12.36</ele>
        <time>2021-07-02T18:24:30Z</time>
      </trkpt>
      <trkpt lat="44.45785" lon="-1.24333">
        <ele>-12.36</ele>
        <time>2021-07-02T18:24:31Z</time>
      </trkpt>
      <trkpt lat="44.45785" lon="-1.24327">
        <ele>-12.84</ele>
        <time>2021-07-02T18:24:32Z</time>
      </trkpt>
      <trkpt lat="44.45785" lon="-1.24319">
        <ele>-12.84</ele>
        <time>2021-07-02T18:24:33Z</time>
      </trkpt>
      <trkpt lat="44.45785" lon="-1.24305">
        <ele>-12.84</ele>
        <time>2021-07-02T18:24:35Z</time>
      </trkpt>
      <trkpt lat="44.45785" lon="-1.24297">
        <ele>-12.36</ele>
        <time>2021-07-02T18:24:36Z</time>
      </trkpt>
      <trkpt lat="44.45785" lon="-1.24281">
        <ele>-11.88</ele>
        <time>2021-07-02T18:24:37Z</time>
      </trkpt>
      <trkpt lat="44.45785" lon="-1.24281">
        <ele>-11.4</ele>
        <time>2021-07-02T18:24:38Z</time>
      </trkpt>
      <trkpt lat="44.4578" lon="-1.24266">
        <ele>-10.92</ele>
        <time>2021-07-02T18:24:39Z</time>
      </trkpt>
      <trkpt lat="44.45774" lon="-1.24244">
        <ele>-9.48</ele>
        <time>2021-07-02T18:24:43Z</time>
      </trkpt>
      <trkpt lat="44.45769" lon="-1.2423">
        <ele>-9</ele>
        <time>2021-07-02T18:24:45Z</time>
      </trkpt>
      <trkpt lat="44.45727" lon="-1.24152">
        <ele>-7.55</ele>
        <time>2021-07-02T18:25:00Z</time>
      </trkpt>
      <trkpt lat="44.45719" lon="-1.24146">
        <ele>-5.63</ele>
        <time>2021-07-02T18:25:02Z</time>
      </trkpt>
      <trkpt lat="44.45715" lon="-1.24143">
        <ele>-5.63</ele>
        <time>2021-07-02T18:25:03Z</time>
      </trkpt>
      <trkpt lat="44.45712" lon="-1.24141">
        <ele>-3.71</ele>
        <time>2021-07-02T18:25:04Z</time>
      </trkpt>
      <trkpt lat="44.45709" lon="-1.24138">
        <ele>-2.75</ele>
        <time>2021-07-02T18:25:05Z</time>
      </trkpt>
      <trkpt lat="44.45705" lon="-1.24135">
        <ele>-2.27</ele>
        <time>2021-07-02T18:25:06Z</time>
      </trkpt>
      <trkpt lat="44.45702" lon="-1.24133">
        <ele>-2.27</ele>
        <time>2021-07-02T18:25:07Z</time>
      </trkpt>
      <trkpt lat="44.45699" lon="-1.24131">
        <ele>-1.79</ele>
        <time>2021-07-02T18:25:08Z</time>
      </trkpt>
      <trkpt lat="44.45673" lon="-1.24111">
        <ele>2.06</ele>
        <time>2021-07-02T18:25:18Z</time>
      </trkpt>
      <trkpt lat="44.45669" lon="-1.24107">
        <ele>2.54</ele>
        <time>2021-07-02T18:25:21Z</time>
      </trkpt>
      <trkpt lat="44.45664" lon="-1.24106">
        <ele>2.54</ele>
        <time>2021-07-02T18:25:22Z</time>
      </trkpt>
      <trkpt lat="44.4566" lon="-1.24107">
        <ele>2.54</ele>
        <time>2021-07-02T18:25:23Z</time>
      </trkpt>
      <trkpt lat="44.45608" lon="-1.24134">
        <ele>3.98</ele>
        <time>2021-07-02T18:25:33Z</time>
      </trkpt>
      <trkpt lat="44.45474" lon="-1.24198">
        <ele>3.98</ele>
        <time>2021-07-02T18:25:50Z</time>
      </trkpt>
      <trkpt lat="44.45375" lon="-1.24247">
        <ele>3.02</ele>
        <time>2021-07-02T18:26:03Z</time>
      </trkpt>
      <trkpt lat="44.45369" lon="-1.24249">
        <ele>3.02</ele>
        <time>2021-07-02T18:26:04Z</time>
      </trkpt>
      <trkpt lat="44.45364" lon="-1.24251">
        <ele>3.02</ele>
        <time>2021-07-02T18:26:05Z</time>
      </trkpt>
      <trkpt lat="44.45351" lon="-1.2426">
        <ele>3.02</ele>
        <time>2021-07-02T18:26:07Z</time>
      </trkpt>
      <trkpt lat="44.45349" lon="-1.24265">
        <ele>3.02</ele>
        <time>2021-07-02T18:26:08Z</time>
      </trkpt>
      <trkpt lat="44.45347" lon="-1.24272">
        <ele>2.54</ele>
        <time>2021-07-02T18:26:09Z</time>
      </trkpt>
      <trkpt lat="44.45341" lon="-1.24271">
        <ele>3.02</ele>
        <time>2021-07-02T18:26:10Z</time>
      </trkpt>
      <trkpt lat="44.45337" lon="-1.24264">
        <ele>2.54</ele>
        <time>2021-07-02T18:26:11Z</time>
      </trkpt>
      <trkpt lat="44.4534" lon="-1.2425">
        <ele>2.54</ele>
        <time>2021-07-02T18:26:12Z</time>
      </trkpt>
      <trkpt lat="44.45337" lon="-1.24243">
        <ele>2.54</ele>
        <time>2021-07-02T18:26:13Z</time>
      </trkpt>
      <trkpt lat="44.45295" lon="-1.24142">
        <ele>1.1</ele>
        <time>2021-07-02T18:26:22Z</time>
      </trkpt>
      <trkpt lat="44.45255" lon="-1.24038">
        <ele>0.14</ele>
        <time>2021-07-02T18:26:33Z</time>
      </trkpt>
      <trkpt lat="44.45252" lon="-1.2403">
        <ele>0.14</ele>
        <time>2021-07-02T18:26:34Z</time>
      </trkpt>
      <trkpt lat="44.45249" lon="-1.24023">
        <ele>0.14</ele>
        <time>2021-07-02T18:26:35Z</time>
      </trkpt>
      <trkpt lat="44.45239" lon="-1.24021">
        <ele>0.14</ele>
        <time>2021-07-02T18:26:36Z</time>
      </trkpt>
      <trkpt lat="44.45236" lon="-1.2402">
        <ele>0.62</ele>
        <time>2021-07-02T18:26:37Z</time>
      </trkpt>
      <trkpt lat="44.45236" lon="-1.2402">
        <ele>0.62</ele>
        <time>2021-07-02T18:26:38Z</time>
      </trkpt>
      <trkpt lat="44.45234" lon="-1.24019">
        <ele>1.1</ele>
        <time>2021-07-02T18:26:39Z</time>
      </trkpt>
      <trkpt lat="44.45232" lon="-1.2402">
        <ele>2.06</ele>
        <time>2021-07-02T18:26:41Z</time>
      </trkpt>
      <trkpt lat="44.45227" lon="-1.24022">
        <ele>1.58</ele>
        <time>2021-07-02T18:26:42Z</time>
      </trkpt>
      <trkpt lat="44.45227" lon="-1.24022">
        <ele>1.58</ele>
        <time>2021-07-02T18:26:43Z</time>
      </trkpt>
      <trkpt lat="44.45224" lon="-1.24023">
        <ele>1.58</ele>
        <time>2021-07-02T18:26:44Z</time>
      </trkpt>
      <trkpt lat="44.4522" lon="-1.24024">
        <ele>2.54</ele>
        <time>2021-07-02T18:26:45Z</time>
      </trkpt>
      <trkpt lat="44.45216" lon="-1.24026">
        <ele>2.54</ele>
        <time>2021-07-02T18:26:46Z</time>
      </trkpt>
      <trkpt lat="44.45212" lon="-1.24028">
        <ele>2.54</ele>
        <time>2021-07-02T18:26:47Z</time>
      </trkpt>
      <trkpt lat="44.45202" lon="-1.24026">
        <ele>3.02</ele>
        <time>2021-07-02T18:26:48Z</time>
      </trkpt>
      <trkpt lat="44.45202" lon="-1.24026">
        <ele>3.02</ele>
        <time>2021-07-02T18:26:49Z</time>
      </trkpt>
      <trkpt lat="44.45198" lon="-1.24023">
        <ele>3.5</ele>
        <time>2021-07-02T18:26:50Z</time>
      </trkpt>
      <trkpt lat="44.45194" lon="-1.2402">
        <ele>3.5</ele>
        <time>2021-07-02T18:26:51Z</time>
      </trkpt>
      <trkpt lat="44.45185" lon="-1.24025">
        <ele>3.5</ele>
        <time>2021-07-02T18:26:52Z</time>
      </trkpt>
      <trkpt lat="44.45183" lon="-1.24029">
        <ele>3.5</ele>
        <time>2021-07-02T18:26:53Z</time>
      </trkpt>
      <trkpt lat="44.4518" lon="-1.24035">
        <ele>3.5</ele>
        <time>2021-07-02T18:26:54Z</time>
      </trkpt>
      <trkpt lat="44.45177" lon="-1.24042">
        <ele>3.98</ele>
        <time>2021-07-02T18:26:55Z</time>
      </trkpt>
      <trkpt lat="44.45175" lon="-1.2405">
        <ele>3.98</ele>
        <time>2021-07-02T18:26:56Z</time>
      </trkpt>
      <trkpt lat="44.45147" lon="-1.24154">
        <ele>3.5</ele>
        <time>2021-07-02T18:27:05Z</time>
      </trkpt>
      <trkpt lat="44.45084" lon="-1.24296">
        <ele>0.62</ele>
        <time>2021-07-02T18:27:16Z</time>
      </trkpt>
      <trkpt lat="44.44985" lon="-1.24408">
        <ele>-1.79</ele>
        <time>2021-07-02T18:27:27Z</time>
      </trkpt>
      <trkpt lat="44.44886" lon="-1.2447">
        <ele>0.14</ele>
        <time>2021-07-02T18:27:39Z</time>
      </trkpt>
      <trkpt lat="44.44764" lon="-1.24533">
        <ele>2.06</ele>
        <time>2021-07-02T18:27:54Z</time>
      </trkpt>
      <trkpt lat="44.44635" lon="-1.246">
        <ele>4.46</ele>
        <time>2021-07-02T18:28:09Z</time>
      </trkpt>
      <trkpt lat="44.44522" lon="-1.2466">
        <ele>5.91</ele>
        <time>2021-07-02T18:28:24Z</time>
      </trkpt>
      <trkpt lat="44.44517" lon="-1.24662">
        <ele>5.91</ele>
        <time>2021-07-02T18:28:25Z</time>
      </trkpt>
      <trkpt lat="44.44513" lon="-1.24665">
        <ele>6.39</ele>
        <time>2021-07-02T18:28:26Z</time>
      </trkpt>
      <trkpt lat="44.44493" lon="-1.24673">
        <ele>6.87</ele>
        <time>2021-07-02T18:28:34Z</time>
      </trkpt>
      <trkpt lat="44.44486" lon="-1.24677">
        <ele>6.87</ele>
        <time>2021-07-02T18:28:35Z</time>
      </trkpt>
      <trkpt lat="44.44428" lon="-1.24707">
        <ele>6.39</ele>
        <time>2021-07-02T18:28:44Z</time>
      </trkpt>
      <trkpt lat="44.4438" lon="-1.24732">
        <ele>6.39</ele>
        <time>2021-07-02T18:28:52Z</time>
      </trkpt>
      <trkpt lat="44.44373" lon="-1.24736">
        <ele>6.39</ele>
        <time>2021-07-02T18:28:53Z</time>
      </trkpt>
      <trkpt lat="44.44369" lon="-1.24743">
        <ele>6.39</ele>
        <time>2021-07-02T18:28:54Z</time>
      </trkpt>
      <trkpt lat="44.44369" lon="-1.24743">
        <ele>6.39</ele>
        <time>2021-07-02T18:28:55Z</time>
      </trkpt>
      <trkpt lat="44.44369" lon="-1.24749">
        <ele>6.39</ele>
        <time>2021-07-02T18:28:56Z</time>
      </trkpt>
      <trkpt lat="44.44366" lon="-1.24751">
        <ele>6.39</ele>
        <time>2021-07-02T18:28:57Z</time>
      </trkpt>
      <trkpt lat="44.44363" lon="-1.24753">
        <ele>6.39</ele>
        <time>2021-07-02T18:28:58Z</time>
      </trkpt>
      <trkpt lat="44.44359" lon="-1.24753">
        <ele>6.39</ele>
        <time>2021-07-02T18:28:59Z</time>
      </trkpt>
      <trkpt lat="44.44356" lon="-1.2475">
        <ele>6.39</ele>
        <time>2021-07-02T18:29:00Z</time>
      </trkpt>
      <trkpt lat="44.4435" lon="-1.24748">
        <ele>5.91</ele>
        <time>2021-07-02T18:29:01Z</time>
      </trkpt>
      <trkpt lat="44.44347" lon="-1.2475">
        <ele>5.91</ele>
        <time>2021-07-02T18:29:02Z</time>
      </trkpt>
      <trkpt lat="44.44343" lon="-1.24751">
        <ele>5.42</ele>
        <time>2021-07-02T18:29:03Z</time>
      </trkpt>
      <trkpt lat="44.4434" lon="-1.24753">
        <ele>5.42</ele>
        <time>2021-07-02T18:29:04Z</time>
      </trkpt>
      <trkpt lat="44.44306" lon="-1.24769">
        <ele>5.91</ele>
        <time>2021-07-02T18:29:16Z</time>
      </trkpt>
      <trkpt lat="44.44305" lon="-1.2477">
        <ele>5.91</ele>
        <time>2021-07-02T18:29:17Z</time>
      </trkpt>
      <trkpt lat="44.44303" lon="-1.24766">
        <ele>5.91</ele>
        <time>2021-07-02T18:29:18Z</time>
      </trkpt>
      <trkpt lat="44.44302" lon="-1.2476">
        <ele>5.91</ele>
        <time>2021-07-02T18:29:19Z</time>
      </trkpt>
      <trkpt lat="44.44302" lon="-1.2476">
        <ele>5.91</ele>
        <time>2021-07-02T18:29:20Z</time>
      </trkpt>
      <trkpt lat="44.443" lon="-1.24754">
        <ele>5.91</ele>
        <time>2021-07-02T18:29:21Z</time>
      </trkpt>
      <trkpt lat="44.44298" lon="-1.24747">
        <ele>5.91</ele>
        <time>2021-07-02T18:29:22Z</time>
      </trkpt>
      <trkpt lat="44.44264" lon="-1.24631">
        <ele>6.39</ele>
        <time>2021-07-02T18:29:34Z</time>
      </trkpt>
      <trkpt lat="44.44228" lon="-1.24503">
        <ele>6.39</ele>
        <time>2021-07-02T18:29:46Z</time>
      </trkpt>
      <trkpt lat="44.44175" lon="-1.24319">
        <ele>6.87</ele>
        <time>2021-07-02T18:30:02Z</time>
      </trkpt>
      <trkpt lat="44.44171" lon="-1.24307">
        <ele>7.35</ele>
        <time>2021-07-02T18:30:04Z</time>
      </trkpt>
      <trkpt lat="44.44164" lon="-1.24296">
        <ele>7.83</ele>
        <time>2021-07-02T18:30:06Z</time>
      </trkpt>
      <trkpt lat="44.44159" lon="-1.2429">
        <ele>7.83</ele>
        <time>2021-07-02T18:30:07Z</time>
      </trkpt>
      <trkpt lat="44.44157" lon="-1.24272">
        <ele>7.83</ele>
        <time>2021-07-02T18:30:08Z</time>
      </trkpt>
      <trkpt lat="44.44155" lon="-1.24261">
        <ele>7.83</ele>
        <time>2021-07-02T18:30:10Z</time>
      </trkpt>
      <trkpt lat="44.44153" lon="-1.24252">
        <ele>7.83</ele>
        <time>2021-07-02T18:30:11Z</time>
      </trkpt>
      <trkpt lat="44.44113" lon="-1.24133">
        <ele>7.83</ele>
        <time>2021-07-02T18:30:21Z</time>
      </trkpt>
      <trkpt lat="44.44016" lon="-1.23957">
        <ele>7.35</ele>
        <time>2021-07-02T18:30:35Z</time>
      </trkpt>
      <trkpt lat="44.43922" lon="-1.23779">
        <ele>7.83</ele>
        <time>2021-07-02T18:30:48Z</time>
      </trkpt>
      <trkpt lat="44.43813" lon="-1.23551">
        <ele>9.27</ele>
        <time>2021-07-02T18:31:00Z</time>
      </trkpt>
      <trkpt lat="44.43663" lon="-1.23242">
        <ele>12.15</ele>
        <time>2021-07-02T18:31:14Z</time>
      </trkpt>
      <trkpt lat="44.43512" lon="-1.22898">
        <ele>27.05</ele>
        <time>2021-07-02T18:31:29Z</time>
      </trkpt>
      <trkpt lat="44.43463" lon="-1.22654">
        <ele>30.42</ele>
        <time>2021-07-02T18:31:39Z</time>
      </trkpt>
      <trkpt lat="44.43454" lon="-1.22634">
        <ele>30.42</ele>
        <time>2021-07-02T18:31:40Z</time>
      </trkpt>
      <trkpt lat="44.43444" lon="-1.22612">
        <ele>30.9</ele>
        <time>2021-07-02T18:31:41Z</time>
      </trkpt>
      <trkpt lat="44.43435" lon="-1.22592">
        <ele>30.9</ele>
        <time>2021-07-02T18:31:42Z</time>
      </trkpt>
      <trkpt lat="44.43409" lon="-1.22558">
        <ele>31.86</ele>
        <time>2021-07-02T18:31:43Z</time>
      </trkpt>
      <trkpt lat="44.43409" lon="-1.22558">
        <ele>31.86</ele>
        <time>2021-07-02T18:31:44Z</time>
      </trkpt>
      <trkpt lat="44.43396" lon="-1.22542">
        <ele>32.34</ele>
        <time>2021-07-02T18:31:45Z</time>
      </trkpt>
      <trkpt lat="44.43382" lon="-1.2253">
        <ele>32.82</ele>
        <time>2021-07-02T18:31:46Z</time>
      </trkpt>
      <trkpt lat="44.43272" lon="-1.22467">
        <ele>41.47</ele>
        <time>2021-07-02T18:31:53Z</time>
      </trkpt>
      <trkpt lat="44.43013" lon="-1.22409">
        <ele>52.05</ele>
        <time>2021-07-02T18:32:08Z</time>
      </trkpt>
      <trkpt lat="44.42858" lon="-1.22311">
        <ele>54.93</ele>
        <time>2021-07-02T18:32:17Z</time>
      </trkpt>
      <trkpt lat="44.42642" lon="-1.22141">
        <ele>54.45</ele>
        <time>2021-07-02T18:32:30Z</time>
      </trkpt>
      <trkpt lat="44.42566" lon="-1.22016">
        <ele>53.97</ele>
        <time>2021-07-02T18:32:36Z</time>
      </trkpt>
      <trkpt lat="44.42552" lon="-1.21998">
        <ele>53.01</ele>
        <time>2021-07-02T18:32:37Z</time>
      </trkpt>
      <trkpt lat="44.42538" lon="-1.2198">
        <ele>53.49</ele>
        <time>2021-07-02T18:32:38Z</time>
      </trkpt>
      <trkpt lat="44.42521" lon="-1.21964">
        <ele>52.53</ele>
        <time>2021-07-02T18:32:39Z</time>
      </trkpt>
      <trkpt lat="44.42505" lon="-1.21949">
        <ele>51.09</ele>
        <time>2021-07-02T18:32:40Z</time>
      </trkpt>
      <trkpt lat="44.42487" lon="-1.21938">
        <ele>49.65</ele>
        <time>2021-07-02T18:32:41Z</time>
      </trkpt>
      <trkpt lat="44.42437" lon="-1.21907">
        <ele>48.2</ele>
        <time>2021-07-02T18:32:44Z</time>
      </trkpt>
      <trkpt lat="44.42423" lon="-1.21896">
        <ele>47.24</ele>
        <time>2021-07-02T18:32:45Z</time>
      </trkpt>
      <trkpt lat="44.42412" lon="-1.21882">
        <ele>46.76</ele>
        <time>2021-07-02T18:32:46Z</time>
      </trkpt>
      <trkpt lat="44.42401" lon="-1.21867">
        <ele>45.32</ele>
        <time>2021-07-02T18:32:47Z</time>
      </trkpt>
      <trkpt lat="44.42389" lon="-1.21851">
        <ele>44.36</ele>
        <time>2021-07-02T18:32:48Z</time>
      </trkpt>
      <trkpt lat="44.4238" lon="-1.21829">
        <ele>43.88</ele>
        <time>2021-07-02T18:32:49Z</time>
      </trkpt>
      <trkpt lat="44.42369" lon="-1.21784">
        <ele>43.4</ele>
        <time>2021-07-02T18:32:50Z</time>
      </trkpt>
      <trkpt lat="44.42369" lon="-1.21784">
        <ele>41.47</ele>
        <time>2021-07-02T18:32:51Z</time>
      </trkpt>
      <trkpt lat="44.42362" lon="-1.21733">
        <ele>40.99</ele>
        <time>2021-07-02T18:32:52Z</time>
      </trkpt>
      <trkpt lat="44.4236" lon="-1.21706">
        <ele>40.03</ele>
        <time>2021-07-02T18:32:53Z</time>
      </trkpt>
      <trkpt lat="44.42326" lon="-1.21458">
        <ele>44.36</ele>
        <time>2021-07-02T18:33:04Z</time>
      </trkpt>
      <trkpt lat="44.42222" lon="-1.2124">
        <ele>42.44</ele>
        <time>2021-07-02T18:33:14Z</time>
      </trkpt>
      <trkpt lat="44.42184" lon="-1.21146">
        <ele>43.4</ele>
        <time>2021-07-02T18:33:18Z</time>
      </trkpt>
      <trkpt lat="44.42177" lon="-1.21122">
        <ele>42.92</ele>
        <time>2021-07-02T18:33:19Z</time>
      </trkpt>
      <trkpt lat="44.42173" lon="-1.21096">
        <ele>42.92</ele>
        <time>2021-07-02T18:33:20Z</time>
      </trkpt>
      <trkpt lat="44.42171" lon="-1.21069">
        <ele>42.92</ele>
        <time>2021-07-02T18:33:21Z</time>
      </trkpt>
      <trkpt lat="44.42168" lon="-1.21042">
        <ele>42.44</ele>
        <time>2021-07-02T18:33:22Z</time>
      </trkpt>
      <trkpt lat="44.42172" lon="-1.21016">
        <ele>42.44</ele>
        <time>2021-07-02T18:33:23Z</time>
      </trkpt>
      <trkpt lat="44.42177" lon="-1.2099">
        <ele>42.44</ele>
        <time>2021-07-02T18:33:24Z</time>
      </trkpt>
      <trkpt lat="44.42181" lon="-1.20965">
        <ele>41.47</ele>
        <time>2021-07-02T18:33:25Z</time>
      </trkpt>
      <trkpt lat="44.42209" lon="-1.20736">
        <ele>35.71</ele>
        <time>2021-07-02T18:33:34Z</time>
      </trkpt>
      <trkpt lat="44.42171" lon="-1.20535">
        <ele>34.26</ele>
        <time>2021-07-02T18:33:42Z</time>
      </trkpt>
      <trkpt lat="44.42068" lon="-1.20324">
        <ele>41.47</ele>
        <time>2021-07-02T18:33:51Z</time>
      </trkpt>
      <trkpt lat="44.41982" lon="-1.20142">
        <ele>38.11</ele>
        <time>2021-07-02T18:34:01Z</time>
      </trkpt>
      <trkpt lat="44.4194" lon="-1.2003">
        <ele>33.3</ele>
        <time>2021-07-02T18:34:06Z</time>
      </trkpt>
      <trkpt lat="44.41935" lon="-1.20006">
        <ele>32.34</ele>
        <time>2021-07-02T18:34:07Z</time>
      </trkpt>
      <trkpt lat="44.4193" lon="-1.19978">
        <ele>32.34</ele>
        <time>2021-07-02T18:34:08Z</time>
      </trkpt>
      <trkpt lat="44.41913" lon="-1.19731">
        <ele>36.67</ele>
        <time>2021-07-02T18:34:17Z</time>
      </trkpt>
      <trkpt lat="44.41872" lon="-1.19446">
        <ele>35.23</ele>
        <time>2021-07-02T18:34:28Z</time>
      </trkpt>
      <trkpt lat="44.41823" lon="-1.19246">
        <ele>35.23</ele>
        <time>2021-07-02T18:34:36Z</time>
      </trkpt>
      <trkpt lat="44.41821" lon="-1.1922">
        <ele>36.67</ele>
        <time>2021-07-02T18:34:37Z</time>
      </trkpt>
      <trkpt lat="44.41819" lon="-1.19195">
        <ele>37.15</ele>
        <time>2021-07-02T18:34:38Z</time>
      </trkpt>
      <trkpt lat="44.41813" lon="-1.1912">
        <ele>37.63</ele>
        <time>2021-07-02T18:34:40Z</time>
      </trkpt>
      <trkpt lat="44.41813" lon="-1.1912">
        <ele>37.15</ele>
        <time>2021-07-02T18:34:41Z</time>
      </trkpt>
      <trkpt lat="44.41807" lon="-1.19096">
        <ele>36.19</ele>
        <time>2021-07-02T18:34:42Z</time>
      </trkpt>
      <trkpt lat="44.41749" lon="-1.18903">
        <ele>30.9</ele>
        <time>2021-07-02T18:34:49Z</time>
      </trkpt>
      <trkpt lat="44.41749" lon="-1.18903">
        <ele>29.94</ele>
        <time>2021-07-02T18:34:50Z</time>
      </trkpt>
      <trkpt lat="44.41737" lon="-1.18883">
        <ele>29.46</ele>
        <time>2021-07-02T18:34:51Z</time>
      </trkpt>
      <trkpt lat="44.417" lon="-1.18829">
        <ele>27.53</ele>
        <time>2021-07-02T18:34:54Z</time>
      </trkpt>
      <trkpt lat="44.41687" lon="-1.1881">
        <ele>26.57</ele>
        <time>2021-07-02T18:34:55Z</time>
      </trkpt>
      <trkpt lat="44.41677" lon="-1.18787">
        <ele>25.61</ele>
        <time>2021-07-02T18:34:56Z</time>
      </trkpt>
      <trkpt lat="44.41668" lon="-1.18765">
        <ele>25.13</ele>
        <time>2021-07-02T18:34:57Z</time>
      </trkpt>
      <trkpt lat="44.41663" lon="-1.1874">
        <ele>24.65</ele>
        <time>2021-07-02T18:34:58Z</time>
      </trkpt>
      <trkpt lat="44.41659" lon="-1.18713">
        <ele>22.73</ele>
        <time>2021-07-02T18:34:59Z</time>
      </trkpt>
      <trkpt lat="44.41603" lon="-1.18472">
        <ele>19.84</ele>
        <time>2021-07-02T18:35:08Z</time>
      </trkpt>
      <trkpt lat="44.41509" lon="-1.18166">
        <ele>20.32</ele>
        <time>2021-07-02T18:35:20Z</time>
      </trkpt>
      <trkpt lat="44.41498" lon="-1.18147">
        <ele>20.81</ele>
        <time>2021-07-02T18:35:21Z</time>
      </trkpt>
      <trkpt lat="44.41487" lon="-1.18128">
        <ele>20.81</ele>
        <time>2021-07-02T18:35:22Z</time>
      </trkpt>
      <trkpt lat="44.41473" lon="-1.1811">
        <ele>20.32</ele>
        <time>2021-07-02T18:35:23Z</time>
      </trkpt>
      <trkpt lat="44.41459" lon="-1.18094">
        <ele>19.84</ele>
        <time>2021-07-02T18:35:24Z</time>
      </trkpt>
      <trkpt lat="44.41278" lon="-1.17913">
        <ele>16</ele>
        <time>2021-07-02T18:35:36Z</time>
      </trkpt>
      <trkpt lat="44.41165" lon="-1.17698">
        <ele>16.96</ele>
        <time>2021-07-02T18:35:47Z</time>
      </trkpt>
      <trkpt lat="44.41135" lon="-1.17534">
        <ele>18.4</ele>
        <time>2021-07-02T18:35:54Z</time>
      </trkpt>
      <trkpt lat="44.41121" lon="-1.17324">
        <ele>16.48</ele>
        <time>2021-07-02T18:36:03Z</time>
      </trkpt>
      <trkpt lat="44.41083" lon="-1.17135">
        <ele>16.48</ele>
        <time>2021-07-02T18:36:17Z</time>
      </trkpt>
      <trkpt lat="44.41077" lon="-1.17032">
        <ele>16.48</ele>
        <time>2021-07-02T18:36:26Z</time>
      </trkpt>
      <trkpt lat="44.41077" lon="-1.16965">
        <ele>16.48</ele>
        <time>2021-07-02T18:36:37Z</time>
      </trkpt>
      <trkpt lat="44.41073" lon="-1.16935">
        <ele>16.48</ele>
        <time>2021-07-02T18:36:50Z</time>
      </trkpt>
      <trkpt lat="44.4107" lon="-1.16917">
        <ele>16</ele>
        <time>2021-07-02T18:36:59Z</time>
      </trkpt>
      <trkpt lat="44.41065" lon="-1.16905">
        <ele>16.48</ele>
        <time>2021-07-02T18:37:02Z</time>
      </trkpt>
      <trkpt lat="44.41059" lon="-1.16897">
        <ele>16.48</ele>
        <time>2021-07-02T18:37:03Z</time>
      </trkpt>
      <trkpt lat="44.41056" lon="-1.16895">
        <ele>16.48</ele>
        <time>2021-07-02T18:37:04Z</time>
      </trkpt>
      <trkpt lat="44.41056" lon="-1.16895">
        <ele>16.48</ele>
        <time>2021-07-02T18:37:05Z</time>
      </trkpt>
      <trkpt lat="44.41052" lon="-1.16892">
        <ele>16.48</ele>
        <time>2021-07-02T18:37:06Z</time>
      </trkpt>
      <trkpt lat="44.41045" lon="-1.16882">
        <ele>16.48</ele>
        <time>2021-07-02T18:37:09Z</time>
      </trkpt>
      <trkpt lat="44.41045" lon="-1.16882">
        <ele>16.48</ele>
        <time>2021-07-02T18:37:10Z</time>
      </trkpt>
      <trkpt lat="44.41041" lon="-1.1687">
        <ele>16.48</ele>
        <time>2021-07-02T18:37:11Z</time>
      </trkpt>
      <trkpt lat="44.41027" lon="-1.16841">
        <ele>16.48</ele>
        <time>2021-07-02T18:37:21Z</time>
      </trkpt>
      <trkpt lat="44.41009" lon="-1.16797">
        <ele>15.52</ele>
        <time>2021-07-02T18:37:34Z</time>
      </trkpt>
      <trkpt lat="44.41009" lon="-1.16797">
        <ele>16</ele>
        <time>2021-07-02T18:37:52Z</time>
      </trkpt>
      <trkpt lat="44.40979" lon="-1.1681">
        <ele>15.04</ele>
        <time>2021-07-02T18:37:53Z</time>
      </trkpt>
      <trkpt lat="44.40985" lon="-1.16768">
        <ele>13.6</ele>
        <time>2021-07-02T18:37:55Z</time>
      </trkpt>
      <trkpt lat="44.40985" lon="-1.16768">
        <ele>13.12</ele>
        <time>2021-07-02T18:37:56Z</time>
      </trkpt>
      <trkpt lat="44.40987" lon="-1.16768">
        <ele>13.12</ele>
        <time>2021-07-02T18:37:57Z</time>
      </trkpt>
      <trkpt lat="44.40989" lon="-1.16768">
        <ele>13.12</ele>
        <time>2021-07-02T18:37:58Z</time>
      </trkpt>
      <trkpt lat="44.40991" lon="-1.16768">
        <ele>14.08</ele>
        <time>2021-07-02T18:37:59Z</time>
      </trkpt>
      <trkpt lat="44.40993" lon="-1.16768">
        <ele>15.52</ele>
        <time>2021-07-02T18:38:00Z</time>
      </trkpt>
      <trkpt lat="44.41" lon="-1.16773">
        <ele>16</ele>
        <time>2021-07-02T18:38:01Z</time>
      </trkpt>
      <trkpt lat="44.41" lon="-1.16773">
        <ele>16.48</ele>
        <time>2021-07-02T18:38:02Z</time>
      </trkpt>
      <trkpt lat="44.41005" lon="-1.16786">
        <ele>16.48</ele>
        <time>2021-07-02T18:38:06Z</time>
      </trkpt>
      <trkpt lat="44.41006" lon="-1.16768">
        <ele>16.96</ele>
        <time>2021-07-02T18:38:07Z</time>
      </trkpt>
      <trkpt lat="44.41006" lon="-1.16768">
        <ele>16.48</ele>
        <time>2021-07-02T18:38:08Z</time>
      </trkpt>
      <trkpt lat="44.41014" lon="-1.16768">
        <ele>16.48</ele>
        <time>2021-07-02T18:38:20Z</time>
      </trkpt>
      <trkpt lat="44.41014" lon="-1.16768">
        <ele>16</ele>
        <time>2021-07-02T18:46:17Z</time>
      </trkpt>
      <trkpt lat="44.41014" lon="-1.16768">
        <ele>15.52</ele>
        <time>2021-07-02T18:51:47Z</time>
      </trkpt>
      <trkpt lat="44.41014" lon="-1.16768">
        <ele>15.52</ele>
        <time>2021-07-02T18:58:06Z</time>
      </trkpt>
      <trkpt lat="44.41014" lon="-1.16768">
        <ele>16</ele>
        <time>2021-07-02T19:02:55Z</time>
      </trkpt>
      <trkpt lat="44.41014" lon="-1.16768">
        <ele>16.48</ele>
        <time>2021-07-02T19:06:30Z</time>
      </trkpt>
      <trkpt lat="44.41014" lon="-1.16768">
        <ele>16</ele>
        <time>2021-07-02T19:09:35Z</time>
      </trkpt>
      <trkpt lat="44.41014" lon="-1.16768">
        <ele>16</ele>
        <time>2021-07-02T19:10:41Z</time>
      </trkpt>
      <trkpt lat="44.41014" lon="-1.16768">
        <ele>16</ele>
        <time>2021-07-02T19:11:02Z</time>
      </trkpt>
      <trkpt lat="44.41018" lon="-1.16768">
        <ele>16</ele>
        <time>2021-07-02T19:11:03Z</time>
      </trkpt>
      <trkpt lat="44.41018" lon="-1.16768">
        <ele>16</ele>
        <time>2021-07-02T19:11:04Z</time>
      </trkpt>
      <trkpt lat="44.41019" lon="-1.16768">
        <ele>16</ele>
        <time>2021-07-02T19:11:05Z</time>
      </trkpt>
      <trkpt lat="44.4102" lon="-1.16768">
        <ele>16</ele>
        <time>2021-07-02T19:11:06Z</time>
      </trkpt>
      <trkpt lat="44.41022" lon="-1.16768">
        <ele>16</ele>
        <time>2021-07-02T19:11:07Z</time>
      </trkpt>
      <trkpt lat="44.41023" lon="-1.16768">
        <ele>16</ele>
        <time>2021-07-02T19:11:08Z</time>
      </trkpt>
      <trkpt lat="44.41025" lon="-1.16768">
        <ele>16</ele>
        <time>2021-07-02T19:11:09Z</time>
      </trkpt>
      <trkpt lat="44.4106" lon="-1.16753">
        <ele>16</ele>
        <time>2021-07-02T19:11:29Z</time>
      </trkpt>
      <trkpt lat="44.41075" lon="-1.16718">
        <ele>15.52</ele>
        <time>2021-07-02T19:11:43Z</time>
      </trkpt>
      <trkpt lat="44.41073" lon="-1.16647">
        <ele>15.52</ele>
        <time>2021-07-02T19:11:53Z</time>
      </trkpt>
      <trkpt lat="44.41067" lon="-1.16483">
        <ele>16</ele>
        <time>2021-07-02T19:12:06Z</time>
      </trkpt>
      <trkpt lat="44.41036" lon="-1.16333">
        <ele>16.96</ele>
        <time>2021-07-02T19:12:16Z</time>
      </trkpt>
      <trkpt lat="44.41011" lon="-1.16263">
        <ele>17.44</ele>
        <time>2021-07-02T19:12:22Z</time>
      </trkpt>
      <trkpt lat="44.41004" lon="-1.1625">
        <ele>17.44</ele>
        <time>2021-07-02T19:12:23Z</time>
      </trkpt>
      <trkpt lat="44.40996" lon="-1.16239">
        <ele>17.92</ele>
        <time>2021-07-02T19:12:24Z</time>
      </trkpt>
      <trkpt lat="44.40917" lon="-1.16166">
        <ele>19.36</ele>
        <time>2021-07-02T19:12:33Z</time>
      </trkpt>
      <trkpt lat="44.40849" lon="-1.16106">
        <ele>20.32</ele>
        <time>2021-07-02T19:12:44Z</time>
      </trkpt>
      <trkpt lat="44.4078" lon="-1.16031">
        <ele>20.32</ele>
        <time>2021-07-02T19:12:58Z</time>
      </trkpt>
      <trkpt lat="44.40774" lon="-1.16017">
        <ele>20.32</ele>
        <time>2021-07-02T19:13:00Z</time>
      </trkpt>
      <trkpt lat="44.40724" lon="-1.15904">
        <ele>20.32</ele>
        <time>2021-07-02T19:13:13Z</time>
      </trkpt>
      <trkpt lat="44.40658" lon="-1.15718">
        <ele>21.77</ele>
        <time>2021-07-02T19:13:28Z</time>
      </trkpt>
      <trkpt lat="44.40653" lon="-1.15705">
        <ele>21.77</ele>
        <time>2021-07-02T19:13:29Z</time>
      </trkpt>
      <trkpt lat="44.40648" lon="-1.15692">
        <ele>21.29</ele>
        <time>2021-07-02T19:13:30Z</time>
      </trkpt>
      <trkpt lat="44.40602" lon="-1.15587">
        <ele>22.25</ele>
        <time>2021-07-02T19:13:38Z</time>
      </trkpt>
      <trkpt lat="44.40599" lon="-1.15575">
        <ele>22.25</ele>
        <time>2021-07-02T19:13:39Z</time>
      </trkpt>
      <trkpt lat="44.40597" lon="-1.15561">
        <ele>22.25</ele>
        <time>2021-07-02T19:13:40Z</time>
      </trkpt>
      <trkpt lat="44.40595" lon="-1.15547">
        <ele>21.77</ele>
        <time>2021-07-02T19:13:41Z</time>
      </trkpt>
      <trkpt lat="44.40594" lon="-1.15533">
        <ele>22.25</ele>
        <time>2021-07-02T19:13:42Z</time>
      </trkpt>
      <trkpt lat="44.40588" lon="-1.15445">
        <ele>22.73</ele>
        <time>2021-07-02T19:13:49Z</time>
      </trkpt>
      <trkpt lat="44.40586" lon="-1.15437">
        <ele>22.73</ele>
        <time>2021-07-02T19:13:50Z</time>
      </trkpt>
      <trkpt lat="44.40581" lon="-1.15431">
        <ele>22.25</ele>
        <time>2021-07-02T19:13:51Z</time>
      </trkpt>
      <trkpt lat="44.40581" lon="-1.15431">
        <ele>22.25</ele>
        <time>2021-07-02T19:13:52Z</time>
      </trkpt>
      <trkpt lat="44.40573" lon="-1.15425">
        <ele>21.77</ele>
        <time>2021-07-02T19:13:53Z</time>
      </trkpt>
      <trkpt lat="44.40569" lon="-1.15425">
        <ele>21.77</ele>
        <time>2021-07-02T19:13:54Z</time>
      </trkpt>
      <trkpt lat="44.40569" lon="-1.15425">
        <ele>21.29</ele>
        <time>2021-07-02T19:13:55Z</time>
      </trkpt>
      <trkpt lat="44.40563" lon="-1.15427">
        <ele>21.29</ele>
        <time>2021-07-02T19:13:56Z</time>
      </trkpt>
      <trkpt lat="44.40557" lon="-1.15433">
        <ele>21.29</ele>
        <time>2021-07-02T19:13:57Z</time>
      </trkpt>
      <trkpt lat="44.40468" lon="-1.15529">
        <ele>18.88</ele>
        <time>2021-07-02T19:14:09Z</time>
      </trkpt>
      <trkpt lat="44.40321" lon="-1.15698">
        <ele>20.81</ele>
        <time>2021-07-02T19:14:31Z</time>
      </trkpt>
      <trkpt lat="44.40239" lon="-1.15844">
        <ele>20.32</ele>
        <time>2021-07-02T19:14:45Z</time>
      </trkpt>
      <trkpt lat="44.40133" lon="-1.16042">
        <ele>19.36</ele>
        <time>2021-07-02T19:15:01Z</time>
      </trkpt>
      <trkpt lat="44.40028" lon="-1.16232">
        <ele>18.4</ele>
        <time>2021-07-02T19:15:16Z</time>
      </trkpt>
      <trkpt lat="44.40021" lon="-1.16243">
        <ele>19.36</ele>
        <time>2021-07-02T19:15:17Z</time>
      </trkpt>
      <trkpt lat="44.40011" lon="-1.1625">
        <ele>17.92</ele>
        <time>2021-07-02T19:15:18Z</time>
      </trkpt>
      <trkpt lat="44.40002" lon="-1.16256">
        <ele>16.96</ele>
        <time>2021-07-02T19:15:19Z</time>
      </trkpt>
      <trkpt lat="44.39992" lon="-1.16263">
        <ele>16.96</ele>
        <time>2021-07-02T19:15:20Z</time>
      </trkpt>
      <trkpt lat="44.39982" lon="-1.16267">
        <ele>17.44</ele>
        <time>2021-07-02T19:15:21Z</time>
      </trkpt>
      <trkpt lat="44.39971" lon="-1.16269">
        <ele>17.92</ele>
        <time>2021-07-02T19:15:22Z</time>
      </trkpt>
      <trkpt lat="44.39959" lon="-1.16271">
        <ele>17.44</ele>
        <time>2021-07-02T19:15:23Z</time>
      </trkpt>
      <trkpt lat="44.3978" lon="-1.16293">
        <ele>17.44</ele>
        <time>2021-07-02T19:15:40Z</time>
      </trkpt>
      <trkpt lat="44.39654" lon="-1.16341">
        <ele>16.48</ele>
        <time>2021-07-02T19:15:53Z</time>
      </trkpt>
      <trkpt lat="44.39595" lon="-1.16365">
        <ele>16.96</ele>
        <time>2021-07-02T19:16:03Z</time>
      </trkpt>
      <trkpt lat="44.39529" lon="-1.16392">
        <ele>16.96</ele>
        <time>2021-07-02T19:16:15Z</time>
      </trkpt>
      <trkpt lat="44.39525" lon="-1.16394">
        <ele>16.96</ele>
        <time>2021-07-02T19:16:16Z</time>
      </trkpt>
      <trkpt lat="44.3948" lon="-1.16412">
        <ele>16.96</ele>
        <time>2021-07-02T19:16:24Z</time>
      </trkpt>
      <trkpt lat="44.39475" lon="-1.16414">
        <ele>16.96</ele>
        <time>2021-07-02T19:16:25Z</time>
      </trkpt>
      <trkpt lat="44.39474" lon="-1.16414">
        <ele>16.96</ele>
        <time>2021-07-02T19:16:26Z</time>
      </trkpt>
      <trkpt lat="44.39468" lon="-1.16434">
        <ele>16.96</ele>
        <time>2021-07-02T19:16:27Z</time>
      </trkpt>
      <trkpt lat="44.39464" lon="-1.16434">
        <ele>16.48</ele>
        <time>2021-07-02T19:16:28Z</time>
      </trkpt>
      <trkpt lat="44.3946" lon="-1.16434">
        <ele>16.96</ele>
        <time>2021-07-02T19:16:29Z</time>
      </trkpt>
      <trkpt lat="44.39456" lon="-1.16427">
        <ele>16.48</ele>
        <time>2021-07-02T19:16:30Z</time>
      </trkpt>
      <trkpt lat="44.39455" lon="-1.16422">
        <ele>16</ele>
        <time>2021-07-02T19:16:31Z</time>
      </trkpt>
      <trkpt lat="44.39455" lon="-1.16416">
        <ele>16</ele>
        <time>2021-07-02T19:16:32Z</time>
      </trkpt>
      <trkpt lat="44.39457" lon="-1.1641">
        <ele>16</ele>
        <time>2021-07-02T19:16:33Z</time>
      </trkpt>
      <trkpt lat="44.39461" lon="-1.16406">
        <ele>16</ele>
        <time>2021-07-02T19:16:34Z</time>
      </trkpt>
      <trkpt lat="44.39467" lon="-1.16407">
        <ele>16.48</ele>
        <time>2021-07-02T19:16:35Z</time>
      </trkpt>
      <trkpt lat="44.39523" lon="-1.16395">
        <ele>18.4</ele>
        <time>2021-07-02T19:16:46Z</time>
      </trkpt>
      <trkpt lat="44.39523" lon="-1.16395">
        <ele>18.88</ele>
        <time>2021-07-02T19:16:47Z</time>
      </trkpt>
      <trkpt lat="44.39525" lon="-1.16394">
        <ele>19.36</ele>
        <time>2021-07-02T19:16:55Z</time>
      </trkpt>
      <trkpt lat="44.3953" lon="-1.16399">
        <ele>19.36</ele>
        <time>2021-07-02T19:16:56Z</time>
      </trkpt>
      <trkpt lat="44.3953" lon="-1.16399">
        <ele>19.36</ele>
        <time>2021-07-02T19:16:57Z</time>
      </trkpt>
      <trkpt lat="44.39538" lon="-1.16431">
        <ele>19.36</ele>
        <time>2021-07-02T19:17:08Z</time>
      </trkpt>
      <trkpt lat="44.39539" lon="-1.16435">
        <ele>19.36</ele>
        <time>2021-07-02T19:17:09Z</time>
      </trkpt>
      <trkpt lat="44.39539" lon="-1.16435">
        <ele>19.84</ele>
        <time>2021-07-02T19:17:23Z</time>
      </trkpt>
      <trkpt lat="44.39539" lon="-1.16435">
        <ele>20.32</ele>
        <time>2021-07-02T19:18:07Z</time>
      </trkpt>
      <trkpt lat="44.39539" lon="-1.16435">
        <ele>20.81</ele>
        <time>2021-07-02T19:19:28Z</time>
      </trkpt>
      <trkpt lat="44.39539" lon="-1.16435">
        <ele>20.81</ele>
        <time>2021-07-02T19:20:53Z</time>
      </trkpt>
      <trkpt lat="44.39539" lon="-1.16435">
        <ele>20.32</ele>
        <time>2021-07-02T19:21:39Z</time>
      </trkpt>
      <trkpt lat="44.39539" lon="-1.16435">
        <ele>20.81</ele>
        <time>2021-07-02T19:22:17Z</time>
      </trkpt>
      <trkpt lat="44.39539" lon="-1.16435">
        <ele>20.81</ele>
        <time>2021-07-02T19:24:07Z</time>
      </trkpt>
      <trkpt lat="44.39539" lon="-1.16435">
        <ele>20.81</ele>
        <time>2021-07-02T19:25:32Z</time>
      </trkpt>
      <trkpt lat="44.39539" lon="-1.16435">
        <ele>20.81</ele>
        <time>2021-07-02T19:27:24Z</time>
      </trkpt>
      <trkpt lat="44.39543" lon="-1.16453">
        <ele>20.81</ele>
        <time>2021-07-02T19:27:58Z</time>
      </trkpt>
      <trkpt lat="44.3957" lon="-1.1654">
        <ele>20.32</ele>
        <time>2021-07-02T19:28:19Z</time>
      </trkpt>
      <trkpt lat="44.39595" lon="-1.16626">
        <ele>18.4</ele>
        <time>2021-07-02T19:28:34Z</time>
      </trkpt>
      <trkpt lat="44.39605" lon="-1.16661">
        <ele>18.88</ele>
        <time>2021-07-02T19:28:41Z</time>
      </trkpt>
      <trkpt lat="44.39605" lon="-1.16661">
        <ele>18.88</ele>
        <time>2021-07-02T19:28:42Z</time>
      </trkpt>
      <trkpt lat="44.39604" lon="-1.16662">
        <ele>18.88</ele>
        <time>2021-07-02T19:28:43Z</time>
      </trkpt>
      <trkpt lat="44.39601" lon="-1.16663">
        <ele>17.92</ele>
        <time>2021-07-02T19:28:44Z</time>
      </trkpt>
      <trkpt lat="44.39598" lon="-1.16665">
        <ele>17.92</ele>
        <time>2021-07-02T19:28:45Z</time>
      </trkpt>
      <trkpt lat="44.39595" lon="-1.16667">
        <ele>17.92</ele>
        <time>2021-07-02T19:28:46Z</time>
      </trkpt>
      <trkpt lat="44.39541" lon="-1.16696">
        <ele>19.84</ele>
        <time>2021-07-02T19:29:00Z</time>
      </trkpt>
      <trkpt lat="44.39515" lon="-1.16711">
        <ele>19.36</ele>
        <time>2021-07-02T19:29:07Z</time>
      </trkpt>
      <trkpt lat="44.39511" lon="-1.16713">
        <ele>19.36</ele>
        <time>2021-07-02T19:29:08Z</time>
      </trkpt>
      <trkpt lat="44.39493" lon="-1.16723">
        <ele>17.92</ele>
        <time>2021-07-02T19:29:13Z</time>
      </trkpt>
      <trkpt lat="44.39437" lon="-1.16769">
        <ele>16.48</ele>
        <time>2021-07-02T19:29:27Z</time>
      </trkpt>
      <trkpt lat="44.39428" lon="-1.16779">
        <ele>16.96</ele>
        <time>2021-07-02T19:29:29Z</time>
      </trkpt>
      <trkpt lat="44.39424" lon="-1.16785">
        <ele>16.96</ele>
        <time>2021-07-02T19:29:30Z</time>
      </trkpt>
      <trkpt lat="44.3942" lon="-1.16791">
        <ele>16.96</ele>
        <time>2021-07-02T19:29:31Z</time>
      </trkpt>
      <trkpt lat="44.39355" lon="-1.16883">
        <ele>16.48</ele>
        <time>2021-07-02T19:29:47Z</time>
      </trkpt>
      <trkpt lat="44.39324" lon="-1.16924">
        <ele>16.48</ele>
        <time>2021-07-02T19:29:56Z</time>
      </trkpt>
      <trkpt lat="44.39321" lon="-1.16926">
        <ele>16.48</ele>
        <time>2021-07-02T19:29:57Z</time>
      </trkpt>
      <trkpt lat="44.39318" lon="-1.16929">
        <ele>16.48</ele>
        <time>2021-07-02T19:29:58Z</time>
      </trkpt>
      <trkpt lat="44.39316" lon="-1.16915">
        <ele>16.48</ele>
        <time>2021-07-02T19:29:59Z</time>
      </trkpt>
      <trkpt lat="44.39316" lon="-1.16915">
        <ele>16.48</ele>
        <time>2021-07-02T19:30:00Z</time>
      </trkpt>
      <trkpt lat="44.39301" lon="-1.1683">
        <ele>16.96</ele>
        <time>2021-07-02T19:30:10Z</time>
      </trkpt>
      <trkpt lat="44.39299" lon="-1.16802">
        <ele>16.48</ele>
        <time>2021-07-02T19:30:13Z</time>
      </trkpt>
      <trkpt lat="44.39299" lon="-1.16802">
        <ele>16.48</ele>
        <time>2021-07-02T19:30:14Z</time>
      </trkpt>
      <trkpt lat="44.39298" lon="-1.16795">
        <ele>16.48</ele>
        <time>2021-07-02T19:30:15Z</time>
      </trkpt>
      <trkpt lat="44.39298" lon="-1.16786">
        <ele>16.48</ele>
        <time>2021-07-02T19:30:16Z</time>
      </trkpt>
      <trkpt lat="44.39298" lon="-1.16777">
        <ele>16.48</ele>
        <time>2021-07-02T19:30:17Z</time>
      </trkpt>
      <trkpt lat="44.39299" lon="-1.16768">
        <ele>16.48</ele>
        <time>2021-07-02T19:30:18Z</time>
      </trkpt>
      <trkpt lat="44.39333" lon="-1.16618">
        <ele>18.88</ele>
        <time>2021-07-02T19:30:32Z</time>
      </trkpt>
      <trkpt lat="44.39342" lon="-1.16579">
        <ele>19.36</ele>
        <time>2021-07-02T19:30:36Z</time>
      </trkpt>
      <trkpt lat="44.39343" lon="-1.1657">
        <ele>19.36</ele>
        <time>2021-07-02T19:30:37Z</time>
      </trkpt>
      <trkpt lat="44.39344" lon="-1.16561">
        <ele>19.84</ele>
        <time>2021-07-02T19:30:38Z</time>
      </trkpt>
      <trkpt lat="44.39343" lon="-1.16524">
        <ele>19.84</ele>
        <time>2021-07-02T19:30:43Z</time>
      </trkpt>
      <trkpt lat="44.39342" lon="-1.16518">
        <ele>20.32</ele>
        <time>2021-07-02T19:30:44Z</time>
      </trkpt>
      <trkpt lat="44.39342" lon="-1.16512">
        <ele>20.32</ele>
        <time>2021-07-02T19:30:45Z</time>
      </trkpt>
      <trkpt lat="44.3934" lon="-1.16507">
        <ele>20.81</ele>
        <time>2021-07-02T19:30:46Z</time>
      </trkpt>
      <trkpt lat="44.39337" lon="-1.16502">
        <ele>20.81</ele>
        <time>2021-07-02T19:30:47Z</time>
      </trkpt>
      <trkpt lat="44.39337" lon="-1.16502">
        <ele>20.81</ele>
        <time>2021-07-02T19:30:48Z</time>
      </trkpt>
      <trkpt lat="44.39328" lon="-1.16483">
        <ele>20.81</ele>
        <time>2021-07-02T19:30:49Z</time>
      </trkpt>
      <trkpt lat="44.39321" lon="-1.16482">
        <ele>20.81</ele>
        <time>2021-07-02T19:30:50Z</time>
      </trkpt>
      <trkpt lat="44.39316" lon="-1.16478">
        <ele>21.29</ele>
        <time>2021-07-02T19:30:51Z</time>
      </trkpt>
      <trkpt lat="44.39306" lon="-1.16466">
        <ele>21.29</ele>
        <time>2021-07-02T19:30:52Z</time>
      </trkpt>
      <trkpt lat="44.39306" lon="-1.16466">
        <ele>20.81</ele>
        <time>2021-07-02T19:30:53Z</time>
      </trkpt>
      <trkpt lat="44.39256" lon="-1.16383">
        <ele>21.29</ele>
        <time>2021-07-02T19:31:05Z</time>
      </trkpt>
      <trkpt lat="44.39237" lon="-1.16353">
        <ele>21.29</ele>
        <time>2021-07-02T19:31:14Z</time>
      </trkpt>
      <trkpt lat="44.39175" lon="-1.16249">
        <ele>21.29</ele>
        <time>2021-07-02T19:31:27Z</time>
      </trkpt>
      <trkpt lat="44.39141" lon="-1.16194">
        <ele>22.25</ele>
        <time>2021-07-02T19:31:34Z</time>
      </trkpt>
      <trkpt lat="44.39134" lon="-1.16186">
        <ele>22.25</ele>
        <time>2021-07-02T19:31:35Z</time>
      </trkpt>
      <trkpt lat="44.39134" lon="-1.16186">
        <ele>22.25</ele>
        <time>2021-07-02T19:31:36Z</time>
      </trkpt>
      <trkpt lat="44.39125" lon="-1.16181">
        <ele>22.73</ele>
        <time>2021-07-02T19:31:37Z</time>
      </trkpt>
      <trkpt lat="44.39119" lon="-1.16188">
        <ele>22.73</ele>
        <time>2021-07-02T19:31:38Z</time>
      </trkpt>
      <trkpt lat="44.39119" lon="-1.16188">
        <ele>22.73</ele>
        <time>2021-07-02T19:31:39Z</time>
      </trkpt>
      <trkpt lat="44.39112" lon="-1.16191">
        <ele>22.25</ele>
        <time>2021-07-02T19:31:40Z</time>
      </trkpt>
      <trkpt lat="44.39108" lon="-1.1619">
        <ele>22.73</ele>
        <time>2021-07-02T19:31:41Z</time>
      </trkpt>
      <trkpt lat="44.39103" lon="-1.16189">
        <ele>22.25</ele>
        <time>2021-07-02T19:31:42Z</time>
      </trkpt>
      <trkpt lat="44.39098" lon="-1.16182">
        <ele>22.25</ele>
        <time>2021-07-02T19:31:43Z</time>
      </trkpt>
      <trkpt lat="44.39095" lon="-1.16176">
        <ele>21.77</ele>
        <time>2021-07-02T19:31:44Z</time>
      </trkpt>
      <trkpt lat="44.39097" lon="-1.16168">
        <ele>21.77</ele>
        <time>2021-07-02T19:31:45Z</time>
      </trkpt>
      <trkpt lat="44.39099" lon="-1.1616">
        <ele>21.77</ele>
        <time>2021-07-02T19:31:46Z</time>
      </trkpt>
      <trkpt lat="44.39096" lon="-1.16137">
        <ele>21.77</ele>
        <time>2021-07-02T19:31:47Z</time>
      </trkpt>
      <trkpt lat="44.39096" lon="-1.16137">
        <ele>21.77</ele>
        <time>2021-07-02T19:31:48Z</time>
      </trkpt>
      <trkpt lat="44.39092" lon="-1.16127">
        <ele>21.77</ele>
        <time>2021-07-02T19:31:49Z</time>
      </trkpt>
      <trkpt lat="44.39089" lon="-1.16117">
        <ele>22.25</ele>
        <time>2021-07-02T19:31:50Z</time>
      </trkpt>
      <trkpt lat="44.39085" lon="-1.16106">
        <ele>22.25</ele>
        <time>2021-07-02T19:31:51Z</time>
      </trkpt>
      <trkpt lat="44.39081" lon="-1.16095">
        <ele>21.77</ele>
        <time>2021-07-02T19:31:52Z</time>
      </trkpt>
      <trkpt lat="44.39075" lon="-1.16082">
        <ele>21.77</ele>
        <time>2021-07-02T19:31:53Z</time>
      </trkpt>
      <trkpt lat="44.38972" lon="-1.15909">
        <ele>21.29</ele>
        <time>2021-07-02T19:32:08Z</time>
      </trkpt>
      <trkpt lat="44.38846" lon="-1.15698">
        <ele>22.25</ele>
        <time>2021-07-02T19:32:25Z</time>
      </trkpt>
      <trkpt lat="44.38732" lon="-1.15503">
        <ele>23.69</ele>
        <time>2021-07-02T19:32:41Z</time>
      </trkpt>
      <trkpt lat="44.38659" lon="-1.15357">
        <ele>24.65</ele>
        <time>2021-07-02T19:32:52Z</time>
      </trkpt>
      <trkpt lat="44.38653" lon="-1.15346">
        <ele>24.65</ele>
        <time>2021-07-02T19:32:53Z</time>
      </trkpt>
      <trkpt lat="44.38644" lon="-1.15335">
        <ele>23.69</ele>
        <time>2021-07-02T19:32:54Z</time>
      </trkpt>
      <trkpt lat="44.38558" lon="-1.15213">
        <ele>23.21</ele>
        <time>2021-07-02T19:33:05Z</time>
      </trkpt>
      <trkpt lat="44.38442" lon="-1.15013">
        <ele>23.69</ele>
        <time>2021-07-02T19:33:20Z</time>
      </trkpt>
      <trkpt lat="44.38392" lon="-1.14921">
        <ele>24.17</ele>
        <time>2021-07-02T19:33:29Z</time>
      </trkpt>
      <trkpt lat="44.38387" lon="-1.14908">
        <ele>24.17</ele>
        <time>2021-07-02T19:33:30Z</time>
      </trkpt>
      <trkpt lat="44.38387" lon="-1.14908">
        <ele>24.17</ele>
        <time>2021-07-02T19:33:31Z</time>
      </trkpt>
      <trkpt lat="44.38371" lon="-1.14908">
        <ele>24.17</ele>
        <time>2021-07-02T19:33:32Z</time>
      </trkpt>
      <trkpt lat="44.38371" lon="-1.14908">
        <ele>24.17</ele>
        <time>2021-07-02T19:33:33Z</time>
      </trkpt>
      <trkpt lat="44.38367" lon="-1.14904">
        <ele>24.17</ele>
        <time>2021-07-02T19:33:34Z</time>
      </trkpt>
      <trkpt lat="44.38358" lon="-1.14891">
        <ele>24.17</ele>
        <time>2021-07-02T19:33:35Z</time>
      </trkpt>
      <trkpt lat="44.38358" lon="-1.14891">
        <ele>24.17</ele>
        <time>2021-07-02T19:33:36Z</time>
      </trkpt>
      <trkpt lat="44.38357" lon="-1.14875">
        <ele>23.21</ele>
        <time>2021-07-02T19:33:37Z</time>
      </trkpt>
      <trkpt lat="44.38357" lon="-1.14869">
        <ele>23.69</ele>
        <time>2021-07-02T19:33:38Z</time>
      </trkpt>
      <trkpt lat="44.38357" lon="-1.14869">
        <ele>23.69</ele>
        <time>2021-07-02T19:33:39Z</time>
      </trkpt>
      <trkpt lat="44.38357" lon="-1.14869">
        <ele>23.69</ele>
        <time>2021-07-02T19:33:40Z</time>
      </trkpt>
      <trkpt lat="44.38363" lon="-1.14841">
        <ele>23.21</ele>
        <time>2021-07-02T19:33:41Z</time>
      </trkpt>
      <trkpt lat="44.38359" lon="-1.14831">
        <ele>23.69</ele>
        <time>2021-07-02T19:33:42Z</time>
      </trkpt>
      <trkpt lat="44.38311" lon="-1.14725">
        <ele>25.13</ele>
        <time>2021-07-02T19:33:50Z</time>
      </trkpt>
      <trkpt lat="44.38216" lon="-1.1451">
        <ele>24.65</ele>
        <time>2021-07-02T19:34:01Z</time>
      </trkpt>
      <trkpt lat="44.38062" lon="-1.14161">
        <ele>26.09</ele>
        <time>2021-07-02T19:34:17Z</time>
      </trkpt>
      <trkpt lat="44.37908" lon="-1.13809">
        <ele>27.05</ele>
        <time>2021-07-02T19:34:31Z</time>
      </trkpt>
      <trkpt lat="44.37758" lon="-1.13468">
        <ele>27.53</ele>
        <time>2021-07-02T19:34:47Z</time>
      </trkpt>
      <trkpt lat="44.37721" lon="-1.13394">
        <ele>26.57</ele>
        <time>2021-07-02T19:34:52Z</time>
      </trkpt>
      <trkpt lat="44.37713" lon="-1.13384">
        <ele>26.57</ele>
        <time>2021-07-02T19:34:53Z</time>
      </trkpt>
      <trkpt lat="44.37706" lon="-1.13376">
        <ele>26.57</ele>
        <time>2021-07-02T19:34:54Z</time>
      </trkpt>
      <trkpt lat="44.3769" lon="-1.13369">
        <ele>26.09</ele>
        <time>2021-07-02T19:34:56Z</time>
      </trkpt>
      <trkpt lat="44.37683" lon="-1.13361">
        <ele>26.09</ele>
        <time>2021-07-02T19:34:57Z</time>
      </trkpt>
      <trkpt lat="44.37678" lon="-1.13352">
        <ele>26.09</ele>
        <time>2021-07-02T19:34:58Z</time>
      </trkpt>
      <trkpt lat="44.37677" lon="-1.1334">
        <ele>26.09</ele>
        <time>2021-07-02T19:34:59Z</time>
      </trkpt>
      <trkpt lat="44.37676" lon="-1.13331">
        <ele>26.09</ele>
        <time>2021-07-02T19:35:00Z</time>
      </trkpt>
      <trkpt lat="44.3768" lon="-1.13319">
        <ele>26.09</ele>
        <time>2021-07-02T19:35:01Z</time>
      </trkpt>
      <trkpt lat="44.37677" lon="-1.13305">
        <ele>26.57</ele>
        <time>2021-07-02T19:35:02Z</time>
      </trkpt>
      <trkpt lat="44.37674" lon="-1.13293">
        <ele>26.09</ele>
        <time>2021-07-02T19:35:03Z</time>
      </trkpt>
      <trkpt lat="44.37671" lon="-1.13279">
        <ele>26.09</ele>
        <time>2021-07-02T19:35:04Z</time>
      </trkpt>
      <trkpt lat="44.37611" lon="-1.13137">
        <ele>27.05</ele>
        <time>2021-07-02T19:35:12Z</time>
      </trkpt>
      <trkpt lat="44.37491" lon="-1.12862">
        <ele>26.57</ele>
        <time>2021-07-02T19:35:24Z</time>
      </trkpt>
      <trkpt lat="44.37263" lon="-1.1235">
        <ele>28.5</ele>
        <time>2021-07-02T19:35:44Z</time>
      </trkpt>
      <trkpt lat="44.37058" lon="-1.11856">
        <ele>28.02</ele>
        <time>2021-07-02T19:36:02Z</time>
      </trkpt>
      <trkpt lat="44.36938" lon="-1.11462">
        <ele>28.02</ele>
        <time>2021-07-02T19:36:15Z</time>
      </trkpt>
      <trkpt lat="44.36822" lon="-1.11133">
        <ele>28.02</ele>
        <time>2021-07-02T19:36:26Z</time>
      </trkpt>
      <trkpt lat="44.36636" lon="-1.10677">
        <ele>28.5</ele>
        <time>2021-07-02T19:36:43Z</time>
      </trkpt>
      <trkpt lat="44.36412" lon="-1.10134">
        <ele>29.94</ele>
        <time>2021-07-02T19:37:03Z</time>
      </trkpt>
      <trkpt lat="44.36207" lon="-1.0964">
        <ele>30.42</ele>
        <time>2021-07-02T19:37:22Z</time>
      </trkpt>
      <trkpt lat="44.36039" lon="-1.09231">
        <ele>29.46</ele>
        <time>2021-07-02T19:37:38Z</time>
      </trkpt>
      <trkpt lat="44.35971" lon="-1.09065">
        <ele>30.9</ele>
        <time>2021-07-02T19:37:48Z</time>
      </trkpt>
      <trkpt lat="44.35952" lon="-1.09029">
        <ele>30.9</ele>
        <time>2021-07-02T19:37:51Z</time>
      </trkpt>
      <trkpt lat="44.35945" lon="-1.09019">
        <ele>30.42</ele>
        <time>2021-07-02T19:37:52Z</time>
      </trkpt>
      <trkpt lat="44.3594" lon="-1.09011">
        <ele>30.42</ele>
        <time>2021-07-02T19:37:53Z</time>
      </trkpt>
      <trkpt lat="44.35936" lon="-1.09005">
        <ele>30.42</ele>
        <time>2021-07-02T19:37:54Z</time>
      </trkpt>
      <trkpt lat="44.3593" lon="-1.09005">
        <ele>30.42</ele>
        <time>2021-07-02T19:37:55Z</time>
      </trkpt>
      <trkpt lat="44.35923" lon="-1.09003">
        <ele>30.42</ele>
        <time>2021-07-02T19:37:56Z</time>
      </trkpt>
      <trkpt lat="44.35914" lon="-1.08996">
        <ele>30.42</ele>
        <time>2021-07-02T19:37:57Z</time>
      </trkpt>
      <trkpt lat="44.35909" lon="-1.0899">
        <ele>30.42</ele>
        <time>2021-07-02T19:37:58Z</time>
      </trkpt>
      <trkpt lat="44.35908" lon="-1.08975">
        <ele>30.42</ele>
        <time>2021-07-02T19:37:59Z</time>
      </trkpt>
      <trkpt lat="44.35908" lon="-1.08965">
        <ele>30.42</ele>
        <time>2021-07-02T19:38:00Z</time>
      </trkpt>
      <trkpt lat="44.35909" lon="-1.08955">
        <ele>30.42</ele>
        <time>2021-07-02T19:38:01Z</time>
      </trkpt>
      <trkpt lat="44.3591" lon="-1.08943">
        <ele>30.42</ele>
        <time>2021-07-02T19:38:02Z</time>
      </trkpt>
      <trkpt lat="44.35909" lon="-1.08931">
        <ele>30.42</ele>
        <time>2021-07-02T19:38:03Z</time>
      </trkpt>
      <trkpt lat="44.35907" lon="-1.08918">
        <ele>30.42</ele>
        <time>2021-07-02T19:38:04Z</time>
      </trkpt>
      <trkpt lat="44.35905" lon="-1.08902">
        <ele>30.42</ele>
        <time>2021-07-02T19:38:05Z</time>
      </trkpt>
      <trkpt lat="44.35898" lon="-1.08889">
        <ele>29.94</ele>
        <time>2021-07-02T19:38:06Z</time>
      </trkpt>
      <trkpt lat="44.35818" lon="-1.08701">
        <ele>28.5</ele>
        <time>2021-07-02T19:38:15Z</time>
      </trkpt>
      <trkpt lat="44.35715" lon="-1.08455">
        <ele>28.98</ele>
        <time>2021-07-02T19:38:26Z</time>
      </trkpt>
      <trkpt lat="44.3562" lon="-1.08279">
        <ele>30.42</ele>
        <time>2021-07-02T19:38:34Z</time>
      </trkpt>
      <trkpt lat="44.35513" lon="-1.08144">
        <ele>29.94</ele>
        <time>2021-07-02T19:38:45Z</time>
      </trkpt>
      <trkpt lat="44.35394" lon="-1.08031">
        <ele>27.53</ele>
        <time>2021-07-02T19:38:58Z</time>
      </trkpt>
      <trkpt lat="44.35374" lon="-1.08005">
        <ele>27.53</ele>
        <time>2021-07-02T19:39:00Z</time>
      </trkpt>
      <trkpt lat="44.3537" lon="-1.07994">
        <ele>28.02</ele>
        <time>2021-07-02T19:39:01Z</time>
      </trkpt>
      <trkpt lat="44.3537" lon="-1.07994">
        <ele>27.53</ele>
        <time>2021-07-02T19:39:02Z</time>
      </trkpt>
      <trkpt lat="44.35362" lon="-1.07974">
        <ele>27.53</ele>
        <time>2021-07-02T19:39:03Z</time>
      </trkpt>
      <trkpt lat="44.35362" lon="-1.07974">
        <ele>27.53</ele>
        <time>2021-07-02T19:39:04Z</time>
      </trkpt>
      <trkpt lat="44.35356" lon="-1.07967">
        <ele>28.02</ele>
        <time>2021-07-02T19:39:05Z</time>
      </trkpt>
      <trkpt lat="44.35349" lon="-1.07962">
        <ele>28.02</ele>
        <time>2021-07-02T19:39:06Z</time>
      </trkpt>
      <trkpt lat="44.35334" lon="-1.07956">
        <ele>28.02</ele>
        <time>2021-07-02T19:39:07Z</time>
      </trkpt>
      <trkpt lat="44.35334" lon="-1.07956">
        <ele>28.5</ele>
        <time>2021-07-02T19:39:08Z</time>
      </trkpt>
      <trkpt lat="44.35325" lon="-1.07952">
        <ele>28.98</ele>
        <time>2021-07-02T19:39:09Z</time>
      </trkpt>
      <trkpt lat="44.35315" lon="-1.07949">
        <ele>28.98</ele>
        <time>2021-07-02T19:39:10Z</time>
      </trkpt>
      <trkpt lat="44.35305" lon="-1.07944">
        <ele>28.5</ele>
        <time>2021-07-02T19:39:11Z</time>
      </trkpt>
      <trkpt lat="44.35295" lon="-1.0794">
        <ele>28.02</ele>
        <time>2021-07-02T19:39:12Z</time>
      </trkpt>
      <trkpt lat="44.35286" lon="-1.07933">
        <ele>28.02</ele>
        <time>2021-07-02T19:39:13Z</time>
      </trkpt>
      <trkpt lat="44.35172" lon="-1.07814">
        <ele>28.02</ele>
        <time>2021-07-02T19:39:24Z</time>
      </trkpt>
      <trkpt lat="44.35102" lon="-1.07668">
        <ele>28.02</ele>
        <time>2021-07-02T19:39:34Z</time>
      </trkpt>
      <trkpt lat="44.35058" lon="-1.07494">
        <ele>28.5</ele>
        <time>2021-07-02T19:39:47Z</time>
      </trkpt>
      <trkpt lat="44.35035" lon="-1.07391">
        <ele>27.53</ele>
        <time>2021-07-02T19:39:55Z</time>
      </trkpt>
      <trkpt lat="44.35033" lon="-1.07383">
        <ele>27.53</ele>
        <time>2021-07-02T19:39:56Z</time>
      </trkpt>
      <trkpt lat="44.35027" lon="-1.0738">
        <ele>27.53</ele>
        <time>2021-07-02T19:39:57Z</time>
      </trkpt>
      <trkpt lat="44.35021" lon="-1.0738">
        <ele>28.02</ele>
        <time>2021-07-02T19:39:58Z</time>
      </trkpt>
      <trkpt lat="44.35015" lon="-1.0738">
        <ele>28.02</ele>
        <time>2021-07-02T19:39:59Z</time>
      </trkpt>
      <trkpt lat="44.34932" lon="-1.07387">
        <ele>26.57</ele>
        <time>2021-07-02T19:40:11Z</time>
      </trkpt>
      <trkpt lat="44.34929" lon="-1.07388">
        <ele>26.57</ele>
        <time>2021-07-02T19:40:22Z</time>
      </trkpt>
      <trkpt lat="44.34921" lon="-1.0739">
        <ele>26.57</ele>
        <time>2021-07-02T19:40:23Z</time>
      </trkpt>
      <trkpt lat="44.34921" lon="-1.0739">
        <ele>26.57</ele>
        <time>2021-07-02T19:40:24Z</time>
      </trkpt>
      <trkpt lat="44.34921" lon="-1.07387">
        <ele>26.57</ele>
        <time>2021-07-02T19:40:25Z</time>
      </trkpt>
      <trkpt lat="44.34921" lon="-1.07379">
        <ele>26.09</ele>
        <time>2021-07-02T19:40:26Z</time>
      </trkpt>
      <trkpt lat="44.34921" lon="-1.07379">
        <ele>26.09</ele>
        <time>2021-07-02T19:40:27Z</time>
      </trkpt>
      <trkpt lat="44.34921" lon="-1.07374">
        <ele>26.09</ele>
        <time>2021-07-02T19:40:28Z</time>
      </trkpt>
      <trkpt lat="44.34921" lon="-1.07369">
        <ele>25.61</ele>
        <time>2021-07-02T19:40:29Z</time>
      </trkpt>
      <trkpt lat="44.34921" lon="-1.07362">
        <ele>25.61</ele>
        <time>2021-07-02T19:40:30Z</time>
      </trkpt>
      <trkpt lat="44.34921" lon="-1.07355">
        <ele>25.61</ele>
        <time>2021-07-02T19:40:31Z</time>
      </trkpt>
      <trkpt lat="44.34919" lon="-1.07349">
        <ele>25.13</ele>
        <time>2021-07-02T19:40:32Z</time>
      </trkpt>
      <trkpt lat="44.34912" lon="-1.07322">
        <ele>25.13</ele>
        <time>2021-07-02T19:40:39Z</time>
      </trkpt>
      <trkpt lat="44.34894" lon="-1.0726">
        <ele>23.21</ele>
        <time>2021-07-02T19:40:50Z</time>
      </trkpt>
      <trkpt lat="44.34893" lon="-1.07256">
        <ele>22.73</ele>
        <time>2021-07-02T19:40:51Z</time>
      </trkpt>
      <trkpt lat="44.34891" lon="-1.07256">
        <ele>22.73</ele>
        <time>2021-07-02T19:40:52Z</time>
      </trkpt>
      <trkpt lat="44.34878" lon="-1.07251">
        <ele>22.25</ele>
        <time>2021-07-02T19:40:55Z</time>
      </trkpt>
      <trkpt lat="44.34818" lon="-1.07221">
        <ele>25.61</ele>
        <time>2021-07-02T19:41:03Z</time>
      </trkpt>
      <trkpt lat="44.34811" lon="-1.07217">
        <ele>25.61</ele>
        <time>2021-07-02T19:41:04Z</time>
      </trkpt>
      <trkpt lat="44.34805" lon="-1.07212">
        <ele>25.61</ele>
        <time>2021-07-02T19:41:05Z</time>
      </trkpt>
      <trkpt lat="44.34788" lon="-1.07188">
        <ele>25.61</ele>
        <time>2021-07-02T19:41:11Z</time>
      </trkpt>
      <trkpt lat="44.34757" lon="-1.07135">
        <ele>24.65</ele>
        <time>2021-07-02T19:41:20Z</time>
      </trkpt>
      <trkpt lat="44.34712" lon="-1.07043">
        <ele>21.77</ele>
        <time>2021-07-02T19:41:29Z</time>
      </trkpt>
      <trkpt lat="44.34647" lon="-1.06874">
        <ele>24.65</ele>
        <time>2021-07-02T19:41:42Z</time>
      </trkpt>
      <trkpt lat="44.34609" lon="-1.06786">
        <ele>25.61</ele>
        <time>2021-07-02T19:41:52Z</time>
      </trkpt>
      <trkpt lat="44.34532" lon="-1.06596">
        <ele>25.13</ele>
        <time>2021-07-02T19:42:06Z</time>
      </trkpt>
      <trkpt lat="44.34454" lon="-1.06408">
        <ele>25.61</ele>
        <time>2021-07-02T19:42:17Z</time>
      </trkpt>
      <trkpt lat="44.34384" lon="-1.06253">
        <ele>26.57</ele>
        <time>2021-07-02T19:42:27Z</time>
      </trkpt>
      <trkpt lat="44.34371" lon="-1.06237">
        <ele>27.53</ele>
        <time>2021-07-02T19:42:29Z</time>
      </trkpt>
      <trkpt lat="44.34365" lon="-1.06229">
        <ele>27.53</ele>
        <time>2021-07-02T19:42:30Z</time>
      </trkpt>
      <trkpt lat="44.34359" lon="-1.06222">
        <ele>27.05</ele>
        <time>2021-07-02T19:42:31Z</time>
      </trkpt>
      <trkpt lat="44.34358" lon="-1.06206">
        <ele>27.05</ele>
        <time>2021-07-02T19:42:32Z</time>
      </trkpt>
      <trkpt lat="44.34356" lon="-1.06192">
        <ele>27.05</ele>
        <time>2021-07-02T19:42:33Z</time>
      </trkpt>
      <trkpt lat="44.34353" lon="-1.06179">
        <ele>27.05</ele>
        <time>2021-07-02T19:42:34Z</time>
      </trkpt>
      <trkpt lat="44.3435" lon="-1.06164">
        <ele>25.61</ele>
        <time>2021-07-02T19:42:35Z</time>
      </trkpt>
      <trkpt lat="44.34345" lon="-1.06147">
        <ele>26.09</ele>
        <time>2021-07-02T19:42:36Z</time>
      </trkpt>
      <trkpt lat="44.34294" lon="-1.06011">
        <ele>24.65</ele>
        <time>2021-07-02T19:42:43Z</time>
      </trkpt>
      <trkpt lat="44.34294" lon="-1.06011">
        <ele>24.17</ele>
        <time>2021-07-02T19:42:44Z</time>
      </trkpt>
      <trkpt lat="44.34289" lon="-1.0599">
        <ele>23.69</ele>
        <time>2021-07-02T19:42:45Z</time>
      </trkpt>
      <trkpt lat="44.34287" lon="-1.05969">
        <ele>23.21</ele>
        <time>2021-07-02T19:42:46Z</time>
      </trkpt>
      <trkpt lat="44.34286" lon="-1.05946">
        <ele>22.73</ele>
        <time>2021-07-02T19:42:47Z</time>
      </trkpt>
      <trkpt lat="44.34288" lon="-1.05902">
        <ele>23.69</ele>
        <time>2021-07-02T19:42:48Z</time>
      </trkpt>
      <trkpt lat="44.34289" lon="-1.05879">
        <ele>24.65</ele>
        <time>2021-07-02T19:42:49Z</time>
      </trkpt>
      <trkpt lat="44.34289" lon="-1.05879">
        <ele>24.65</ele>
        <time>2021-07-02T19:42:50Z</time>
      </trkpt>
      <trkpt lat="44.34293" lon="-1.05858">
        <ele>24.65</ele>
        <time>2021-07-02T19:42:51Z</time>
      </trkpt>
      <trkpt lat="44.34309" lon="-1.05729">
        <ele>25.61</ele>
        <time>2021-07-02T19:42:57Z</time>
      </trkpt>
      <trkpt lat="44.34307" lon="-1.05707">
        <ele>26.09</ele>
        <time>2021-07-02T19:42:58Z</time>
      </trkpt>
      <trkpt lat="44.34289" lon="-1.05599">
        <ele>23.21</ele>
        <time>2021-07-02T19:43:03Z</time>
      </trkpt>
      <trkpt lat="44.34285" lon="-1.05579">
        <ele>22.73</ele>
        <time>2021-07-02T19:43:04Z</time>
      </trkpt>
      <trkpt lat="44.34277" lon="-1.0556">
        <ele>23.21</ele>
        <time>2021-07-02T19:43:05Z</time>
      </trkpt>
      <trkpt lat="44.34269" lon="-1.05543">
        <ele>23.21</ele>
        <time>2021-07-02T19:43:06Z</time>
      </trkpt>
      <trkpt lat="44.34257" lon="-1.0553">
        <ele>23.21</ele>
        <time>2021-07-02T19:43:07Z</time>
      </trkpt>
      <trkpt lat="44.34244" lon="-1.05518">
        <ele>23.21</ele>
        <time>2021-07-02T19:43:08Z</time>
      </trkpt>
      <trkpt lat="44.3423" lon="-1.05507">
        <ele>22.73</ele>
        <time>2021-07-02T19:43:09Z</time>
      </trkpt>
      <trkpt lat="44.34104" lon="-1.05377">
        <ele>22.73</ele>
        <time>2021-07-02T19:43:18Z</time>
      </trkpt>
      <trkpt lat="44.33928" lon="-1.05161">
        <ele>22.25</ele>
        <time>2021-07-02T19:43:30Z</time>
      </trkpt>
      <trkpt lat="44.33855" lon="-1.05097">
        <ele>19.36</ele>
        <time>2021-07-02T19:43:35Z</time>
      </trkpt>
      <trkpt lat="44.3383" lon="-1.0508">
        <ele>18.88</ele>
        <time>2021-07-02T19:43:36Z</time>
      </trkpt>
      <trkpt lat="44.3383" lon="-1.0508">
        <ele>18.88</ele>
        <time>2021-07-02T19:43:37Z</time>
      </trkpt>
      <trkpt lat="44.33815" lon="-1.05075">
        <ele>18.4</ele>
        <time>2021-07-02T19:43:38Z</time>
      </trkpt>
      <trkpt lat="44.33799" lon="-1.05073">
        <ele>18.88</ele>
        <time>2021-07-02T19:43:39Z</time>
      </trkpt>
      <trkpt lat="44.33783" lon="-1.05076">
        <ele>19.36</ele>
        <time>2021-07-02T19:43:40Z</time>
      </trkpt>
      <trkpt lat="44.33767" lon="-1.05079">
        <ele>19.36</ele>
        <time>2021-07-02T19:43:41Z</time>
      </trkpt>
      <trkpt lat="44.33753" lon="-1.0509">
        <ele>19.84</ele>
        <time>2021-07-02T19:43:42Z</time>
      </trkpt>
      <trkpt lat="44.33737" lon="-1.05101">
        <ele>20.81</ele>
        <time>2021-07-02T19:43:43Z</time>
      </trkpt>
      <trkpt lat="44.33572" lon="-1.05235">
        <ele>22.25</ele>
        <time>2021-07-02T19:43:54Z</time>
      </trkpt>
      <trkpt lat="44.33521" lon="-1.05295">
        <ele>21.77</ele>
        <time>2021-07-02T19:43:58Z</time>
      </trkpt>
      <trkpt lat="44.33507" lon="-1.05305">
        <ele>22.73</ele>
        <time>2021-07-02T19:43:59Z</time>
      </trkpt>
      <trkpt lat="44.33495" lon="-1.05313">
        <ele>22.25</ele>
        <time>2021-07-02T19:44:00Z</time>
      </trkpt>
      <trkpt lat="44.33481" lon="-1.05317">
        <ele>21.77</ele>
        <time>2021-07-02T19:44:01Z</time>
      </trkpt>
      <trkpt lat="44.33468" lon="-1.05321">
        <ele>22.25</ele>
        <time>2021-07-02T19:44:02Z</time>
      </trkpt>
      <trkpt lat="44.33456" lon="-1.05317">
        <ele>23.21</ele>
        <time>2021-07-02T19:44:03Z</time>
      </trkpt>
      <trkpt lat="44.33441" lon="-1.05312">
        <ele>23.69</ele>
        <time>2021-07-02T19:44:04Z</time>
      </trkpt>
      <trkpt lat="44.33429" lon="-1.05306">
        <ele>24.65</ele>
        <time>2021-07-02T19:44:05Z</time>
      </trkpt>
      <trkpt lat="44.33415" lon="-1.05297">
        <ele>24.65</ele>
        <time>2021-07-02T19:44:06Z</time>
      </trkpt>
      <trkpt lat="44.33282" lon="-1.05208">
        <ele>18.88</ele>
        <time>2021-07-02T19:44:15Z</time>
      </trkpt>
      <trkpt lat="44.33048" lon="-1.05057">
        <ele>20.81</ele>
        <time>2021-07-02T19:44:28Z</time>
      </trkpt>
      <trkpt lat="44.32879" lon="-1.04873">
        <ele>25.13</ele>
        <time>2021-07-02T19:44:38Z</time>
      </trkpt>
      <trkpt lat="44.32593" lon="-1.04537">
        <ele>28.98</ele>
        <time>2021-07-02T19:44:55Z</time>
      </trkpt>
      <trkpt lat="44.32593" lon="-1.04537">
        <ele>29.46</ele>
        <time>2021-07-02T19:44:56Z</time>
      </trkpt>
      <trkpt lat="44.3258" lon="-1.04519">
        <ele>29.46</ele>
        <time>2021-07-02T19:44:57Z</time>
      </trkpt>
      <trkpt lat="44.32571" lon="-1.04496">
        <ele>29.46</ele>
        <time>2021-07-02T19:44:58Z</time>
      </trkpt>
      <trkpt lat="44.32561" lon="-1.04472">
        <ele>28.98</ele>
        <time>2021-07-02T19:44:59Z</time>
      </trkpt>
      <trkpt lat="44.32459" lon="-1.04244">
        <ele>30.9</ele>
        <time>2021-07-02T19:45:09Z</time>
      </trkpt>
      <trkpt lat="44.32243" lon="-1.03889">
        <ele>34.74</ele>
        <time>2021-07-02T19:45:25Z</time>
      </trkpt>
      <trkpt lat="44.32171" lon="-1.03781">
        <ele>32.82</ele>
        <time>2021-07-02T19:45:31Z</time>
      </trkpt>
      <trkpt lat="44.32158" lon="-1.03767">
        <ele>32.34</ele>
        <time>2021-07-02T19:45:32Z</time>
      </trkpt>
      <trkpt lat="44.32145" lon="-1.03755">
        <ele>32.34</ele>
        <time>2021-07-02T19:45:33Z</time>
      </trkpt>
      <trkpt lat="44.32128" lon="-1.03746">
        <ele>32.34</ele>
        <time>2021-07-02T19:45:34Z</time>
      </trkpt>
      <trkpt lat="44.3211" lon="-1.03737">
        <ele>32.34</ele>
        <time>2021-07-02T19:45:35Z</time>
      </trkpt>
      <trkpt lat="44.3181" lon="-1.03632">
        <ele>34.26</ele>
        <time>2021-07-02T19:45:51Z</time>
      </trkpt>
      <trkpt lat="44.31773" lon="-1.03629">
        <ele>34.74</ele>
        <time>2021-07-02T19:45:52Z</time>
      </trkpt>
      <trkpt lat="44.31773" lon="-1.03629">
        <ele>34.74</ele>
        <time>2021-07-02T19:45:53Z</time>
      </trkpt>
      <trkpt lat="44.31753" lon="-1.03629">
        <ele>35.23</ele>
        <time>2021-07-02T19:45:54Z</time>
      </trkpt>
      <trkpt lat="44.31733" lon="-1.03631">
        <ele>35.71</ele>
        <time>2021-07-02T19:45:55Z</time>
      </trkpt>
      <trkpt lat="44.31714" lon="-1.03638">
        <ele>35.71</ele>
        <time>2021-07-02T19:45:56Z</time>
      </trkpt>
      <trkpt lat="44.31696" lon="-1.03645">
        <ele>35.71</ele>
        <time>2021-07-02T19:45:57Z</time>
      </trkpt>
      <trkpt lat="44.31678" lon="-1.03657">
        <ele>34.74</ele>
        <time>2021-07-02T19:45:58Z</time>
      </trkpt>
      <trkpt lat="44.3166" lon="-1.03669">
        <ele>34.74</ele>
        <time>2021-07-02T19:45:59Z</time>
      </trkpt>
      <trkpt lat="44.31447" lon="-1.03824">
        <ele>33.3</ele>
        <time>2021-07-02T19:46:11Z</time>
      </trkpt>
      <trkpt lat="44.3138" lon="-1.03869">
        <ele>36.67</ele>
        <time>2021-07-02T19:46:15Z</time>
      </trkpt>
      <trkpt lat="44.31364" lon="-1.03876">
        <ele>36.67</ele>
        <time>2021-07-02T19:46:16Z</time>
      </trkpt>
      <trkpt lat="44.3135" lon="-1.03879">
        <ele>36.67</ele>
        <time>2021-07-02T19:46:17Z</time>
      </trkpt>
      <trkpt lat="44.31317" lon="-1.03874">
        <ele>36.19</ele>
        <time>2021-07-02T19:46:18Z</time>
      </trkpt>
      <trkpt lat="44.31299" lon="-1.03867">
        <ele>35.23</ele>
        <time>2021-07-02T19:46:19Z</time>
      </trkpt>
      <trkpt lat="44.31299" lon="-1.03867">
        <ele>34.26</ele>
        <time>2021-07-02T19:46:20Z</time>
      </trkpt>
      <trkpt lat="44.31268" lon="-1.03847">
        <ele>33.78</ele>
        <time>2021-07-02T19:46:21Z</time>
      </trkpt>
      <trkpt lat="44.31268" lon="-1.03847">
        <ele>33.3</ele>
        <time>2021-07-02T19:46:22Z</time>
      </trkpt>
      <trkpt lat="44.31027" lon="-1.03681">
        <ele>36.67</ele>
        <time>2021-07-02T19:46:35Z</time>
      </trkpt>
      <trkpt lat="44.30924" lon="-1.03579">
        <ele>38.59</ele>
        <time>2021-07-02T19:46:42Z</time>
      </trkpt>
      <trkpt lat="44.3061" lon="-1.03222">
        <ele>41.95</ele>
        <time>2021-07-02T19:47:00Z</time>
      </trkpt>
      <trkpt lat="44.30239" lon="-1.02798">
        <ele>44.84</ele>
        <time>2021-07-02T19:47:20Z</time>
      </trkpt>
      <trkpt lat="44.2972" lon="-1.02208">
        <ele>47.24</ele>
        <time>2021-07-02T19:47:45Z</time>
      </trkpt>
      <trkpt lat="44.29264" lon="-1.01686">
        <ele>48.68</ele>
        <time>2021-07-02T19:48:08Z</time>
      </trkpt>
      <trkpt lat="44.28705" lon="-1.01033">
        <ele>50.61</ele>
        <time>2021-07-02T19:48:37Z</time>
      </trkpt>
      <trkpt lat="44.2842" lon="-1.00695">
        <ele>52.05</ele>
        <time>2021-07-02T19:48:52Z</time>
      </trkpt>
      <trkpt lat="44.27968" lon="-1.00161">
        <ele>53.01</ele>
        <time>2021-07-02T19:49:16Z</time>
      </trkpt>
      <trkpt lat="44.27567" lon="-0.99689">
        <ele>54.45</ele>
        <time>2021-07-02T19:49:37Z</time>
      </trkpt>
      <trkpt lat="44.2725" lon="-0.99317">
        <ele>54.93</ele>
        <time>2021-07-02T19:49:55Z</time>
      </trkpt>
      <trkpt lat="44.27029" lon="-0.99065">
        <ele>54.45</ele>
        <time>2021-07-02T19:50:10Z</time>
      </trkpt>
      <trkpt lat="44.26918" lon="-0.99015">
        <ele>54.93</ele>
        <time>2021-07-02T19:50:16Z</time>
      </trkpt>
      <trkpt lat="44.26878" lon="-0.99012">
        <ele>55.41</ele>
        <time>2021-07-02T19:50:18Z</time>
      </trkpt>
      <trkpt lat="44.26858" lon="-0.99014">
        <ele>56.37</ele>
        <time>2021-07-02T19:50:19Z</time>
      </trkpt>
      <trkpt lat="44.26838" lon="-0.99016">
        <ele>56.37</ele>
        <time>2021-07-02T19:50:20Z</time>
      </trkpt>
      <trkpt lat="44.26818" lon="-0.99022">
        <ele>56.86</ele>
        <time>2021-07-02T19:50:21Z</time>
      </trkpt>
      <trkpt lat="44.26798" lon="-0.99029">
        <ele>57.34</ele>
        <time>2021-07-02T19:50:22Z</time>
      </trkpt>
      <trkpt lat="44.26458" lon="-0.99159">
        <ele>58.3</ele>
        <time>2021-07-02T19:50:38Z</time>
      </trkpt>
      <trkpt lat="44.26288" lon="-0.99222">
        <ele>58.3</ele>
        <time>2021-07-02T19:50:46Z</time>
      </trkpt>
      <trkpt lat="44.26269" lon="-0.99224">
        <ele>57.34</ele>
        <time>2021-07-02T19:50:47Z</time>
      </trkpt>
      <trkpt lat="44.26248" lon="-0.99223">
        <ele>56.86</ele>
        <time>2021-07-02T19:50:48Z</time>
      </trkpt>
      <trkpt lat="44.26003" lon="-0.99178">
        <ele>56.86</ele>
        <time>2021-07-02T19:50:59Z</time>
      </trkpt>
      <trkpt lat="44.25486" lon="-0.99082">
        <ele>55.89</ele>
        <time>2021-07-02T19:51:22Z</time>
      </trkpt>
      <trkpt lat="44.25122" lon="-0.99014">
        <ele>56.37</ele>
        <time>2021-07-02T19:51:39Z</time>
      </trkpt>
      <trkpt lat="44.24693" lon="-0.98933">
        <ele>54.93</ele>
        <time>2021-07-02T19:51:59Z</time>
      </trkpt>
      <trkpt lat="44.24249" lon="-0.9885">
        <ele>53.97</ele>
        <time>2021-07-02T19:52:20Z</time>
      </trkpt>
      <trkpt lat="44.23741" lon="-0.98754">
        <ele>53.49</ele>
        <time>2021-07-02T19:52:44Z</time>
      </trkpt>
      <trkpt lat="44.23413" lon="-0.98692">
        <ele>52.05</ele>
        <time>2021-07-02T19:53:00Z</time>
      </trkpt>
      <trkpt lat="44.23272" lon="-0.98666">
        <ele>51.57</ele>
        <time>2021-07-02T19:53:10Z</time>
      </trkpt>
      <trkpt lat="44.23123" lon="-0.98639">
        <ele>50.61</ele>
        <time>2021-07-02T19:53:22Z</time>
      </trkpt>
      <trkpt lat="44.23107" lon="-0.98637">
        <ele>50.61</ele>
        <time>2021-07-02T19:53:24Z</time>
      </trkpt>
      <trkpt lat="44.23101" lon="-0.98635">
        <ele>51.09</ele>
        <time>2021-07-02T19:53:25Z</time>
      </trkpt>
      <trkpt lat="44.23096" lon="-0.98635">
        <ele>51.09</ele>
        <time>2021-07-02T19:53:26Z</time>
      </trkpt>
      <trkpt lat="44.23094" lon="-0.98641">
        <ele>51.09</ele>
        <time>2021-07-02T19:53:27Z</time>
      </trkpt>
      <trkpt lat="44.23094" lon="-0.98641">
        <ele>51.57</ele>
        <time>2021-07-02T19:53:28Z</time>
      </trkpt>
      <trkpt lat="44.23093" lon="-0.98644">
        <ele>51.57</ele>
        <time>2021-07-02T19:53:29Z</time>
      </trkpt>
      <trkpt lat="44.23087" lon="-0.98651">
        <ele>51.57</ele>
        <time>2021-07-02T19:53:30Z</time>
      </trkpt>
      <trkpt lat="44.23083" lon="-0.98654">
        <ele>51.57</ele>
        <time>2021-07-02T19:53:31Z</time>
      </trkpt>
      <trkpt lat="44.23076" lon="-0.98654">
        <ele>51.57</ele>
        <time>2021-07-02T19:53:32Z</time>
      </trkpt>
      <trkpt lat="44.23071" lon="-0.98652">
        <ele>52.05</ele>
        <time>2021-07-02T19:53:33Z</time>
      </trkpt>
      <trkpt lat="44.23066" lon="-0.98649">
        <ele>52.05</ele>
        <time>2021-07-02T19:53:34Z</time>
      </trkpt>
      <trkpt lat="44.23061" lon="-0.98643">
        <ele>52.05</ele>
        <time>2021-07-02T19:53:35Z</time>
      </trkpt>
      <trkpt lat="44.23059" lon="-0.98636">
        <ele>52.05</ele>
        <time>2021-07-02T19:53:36Z</time>
      </trkpt>
      <trkpt lat="44.23058" lon="-0.98628">
        <ele>52.05</ele>
        <time>2021-07-02T19:53:37Z</time>
      </trkpt>
      <trkpt lat="44.23062" lon="-0.98617">
        <ele>52.53</ele>
        <time>2021-07-02T19:53:38Z</time>
      </trkpt>
      <trkpt lat="44.23067" lon="-0.98611">
        <ele>52.05</ele>
        <time>2021-07-02T19:53:39Z</time>
      </trkpt>
      <trkpt lat="44.23068" lon="-0.98609">
        <ele>52.05</ele>
        <time>2021-07-02T19:53:40Z</time>
      </trkpt>
      <trkpt lat="44.23079" lon="-0.98589">
        <ele>52.05</ele>
        <time>2021-07-02T19:53:41Z</time>
      </trkpt>
      <trkpt lat="44.23079" lon="-0.98576">
        <ele>53.49</ele>
        <time>2021-07-02T19:53:42Z</time>
      </trkpt>
      <trkpt lat="44.23079" lon="-0.9856">
        <ele>53.97</ele>
        <time>2021-07-02T19:53:43Z</time>
      </trkpt>
      <trkpt lat="44.23094" lon="-0.98405">
        <ele>53.49</ele>
        <time>2021-07-02T19:53:56Z</time>
      </trkpt>
      <trkpt lat="44.23106" lon="-0.98313">
        <ele>53.49</ele>
        <time>2021-07-02T19:54:07Z</time>
      </trkpt>
      <trkpt lat="44.23126" lon="-0.9817">
        <ele>52.53</ele>
        <time>2021-07-02T19:54:17Z</time>
      </trkpt>
      <trkpt lat="44.23136" lon="-0.9795">
        <ele>53.01</ele>
        <time>2021-07-02T19:54:27Z</time>
      </trkpt>
      <trkpt lat="44.231" lon="-0.97706">
        <ele>52.53</ele>
        <time>2021-07-02T19:54:38Z</time>
      </trkpt>
      <trkpt lat="44.23039" lon="-0.9731">
        <ele>53.97</ele>
        <time>2021-07-02T19:54:52Z</time>
      </trkpt>
      <trkpt lat="44.2295" lon="-0.96711">
        <ele>55.41</ele>
        <time>2021-07-02T19:55:12Z</time>
      </trkpt>
      <trkpt lat="44.22957" lon="-0.96433">
        <ele>58.3</ele>
        <time>2021-07-02T19:55:21Z</time>
      </trkpt>
      <trkpt lat="44.22974" lon="-0.95834">
        <ele>57.82</ele>
        <time>2021-07-02T19:55:40Z</time>
      </trkpt>
      <trkpt lat="44.2297" lon="-0.95803">
        <ele>58.3</ele>
        <time>2021-07-02T19:55:41Z</time>
      </trkpt>
      <trkpt lat="44.22958" lon="-0.95745">
        <ele>57.34</ele>
        <time>2021-07-02T19:55:42Z</time>
      </trkpt>
      <trkpt lat="44.22958" lon="-0.95745">
        <ele>57.34</ele>
        <time>2021-07-02T19:55:43Z</time>
      </trkpt>
      <trkpt lat="44.22949" lon="-0.95715">
        <ele>57.34</ele>
        <time>2021-07-02T19:55:44Z</time>
      </trkpt>
      <trkpt lat="44.22938" lon="-0.95688">
        <ele>56.86</ele>
        <time>2021-07-02T19:55:45Z</time>
      </trkpt>
      <trkpt lat="44.22795" lon="-0.95344">
        <ele>56.37</ele>
        <time>2021-07-02T19:55:58Z</time>
      </trkpt>
      <trkpt lat="44.22532" lon="-0.94728">
        <ele>58.3</ele>
        <time>2021-07-02T19:56:22Z</time>
      </trkpt>
      <trkpt lat="44.223" lon="-0.94182">
        <ele>62.14</ele>
        <time>2021-07-02T19:56:44Z</time>
      </trkpt>
      <trkpt lat="44.22183" lon="-0.93877">
        <ele>62.62</ele>
        <time>2021-07-02T19:56:56Z</time>
      </trkpt>
      <trkpt lat="44.22078" lon="-0.93516">
        <ele>62.14</ele>
        <time>2021-07-02T19:57:10Z</time>
      </trkpt>
      <trkpt lat="44.22021" lon="-0.93397">
        <ele>61.18</ele>
        <time>2021-07-02T19:57:17Z</time>
      </trkpt>
      <trkpt lat="44.21898" lon="-0.93265">
        <ele>59.74</ele>
        <time>2021-07-02T19:57:25Z</time>
      </trkpt>
      <trkpt lat="44.21806" lon="-0.93139">
        <ele>65.51</ele>
        <time>2021-07-02T19:57:32Z</time>
      </trkpt>
      <trkpt lat="44.21711" lon="-0.92892">
        <ele>63.58</ele>
        <time>2021-07-02T19:57:43Z</time>
      </trkpt>
      <trkpt lat="44.21669" lon="-0.92784">
        <ele>65.03</ele>
        <time>2021-07-02T19:57:50Z</time>
      </trkpt>
      <trkpt lat="44.21665" lon="-0.92773">
        <ele>65.03</ele>
        <time>2021-07-02T19:57:51Z</time>
      </trkpt>
      <trkpt lat="44.21644" lon="-0.9277">
        <ele>66.47</ele>
        <time>2021-07-02T19:57:52Z</time>
      </trkpt>
      <trkpt lat="44.21644" lon="-0.9277">
        <ele>66.95</ele>
        <time>2021-07-02T19:57:53Z</time>
      </trkpt>
      <trkpt lat="44.21638" lon="-0.92764">
        <ele>67.43</ele>
        <time>2021-07-02T19:57:54Z</time>
      </trkpt>
      <trkpt lat="44.21632" lon="-0.92754">
        <ele>68.39</ele>
        <time>2021-07-02T19:57:55Z</time>
      </trkpt>
      <trkpt lat="44.21631" lon="-0.92745">
        <ele>68.87</ele>
        <time>2021-07-02T19:57:56Z</time>
      </trkpt>
      <trkpt lat="44.2163" lon="-0.92734">
        <ele>69.83</ele>
        <time>2021-07-02T19:57:57Z</time>
      </trkpt>
      <trkpt lat="44.21627" lon="-0.92725">
        <ele>70.31</ele>
        <time>2021-07-02T19:57:58Z</time>
      </trkpt>
      <trkpt lat="44.21622" lon="-0.92717">
        <ele>70.79</ele>
        <time>2021-07-02T19:57:59Z</time>
      </trkpt>
      <trkpt lat="44.21617" lon="-0.92707">
        <ele>72.24</ele>
        <time>2021-07-02T19:58:00Z</time>
      </trkpt>
      <trkpt lat="44.21611" lon="-0.92697">
        <ele>71.76</ele>
        <time>2021-07-02T19:58:01Z</time>
      </trkpt>
      <trkpt lat="44.21527" lon="-0.92565">
        <ele>69.35</ele>
        <time>2021-07-02T19:58:11Z</time>
      </trkpt>
      <trkpt lat="44.21415" lon="-0.9241">
        <ele>62.14</ele>
        <time>2021-07-02T19:58:22Z</time>
      </trkpt>
      <trkpt lat="44.21311" lon="-0.92302">
        <ele>62.14</ele>
        <time>2021-07-02T19:58:33Z</time>
      </trkpt>
      <trkpt lat="44.21302" lon="-0.92297">
        <ele>62.62</ele>
        <time>2021-07-02T19:58:34Z</time>
      </trkpt>
      <trkpt lat="44.21291" lon="-0.9229">
        <ele>63.1</ele>
        <time>2021-07-02T19:58:35Z</time>
      </trkpt>
      <trkpt lat="44.21257" lon="-0.92275">
        <ele>65.51</ele>
        <time>2021-07-02T19:58:38Z</time>
      </trkpt>
      <trkpt lat="44.21248" lon="-0.92272">
        <ele>65.99</ele>
        <time>2021-07-02T19:58:39Z</time>
      </trkpt>
      <trkpt lat="44.21239" lon="-0.92269">
        <ele>66.95</ele>
        <time>2021-07-02T19:58:40Z</time>
      </trkpt>
      <trkpt lat="44.21234" lon="-0.92265">
        <ele>67.43</ele>
        <time>2021-07-02T19:58:41Z</time>
      </trkpt>
      <trkpt lat="44.21227" lon="-0.92254">
        <ele>66.95</ele>
        <time>2021-07-02T19:58:42Z</time>
      </trkpt>
      <trkpt lat="44.21221" lon="-0.92243">
        <ele>66.47</ele>
        <time>2021-07-02T19:58:43Z</time>
      </trkpt>
      <trkpt lat="44.21214" lon="-0.92233">
        <ele>65.99</ele>
        <time>2021-07-02T19:58:44Z</time>
      </trkpt>
      <trkpt lat="44.2121" lon="-0.92224">
        <ele>65.99</ele>
        <time>2021-07-02T19:58:45Z</time>
      </trkpt>
      <trkpt lat="44.21209" lon="-0.92215">
        <ele>65.99</ele>
        <time>2021-07-02T19:58:46Z</time>
      </trkpt>
      <trkpt lat="44.21209" lon="-0.92207">
        <ele>65.99</ele>
        <time>2021-07-02T19:58:47Z</time>
      </trkpt>
      <trkpt lat="44.21208" lon="-0.92198">
        <ele>65.51</ele>
        <time>2021-07-02T19:58:48Z</time>
      </trkpt>
      <trkpt lat="44.21208" lon="-0.92189">
        <ele>65.03</ele>
        <time>2021-07-02T19:58:49Z</time>
      </trkpt>
      <trkpt lat="44.21209" lon="-0.92181">
        <ele>64.55</ele>
        <time>2021-07-02T19:58:50Z</time>
      </trkpt>
      <trkpt lat="44.21211" lon="-0.92173">
        <ele>64.07</ele>
        <time>2021-07-02T19:58:51Z</time>
      </trkpt>
      <trkpt lat="44.21212" lon="-0.92166">
        <ele>63.58</ele>
        <time>2021-07-02T19:58:52Z</time>
      </trkpt>
      <trkpt lat="44.21213" lon="-0.92161">
        <ele>63.1</ele>
        <time>2021-07-02T19:58:53Z</time>
      </trkpt>
      <trkpt lat="44.21214" lon="-0.92156">
        <ele>62.62</ele>
        <time>2021-07-02T19:58:54Z</time>
      </trkpt>
      <trkpt lat="44.21215" lon="-0.92155">
        <ele>62.62</ele>
        <time>2021-07-02T19:58:55Z</time>
      </trkpt>
      <trkpt lat="44.21232" lon="-0.9212">
        <ele>59.74</ele>
        <time>2021-07-02T19:59:05Z</time>
      </trkpt>
      <trkpt lat="44.21235" lon="-0.92113">
        <ele>60.7</ele>
        <time>2021-07-02T19:59:06Z</time>
      </trkpt>
      <trkpt lat="44.21238" lon="-0.92104">
        <ele>61.66</ele>
        <time>2021-07-02T19:59:07Z</time>
      </trkpt>
      <trkpt lat="44.21242" lon="-0.92086">
        <ele>62.14</ele>
        <time>2021-07-02T19:59:08Z</time>
      </trkpt>
      <trkpt lat="44.21242" lon="-0.92086">
        <ele>62.62</ele>
        <time>2021-07-02T19:59:09Z</time>
      </trkpt>
      <trkpt lat="44.21242" lon="-0.92075">
        <ele>63.1</ele>
        <time>2021-07-02T19:59:10Z</time>
      </trkpt>
      <trkpt lat="44.21241" lon="-0.91986">
        <ele>64.55</ele>
        <time>2021-07-02T19:59:20Z</time>
      </trkpt>
      <trkpt lat="44.2124" lon="-0.91969">
        <ele>64.07</ele>
        <time>2021-07-02T19:59:23Z</time>
      </trkpt>
      <trkpt lat="44.2124" lon="-0.91965">
        <ele>64.07</ele>
        <time>2021-07-02T19:59:24Z</time>
      </trkpt>
      <trkpt lat="44.21232" lon="-0.91962">
        <ele>64.55</ele>
        <time>2021-07-02T19:59:25Z</time>
      </trkpt>
      <trkpt lat="44.21228" lon="-0.91962">
        <ele>64.55</ele>
        <time>2021-07-02T19:59:26Z</time>
      </trkpt>
      <trkpt lat="44.21224" lon="-0.91963">
        <ele>64.55</ele>
        <time>2021-07-02T19:59:27Z</time>
      </trkpt>
      <trkpt lat="44.2122" lon="-0.91963">
        <ele>65.51</ele>
        <time>2021-07-02T19:59:28Z</time>
      </trkpt>
      <trkpt lat="44.21213" lon="-0.91959">
        <ele>65.51</ele>
        <time>2021-07-02T19:59:29Z</time>
      </trkpt>
      <trkpt lat="44.21213" lon="-0.91954">
        <ele>65.51</ele>
        <time>2021-07-02T19:59:30Z</time>
      </trkpt>
      <trkpt lat="44.21212" lon="-0.91947">
        <ele>65.99</ele>
        <time>2021-07-02T19:59:31Z</time>
      </trkpt>
      <trkpt lat="44.21211" lon="-0.91938">
        <ele>66.47</ele>
        <time>2021-07-02T19:59:32Z</time>
      </trkpt>
      <trkpt lat="44.21203" lon="-0.9186">
        <ele>66.47</ele>
        <time>2021-07-02T19:59:41Z</time>
      </trkpt>
      <trkpt lat="44.21202" lon="-0.91848">
        <ele>66.47</ele>
        <time>2021-07-02T19:59:42Z</time>
      </trkpt>
      <trkpt lat="44.21202" lon="-0.91848">
        <ele>65.99</ele>
        <time>2021-07-02T19:59:43Z</time>
      </trkpt>
      <trkpt lat="44.21206" lon="-0.91842">
        <ele>65.51</ele>
        <time>2021-07-02T19:59:44Z</time>
      </trkpt>
      <trkpt lat="44.21216" lon="-0.91841">
        <ele>65.51</ele>
        <time>2021-07-02T19:59:45Z</time>
      </trkpt>
      <trkpt lat="44.21292" lon="-0.91832">
        <ele>65.03</ele>
        <time>2021-07-02T19:59:58Z</time>
      </trkpt>
      <trkpt lat="44.21339" lon="-0.91825">
        <ele>65.51</ele>
        <time>2021-07-02T20:00:09Z</time>
      </trkpt>
      <trkpt lat="44.21341" lon="-0.91824">
        <ele>65.51</ele>
        <time>2021-07-02T20:00:10Z</time>
      </trkpt>
      <trkpt lat="44.21343" lon="-0.91825">
        <ele>65.51</ele>
        <time>2021-07-02T20:00:11Z</time>
      </trkpt>
      <trkpt lat="44.21343" lon="-0.9183">
        <ele>65.03</ele>
        <time>2021-07-02T20:00:12Z</time>
      </trkpt>
      <trkpt lat="44.21344" lon="-0.91835">
        <ele>65.03</ele>
        <time>2021-07-02T20:00:13Z</time>
      </trkpt>
      <trkpt lat="44.21348" lon="-0.91873">
        <ele>65.03</ele>
        <time>2021-07-02T20:00:18Z</time>
      </trkpt>
      <trkpt lat="44.21348" lon="-0.91879">
        <ele>65.03</ele>
        <time>2021-07-02T20:00:19Z</time>
      </trkpt>
      <trkpt lat="44.21349" lon="-0.91885">
        <ele>66.47</ele>
        <time>2021-07-02T20:00:20Z</time>
      </trkpt>
      <trkpt lat="44.21355" lon="-0.91888">
        <ele>66.47</ele>
        <time>2021-07-02T20:00:21Z</time>
      </trkpt>
      <trkpt lat="44.21359" lon="-0.91888">
        <ele>66.47</ele>
        <time>2021-07-02T20:00:22Z</time>
      </trkpt>
      <trkpt lat="44.21363" lon="-0.91887">
        <ele>66.47</ele>
        <time>2021-07-02T20:00:23Z</time>
      </trkpt>
      <trkpt lat="44.21379" lon="-0.91886">
        <ele>66.95</ele>
        <time>2021-07-02T20:00:27Z</time>
      </trkpt>
      <trkpt lat="44.21383" lon="-0.91884">
        <ele>65.99</ele>
        <time>2021-07-02T20:00:28Z</time>
      </trkpt>
      <trkpt lat="44.21387" lon="-0.91879">
        <ele>65.03</ele>
        <time>2021-07-02T20:00:29Z</time>
      </trkpt>
      <trkpt lat="44.21391" lon="-0.91873">
        <ele>64.55</ele>
        <time>2021-07-02T20:00:30Z</time>
      </trkpt>
      <trkpt lat="44.21396" lon="-0.91866">
        <ele>64.07</ele>
        <time>2021-07-02T20:00:31Z</time>
      </trkpt>
      <trkpt lat="44.21443" lon="-0.91776">
        <ele>62.14</ele>
        <time>2021-07-02T20:00:39Z</time>
      </trkpt>
      <trkpt lat="44.21495" lon="-0.91591">
        <ele>61.18</ele>
        <time>2021-07-02T20:00:49Z</time>
      </trkpt>
      <trkpt lat="44.21523" lon="-0.91421">
        <ele>65.51</ele>
        <time>2021-07-02T20:00:57Z</time>
      </trkpt>
      <trkpt lat="44.21511" lon="-0.91264">
        <ele>65.51</ele>
        <time>2021-07-02T20:01:04Z</time>
      </trkpt>
      <trkpt lat="44.21499" lon="-0.91157">
        <ele>63.58</ele>
        <time>2021-07-02T20:01:13Z</time>
      </trkpt>
      <trkpt lat="44.21481" lon="-0.90971">
        <ele>66.47</ele>
        <time>2021-07-02T20:01:23Z</time>
      </trkpt>
      <trkpt lat="44.21443" lon="-0.90674">
        <ele>68.87</ele>
        <time>2021-07-02T20:01:36Z</time>
      </trkpt>
      <trkpt lat="44.2143" lon="-0.90588">
        <ele>68.87</ele>
        <time>2021-07-02T20:01:42Z</time>
      </trkpt>
      <trkpt lat="44.21418" lon="-0.90519">
        <ele>69.35</ele>
        <time>2021-07-02T20:01:51Z</time>
      </trkpt>
      <trkpt lat="44.21391" lon="-0.90357">
        <ele>70.31</ele>
        <time>2021-07-02T20:02:00Z</time>
      </trkpt>
      <trkpt lat="44.21348" lon="-0.90195">
        <ele>67.43</ele>
        <time>2021-07-02T20:02:09Z</time>
      </trkpt>
      <trkpt lat="44.21328" lon="-0.9016">
        <ele>66.95</ele>
        <time>2021-07-02T20:02:12Z</time>
      </trkpt>
      <trkpt lat="44.21328" lon="-0.9016">
        <ele>66.95</ele>
        <time>2021-07-02T20:02:13Z</time>
      </trkpt>
      <trkpt lat="44.2132" lon="-0.90147">
        <ele>67.43</ele>
        <time>2021-07-02T20:02:14Z</time>
      </trkpt>
      <trkpt lat="44.21313" lon="-0.90145">
        <ele>67.43</ele>
        <time>2021-07-02T20:02:16Z</time>
      </trkpt>
      <trkpt lat="44.21306" lon="-0.9014">
        <ele>67.43</ele>
        <time>2021-07-02T20:02:17Z</time>
      </trkpt>
      <trkpt lat="44.21299" lon="-0.9012">
        <ele>67.91</ele>
        <time>2021-07-02T20:02:18Z</time>
      </trkpt>
      <trkpt lat="44.21299" lon="-0.9012">
        <ele>68.39</ele>
        <time>2021-07-02T20:02:19Z</time>
      </trkpt>
      <trkpt lat="44.213" lon="-0.90098">
        <ele>68.39</ele>
        <time>2021-07-02T20:02:20Z</time>
      </trkpt>
      <trkpt lat="44.21305" lon="-0.90089">
        <ele>68.39</ele>
        <time>2021-07-02T20:02:21Z</time>
      </trkpt>
      <trkpt lat="44.21305" lon="-0.90089">
        <ele>68.39</ele>
        <time>2021-07-02T20:02:22Z</time>
      </trkpt>
      <trkpt lat="44.21311" lon="-0.90076">
        <ele>68.87</ele>
        <time>2021-07-02T20:02:23Z</time>
      </trkpt>
      <trkpt lat="44.21311" lon="-0.90065">
        <ele>68.87</ele>
        <time>2021-07-02T20:02:24Z</time>
      </trkpt>
      <trkpt lat="44.21311" lon="-0.90036">
        <ele>70.31</ele>
        <time>2021-07-02T20:02:25Z</time>
      </trkpt>
      <trkpt lat="44.21308" lon="-0.9002">
        <ele>71.27</ele>
        <time>2021-07-02T20:02:26Z</time>
      </trkpt>
      <trkpt lat="44.21278" lon="-0.89877">
        <ele>69.83</ele>
        <time>2021-07-02T20:02:34Z</time>
      </trkpt>
      <trkpt lat="44.2124" lon="-0.89668">
        <ele>71.76</ele>
        <time>2021-07-02T20:02:42Z</time>
      </trkpt>
      <trkpt lat="44.2118" lon="-0.89251">
        <ele>71.27</ele>
        <time>2021-07-02T20:02:56Z</time>
      </trkpt>
      <trkpt lat="44.2111" lon="-0.88763">
        <ele>74.16</ele>
        <time>2021-07-02T20:03:12Z</time>
      </trkpt>
      <trkpt lat="44.21097" lon="-0.88621">
        <ele>74.16</ele>
        <time>2021-07-02T20:03:17Z</time>
      </trkpt>
      <trkpt lat="44.21098" lon="-0.88592">
        <ele>73.68</ele>
        <time>2021-07-02T20:03:18Z</time>
      </trkpt>
      <trkpt lat="44.211" lon="-0.88563">
        <ele>73.68</ele>
        <time>2021-07-02T20:03:19Z</time>
      </trkpt>
      <trkpt lat="44.21105" lon="-0.88535">
        <ele>72.72</ele>
        <time>2021-07-02T20:03:20Z</time>
      </trkpt>
      <trkpt lat="44.21112" lon="-0.88506">
        <ele>72.72</ele>
        <time>2021-07-02T20:03:21Z</time>
      </trkpt>
      <trkpt lat="44.21204" lon="-0.88112">
        <ele>70.31</ele>
        <time>2021-07-02T20:03:34Z</time>
      </trkpt>
      <trkpt lat="44.21324" lon="-0.87619">
        <ele>69.35</ele>
        <time>2021-07-02T20:03:50Z</time>
      </trkpt>
      <trkpt lat="44.21448" lon="-0.87098">
        <ele>69.83</ele>
        <time>2021-07-02T20:04:08Z</time>
      </trkpt>
      <trkpt lat="44.21458" lon="-0.86927">
        <ele>71.27</ele>
        <time>2021-07-02T20:04:14Z</time>
      </trkpt>
      <trkpt lat="44.2143" lon="-0.86497">
        <ele>68.87</ele>
        <time>2021-07-02T20:04:28Z</time>
      </trkpt>
      <trkpt lat="44.21398" lon="-0.86024">
        <ele>67.91</ele>
        <time>2021-07-02T20:04:43Z</time>
      </trkpt>
      <trkpt lat="44.21364" lon="-0.85496">
        <ele>65.51</ele>
        <time>2021-07-02T20:05:00Z</time>
      </trkpt>
      <trkpt lat="44.21336" lon="-0.85048">
        <ele>63.58</ele>
        <time>2021-07-02T20:05:14Z</time>
      </trkpt>
      <trkpt lat="44.21312" lon="-0.84665">
        <ele>61.66</ele>
        <time>2021-07-02T20:05:26Z</time>
      </trkpt>
      <trkpt lat="44.21283" lon="-0.84111">
        <ele>62.14</ele>
        <time>2021-07-02T20:05:44Z</time>
      </trkpt>
      <trkpt lat="44.21263" lon="-0.83738">
        <ele>61.18</ele>
        <time>2021-07-02T20:05:57Z</time>
      </trkpt>
      <trkpt lat="44.2125" lon="-0.83487">
        <ele>61.18</ele>
        <time>2021-07-02T20:06:08Z</time>
      </trkpt>
      <trkpt lat="44.21239" lon="-0.83303">
        <ele>60.22</ele>
        <time>2021-07-02T20:06:18Z</time>
      </trkpt>
      <trkpt lat="44.21223" lon="-0.83002">
        <ele>62.14</ele>
        <time>2021-07-02T20:06:34Z</time>
      </trkpt>
      <trkpt lat="44.21204" lon="-0.82795">
        <ele>61.66</ele>
        <time>2021-07-02T20:06:46Z</time>
      </trkpt>
      <trkpt lat="44.21191" lon="-0.82741">
        <ele>62.62</ele>
        <time>2021-07-02T20:06:52Z</time>
      </trkpt>
      <trkpt lat="44.21161" lon="-0.82646">
        <ele>64.55</ele>
        <time>2021-07-02T20:07:03Z</time>
      </trkpt>
      <trkpt lat="44.21128" lon="-0.8253">
        <ele>65.51</ele>
        <time>2021-07-02T20:07:13Z</time>
      </trkpt>
      <trkpt lat="44.21126" lon="-0.82522">
        <ele>65.51</ele>
        <time>2021-07-02T20:07:14Z</time>
      </trkpt>
      <trkpt lat="44.21119" lon="-0.82521">
        <ele>65.03</ele>
        <time>2021-07-02T20:07:15Z</time>
      </trkpt>
      <trkpt lat="44.21113" lon="-0.8252">
        <ele>65.03</ele>
        <time>2021-07-02T20:07:16Z</time>
      </trkpt>
      <trkpt lat="44.21107" lon="-0.82519">
        <ele>65.03</ele>
        <time>2021-07-02T20:07:17Z</time>
      </trkpt>
      <trkpt lat="44.21028" lon="-0.8251">
        <ele>62.62</ele>
        <time>2021-07-02T20:07:25Z</time>
      </trkpt>
      <trkpt lat="44.20936" lon="-0.82491">
        <ele>65.03</ele>
        <time>2021-07-02T20:07:32Z</time>
      </trkpt>
      <trkpt lat="44.20924" lon="-0.82486">
        <ele>65.99</ele>
        <time>2021-07-02T20:07:33Z</time>
      </trkpt>
      <trkpt lat="44.20911" lon="-0.8248">
        <ele>66.47</ele>
        <time>2021-07-02T20:07:34Z</time>
      </trkpt>
      <trkpt lat="44.20793" lon="-0.82348">
        <ele>63.58</ele>
        <time>2021-07-02T20:07:43Z</time>
      </trkpt>
      <trkpt lat="44.20592" lon="-0.82086">
        <ele>64.55</ele>
        <time>2021-07-02T20:07:57Z</time>
      </trkpt>
      <trkpt lat="44.20399" lon="-0.81833">
        <ele>64.55</ele>
        <time>2021-07-02T20:08:09Z</time>
      </trkpt>
      <trkpt lat="44.20116" lon="-0.81464">
        <ele>64.55</ele>
        <time>2021-07-02T20:08:25Z</time>
      </trkpt>
      <trkpt lat="44.19811" lon="-0.81066">
        <ele>65.51</ele>
        <time>2021-07-02T20:08:42Z</time>
      </trkpt>
      <trkpt lat="44.19533" lon="-0.80701">
        <ele>65.03</ele>
        <time>2021-07-02T20:08:58Z</time>
      </trkpt>
      <trkpt lat="44.1945" lon="-0.80545">
        <ele>61.66</ele>
        <time>2021-07-02T20:09:04Z</time>
      </trkpt>
      <trkpt lat="44.19348" lon="-0.80195">
        <ele>64.55</ele>
        <time>2021-07-02T20:09:15Z</time>
      </trkpt>
      <trkpt lat="44.19186" lon="-0.79616">
        <ele>65.51</ele>
        <time>2021-07-02T20:09:33Z</time>
      </trkpt>
      <trkpt lat="44.19127" lon="-0.79339">
        <ele>64.55</ele>
        <time>2021-07-02T20:09:42Z</time>
      </trkpt>
      <trkpt lat="44.19101" lon="-0.79219">
        <ele>60.22</ele>
        <time>2021-07-02T20:09:46Z</time>
      </trkpt>
      <trkpt lat="44.19091" lon="-0.79192">
        <ele>59.74</ele>
        <time>2021-07-02T20:09:47Z</time>
      </trkpt>
      <trkpt lat="44.19078" lon="-0.79169">
        <ele>58.78</ele>
        <time>2021-07-02T20:09:48Z</time>
      </trkpt>
      <trkpt lat="44.19065" lon="-0.79147">
        <ele>57.34</ele>
        <time>2021-07-02T20:09:49Z</time>
      </trkpt>
      <trkpt lat="44.19049" lon="-0.7913">
        <ele>56.37</ele>
        <time>2021-07-02T20:09:50Z</time>
      </trkpt>
      <trkpt lat="44.19033" lon="-0.79113">
        <ele>56.37</ele>
        <time>2021-07-02T20:09:51Z</time>
      </trkpt>
      <trkpt lat="44.18834" lon="-0.78934">
        <ele>55.89</ele>
        <time>2021-07-02T20:10:02Z</time>
      </trkpt>
      <trkpt lat="44.18594" lon="-0.78716">
        <ele>63.1</ele>
        <time>2021-07-02T20:10:16Z</time>
      </trkpt>
      <trkpt lat="44.18411" lon="-0.78443">
        <ele>67.43</ele>
        <time>2021-07-02T20:10:29Z</time>
      </trkpt>
      <trkpt lat="44.18201" lon="-0.7812">
        <ele>66.47</ele>
        <time>2021-07-02T20:10:43Z</time>
      </trkpt>
      <trkpt lat="44.17846" lon="-0.77576">
        <ele>67.91</ele>
        <time>2021-07-02T20:11:05Z</time>
      </trkpt>
      <trkpt lat="44.17567" lon="-0.77146">
        <ele>65.51</ele>
        <time>2021-07-02T20:11:22Z</time>
      </trkpt>
      <trkpt lat="44.17367" lon="-0.76837">
        <ele>66.95</ele>
        <time>2021-07-02T20:11:33Z</time>
      </trkpt>
      <trkpt lat="44.17182" lon="-0.76551">
        <ele>66.47</ele>
        <time>2021-07-02T20:11:45Z</time>
      </trkpt>
      <trkpt lat="44.16904" lon="-0.76122">
        <ele>67.43</ele>
        <time>2021-07-02T20:12:02Z</time>
      </trkpt>
      <trkpt lat="44.16669" lon="-0.7576">
        <ele>66.47</ele>
        <time>2021-07-02T20:12:17Z</time>
      </trkpt>
      <trkpt lat="44.1649" lon="-0.75481">
        <ele>67.43</ele>
        <time>2021-07-02T20:12:29Z</time>
      </trkpt>
      <trkpt lat="44.16269" lon="-0.75139">
        <ele>68.87</ele>
        <time>2021-07-02T20:12:43Z</time>
      </trkpt>
      <trkpt lat="44.15944" lon="-0.7464">
        <ele>70.31</ele>
        <time>2021-07-02T20:13:03Z</time>
      </trkpt>
      <trkpt lat="44.1576" lon="-0.74375">
        <ele>71.76</ele>
        <time>2021-07-02T20:13:14Z</time>
      </trkpt>
      <trkpt lat="44.15671" lon="-0.74301">
        <ele>69.83</ele>
        <time>2021-07-02T20:13:21Z</time>
      </trkpt>
      <trkpt lat="44.15571" lon="-0.74227">
        <ele>68.87</ele>
        <time>2021-07-02T20:13:30Z</time>
      </trkpt>
      <trkpt lat="44.15566" lon="-0.74221">
        <ele>69.35</ele>
        <time>2021-07-02T20:13:31Z</time>
      </trkpt>
      <trkpt lat="44.15559" lon="-0.74212">
        <ele>69.35</ele>
        <time>2021-07-02T20:13:32Z</time>
      </trkpt>
      <trkpt lat="44.15559" lon="-0.74212">
        <ele>69.35</ele>
        <time>2021-07-02T20:13:33Z</time>
      </trkpt>
      <trkpt lat="44.15555" lon="-0.74207">
        <ele>68.87</ele>
        <time>2021-07-02T20:13:42Z</time>
      </trkpt>
      <trkpt lat="44.15548" lon="-0.74203">
        <ele>68.87</ele>
        <time>2021-07-02T20:13:47Z</time>
      </trkpt>
      <trkpt lat="44.15499" lon="-0.74179">
        <ele>68.87</ele>
        <time>2021-07-02T20:13:54Z</time>
      </trkpt>
      <trkpt lat="44.15394" lon="-0.74118">
        <ele>66.95</ele>
        <time>2021-07-02T20:14:03Z</time>
      </trkpt>
      <trkpt lat="44.152" lon="-0.74067">
        <ele>67.43</ele>
        <time>2021-07-02T20:14:18Z</time>
      </trkpt>
      <trkpt lat="44.15189" lon="-0.74064">
        <ele>68.39</ele>
        <time>2021-07-02T20:14:19Z</time>
      </trkpt>
      <trkpt lat="44.15067" lon="-0.74036">
        <ele>66.95</ele>
        <time>2021-07-02T20:14:30Z</time>
      </trkpt>
      <trkpt lat="44.14958" lon="-0.74055">
        <ele>68.39</ele>
        <time>2021-07-02T20:14:42Z</time>
      </trkpt>
      <trkpt lat="44.14895" lon="-0.74069">
        <ele>67.91</ele>
        <time>2021-07-02T20:14:49Z</time>
      </trkpt>
      <trkpt lat="44.14886" lon="-0.74071">
        <ele>67.43</ele>
        <time>2021-07-02T20:14:50Z</time>
      </trkpt>
      <trkpt lat="44.1487" lon="-0.74066">
        <ele>66.95</ele>
        <time>2021-07-02T20:14:51Z</time>
      </trkpt>
      <trkpt lat="44.1487" lon="-0.74066">
        <ele>66.47</ele>
        <time>2021-07-02T20:14:52Z</time>
      </trkpt>
      <trkpt lat="44.14864" lon="-0.74062">
        <ele>66.95</ele>
        <time>2021-07-02T20:14:53Z</time>
      </trkpt>
      <trkpt lat="44.14859" lon="-0.74055">
        <ele>66.95</ele>
        <time>2021-07-02T20:14:54Z</time>
      </trkpt>
      <trkpt lat="44.14854" lon="-0.74047">
        <ele>66.95</ele>
        <time>2021-07-02T20:14:55Z</time>
      </trkpt>
      <trkpt lat="44.14849" lon="-0.74039">
        <ele>67.43</ele>
        <time>2021-07-02T20:14:56Z</time>
      </trkpt>
      <trkpt lat="44.14797" lon="-0.7392">
        <ele>67.91</ele>
        <time>2021-07-02T20:15:07Z</time>
      </trkpt>
      <trkpt lat="44.14711" lon="-0.73704">
        <ele>67.43</ele>
        <time>2021-07-02T20:15:22Z</time>
      </trkpt>
      <trkpt lat="44.14614" lon="-0.73437">
        <ele>69.35</ele>
        <time>2021-07-02T20:15:38Z</time>
      </trkpt>
      <trkpt lat="44.14555" lon="-0.73276">
        <ele>71.27</ele>
        <time>2021-07-02T20:15:47Z</time>
      </trkpt>
      <trkpt lat="44.14488" lon="-0.7314">
        <ele>71.76</ele>
        <time>2021-07-02T20:15:55Z</time>
      </trkpt>
      <trkpt lat="44.14318" lon="-0.72914">
        <ele>73.2</ele>
        <time>2021-07-02T20:16:10Z</time>
      </trkpt>
      <trkpt lat="44.14267" lon="-0.72843">
        <ele>75.12</ele>
        <time>2021-07-02T20:16:16Z</time>
      </trkpt>
      <trkpt lat="44.14224" lon="-0.72763">
        <ele>75.12</ele>
        <time>2021-07-02T20:16:25Z</time>
      </trkpt>
      <trkpt lat="44.1417" lon="-0.72595">
        <ele>73.2</ele>
        <time>2021-07-02T20:16:34Z</time>
      </trkpt>
      <trkpt lat="44.14064" lon="-0.72297">
        <ele>73.68</ele>
        <time>2021-07-02T20:16:47Z</time>
      </trkpt>
      <trkpt lat="44.13888" lon="-0.71953">
        <ele>75.6</ele>
        <time>2021-07-02T20:17:02Z</time>
      </trkpt>
      <trkpt lat="44.13719" lon="-0.71628">
        <ele>75.6</ele>
        <time>2021-07-02T20:17:17Z</time>
      </trkpt>
      <trkpt lat="44.13624" lon="-0.71447">
        <ele>73.68</ele>
        <time>2021-07-02T20:17:27Z</time>
      </trkpt>
      <trkpt lat="44.13583" lon="-0.71387">
        <ele>74.16</ele>
        <time>2021-07-02T20:17:32Z</time>
      </trkpt>
      <trkpt lat="44.13579" lon="-0.71381">
        <ele>74.64</ele>
        <time>2021-07-02T20:17:33Z</time>
      </trkpt>
      <trkpt lat="44.13574" lon="-0.71376">
        <ele>74.64</ele>
        <time>2021-07-02T20:17:34Z</time>
      </trkpt>
      <trkpt lat="44.13571" lon="-0.71373">
        <ele>74.64</ele>
        <time>2021-07-02T20:17:35Z</time>
      </trkpt>
      <trkpt lat="44.13568" lon="-0.7137">
        <ele>74.64</ele>
        <time>2021-07-02T20:17:36Z</time>
      </trkpt>
      <trkpt lat="44.13569" lon="-0.71356">
        <ele>74.64</ele>
        <time>2021-07-02T20:17:37Z</time>
      </trkpt>
      <trkpt lat="44.13572" lon="-0.71351">
        <ele>74.16</ele>
        <time>2021-07-02T20:17:38Z</time>
      </trkpt>
      <trkpt lat="44.13579" lon="-0.71335">
        <ele>74.16</ele>
        <time>2021-07-02T20:17:40Z</time>
      </trkpt>
      <trkpt lat="44.1358" lon="-0.71327">
        <ele>74.16</ele>
        <time>2021-07-02T20:17:41Z</time>
      </trkpt>
      <trkpt lat="44.1358" lon="-0.71316">
        <ele>74.16</ele>
        <time>2021-07-02T20:17:42Z</time>
      </trkpt>
      <trkpt lat="44.13577" lon="-0.71307">
        <ele>74.16</ele>
        <time>2021-07-02T20:17:43Z</time>
      </trkpt>
      <trkpt lat="44.13574" lon="-0.71297">
        <ele>74.16</ele>
        <time>2021-07-02T20:17:44Z</time>
      </trkpt>
      <trkpt lat="44.13525" lon="-0.71168">
        <ele>72.72</ele>
        <time>2021-07-02T20:17:53Z</time>
      </trkpt>
      <trkpt lat="44.13446" lon="-0.70957">
        <ele>74.64</ele>
        <time>2021-07-02T20:18:07Z</time>
      </trkpt>
      <trkpt lat="44.1334" lon="-0.70673">
        <ele>74.16</ele>
        <time>2021-07-02T20:18:22Z</time>
      </trkpt>
      <trkpt lat="44.1323" lon="-0.70382">
        <ele>74.64</ele>
        <time>2021-07-02T20:18:35Z</time>
      </trkpt>
      <trkpt lat="44.13082" lon="-0.69989">
        <ele>75.6</ele>
        <time>2021-07-02T20:18:50Z</time>
      </trkpt>
      <trkpt lat="44.12907" lon="-0.69521">
        <ele>76.56</ele>
        <time>2021-07-02T20:19:06Z</time>
      </trkpt>
      <trkpt lat="44.12744" lon="-0.69088">
        <ele>77.52</ele>
        <time>2021-07-02T20:19:21Z</time>
      </trkpt>
      <trkpt lat="44.12547" lon="-0.68551">
        <ele>77.52</ele>
        <time>2021-07-02T20:19:40Z</time>
      </trkpt>
      <trkpt lat="44.12538" lon="-0.68521">
        <ele>77.04</ele>
        <time>2021-07-02T20:19:41Z</time>
      </trkpt>
      <trkpt lat="44.1246" lon="-0.68054">
        <ele>77.52</ele>
        <time>2021-07-02T20:19:56Z</time>
      </trkpt>
      <trkpt lat="44.1236" lon="-0.67448">
        <ele>79.93</ele>
        <time>2021-07-02T20:20:15Z</time>
      </trkpt>
      <trkpt lat="44.123" lon="-0.67049">
        <ele>86.18</ele>
        <time>2021-07-02T20:20:28Z</time>
      </trkpt>
      <trkpt lat="44.12279" lon="-0.66707">
        <ele>87.14</ele>
        <time>2021-07-02T20:20:39Z</time>
      </trkpt>
      <trkpt lat="44.12253" lon="-0.66191">
        <ele>89.06</ele>
        <time>2021-07-02T20:20:56Z</time>
      </trkpt>
      <trkpt lat="44.12249" lon="-0.66162">
        <ele>89.06</ele>
        <time>2021-07-02T20:20:57Z</time>
      </trkpt>
      <trkpt lat="44.12128" lon="-0.65672">
        <ele>86.18</ele>
        <time>2021-07-02T20:21:14Z</time>
      </trkpt>
      <trkpt lat="44.12035" lon="-0.65291">
        <ele>81.85</ele>
        <time>2021-07-02T20:21:27Z</time>
      </trkpt>
      <trkpt lat="44.11959" lon="-0.64938">
        <ele>90.5</ele>
        <time>2021-07-02T20:21:39Z</time>
      </trkpt>
      <trkpt lat="44.11888" lon="-0.64419">
        <ele>90.98</ele>
        <time>2021-07-02T20:21:56Z</time>
      </trkpt>
      <trkpt lat="44.11812" lon="-0.63836">
        <ele>91.94</ele>
        <time>2021-07-02T20:22:15Z</time>
      </trkpt>
      <trkpt lat="44.11733" lon="-0.63238">
        <ele>91.94</ele>
        <time>2021-07-02T20:22:34Z</time>
      </trkpt>
      <trkpt lat="44.11632" lon="-0.6248">
        <ele>93.87</ele>
        <time>2021-07-02T20:22:57Z</time>
      </trkpt>
      <trkpt lat="44.11508" lon="-0.61548">
        <ele>92.42</ele>
        <time>2021-07-02T20:23:25Z</time>
      </trkpt>
      <trkpt lat="44.11391" lon="-0.60667">
        <ele>89.06</ele>
        <time>2021-07-02T20:23:51Z</time>
      </trkpt>
      <trkpt lat="44.11304" lon="-0.60015">
        <ele>83.29</ele>
        <time>2021-07-02T20:24:10Z</time>
      </trkpt>
      <trkpt lat="44.11223" lon="-0.59408">
        <ele>82.33</ele>
        <time>2021-07-02T20:24:28Z</time>
      </trkpt>
      <trkpt lat="44.11164" lon="-0.58963">
        <ele>78.97</ele>
        <time>2021-07-02T20:24:42Z</time>
      </trkpt>
      <trkpt lat="44.11124" lon="-0.58667">
        <ele>77.04</ele>
        <time>2021-07-02T20:24:53Z</time>
      </trkpt>
      <trkpt lat="44.11086" lon="-0.58378">
        <ele>72.72</ele>
        <time>2021-07-02T20:25:04Z</time>
      </trkpt>
      <trkpt lat="44.11052" lon="-0.58122">
        <ele>70.31</ele>
        <time>2021-07-02T20:25:14Z</time>
      </trkpt>
      <trkpt lat="44.11012" lon="-0.57814">
        <ele>74.64</ele>
        <time>2021-07-02T20:25:26Z</time>
      </trkpt>
      <trkpt lat="44.10954" lon="-0.57388">
        <ele>80.89</ele>
        <time>2021-07-02T20:25:42Z</time>
      </trkpt>
      <trkpt lat="44.109" lon="-0.56977">
        <ele>78</ele>
        <time>2021-07-02T20:25:57Z</time>
      </trkpt>
      <trkpt lat="44.10858" lon="-0.56614">
        <ele>79.45</ele>
        <time>2021-07-02T20:26:09Z</time>
      </trkpt>
      <trkpt lat="44.10821" lon="-0.56209">
        <ele>81.85</ele>
        <time>2021-07-02T20:26:24Z</time>
      </trkpt>
      <trkpt lat="44.10783" lon="-0.55834">
        <ele>81.85</ele>
        <time>2021-07-02T20:26:37Z</time>
      </trkpt>
      <trkpt lat="44.10739" lon="-0.55529">
        <ele>78</ele>
        <time>2021-07-02T20:26:48Z</time>
      </trkpt>
      <trkpt lat="44.1068" lon="-0.55301">
        <ele>75.12</ele>
        <time>2021-07-02T20:26:58Z</time>
      </trkpt>
      <trkpt lat="44.10634" lon="-0.5513">
        <ele>76.56</ele>
        <time>2021-07-02T20:27:08Z</time>
      </trkpt>
      <trkpt lat="44.10631" lon="-0.55117">
        <ele>75.12</ele>
        <time>2021-07-02T20:27:09Z</time>
      </trkpt>
      <trkpt lat="44.10627" lon="-0.55104">
        <ele>75.6</ele>
        <time>2021-07-02T20:27:10Z</time>
      </trkpt>
      <trkpt lat="44.10588" lon="-0.54956">
        <ele>75.12</ele>
        <time>2021-07-02T20:27:20Z</time>
      </trkpt>
      <trkpt lat="44.10576" lon="-0.54924">
        <ele>75.6</ele>
        <time>2021-07-02T20:27:25Z</time>
      </trkpt>
      <trkpt lat="44.10576" lon="-0.54924">
        <ele>76.08</ele>
        <time>2021-07-02T20:27:26Z</time>
      </trkpt>
      <trkpt lat="44.10573" lon="-0.54925">
        <ele>76.08</ele>
        <time>2021-07-02T20:27:27Z</time>
      </trkpt>
      <trkpt lat="44.10571" lon="-0.54926">
        <ele>76.56</ele>
        <time>2021-07-02T20:27:28Z</time>
      </trkpt>
      <trkpt lat="44.10568" lon="-0.54926">
        <ele>77.04</ele>
        <time>2021-07-02T20:27:29Z</time>
      </trkpt>
      <trkpt lat="44.10497" lon="-0.54947">
        <ele>78</ele>
        <time>2021-07-02T20:27:44Z</time>
      </trkpt>
    </trkseg>
  </trk>
  <trk>
    <name><![CDATA[Journal actif: 2021-07-04 10:29]]></name>
    <trkseg>
      <trkpt lat="44.1046" lon="-0.5494">
        <ele>78.48</ele>
        <time>2021-07-04T12:29:15Z</time>
      </trkpt>
      <trkpt lat="44.10459" lon="-0.54953">
        <ele>78.97</ele>
        <time>2021-07-04T12:29:32Z</time>
      </trkpt>
      <trkpt lat="44.10458" lon="-0.54955">
        <ele>78.97</ele>
        <time>2021-07-04T12:29:35Z</time>
      </trkpt>
      <trkpt lat="44.1042" lon="-0.54965">
        <ele>78.97</ele>
        <time>2021-07-04T12:29:47Z</time>
      </trkpt>
      <trkpt lat="44.10362" lon="-0.54971">
        <ele>78</ele>
        <time>2021-07-04T12:29:58Z</time>
      </trkpt>
      <trkpt lat="44.10274" lon="-0.54979">
        <ele>77.04</ele>
        <time>2021-07-04T12:30:14Z</time>
      </trkpt>
      <trkpt lat="44.10258" lon="-0.54981">
        <ele>76.56</ele>
        <time>2021-07-04T12:30:21Z</time>
      </trkpt>
      <trkpt lat="44.10256" lon="-0.54981">
        <ele>76.56</ele>
        <time>2021-07-04T12:30:22Z</time>
      </trkpt>
      <trkpt lat="44.10256" lon="-0.5498">
        <ele>76.56</ele>
        <time>2021-07-04T12:30:23Z</time>
      </trkpt>
      <trkpt lat="44.10257" lon="-0.54978">
        <ele>76.56</ele>
        <time>2021-07-04T12:30:24Z</time>
      </trkpt>
      <trkpt lat="44.10259" lon="-0.54976">
        <ele>76.56</ele>
        <time>2021-07-04T12:30:25Z</time>
      </trkpt>
      <trkpt lat="44.1026" lon="-0.54973">
        <ele>76.56</ele>
        <time>2021-07-04T12:30:26Z</time>
      </trkpt>
      <trkpt lat="44.10262" lon="-0.5497">
        <ele>76.56</ele>
        <time>2021-07-04T12:30:27Z</time>
      </trkpt>
      <trkpt lat="44.10265" lon="-0.54966">
        <ele>76.56</ele>
        <time>2021-07-04T12:30:28Z</time>
      </trkpt>
      <trkpt lat="44.10267" lon="-0.54962">
        <ele>76.56</ele>
        <time>2021-07-04T12:30:29Z</time>
      </trkpt>
      <trkpt lat="44.10269" lon="-0.54958">
        <ele>76.56</ele>
        <time>2021-07-04T12:30:30Z</time>
      </trkpt>
      <trkpt lat="44.10278" lon="-0.54943">
        <ele>76.56</ele>
        <time>2021-07-04T12:30:41Z</time>
      </trkpt>
    </trkseg>
  </trk>
  <trk>
    <name><![CDATA[Journal actif: 2021-07-04 10:31]]></name>
    <trkseg>
      <trkpt lat="44.10278" lon="-0.54943">
        <ele>76.56</ele>
        <time>2021-07-04T12:31:56Z</time>
      </trkpt>
      <trkpt lat="44.10292" lon="-0.54916">
        <ele>76.56</ele>
        <time>2021-07-04T12:32:26Z</time>
      </trkpt>
      <trkpt lat="44.10303" lon="-0.5482">
        <ele>77.52</ele>
        <time>2021-07-04T12:32:38Z</time>
      </trkpt>
      <trkpt lat="44.10311" lon="-0.54668">
        <ele>78.48</ele>
        <time>2021-07-04T12:32:57Z</time>
      </trkpt>
      <trkpt lat="44.10314" lon="-0.54651">
        <ele>78.97</ele>
        <time>2021-07-04T12:32:59Z</time>
      </trkpt>
      <trkpt lat="44.10316" lon="-0.54642">
        <ele>78.97</ele>
        <time>2021-07-04T12:33:00Z</time>
      </trkpt>
      <trkpt lat="44.10318" lon="-0.54634">
        <ele>79.45</ele>
        <time>2021-07-04T12:33:01Z</time>
      </trkpt>
      <trkpt lat="44.10349" lon="-0.54539">
        <ele>80.89</ele>
        <time>2021-07-04T12:33:15Z</time>
      </trkpt>
      <trkpt lat="44.1035" lon="-0.54533">
        <ele>81.37</ele>
        <time>2021-07-04T12:33:24Z</time>
      </trkpt>
      <trkpt lat="44.10352" lon="-0.54532">
        <ele>81.37</ele>
        <time>2021-07-04T12:33:25Z</time>
      </trkpt>
      <trkpt lat="44.10356" lon="-0.54531">
        <ele>81.37</ele>
        <time>2021-07-04T12:33:26Z</time>
      </trkpt>
      <trkpt lat="44.10415" lon="-0.54512">
        <ele>76.08</ele>
        <time>2021-07-04T12:33:37Z</time>
      </trkpt>
      <trkpt lat="44.10453" lon="-0.54501">
        <ele>72.24</ele>
        <time>2021-07-04T12:33:44Z</time>
      </trkpt>
      <trkpt lat="44.10457" lon="-0.545">
        <ele>72.24</ele>
        <time>2021-07-04T12:33:45Z</time>
      </trkpt>
      <trkpt lat="44.10462" lon="-0.54499">
        <ele>72.24</ele>
        <time>2021-07-04T12:33:46Z</time>
      </trkpt>
      <trkpt lat="44.10466" lon="-0.54497">
        <ele>72.24</ele>
        <time>2021-07-04T12:33:47Z</time>
      </trkpt>
      <trkpt lat="44.10471" lon="-0.54502">
        <ele>71.76</ele>
        <time>2021-07-04T12:33:48Z</time>
      </trkpt>
      <trkpt lat="44.10472" lon="-0.54507">
        <ele>71.76</ele>
        <time>2021-07-04T12:33:49Z</time>
      </trkpt>
      <trkpt lat="44.10472" lon="-0.54513">
        <ele>71.27</ele>
        <time>2021-07-04T12:33:50Z</time>
      </trkpt>
      <trkpt lat="44.10474" lon="-0.54522">
        <ele>70.79</ele>
        <time>2021-07-04T12:33:51Z</time>
      </trkpt>
      <trkpt lat="44.10502" lon="-0.54639">
        <ele>72.72</ele>
        <time>2021-07-04T12:34:00Z</time>
      </trkpt>
      <trkpt lat="44.10552" lon="-0.54831">
        <ele>74.16</ele>
        <time>2021-07-04T12:34:12Z</time>
      </trkpt>
      <trkpt lat="44.10555" lon="-0.54844">
        <ele>74.64</ele>
        <time>2021-07-04T12:34:13Z</time>
      </trkpt>
      <trkpt lat="44.10603" lon="-0.55013">
        <ele>80.89</ele>
        <time>2021-07-04T12:34:24Z</time>
      </trkpt>
      <trkpt lat="44.10625" lon="-0.55094">
        <ele>77.52</ele>
        <time>2021-07-04T12:34:30Z</time>
      </trkpt>
      <trkpt lat="44.10627" lon="-0.55104">
        <ele>78</ele>
        <time>2021-07-04T12:34:31Z</time>
      </trkpt>
      <trkpt lat="44.10663" lon="-0.55235">
        <ele>80.89</ele>
        <time>2021-07-04T12:34:40Z</time>
      </trkpt>
      <trkpt lat="44.10714" lon="-0.5543">
        <ele>74.64</ele>
        <time>2021-07-04T12:34:52Z</time>
      </trkpt>
      <trkpt lat="44.10761" lon="-0.55648">
        <ele>75.6</ele>
        <time>2021-07-04T12:35:03Z</time>
      </trkpt>
      <trkpt lat="44.1079" lon="-0.55916">
        <ele>76.08</ele>
        <time>2021-07-04T12:35:14Z</time>
      </trkpt>
      <trkpt lat="44.10818" lon="-0.56186">
        <ele>76.08</ele>
        <time>2021-07-04T12:35:25Z</time>
      </trkpt>
      <trkpt lat="44.10846" lon="-0.56478">
        <ele>81.37</ele>
        <time>2021-07-04T12:35:35Z</time>
      </trkpt>
      <trkpt lat="44.10886" lon="-0.56863">
        <ele>85.69</ele>
        <time>2021-07-04T12:35:50Z</time>
      </trkpt>
      <trkpt lat="44.10928" lon="-0.57198">
        <ele>81.85</ele>
        <time>2021-07-04T12:36:02Z</time>
      </trkpt>
      <trkpt lat="44.1099" lon="-0.57647">
        <ele>78.48</ele>
        <time>2021-07-04T12:36:18Z</time>
      </trkpt>
      <trkpt lat="44.11051" lon="-0.58112">
        <ele>73.68</ele>
        <time>2021-07-04T12:36:34Z</time>
      </trkpt>
      <trkpt lat="44.11089" lon="-0.58401">
        <ele>73.2</ele>
        <time>2021-07-04T12:36:44Z</time>
      </trkpt>
      <trkpt lat="44.11143" lon="-0.58808">
        <ele>73.68</ele>
        <time>2021-07-04T12:36:58Z</time>
      </trkpt>
      <trkpt lat="44.11191" lon="-0.59166">
        <ele>77.52</ele>
        <time>2021-07-04T12:37:10Z</time>
      </trkpt>
      <trkpt lat="44.11254" lon="-0.59635">
        <ele>85.69</ele>
        <time>2021-07-04T12:37:25Z</time>
      </trkpt>
      <trkpt lat="44.11335" lon="-0.60246">
        <ele>88.58</ele>
        <time>2021-07-04T12:37:44Z</time>
      </trkpt>
      <trkpt lat="44.11398" lon="-0.6072">
        <ele>93.87</ele>
        <time>2021-07-04T12:37:59Z</time>
      </trkpt>
      <trkpt lat="44.11415" lon="-0.60847">
        <ele>95.31</ele>
        <time>2021-07-04T12:38:06Z</time>
      </trkpt>
      <trkpt lat="44.11452" lon="-0.61125">
        <ele>95.79</ele>
        <time>2021-07-04T12:38:17Z</time>
      </trkpt>
      <trkpt lat="44.11508" lon="-0.61546">
        <ele>97.23</ele>
        <time>2021-07-04T12:38:32Z</time>
      </trkpt>
      <trkpt lat="44.11586" lon="-0.6213">
        <ele>99.63</ele>
        <time>2021-07-04T12:38:51Z</time>
      </trkpt>
      <trkpt lat="44.11674" lon="-0.62792">
        <ele>98.19</ele>
        <time>2021-07-04T12:39:12Z</time>
      </trkpt>
      <trkpt lat="44.11746" lon="-0.63336">
        <ele>95.31</ele>
        <time>2021-07-04T12:39:30Z</time>
      </trkpt>
      <trkpt lat="44.11816" lon="-0.63871">
        <ele>93.39</ele>
        <time>2021-07-04T12:39:48Z</time>
      </trkpt>
      <trkpt lat="44.11869" lon="-0.64272">
        <ele>91.94</ele>
        <time>2021-07-04T12:40:02Z</time>
      </trkpt>
      <trkpt lat="44.1194" lon="-0.648">
        <ele>93.87</ele>
        <time>2021-07-04T12:40:21Z</time>
      </trkpt>
      <trkpt lat="44.11985" lon="-0.65092">
        <ele>93.39</ele>
        <time>2021-07-04T12:40:32Z</time>
      </trkpt>
      <trkpt lat="44.12092" lon="-0.65523">
        <ele>90.98</ele>
        <time>2021-07-04T12:40:48Z</time>
      </trkpt>
      <trkpt lat="44.12226" lon="-0.66067">
        <ele>88.58</ele>
        <time>2021-07-04T12:41:08Z</time>
      </trkpt>
      <trkpt lat="44.12259" lon="-0.66292">
        <ele>86.66</ele>
        <time>2021-07-04T12:41:16Z</time>
      </trkpt>
      <trkpt lat="44.12277" lon="-0.66651">
        <ele>86.66</ele>
        <time>2021-07-04T12:41:28Z</time>
      </trkpt>
      <trkpt lat="44.123" lon="-0.67054">
        <ele>85.21</ele>
        <time>2021-07-04T12:41:42Z</time>
      </trkpt>
      <trkpt lat="44.12344" lon="-0.67351">
        <ele>83.77</ele>
        <time>2021-07-04T12:41:52Z</time>
      </trkpt>
      <trkpt lat="44.12432" lon="-0.67888">
        <ele>84.73</ele>
        <time>2021-07-04T12:42:10Z</time>
      </trkpt>
      <trkpt lat="44.12521" lon="-0.68428">
        <ele>85.21</ele>
        <time>2021-07-04T12:42:28Z</time>
      </trkpt>
      <trkpt lat="44.12573" lon="-0.68633">
        <ele>84.73</ele>
        <time>2021-07-04T12:42:36Z</time>
      </trkpt>
      <trkpt lat="44.12722" lon="-0.6903">
        <ele>84.73</ele>
        <time>2021-07-04T12:42:51Z</time>
      </trkpt>
      <trkpt lat="44.12903" lon="-0.6951">
        <ele>82.81</ele>
        <time>2021-07-04T12:43:07Z</time>
      </trkpt>
      <trkpt lat="44.13101" lon="-0.70038">
        <ele>81.37</ele>
        <time>2021-07-04T12:43:26Z</time>
      </trkpt>
      <trkpt lat="44.13318" lon="-0.70616">
        <ele>78.97</ele>
        <time>2021-07-04T12:43:46Z</time>
      </trkpt>
      <trkpt lat="44.13518" lon="-0.71149">
        <ele>77.52</ele>
        <time>2021-07-04T12:44:05Z</time>
      </trkpt>
      <trkpt lat="44.13573" lon="-0.71295">
        <ele>77.04</ele>
        <time>2021-07-04T12:44:12Z</time>
      </trkpt>
      <trkpt lat="44.13578" lon="-0.71309">
        <ele>76.56</ele>
        <time>2021-07-04T12:44:13Z</time>
      </trkpt>
      <trkpt lat="44.13582" lon="-0.71322">
        <ele>77.52</ele>
        <time>2021-07-04T12:44:14Z</time>
      </trkpt>
      <trkpt lat="44.13586" lon="-0.71346">
        <ele>78</ele>
        <time>2021-07-04T12:44:16Z</time>
      </trkpt>
      <trkpt lat="44.1358" lon="-0.71367">
        <ele>78.48</ele>
        <time>2021-07-04T12:44:19Z</time>
      </trkpt>
      <trkpt lat="44.13579" lon="-0.71372">
        <ele>78.48</ele>
        <time>2021-07-04T12:44:20Z</time>
      </trkpt>
      <trkpt lat="44.13583" lon="-0.71387">
        <ele>78.48</ele>
        <time>2021-07-04T12:44:21Z</time>
      </trkpt>
      <trkpt lat="44.13587" lon="-0.71392">
        <ele>78.48</ele>
        <time>2021-07-04T12:44:22Z</time>
      </trkpt>
      <trkpt lat="44.13591" lon="-0.71398">
        <ele>78</ele>
        <time>2021-07-04T12:44:23Z</time>
      </trkpt>
      <trkpt lat="44.13652" lon="-0.71494">
        <ele>76.08</ele>
        <time>2021-07-04T12:44:31Z</time>
      </trkpt>
      <trkpt lat="44.13732" lon="-0.71653">
        <ele>76.56</ele>
        <time>2021-07-04T12:44:41Z</time>
      </trkpt>
      <trkpt lat="44.13869" lon="-0.71917">
        <ele>76.56</ele>
        <time>2021-07-04T12:44:53Z</time>
      </trkpt>
      <trkpt lat="44.14076" lon="-0.7232">
        <ele>75.12</ele>
        <time>2021-07-04T12:45:09Z</time>
      </trkpt>
      <trkpt lat="44.1415" lon="-0.72528">
        <ele>75.6</ele>
        <time>2021-07-04T12:45:18Z</time>
      </trkpt>
      <trkpt lat="44.14227" lon="-0.7277">
        <ele>76.56</ele>
        <time>2021-07-04T12:45:28Z</time>
      </trkpt>
      <trkpt lat="44.14235" lon="-0.72789">
        <ele>76.56</ele>
        <time>2021-07-04T12:45:29Z</time>
      </trkpt>
      <trkpt lat="44.14244" lon="-0.72809">
        <ele>76.08</ele>
        <time>2021-07-04T12:45:30Z</time>
      </trkpt>
      <trkpt lat="44.14255" lon="-0.72827">
        <ele>75.6</ele>
        <time>2021-07-04T12:45:31Z</time>
      </trkpt>
      <trkpt lat="44.14267" lon="-0.72844">
        <ele>74.64</ele>
        <time>2021-07-04T12:45:32Z</time>
      </trkpt>
      <trkpt lat="44.1428" lon="-0.72862">
        <ele>75.12</ele>
        <time>2021-07-04T12:45:33Z</time>
      </trkpt>
      <trkpt lat="44.14461" lon="-0.73103">
        <ele>73.2</ele>
        <time>2021-07-04T12:45:47Z</time>
      </trkpt>
      <trkpt lat="44.14508" lon="-0.73171">
        <ele>72.24</ele>
        <time>2021-07-04T12:45:51Z</time>
      </trkpt>
      <trkpt lat="44.14518" lon="-0.7319">
        <ele>71.76</ele>
        <time>2021-07-04T12:45:52Z</time>
      </trkpt>
      <trkpt lat="44.14555" lon="-0.73275">
        <ele>71.27</ele>
        <time>2021-07-04T12:45:57Z</time>
      </trkpt>
      <trkpt lat="44.14651" lon="-0.73538">
        <ele>71.76</ele>
        <time>2021-07-04T12:46:15Z</time>
      </trkpt>
      <trkpt lat="44.14746" lon="-0.73799">
        <ele>71.76</ele>
        <time>2021-07-04T12:46:33Z</time>
      </trkpt>
      <trkpt lat="44.14813" lon="-0.73958">
        <ele>71.76</ele>
        <time>2021-07-04T12:46:45Z</time>
      </trkpt>
      <trkpt lat="44.14851" lon="-0.74044">
        <ele>72.72</ele>
        <time>2021-07-04T12:46:53Z</time>
      </trkpt>
      <trkpt lat="44.14856" lon="-0.74051">
        <ele>74.16</ele>
        <time>2021-07-04T12:46:54Z</time>
      </trkpt>
      <trkpt lat="44.14864" lon="-0.74068">
        <ele>74.64</ele>
        <time>2021-07-04T12:46:59Z</time>
      </trkpt>
      <trkpt lat="44.14864" lon="-0.74072">
        <ele>75.12</ele>
        <time>2021-07-04T12:47:00Z</time>
      </trkpt>
      <trkpt lat="44.14863" lon="-0.74077">
        <ele>75.12</ele>
        <time>2021-07-04T12:47:01Z</time>
      </trkpt>
      <trkpt lat="44.14863" lon="-0.74083">
        <ele>75.12</ele>
        <time>2021-07-04T12:47:02Z</time>
      </trkpt>
      <trkpt lat="44.14862" lon="-0.74089">
        <ele>75.12</ele>
        <time>2021-07-04T12:47:03Z</time>
      </trkpt>
      <trkpt lat="44.14861" lon="-0.74096">
        <ele>74.64</ele>
        <time>2021-07-04T12:47:04Z</time>
      </trkpt>
      <trkpt lat="44.1486" lon="-0.74105">
        <ele>74.64</ele>
        <time>2021-07-04T12:47:05Z</time>
      </trkpt>
      <trkpt lat="44.14859" lon="-0.74116">
        <ele>74.64</ele>
        <time>2021-07-04T12:47:06Z</time>
      </trkpt>
      <trkpt lat="44.14847" lon="-0.74299">
        <ele>74.16</ele>
        <time>2021-07-04T12:47:18Z</time>
      </trkpt>
      <trkpt lat="44.14838" lon="-0.74501">
        <ele>74.64</ele>
        <time>2021-07-04T12:47:28Z</time>
      </trkpt>
      <trkpt lat="44.14858" lon="-0.74663">
        <ele>73.68</ele>
        <time>2021-07-04T12:47:36Z</time>
      </trkpt>
      <trkpt lat="44.14875" lon="-0.74751">
        <ele>72.72</ele>
        <time>2021-07-04T12:47:42Z</time>
      </trkpt>
      <trkpt lat="44.14896" lon="-0.74874">
        <ele>73.2</ele>
        <time>2021-07-04T12:47:52Z</time>
      </trkpt>
      <trkpt lat="44.14912" lon="-0.75091">
        <ele>73.2</ele>
        <time>2021-07-04T12:48:03Z</time>
      </trkpt>
      <trkpt lat="44.1493" lon="-0.75296">
        <ele>72.72</ele>
        <time>2021-07-04T12:48:11Z</time>
      </trkpt>
      <trkpt lat="44.14962" lon="-0.7572">
        <ele>71.76</ele>
        <time>2021-07-04T12:48:25Z</time>
      </trkpt>
      <trkpt lat="44.15002" lon="-0.76265">
        <ele>70.79</ele>
        <time>2021-07-04T12:48:41Z</time>
      </trkpt>
      <trkpt lat="44.15046" lon="-0.76847">
        <ele>68.87</ele>
        <time>2021-07-04T12:48:59Z</time>
      </trkpt>
      <trkpt lat="44.15088" lon="-0.77416">
        <ele>67.91</ele>
        <time>2021-07-04T12:49:15Z</time>
      </trkpt>
      <trkpt lat="44.15139" lon="-0.781">
        <ele>68.87</ele>
        <time>2021-07-04T12:49:34Z</time>
      </trkpt>
      <trkpt lat="44.15179" lon="-0.78647">
        <ele>68.87</ele>
        <time>2021-07-04T12:49:49Z</time>
      </trkpt>
      <trkpt lat="44.15206" lon="-0.79051">
        <ele>60.22</ele>
        <time>2021-07-04T12:50:03Z</time>
      </trkpt>
      <trkpt lat="44.15231" lon="-0.79439">
        <ele>64.07</ele>
        <time>2021-07-04T12:50:16Z</time>
      </trkpt>
      <trkpt lat="44.15269" lon="-0.80019">
        <ele>65.99</ele>
        <time>2021-07-04T12:50:34Z</time>
      </trkpt>
      <trkpt lat="44.15303" lon="-0.80671">
        <ele>70.31</ele>
        <time>2021-07-04T12:50:54Z</time>
      </trkpt>
      <trkpt lat="44.15271" lon="-0.81043">
        <ele>70.31</ele>
        <time>2021-07-04T12:51:05Z</time>
      </trkpt>
      <trkpt lat="44.15181" lon="-0.81944">
        <ele>73.68</ele>
        <time>2021-07-04T12:51:31Z</time>
      </trkpt>
      <trkpt lat="44.15095" lon="-0.82804">
        <ele>75.12</ele>
        <time>2021-07-04T12:51:56Z</time>
      </trkpt>
      <trkpt lat="44.15029" lon="-0.83461">
        <ele>75.6</ele>
        <time>2021-07-04T12:52:15Z</time>
      </trkpt>
      <trkpt lat="44.14912" lon="-0.84618">
        <ele>77.04</ele>
        <time>2021-07-04T12:52:48Z</time>
      </trkpt>
      <trkpt lat="44.14849" lon="-0.85245">
        <ele>77.52</ele>
        <time>2021-07-04T12:53:06Z</time>
      </trkpt>
      <trkpt lat="44.14798" lon="-0.8575">
        <ele>78.97</ele>
        <time>2021-07-04T12:53:21Z</time>
      </trkpt>
      <trkpt lat="44.1475" lon="-0.86231">
        <ele>79.45</ele>
        <time>2021-07-04T12:53:36Z</time>
      </trkpt>
      <trkpt lat="44.14703" lon="-0.86689">
        <ele>78.97</ele>
        <time>2021-07-04T12:53:51Z</time>
      </trkpt>
      <trkpt lat="44.14632" lon="-0.87334">
        <ele>79.45</ele>
        <time>2021-07-04T12:54:11Z</time>
      </trkpt>
      <trkpt lat="44.14575" lon="-0.87836">
        <ele>78.48</ele>
        <time>2021-07-04T12:54:26Z</time>
      </trkpt>
      <trkpt lat="44.14507" lon="-0.88432">
        <ele>80.89</ele>
        <time>2021-07-04T12:54:44Z</time>
      </trkpt>
      <trkpt lat="44.14497" lon="-0.88738">
        <ele>80.89</ele>
        <time>2021-07-04T12:54:53Z</time>
      </trkpt>
      <trkpt lat="44.145" lon="-0.89186">
        <ele>82.81</ele>
        <time>2021-07-04T12:55:06Z</time>
      </trkpt>
      <trkpt lat="44.14503" lon="-0.89475">
        <ele>81.37</ele>
        <time>2021-07-04T12:55:16Z</time>
      </trkpt>
      <trkpt lat="44.14505" lon="-0.89752">
        <ele>79.45</ele>
        <time>2021-07-04T12:55:27Z</time>
      </trkpt>
      <trkpt lat="44.14508" lon="-0.90096">
        <ele>78</ele>
        <time>2021-07-04T12:55:41Z</time>
      </trkpt>
      <trkpt lat="44.14512" lon="-0.90502">
        <ele>77.04</ele>
        <time>2021-07-04T12:55:56Z</time>
      </trkpt>
      <trkpt lat="44.14515" lon="-0.90857">
        <ele>77.52</ele>
        <time>2021-07-04T12:56:08Z</time>
      </trkpt>
      <trkpt lat="44.14518" lon="-0.9109">
        <ele>77.52</ele>
        <time>2021-07-04T12:56:19Z</time>
      </trkpt>
      <trkpt lat="44.14519" lon="-0.91282">
        <ele>79.45</ele>
        <time>2021-07-04T12:56:29Z</time>
      </trkpt>
      <trkpt lat="44.14519" lon="-0.91547">
        <ele>78</ele>
        <time>2021-07-04T12:56:45Z</time>
      </trkpt>
      <trkpt lat="44.14519" lon="-0.91702">
        <ele>78</ele>
        <time>2021-07-04T12:56:57Z</time>
      </trkpt>
      <trkpt lat="44.14522" lon="-0.91956">
        <ele>78</ele>
        <time>2021-07-04T12:57:11Z</time>
      </trkpt>
      <trkpt lat="44.14524" lon="-0.92025">
        <ele>79.45</ele>
        <time>2021-07-04T12:57:16Z</time>
      </trkpt>
      <trkpt lat="44.14525" lon="-0.92098">
        <ele>79.93</ele>
        <time>2021-07-04T12:57:25Z</time>
      </trkpt>
      <trkpt lat="44.14526" lon="-0.92259">
        <ele>79.45</ele>
        <time>2021-07-04T12:57:35Z</time>
      </trkpt>
      <trkpt lat="44.14528" lon="-0.92414">
        <ele>78.97</ele>
        <time>2021-07-04T12:57:43Z</time>
      </trkpt>
      <trkpt lat="44.14529" lon="-0.92505">
        <ele>77.52</ele>
        <time>2021-07-04T12:57:51Z</time>
      </trkpt>
      <trkpt lat="44.14529" lon="-0.92676">
        <ele>78.48</ele>
        <time>2021-07-04T12:58:00Z</time>
      </trkpt>
      <trkpt lat="44.14526" lon="-0.92938">
        <ele>80.41</ele>
        <time>2021-07-04T12:58:10Z</time>
      </trkpt>
      <trkpt lat="44.14519" lon="-0.93388">
        <ele>79.45</ele>
        <time>2021-07-04T12:58:25Z</time>
      </trkpt>
      <trkpt lat="44.14512" lon="-0.93826">
        <ele>78</ele>
        <time>2021-07-04T12:58:39Z</time>
      </trkpt>
      <trkpt lat="44.14501" lon="-0.94521">
        <ele>75.12</ele>
        <time>2021-07-04T12:59:01Z</time>
      </trkpt>
      <trkpt lat="44.14476" lon="-0.94921">
        <ele>75.12</ele>
        <time>2021-07-04T12:59:14Z</time>
      </trkpt>
      <trkpt lat="44.144" lon="-0.9536">
        <ele>75.12</ele>
        <time>2021-07-04T12:59:29Z</time>
      </trkpt>
      <trkpt lat="44.1439" lon="-0.95472">
        <ele>75.12</ele>
        <time>2021-07-04T12:59:33Z</time>
      </trkpt>
      <trkpt lat="44.14392" lon="-0.95528">
        <ele>74.64</ele>
        <time>2021-07-04T12:59:34Z</time>
      </trkpt>
      <trkpt lat="44.14426" lon="-0.95736">
        <ele>73.2</ele>
        <time>2021-07-04T12:59:42Z</time>
      </trkpt>
      <trkpt lat="44.14522" lon="-0.96187">
        <ele>77.52</ele>
        <time>2021-07-04T12:59:58Z</time>
      </trkpt>
      <trkpt lat="44.14585" lon="-0.96388">
        <ele>78.97</ele>
        <time>2021-07-04T13:00:07Z</time>
      </trkpt>
      <trkpt lat="44.14595" lon="-0.96423">
        <ele>78.48</ele>
        <time>2021-07-04T13:00:09Z</time>
      </trkpt>
      <trkpt lat="44.14597" lon="-0.96438">
        <ele>77.52</ele>
        <time>2021-07-04T13:00:10Z</time>
      </trkpt>
      <trkpt lat="44.14598" lon="-0.96455">
        <ele>76.56</ele>
        <time>2021-07-04T13:00:11Z</time>
      </trkpt>
      <trkpt lat="44.14598" lon="-0.9647">
        <ele>75.6</ele>
        <time>2021-07-04T13:00:12Z</time>
      </trkpt>
      <trkpt lat="44.14597" lon="-0.96487">
        <ele>74.64</ele>
        <time>2021-07-04T13:00:13Z</time>
      </trkpt>
      <trkpt lat="44.14593" lon="-0.96534">
        <ele>73.68</ele>
        <time>2021-07-04T13:00:16Z</time>
      </trkpt>
      <trkpt lat="44.14592" lon="-0.96548">
        <ele>73.2</ele>
        <time>2021-07-04T13:00:17Z</time>
      </trkpt>
      <trkpt lat="44.14592" lon="-0.9656">
        <ele>73.2</ele>
        <time>2021-07-04T13:00:18Z</time>
      </trkpt>
      <trkpt lat="44.14596" lon="-0.96567">
        <ele>73.68</ele>
        <time>2021-07-04T13:00:19Z</time>
      </trkpt>
      <trkpt lat="44.146" lon="-0.96574">
        <ele>74.64</ele>
        <time>2021-07-04T13:00:20Z</time>
      </trkpt>
      <trkpt lat="44.14604" lon="-0.96582">
        <ele>75.12</ele>
        <time>2021-07-04T13:00:21Z</time>
      </trkpt>
      <trkpt lat="44.14609" lon="-0.96588">
        <ele>75.6</ele>
        <time>2021-07-04T13:00:22Z</time>
      </trkpt>
      <trkpt lat="44.14616" lon="-0.96596">
        <ele>76.08</ele>
        <time>2021-07-04T13:00:23Z</time>
      </trkpt>
      <trkpt lat="44.1462" lon="-0.96615">
        <ele>76.56</ele>
        <time>2021-07-04T13:00:24Z</time>
      </trkpt>
      <trkpt lat="44.1462" lon="-0.96615">
        <ele>77.04</ele>
        <time>2021-07-04T13:00:25Z</time>
      </trkpt>
      <trkpt lat="44.14616" lon="-0.9663">
        <ele>77.04</ele>
        <time>2021-07-04T13:00:26Z</time>
      </trkpt>
      <trkpt lat="44.14616" lon="-0.9663">
        <ele>76.56</ele>
        <time>2021-07-04T13:00:27Z</time>
      </trkpt>
      <trkpt lat="44.14613" lon="-0.96651">
        <ele>76.56</ele>
        <time>2021-07-04T13:00:28Z</time>
      </trkpt>
      <trkpt lat="44.1462" lon="-0.96677">
        <ele>76.56</ele>
        <time>2021-07-04T13:00:29Z</time>
      </trkpt>
      <trkpt lat="44.14644" lon="-0.96826">
        <ele>79.93</ele>
        <time>2021-07-04T13:00:39Z</time>
      </trkpt>
      <trkpt lat="44.14671" lon="-0.96961">
        <ele>79.45</ele>
        <time>2021-07-04T13:00:48Z</time>
      </trkpt>
      <trkpt lat="44.14674" lon="-0.96967">
        <ele>79.93</ele>
        <time>2021-07-04T13:00:49Z</time>
      </trkpt>
      <trkpt lat="44.14674" lon="-0.96967">
        <ele>79.93</ele>
        <time>2021-07-04T13:00:50Z</time>
      </trkpt>
      <trkpt lat="44.14679" lon="-0.9697">
        <ele>79.45</ele>
        <time>2021-07-04T13:00:51Z</time>
      </trkpt>
      <trkpt lat="44.14682" lon="-0.96972">
        <ele>79.45</ele>
        <time>2021-07-04T13:00:52Z</time>
      </trkpt>
      <trkpt lat="44.14691" lon="-0.96969">
        <ele>79.45</ele>
        <time>2021-07-04T13:00:53Z</time>
      </trkpt>
      <trkpt lat="44.14698" lon="-0.96966">
        <ele>78.97</ele>
        <time>2021-07-04T13:00:54Z</time>
      </trkpt>
      <trkpt lat="44.14713" lon="-0.9696">
        <ele>78.97</ele>
        <time>2021-07-04T13:00:55Z</time>
      </trkpt>
      <trkpt lat="44.14713" lon="-0.9696">
        <ele>78.48</ele>
        <time>2021-07-04T13:00:56Z</time>
      </trkpt>
      <trkpt lat="44.14743" lon="-0.96929">
        <ele>78</ele>
        <time>2021-07-04T13:01:00Z</time>
      </trkpt>
      <trkpt lat="44.14757" lon="-0.9691">
        <ele>77.52</ele>
        <time>2021-07-04T13:01:01Z</time>
      </trkpt>
      <trkpt lat="44.14761" lon="-0.96896">
        <ele>76.56</ele>
        <time>2021-07-04T13:01:02Z</time>
      </trkpt>
      <trkpt lat="44.14761" lon="-0.96896">
        <ele>73.68</ele>
        <time>2021-07-04T13:01:03Z</time>
      </trkpt>
      <trkpt lat="44.14766" lon="-0.96882">
        <ele>72.24</ele>
        <time>2021-07-04T13:01:04Z</time>
      </trkpt>
      <trkpt lat="44.1477" lon="-0.96868">
        <ele>71.27</ele>
        <time>2021-07-04T13:01:05Z</time>
      </trkpt>
      <trkpt lat="44.14766" lon="-0.96855">
        <ele>70.79</ele>
        <time>2021-07-04T13:01:06Z</time>
      </trkpt>
      <trkpt lat="44.14762" lon="-0.96843">
        <ele>71.27</ele>
        <time>2021-07-04T13:01:07Z</time>
      </trkpt>
      <trkpt lat="44.14758" lon="-0.9683">
        <ele>72.72</ele>
        <time>2021-07-04T13:01:08Z</time>
      </trkpt>
      <trkpt lat="44.14755" lon="-0.96819">
        <ele>72.24</ele>
        <time>2021-07-04T13:01:09Z</time>
      </trkpt>
      <trkpt lat="44.14747" lon="-0.96811">
        <ele>71.27</ele>
        <time>2021-07-04T13:01:10Z</time>
      </trkpt>
      <trkpt lat="44.14738" lon="-0.96802">
        <ele>69.83</ele>
        <time>2021-07-04T13:01:11Z</time>
      </trkpt>
      <trkpt lat="44.1473" lon="-0.96794">
        <ele>68.87</ele>
        <time>2021-07-04T13:01:12Z</time>
      </trkpt>
      <trkpt lat="44.14719" lon="-0.96789">
        <ele>68.87</ele>
        <time>2021-07-04T13:01:13Z</time>
      </trkpt>
      <trkpt lat="44.14709" lon="-0.96787">
        <ele>68.39</ele>
        <time>2021-07-04T13:01:14Z</time>
      </trkpt>
      <trkpt lat="44.14698" lon="-0.96789">
        <ele>67.91</ele>
        <time>2021-07-04T13:01:15Z</time>
      </trkpt>
      <trkpt lat="44.14686" lon="-0.96794">
        <ele>68.87</ele>
        <time>2021-07-04T13:01:16Z</time>
      </trkpt>
      <trkpt lat="44.14674" lon="-0.96801">
        <ele>69.35</ele>
        <time>2021-07-04T13:01:17Z</time>
      </trkpt>
      <trkpt lat="44.14662" lon="-0.96807">
        <ele>68.87</ele>
        <time>2021-07-04T13:01:18Z</time>
      </trkpt>
      <trkpt lat="44.14517" lon="-0.96935">
        <ele>70.79</ele>
        <time>2021-07-04T13:01:27Z</time>
      </trkpt>
      <trkpt lat="44.14321" lon="-0.97066">
        <ele>72.24</ele>
        <time>2021-07-04T13:01:38Z</time>
      </trkpt>
      <trkpt lat="44.14089" lon="-0.97241">
        <ele>76.56</ele>
        <time>2021-07-04T13:01:49Z</time>
      </trkpt>
      <trkpt lat="44.1384" lon="-0.97516">
        <ele>74.64</ele>
        <time>2021-07-04T13:02:01Z</time>
      </trkpt>
      <trkpt lat="44.13512" lon="-0.97867">
        <ele>75.6</ele>
        <time>2021-07-04T13:02:16Z</time>
      </trkpt>
      <trkpt lat="44.13279" lon="-0.98026">
        <ele>75.12</ele>
        <time>2021-07-04T13:02:25Z</time>
      </trkpt>
      <trkpt lat="44.12942" lon="-0.98183">
        <ele>74.16</ele>
        <time>2021-07-04T13:02:37Z</time>
      </trkpt>
      <trkpt lat="44.12091" lon="-0.98553">
        <ele>75.12</ele>
        <time>2021-07-04T13:03:07Z</time>
      </trkpt>
      <trkpt lat="44.112" lon="-0.98942">
        <ele>74.64</ele>
        <time>2021-07-04T13:03:39Z</time>
      </trkpt>
      <trkpt lat="44.10472" lon="-0.99259">
        <ele>74.16</ele>
        <time>2021-07-04T13:04:04Z</time>
      </trkpt>
      <trkpt lat="44.09633" lon="-0.99624">
        <ele>72.24</ele>
        <time>2021-07-04T13:04:35Z</time>
      </trkpt>
      <trkpt lat="44.08804" lon="-0.99985">
        <ele>67.43</ele>
        <time>2021-07-04T13:05:05Z</time>
      </trkpt>
      <trkpt lat="44.08296" lon="-1.00204">
        <ele>69.35</ele>
        <time>2021-07-04T13:05:23Z</time>
      </trkpt>
      <trkpt lat="44.07635" lon="-1.00484">
        <ele>65.51</ele>
        <time>2021-07-04T13:05:46Z</time>
      </trkpt>
      <trkpt lat="44.07339" lon="-1.00545">
        <ele>67.43</ele>
        <time>2021-07-04T13:05:56Z</time>
      </trkpt>
      <trkpt lat="44.06839" lon="-1.00578">
        <ele>65.99</ele>
        <time>2021-07-04T13:06:13Z</time>
      </trkpt>
      <trkpt lat="44.06431" lon="-1.00588">
        <ele>69.83</ele>
        <time>2021-07-04T13:06:28Z</time>
      </trkpt>
      <trkpt lat="44.0599" lon="-1.00514">
        <ele>70.31</ele>
        <time>2021-07-04T13:06:44Z</time>
      </trkpt>
      <trkpt lat="44.05709" lon="-1.00503">
        <ele>69.35</ele>
        <time>2021-07-04T13:06:54Z</time>
      </trkpt>
      <trkpt lat="44.05487" lon="-1.00568">
        <ele>71.27</ele>
        <time>2021-07-04T13:07:02Z</time>
      </trkpt>
      <trkpt lat="44.05193" lon="-1.00738">
        <ele>69.83</ele>
        <time>2021-07-04T13:07:13Z</time>
      </trkpt>
      <trkpt lat="44.04483" lon="-1.01159">
        <ele>67.91</ele>
        <time>2021-07-04T13:07:39Z</time>
      </trkpt>
      <trkpt lat="44.03851" lon="-1.01534">
        <ele>73.2</ele>
        <time>2021-07-04T13:08:02Z</time>
      </trkpt>
      <trkpt lat="44.03544" lon="-1.01683">
        <ele>76.08</ele>
        <time>2021-07-04T13:08:13Z</time>
      </trkpt>
      <trkpt lat="44.03278" lon="-1.01717">
        <ele>75.12</ele>
        <time>2021-07-04T13:08:21Z</time>
      </trkpt>
      <trkpt lat="44.03065" lon="-1.01679">
        <ele>76.56</ele>
        <time>2021-07-04T13:08:29Z</time>
      </trkpt>
      <trkpt lat="44.02515" lon="-1.0155">
        <ele>78.48</ele>
        <time>2021-07-04T13:08:48Z</time>
      </trkpt>
      <trkpt lat="44.02281" lon="-1.0154">
        <ele>80.89</ele>
        <time>2021-07-04T13:08:56Z</time>
      </trkpt>
      <trkpt lat="44.0205" lon="-1.016">
        <ele>82.81</ele>
        <time>2021-07-04T13:09:04Z</time>
      </trkpt>
      <trkpt lat="44.01835" lon="-1.01726">
        <ele>83.77</ele>
        <time>2021-07-04T13:09:12Z</time>
      </trkpt>
      <trkpt lat="44.01591" lon="-1.01961">
        <ele>83.77</ele>
        <time>2021-07-04T13:09:22Z</time>
      </trkpt>
      <trkpt lat="44.01231" lon="-1.02274">
        <ele>84.73</ele>
        <time>2021-07-04T13:09:36Z</time>
      </trkpt>
      <trkpt lat="44.00476" lon="-1.02911">
        <ele>85.21</ele>
        <time>2021-07-04T13:10:05Z</time>
      </trkpt>
      <trkpt lat="43.99953" lon="-1.03353">
        <ele>86.66</ele>
        <time>2021-07-04T13:10:25Z</time>
      </trkpt>
      <trkpt lat="43.9928" lon="-1.03921">
        <ele>84.25</ele>
        <time>2021-07-04T13:10:51Z</time>
      </trkpt>
      <trkpt lat="43.98624" lon="-1.0447">
        <ele>86.18</ele>
        <time>2021-07-04T13:11:15Z</time>
      </trkpt>
      <trkpt lat="43.97993" lon="-1.0501">
        <ele>85.21</ele>
        <time>2021-07-04T13:11:40Z</time>
      </trkpt>
      <trkpt lat="43.97807" lon="-1.05237">
        <ele>84.25</ele>
        <time>2021-07-04T13:11:48Z</time>
      </trkpt>
      <trkpt lat="43.97664" lon="-1.05517">
        <ele>83.29</ele>
        <time>2021-07-04T13:11:56Z</time>
      </trkpt>
      <trkpt lat="43.97461" lon="-1.05948">
        <ele>83.29</ele>
        <time>2021-07-04T13:12:08Z</time>
      </trkpt>
      <trkpt lat="43.97252" lon="-1.06197">
        <ele>82.33</ele>
        <time>2021-07-04T13:12:16Z</time>
      </trkpt>
      <trkpt lat="43.97039" lon="-1.06353">
        <ele>82.81</ele>
        <time>2021-07-04T13:12:24Z</time>
      </trkpt>
      <trkpt lat="43.96837" lon="-1.06431">
        <ele>81.85</ele>
        <time>2021-07-04T13:12:32Z</time>
      </trkpt>
      <trkpt lat="43.96595" lon="-1.06459">
        <ele>79.93</ele>
        <time>2021-07-04T13:12:40Z</time>
      </trkpt>
      <trkpt lat="43.95979" lon="-1.0649">
        <ele>79.45</ele>
        <time>2021-07-04T13:13:00Z</time>
      </trkpt>
      <trkpt lat="43.95739" lon="-1.06573">
        <ele>82.33</ele>
        <time>2021-07-04T13:13:08Z</time>
      </trkpt>
      <trkpt lat="43.95517" lon="-1.0673">
        <ele>79.45</ele>
        <time>2021-07-04T13:13:16Z</time>
      </trkpt>
      <trkpt lat="43.95327" lon="-1.06952">
        <ele>78.48</ele>
        <time>2021-07-04T13:13:24Z</time>
      </trkpt>
      <trkpt lat="43.94631" lon="-1.07898">
        <ele>80.41</ele>
        <time>2021-07-04T13:13:55Z</time>
      </trkpt>
      <trkpt lat="43.93945" lon="-1.08838">
        <ele>78</ele>
        <time>2021-07-04T13:14:26Z</time>
      </trkpt>
      <trkpt lat="43.93351" lon="-1.09651">
        <ele>72.24</ele>
        <time>2021-07-04T13:14:53Z</time>
      </trkpt>
      <trkpt lat="43.92869" lon="-1.10311">
        <ele>71.76</ele>
        <time>2021-07-04T13:15:15Z</time>
      </trkpt>
      <trkpt lat="43.92233" lon="-1.11183">
        <ele>70.31</ele>
        <time>2021-07-04T13:15:44Z</time>
      </trkpt>
      <trkpt lat="43.91857" lon="-1.11635">
        <ele>69.35</ele>
        <time>2021-07-04T13:15:59Z</time>
      </trkpt>
      <trkpt lat="43.91586" lon="-1.11845">
        <ele>68.39</ele>
        <time>2021-07-04T13:16:10Z</time>
      </trkpt>
      <trkpt lat="43.90953" lon="-1.12325">
        <ele>64.55</ele>
        <time>2021-07-04T13:16:34Z</time>
      </trkpt>
      <trkpt lat="43.90249" lon="-1.12858">
        <ele>62.62</ele>
        <time>2021-07-04T13:17:01Z</time>
      </trkpt>
      <trkpt lat="43.8974" lon="-1.13247">
        <ele>59.26</ele>
        <time>2021-07-04T13:17:20Z</time>
      </trkpt>
      <trkpt lat="43.89486" lon="-1.13394">
        <ele>56.86</ele>
        <time>2021-07-04T13:17:29Z</time>
      </trkpt>
      <trkpt lat="43.89248" lon="-1.13445">
        <ele>55.41</ele>
        <time>2021-07-04T13:17:37Z</time>
      </trkpt>
      <trkpt lat="43.89004" lon="-1.13427">
        <ele>53.97</ele>
        <time>2021-07-04T13:17:45Z</time>
      </trkpt>
      <trkpt lat="43.88774" lon="-1.13342">
        <ele>50.13</ele>
        <time>2021-07-04T13:17:53Z</time>
      </trkpt>
      <trkpt lat="43.8836" lon="-1.13156">
        <ele>49.16</ele>
        <time>2021-07-04T13:18:07Z</time>
      </trkpt>
      <trkpt lat="43.88159" lon="-1.1311">
        <ele>50.13</ele>
        <time>2021-07-04T13:18:15Z</time>
      </trkpt>
      <trkpt lat="43.87904" lon="-1.13136">
        <ele>49.65</ele>
        <time>2021-07-04T13:18:23Z</time>
      </trkpt>
      <trkpt lat="43.8771" lon="-1.13208">
        <ele>51.57</ele>
        <time>2021-07-04T13:18:31Z</time>
      </trkpt>
      <trkpt lat="43.87512" lon="-1.13354">
        <ele>49.65</ele>
        <time>2021-07-04T13:18:39Z</time>
      </trkpt>
      <trkpt lat="43.87342" lon="-1.13543">
        <ele>52.05</ele>
        <time>2021-07-04T13:18:47Z</time>
      </trkpt>
      <trkpt lat="43.87189" lon="-1.13808">
        <ele>57.82</ele>
        <time>2021-07-04T13:18:55Z</time>
      </trkpt>
      <trkpt lat="43.87094" lon="-1.14078">
        <ele>60.7</ele>
        <time>2021-07-04T13:19:04Z</time>
      </trkpt>
      <trkpt lat="43.87029" lon="-1.14412">
        <ele>60.22</ele>
        <time>2021-07-04T13:19:13Z</time>
      </trkpt>
      <trkpt lat="43.86922" lon="-1.15171">
        <ele>62.14</ele>
        <time>2021-07-04T13:19:33Z</time>
      </trkpt>
      <trkpt lat="43.86821" lon="-1.15502">
        <ele>63.58</ele>
        <time>2021-07-04T13:19:41Z</time>
      </trkpt>
      <trkpt lat="43.86699" lon="-1.15736">
        <ele>65.03</ele>
        <time>2021-07-04T13:19:49Z</time>
      </trkpt>
      <trkpt lat="43.86524" lon="-1.1596">
        <ele>64.07</ele>
        <time>2021-07-04T13:19:57Z</time>
      </trkpt>
      <trkpt lat="43.86292" lon="-1.1615">
        <ele>63.58</ele>
        <time>2021-07-04T13:20:06Z</time>
      </trkpt>
      <trkpt lat="43.8577" lon="-1.16524">
        <ele>70.31</ele>
        <time>2021-07-04T13:20:25Z</time>
      </trkpt>
      <trkpt lat="43.85047" lon="-1.17012">
        <ele>70.79</ele>
        <time>2021-07-04T13:20:51Z</time>
      </trkpt>
      <trkpt lat="43.84507" lon="-1.17376">
        <ele>67.91</ele>
        <time>2021-07-04T13:21:11Z</time>
      </trkpt>
      <trkpt lat="43.84235" lon="-1.17557">
        <ele>68.39</ele>
        <time>2021-07-04T13:21:22Z</time>
      </trkpt>
      <trkpt lat="43.83863" lon="-1.1781">
        <ele>68.87</ele>
        <time>2021-07-04T13:21:38Z</time>
      </trkpt>
      <trkpt lat="43.83699" lon="-1.17922">
        <ele>69.35</ele>
        <time>2021-07-04T13:21:48Z</time>
      </trkpt>
      <trkpt lat="43.83554" lon="-1.18021">
        <ele>68.87</ele>
        <time>2021-07-04T13:21:58Z</time>
      </trkpt>
      <trkpt lat="43.83524" lon="-1.18042">
        <ele>69.35</ele>
        <time>2021-07-04T13:22:04Z</time>
      </trkpt>
      <trkpt lat="43.83513" lon="-1.18049">
        <ele>69.83</ele>
        <time>2021-07-04T13:22:14Z</time>
      </trkpt>
      <trkpt lat="43.83472" lon="-1.18075">
        <ele>68.87</ele>
        <time>2021-07-04T13:22:21Z</time>
      </trkpt>
      <trkpt lat="43.83377" lon="-1.18139">
        <ele>67.91</ele>
        <time>2021-07-04T13:22:29Z</time>
      </trkpt>
      <trkpt lat="43.83233" lon="-1.18237">
        <ele>67.91</ele>
        <time>2021-07-04T13:22:38Z</time>
      </trkpt>
      <trkpt lat="43.82965" lon="-1.18418">
        <ele>66.95</ele>
        <time>2021-07-04T13:22:51Z</time>
      </trkpt>
      <trkpt lat="43.82609" lon="-1.18658">
        <ele>65.51</ele>
        <time>2021-07-04T13:23:06Z</time>
      </trkpt>
      <trkpt lat="43.82081" lon="-1.19014">
        <ele>63.1</ele>
        <time>2021-07-04T13:23:27Z</time>
      </trkpt>
      <trkpt lat="43.8154" lon="-1.19379">
        <ele>59.26</ele>
        <time>2021-07-04T13:23:48Z</time>
      </trkpt>
      <trkpt lat="43.80774" lon="-1.19899">
        <ele>51.57</ele>
        <time>2021-07-04T13:24:17Z</time>
      </trkpt>
      <trkpt lat="43.80126" lon="-1.20331">
        <ele>46.76</ele>
        <time>2021-07-04T13:24:41Z</time>
      </trkpt>
      <trkpt lat="43.79356" lon="-1.20843">
        <ele>40.03</ele>
        <time>2021-07-04T13:25:09Z</time>
      </trkpt>
      <trkpt lat="43.79117" lon="-1.2093">
        <ele>34.74</ele>
        <time>2021-07-04T13:25:17Z</time>
      </trkpt>
      <trkpt lat="43.78865" lon="-1.20949">
        <ele>32.82</ele>
        <time>2021-07-04T13:25:25Z</time>
      </trkpt>
      <trkpt lat="43.78463" lon="-1.20941">
        <ele>28.98</ele>
        <time>2021-07-04T13:25:38Z</time>
      </trkpt>
      <trkpt lat="43.78194" lon="-1.21022">
        <ele>28.02</ele>
        <time>2021-07-04T13:25:46Z</time>
      </trkpt>
      <trkpt lat="43.7783" lon="-1.21159">
        <ele>32.82</ele>
        <time>2021-07-04T13:26:00Z</time>
      </trkpt>
      <trkpt lat="43.77656" lon="-1.21284">
        <ele>33.78</ele>
        <time>2021-07-04T13:26:07Z</time>
      </trkpt>
      <trkpt lat="43.77476" lon="-1.21487">
        <ele>31.86</ele>
        <time>2021-07-04T13:26:15Z</time>
      </trkpt>
      <trkpt lat="43.7722" lon="-1.21778">
        <ele>34.74</ele>
        <time>2021-07-04T13:26:26Z</time>
      </trkpt>
      <trkpt lat="43.77024" lon="-1.21915">
        <ele>40.03</ele>
        <time>2021-07-04T13:26:33Z</time>
      </trkpt>
      <trkpt lat="43.76751" lon="-1.22009">
        <ele>38.59</ele>
        <time>2021-07-04T13:26:41Z</time>
      </trkpt>
      <trkpt lat="43.75817" lon="-1.22216">
        <ele>36.67</ele>
        <time>2021-07-04T13:27:11Z</time>
      </trkpt>
      <trkpt lat="43.75018" lon="-1.22394">
        <ele>41.95</ele>
        <time>2021-07-04T13:27:37Z</time>
      </trkpt>
      <trkpt lat="43.74344" lon="-1.22544">
        <ele>44.84</ele>
        <time>2021-07-04T13:28:00Z</time>
      </trkpt>
      <trkpt lat="43.7383" lon="-1.22658">
        <ele>51.09</ele>
        <time>2021-07-04T13:28:17Z</time>
      </trkpt>
      <trkpt lat="43.734" lon="-1.22691">
        <ele>49.16</ele>
        <time>2021-07-04T13:28:31Z</time>
      </trkpt>
      <trkpt lat="43.72817" lon="-1.22724">
        <ele>50.61</ele>
        <time>2021-07-04T13:28:49Z</time>
      </trkpt>
      <trkpt lat="43.72288" lon="-1.22755">
        <ele>52.53</ele>
        <time>2021-07-04T13:29:07Z</time>
      </trkpt>
      <trkpt lat="43.71903" lon="-1.22778">
        <ele>52.53</ele>
        <time>2021-07-04T13:29:20Z</time>
      </trkpt>
      <trkpt lat="43.71456" lon="-1.22805">
        <ele>52.53</ele>
        <time>2021-07-04T13:29:36Z</time>
      </trkpt>
      <trkpt lat="43.71094" lon="-1.22825">
        <ele>51.09</ele>
        <time>2021-07-04T13:29:50Z</time>
      </trkpt>
      <trkpt lat="43.70719" lon="-1.22847">
        <ele>51.09</ele>
        <time>2021-07-04T13:30:04Z</time>
      </trkpt>
      <trkpt lat="43.7015" lon="-1.22881">
        <ele>49.16</ele>
        <time>2021-07-04T13:30:24Z</time>
      </trkpt>
      <trkpt lat="43.69831" lon="-1.2294">
        <ele>43.88</ele>
        <time>2021-07-04T13:30:35Z</time>
      </trkpt>
      <trkpt lat="43.69641" lon="-1.23052">
        <ele>41.47</ele>
        <time>2021-07-04T13:30:42Z</time>
      </trkpt>
      <trkpt lat="43.69466" lon="-1.23227">
        <ele>38.11</ele>
        <time>2021-07-04T13:30:49Z</time>
      </trkpt>
      <trkpt lat="43.69328" lon="-1.2346">
        <ele>36.19</ele>
        <time>2021-07-04T13:30:56Z</time>
      </trkpt>
      <trkpt lat="43.69215" lon="-1.2378">
        <ele>34.74</ele>
        <time>2021-07-04T13:31:04Z</time>
      </trkpt>
      <trkpt lat="43.69021" lon="-1.24344">
        <ele>31.86</ele>
        <time>2021-07-04T13:31:18Z</time>
      </trkpt>
      <trkpt lat="43.68836" lon="-1.24916">
        <ele>30.42</ele>
        <time>2021-07-04T13:31:32Z</time>
      </trkpt>
      <trkpt lat="43.68617" lon="-1.2568">
        <ele>27.53</ele>
        <time>2021-07-04T13:31:50Z</time>
      </trkpt>
      <trkpt lat="43.68404" lon="-1.26332">
        <ele>30.9</ele>
        <time>2021-07-04T13:32:06Z</time>
      </trkpt>
      <trkpt lat="43.68314" lon="-1.2676">
        <ele>33.78</ele>
        <time>2021-07-04T13:32:16Z</time>
      </trkpt>
      <trkpt lat="43.68269" lon="-1.27198">
        <ele>36.67</ele>
        <time>2021-07-04T13:32:26Z</time>
      </trkpt>
      <trkpt lat="43.68242" lon="-1.2785">
        <ele>41.47</ele>
        <time>2021-07-04T13:32:41Z</time>
      </trkpt>
      <trkpt lat="43.68186" lon="-1.28364">
        <ele>40.99</ele>
        <time>2021-07-04T13:32:53Z</time>
      </trkpt>
      <trkpt lat="43.68099" lon="-1.29012">
        <ele>37.63</ele>
        <time>2021-07-04T13:33:08Z</time>
      </trkpt>
      <trkpt lat="43.68074" lon="-1.29509">
        <ele>38.11</ele>
        <time>2021-07-04T13:33:19Z</time>
      </trkpt>
      <trkpt lat="43.68045" lon="-1.30058">
        <ele>35.71</ele>
        <time>2021-07-04T13:33:31Z</time>
      </trkpt>
      <trkpt lat="43.67969" lon="-1.30461">
        <ele>33.78</ele>
        <time>2021-07-04T13:33:40Z</time>
      </trkpt>
      <trkpt lat="43.67849" lon="-1.30837">
        <ele>31.86</ele>
        <time>2021-07-04T13:33:49Z</time>
      </trkpt>
      <trkpt lat="43.67689" lon="-1.3118">
        <ele>29.46</ele>
        <time>2021-07-04T13:33:58Z</time>
      </trkpt>
      <trkpt lat="43.67482" lon="-1.31488">
        <ele>28.5</ele>
        <time>2021-07-04T13:34:07Z</time>
      </trkpt>
      <trkpt lat="43.6715" lon="-1.31875">
        <ele>30.42</ele>
        <time>2021-07-04T13:34:20Z</time>
      </trkpt>
      <trkpt lat="43.66844" lon="-1.32153">
        <ele>30.9</ele>
        <time>2021-07-04T13:34:31Z</time>
      </trkpt>
      <trkpt lat="43.6632" lon="-1.3255">
        <ele>25.13</ele>
        <time>2021-07-04T13:34:49Z</time>
      </trkpt>
      <trkpt lat="43.65987" lon="-1.32856">
        <ele>22.73</ele>
        <time>2021-07-04T13:35:01Z</time>
      </trkpt>
      <trkpt lat="43.65685" lon="-1.33211">
        <ele>20.81</ele>
        <time>2021-07-04T13:35:13Z</time>
      </trkpt>
      <trkpt lat="43.65517" lon="-1.33476">
        <ele>13.12</ele>
        <time>2021-07-04T13:35:21Z</time>
      </trkpt>
      <trkpt lat="43.65391" lon="-1.33787">
        <ele>9.75</ele>
        <time>2021-07-04T13:35:29Z</time>
      </trkpt>
      <trkpt lat="43.65298" lon="-1.3417">
        <ele>7.35</ele>
        <time>2021-07-04T13:35:38Z</time>
      </trkpt>
      <trkpt lat="43.65201" lon="-1.34507">
        <ele>7.35</ele>
        <time>2021-07-04T13:35:46Z</time>
      </trkpt>
      <trkpt lat="43.65047" lon="-1.34851">
        <ele>11.19</ele>
        <time>2021-07-04T13:35:55Z</time>
      </trkpt>
      <trkpt lat="43.64951" lon="-1.35131">
        <ele>10.23</ele>
        <time>2021-07-04T13:36:02Z</time>
      </trkpt>
      <trkpt lat="43.64898" lon="-1.35426">
        <ele>4.94</ele>
        <time>2021-07-04T13:36:09Z</time>
      </trkpt>
      <trkpt lat="43.64896" lon="-1.35814">
        <ele>2.54</ele>
        <time>2021-07-04T13:36:17Z</time>
      </trkpt>
      <trkpt lat="43.64889" lon="-1.36162">
        <ele>6.87</ele>
        <time>2021-07-04T13:36:26Z</time>
      </trkpt>
      <trkpt lat="43.64828" lon="-1.36498">
        <ele>8.79</ele>
        <time>2021-07-04T13:36:34Z</time>
      </trkpt>
      <trkpt lat="43.64728" lon="-1.3677">
        <ele>8.79</ele>
        <time>2021-07-04T13:36:41Z</time>
      </trkpt>
      <trkpt lat="43.64555" lon="-1.37081">
        <ele>5.42</ele>
        <time>2021-07-04T13:36:50Z</time>
      </trkpt>
      <trkpt lat="43.64329" lon="-1.37507">
        <ele>2.54</ele>
        <time>2021-07-04T13:37:02Z</time>
      </trkpt>
      <trkpt lat="43.6407" lon="-1.38054">
        <ele>3.98</ele>
        <time>2021-07-04T13:37:17Z</time>
      </trkpt>
      <trkpt lat="43.63858" lon="-1.38372">
        <ele>6.87</ele>
        <time>2021-07-04T13:37:27Z</time>
      </trkpt>
      <trkpt lat="43.63483" lon="-1.38819">
        <ele>9.75</ele>
        <time>2021-07-04T13:37:43Z</time>
      </trkpt>
      <trkpt lat="43.63173" lon="-1.39183">
        <ele>11.67</ele>
        <time>2021-07-04T13:37:57Z</time>
      </trkpt>
      <trkpt lat="43.62856" lon="-1.39557">
        <ele>12.63</ele>
        <time>2021-07-04T13:38:13Z</time>
      </trkpt>
      <trkpt lat="43.62635" lon="-1.39826">
        <ele>12.15</ele>
        <time>2021-07-04T13:38:25Z</time>
      </trkpt>
      <trkpt lat="43.62528" lon="-1.39948">
        <ele>11.19</ele>
        <time>2021-07-04T13:38:34Z</time>
      </trkpt>
      <trkpt lat="43.62449" lon="-1.40034">
        <ele>11.67</ele>
        <time>2021-07-04T13:38:42Z</time>
      </trkpt>
      <trkpt lat="43.62416" lon="-1.40069">
        <ele>12.63</ele>
        <time>2021-07-04T13:38:49Z</time>
      </trkpt>
      <trkpt lat="43.62405" lon="-1.40079">
        <ele>11.19</ele>
        <time>2021-07-04T13:38:57Z</time>
      </trkpt>
      <trkpt lat="43.62369" lon="-1.40114">
        <ele>11.19</ele>
        <time>2021-07-04T13:39:03Z</time>
      </trkpt>
      <trkpt lat="43.62292" lon="-1.40188">
        <ele>10.23</ele>
        <time>2021-07-04T13:39:10Z</time>
      </trkpt>
      <trkpt lat="43.62152" lon="-1.40327">
        <ele>11.19</ele>
        <time>2021-07-04T13:39:18Z</time>
      </trkpt>
      <trkpt lat="43.61954" lon="-1.40547">
        <ele>12.15</ele>
        <time>2021-07-04T13:39:30Z</time>
      </trkpt>
      <trkpt lat="43.61759" lon="-1.40834">
        <ele>12.63</ele>
        <time>2021-07-04T13:39:41Z</time>
      </trkpt>
      <trkpt lat="43.61545" lon="-1.41142">
        <ele>17.44</ele>
        <time>2021-07-04T13:39:51Z</time>
      </trkpt>
      <trkpt lat="43.61372" lon="-1.41302">
        <ele>16.96</ele>
        <time>2021-07-04T13:39:59Z</time>
      </trkpt>
      <trkpt lat="43.61144" lon="-1.41424">
        <ele>14.08</ele>
        <time>2021-07-04T13:40:07Z</time>
      </trkpt>
      <trkpt lat="43.60652" lon="-1.416">
        <ele>19.84</ele>
        <time>2021-07-04T13:40:24Z</time>
      </trkpt>
      <trkpt lat="43.60386" lon="-1.41627">
        <ele>21.77</ele>
        <time>2021-07-04T13:40:33Z</time>
      </trkpt>
      <trkpt lat="43.6013" lon="-1.41588">
        <ele>18.88</ele>
        <time>2021-07-04T13:40:42Z</time>
      </trkpt>
      <trkpt lat="43.59835" lon="-1.41555">
        <ele>20.32</ele>
        <time>2021-07-04T13:40:52Z</time>
      </trkpt>
      <trkpt lat="43.59567" lon="-1.4159">
        <ele>16.48</ele>
        <time>2021-07-04T13:41:01Z</time>
      </trkpt>
      <trkpt lat="43.593" lon="-1.41685">
        <ele>13.12</ele>
        <time>2021-07-04T13:41:10Z</time>
      </trkpt>
      <trkpt lat="43.58879" lon="-1.41924">
        <ele>14.08</ele>
        <time>2021-07-04T13:41:25Z</time>
      </trkpt>
      <trkpt lat="43.58557" lon="-1.42038">
        <ele>12.63</ele>
        <time>2021-07-04T13:41:35Z</time>
      </trkpt>
      <trkpt lat="43.58267" lon="-1.42145">
        <ele>8.79</ele>
        <time>2021-07-04T13:41:46Z</time>
      </trkpt>
      <trkpt lat="43.57989" lon="-1.42316">
        <ele>14.56</ele>
        <time>2021-07-04T13:41:56Z</time>
      </trkpt>
      <trkpt lat="43.57736" lon="-1.42548">
        <ele>18.88</ele>
        <time>2021-07-04T13:42:06Z</time>
      </trkpt>
      <trkpt lat="43.57478" lon="-1.42812">
        <ele>28.02</ele>
        <time>2021-07-04T13:42:17Z</time>
      </trkpt>
      <trkpt lat="43.57244" lon="-1.42973">
        <ele>36.19</ele>
        <time>2021-07-04T13:42:26Z</time>
      </trkpt>
      <trkpt lat="43.56992" lon="-1.43055">
        <ele>42.92</ele>
        <time>2021-07-04T13:42:35Z</time>
      </trkpt>
      <trkpt lat="43.56643" lon="-1.43093">
        <ele>37.15</ele>
        <time>2021-07-04T13:42:47Z</time>
      </trkpt>
      <trkpt lat="43.56344" lon="-1.43049">
        <ele>32.34</ele>
        <time>2021-07-04T13:42:57Z</time>
      </trkpt>
      <trkpt lat="43.56082" lon="-1.43047">
        <ele>35.23</ele>
        <time>2021-07-04T13:43:06Z</time>
      </trkpt>
      <trkpt lat="43.55855" lon="-1.43104">
        <ele>41.47</ele>
        <time>2021-07-04T13:43:14Z</time>
      </trkpt>
      <trkpt lat="43.5555" lon="-1.43212">
        <ele>49.65</ele>
        <time>2021-07-04T13:43:25Z</time>
      </trkpt>
      <trkpt lat="43.55236" lon="-1.43245">
        <ele>49.16</ele>
        <time>2021-07-04T13:43:36Z</time>
      </trkpt>
      <trkpt lat="43.54798" lon="-1.43255">
        <ele>34.74</ele>
        <time>2021-07-04T13:43:51Z</time>
      </trkpt>
      <trkpt lat="43.54415" lon="-1.43163">
        <ele>17.44</ele>
        <time>2021-07-04T13:44:03Z</time>
      </trkpt>
      <trkpt lat="43.54236" lon="-1.43162">
        <ele>12.63</ele>
        <time>2021-07-04T13:44:10Z</time>
      </trkpt>
      <trkpt lat="43.53915" lon="-1.43199">
        <ele>12.15</ele>
        <time>2021-07-04T13:44:21Z</time>
      </trkpt>
      <trkpt lat="43.5366" lon="-1.43159">
        <ele>9.75</ele>
        <time>2021-07-04T13:44:29Z</time>
      </trkpt>
      <trkpt lat="43.5346" lon="-1.43131">
        <ele>11.19</ele>
        <time>2021-07-04T13:44:37Z</time>
      </trkpt>
      <trkpt lat="43.53293" lon="-1.43168">
        <ele>10.71</ele>
        <time>2021-07-04T13:44:43Z</time>
      </trkpt>
      <trkpt lat="43.53137" lon="-1.43268">
        <ele>9.75</ele>
        <time>2021-07-04T13:44:49Z</time>
      </trkpt>
      <trkpt lat="43.52959" lon="-1.43463">
        <ele>19.36</ele>
        <time>2021-07-04T13:44:57Z</time>
      </trkpt>
      <trkpt lat="43.52748" lon="-1.43753">
        <ele>35.71</ele>
        <time>2021-07-04T13:45:08Z</time>
      </trkpt>
      <trkpt lat="43.52574" lon="-1.43919">
        <ele>40.03</ele>
        <time>2021-07-04T13:45:16Z</time>
      </trkpt>
      <trkpt lat="43.52351" lon="-1.44069">
        <ele>33.3</ele>
        <time>2021-07-04T13:45:25Z</time>
      </trkpt>
      <trkpt lat="43.52056" lon="-1.44189">
        <ele>25.61</ele>
        <time>2021-07-04T13:45:35Z</time>
      </trkpt>
      <trkpt lat="43.51783" lon="-1.44244">
        <ele>18.4</ele>
        <time>2021-07-04T13:45:46Z</time>
      </trkpt>
      <trkpt lat="43.51558" lon="-1.44304">
        <ele>11.19</ele>
        <time>2021-07-04T13:45:54Z</time>
      </trkpt>
      <trkpt lat="43.51308" lon="-1.44371">
        <ele>17.44</ele>
        <time>2021-07-04T13:46:03Z</time>
      </trkpt>
      <trkpt lat="43.51084" lon="-1.44347">
        <ele>16</ele>
        <time>2021-07-04T13:46:11Z</time>
      </trkpt>
      <trkpt lat="43.509" lon="-1.4426">
        <ele>14.56</ele>
        <time>2021-07-04T13:46:18Z</time>
      </trkpt>
      <trkpt lat="43.50647" lon="-1.44078">
        <ele>13.6</ele>
        <time>2021-07-04T13:46:28Z</time>
      </trkpt>
      <trkpt lat="43.50483" lon="-1.44019">
        <ele>13.12</ele>
        <time>2021-07-04T13:46:34Z</time>
      </trkpt>
      <trkpt lat="43.50284" lon="-1.44017">
        <ele>12.63</ele>
        <time>2021-07-04T13:46:41Z</time>
      </trkpt>
      <trkpt lat="43.50101" lon="-1.44084">
        <ele>6.39</ele>
        <time>2021-07-04T13:46:48Z</time>
      </trkpt>
      <trkpt lat="43.49936" lon="-1.44217">
        <ele>3.5</ele>
        <time>2021-07-04T13:46:55Z</time>
      </trkpt>
      <trkpt lat="43.49802" lon="-1.44401">
        <ele>0.62</ele>
        <time>2021-07-04T13:47:02Z</time>
      </trkpt>
      <trkpt lat="43.49625" lon="-1.44694">
        <ele>3.5</ele>
        <time>2021-07-04T13:47:12Z</time>
      </trkpt>
      <trkpt lat="43.49483" lon="-1.44836">
        <ele>7.35</ele>
        <time>2021-07-04T13:47:19Z</time>
      </trkpt>
      <trkpt lat="43.49326" lon="-1.44944">
        <ele>5.42</ele>
        <time>2021-07-04T13:47:28Z</time>
      </trkpt>
      <trkpt lat="43.49195" lon="-1.44992">
        <ele>0.62</ele>
        <time>2021-07-04T13:47:37Z</time>
      </trkpt>
      <trkpt lat="43.49161" lon="-1.4501">
        <ele>-2.75</ele>
        <time>2021-07-04T13:47:40Z</time>
      </trkpt>
      <trkpt lat="43.49152" lon="-1.45017">
        <ele>-4.19</ele>
        <time>2021-07-04T13:47:41Z</time>
      </trkpt>
      <trkpt lat="43.49144" lon="-1.45025">
        <ele>-4.67</ele>
        <time>2021-07-04T13:47:42Z</time>
      </trkpt>
      <trkpt lat="43.49139" lon="-1.45033">
        <ele>-2.75</ele>
        <time>2021-07-04T13:47:43Z</time>
      </trkpt>
      <trkpt lat="43.49133" lon="-1.45046">
        <ele>-1.79</ele>
        <time>2021-07-04T13:47:44Z</time>
      </trkpt>
      <trkpt lat="43.49128" lon="-1.45057">
        <ele>-0.34</ele>
        <time>2021-07-04T13:47:45Z</time>
      </trkpt>
      <trkpt lat="43.49124" lon="-1.45072">
        <ele>-0.34</ele>
        <time>2021-07-04T13:47:46Z</time>
      </trkpt>
      <trkpt lat="43.4912" lon="-1.45088">
        <ele>0.62</ele>
        <time>2021-07-04T13:47:47Z</time>
      </trkpt>
      <trkpt lat="43.49116" lon="-1.45288">
        <ele>3.02</ele>
        <time>2021-07-04T13:47:59Z</time>
      </trkpt>
      <trkpt lat="43.49124" lon="-1.45328">
        <ele>2.54</ele>
        <time>2021-07-04T13:48:07Z</time>
      </trkpt>
      <trkpt lat="43.49127" lon="-1.45334">
        <ele>2.54</ele>
        <time>2021-07-04T13:48:08Z</time>
      </trkpt>
      <trkpt lat="43.49136" lon="-1.45349">
        <ele>2.06</ele>
        <time>2021-07-04T13:48:10Z</time>
      </trkpt>
      <trkpt lat="43.49141" lon="-1.45357">
        <ele>1.58</ele>
        <time>2021-07-04T13:48:11Z</time>
      </trkpt>
      <trkpt lat="43.49141" lon="-1.45357">
        <ele>1.58</ele>
        <time>2021-07-04T13:48:12Z</time>
      </trkpt>
      <trkpt lat="43.49144" lon="-1.45365">
        <ele>2.06</ele>
        <time>2021-07-04T13:48:13Z</time>
      </trkpt>
      <trkpt lat="43.49143" lon="-1.45377">
        <ele>2.06</ele>
        <time>2021-07-04T13:48:14Z</time>
      </trkpt>
      <trkpt lat="43.49143" lon="-1.45387">
        <ele>2.06</ele>
        <time>2021-07-04T13:48:15Z</time>
      </trkpt>
      <trkpt lat="43.49142" lon="-1.45397">
        <ele>2.06</ele>
        <time>2021-07-04T13:48:16Z</time>
      </trkpt>
      <trkpt lat="43.49135" lon="-1.45402">
        <ele>1.1</ele>
        <time>2021-07-04T13:48:17Z</time>
      </trkpt>
      <trkpt lat="43.4913" lon="-1.45407">
        <ele>1.1</ele>
        <time>2021-07-04T13:48:18Z</time>
      </trkpt>
      <trkpt lat="43.49124" lon="-1.45411">
        <ele>1.1</ele>
        <time>2021-07-04T13:48:19Z</time>
      </trkpt>
      <trkpt lat="43.49118" lon="-1.45412">
        <ele>1.1</ele>
        <time>2021-07-04T13:48:20Z</time>
      </trkpt>
      <trkpt lat="43.49111" lon="-1.45412">
        <ele>1.1</ele>
        <time>2021-07-04T13:48:21Z</time>
      </trkpt>
      <trkpt lat="43.49102" lon="-1.4542">
        <ele>0.14</ele>
        <time>2021-07-04T13:48:22Z</time>
      </trkpt>
      <trkpt lat="43.49096" lon="-1.45426">
        <ele>0.14</ele>
        <time>2021-07-04T13:48:23Z</time>
      </trkpt>
      <trkpt lat="43.49089" lon="-1.45433">
        <ele>0.14</ele>
        <time>2021-07-04T13:48:24Z</time>
      </trkpt>
      <trkpt lat="43.49081" lon="-1.45441">
        <ele>0.14</ele>
        <time>2021-07-04T13:48:25Z</time>
      </trkpt>
      <trkpt lat="43.49074" lon="-1.4545">
        <ele>0.14</ele>
        <time>2021-07-04T13:48:26Z</time>
      </trkpt>
      <trkpt lat="43.48998" lon="-1.45596">
        <ele>-1.3</ele>
        <time>2021-07-04T13:48:36Z</time>
      </trkpt>
      <trkpt lat="43.4889" lon="-1.45812">
        <ele>4.46</ele>
        <time>2021-07-04T13:48:48Z</time>
      </trkpt>
      <trkpt lat="43.4879" lon="-1.4606">
        <ele>8.79</ele>
        <time>2021-07-04T13:49:01Z</time>
      </trkpt>
      <trkpt lat="43.48702" lon="-1.46277">
        <ele>10.71</ele>
        <time>2021-07-04T13:49:14Z</time>
      </trkpt>
      <trkpt lat="43.48628" lon="-1.46512">
        <ele>19.36</ele>
        <time>2021-07-04T13:49:26Z</time>
      </trkpt>
      <trkpt lat="43.48627" lon="-1.46645">
        <ele>21.77</ele>
        <time>2021-07-04T13:49:33Z</time>
      </trkpt>
      <trkpt lat="43.48632" lon="-1.46664">
        <ele>21.77</ele>
        <time>2021-07-04T13:49:34Z</time>
      </trkpt>
      <trkpt lat="43.48636" lon="-1.46682">
        <ele>21.77</ele>
        <time>2021-07-04T13:49:35Z</time>
      </trkpt>
      <trkpt lat="43.48672" lon="-1.46795">
        <ele>21.29</ele>
        <time>2021-07-04T13:49:43Z</time>
      </trkpt>
      <trkpt lat="43.4869" lon="-1.4686">
        <ele>17.92</ele>
        <time>2021-07-04T13:49:49Z</time>
      </trkpt>
      <trkpt lat="43.4869" lon="-1.4686">
        <ele>17.92</ele>
        <time>2021-07-04T13:49:50Z</time>
      </trkpt>
      <trkpt lat="43.48692" lon="-1.46868">
        <ele>17.44</ele>
        <time>2021-07-04T13:49:51Z</time>
      </trkpt>
      <trkpt lat="43.48709" lon="-1.46876">
        <ele>17.44</ele>
        <time>2021-07-04T13:49:52Z</time>
      </trkpt>
      <trkpt lat="43.48709" lon="-1.46876">
        <ele>16.96</ele>
        <time>2021-07-04T13:49:53Z</time>
      </trkpt>
      <trkpt lat="43.48712" lon="-1.46885">
        <ele>16.48</ele>
        <time>2021-07-04T13:49:54Z</time>
      </trkpt>
      <trkpt lat="43.48715" lon="-1.46902">
        <ele>16</ele>
        <time>2021-07-04T13:49:55Z</time>
      </trkpt>
      <trkpt lat="43.48715" lon="-1.46902">
        <ele>15.52</ele>
        <time>2021-07-04T13:49:56Z</time>
      </trkpt>
      <trkpt lat="43.48709" lon="-1.46911">
        <ele>16</ele>
        <time>2021-07-04T13:49:57Z</time>
      </trkpt>
      <trkpt lat="43.48705" lon="-1.4692">
        <ele>15.52</ele>
        <time>2021-07-04T13:49:58Z</time>
      </trkpt>
      <trkpt lat="43.48702" lon="-1.4693">
        <ele>15.52</ele>
        <time>2021-07-04T13:49:59Z</time>
      </trkpt>
      <trkpt lat="43.48699" lon="-1.4694">
        <ele>15.04</ele>
        <time>2021-07-04T13:50:00Z</time>
      </trkpt>
      <trkpt lat="43.48696" lon="-1.4695">
        <ele>14.56</ele>
        <time>2021-07-04T13:50:01Z</time>
      </trkpt>
      <trkpt lat="43.48654" lon="-1.47076">
        <ele>7.83</ele>
        <time>2021-07-04T13:50:10Z</time>
      </trkpt>
      <trkpt lat="43.48593" lon="-1.4719">
        <ele>5.42</ele>
        <time>2021-07-04T13:50:18Z</time>
      </trkpt>
      <trkpt lat="43.48589" lon="-1.47206">
        <ele>5.91</ele>
        <time>2021-07-04T13:50:19Z</time>
      </trkpt>
      <trkpt lat="43.4858" lon="-1.47239">
        <ele>6.39</ele>
        <time>2021-07-04T13:50:20Z</time>
      </trkpt>
      <trkpt lat="43.4858" lon="-1.47257">
        <ele>6.87</ele>
        <time>2021-07-04T13:50:21Z</time>
      </trkpt>
      <trkpt lat="43.4858" lon="-1.47257">
        <ele>7.83</ele>
        <time>2021-07-04T13:50:22Z</time>
      </trkpt>
      <trkpt lat="43.4858" lon="-1.47275">
        <ele>8.31</ele>
        <time>2021-07-04T13:50:23Z</time>
      </trkpt>
      <trkpt lat="43.48582" lon="-1.47294">
        <ele>7.83</ele>
        <time>2021-07-04T13:50:24Z</time>
      </trkpt>
      <trkpt lat="43.48617" lon="-1.4757">
        <ele>9.27</ele>
        <time>2021-07-04T13:50:38Z</time>
      </trkpt>
      <trkpt lat="43.48637" lon="-1.47699">
        <ele>9.75</ele>
        <time>2021-07-04T13:50:46Z</time>
      </trkpt>
      <trkpt lat="43.48641" lon="-1.47712">
        <ele>10.23</ele>
        <time>2021-07-04T13:50:47Z</time>
      </trkpt>
      <trkpt lat="43.48649" lon="-1.47736">
        <ele>11.19</ele>
        <time>2021-07-04T13:50:48Z</time>
      </trkpt>
      <trkpt lat="43.48656" lon="-1.47757">
        <ele>12.15</ele>
        <time>2021-07-04T13:50:51Z</time>
      </trkpt>
      <trkpt lat="43.48661" lon="-1.47779">
        <ele>12.15</ele>
        <time>2021-07-04T13:50:52Z</time>
      </trkpt>
      <trkpt lat="43.48661" lon="-1.47779">
        <ele>12.63</ele>
        <time>2021-07-04T13:50:53Z</time>
      </trkpt>
      <trkpt lat="43.48663" lon="-1.47791">
        <ele>12.63</ele>
        <time>2021-07-04T13:50:54Z</time>
      </trkpt>
      <trkpt lat="43.48665" lon="-1.47805">
        <ele>13.12</ele>
        <time>2021-07-04T13:50:55Z</time>
      </trkpt>
      <trkpt lat="43.48664" lon="-1.47832">
        <ele>12.63</ele>
        <time>2021-07-04T13:50:56Z</time>
      </trkpt>
      <trkpt lat="43.48663" lon="-1.47846">
        <ele>12.63</ele>
        <time>2021-07-04T13:50:57Z</time>
      </trkpt>
      <trkpt lat="43.48663" lon="-1.47846">
        <ele>12.15</ele>
        <time>2021-07-04T13:50:58Z</time>
      </trkpt>
      <trkpt lat="43.48658" lon="-1.47918">
        <ele>11.67</ele>
        <time>2021-07-04T13:51:03Z</time>
      </trkpt>
      <trkpt lat="43.48657" lon="-1.47933">
        <ele>12.15</ele>
        <time>2021-07-04T13:51:04Z</time>
      </trkpt>
      <trkpt lat="43.48659" lon="-1.47948">
        <ele>11.67</ele>
        <time>2021-07-04T13:51:05Z</time>
      </trkpt>
      <trkpt lat="43.48662" lon="-1.47963">
        <ele>11.67</ele>
        <time>2021-07-04T13:51:06Z</time>
      </trkpt>
      <trkpt lat="43.48665" lon="-1.47976">
        <ele>11.19</ele>
        <time>2021-07-04T13:51:07Z</time>
      </trkpt>
      <trkpt lat="43.48669" lon="-1.47989">
        <ele>10.71</ele>
        <time>2021-07-04T13:51:08Z</time>
      </trkpt>
      <trkpt lat="43.48684" lon="-1.48011">
        <ele>11.19</ele>
        <time>2021-07-04T13:51:09Z</time>
      </trkpt>
      <trkpt lat="43.48692" lon="-1.48022">
        <ele>11.19</ele>
        <time>2021-07-04T13:51:10Z</time>
      </trkpt>
      <trkpt lat="43.48698" lon="-1.48033">
        <ele>12.15</ele>
        <time>2021-07-04T13:51:12Z</time>
      </trkpt>
      <trkpt lat="43.48704" lon="-1.48045">
        <ele>13.12</ele>
        <time>2021-07-04T13:51:13Z</time>
      </trkpt>
      <trkpt lat="43.4874" lon="-1.48114">
        <ele>15.52</ele>
        <time>2021-07-04T13:51:19Z</time>
      </trkpt>
      <trkpt lat="43.48745" lon="-1.48121">
        <ele>15.52</ele>
        <time>2021-07-04T13:51:20Z</time>
      </trkpt>
      <trkpt lat="43.48751" lon="-1.48129">
        <ele>15.52</ele>
        <time>2021-07-04T13:51:21Z</time>
      </trkpt>
      <trkpt lat="43.48756" lon="-1.48134">
        <ele>15.52</ele>
        <time>2021-07-04T13:51:22Z</time>
      </trkpt>
      <trkpt lat="43.48761" lon="-1.48138">
        <ele>15.52</ele>
        <time>2021-07-04T13:51:23Z</time>
      </trkpt>
      <trkpt lat="43.48766" lon="-1.48141">
        <ele>15.52</ele>
        <time>2021-07-04T13:51:24Z</time>
      </trkpt>
      <trkpt lat="43.48797" lon="-1.48158">
        <ele>13.6</ele>
        <time>2021-07-04T13:51:36Z</time>
      </trkpt>
      <trkpt lat="43.48815" lon="-1.48126">
        <ele>10.23</ele>
        <time>2021-07-04T13:51:45Z</time>
      </trkpt>
      <trkpt lat="43.48826" lon="-1.48097">
        <ele>9.27</ele>
        <time>2021-07-04T13:51:52Z</time>
      </trkpt>
      <trkpt lat="43.48832" lon="-1.48067">
        <ele>8.31</ele>
        <time>2021-07-04T13:52:00Z</time>
      </trkpt>
      <trkpt lat="43.48837" lon="-1.48046">
        <ele>8.31</ele>
        <time>2021-07-04T13:52:03Z</time>
      </trkpt>
      <trkpt lat="43.48841" lon="-1.48025">
        <ele>7.83</ele>
        <time>2021-07-04T13:52:05Z</time>
      </trkpt>
      <trkpt lat="43.48851" lon="-1.47976">
        <ele>6.87</ele>
        <time>2021-07-04T13:52:13Z</time>
      </trkpt>
      <trkpt lat="43.48853" lon="-1.47964">
        <ele>6.87</ele>
        <time>2021-07-04T13:52:15Z</time>
      </trkpt>
      <trkpt lat="43.48854" lon="-1.47957">
        <ele>6.39</ele>
        <time>2021-07-04T13:52:16Z</time>
      </trkpt>
      <trkpt lat="43.48854" lon="-1.4795">
        <ele>6.39</ele>
        <time>2021-07-04T13:52:17Z</time>
      </trkpt>
      <trkpt lat="43.48848" lon="-1.47894">
        <ele>5.91</ele>
        <time>2021-07-04T13:52:28Z</time>
      </trkpt>
      <trkpt lat="43.48838" lon="-1.47835">
        <ele>5.42</ele>
        <time>2021-07-04T13:52:39Z</time>
      </trkpt>
      <trkpt lat="43.48838" lon="-1.47835">
        <ele>5.42</ele>
        <time>2021-07-04T13:52:40Z</time>
      </trkpt>
      <trkpt lat="43.48846" lon="-1.47826">
        <ele>5.91</ele>
        <time>2021-07-04T13:52:41Z</time>
      </trkpt>
      <trkpt lat="43.48848" lon="-1.47827">
        <ele>6.87</ele>
        <time>2021-07-04T13:52:42Z</time>
      </trkpt>
      <trkpt lat="43.4885" lon="-1.4783">
        <ele>7.35</ele>
        <time>2021-07-04T13:52:43Z</time>
      </trkpt>
      <trkpt lat="43.48856" lon="-1.47836">
        <ele>7.83</ele>
        <time>2021-07-04T13:52:44Z</time>
      </trkpt>
      <trkpt lat="43.48896" lon="-1.47891">
        <ele>14.08</ele>
        <time>2021-07-04T13:52:56Z</time>
      </trkpt>
      <trkpt lat="43.48935" lon="-1.47932">
        <ele>17.44</ele>
        <time>2021-07-04T13:53:07Z</time>
      </trkpt>
      <trkpt lat="43.48939" lon="-1.47933">
        <ele>17.44</ele>
        <time>2021-07-04T13:53:08Z</time>
      </trkpt>
      <trkpt lat="43.49029" lon="-1.47906">
        <ele>14.08</ele>
        <time>2021-07-04T13:53:21Z</time>
      </trkpt>
      <trkpt lat="43.49112" lon="-1.47873">
        <ele>11.67</ele>
        <time>2021-07-04T13:53:35Z</time>
      </trkpt>
      <trkpt lat="43.49141" lon="-1.47859">
        <ele>10.71</ele>
        <time>2021-07-04T13:53:40Z</time>
      </trkpt>
      <trkpt lat="43.49159" lon="-1.4785">
        <ele>8.79</ele>
        <time>2021-07-04T13:53:44Z</time>
      </trkpt>
      <trkpt lat="43.49189" lon="-1.4784">
        <ele>6.87</ele>
        <time>2021-07-04T13:53:49Z</time>
      </trkpt>
      <trkpt lat="43.49189" lon="-1.4784">
        <ele>6.87</ele>
        <time>2021-07-04T13:53:50Z</time>
      </trkpt>
      <trkpt lat="43.49193" lon="-1.47839">
        <ele>6.87</ele>
        <time>2021-07-04T13:53:51Z</time>
      </trkpt>
      <trkpt lat="43.49203" lon="-1.47847">
        <ele>6.39</ele>
        <time>2021-07-04T13:53:52Z</time>
      </trkpt>
      <trkpt lat="43.49207" lon="-1.47851">
        <ele>4.94</ele>
        <time>2021-07-04T13:53:53Z</time>
      </trkpt>
      <trkpt lat="43.49213" lon="-1.47855">
        <ele>4.94</ele>
        <time>2021-07-04T13:53:54Z</time>
      </trkpt>
      <trkpt lat="43.49218" lon="-1.4786">
        <ele>3.98</ele>
        <time>2021-07-04T13:53:55Z</time>
      </trkpt>
      <trkpt lat="43.49223" lon="-1.47864">
        <ele>3.5</ele>
        <time>2021-07-04T13:53:56Z</time>
      </trkpt>
      <trkpt lat="43.49223" lon="-1.47864">
        <ele>3.02</ele>
        <time>2021-07-04T13:53:57Z</time>
      </trkpt>
      <trkpt lat="43.49229" lon="-1.47869">
        <ele>2.54</ele>
        <time>2021-07-04T13:53:58Z</time>
      </trkpt>
      <trkpt lat="43.49234" lon="-1.47873">
        <ele>1.58</ele>
        <time>2021-07-04T13:53:59Z</time>
      </trkpt>
      <trkpt lat="43.4924" lon="-1.47873">
        <ele>1.1</ele>
        <time>2021-07-04T13:54:00Z</time>
      </trkpt>
      <trkpt lat="43.49246" lon="-1.47872">
        <ele>0.62</ele>
        <time>2021-07-04T13:54:01Z</time>
      </trkpt>
      <trkpt lat="43.4925" lon="-1.4787">
        <ele>0.62</ele>
        <time>2021-07-04T13:54:02Z</time>
      </trkpt>
      <trkpt lat="43.49254" lon="-1.47866">
        <ele>0.14</ele>
        <time>2021-07-04T13:54:03Z</time>
      </trkpt>
      <trkpt lat="43.49265" lon="-1.47853">
        <ele>-2.27</ele>
        <time>2021-07-04T13:54:09Z</time>
      </trkpt>
      <trkpt lat="43.49267" lon="-1.47852">
        <ele>-2.27</ele>
        <time>2021-07-04T13:54:10Z</time>
      </trkpt>
      <trkpt lat="43.49267" lon="-1.47861">
        <ele>-2.27</ele>
        <time>2021-07-04T13:54:11Z</time>
      </trkpt>
      <trkpt lat="43.49291" lon="-1.47906">
        <ele>-1.3</ele>
        <time>2021-07-04T13:54:23Z</time>
      </trkpt>
      <trkpt lat="43.49299" lon="-1.4792">
        <ele>2.54</ele>
        <time>2021-07-04T13:54:34Z</time>
      </trkpt>
      <trkpt lat="43.49304" lon="-1.47919">
        <ele>2.54</ele>
        <time>2021-07-04T13:54:35Z</time>
      </trkpt>
      <trkpt lat="43.49306" lon="-1.47917">
        <ele>2.54</ele>
        <time>2021-07-04T13:54:36Z</time>
      </trkpt>
      <trkpt lat="43.49338" lon="-1.47884">
        <ele>2.54</ele>
        <time>2021-07-04T13:54:48Z</time>
      </trkpt>
      <trkpt lat="43.49372" lon="-1.4785">
        <ele>1.1</ele>
        <time>2021-07-04T13:55:01Z</time>
      </trkpt>
      <trkpt lat="43.49394" lon="-1.47829">
        <ele>2.54</ele>
        <time>2021-07-04T13:55:15Z</time>
      </trkpt>
      <trkpt lat="43.49418" lon="-1.47804">
        <ele>3.5</ele>
        <time>2021-07-04T13:55:28Z</time>
      </trkpt>
      <trkpt lat="43.49447" lon="-1.47778">
        <ele>5.42</ele>
        <time>2021-07-04T13:55:42Z</time>
      </trkpt>
      <trkpt lat="43.49454" lon="-1.47771">
        <ele>5.42</ele>
        <time>2021-07-04T13:55:57Z</time>
      </trkpt>
      <trkpt lat="43.49454" lon="-1.47771">
        <ele>5.42</ele>
        <time>2021-07-04T13:56:13Z</time>
      </trkpt>
      <trkpt lat="43.49456" lon="-1.47766">
        <ele>5.42</ele>
        <time>2021-07-04T13:56:14Z</time>
      </trkpt>
      <trkpt lat="43.49456" lon="-1.47766">
        <ele>5.42</ele>
        <time>2021-07-04T13:56:15Z</time>
      </trkpt>
      <trkpt lat="43.49455" lon="-1.47763">
        <ele>5.42</ele>
        <time>2021-07-04T13:56:16Z</time>
      </trkpt>
      <trkpt lat="43.49454" lon="-1.47759">
        <ele>5.42</ele>
        <time>2021-07-04T13:56:17Z</time>
      </trkpt>
      <trkpt lat="43.49452" lon="-1.47755">
        <ele>5.42</ele>
        <time>2021-07-04T13:56:18Z</time>
      </trkpt>
      <trkpt lat="43.49425" lon="-1.47689">
        <ele>5.91</ele>
        <time>2021-07-04T13:56:32Z</time>
      </trkpt>
      <trkpt lat="43.49403" lon="-1.4766">
        <ele>7.83</ele>
        <time>2021-07-04T13:56:41Z</time>
      </trkpt>
      <trkpt lat="43.49401" lon="-1.47657">
        <ele>7.83</ele>
        <time>2021-07-04T13:56:42Z</time>
      </trkpt>
      <trkpt lat="43.4941" lon="-1.47655">
        <ele>8.31</ele>
        <time>2021-07-04T13:56:43Z</time>
      </trkpt>
      <trkpt lat="43.49412" lon="-1.47653">
        <ele>8.31</ele>
        <time>2021-07-04T13:56:44Z</time>
      </trkpt>
      <trkpt lat="43.49414" lon="-1.47651">
        <ele>7.83</ele>
        <time>2021-07-04T13:56:45Z</time>
      </trkpt>
      <trkpt lat="43.49415" lon="-1.47649">
        <ele>7.83</ele>
        <time>2021-07-04T13:56:46Z</time>
      </trkpt>
      <trkpt lat="43.49417" lon="-1.47648">
        <ele>7.35</ele>
        <time>2021-07-04T13:57:04Z</time>
      </trkpt>
      <trkpt lat="43.49424" lon="-1.47641">
        <ele>7.83</ele>
        <time>2021-07-04T13:57:11Z</time>
      </trkpt>
      <trkpt lat="43.49425" lon="-1.47639">
        <ele>7.83</ele>
        <time>2021-07-04T13:57:12Z</time>
      </trkpt>
      <trkpt lat="43.49427" lon="-1.47638">
        <ele>7.83</ele>
        <time>2021-07-04T13:57:13Z</time>
      </trkpt>
      <trkpt lat="43.49428" lon="-1.47636">
        <ele>7.83</ele>
        <time>2021-07-04T13:57:14Z</time>
      </trkpt>
      <trkpt lat="43.49427" lon="-1.47631">
        <ele>7.83</ele>
        <time>2021-07-04T13:57:25Z</time>
      </trkpt>
      <trkpt lat="43.49427" lon="-1.47632">
        <ele>7.35</ele>
        <time>2021-07-04T13:57:26Z</time>
      </trkpt>
      <trkpt lat="43.49422" lon="-1.47639">
        <ele>6.39</ele>
        <time>2021-07-04T13:57:43Z</time>
      </trkpt>
      <trkpt lat="43.49417" lon="-1.47646">
        <ele>6.39</ele>
        <time>2021-07-04T13:57:48Z</time>
      </trkpt>
      <trkpt lat="43.49406" lon="-1.47663">
        <ele>6.39</ele>
        <time>2021-07-04T13:57:50Z</time>
      </trkpt>
      <trkpt lat="43.49407" lon="-1.47665">
        <ele>6.39</ele>
        <time>2021-07-04T13:57:51Z</time>
      </trkpt>
      <trkpt lat="43.49409" lon="-1.47668">
        <ele>5.91</ele>
        <time>2021-07-04T13:57:52Z</time>
      </trkpt>
      <trkpt lat="43.49411" lon="-1.47671">
        <ele>5.91</ele>
        <time>2021-07-04T13:57:53Z</time>
      </trkpt>
      <trkpt lat="43.49414" lon="-1.47675">
        <ele>5.91</ele>
        <time>2021-07-04T13:57:54Z</time>
      </trkpt>
      <trkpt lat="43.49425" lon="-1.47689">
        <ele>5.91</ele>
        <time>2021-07-04T13:57:57Z</time>
      </trkpt>
      <trkpt lat="43.49428" lon="-1.47694">
        <ele>5.91</ele>
        <time>2021-07-04T13:57:58Z</time>
      </trkpt>
      <trkpt lat="43.49454" lon="-1.4776">
        <ele>3.02</ele>
        <time>2021-07-04T13:58:09Z</time>
      </trkpt>
      <trkpt lat="43.49456" lon="-1.47766">
        <ele>2.54</ele>
        <time>2021-07-04T13:58:11Z</time>
      </trkpt>
      <trkpt lat="43.49461" lon="-1.47778">
        <ele>2.54</ele>
        <time>2021-07-04T13:58:13Z</time>
      </trkpt>
      <trkpt lat="43.49463" lon="-1.47786">
        <ele>3.02</ele>
        <time>2021-07-04T13:58:14Z</time>
      </trkpt>
      <trkpt lat="43.49466" lon="-1.47793">
        <ele>3.5</ele>
        <time>2021-07-04T13:58:15Z</time>
      </trkpt>
      <trkpt lat="43.49468" lon="-1.47799">
        <ele>3.5</ele>
        <time>2021-07-04T13:58:16Z</time>
      </trkpt>
      <trkpt lat="43.4947" lon="-1.47805">
        <ele>3.5</ele>
        <time>2021-07-04T13:58:17Z</time>
      </trkpt>
      <trkpt lat="43.49472" lon="-1.4781">
        <ele>3.5</ele>
        <time>2021-07-04T13:58:18Z</time>
      </trkpt>
      <trkpt lat="43.49515" lon="-1.47828">
        <ele>3.02</ele>
        <time>2021-07-04T13:58:26Z</time>
      </trkpt>
      <trkpt lat="43.49516" lon="-1.47832">
        <ele>2.54</ele>
        <time>2021-07-04T13:58:27Z</time>
      </trkpt>
      <trkpt lat="43.49508" lon="-1.47839">
        <ele>2.54</ele>
        <time>2021-07-04T13:58:28Z</time>
      </trkpt>
      <trkpt lat="43.49504" lon="-1.47843">
        <ele>2.06</ele>
        <time>2021-07-04T13:58:29Z</time>
      </trkpt>
      <trkpt lat="43.49501" lon="-1.47847">
        <ele>1.58</ele>
        <time>2021-07-04T13:58:30Z</time>
      </trkpt>
      <trkpt lat="43.49496" lon="-1.47852">
        <ele>1.1</ele>
        <time>2021-07-04T13:58:31Z</time>
      </trkpt>
      <trkpt lat="43.4942" lon="-1.47924">
        <ele>-0.82</ele>
        <time>2021-07-04T13:58:45Z</time>
      </trkpt>
      <trkpt lat="43.49381" lon="-1.47959">
        <ele>-1.79</ele>
        <time>2021-07-04T13:58:57Z</time>
      </trkpt>
      <trkpt lat="43.49366" lon="-1.47972">
        <ele>-2.27</ele>
        <time>2021-07-04T13:59:10Z</time>
      </trkpt>
      <trkpt lat="43.49347" lon="-1.4799">
        <ele>-2.27</ele>
        <time>2021-07-04T13:59:21Z</time>
      </trkpt>
      <trkpt lat="43.49295" lon="-1.48033">
        <ele>0.14</ele>
        <time>2021-07-04T13:59:31Z</time>
      </trkpt>
      <trkpt lat="43.49279" lon="-1.48045">
        <ele>1.58</ele>
        <time>2021-07-04T13:59:38Z</time>
      </trkpt>
      <trkpt lat="43.49277" lon="-1.48046">
        <ele>1.58</ele>
        <time>2021-07-04T13:59:51Z</time>
      </trkpt>
      <trkpt lat="43.49269" lon="-1.48063">
        <ele>47.24</ele>
        <time>2021-07-04T15:10:58Z</time>
      </trkpt>
      <trkpt lat="43.49287" lon="-1.48055">
        <ele>21.29</ele>
        <time>2021-07-04T15:11:27Z</time>
      </trkpt>
      <trkpt lat="43.49266" lon="-1.48056">
        <ele>7.35</ele>
        <time>2021-07-04T15:12:32Z</time>
      </trkpt>
      <trkpt lat="43.4921" lon="-1.48118">
        <ele>9.75</ele>
        <time>2021-07-04T15:12:45Z</time>
      </trkpt>
      <trkpt lat="43.4916" lon="-1.48156">
        <ele>12.15</ele>
        <time>2021-07-04T15:12:57Z</time>
      </trkpt>
      <trkpt lat="43.49149" lon="-1.48163">
        <ele>12.15</ele>
        <time>2021-07-04T15:13:07Z</time>
      </trkpt>
      <trkpt lat="43.49142" lon="-1.48167">
        <ele>12.15</ele>
        <time>2021-07-04T15:13:13Z</time>
      </trkpt>
      <trkpt lat="43.49142" lon="-1.48167">
        <ele>11.67</ele>
        <time>2021-07-04T15:13:14Z</time>
      </trkpt>
      <trkpt lat="43.49142" lon="-1.4817">
        <ele>11.67</ele>
        <time>2021-07-04T15:13:15Z</time>
      </trkpt>
      <trkpt lat="43.49143" lon="-1.48175">
        <ele>11.67</ele>
        <time>2021-07-04T15:13:16Z</time>
      </trkpt>
      <trkpt lat="43.49143" lon="-1.48179">
        <ele>11.67</ele>
        <time>2021-07-04T15:13:17Z</time>
      </trkpt>
      <trkpt lat="43.49158" lon="-1.48254">
        <ele>12.15</ele>
        <time>2021-07-04T15:13:31Z</time>
      </trkpt>
      <trkpt lat="43.49163" lon="-1.48339">
        <ele>13.12</ele>
        <time>2021-07-04T15:13:47Z</time>
      </trkpt>
      <trkpt lat="43.49166" lon="-1.4844">
        <ele>13.6</ele>
        <time>2021-07-04T15:14:05Z</time>
      </trkpt>
      <trkpt lat="43.49177" lon="-1.4851">
        <ele>13.6</ele>
        <time>2021-07-04T15:14:17Z</time>
      </trkpt>
      <trkpt lat="43.49209" lon="-1.48605">
        <ele>11.19</ele>
        <time>2021-07-04T15:14:33Z</time>
      </trkpt>
      <trkpt lat="43.49218" lon="-1.4863">
        <ele>9.75</ele>
        <time>2021-07-04T15:14:43Z</time>
      </trkpt>
      <trkpt lat="43.49256" lon="-1.48727">
        <ele>7.35</ele>
        <time>2021-07-04T15:14:55Z</time>
      </trkpt>
      <trkpt lat="43.49293" lon="-1.48819">
        <ele>6.39</ele>
        <time>2021-07-04T15:15:09Z</time>
      </trkpt>
      <trkpt lat="43.49311" lon="-1.48828">
        <ele>6.39</ele>
        <time>2021-07-04T15:15:12Z</time>
      </trkpt>
      <trkpt lat="43.49376" lon="-1.48862">
        <ele>6.87</ele>
        <time>2021-07-04T15:15:23Z</time>
      </trkpt>
      <trkpt lat="43.49387" lon="-1.48874">
        <ele>6.39</ele>
        <time>2021-07-04T15:15:25Z</time>
      </trkpt>
      <trkpt lat="43.49394" lon="-1.4888">
        <ele>6.39</ele>
        <time>2021-07-04T15:15:26Z</time>
      </trkpt>
      <trkpt lat="43.49399" lon="-1.48887">
        <ele>7.35</ele>
        <time>2021-07-04T15:15:27Z</time>
      </trkpt>
      <trkpt lat="43.49444" lon="-1.48996">
        <ele>8.31</ele>
        <time>2021-07-04T15:15:39Z</time>
      </trkpt>
      <trkpt lat="43.49458" lon="-1.49034">
        <ele>6.39</ele>
        <time>2021-07-04T15:15:45Z</time>
      </trkpt>
      <trkpt lat="43.4946" lon="-1.49041">
        <ele>6.39</ele>
        <time>2021-07-04T15:15:46Z</time>
      </trkpt>
      <trkpt lat="43.49462" lon="-1.49045">
        <ele>5.91</ele>
        <time>2021-07-04T15:15:47Z</time>
      </trkpt>
      <trkpt lat="43.49459" lon="-1.49053">
        <ele>5.91</ele>
        <time>2021-07-04T15:15:48Z</time>
      </trkpt>
      <trkpt lat="43.49456" lon="-1.49061">
        <ele>4.94</ele>
        <time>2021-07-04T15:15:49Z</time>
      </trkpt>
      <trkpt lat="43.49455" lon="-1.49064">
        <ele>4.46</ele>
        <time>2021-07-04T15:15:50Z</time>
      </trkpt>
      <trkpt lat="43.4945" lon="-1.49068">
        <ele>3.98</ele>
        <time>2021-07-04T15:15:51Z</time>
      </trkpt>
      <trkpt lat="43.49445" lon="-1.49072">
        <ele>3.02</ele>
        <time>2021-07-04T15:15:52Z</time>
      </trkpt>
      <trkpt lat="43.4944" lon="-1.49076">
        <ele>2.54</ele>
        <time>2021-07-04T15:15:53Z</time>
      </trkpt>
      <trkpt lat="43.49406" lon="-1.49102">
        <ele>-0.82</ele>
        <time>2021-07-04T15:16:00Z</time>
      </trkpt>
      <trkpt lat="43.49401" lon="-1.49108">
        <ele>-0.82</ele>
        <time>2021-07-04T15:16:01Z</time>
      </trkpt>
      <trkpt lat="43.49376" lon="-1.49145">
        <ele>-2.27</ele>
        <time>2021-07-04T15:16:09Z</time>
      </trkpt>
      <trkpt lat="43.49377" lon="-1.49149">
        <ele>-2.27</ele>
        <time>2021-07-04T15:16:10Z</time>
      </trkpt>
      <trkpt lat="43.49379" lon="-1.49152">
        <ele>-2.75</ele>
        <time>2021-07-04T15:16:11Z</time>
      </trkpt>
      <trkpt lat="43.49384" lon="-1.49156">
        <ele>-2.75</ele>
        <time>2021-07-04T15:16:12Z</time>
      </trkpt>
      <trkpt lat="43.49388" lon="-1.49158">
        <ele>-3.23</ele>
        <time>2021-07-04T15:16:13Z</time>
      </trkpt>
      <trkpt lat="43.49441" lon="-1.4916">
        <ele>-5.15</ele>
        <time>2021-07-04T15:16:22Z</time>
      </trkpt>
      <trkpt lat="43.49558" lon="-1.49131">
        <ele>-6.59</ele>
        <time>2021-07-04T15:16:35Z</time>
      </trkpt>
      <trkpt lat="43.4962" lon="-1.4912">
        <ele>-8.03</ele>
        <time>2021-07-04T15:16:43Z</time>
      </trkpt>
      <trkpt lat="43.4963" lon="-1.49119">
        <ele>-9</ele>
        <time>2021-07-04T15:16:44Z</time>
      </trkpt>
      <trkpt lat="43.49727" lon="-1.49126">
        <ele>-8.03</ele>
        <time>2021-07-04T15:16:55Z</time>
      </trkpt>
      <trkpt lat="43.49735" lon="-1.49125">
        <ele>-8.03</ele>
        <time>2021-07-04T15:16:56Z</time>
      </trkpt>
      <trkpt lat="43.49742" lon="-1.49122">
        <ele>-7.55</ele>
        <time>2021-07-04T15:16:57Z</time>
      </trkpt>
      <trkpt lat="43.4975" lon="-1.49118">
        <ele>-7.55</ele>
        <time>2021-07-04T15:16:58Z</time>
      </trkpt>
      <trkpt lat="43.49757" lon="-1.49115">
        <ele>-7.07</ele>
        <time>2021-07-04T15:16:59Z</time>
      </trkpt>
      <trkpt lat="43.49797" lon="-1.49091">
        <ele>-6.11</ele>
        <time>2021-07-04T15:17:08Z</time>
      </trkpt>
      <trkpt lat="43.49812" lon="-1.49079">
        <ele>-5.63</ele>
        <time>2021-07-04T15:17:32Z</time>
      </trkpt>
      <trkpt lat="43.49816" lon="-1.49074">
        <ele>-5.15</ele>
        <time>2021-07-04T15:17:34Z</time>
      </trkpt>
      <trkpt lat="43.49817" lon="-1.49082">
        <ele>-5.15</ele>
        <time>2021-07-04T15:17:35Z</time>
      </trkpt>
      <trkpt lat="43.49817" lon="-1.49086">
        <ele>-5.15</ele>
        <time>2021-07-04T15:17:36Z</time>
      </trkpt>
      <trkpt lat="43.49818" lon="-1.49092">
        <ele>-5.15</ele>
        <time>2021-07-04T15:17:37Z</time>
      </trkpt>
      <trkpt lat="43.49819" lon="-1.49098">
        <ele>-5.15</ele>
        <time>2021-07-04T15:17:38Z</time>
      </trkpt>
      <trkpt lat="43.4982" lon="-1.49106">
        <ele>-5.15</ele>
        <time>2021-07-04T15:17:39Z</time>
      </trkpt>
      <trkpt lat="43.49832" lon="-1.49227">
        <ele>-6.11</ele>
        <time>2021-07-04T15:17:49Z</time>
      </trkpt>
      <trkpt lat="43.49824" lon="-1.49343">
        <ele>-6.59</ele>
        <time>2021-07-04T15:17:59Z</time>
      </trkpt>
      <trkpt lat="43.49823" lon="-1.49349">
        <ele>-6.59</ele>
        <time>2021-07-04T15:18:00Z</time>
      </trkpt>
      <trkpt lat="43.49823" lon="-1.49354">
        <ele>-6.11</ele>
        <time>2021-07-04T15:18:01Z</time>
      </trkpt>
      <trkpt lat="43.49829" lon="-1.49362">
        <ele>-6.11</ele>
        <time>2021-07-04T15:18:02Z</time>
      </trkpt>
      <trkpt lat="43.49833" lon="-1.49364">
        <ele>-6.11</ele>
        <time>2021-07-04T15:18:03Z</time>
      </trkpt>
      <trkpt lat="43.49837" lon="-1.49367">
        <ele>-6.11</ele>
        <time>2021-07-04T15:18:04Z</time>
      </trkpt>
      <trkpt lat="43.49847" lon="-1.4938">
        <ele>-5.63</ele>
        <time>2021-07-04T15:18:05Z</time>
      </trkpt>
      <trkpt lat="43.49847" lon="-1.4938">
        <ele>-5.63</ele>
        <time>2021-07-04T15:18:06Z</time>
      </trkpt>
      <trkpt lat="43.4985" lon="-1.49389">
        <ele>-5.63</ele>
        <time>2021-07-04T15:18:07Z</time>
      </trkpt>
      <trkpt lat="43.49851" lon="-1.49408">
        <ele>-5.63</ele>
        <time>2021-07-04T15:18:08Z</time>
      </trkpt>
      <trkpt lat="43.49851" lon="-1.49408">
        <ele>-5.63</ele>
        <time>2021-07-04T15:18:09Z</time>
      </trkpt>
      <trkpt lat="43.4985" lon="-1.49417">
        <ele>-5.63</ele>
        <time>2021-07-04T15:18:10Z</time>
      </trkpt>
      <trkpt lat="43.49848" lon="-1.49426">
        <ele>-6.11</ele>
        <time>2021-07-04T15:18:11Z</time>
      </trkpt>
      <trkpt lat="43.49843" lon="-1.49435">
        <ele>-6.11</ele>
        <time>2021-07-04T15:18:12Z</time>
      </trkpt>
      <trkpt lat="43.49834" lon="-1.4945">
        <ele>-6.59</ele>
        <time>2021-07-04T15:18:13Z</time>
      </trkpt>
      <trkpt lat="43.49834" lon="-1.4945">
        <ele>-6.59</ele>
        <time>2021-07-04T15:18:14Z</time>
      </trkpt>
      <trkpt lat="43.49827" lon="-1.49457">
        <ele>-7.07</ele>
        <time>2021-07-04T15:18:15Z</time>
      </trkpt>
      <trkpt lat="43.49819" lon="-1.49461">
        <ele>-7.07</ele>
        <time>2021-07-04T15:18:16Z</time>
      </trkpt>
      <trkpt lat="43.49807" lon="-1.49468">
        <ele>-6.59</ele>
        <time>2021-07-04T15:18:18Z</time>
      </trkpt>
      <trkpt lat="43.49793" lon="-1.49477">
        <ele>-7.07</ele>
        <time>2021-07-04T15:18:19Z</time>
      </trkpt>
      <trkpt lat="43.49791" lon="-1.49487">
        <ele>-7.07</ele>
        <time>2021-07-04T15:18:20Z</time>
      </trkpt>
      <trkpt lat="43.49785" lon="-1.49508">
        <ele>-7.07</ele>
        <time>2021-07-04T15:18:21Z</time>
      </trkpt>
      <trkpt lat="43.49782" lon="-1.4952">
        <ele>-7.07</ele>
        <time>2021-07-04T15:18:22Z</time>
      </trkpt>
      <trkpt lat="43.49737" lon="-1.49658">
        <ele>-11.88</ele>
        <time>2021-07-04T15:18:32Z</time>
      </trkpt>
      <trkpt lat="43.49692" lon="-1.49862">
        <ele>-8.51</ele>
        <time>2021-07-04T15:18:43Z</time>
      </trkpt>
      <trkpt lat="43.49703" lon="-1.50069">
        <ele>-1.79</ele>
        <time>2021-07-04T15:18:51Z</time>
      </trkpt>
      <trkpt lat="43.4974" lon="-1.50316">
        <ele>3.98</ele>
        <time>2021-07-04T15:19:02Z</time>
      </trkpt>
      <trkpt lat="43.49768" lon="-1.50615">
        <ele>4.46</ele>
        <time>2021-07-04T15:19:14Z</time>
      </trkpt>
      <trkpt lat="43.49743" lon="-1.50783">
        <ele>5.91</ele>
        <time>2021-07-04T15:19:21Z</time>
      </trkpt>
      <trkpt lat="43.49743" lon="-1.50783">
        <ele>6.39</ele>
        <time>2021-07-04T15:19:22Z</time>
      </trkpt>
      <trkpt lat="43.49735" lon="-1.50798">
        <ele>5.91</ele>
        <time>2021-07-04T15:19:23Z</time>
      </trkpt>
      <trkpt lat="43.49728" lon="-1.50811">
        <ele>6.87</ele>
        <time>2021-07-04T15:19:24Z</time>
      </trkpt>
      <trkpt lat="43.49721" lon="-1.50824">
        <ele>6.39</ele>
        <time>2021-07-04T15:19:25Z</time>
      </trkpt>
      <trkpt lat="43.49712" lon="-1.50842">
        <ele>7.83</ele>
        <time>2021-07-04T15:19:27Z</time>
      </trkpt>
      <trkpt lat="43.49708" lon="-1.50847">
        <ele>7.83</ele>
        <time>2021-07-04T15:19:28Z</time>
      </trkpt>
      <trkpt lat="43.49705" lon="-1.50851">
        <ele>7.35</ele>
        <time>2021-07-04T15:19:29Z</time>
      </trkpt>
      <trkpt lat="43.49708" lon="-1.50862">
        <ele>7.35</ele>
        <time>2021-07-04T15:19:30Z</time>
      </trkpt>
      <trkpt lat="43.49711" lon="-1.50865">
        <ele>7.83</ele>
        <time>2021-07-04T15:19:31Z</time>
      </trkpt>
      <trkpt lat="43.49716" lon="-1.5087">
        <ele>7.83</ele>
        <time>2021-07-04T15:19:32Z</time>
      </trkpt>
      <trkpt lat="43.4972" lon="-1.50878">
        <ele>7.83</ele>
        <time>2021-07-04T15:19:33Z</time>
      </trkpt>
      <trkpt lat="43.49723" lon="-1.50887">
        <ele>8.31</ele>
        <time>2021-07-04T15:19:34Z</time>
      </trkpt>
      <trkpt lat="43.49727" lon="-1.50909">
        <ele>8.31</ele>
        <time>2021-07-04T15:19:35Z</time>
      </trkpt>
      <trkpt lat="43.4973" lon="-1.50932">
        <ele>9.27</ele>
        <time>2021-07-04T15:19:38Z</time>
      </trkpt>
      <trkpt lat="43.49732" lon="-1.50943">
        <ele>9.75</ele>
        <time>2021-07-04T15:19:39Z</time>
      </trkpt>
      <trkpt lat="43.49731" lon="-1.50954">
        <ele>10.23</ele>
        <time>2021-07-04T15:19:40Z</time>
      </trkpt>
      <trkpt lat="43.49728" lon="-1.50964">
        <ele>10.23</ele>
        <time>2021-07-04T15:19:41Z</time>
      </trkpt>
      <trkpt lat="43.49723" lon="-1.50972">
        <ele>10.71</ele>
        <time>2021-07-04T15:19:42Z</time>
      </trkpt>
      <trkpt lat="43.49719" lon="-1.50978">
        <ele>11.19</ele>
        <time>2021-07-04T15:19:43Z</time>
      </trkpt>
      <trkpt lat="43.49712" lon="-1.50983">
        <ele>11.19</ele>
        <time>2021-07-04T15:19:44Z</time>
      </trkpt>
      <trkpt lat="43.49708" lon="-1.50985">
        <ele>11.19</ele>
        <time>2021-07-04T15:19:45Z</time>
      </trkpt>
      <trkpt lat="43.49683" lon="-1.50994">
        <ele>12.15</ele>
        <time>2021-07-04T15:19:46Z</time>
      </trkpt>
      <trkpt lat="43.49683" lon="-1.50994">
        <ele>12.63</ele>
        <time>2021-07-04T15:19:47Z</time>
      </trkpt>
      <trkpt lat="43.4968" lon="-1.51005">
        <ele>11.67</ele>
        <time>2021-07-04T15:19:48Z</time>
      </trkpt>
      <trkpt lat="43.49676" lon="-1.51016">
        <ele>11.19</ele>
        <time>2021-07-04T15:19:49Z</time>
      </trkpt>
      <trkpt lat="43.49672" lon="-1.51028">
        <ele>10.71</ele>
        <time>2021-07-04T15:19:50Z</time>
      </trkpt>
      <trkpt lat="43.49611" lon="-1.51221">
        <ele>10.23</ele>
        <time>2021-07-04T15:20:02Z</time>
      </trkpt>
      <trkpt lat="43.49531" lon="-1.51502">
        <ele>5.91</ele>
        <time>2021-07-04T15:20:16Z</time>
      </trkpt>
      <trkpt lat="43.49465" lon="-1.51732">
        <ele>8.31</ele>
        <time>2021-07-04T15:20:28Z</time>
      </trkpt>
      <trkpt lat="43.4945" lon="-1.51809">
        <ele>9.27</ele>
        <time>2021-07-04T15:20:33Z</time>
      </trkpt>
      <trkpt lat="43.4945" lon="-1.51809">
        <ele>10.23</ele>
        <time>2021-07-04T15:20:34Z</time>
      </trkpt>
      <trkpt lat="43.49449" lon="-1.51817">
        <ele>10.23</ele>
        <time>2021-07-04T15:20:35Z</time>
      </trkpt>
      <trkpt lat="43.49448" lon="-1.51826">
        <ele>11.19</ele>
        <time>2021-07-04T15:20:36Z</time>
      </trkpt>
      <trkpt lat="43.49447" lon="-1.51837">
        <ele>12.15</ele>
        <time>2021-07-04T15:20:37Z</time>
      </trkpt>
      <trkpt lat="43.4945" lon="-1.51843">
        <ele>12.63</ele>
        <time>2021-07-04T15:20:38Z</time>
      </trkpt>
      <trkpt lat="43.49452" lon="-1.51855">
        <ele>13.6</ele>
        <time>2021-07-04T15:20:39Z</time>
      </trkpt>
      <trkpt lat="43.49451" lon="-1.51864">
        <ele>14.08</ele>
        <time>2021-07-04T15:20:40Z</time>
      </trkpt>
      <trkpt lat="43.4945" lon="-1.51874">
        <ele>15.04</ele>
        <time>2021-07-04T15:20:41Z</time>
      </trkpt>
      <trkpt lat="43.49442" lon="-1.5189">
        <ele>16.48</ele>
        <time>2021-07-04T15:20:42Z</time>
      </trkpt>
      <trkpt lat="43.49442" lon="-1.5189">
        <ele>17.92</ele>
        <time>2021-07-04T15:20:43Z</time>
      </trkpt>
      <trkpt lat="43.49437" lon="-1.51893">
        <ele>18.88</ele>
        <time>2021-07-04T15:20:44Z</time>
      </trkpt>
      <trkpt lat="43.49423" lon="-1.51905">
        <ele>18.88</ele>
        <time>2021-07-04T15:20:45Z</time>
      </trkpt>
      <trkpt lat="43.49423" lon="-1.51905">
        <ele>18.4</ele>
        <time>2021-07-04T15:20:46Z</time>
      </trkpt>
      <trkpt lat="43.49419" lon="-1.51913">
        <ele>18.88</ele>
        <time>2021-07-04T15:20:47Z</time>
      </trkpt>
      <trkpt lat="43.49383" lon="-1.52036">
        <ele>19.36</ele>
        <time>2021-07-04T15:20:55Z</time>
      </trkpt>
      <trkpt lat="43.49368" lon="-1.52203">
        <ele>21.77</ele>
        <time>2021-07-04T15:21:03Z</time>
      </trkpt>
      <trkpt lat="43.49379" lon="-1.52335">
        <ele>25.61</ele>
        <time>2021-07-04T15:21:11Z</time>
      </trkpt>
      <trkpt lat="43.49402" lon="-1.52565">
        <ele>31.38</ele>
        <time>2021-07-04T15:21:25Z</time>
      </trkpt>
      <trkpt lat="43.49402" lon="-1.52565">
        <ele>31.86</ele>
        <time>2021-07-04T15:21:26Z</time>
      </trkpt>
      <trkpt lat="43.4941" lon="-1.52572">
        <ele>31.86</ele>
        <time>2021-07-04T15:21:27Z</time>
      </trkpt>
      <trkpt lat="43.49416" lon="-1.52581">
        <ele>31.86</ele>
        <time>2021-07-04T15:21:28Z</time>
      </trkpt>
      <trkpt lat="43.49423" lon="-1.5259">
        <ele>32.34</ele>
        <time>2021-07-04T15:21:29Z</time>
      </trkpt>
      <trkpt lat="43.49436" lon="-1.5261">
        <ele>32.34</ele>
        <time>2021-07-04T15:21:31Z</time>
      </trkpt>
      <trkpt lat="43.49443" lon="-1.52621">
        <ele>32.82</ele>
        <time>2021-07-04T15:21:32Z</time>
      </trkpt>
      <trkpt lat="43.49454" lon="-1.52644">
        <ele>32.82</ele>
        <time>2021-07-04T15:21:33Z</time>
      </trkpt>
      <trkpt lat="43.49454" lon="-1.52644">
        <ele>33.78</ele>
        <time>2021-07-04T15:21:34Z</time>
      </trkpt>
      <trkpt lat="43.49457" lon="-1.5267">
        <ele>33.3</ele>
        <time>2021-07-04T15:21:35Z</time>
      </trkpt>
      <trkpt lat="43.49457" lon="-1.5267">
        <ele>32.82</ele>
        <time>2021-07-04T15:21:36Z</time>
      </trkpt>
      <trkpt lat="43.49461" lon="-1.52773">
        <ele>37.15</ele>
        <time>2021-07-04T15:21:47Z</time>
      </trkpt>
      <trkpt lat="43.49469" lon="-1.52798">
        <ele>38.59</ele>
        <time>2021-07-04T15:21:56Z</time>
      </trkpt>
      <trkpt lat="43.49473" lon="-1.52801">
        <ele>39.07</ele>
        <time>2021-07-04T15:21:57Z</time>
      </trkpt>
      <trkpt lat="43.49476" lon="-1.52809">
        <ele>39.55</ele>
        <time>2021-07-04T15:21:58Z</time>
      </trkpt>
      <trkpt lat="43.49478" lon="-1.52815">
        <ele>40.03</ele>
        <time>2021-07-04T15:21:59Z</time>
      </trkpt>
      <trkpt lat="43.49477" lon="-1.52824">
        <ele>40.03</ele>
        <time>2021-07-04T15:22:00Z</time>
      </trkpt>
      <trkpt lat="43.49475" lon="-1.5283">
        <ele>40.03</ele>
        <time>2021-07-04T15:22:01Z</time>
      </trkpt>
      <trkpt lat="43.49472" lon="-1.52839">
        <ele>40.51</ele>
        <time>2021-07-04T15:22:02Z</time>
      </trkpt>
      <trkpt lat="43.49472" lon="-1.52839">
        <ele>40.51</ele>
        <time>2021-07-04T15:22:03Z</time>
      </trkpt>
      <trkpt lat="43.49457" lon="-1.5288">
        <ele>37.63</ele>
        <time>2021-07-04T15:22:13Z</time>
      </trkpt>
      <trkpt lat="43.49459" lon="-1.52888">
        <ele>37.63</ele>
        <time>2021-07-04T15:22:15Z</time>
      </trkpt>
      <trkpt lat="43.49459" lon="-1.52891">
        <ele>37.63</ele>
        <time>2021-07-04T15:22:16Z</time>
      </trkpt>
      <trkpt lat="43.4946" lon="-1.52893">
        <ele>37.63</ele>
        <time>2021-07-04T15:22:17Z</time>
      </trkpt>
      <trkpt lat="43.49474" lon="-1.52907">
        <ele>37.63</ele>
        <time>2021-07-04T15:22:28Z</time>
      </trkpt>
      <trkpt lat="43.49488" lon="-1.52932">
        <ele>38.59</ele>
        <time>2021-07-04T15:22:39Z</time>
      </trkpt>
      <trkpt lat="43.49492" lon="-1.53003">
        <ele>38.59</ele>
        <time>2021-07-04T15:22:52Z</time>
      </trkpt>
      <trkpt lat="43.49493" lon="-1.5313">
        <ele>36.67</ele>
        <time>2021-07-04T15:23:07Z</time>
      </trkpt>
      <trkpt lat="43.49499" lon="-1.53242">
        <ele>31.86</ele>
        <time>2021-07-04T15:23:21Z</time>
      </trkpt>
      <trkpt lat="43.49503" lon="-1.53313">
        <ele>28.98</ele>
        <time>2021-07-04T15:23:31Z</time>
      </trkpt>
      <trkpt lat="43.49504" lon="-1.5332">
        <ele>28.98</ele>
        <time>2021-07-04T15:23:41Z</time>
      </trkpt>
      <trkpt lat="43.49505" lon="-1.53349">
        <ele>28.98</ele>
        <time>2021-07-04T15:23:56Z</time>
      </trkpt>
      <trkpt lat="43.49515" lon="-1.53415">
        <ele>31.38</ele>
        <time>2021-07-04T15:24:03Z</time>
      </trkpt>
      <trkpt lat="43.49515" lon="-1.53426">
        <ele>31.86</ele>
        <time>2021-07-04T15:24:04Z</time>
      </trkpt>
      <trkpt lat="43.49516" lon="-1.53458">
        <ele>32.82</ele>
        <time>2021-07-04T15:24:07Z</time>
      </trkpt>
      <trkpt lat="43.49518" lon="-1.53468">
        <ele>32.82</ele>
        <time>2021-07-04T15:24:08Z</time>
      </trkpt>
      <trkpt lat="43.49521" lon="-1.53489">
        <ele>33.3</ele>
        <time>2021-07-04T15:24:09Z</time>
      </trkpt>
      <trkpt lat="43.49521" lon="-1.53489">
        <ele>33.3</ele>
        <time>2021-07-04T15:24:10Z</time>
      </trkpt>
      <trkpt lat="43.49525" lon="-1.535">
        <ele>33.3</ele>
        <time>2021-07-04T15:24:11Z</time>
      </trkpt>
      <trkpt lat="43.49559" lon="-1.53584">
        <ele>30.9</ele>
        <time>2021-07-04T15:24:21Z</time>
      </trkpt>
      <trkpt lat="43.49604" lon="-1.5368">
        <ele>27.05</ele>
        <time>2021-07-04T15:24:37Z</time>
      </trkpt>
      <trkpt lat="43.4964" lon="-1.53769">
        <ele>23.69</ele>
        <time>2021-07-04T15:24:50Z</time>
      </trkpt>
      <trkpt lat="43.49649" lon="-1.53793">
        <ele>22.73</ele>
        <time>2021-07-04T15:24:54Z</time>
      </trkpt>
      <trkpt lat="43.49651" lon="-1.53799">
        <ele>22.25</ele>
        <time>2021-07-04T15:24:55Z</time>
      </trkpt>
      <trkpt lat="43.49654" lon="-1.53805">
        <ele>22.25</ele>
        <time>2021-07-04T15:24:56Z</time>
      </trkpt>
      <trkpt lat="43.49666" lon="-1.53812">
        <ele>23.21</ele>
        <time>2021-07-04T15:24:58Z</time>
      </trkpt>
      <trkpt lat="43.49671" lon="-1.53816">
        <ele>23.21</ele>
        <time>2021-07-04T15:24:59Z</time>
      </trkpt>
      <trkpt lat="43.49676" lon="-1.53829">
        <ele>23.21</ele>
        <time>2021-07-04T15:25:01Z</time>
      </trkpt>
      <trkpt lat="43.49684" lon="-1.53834">
        <ele>23.21</ele>
        <time>2021-07-04T15:25:02Z</time>
      </trkpt>
      <trkpt lat="43.49684" lon="-1.53834">
        <ele>23.21</ele>
        <time>2021-07-04T15:25:03Z</time>
      </trkpt>
      <trkpt lat="43.49714" lon="-1.5385">
        <ele>22.73</ele>
        <time>2021-07-04T15:25:08Z</time>
      </trkpt>
      <trkpt lat="43.49722" lon="-1.53854">
        <ele>22.73</ele>
        <time>2021-07-04T15:25:09Z</time>
      </trkpt>
      <trkpt lat="43.49811" lon="-1.53864">
        <ele>22.25</ele>
        <time>2021-07-04T15:25:21Z</time>
      </trkpt>
      <trkpt lat="43.49844" lon="-1.53869">
        <ele>22.73</ele>
        <time>2021-07-04T15:25:26Z</time>
      </trkpt>
      <trkpt lat="43.4985" lon="-1.5387">
        <ele>23.21</ele>
        <time>2021-07-04T15:25:27Z</time>
      </trkpt>
      <trkpt lat="43.49855" lon="-1.53872">
        <ele>23.21</ele>
        <time>2021-07-04T15:25:28Z</time>
      </trkpt>
      <trkpt lat="43.4986" lon="-1.53879">
        <ele>23.21</ele>
        <time>2021-07-04T15:25:29Z</time>
      </trkpt>
      <trkpt lat="43.49866" lon="-1.53887">
        <ele>22.73</ele>
        <time>2021-07-04T15:25:30Z</time>
      </trkpt>
      <trkpt lat="43.49871" lon="-1.53895">
        <ele>22.73</ele>
        <time>2021-07-04T15:25:31Z</time>
      </trkpt>
      <trkpt lat="43.49891" lon="-1.53924">
        <ele>21.77</ele>
        <time>2021-07-04T15:25:35Z</time>
      </trkpt>
      <trkpt lat="43.49894" lon="-1.53931">
        <ele>21.77</ele>
        <time>2021-07-04T15:25:36Z</time>
      </trkpt>
      <trkpt lat="43.49908" lon="-1.53978">
        <ele>19.84</ele>
        <time>2021-07-04T15:25:44Z</time>
      </trkpt>
      <trkpt lat="43.49925" lon="-1.5403">
        <ele>18.4</ele>
        <time>2021-07-04T15:25:51Z</time>
      </trkpt>
      <trkpt lat="43.49929" lon="-1.54034">
        <ele>17.92</ele>
        <time>2021-07-04T15:25:52Z</time>
      </trkpt>
      <trkpt lat="43.49932" lon="-1.54038">
        <ele>17.92</ele>
        <time>2021-07-04T15:25:53Z</time>
      </trkpt>
      <trkpt lat="43.49935" lon="-1.54041">
        <ele>17.44</ele>
        <time>2021-07-04T15:25:54Z</time>
      </trkpt>
      <trkpt lat="43.49943" lon="-1.54042">
        <ele>16.96</ele>
        <time>2021-07-04T15:25:55Z</time>
      </trkpt>
      <trkpt lat="43.49943" lon="-1.54042">
        <ele>16.48</ele>
        <time>2021-07-04T15:25:56Z</time>
      </trkpt>
      <trkpt lat="43.49946" lon="-1.54038">
        <ele>16.48</ele>
        <time>2021-07-04T15:25:57Z</time>
      </trkpt>
      <trkpt lat="43.49953" lon="-1.54033">
        <ele>16</ele>
        <time>2021-07-04T15:25:58Z</time>
      </trkpt>
      <trkpt lat="43.49962" lon="-1.54039">
        <ele>16</ele>
        <time>2021-07-04T15:26:00Z</time>
      </trkpt>
      <trkpt lat="43.49968" lon="-1.54036">
        <ele>16</ele>
        <time>2021-07-04T15:26:01Z</time>
      </trkpt>
      <trkpt lat="43.49972" lon="-1.54032">
        <ele>15.52</ele>
        <time>2021-07-04T15:26:02Z</time>
      </trkpt>
      <trkpt lat="43.49976" lon="-1.54028">
        <ele>15.52</ele>
        <time>2021-07-04T15:26:03Z</time>
      </trkpt>
      <trkpt lat="43.4998" lon="-1.54024">
        <ele>15.04</ele>
        <time>2021-07-04T15:26:04Z</time>
      </trkpt>
      <trkpt lat="43.49984" lon="-1.5402">
        <ele>15.04</ele>
        <time>2021-07-04T15:26:05Z</time>
      </trkpt>
      <trkpt lat="43.49989" lon="-1.54015">
        <ele>14.56</ele>
        <time>2021-07-04T15:26:06Z</time>
      </trkpt>
      <trkpt lat="43.49995" lon="-1.54003">
        <ele>14.08</ele>
        <time>2021-07-04T15:26:07Z</time>
      </trkpt>
      <trkpt lat="43.49995" lon="-1.54003">
        <ele>13.6</ele>
        <time>2021-07-04T15:26:08Z</time>
      </trkpt>
      <trkpt lat="43.49997" lon="-1.53995">
        <ele>13.12</ele>
        <time>2021-07-04T15:26:09Z</time>
      </trkpt>
      <trkpt lat="43.49999" lon="-1.53988">
        <ele>12.63</ele>
        <time>2021-07-04T15:26:10Z</time>
      </trkpt>
      <trkpt lat="43.50001" lon="-1.5398">
        <ele>12.63</ele>
        <time>2021-07-04T15:26:11Z</time>
      </trkpt>
      <trkpt lat="43.50004" lon="-1.53972">
        <ele>12.15</ele>
        <time>2021-07-04T15:26:12Z</time>
      </trkpt>
      <trkpt lat="43.50008" lon="-1.53957">
        <ele>11.19</ele>
        <time>2021-07-04T15:26:14Z</time>
      </trkpt>
      <trkpt lat="43.50011" lon="-1.53949">
        <ele>10.71</ele>
        <time>2021-07-04T15:26:15Z</time>
      </trkpt>
      <trkpt lat="43.50014" lon="-1.53942">
        <ele>10.23</ele>
        <time>2021-07-04T15:26:16Z</time>
      </trkpt>
      <trkpt lat="43.50018" lon="-1.53935">
        <ele>9.75</ele>
        <time>2021-07-04T15:26:17Z</time>
      </trkpt>
      <trkpt lat="43.50022" lon="-1.53927">
        <ele>8.79</ele>
        <time>2021-07-04T15:26:18Z</time>
      </trkpt>
      <trkpt lat="43.50026" lon="-1.5392">
        <ele>8.31</ele>
        <time>2021-07-04T15:26:19Z</time>
      </trkpt>
      <trkpt lat="43.50031" lon="-1.53913">
        <ele>7.83</ele>
        <time>2021-07-04T15:26:20Z</time>
      </trkpt>
      <trkpt lat="43.50081" lon="-1.53855">
        <ele>3.98</ele>
        <time>2021-07-04T15:26:30Z</time>
      </trkpt>
      <trkpt lat="43.50084" lon="-1.5385">
        <ele>3.98</ele>
        <time>2021-07-04T15:26:31Z</time>
      </trkpt>
      <trkpt lat="43.50087" lon="-1.53844">
        <ele>3.98</ele>
        <time>2021-07-04T15:26:32Z</time>
      </trkpt>
      <trkpt lat="43.50089" lon="-1.5383">
        <ele>3.98</ele>
        <time>2021-07-04T15:26:34Z</time>
      </trkpt>
      <trkpt lat="43.5009" lon="-1.53824">
        <ele>3.98</ele>
        <time>2021-07-04T15:26:35Z</time>
      </trkpt>
      <trkpt lat="43.50098" lon="-1.53819">
        <ele>3.98</ele>
        <time>2021-07-04T15:26:36Z</time>
      </trkpt>
      <trkpt lat="43.50103" lon="-1.53818">
        <ele>3.98</ele>
        <time>2021-07-04T15:26:37Z</time>
      </trkpt>
      <trkpt lat="43.50109" lon="-1.53813">
        <ele>3.98</ele>
        <time>2021-07-04T15:26:38Z</time>
      </trkpt>
      <trkpt lat="43.50114" lon="-1.53808">
        <ele>3.98</ele>
        <time>2021-07-04T15:26:39Z</time>
      </trkpt>
      <trkpt lat="43.50119" lon="-1.53803">
        <ele>3.98</ele>
        <time>2021-07-04T15:26:40Z</time>
      </trkpt>
      <trkpt lat="43.50164" lon="-1.53758">
        <ele>3.5</ele>
        <time>2021-07-04T15:26:50Z</time>
      </trkpt>
      <trkpt lat="43.50183" lon="-1.53743">
        <ele>3.5</ele>
        <time>2021-07-04T15:27:00Z</time>
      </trkpt>
      <trkpt lat="43.50225" lon="-1.53705">
        <ele>3.5</ele>
        <time>2021-07-04T15:27:10Z</time>
      </trkpt>
      <trkpt lat="43.50299" lon="-1.53649">
        <ele>3.5</ele>
        <time>2021-07-04T15:27:24Z</time>
      </trkpt>
      <trkpt lat="43.50334" lon="-1.53629">
        <ele>3.5</ele>
        <time>2021-07-04T15:27:36Z</time>
      </trkpt>
      <trkpt lat="43.50379" lon="-1.53596">
        <ele>3.5</ele>
        <time>2021-07-04T15:27:44Z</time>
      </trkpt>
      <trkpt lat="43.50491" lon="-1.53508">
        <ele>0.62</ele>
        <time>2021-07-04T15:27:59Z</time>
      </trkpt>
      <trkpt lat="43.50531" lon="-1.53475">
        <ele>1.1</ele>
        <time>2021-07-04T15:28:07Z</time>
      </trkpt>
      <trkpt lat="43.50578" lon="-1.53442">
        <ele>0.62</ele>
        <time>2021-07-04T15:28:18Z</time>
      </trkpt>
      <trkpt lat="43.50664" lon="-1.53385">
        <ele>-0.82</ele>
        <time>2021-07-04T15:28:30Z</time>
      </trkpt>
      <trkpt lat="43.50691" lon="-1.53367">
        <ele>1.58</ele>
        <time>2021-07-04T15:28:36Z</time>
      </trkpt>
      <trkpt lat="43.50693" lon="-1.53365">
        <ele>1.58</ele>
        <time>2021-07-04T15:28:37Z</time>
      </trkpt>
      <trkpt lat="43.50692" lon="-1.5337">
        <ele>0.62</ele>
        <time>2021-07-04T15:28:38Z</time>
      </trkpt>
      <trkpt lat="43.50693" lon="-1.53373">
        <ele>0.62</ele>
        <time>2021-07-04T15:28:39Z</time>
      </trkpt>
      <trkpt lat="43.50694" lon="-1.53376">
        <ele>1.1</ele>
        <time>2021-07-04T15:28:40Z</time>
      </trkpt>
      <trkpt lat="43.50695" lon="-1.53379">
        <ele>1.1</ele>
        <time>2021-07-04T15:28:41Z</time>
      </trkpt>
    </trkseg>
  </trk>
  <trk>
    <name><![CDATA[Journal actif: 2021-07-04 13:35]]></name>
    <trkseg>
      <trkpt lat="43.50706" lon="-1.53419">
        <ele>5.42</ele>
        <time>2021-07-04T15:35:04Z</time>
      </trkpt>
      <trkpt lat="43.50706" lon="-1.53419">
        <ele>3.5</ele>
        <time>2021-07-04T15:35:20Z</time>
      </trkpt>
      <trkpt lat="43.50706" lon="-1.53419">
        <ele>2.06</ele>
        <time>2021-07-04T15:35:39Z</time>
      </trkpt>
      <trkpt lat="43.50706" lon="-1.53419">
        <ele>1.58</ele>
        <time>2021-07-04T15:36:04Z</time>
      </trkpt>
      <trkpt lat="43.50706" lon="-1.53419">
        <ele>1.1</ele>
        <time>2021-07-04T15:36:23Z</time>
      </trkpt>
      <trkpt lat="43.5067" lon="-1.53381">
        <ele>1.58</ele>
        <time>2021-07-04T15:36:32Z</time>
      </trkpt>
      <trkpt lat="43.50608" lon="-1.53422">
        <ele>2.54</ele>
        <time>2021-07-04T15:36:42Z</time>
      </trkpt>
      <trkpt lat="43.50516" lon="-1.53487">
        <ele>3.02</ele>
        <time>2021-07-04T15:36:58Z</time>
      </trkpt>
      <trkpt lat="43.50413" lon="-1.53571">
        <ele>3.98</ele>
        <time>2021-07-04T15:37:11Z</time>
      </trkpt>
      <trkpt lat="43.50332" lon="-1.53631">
        <ele>3.02</ele>
        <time>2021-07-04T15:37:23Z</time>
      </trkpt>
      <trkpt lat="43.50325" lon="-1.5365">
        <ele>2.54</ele>
        <time>2021-07-04T15:37:28Z</time>
      </trkpt>
      <trkpt lat="43.50322" lon="-1.53652">
        <ele>2.54</ele>
        <time>2021-07-04T15:37:29Z</time>
      </trkpt>
      <trkpt lat="43.50283" lon="-1.53672">
        <ele>3.02</ele>
        <time>2021-07-04T15:37:39Z</time>
      </trkpt>
      <trkpt lat="43.50198" lon="-1.53737">
        <ele>3.5</ele>
        <time>2021-07-04T15:37:54Z</time>
      </trkpt>
      <trkpt lat="43.50143" lon="-1.53789">
        <ele>3.5</ele>
        <time>2021-07-04T15:38:08Z</time>
      </trkpt>
      <trkpt lat="43.5011" lon="-1.5384">
        <ele>2.54</ele>
        <time>2021-07-04T15:38:19Z</time>
      </trkpt>
      <trkpt lat="43.50103" lon="-1.53849">
        <ele>2.54</ele>
        <time>2021-07-04T15:38:21Z</time>
      </trkpt>
      <trkpt lat="43.50103" lon="-1.53849">
        <ele>2.54</ele>
        <time>2021-07-04T15:38:22Z</time>
      </trkpt>
      <trkpt lat="43.50099" lon="-1.53852">
        <ele>3.02</ele>
        <time>2021-07-04T15:38:23Z</time>
      </trkpt>
      <trkpt lat="43.50099" lon="-1.53852">
        <ele>3.02</ele>
        <time>2021-07-04T15:38:24Z</time>
      </trkpt>
      <trkpt lat="43.50085" lon="-1.53848">
        <ele>3.5</ele>
        <time>2021-07-04T15:38:25Z</time>
      </trkpt>
      <trkpt lat="43.50078" lon="-1.53858">
        <ele>3.5</ele>
        <time>2021-07-04T15:38:26Z</time>
      </trkpt>
      <trkpt lat="43.50078" lon="-1.53858">
        <ele>3.98</ele>
        <time>2021-07-04T15:38:27Z</time>
      </trkpt>
      <trkpt lat="43.50025" lon="-1.5392">
        <ele>7.83</ele>
        <time>2021-07-04T15:38:36Z</time>
      </trkpt>
      <trkpt lat="43.50021" lon="-1.53929">
        <ele>8.31</ele>
        <time>2021-07-04T15:38:37Z</time>
      </trkpt>
      <trkpt lat="43.50016" lon="-1.53938">
        <ele>8.79</ele>
        <time>2021-07-04T15:38:38Z</time>
      </trkpt>
      <trkpt lat="43.50012" lon="-1.53946">
        <ele>9.27</ele>
        <time>2021-07-04T15:38:39Z</time>
      </trkpt>
      <trkpt lat="43.50009" lon="-1.53956">
        <ele>10.23</ele>
        <time>2021-07-04T15:38:40Z</time>
      </trkpt>
      <trkpt lat="43.50006" lon="-1.53966">
        <ele>10.71</ele>
        <time>2021-07-04T15:38:41Z</time>
      </trkpt>
      <trkpt lat="43.5" lon="-1.53985">
        <ele>11.67</ele>
        <time>2021-07-04T15:38:43Z</time>
      </trkpt>
      <trkpt lat="43.49997" lon="-1.53994">
        <ele>12.15</ele>
        <time>2021-07-04T15:38:44Z</time>
      </trkpt>
      <trkpt lat="43.49994" lon="-1.54003">
        <ele>12.15</ele>
        <time>2021-07-04T15:38:45Z</time>
      </trkpt>
      <trkpt lat="43.49992" lon="-1.54012">
        <ele>12.63</ele>
        <time>2021-07-04T15:38:46Z</time>
      </trkpt>
      <trkpt lat="43.49987" lon="-1.54017">
        <ele>12.63</ele>
        <time>2021-07-04T15:38:47Z</time>
      </trkpt>
      <trkpt lat="43.49982" lon="-1.54022">
        <ele>12.63</ele>
        <time>2021-07-04T15:38:48Z</time>
      </trkpt>
      <trkpt lat="43.49977" lon="-1.54027">
        <ele>12.63</ele>
        <time>2021-07-04T15:38:49Z</time>
      </trkpt>
      <trkpt lat="43.49973" lon="-1.54032">
        <ele>13.12</ele>
        <time>2021-07-04T15:38:50Z</time>
      </trkpt>
      <trkpt lat="43.49968" lon="-1.54036">
        <ele>13.12</ele>
        <time>2021-07-04T15:38:51Z</time>
      </trkpt>
      <trkpt lat="43.49963" lon="-1.5405">
        <ele>13.12</ele>
        <time>2021-07-04T15:38:56Z</time>
      </trkpt>
      <trkpt lat="43.49962" lon="-1.54059">
        <ele>12.63</ele>
        <time>2021-07-04T15:38:57Z</time>
      </trkpt>
      <trkpt lat="43.49962" lon="-1.54059">
        <ele>12.63</ele>
        <time>2021-07-04T15:38:58Z</time>
      </trkpt>
      <trkpt lat="43.49957" lon="-1.54064">
        <ele>12.63</ele>
        <time>2021-07-04T15:38:59Z</time>
      </trkpt>
      <trkpt lat="43.49951" lon="-1.54064">
        <ele>13.12</ele>
        <time>2021-07-04T15:39:00Z</time>
      </trkpt>
      <trkpt lat="43.49947" lon="-1.54064">
        <ele>13.12</ele>
        <time>2021-07-04T15:39:01Z</time>
      </trkpt>
      <trkpt lat="43.49944" lon="-1.5406">
        <ele>13.12</ele>
        <time>2021-07-04T15:39:02Z</time>
      </trkpt>
      <trkpt lat="43.49944" lon="-1.5406">
        <ele>13.12</ele>
        <time>2021-07-04T15:39:03Z</time>
      </trkpt>
      <trkpt lat="43.49942" lon="-1.54058">
        <ele>13.6</ele>
        <time>2021-07-04T15:39:04Z</time>
      </trkpt>
      <trkpt lat="43.49929" lon="-1.54035">
        <ele>14.56</ele>
        <time>2021-07-04T15:39:08Z</time>
      </trkpt>
      <trkpt lat="43.49922" lon="-1.54024">
        <ele>14.56</ele>
        <time>2021-07-04T15:39:09Z</time>
      </trkpt>
      <trkpt lat="43.49922" lon="-1.54024">
        <ele>15.04</ele>
        <time>2021-07-04T15:39:10Z</time>
      </trkpt>
      <trkpt lat="43.49914" lon="-1.53999">
        <ele>16</ele>
        <time>2021-07-04T15:39:12Z</time>
      </trkpt>
      <trkpt lat="43.49914" lon="-1.53999">
        <ele>16</ele>
        <time>2021-07-04T15:39:13Z</time>
      </trkpt>
      <trkpt lat="43.49911" lon="-1.53991">
        <ele>16.48</ele>
        <time>2021-07-04T15:39:14Z</time>
      </trkpt>
      <trkpt lat="43.49906" lon="-1.53967">
        <ele>16.96</ele>
        <time>2021-07-04T15:39:17Z</time>
      </trkpt>
      <trkpt lat="43.49904" lon="-1.53959">
        <ele>17.44</ele>
        <time>2021-07-04T15:39:18Z</time>
      </trkpt>
      <trkpt lat="43.49901" lon="-1.53952">
        <ele>17.44</ele>
        <time>2021-07-04T15:39:19Z</time>
      </trkpt>
      <trkpt lat="43.49898" lon="-1.53943">
        <ele>17.92</ele>
        <time>2021-07-04T15:39:20Z</time>
      </trkpt>
      <trkpt lat="43.49895" lon="-1.53935">
        <ele>17.92</ele>
        <time>2021-07-04T15:39:21Z</time>
      </trkpt>
      <trkpt lat="43.49888" lon="-1.53919">
        <ele>17.92</ele>
        <time>2021-07-04T15:39:22Z</time>
      </trkpt>
      <trkpt lat="43.49888" lon="-1.53919">
        <ele>17.92</ele>
        <time>2021-07-04T15:39:23Z</time>
      </trkpt>
      <trkpt lat="43.49861" lon="-1.5388">
        <ele>17.92</ele>
        <time>2021-07-04T15:39:29Z</time>
      </trkpt>
      <trkpt lat="43.49856" lon="-1.53874">
        <ele>17.92</ele>
        <time>2021-07-04T15:39:30Z</time>
      </trkpt>
      <trkpt lat="43.49852" lon="-1.53871">
        <ele>17.92</ele>
        <time>2021-07-04T15:39:31Z</time>
      </trkpt>
      <trkpt lat="43.49847" lon="-1.5387">
        <ele>18.88</ele>
        <time>2021-07-04T15:39:32Z</time>
      </trkpt>
      <trkpt lat="43.4984" lon="-1.53869">
        <ele>19.36</ele>
        <time>2021-07-04T15:39:33Z</time>
      </trkpt>
      <trkpt lat="43.49778" lon="-1.53859">
        <ele>21.77</ele>
        <time>2021-07-04T15:39:43Z</time>
      </trkpt>
      <trkpt lat="43.49726" lon="-1.53854">
        <ele>23.21</ele>
        <time>2021-07-04T15:39:52Z</time>
      </trkpt>
      <trkpt lat="43.49721" lon="-1.53854">
        <ele>23.21</ele>
        <time>2021-07-04T15:39:53Z</time>
      </trkpt>
      <trkpt lat="43.49715" lon="-1.5385">
        <ele>23.21</ele>
        <time>2021-07-04T15:39:54Z</time>
      </trkpt>
      <trkpt lat="43.4971" lon="-1.53847">
        <ele>23.69</ele>
        <time>2021-07-04T15:39:55Z</time>
      </trkpt>
      <trkpt lat="43.49698" lon="-1.53841">
        <ele>23.69</ele>
        <time>2021-07-04T15:39:56Z</time>
      </trkpt>
      <trkpt lat="43.49681" lon="-1.53832">
        <ele>24.65</ele>
        <time>2021-07-04T15:40:01Z</time>
      </trkpt>
      <trkpt lat="43.4967" lon="-1.53839">
        <ele>24.17</ele>
        <time>2021-07-04T15:40:02Z</time>
      </trkpt>
      <trkpt lat="43.49671" lon="-1.53836">
        <ele>24.17</ele>
        <time>2021-07-04T15:40:03Z</time>
      </trkpt>
      <trkpt lat="43.49668" lon="-1.53839">
        <ele>24.17</ele>
        <time>2021-07-04T15:40:04Z</time>
      </trkpt>
      <trkpt lat="43.49665" lon="-1.5384">
        <ele>24.17</ele>
        <time>2021-07-04T15:40:05Z</time>
      </trkpt>
      <trkpt lat="43.4966" lon="-1.53844">
        <ele>24.17</ele>
        <time>2021-07-04T15:40:06Z</time>
      </trkpt>
      <trkpt lat="43.49658" lon="-1.53849">
        <ele>24.17</ele>
        <time>2021-07-04T15:40:07Z</time>
      </trkpt>
      <trkpt lat="43.49624" lon="-1.53934">
        <ele>25.13</ele>
        <time>2021-07-04T15:40:17Z</time>
      </trkpt>
      <trkpt lat="43.49539" lon="-1.54147">
        <ele>35.71</ele>
        <time>2021-07-04T15:40:38Z</time>
      </trkpt>
      <trkpt lat="43.49508" lon="-1.54227">
        <ele>36.19</ele>
        <time>2021-07-04T15:40:49Z</time>
      </trkpt>
      <trkpt lat="43.49482" lon="-1.54289">
        <ele>37.63</ele>
        <time>2021-07-04T15:41:01Z</time>
      </trkpt>
      <trkpt lat="43.4945" lon="-1.54369">
        <ele>39.55</ele>
        <time>2021-07-04T15:41:17Z</time>
      </trkpt>
      <trkpt lat="43.49444" lon="-1.54383">
        <ele>39.07</ele>
        <time>2021-07-04T15:41:27Z</time>
      </trkpt>
      <trkpt lat="43.49423" lon="-1.54362">
        <ele>-0.82</ele>
        <time>2021-07-04T16:37:30Z</time>
      </trkpt>
      <trkpt lat="43.49444" lon="-1.54385">
        <ele>46.76</ele>
        <time>2021-07-04T16:38:07Z</time>
      </trkpt>
      <trkpt lat="43.49444" lon="-1.54386">
        <ele>46.76</ele>
        <time>2021-07-04T16:38:10Z</time>
      </trkpt>
      <trkpt lat="43.4943" lon="-1.54415">
        <ele>45.8</ele>
        <time>2021-07-04T16:38:22Z</time>
      </trkpt>
      <trkpt lat="43.49396" lon="-1.5448">
        <ele>43.4</ele>
        <time>2021-07-04T16:38:38Z</time>
      </trkpt>
      <trkpt lat="43.49346" lon="-1.54569">
        <ele>42.44</ele>
        <time>2021-07-04T16:38:52Z</time>
      </trkpt>
      <trkpt lat="43.49298" lon="-1.5466">
        <ele>42.44</ele>
        <time>2021-07-04T16:39:07Z</time>
      </trkpt>
      <trkpt lat="43.49261" lon="-1.54742">
        <ele>41.95</ele>
        <time>2021-07-04T16:39:22Z</time>
      </trkpt>
      <trkpt lat="43.49259" lon="-1.5475">
        <ele>41.95</ele>
        <time>2021-07-04T16:39:23Z</time>
      </trkpt>
      <trkpt lat="43.49238" lon="-1.54913">
        <ele>40.51</ele>
        <time>2021-07-04T16:39:38Z</time>
      </trkpt>
      <trkpt lat="43.49223" lon="-1.55037">
        <ele>39.07</ele>
        <time>2021-07-04T16:39:54Z</time>
      </trkpt>
      <trkpt lat="43.49206" lon="-1.55116">
        <ele>37.63</ele>
        <time>2021-07-04T16:40:05Z</time>
      </trkpt>
      <trkpt lat="43.49185" lon="-1.55152">
        <ele>36.67</ele>
        <time>2021-07-04T16:40:12Z</time>
      </trkpt>
      <trkpt lat="43.49182" lon="-1.55156">
        <ele>36.19</ele>
        <time>2021-07-04T16:40:13Z</time>
      </trkpt>
      <trkpt lat="43.49158" lon="-1.55181">
        <ele>35.23</ele>
        <time>2021-07-04T16:40:19Z</time>
      </trkpt>
      <trkpt lat="43.49158" lon="-1.55181">
        <ele>35.23</ele>
        <time>2021-07-04T16:40:20Z</time>
      </trkpt>
      <trkpt lat="43.49138" lon="-1.55198">
        <ele>34.26</ele>
        <time>2021-07-04T16:40:25Z</time>
      </trkpt>
      <trkpt lat="43.49133" lon="-1.55201">
        <ele>33.78</ele>
        <time>2021-07-04T16:40:26Z</time>
      </trkpt>
      <trkpt lat="43.49124" lon="-1.55203">
        <ele>33.78</ele>
        <time>2021-07-04T16:40:27Z</time>
      </trkpt>
      <trkpt lat="43.49119" lon="-1.55203">
        <ele>33.78</ele>
        <time>2021-07-04T16:40:28Z</time>
      </trkpt>
      <trkpt lat="43.49114" lon="-1.55204">
        <ele>33.3</ele>
        <time>2021-07-04T16:40:29Z</time>
      </trkpt>
      <trkpt lat="43.49114" lon="-1.55204">
        <ele>33.3</ele>
        <time>2021-07-04T16:40:30Z</time>
      </trkpt>
      <trkpt lat="43.49105" lon="-1.55205">
        <ele>32.82</ele>
        <time>2021-07-04T16:40:31Z</time>
      </trkpt>
      <trkpt lat="43.49041" lon="-1.55225">
        <ele>32.34</ele>
        <time>2021-07-04T16:40:44Z</time>
      </trkpt>
      <trkpt lat="43.48964" lon="-1.55261">
        <ele>28.98</ele>
        <time>2021-07-04T16:41:02Z</time>
      </trkpt>
      <trkpt lat="43.48946" lon="-1.55269">
        <ele>27.05</ele>
        <time>2021-07-04T16:41:11Z</time>
      </trkpt>
      <trkpt lat="43.48903" lon="-1.5529">
        <ele>23.21</ele>
        <time>2021-07-04T16:41:26Z</time>
      </trkpt>
      <trkpt lat="43.48779" lon="-1.55364">
        <ele>13.12</ele>
        <time>2021-07-04T16:41:51Z</time>
      </trkpt>
      <trkpt lat="43.48713" lon="-1.55454">
        <ele>8.79</ele>
        <time>2021-07-04T16:42:07Z</time>
      </trkpt>
      <trkpt lat="43.48651" lon="-1.55523">
        <ele>3.5</ele>
        <time>2021-07-04T16:42:24Z</time>
      </trkpt>
      <trkpt lat="43.48581" lon="-1.55553">
        <ele>-1.3</ele>
        <time>2021-07-04T16:42:42Z</time>
      </trkpt>
      <trkpt lat="43.48563" lon="-1.55578">
        <ele>-2.27</ele>
        <time>2021-07-04T16:42:55Z</time>
      </trkpt>
      <trkpt lat="43.48551" lon="-1.55597">
        <ele>-2.27</ele>
        <time>2021-07-04T16:43:12Z</time>
      </trkpt>
      <trkpt lat="43.48517" lon="-1.55654">
        <ele>-0.82</ele>
        <time>2021-07-04T16:43:25Z</time>
      </trkpt>
      <trkpt lat="43.48492" lon="-1.5569">
        <ele>0.14</ele>
        <time>2021-07-04T16:43:32Z</time>
      </trkpt>
      <trkpt lat="43.48448" lon="-1.5573">
        <ele>1.1</ele>
        <time>2021-07-04T16:43:43Z</time>
      </trkpt>
      <trkpt lat="43.48408" lon="-1.55783">
        <ele>7.83</ele>
        <time>2021-07-04T16:43:59Z</time>
      </trkpt>
      <trkpt lat="43.48379" lon="-1.55829">
        <ele>13.12</ele>
        <time>2021-07-04T16:44:10Z</time>
      </trkpt>
      <trkpt lat="43.48333" lon="-1.55875">
        <ele>18.4</ele>
        <time>2021-07-04T16:44:21Z</time>
      </trkpt>
      <trkpt lat="43.4833" lon="-1.55877">
        <ele>18.88</ele>
        <time>2021-07-04T16:44:22Z</time>
      </trkpt>
      <trkpt lat="43.48321" lon="-1.55878">
        <ele>19.36</ele>
        <time>2021-07-04T16:44:23Z</time>
      </trkpt>
      <trkpt lat="43.48317" lon="-1.55879">
        <ele>19.36</ele>
        <time>2021-07-04T16:44:24Z</time>
      </trkpt>
      <trkpt lat="43.48317" lon="-1.55879">
        <ele>19.84</ele>
        <time>2021-07-04T16:44:25Z</time>
      </trkpt>
      <trkpt lat="43.48247" lon="-1.55888">
        <ele>19.36</ele>
        <time>2021-07-04T16:44:40Z</time>
      </trkpt>
      <trkpt lat="43.4824" lon="-1.55891">
        <ele>19.84</ele>
        <time>2021-07-04T16:45:55Z</time>
      </trkpt>
      <trkpt lat="43.48204" lon="-1.55919">
        <ele>20.81</ele>
        <time>2021-07-04T16:46:04Z</time>
      </trkpt>
      <trkpt lat="43.48204" lon="-1.55919">
        <ele>20.81</ele>
        <time>2021-07-04T16:46:05Z</time>
      </trkpt>
      <trkpt lat="43.48189" lon="-1.55933">
        <ele>20.81</ele>
        <time>2021-07-04T16:46:09Z</time>
      </trkpt>
      <trkpt lat="43.48189" lon="-1.55933">
        <ele>20.81</ele>
        <time>2021-07-04T16:46:10Z</time>
      </trkpt>
      <trkpt lat="43.48189" lon="-1.55937">
        <ele>20.81</ele>
        <time>2021-07-04T16:46:11Z</time>
      </trkpt>
      <trkpt lat="43.4819" lon="-1.55941">
        <ele>21.29</ele>
        <time>2021-07-04T16:46:12Z</time>
      </trkpt>
      <trkpt lat="43.48191" lon="-1.55945">
        <ele>21.77</ele>
        <time>2021-07-04T16:46:13Z</time>
      </trkpt>
      <trkpt lat="43.48192" lon="-1.55949">
        <ele>22.25</ele>
        <time>2021-07-04T16:46:14Z</time>
      </trkpt>
      <trkpt lat="43.48203" lon="-1.56">
        <ele>27.53</ele>
        <time>2021-07-04T16:46:23Z</time>
      </trkpt>
      <trkpt lat="43.48212" lon="-1.56037">
        <ele>28.5</ele>
        <time>2021-07-04T16:46:29Z</time>
      </trkpt>
      <trkpt lat="43.48222" lon="-1.56091">
        <ele>31.38</ele>
        <time>2021-07-04T16:46:40Z</time>
      </trkpt>
      <trkpt lat="43.48229" lon="-1.56126">
        <ele>34.26</ele>
        <time>2021-07-04T16:46:51Z</time>
      </trkpt>
      <trkpt lat="43.48222" lon="-1.56173">
        <ele>36.19</ele>
        <time>2021-07-04T16:47:02Z</time>
      </trkpt>
      <trkpt lat="43.48214" lon="-1.56217">
        <ele>37.15</ele>
        <time>2021-07-04T16:47:16Z</time>
      </trkpt>
      <trkpt lat="43.48208" lon="-1.56239">
        <ele>39.55</ele>
        <time>2021-07-04T16:47:21Z</time>
      </trkpt>
      <trkpt lat="43.48206" lon="-1.56244">
        <ele>39.55</ele>
        <time>2021-07-04T16:47:22Z</time>
      </trkpt>
      <trkpt lat="43.48203" lon="-1.56249">
        <ele>39.55</ele>
        <time>2021-07-04T16:47:23Z</time>
      </trkpt>
      <trkpt lat="43.48199" lon="-1.56259">
        <ele>39.55</ele>
        <time>2021-07-04T16:47:25Z</time>
      </trkpt>
      <trkpt lat="43.48161" lon="-1.56297">
        <ele>40.03</ele>
        <time>2021-07-04T16:47:37Z</time>
      </trkpt>
      <trkpt lat="43.48132" lon="-1.56302">
        <ele>40.51</ele>
        <time>2021-07-04T16:47:45Z</time>
      </trkpt>
      <trkpt lat="43.4807" lon="-1.56326">
        <ele>38.11</ele>
        <time>2021-07-04T16:48:01Z</time>
      </trkpt>
      <trkpt lat="43.48029" lon="-1.56359">
        <ele>36.67</ele>
        <time>2021-07-04T16:48:12Z</time>
      </trkpt>
      <trkpt lat="43.4799" lon="-1.56394">
        <ele>31.38</ele>
        <time>2021-07-04T16:48:22Z</time>
      </trkpt>
      <trkpt lat="43.47932" lon="-1.56424">
        <ele>28.98</ele>
        <time>2021-07-04T16:48:38Z</time>
      </trkpt>
      <trkpt lat="43.47905" lon="-1.56446">
        <ele>35.71</ele>
        <time>2021-07-04T16:48:46Z</time>
      </trkpt>
      <trkpt lat="43.47885" lon="-1.56463">
        <ele>38.59</ele>
        <time>2021-07-04T16:48:56Z</time>
      </trkpt>
      <trkpt lat="43.47885" lon="-1.56463">
        <ele>39.07</ele>
        <time>2021-07-04T16:49:00Z</time>
      </trkpt>
      <trkpt lat="43.4788" lon="-1.56472">
        <ele>39.07</ele>
        <time>2021-07-04T16:49:01Z</time>
      </trkpt>
      <trkpt lat="43.47871" lon="-1.56492">
        <ele>40.99</ele>
        <time>2021-07-04T16:49:07Z</time>
      </trkpt>
      <trkpt lat="43.47851" lon="-1.56488">
        <ele>41.47</ele>
        <time>2021-07-04T16:49:11Z</time>
      </trkpt>
      <trkpt lat="43.47778" lon="-1.56521">
        <ele>41.95</ele>
        <time>2021-07-04T16:49:24Z</time>
      </trkpt>
      <trkpt lat="43.47758" lon="-1.56538">
        <ele>41.95</ele>
        <time>2021-07-04T16:49:28Z</time>
      </trkpt>
      <trkpt lat="43.47752" lon="-1.56539">
        <ele>41.95</ele>
        <time>2021-07-04T16:49:29Z</time>
      </trkpt>
      <trkpt lat="43.47741" lon="-1.56543">
        <ele>41.95</ele>
        <time>2021-07-04T16:49:30Z</time>
      </trkpt>
      <trkpt lat="43.47741" lon="-1.56543">
        <ele>42.44</ele>
        <time>2021-07-04T16:49:31Z</time>
      </trkpt>
      <trkpt lat="43.47736" lon="-1.56544">
        <ele>41.95</ele>
        <time>2021-07-04T16:49:32Z</time>
      </trkpt>
      <trkpt lat="43.47731" lon="-1.56546">
        <ele>41.95</ele>
        <time>2021-07-04T16:49:33Z</time>
      </trkpt>
      <trkpt lat="43.47726" lon="-1.56547">
        <ele>42.44</ele>
        <time>2021-07-04T16:49:34Z</time>
      </trkpt>
      <trkpt lat="43.47721" lon="-1.56548">
        <ele>42.92</ele>
        <time>2021-07-04T16:49:35Z</time>
      </trkpt>
      <trkpt lat="43.47716" lon="-1.5655">
        <ele>43.4</ele>
        <time>2021-07-04T16:49:36Z</time>
      </trkpt>
      <trkpt lat="43.47712" lon="-1.56555">
        <ele>43.4</ele>
        <time>2021-07-04T16:49:37Z</time>
      </trkpt>
      <trkpt lat="43.47706" lon="-1.5656">
        <ele>43.88</ele>
        <time>2021-07-04T16:49:38Z</time>
      </trkpt>
      <trkpt lat="43.477" lon="-1.5656">
        <ele>43.88</ele>
        <time>2021-07-04T16:49:39Z</time>
      </trkpt>
      <trkpt lat="43.47639" lon="-1.56586">
        <ele>45.32</ele>
        <time>2021-07-04T16:49:51Z</time>
      </trkpt>
      <trkpt lat="43.47526" lon="-1.56623">
        <ele>43.88</ele>
        <time>2021-07-04T16:50:07Z</time>
      </trkpt>
      <trkpt lat="43.47446" lon="-1.56653">
        <ele>44.84</ele>
        <time>2021-07-04T16:50:19Z</time>
      </trkpt>
      <trkpt lat="43.47347" lon="-1.56668">
        <ele>47.24</ele>
        <time>2021-07-04T16:50:33Z</time>
      </trkpt>
      <trkpt lat="43.47318" lon="-1.56669">
        <ele>46.76</ele>
        <time>2021-07-04T16:50:38Z</time>
      </trkpt>
      <trkpt lat="43.47316" lon="-1.56669">
        <ele>46.76</ele>
        <time>2021-07-04T16:50:39Z</time>
      </trkpt>
      <trkpt lat="43.4731" lon="-1.56676">
        <ele>46.76</ele>
        <time>2021-07-04T16:50:40Z</time>
      </trkpt>
      <trkpt lat="43.47306" lon="-1.56678">
        <ele>46.28</ele>
        <time>2021-07-04T16:50:41Z</time>
      </trkpt>
      <trkpt lat="43.47301" lon="-1.56678">
        <ele>46.28</ele>
        <time>2021-07-04T16:50:42Z</time>
      </trkpt>
      <trkpt lat="43.47297" lon="-1.56676">
        <ele>45.8</ele>
        <time>2021-07-04T16:50:43Z</time>
      </trkpt>
      <trkpt lat="43.47296" lon="-1.56674">
        <ele>45.8</ele>
        <time>2021-07-04T16:50:44Z</time>
      </trkpt>
      <trkpt lat="43.47294" lon="-1.56669">
        <ele>45.32</ele>
        <time>2021-07-04T16:50:45Z</time>
      </trkpt>
      <trkpt lat="43.47292" lon="-1.56665">
        <ele>45.8</ele>
        <time>2021-07-04T16:50:46Z</time>
      </trkpt>
      <trkpt lat="43.47283" lon="-1.56664">
        <ele>46.28</ele>
        <time>2021-07-04T16:50:47Z</time>
      </trkpt>
      <trkpt lat="43.47279" lon="-1.56666">
        <ele>46.28</ele>
        <time>2021-07-04T16:50:48Z</time>
      </trkpt>
      <trkpt lat="43.47275" lon="-1.56668">
        <ele>46.76</ele>
        <time>2021-07-04T16:50:49Z</time>
      </trkpt>
      <trkpt lat="43.47253" lon="-1.56679">
        <ele>47.72</ele>
        <time>2021-07-04T16:50:52Z</time>
      </trkpt>
      <trkpt lat="43.47253" lon="-1.56679">
        <ele>48.2</ele>
        <time>2021-07-04T16:50:53Z</time>
      </trkpt>
      <trkpt lat="43.47149" lon="-1.56758">
        <ele>53.97</ele>
        <time>2021-07-04T16:51:11Z</time>
      </trkpt>
      <trkpt lat="43.47122" lon="-1.5678">
        <ele>53.01</ele>
        <time>2021-07-04T16:51:16Z</time>
      </trkpt>
      <trkpt lat="43.47117" lon="-1.56787">
        <ele>52.53</ele>
        <time>2021-07-04T16:51:17Z</time>
      </trkpt>
      <trkpt lat="43.47113" lon="-1.56793">
        <ele>52.53</ele>
        <time>2021-07-04T16:51:18Z</time>
      </trkpt>
      <trkpt lat="43.4711" lon="-1.568">
        <ele>53.01</ele>
        <time>2021-07-04T16:51:19Z</time>
      </trkpt>
      <trkpt lat="43.47103" lon="-1.56814">
        <ele>52.53</ele>
        <time>2021-07-04T16:51:20Z</time>
      </trkpt>
      <trkpt lat="43.47091" lon="-1.56833">
        <ele>51.57</ele>
        <time>2021-07-04T16:51:24Z</time>
      </trkpt>
      <trkpt lat="43.47087" lon="-1.56837">
        <ele>51.57</ele>
        <time>2021-07-04T16:51:25Z</time>
      </trkpt>
      <trkpt lat="43.47084" lon="-1.56841">
        <ele>51.57</ele>
        <time>2021-07-04T16:51:26Z</time>
      </trkpt>
      <trkpt lat="43.47019" lon="-1.56896">
        <ele>46.28</ele>
        <time>2021-07-04T16:51:39Z</time>
      </trkpt>
      <trkpt lat="43.46917" lon="-1.56983">
        <ele>30.9</ele>
        <time>2021-07-04T16:51:55Z</time>
      </trkpt>
      <trkpt lat="43.4675" lon="-1.57124">
        <ele>19.36</ele>
        <time>2021-07-04T16:52:15Z</time>
      </trkpt>
      <trkpt lat="43.46665" lon="-1.57202">
        <ele>16.48</ele>
        <time>2021-07-04T16:52:28Z</time>
      </trkpt>
      <trkpt lat="43.46657" lon="-1.57207">
        <ele>16.96</ele>
        <time>2021-07-04T16:52:29Z</time>
      </trkpt>
      <trkpt lat="43.46638" lon="-1.57216">
        <ele>16.48</ele>
        <time>2021-07-04T16:52:31Z</time>
      </trkpt>
      <trkpt lat="43.46621" lon="-1.57224">
        <ele>16.48</ele>
        <time>2021-07-04T16:52:32Z</time>
      </trkpt>
      <trkpt lat="43.46621" lon="-1.57224">
        <ele>17.44</ele>
        <time>2021-07-04T16:52:33Z</time>
      </trkpt>
      <trkpt lat="43.46613" lon="-1.57224">
        <ele>17.44</ele>
        <time>2021-07-04T16:52:34Z</time>
      </trkpt>
      <trkpt lat="43.46593" lon="-1.57221">
        <ele>18.4</ele>
        <time>2021-07-04T16:52:35Z</time>
      </trkpt>
      <trkpt lat="43.46593" lon="-1.57221">
        <ele>18.88</ele>
        <time>2021-07-04T16:52:36Z</time>
      </trkpt>
      <trkpt lat="43.46585" lon="-1.57218">
        <ele>19.84</ele>
        <time>2021-07-04T16:52:37Z</time>
      </trkpt>
      <trkpt lat="43.46576" lon="-1.57213">
        <ele>19.36</ele>
        <time>2021-07-04T16:52:38Z</time>
      </trkpt>
      <trkpt lat="43.46567" lon="-1.57209">
        <ele>19.36</ele>
        <time>2021-07-04T16:52:39Z</time>
      </trkpt>
      <trkpt lat="43.46558" lon="-1.57204">
        <ele>19.36</ele>
        <time>2021-07-04T16:52:40Z</time>
      </trkpt>
      <trkpt lat="43.4655" lon="-1.57199">
        <ele>19.36</ele>
        <time>2021-07-04T16:52:41Z</time>
      </trkpt>
      <trkpt lat="43.4653" lon="-1.57185">
        <ele>19.36</ele>
        <time>2021-07-04T16:52:43Z</time>
      </trkpt>
      <trkpt lat="43.4653" lon="-1.57185">
        <ele>19.84</ele>
        <time>2021-07-04T16:52:44Z</time>
      </trkpt>
      <trkpt lat="43.4652" lon="-1.57189">
        <ele>19.36</ele>
        <time>2021-07-04T16:52:46Z</time>
      </trkpt>
      <trkpt lat="43.46514" lon="-1.57185">
        <ele>18.88</ele>
        <time>2021-07-04T16:52:47Z</time>
      </trkpt>
      <trkpt lat="43.46512" lon="-1.57182">
        <ele>18.88</ele>
        <time>2021-07-04T16:52:48Z</time>
      </trkpt>
      <trkpt lat="43.46509" lon="-1.57178">
        <ele>18.88</ele>
        <time>2021-07-04T16:52:49Z</time>
      </trkpt>
      <trkpt lat="43.46511" lon="-1.57174">
        <ele>18.88</ele>
        <time>2021-07-04T16:52:50Z</time>
      </trkpt>
      <trkpt lat="43.46513" lon="-1.57168">
        <ele>18.4</ele>
        <time>2021-07-04T16:52:51Z</time>
      </trkpt>
      <trkpt lat="43.46514" lon="-1.57167">
        <ele>18.4</ele>
        <time>2021-07-04T16:52:52Z</time>
      </trkpt>
      <trkpt lat="43.46518" lon="-1.57167">
        <ele>18.4</ele>
        <time>2021-07-04T16:52:53Z</time>
      </trkpt>
      <trkpt lat="43.46528" lon="-1.57167">
        <ele>18.4</ele>
        <time>2021-07-04T16:52:54Z</time>
      </trkpt>
      <trkpt lat="43.46528" lon="-1.57167">
        <ele>18.4</ele>
        <time>2021-07-04T16:52:55Z</time>
      </trkpt>
      <trkpt lat="43.46537" lon="-1.57167">
        <ele>18.4</ele>
        <time>2021-07-04T16:52:56Z</time>
      </trkpt>
      <trkpt lat="43.46564" lon="-1.57167">
        <ele>17.92</ele>
        <time>2021-07-04T16:53:08Z</time>
      </trkpt>
      <trkpt lat="43.46564" lon="-1.57167">
        <ele>16</ele>
        <time>2021-07-04T16:54:57Z</time>
      </trkpt>
      <trkpt lat="43.46579" lon="-1.57168">
        <ele>16</ele>
        <time>2021-07-04T16:54:58Z</time>
      </trkpt>
      <trkpt lat="43.4658" lon="-1.57169">
        <ele>16</ele>
        <time>2021-07-04T16:54:59Z</time>
      </trkpt>
      <trkpt lat="43.46582" lon="-1.57169">
        <ele>16</ele>
        <time>2021-07-04T16:55:00Z</time>
      </trkpt>
    </trkseg>
  </trk>
  <trk>
    <name><![CDATA[Journal actif: 2021-07-05 10:36]]></name>
    <trkseg>
      <trkpt lat="43.46616" lon="-1.57202">
        <ele>13.12</ele>
        <time>2021-07-05T12:36:41Z</time>
      </trkpt>
      <trkpt lat="43.46614" lon="-1.57199">
        <ele>12.63</ele>
        <time>2021-07-05T12:37:34Z</time>
      </trkpt>
      <trkpt lat="43.46588" lon="-1.57194">
        <ele>11.67</ele>
        <time>2021-07-05T12:37:56Z</time>
      </trkpt>
      <trkpt lat="43.46582" lon="-1.57177">
        <ele>11.67</ele>
        <time>2021-07-05T12:38:09Z</time>
      </trkpt>
      <trkpt lat="43.46577" lon="-1.57168">
        <ele>11.67</ele>
        <time>2021-07-05T12:38:14Z</time>
      </trkpt>
      <trkpt lat="43.46575" lon="-1.57168">
        <ele>11.67</ele>
        <time>2021-07-05T12:38:15Z</time>
      </trkpt>
      <trkpt lat="43.46575" lon="-1.57168">
        <ele>11.67</ele>
        <time>2021-07-05T12:38:16Z</time>
      </trkpt>
      <trkpt lat="43.46574" lon="-1.57168">
        <ele>11.67</ele>
        <time>2021-07-05T12:38:17Z</time>
      </trkpt>
      <trkpt lat="43.46572" lon="-1.57168">
        <ele>11.67</ele>
        <time>2021-07-05T12:38:18Z</time>
      </trkpt>
      <trkpt lat="43.4657" lon="-1.57167">
        <ele>11.19</ele>
        <time>2021-07-05T12:38:19Z</time>
      </trkpt>
      <trkpt lat="43.46568" lon="-1.57167">
        <ele>10.71</ele>
        <time>2021-07-05T12:38:37Z</time>
      </trkpt>
      <trkpt lat="43.46568" lon="-1.57167">
        <ele>9.75</ele>
        <time>2021-07-05T12:38:56Z</time>
      </trkpt>
      <trkpt lat="43.46535" lon="-1.57167">
        <ele>9.27</ele>
        <time>2021-07-05T12:39:08Z</time>
      </trkpt>
      <trkpt lat="43.46533" lon="-1.57167">
        <ele>9.75</ele>
        <time>2021-07-05T12:39:09Z</time>
      </trkpt>
      <trkpt lat="43.46528" lon="-1.57171">
        <ele>9.27</ele>
        <time>2021-07-05T12:39:10Z</time>
      </trkpt>
      <trkpt lat="43.46528" lon="-1.57171">
        <ele>8.79</ele>
        <time>2021-07-05T12:39:11Z</time>
      </trkpt>
      <trkpt lat="43.46528" lon="-1.57175">
        <ele>8.79</ele>
        <time>2021-07-05T12:39:12Z</time>
      </trkpt>
      <trkpt lat="43.46528" lon="-1.57179">
        <ele>8.79</ele>
        <time>2021-07-05T12:39:13Z</time>
      </trkpt>
      <trkpt lat="43.46528" lon="-1.57183">
        <ele>8.79</ele>
        <time>2021-07-05T12:39:14Z</time>
      </trkpt>
      <trkpt lat="43.46527" lon="-1.57185">
        <ele>9.27</ele>
        <time>2021-07-05T12:39:15Z</time>
      </trkpt>
      <trkpt lat="43.46524" lon="-1.57187">
        <ele>9.27</ele>
        <time>2021-07-05T12:39:16Z</time>
      </trkpt>
      <trkpt lat="43.46521" lon="-1.57188">
        <ele>9.27</ele>
        <time>2021-07-05T12:39:17Z</time>
      </trkpt>
      <trkpt lat="43.46515" lon="-1.57186">
        <ele>10.23</ele>
        <time>2021-07-05T12:39:18Z</time>
      </trkpt>
      <trkpt lat="43.46515" lon="-1.57186">
        <ele>10.71</ele>
        <time>2021-07-05T12:39:19Z</time>
      </trkpt>
      <trkpt lat="43.46512" lon="-1.57182">
        <ele>13.12</ele>
        <time>2021-07-05T12:39:20Z</time>
      </trkpt>
      <trkpt lat="43.46509" lon="-1.57178">
        <ele>13.12</ele>
        <time>2021-07-05T12:39:21Z</time>
      </trkpt>
      <trkpt lat="43.46508" lon="-1.57162">
        <ele>13.6</ele>
        <time>2021-07-05T12:39:22Z</time>
      </trkpt>
      <trkpt lat="43.46504" lon="-1.57157">
        <ele>14.08</ele>
        <time>2021-07-05T12:39:23Z</time>
      </trkpt>
      <trkpt lat="43.46499" lon="-1.57152">
        <ele>14.56</ele>
        <time>2021-07-05T12:39:24Z</time>
      </trkpt>
      <trkpt lat="43.46493" lon="-1.57146">
        <ele>15.52</ele>
        <time>2021-07-05T12:39:25Z</time>
      </trkpt>
      <trkpt lat="43.46425" lon="-1.57079">
        <ele>19.36</ele>
        <time>2021-07-05T12:39:35Z</time>
      </trkpt>
      <trkpt lat="43.46415" lon="-1.57074">
        <ele>19.36</ele>
        <time>2021-07-05T12:39:36Z</time>
      </trkpt>
      <trkpt lat="43.46405" lon="-1.57069">
        <ele>20.32</ele>
        <time>2021-07-05T12:39:37Z</time>
      </trkpt>
      <trkpt lat="43.46394" lon="-1.57067">
        <ele>20.81</ele>
        <time>2021-07-05T12:39:38Z</time>
      </trkpt>
      <trkpt lat="43.46384" lon="-1.57066">
        <ele>21.29</ele>
        <time>2021-07-05T12:39:39Z</time>
      </trkpt>
      <trkpt lat="43.46281" lon="-1.5707">
        <ele>21.29</ele>
        <time>2021-07-05T12:39:50Z</time>
      </trkpt>
      <trkpt lat="43.46245" lon="-1.57086">
        <ele>21.29</ele>
        <time>2021-07-05T12:39:59Z</time>
      </trkpt>
      <trkpt lat="43.46244" lon="-1.57099">
        <ele>21.77</ele>
        <time>2021-07-05T12:40:02Z</time>
      </trkpt>
      <trkpt lat="43.46241" lon="-1.57107">
        <ele>21.77</ele>
        <time>2021-07-05T12:40:03Z</time>
      </trkpt>
      <trkpt lat="43.46233" lon="-1.57115">
        <ele>21.77</ele>
        <time>2021-07-05T12:40:04Z</time>
      </trkpt>
      <trkpt lat="43.46229" lon="-1.57116">
        <ele>20.81</ele>
        <time>2021-07-05T12:40:05Z</time>
      </trkpt>
      <trkpt lat="43.46222" lon="-1.57114">
        <ele>20.32</ele>
        <time>2021-07-05T12:40:06Z</time>
      </trkpt>
      <trkpt lat="43.46222" lon="-1.57114">
        <ele>19.84</ele>
        <time>2021-07-05T12:40:07Z</time>
      </trkpt>
      <trkpt lat="43.46219" lon="-1.57111">
        <ele>19.84</ele>
        <time>2021-07-05T12:40:08Z</time>
      </trkpt>
      <trkpt lat="43.46215" lon="-1.57108">
        <ele>19.84</ele>
        <time>2021-07-05T12:40:09Z</time>
      </trkpt>
      <trkpt lat="43.4621" lon="-1.57104">
        <ele>19.84</ele>
        <time>2021-07-05T12:40:10Z</time>
      </trkpt>
      <trkpt lat="43.46208" lon="-1.57099">
        <ele>19.84</ele>
        <time>2021-07-05T12:40:11Z</time>
      </trkpt>
      <trkpt lat="43.46207" lon="-1.5709">
        <ele>19.84</ele>
        <time>2021-07-05T12:40:12Z</time>
      </trkpt>
      <trkpt lat="43.46207" lon="-1.5709">
        <ele>19.84</ele>
        <time>2021-07-05T12:40:13Z</time>
      </trkpt>
      <trkpt lat="43.46207" lon="-1.5709">
        <ele>19.84</ele>
        <time>2021-07-05T12:40:14Z</time>
      </trkpt>
      <trkpt lat="43.46206" lon="-1.57068">
        <ele>19.84</ele>
        <time>2021-07-05T12:40:15Z</time>
      </trkpt>
      <trkpt lat="43.46202" lon="-1.57065">
        <ele>19.84</ele>
        <time>2021-07-05T12:40:16Z</time>
      </trkpt>
      <trkpt lat="43.46198" lon="-1.57061">
        <ele>19.36</ele>
        <time>2021-07-05T12:40:17Z</time>
      </trkpt>
      <trkpt lat="43.46186" lon="-1.57056">
        <ele>19.36</ele>
        <time>2021-07-05T12:40:18Z</time>
      </trkpt>
      <trkpt lat="43.46186" lon="-1.57056">
        <ele>18.88</ele>
        <time>2021-07-05T12:40:19Z</time>
      </trkpt>
      <trkpt lat="43.46174" lon="-1.57058">
        <ele>18.88</ele>
        <time>2021-07-05T12:40:20Z</time>
      </trkpt>
      <trkpt lat="43.46174" lon="-1.57058">
        <ele>18.4</ele>
        <time>2021-07-05T12:40:21Z</time>
      </trkpt>
      <trkpt lat="43.46167" lon="-1.57059">
        <ele>17.92</ele>
        <time>2021-07-05T12:40:22Z</time>
      </trkpt>
      <trkpt lat="43.4616" lon="-1.5706">
        <ele>17.44</ele>
        <time>2021-07-05T12:40:23Z</time>
      </trkpt>
      <trkpt lat="43.46153" lon="-1.57061">
        <ele>16.96</ele>
        <time>2021-07-05T12:40:24Z</time>
      </trkpt>
      <trkpt lat="43.46146" lon="-1.57063">
        <ele>16.48</ele>
        <time>2021-07-05T12:40:25Z</time>
      </trkpt>
      <trkpt lat="43.46052" lon="-1.57123">
        <ele>10.23</ele>
        <time>2021-07-05T12:40:36Z</time>
      </trkpt>
      <trkpt lat="43.45905" lon="-1.57215">
        <ele>20.81</ele>
        <time>2021-07-05T12:40:50Z</time>
      </trkpt>
      <trkpt lat="43.45853" lon="-1.57239">
        <ele>25.13</ele>
        <time>2021-07-05T12:40:56Z</time>
      </trkpt>
      <trkpt lat="43.45847" lon="-1.57241">
        <ele>25.13</ele>
        <time>2021-07-05T12:40:57Z</time>
      </trkpt>
      <trkpt lat="43.45833" lon="-1.57259">
        <ele>26.57</ele>
        <time>2021-07-05T12:40:59Z</time>
      </trkpt>
      <trkpt lat="43.45827" lon="-1.57261">
        <ele>26.57</ele>
        <time>2021-07-05T12:41:00Z</time>
      </trkpt>
      <trkpt lat="43.45819" lon="-1.57259">
        <ele>26.57</ele>
        <time>2021-07-05T12:41:01Z</time>
      </trkpt>
      <trkpt lat="43.45815" lon="-1.57253">
        <ele>26.09</ele>
        <time>2021-07-05T12:41:02Z</time>
      </trkpt>
      <trkpt lat="43.45806" lon="-1.57247">
        <ele>26.09</ele>
        <time>2021-07-05T12:41:03Z</time>
      </trkpt>
      <trkpt lat="43.45806" lon="-1.57247">
        <ele>26.09</ele>
        <time>2021-07-05T12:41:04Z</time>
      </trkpt>
      <trkpt lat="43.45686" lon="-1.57235">
        <ele>28.02</ele>
        <time>2021-07-05T12:41:15Z</time>
      </trkpt>
      <trkpt lat="43.45676" lon="-1.57236">
        <ele>28.02</ele>
        <time>2021-07-05T12:41:16Z</time>
      </trkpt>
      <trkpt lat="43.45676" lon="-1.57236">
        <ele>28.98</ele>
        <time>2021-07-05T12:41:17Z</time>
      </trkpt>
      <trkpt lat="43.45667" lon="-1.5724">
        <ele>29.94</ele>
        <time>2021-07-05T12:41:18Z</time>
      </trkpt>
      <trkpt lat="43.45657" lon="-1.57244">
        <ele>30.42</ele>
        <time>2021-07-05T12:41:19Z</time>
      </trkpt>
      <trkpt lat="43.45647" lon="-1.5725">
        <ele>30.42</ele>
        <time>2021-07-05T12:41:20Z</time>
      </trkpt>
      <trkpt lat="43.45568" lon="-1.57318">
        <ele>35.71</ele>
        <time>2021-07-05T12:41:29Z</time>
      </trkpt>
      <trkpt lat="43.45548" lon="-1.5733">
        <ele>33.78</ele>
        <time>2021-07-05T12:41:30Z</time>
      </trkpt>
      <trkpt lat="43.45548" lon="-1.5733">
        <ele>32.82</ele>
        <time>2021-07-05T12:41:31Z</time>
      </trkpt>
      <trkpt lat="43.45537" lon="-1.57332">
        <ele>30.42</ele>
        <time>2021-07-05T12:41:32Z</time>
      </trkpt>
      <trkpt lat="43.45525" lon="-1.57335">
        <ele>29.46</ele>
        <time>2021-07-05T12:41:33Z</time>
      </trkpt>
      <trkpt lat="43.45427" lon="-1.57354">
        <ele>35.23</ele>
        <time>2021-07-05T12:41:42Z</time>
      </trkpt>
      <trkpt lat="43.45353" lon="-1.57375">
        <ele>36.67</ele>
        <time>2021-07-05T12:41:51Z</time>
      </trkpt>
      <trkpt lat="43.45199" lon="-1.57399">
        <ele>50.13</ele>
        <time>2021-07-05T12:42:04Z</time>
      </trkpt>
      <trkpt lat="43.45199" lon="-1.57399">
        <ele>49.65</ele>
        <time>2021-07-05T12:42:05Z</time>
      </trkpt>
      <trkpt lat="43.45108" lon="-1.57451">
        <ele>53.01</ele>
        <time>2021-07-05T12:42:14Z</time>
      </trkpt>
      <trkpt lat="43.45103" lon="-1.57456">
        <ele>53.01</ele>
        <time>2021-07-05T12:42:15Z</time>
      </trkpt>
      <trkpt lat="43.45093" lon="-1.57461">
        <ele>53.01</ele>
        <time>2021-07-05T12:42:16Z</time>
      </trkpt>
      <trkpt lat="43.45083" lon="-1.57465">
        <ele>53.01</ele>
        <time>2021-07-05T12:42:18Z</time>
      </trkpt>
      <trkpt lat="43.45083" lon="-1.57465">
        <ele>53.49</ele>
        <time>2021-07-05T12:42:19Z</time>
      </trkpt>
      <trkpt lat="43.45075" lon="-1.57473">
        <ele>53.97</ele>
        <time>2021-07-05T12:42:20Z</time>
      </trkpt>
      <trkpt lat="43.45075" lon="-1.57473">
        <ele>54.93</ele>
        <time>2021-07-05T12:42:21Z</time>
      </trkpt>
      <trkpt lat="43.45071" lon="-1.57478">
        <ele>55.41</ele>
        <time>2021-07-05T12:42:22Z</time>
      </trkpt>
      <trkpt lat="43.45052" lon="-1.575">
        <ele>56.86</ele>
        <time>2021-07-05T12:42:27Z</time>
      </trkpt>
      <trkpt lat="43.45048" lon="-1.57503">
        <ele>56.86</ele>
        <time>2021-07-05T12:42:28Z</time>
      </trkpt>
      <trkpt lat="43.45045" lon="-1.57506">
        <ele>57.34</ele>
        <time>2021-07-05T12:42:29Z</time>
      </trkpt>
      <trkpt lat="43.45047" lon="-1.57501">
        <ele>57.82</ele>
        <time>2021-07-05T12:42:30Z</time>
      </trkpt>
      <trkpt lat="43.45044" lon="-1.57495">
        <ele>57.82</ele>
        <time>2021-07-05T12:42:31Z</time>
      </trkpt>
      <trkpt lat="43.45044" lon="-1.57495">
        <ele>57.82</ele>
        <time>2021-07-05T12:42:32Z</time>
      </trkpt>
      <trkpt lat="43.45046" lon="-1.57505">
        <ele>57.82</ele>
        <time>2021-07-05T12:42:33Z</time>
      </trkpt>
      <trkpt lat="43.45048" lon="-1.57503">
        <ele>57.34</ele>
        <time>2021-07-05T12:42:34Z</time>
      </trkpt>
      <trkpt lat="43.4505" lon="-1.57501">
        <ele>56.86</ele>
        <time>2021-07-05T12:42:35Z</time>
      </trkpt>
      <trkpt lat="43.45051" lon="-1.575">
        <ele>56.37</ele>
        <time>2021-07-05T12:42:36Z</time>
      </trkpt>
      <trkpt lat="43.45045" lon="-1.57496">
        <ele>56.37</ele>
        <time>2021-07-05T12:42:37Z</time>
      </trkpt>
      <trkpt lat="43.45055" lon="-1.57496">
        <ele>56.86</ele>
        <time>2021-07-05T12:42:40Z</time>
      </trkpt>
      <trkpt lat="43.45055" lon="-1.57496">
        <ele>56.37</ele>
        <time>2021-07-05T12:42:41Z</time>
      </trkpt>
      <trkpt lat="43.45057" lon="-1.57494">
        <ele>56.37</ele>
        <time>2021-07-05T12:42:42Z</time>
      </trkpt>
      <trkpt lat="43.4506" lon="-1.5749">
        <ele>56.37</ele>
        <time>2021-07-05T12:42:43Z</time>
      </trkpt>
      <trkpt lat="43.45063" lon="-1.57487">
        <ele>56.37</ele>
        <time>2021-07-05T12:42:44Z</time>
      </trkpt>
      <trkpt lat="43.45079" lon="-1.57469">
        <ele>55.89</ele>
        <time>2021-07-05T12:42:48Z</time>
      </trkpt>
      <trkpt lat="43.45082" lon="-1.57465">
        <ele>55.41</ele>
        <time>2021-07-05T12:42:49Z</time>
      </trkpt>
      <trkpt lat="43.45086" lon="-1.57464">
        <ele>55.41</ele>
        <time>2021-07-05T12:42:50Z</time>
      </trkpt>
      <trkpt lat="43.45089" lon="-1.57462">
        <ele>55.41</ele>
        <time>2021-07-05T12:42:51Z</time>
      </trkpt>
      <trkpt lat="43.45092" lon="-1.57461">
        <ele>55.41</ele>
        <time>2021-07-05T12:42:52Z</time>
      </trkpt>
      <trkpt lat="43.45093" lon="-1.57461">
        <ele>54.93</ele>
        <time>2021-07-05T12:43:11Z</time>
      </trkpt>
      <trkpt lat="43.45093" lon="-1.57461">
        <ele>54.45</ele>
        <time>2021-07-05T12:43:19Z</time>
      </trkpt>
      <trkpt lat="43.45096" lon="-1.5746">
        <ele>54.45</ele>
        <time>2021-07-05T12:43:20Z</time>
      </trkpt>
      <trkpt lat="43.45096" lon="-1.57465">
        <ele>53.97</ele>
        <time>2021-07-05T12:43:22Z</time>
      </trkpt>
      <trkpt lat="43.45093" lon="-1.5747">
        <ele>54.45</ele>
        <time>2021-07-05T12:43:23Z</time>
      </trkpt>
      <trkpt lat="43.4509" lon="-1.57475">
        <ele>54.93</ele>
        <time>2021-07-05T12:43:24Z</time>
      </trkpt>
      <trkpt lat="43.45082" lon="-1.5749">
        <ele>54.93</ele>
        <time>2021-07-05T12:43:25Z</time>
      </trkpt>
      <trkpt lat="43.45082" lon="-1.5749">
        <ele>55.41</ele>
        <time>2021-07-05T12:43:26Z</time>
      </trkpt>
      <trkpt lat="43.45074" lon="-1.5751">
        <ele>56.37</ele>
        <time>2021-07-05T12:43:28Z</time>
      </trkpt>
      <trkpt lat="43.45069" lon="-1.57524">
        <ele>57.34</ele>
        <time>2021-07-05T12:43:29Z</time>
      </trkpt>
      <trkpt lat="43.45026" lon="-1.5766">
        <ele>60.22</ele>
        <time>2021-07-05T12:43:37Z</time>
      </trkpt>
      <trkpt lat="43.4496" lon="-1.57831">
        <ele>65.99</ele>
        <time>2021-07-05T12:43:49Z</time>
      </trkpt>
      <trkpt lat="43.44932" lon="-1.5796">
        <ele>73.2</ele>
        <time>2021-07-05T12:43:59Z</time>
      </trkpt>
      <trkpt lat="43.44921" lon="-1.57986">
        <ele>74.64</ele>
        <time>2021-07-05T12:44:00Z</time>
      </trkpt>
      <trkpt lat="43.44914" lon="-1.57998">
        <ele>75.6</ele>
        <time>2021-07-05T12:44:01Z</time>
      </trkpt>
      <trkpt lat="43.44914" lon="-1.57998">
        <ele>76.08</ele>
        <time>2021-07-05T12:44:02Z</time>
      </trkpt>
      <trkpt lat="43.44907" lon="-1.58009">
        <ele>77.04</ele>
        <time>2021-07-05T12:44:03Z</time>
      </trkpt>
      <trkpt lat="43.44899" lon="-1.58019">
        <ele>78</ele>
        <time>2021-07-05T12:44:04Z</time>
      </trkpt>
      <trkpt lat="43.44892" lon="-1.58028">
        <ele>78.97</ele>
        <time>2021-07-05T12:44:05Z</time>
      </trkpt>
      <trkpt lat="43.44761" lon="-1.58147">
        <ele>77.52</ele>
        <time>2021-07-05T12:44:21Z</time>
      </trkpt>
      <trkpt lat="43.44662" lon="-1.58237">
        <ele>75.6</ele>
        <time>2021-07-05T12:44:36Z</time>
      </trkpt>
      <trkpt lat="43.44626" lon="-1.58251">
        <ele>73.68</ele>
        <time>2021-07-05T12:44:48Z</time>
      </trkpt>
      <trkpt lat="43.44622" lon="-1.58252">
        <ele>74.16</ele>
        <time>2021-07-05T12:44:50Z</time>
      </trkpt>
      <trkpt lat="43.44616" lon="-1.58257">
        <ele>74.16</ele>
        <time>2021-07-05T12:44:51Z</time>
      </trkpt>
      <trkpt lat="43.44612" lon="-1.58262">
        <ele>74.16</ele>
        <time>2021-07-05T12:44:52Z</time>
      </trkpt>
      <trkpt lat="43.44564" lon="-1.58322">
        <ele>75.6</ele>
        <time>2021-07-05T12:45:01Z</time>
      </trkpt>
      <trkpt lat="43.4445" lon="-1.58428">
        <ele>76.08</ele>
        <time>2021-07-05T12:45:16Z</time>
      </trkpt>
      <trkpt lat="43.44342" lon="-1.58515">
        <ele>75.6</ele>
        <time>2021-07-05T12:45:30Z</time>
      </trkpt>
      <trkpt lat="43.44331" lon="-1.58522">
        <ele>75.12</ele>
        <time>2021-07-05T12:45:32Z</time>
      </trkpt>
      <trkpt lat="43.44326" lon="-1.58525">
        <ele>75.12</ele>
        <time>2021-07-05T12:45:33Z</time>
      </trkpt>
      <trkpt lat="43.4432" lon="-1.58541">
        <ele>74.64</ele>
        <time>2021-07-05T12:45:35Z</time>
      </trkpt>
      <trkpt lat="43.44316" lon="-1.58546">
        <ele>73.68</ele>
        <time>2021-07-05T12:45:36Z</time>
      </trkpt>
      <trkpt lat="43.44308" lon="-1.58549">
        <ele>73.2</ele>
        <time>2021-07-05T12:45:37Z</time>
      </trkpt>
      <trkpt lat="43.44302" lon="-1.58547">
        <ele>72.24</ele>
        <time>2021-07-05T12:45:38Z</time>
      </trkpt>
      <trkpt lat="43.44301" lon="-1.58546">
        <ele>71.27</ele>
        <time>2021-07-05T12:45:39Z</time>
      </trkpt>
      <trkpt lat="43.44292" lon="-1.58531">
        <ele>70.79</ele>
        <time>2021-07-05T12:45:40Z</time>
      </trkpt>
      <trkpt lat="43.44285" lon="-1.5853">
        <ele>70.31</ele>
        <time>2021-07-05T12:45:41Z</time>
      </trkpt>
      <trkpt lat="43.44278" lon="-1.58529">
        <ele>69.83</ele>
        <time>2021-07-05T12:45:42Z</time>
      </trkpt>
      <trkpt lat="43.44236" lon="-1.58531">
        <ele>67.43</ele>
        <time>2021-07-05T12:45:47Z</time>
      </trkpt>
      <trkpt lat="43.44227" lon="-1.58533">
        <ele>66.95</ele>
        <time>2021-07-05T12:45:48Z</time>
      </trkpt>
      <trkpt lat="43.44219" lon="-1.58535">
        <ele>66.47</ele>
        <time>2021-07-05T12:45:49Z</time>
      </trkpt>
      <trkpt lat="43.44211" lon="-1.58537">
        <ele>65.99</ele>
        <time>2021-07-05T12:45:50Z</time>
      </trkpt>
      <trkpt lat="43.44205" lon="-1.58544">
        <ele>65.51</ele>
        <time>2021-07-05T12:45:51Z</time>
      </trkpt>
      <trkpt lat="43.44199" lon="-1.58553">
        <ele>65.03</ele>
        <time>2021-07-05T12:45:52Z</time>
      </trkpt>
      <trkpt lat="43.44193" lon="-1.58563">
        <ele>64.55</ele>
        <time>2021-07-05T12:45:53Z</time>
      </trkpt>
      <trkpt lat="43.44188" lon="-1.58574">
        <ele>65.03</ele>
        <time>2021-07-05T12:45:54Z</time>
      </trkpt>
      <trkpt lat="43.44184" lon="-1.58586">
        <ele>64.55</ele>
        <time>2021-07-05T12:45:55Z</time>
      </trkpt>
      <trkpt lat="43.44165" lon="-1.58653">
        <ele>62.14</ele>
        <time>2021-07-05T12:46:00Z</time>
      </trkpt>
      <trkpt lat="43.44161" lon="-1.58666">
        <ele>62.62</ele>
        <time>2021-07-05T12:46:01Z</time>
      </trkpt>
      <trkpt lat="43.44156" lon="-1.58682">
        <ele>62.14</ele>
        <time>2021-07-05T12:46:02Z</time>
      </trkpt>
      <trkpt lat="43.44138" lon="-1.58702">
        <ele>61.18</ele>
        <time>2021-07-05T12:46:03Z</time>
      </trkpt>
      <trkpt lat="43.44127" lon="-1.58709">
        <ele>59.74</ele>
        <time>2021-07-05T12:46:04Z</time>
      </trkpt>
      <trkpt lat="43.44114" lon="-1.58712">
        <ele>57.34</ele>
        <time>2021-07-05T12:46:05Z</time>
      </trkpt>
      <trkpt lat="43.44114" lon="-1.58712">
        <ele>56.37</ele>
        <time>2021-07-05T12:46:06Z</time>
      </trkpt>
      <trkpt lat="43.44101" lon="-1.58715">
        <ele>54.45</ele>
        <time>2021-07-05T12:46:07Z</time>
      </trkpt>
      <trkpt lat="43.43976" lon="-1.5871">
        <ele>48.68</ele>
        <time>2021-07-05T12:46:19Z</time>
      </trkpt>
      <trkpt lat="43.43929" lon="-1.58726">
        <ele>47.24</ele>
        <time>2021-07-05T12:46:28Z</time>
      </trkpt>
      <trkpt lat="43.43921" lon="-1.58734">
        <ele>47.72</ele>
        <time>2021-07-05T12:46:41Z</time>
      </trkpt>
      <trkpt lat="43.43907" lon="-1.58757">
        <ele>46.28</ele>
        <time>2021-07-05T12:47:21Z</time>
      </trkpt>
      <trkpt lat="43.43882" lon="-1.58838">
        <ele>42.92</ele>
        <time>2021-07-05T12:47:34Z</time>
      </trkpt>
      <trkpt lat="43.43874" lon="-1.58862">
        <ele>41.95</ele>
        <time>2021-07-05T12:47:38Z</time>
      </trkpt>
      <trkpt lat="43.43871" lon="-1.58867">
        <ele>41.95</ele>
        <time>2021-07-05T12:47:39Z</time>
      </trkpt>
      <trkpt lat="43.43867" lon="-1.58872">
        <ele>41.47</ele>
        <time>2021-07-05T12:47:40Z</time>
      </trkpt>
      <trkpt lat="43.43863" lon="-1.58877">
        <ele>41.47</ele>
        <time>2021-07-05T12:47:41Z</time>
      </trkpt>
      <trkpt lat="43.43858" lon="-1.58883">
        <ele>40.99</ele>
        <time>2021-07-05T12:47:42Z</time>
      </trkpt>
      <trkpt lat="43.43811" lon="-1.58936">
        <ele>37.63</ele>
        <time>2021-07-05T12:47:52Z</time>
      </trkpt>
      <trkpt lat="43.43796" lon="-1.58953">
        <ele>36.19</ele>
        <time>2021-07-05T12:48:18Z</time>
      </trkpt>
      <trkpt lat="43.43782" lon="-1.58969">
        <ele>35.23</ele>
        <time>2021-07-05T12:48:21Z</time>
      </trkpt>
      <trkpt lat="43.43776" lon="-1.58984">
        <ele>34.74</ele>
        <time>2021-07-05T12:48:22Z</time>
      </trkpt>
      <trkpt lat="43.43776" lon="-1.58984">
        <ele>34.26</ele>
        <time>2021-07-05T12:48:23Z</time>
      </trkpt>
      <trkpt lat="43.43773" lon="-1.58993">
        <ele>34.26</ele>
        <time>2021-07-05T12:48:24Z</time>
      </trkpt>
      <trkpt lat="43.43769" lon="-1.59001">
        <ele>33.78</ele>
        <time>2021-07-05T12:48:25Z</time>
      </trkpt>
      <trkpt lat="43.43767" lon="-1.59021">
        <ele>33.3</ele>
        <time>2021-07-05T12:48:26Z</time>
      </trkpt>
      <trkpt lat="43.43767" lon="-1.59021">
        <ele>32.82</ele>
        <time>2021-07-05T12:48:27Z</time>
      </trkpt>
      <trkpt lat="43.43767" lon="-1.59045">
        <ele>32.34</ele>
        <time>2021-07-05T12:48:28Z</time>
      </trkpt>
      <trkpt lat="43.43776" lon="-1.59147">
        <ele>30.42</ele>
        <time>2021-07-05T12:48:38Z</time>
      </trkpt>
      <trkpt lat="43.43776" lon="-1.59153">
        <ele>30.42</ele>
        <time>2021-07-05T12:48:39Z</time>
      </trkpt>
      <trkpt lat="43.43756" lon="-1.59178">
        <ele>29.46</ele>
        <time>2021-07-05T12:48:43Z</time>
      </trkpt>
      <trkpt lat="43.4375" lon="-1.59186">
        <ele>28.5</ele>
        <time>2021-07-05T12:48:44Z</time>
      </trkpt>
      <trkpt lat="43.43626" lon="-1.59295">
        <ele>19.36</ele>
        <time>2021-07-05T12:48:57Z</time>
      </trkpt>
      <trkpt lat="43.43425" lon="-1.59472">
        <ele>8.79</ele>
        <time>2021-07-05T12:49:17Z</time>
      </trkpt>
      <trkpt lat="43.43403" lon="-1.59492">
        <ele>8.31</ele>
        <time>2021-07-05T12:49:23Z</time>
      </trkpt>
      <trkpt lat="43.43401" lon="-1.59494">
        <ele>8.79</ele>
        <time>2021-07-05T12:49:38Z</time>
      </trkpt>
      <trkpt lat="43.43382" lon="-1.59511">
        <ele>7.35</ele>
        <time>2021-07-05T12:49:53Z</time>
      </trkpt>
      <trkpt lat="43.43319" lon="-1.59564">
        <ele>5.42</ele>
        <time>2021-07-05T12:50:05Z</time>
      </trkpt>
      <trkpt lat="43.43216" lon="-1.59665">
        <ele>5.91</ele>
        <time>2021-07-05T12:50:23Z</time>
      </trkpt>
      <trkpt lat="43.43156" lon="-1.59752">
        <ele>5.91</ele>
        <time>2021-07-05T12:50:37Z</time>
      </trkpt>
      <trkpt lat="43.43153" lon="-1.59758">
        <ele>5.91</ele>
        <time>2021-07-05T12:50:38Z</time>
      </trkpt>
      <trkpt lat="43.43148" lon="-1.59771">
        <ele>5.91</ele>
        <time>2021-07-05T12:50:39Z</time>
      </trkpt>
      <trkpt lat="43.43149" lon="-1.59776">
        <ele>5.91</ele>
        <time>2021-07-05T12:50:40Z</time>
      </trkpt>
      <trkpt lat="43.43149" lon="-1.59776">
        <ele>5.91</ele>
        <time>2021-07-05T12:50:41Z</time>
      </trkpt>
      <trkpt lat="43.43151" lon="-1.59782">
        <ele>5.91</ele>
        <time>2021-07-05T12:50:42Z</time>
      </trkpt>
      <trkpt lat="43.43149" lon="-1.59787">
        <ele>5.91</ele>
        <time>2021-07-05T12:50:43Z</time>
      </trkpt>
      <trkpt lat="43.43147" lon="-1.59793">
        <ele>5.91</ele>
        <time>2021-07-05T12:50:44Z</time>
      </trkpt>
      <trkpt lat="43.43143" lon="-1.59796">
        <ele>5.91</ele>
        <time>2021-07-05T12:50:45Z</time>
      </trkpt>
      <trkpt lat="43.43138" lon="-1.59797">
        <ele>5.91</ele>
        <time>2021-07-05T12:50:46Z</time>
      </trkpt>
      <trkpt lat="43.43124" lon="-1.59801">
        <ele>5.91</ele>
        <time>2021-07-05T12:50:48Z</time>
      </trkpt>
      <trkpt lat="43.4312" lon="-1.59807">
        <ele>5.91</ele>
        <time>2021-07-05T12:50:49Z</time>
      </trkpt>
      <trkpt lat="43.43115" lon="-1.59813">
        <ele>5.91</ele>
        <time>2021-07-05T12:50:50Z</time>
      </trkpt>
      <trkpt lat="43.43048" lon="-1.59908">
        <ele>8.31</ele>
        <time>2021-07-05T12:51:00Z</time>
      </trkpt>
      <trkpt lat="43.42878" lon="-1.60116">
        <ele>18.88</ele>
        <time>2021-07-05T12:51:19Z</time>
      </trkpt>
      <trkpt lat="43.42768" lon="-1.60258">
        <ele>23.21</ele>
        <time>2021-07-05T12:51:32Z</time>
      </trkpt>
      <trkpt lat="43.42762" lon="-1.6027">
        <ele>23.21</ele>
        <time>2021-07-05T12:51:33Z</time>
      </trkpt>
      <trkpt lat="43.42759" lon="-1.60283">
        <ele>23.21</ele>
        <time>2021-07-05T12:51:34Z</time>
      </trkpt>
      <trkpt lat="43.4275" lon="-1.60335">
        <ele>25.61</ele>
        <time>2021-07-05T12:51:38Z</time>
      </trkpt>
      <trkpt lat="43.42745" lon="-1.60358">
        <ele>26.57</ele>
        <time>2021-07-05T12:51:39Z</time>
      </trkpt>
      <trkpt lat="43.42743" lon="-1.60366">
        <ele>28.02</ele>
        <time>2021-07-05T12:51:40Z</time>
      </trkpt>
      <trkpt lat="43.42743" lon="-1.60366">
        <ele>28.5</ele>
        <time>2021-07-05T12:51:41Z</time>
      </trkpt>
      <trkpt lat="43.42736" lon="-1.60374">
        <ele>28.98</ele>
        <time>2021-07-05T12:51:42Z</time>
      </trkpt>
      <trkpt lat="43.42722" lon="-1.60388">
        <ele>28.5</ele>
        <time>2021-07-05T12:51:43Z</time>
      </trkpt>
      <trkpt lat="43.42713" lon="-1.60392">
        <ele>28.98</ele>
        <time>2021-07-05T12:51:44Z</time>
      </trkpt>
      <trkpt lat="43.42713" lon="-1.60392">
        <ele>28.5</ele>
        <time>2021-07-05T12:51:45Z</time>
      </trkpt>
      <trkpt lat="43.42696" lon="-1.60388">
        <ele>28.98</ele>
        <time>2021-07-05T12:51:46Z</time>
      </trkpt>
      <trkpt lat="43.42696" lon="-1.60388">
        <ele>28.98</ele>
        <time>2021-07-05T12:51:47Z</time>
      </trkpt>
      <trkpt lat="43.42688" lon="-1.60383">
        <ele>29.46</ele>
        <time>2021-07-05T12:51:48Z</time>
      </trkpt>
      <trkpt lat="43.4266" lon="-1.60375">
        <ele>28.98</ele>
        <time>2021-07-05T12:51:50Z</time>
      </trkpt>
      <trkpt lat="43.4265" lon="-1.60375">
        <ele>28.98</ele>
        <time>2021-07-05T12:51:51Z</time>
      </trkpt>
      <trkpt lat="43.4265" lon="-1.60375">
        <ele>28.98</ele>
        <time>2021-07-05T12:51:52Z</time>
      </trkpt>
      <trkpt lat="43.42642" lon="-1.60377">
        <ele>29.46</ele>
        <time>2021-07-05T12:51:53Z</time>
      </trkpt>
      <trkpt lat="43.42626" lon="-1.60384">
        <ele>29.46</ele>
        <time>2021-07-05T12:51:54Z</time>
      </trkpt>
      <trkpt lat="43.42584" lon="-1.60401">
        <ele>28.98</ele>
        <time>2021-07-05T12:52:02Z</time>
      </trkpt>
      <trkpt lat="43.42531" lon="-1.60425">
        <ele>29.46</ele>
        <time>2021-07-05T12:52:15Z</time>
      </trkpt>
      <trkpt lat="43.42455" lon="-1.60461">
        <ele>31.38</ele>
        <time>2021-07-05T12:52:27Z</time>
      </trkpt>
      <trkpt lat="43.42455" lon="-1.60461">
        <ele>31.38</ele>
        <time>2021-07-05T12:52:50Z</time>
      </trkpt>
      <trkpt lat="43.42433" lon="-1.6047">
        <ele>32.34</ele>
        <time>2021-07-05T12:53:02Z</time>
      </trkpt>
      <trkpt lat="43.42339" lon="-1.60507">
        <ele>33.78</ele>
        <time>2021-07-05T12:53:14Z</time>
      </trkpt>
      <trkpt lat="43.42282" lon="-1.60516">
        <ele>35.23</ele>
        <time>2021-07-05T12:53:21Z</time>
      </trkpt>
      <trkpt lat="43.42274" lon="-1.60514">
        <ele>35.71</ele>
        <time>2021-07-05T12:53:22Z</time>
      </trkpt>
      <trkpt lat="43.42264" lon="-1.60511">
        <ele>36.67</ele>
        <time>2021-07-05T12:53:23Z</time>
      </trkpt>
      <trkpt lat="43.42195" lon="-1.60494">
        <ele>40.03</ele>
        <time>2021-07-05T12:53:29Z</time>
      </trkpt>
      <trkpt lat="43.42195" lon="-1.60494">
        <ele>40.03</ele>
        <time>2021-07-05T12:53:30Z</time>
      </trkpt>
      <trkpt lat="43.42175" lon="-1.60496">
        <ele>40.99</ele>
        <time>2021-07-05T12:53:31Z</time>
      </trkpt>
      <trkpt lat="43.42175" lon="-1.60496">
        <ele>42.44</ele>
        <time>2021-07-05T12:53:32Z</time>
      </trkpt>
      <trkpt lat="43.42165" lon="-1.60498">
        <ele>44.84</ele>
        <time>2021-07-05T12:53:33Z</time>
      </trkpt>
      <trkpt lat="43.42155" lon="-1.60505">
        <ele>46.28</ele>
        <time>2021-07-05T12:53:34Z</time>
      </trkpt>
      <trkpt lat="43.42147" lon="-1.60513">
        <ele>47.24</ele>
        <time>2021-07-05T12:53:35Z</time>
      </trkpt>
      <trkpt lat="43.42131" lon="-1.60531">
        <ele>46.76</ele>
        <time>2021-07-05T12:53:36Z</time>
      </trkpt>
      <trkpt lat="43.42131" lon="-1.60531">
        <ele>45.32</ele>
        <time>2021-07-05T12:53:37Z</time>
      </trkpt>
      <trkpt lat="43.42118" lon="-1.60553">
        <ele>45.32</ele>
        <time>2021-07-05T12:53:38Z</time>
      </trkpt>
      <trkpt lat="43.42113" lon="-1.60564">
        <ele>45.32</ele>
        <time>2021-07-05T12:53:39Z</time>
      </trkpt>
      <trkpt lat="43.42113" lon="-1.60564">
        <ele>45.8</ele>
        <time>2021-07-05T12:53:40Z</time>
      </trkpt>
      <trkpt lat="43.4211" lon="-1.60574">
        <ele>46.76</ele>
        <time>2021-07-05T12:53:41Z</time>
      </trkpt>
      <trkpt lat="43.42099" lon="-1.60607">
        <ele>48.68</ele>
        <time>2021-07-05T12:53:48Z</time>
      </trkpt>
      <trkpt lat="43.42092" lon="-1.60631">
        <ele>51.09</ele>
        <time>2021-07-05T12:53:57Z</time>
      </trkpt>
      <trkpt lat="43.42073" lon="-1.60676">
        <ele>54.45</ele>
        <time>2021-07-05T12:54:03Z</time>
      </trkpt>
      <trkpt lat="43.42063" lon="-1.60692">
        <ele>54.93</ele>
        <time>2021-07-05T12:54:04Z</time>
      </trkpt>
      <trkpt lat="43.42004" lon="-1.60735">
        <ele>52.53</ele>
        <time>2021-07-05T12:54:12Z</time>
      </trkpt>
      <trkpt lat="43.41994" lon="-1.60737">
        <ele>51.09</ele>
        <time>2021-07-05T12:54:13Z</time>
      </trkpt>
      <trkpt lat="43.41994" lon="-1.60737">
        <ele>49.65</ele>
        <time>2021-07-05T12:54:14Z</time>
      </trkpt>
      <trkpt lat="43.4194" lon="-1.60747">
        <ele>46.28</ele>
        <time>2021-07-05T12:54:22Z</time>
      </trkpt>
      <trkpt lat="43.41884" lon="-1.60756">
        <ele>42.44</ele>
        <time>2021-07-05T12:54:33Z</time>
      </trkpt>
      <trkpt lat="43.41861" lon="-1.60768">
        <ele>40.99</ele>
        <time>2021-07-05T12:54:36Z</time>
      </trkpt>
      <trkpt lat="43.41845" lon="-1.6078">
        <ele>41.95</ele>
        <time>2021-07-05T12:54:37Z</time>
      </trkpt>
      <trkpt lat="43.41845" lon="-1.6078">
        <ele>42.44</ele>
        <time>2021-07-05T12:54:38Z</time>
      </trkpt>
      <trkpt lat="43.41837" lon="-1.60789">
        <ele>42.92</ele>
        <time>2021-07-05T12:54:39Z</time>
      </trkpt>
      <trkpt lat="43.4182" lon="-1.60811">
        <ele>41.95</ele>
        <time>2021-07-05T12:54:40Z</time>
      </trkpt>
      <trkpt lat="43.41686" lon="-1.60992">
        <ele>28.02</ele>
        <time>2021-07-05T12:54:56Z</time>
      </trkpt>
      <trkpt lat="43.41546" lon="-1.61184">
        <ele>24.65</ele>
        <time>2021-07-05T12:55:10Z</time>
      </trkpt>
      <trkpt lat="43.41426" lon="-1.61349">
        <ele>35.23</ele>
        <time>2021-07-05T12:55:22Z</time>
      </trkpt>
      <trkpt lat="43.41331" lon="-1.615">
        <ele>41.95</ele>
        <time>2021-07-05T12:55:33Z</time>
      </trkpt>
      <trkpt lat="43.41262" lon="-1.61701">
        <ele>48.2</ele>
        <time>2021-07-05T12:55:46Z</time>
      </trkpt>
      <trkpt lat="43.41256" lon="-1.6172">
        <ele>48.2</ele>
        <time>2021-07-05T12:55:48Z</time>
      </trkpt>
      <trkpt lat="43.41253" lon="-1.61729">
        <ele>48.2</ele>
        <time>2021-07-05T12:55:49Z</time>
      </trkpt>
      <trkpt lat="43.41251" lon="-1.61754">
        <ele>49.16</ele>
        <time>2021-07-05T12:55:51Z</time>
      </trkpt>
      <trkpt lat="43.41253" lon="-1.61761">
        <ele>49.16</ele>
        <time>2021-07-05T12:55:52Z</time>
      </trkpt>
      <trkpt lat="43.41248" lon="-1.61777">
        <ele>49.65</ele>
        <time>2021-07-05T12:55:53Z</time>
      </trkpt>
      <trkpt lat="43.41197" lon="-1.61859">
        <ele>47.72</ele>
        <time>2021-07-05T12:56:02Z</time>
      </trkpt>
      <trkpt lat="43.4108" lon="-1.6206">
        <ele>41.47</ele>
        <time>2021-07-05T12:56:15Z</time>
      </trkpt>
      <trkpt lat="43.40936" lon="-1.62319">
        <ele>28.02</ele>
        <time>2021-07-05T12:56:32Z</time>
      </trkpt>
      <trkpt lat="43.40857" lon="-1.62457">
        <ele>22.25</ele>
        <time>2021-07-05T12:56:42Z</time>
      </trkpt>
      <trkpt lat="43.40749" lon="-1.62654">
        <ele>23.69</ele>
        <time>2021-07-05T12:56:55Z</time>
      </trkpt>
      <trkpt lat="43.40613" lon="-1.62886">
        <ele>11.19</ele>
        <time>2021-07-05T12:57:08Z</time>
      </trkpt>
      <trkpt lat="43.40398" lon="-1.6327">
        <ele>11.67</ele>
        <time>2021-07-05T12:57:28Z</time>
      </trkpt>
      <trkpt lat="43.40285" lon="-1.6347">
        <ele>15.52</ele>
        <time>2021-07-05T12:57:40Z</time>
      </trkpt>
      <trkpt lat="43.40259" lon="-1.63514">
        <ele>16</ele>
        <time>2021-07-05T12:57:46Z</time>
      </trkpt>
      <trkpt lat="43.4025" lon="-1.6353">
        <ele>16.96</ele>
        <time>2021-07-05T12:57:55Z</time>
      </trkpt>
      <trkpt lat="43.40235" lon="-1.63556">
        <ele>17.92</ele>
        <time>2021-07-05T12:58:04Z</time>
      </trkpt>
      <trkpt lat="43.4019" lon="-1.63635">
        <ele>20.32</ele>
        <time>2021-07-05T12:58:13Z</time>
      </trkpt>
      <trkpt lat="43.40166" lon="-1.63679">
        <ele>21.29</ele>
        <time>2021-07-05T12:58:22Z</time>
      </trkpt>
      <trkpt lat="43.40156" lon="-1.63696">
        <ele>22.25</ele>
        <time>2021-07-05T12:59:28Z</time>
      </trkpt>
      <trkpt lat="43.40114" lon="-1.63767">
        <ele>24.65</ele>
        <time>2021-07-05T12:59:36Z</time>
      </trkpt>
      <trkpt lat="43.40024" lon="-1.63927">
        <ele>28.5</ele>
        <time>2021-07-05T12:59:49Z</time>
      </trkpt>
      <trkpt lat="43.39985" lon="-1.63995">
        <ele>28.02</ele>
        <time>2021-07-05T12:59:59Z</time>
      </trkpt>
      <trkpt lat="43.39956" lon="-1.64039">
        <ele>27.05</ele>
        <time>2021-07-05T13:00:11Z</time>
      </trkpt>
      <trkpt lat="43.39953" lon="-1.64044">
        <ele>27.05</ele>
        <time>2021-07-05T13:00:12Z</time>
      </trkpt>
      <trkpt lat="43.39949" lon="-1.64067">
        <ele>26.57</ele>
        <time>2021-07-05T13:00:15Z</time>
      </trkpt>
      <trkpt lat="43.39946" lon="-1.64077">
        <ele>26.57</ele>
        <time>2021-07-05T13:00:16Z</time>
      </trkpt>
      <trkpt lat="43.39887" lon="-1.64169">
        <ele>25.61</ele>
        <time>2021-07-05T13:00:30Z</time>
      </trkpt>
      <trkpt lat="43.39818" lon="-1.64278">
        <ele>25.13</ele>
        <time>2021-07-05T13:00:43Z</time>
      </trkpt>
      <trkpt lat="43.3981" lon="-1.64283">
        <ele>24.17</ele>
        <time>2021-07-05T13:00:44Z</time>
      </trkpt>
      <trkpt lat="43.39802" lon="-1.64288">
        <ele>24.65</ele>
        <time>2021-07-05T13:00:45Z</time>
      </trkpt>
      <trkpt lat="43.39794" lon="-1.64291">
        <ele>24.65</ele>
        <time>2021-07-05T13:00:46Z</time>
      </trkpt>
      <trkpt lat="43.39786" lon="-1.64293">
        <ele>24.17</ele>
        <time>2021-07-05T13:00:47Z</time>
      </trkpt>
      <trkpt lat="43.39777" lon="-1.64294">
        <ele>23.69</ele>
        <time>2021-07-05T13:00:48Z</time>
      </trkpt>
      <trkpt lat="43.39769" lon="-1.64296">
        <ele>23.21</ele>
        <time>2021-07-05T13:00:49Z</time>
      </trkpt>
      <trkpt lat="43.39752" lon="-1.64299">
        <ele>22.73</ele>
        <time>2021-07-05T13:00:51Z</time>
      </trkpt>
      <trkpt lat="43.39744" lon="-1.64302">
        <ele>22.25</ele>
        <time>2021-07-05T13:00:52Z</time>
      </trkpt>
      <trkpt lat="43.39736" lon="-1.64306">
        <ele>21.29</ele>
        <time>2021-07-05T13:00:53Z</time>
      </trkpt>
      <trkpt lat="43.39723" lon="-1.64319">
        <ele>20.81</ele>
        <time>2021-07-05T13:00:54Z</time>
      </trkpt>
      <trkpt lat="43.39723" lon="-1.64319">
        <ele>20.32</ele>
        <time>2021-07-05T13:00:55Z</time>
      </trkpt>
      <trkpt lat="43.3972" lon="-1.64327">
        <ele>19.84</ele>
        <time>2021-07-05T13:00:56Z</time>
      </trkpt>
      <trkpt lat="43.39717" lon="-1.64335">
        <ele>19.84</ele>
        <time>2021-07-05T13:00:57Z</time>
      </trkpt>
      <trkpt lat="43.39716" lon="-1.64342">
        <ele>19.84</ele>
        <time>2021-07-05T13:00:58Z</time>
      </trkpt>
      <trkpt lat="43.39716" lon="-1.6435">
        <ele>20.32</ele>
        <time>2021-07-05T13:00:59Z</time>
      </trkpt>
      <trkpt lat="43.39717" lon="-1.64357">
        <ele>19.84</ele>
        <time>2021-07-05T13:01:00Z</time>
      </trkpt>
      <trkpt lat="43.39718" lon="-1.64364">
        <ele>20.32</ele>
        <time>2021-07-05T13:01:01Z</time>
      </trkpt>
      <trkpt lat="43.3972" lon="-1.64371">
        <ele>20.32</ele>
        <time>2021-07-05T13:01:02Z</time>
      </trkpt>
      <trkpt lat="43.39723" lon="-1.64391">
        <ele>20.81</ele>
        <time>2021-07-05T13:01:05Z</time>
      </trkpt>
      <trkpt lat="43.39723" lon="-1.64397">
        <ele>20.81</ele>
        <time>2021-07-05T13:01:06Z</time>
      </trkpt>
      <trkpt lat="43.39724" lon="-1.64404">
        <ele>20.81</ele>
        <time>2021-07-05T13:01:07Z</time>
      </trkpt>
      <trkpt lat="43.39723" lon="-1.64418">
        <ele>20.81</ele>
        <time>2021-07-05T13:01:09Z</time>
      </trkpt>
      <trkpt lat="43.39722" lon="-1.64426">
        <ele>20.81</ele>
        <time>2021-07-05T13:01:10Z</time>
      </trkpt>
      <trkpt lat="43.3973" lon="-1.64444">
        <ele>20.81</ele>
        <time>2021-07-05T13:01:12Z</time>
      </trkpt>
      <trkpt lat="43.39728" lon="-1.64451">
        <ele>20.81</ele>
        <time>2021-07-05T13:01:13Z</time>
      </trkpt>
      <trkpt lat="43.39726" lon="-1.64458">
        <ele>20.81</ele>
        <time>2021-07-05T13:01:14Z</time>
      </trkpt>
      <trkpt lat="43.39726" lon="-1.64458">
        <ele>20.81</ele>
        <time>2021-07-05T13:01:15Z</time>
      </trkpt>
      <trkpt lat="43.39713" lon="-1.64472">
        <ele>20.81</ele>
        <time>2021-07-05T13:01:16Z</time>
      </trkpt>
      <trkpt lat="43.39691" lon="-1.64513">
        <ele>20.32</ele>
        <time>2021-07-05T13:01:26Z</time>
      </trkpt>
      <trkpt lat="43.3965" lon="-1.64587">
        <ele>20.32</ele>
        <time>2021-07-05T13:01:39Z</time>
      </trkpt>
      <trkpt lat="43.39598" lon="-1.64674">
        <ele>20.32</ele>
        <time>2021-07-05T13:01:53Z</time>
      </trkpt>
      <trkpt lat="43.39535" lon="-1.64786">
        <ele>23.69</ele>
        <time>2021-07-05T13:02:05Z</time>
      </trkpt>
      <trkpt lat="43.39459" lon="-1.64923">
        <ele>25.13</ele>
        <time>2021-07-05T13:02:20Z</time>
      </trkpt>
      <trkpt lat="43.39435" lon="-1.64965">
        <ele>24.65</ele>
        <time>2021-07-05T13:02:30Z</time>
      </trkpt>
      <trkpt lat="43.39422" lon="-1.64988">
        <ele>24.65</ele>
        <time>2021-07-05T13:02:46Z</time>
      </trkpt>
      <trkpt lat="43.39376" lon="-1.65067">
        <ele>23.21</ele>
        <time>2021-07-05T13:02:59Z</time>
      </trkpt>
      <trkpt lat="43.39322" lon="-1.65158">
        <ele>24.17</ele>
        <time>2021-07-05T13:03:13Z</time>
      </trkpt>
      <trkpt lat="43.39253" lon="-1.65283">
        <ele>24.17</ele>
        <time>2021-07-05T13:03:29Z</time>
      </trkpt>
      <trkpt lat="43.39208" lon="-1.65392">
        <ele>23.21</ele>
        <time>2021-07-05T13:03:40Z</time>
      </trkpt>
      <trkpt lat="43.39185" lon="-1.65449">
        <ele>20.32</ele>
        <time>2021-07-05T13:03:47Z</time>
      </trkpt>
      <trkpt lat="43.39182" lon="-1.65456">
        <ele>19.36</ele>
        <time>2021-07-05T13:03:48Z</time>
      </trkpt>
      <trkpt lat="43.39167" lon="-1.65489">
        <ele>16.48</ele>
        <time>2021-07-05T13:03:55Z</time>
      </trkpt>
      <trkpt lat="43.39163" lon="-1.6549">
        <ele>16</ele>
        <time>2021-07-05T13:03:56Z</time>
      </trkpt>
      <trkpt lat="43.39161" lon="-1.65483">
        <ele>15.52</ele>
        <time>2021-07-05T13:03:57Z</time>
      </trkpt>
      <trkpt lat="43.3916" lon="-1.65477">
        <ele>16</ele>
        <time>2021-07-05T13:03:58Z</time>
      </trkpt>
      <trkpt lat="43.3916" lon="-1.65477">
        <ele>16</ele>
        <time>2021-07-05T13:03:59Z</time>
      </trkpt>
      <trkpt lat="43.39155" lon="-1.65468">
        <ele>16</ele>
        <time>2021-07-05T13:04:00Z</time>
      </trkpt>
      <trkpt lat="43.39146" lon="-1.65459">
        <ele>16</ele>
        <time>2021-07-05T13:04:01Z</time>
      </trkpt>
      <trkpt lat="43.39085" lon="-1.65416">
        <ele>16.96</ele>
        <time>2021-07-05T13:04:10Z</time>
      </trkpt>
      <trkpt lat="43.38977" lon="-1.65384">
        <ele>16.96</ele>
        <time>2021-07-05T13:04:22Z</time>
      </trkpt>
      <trkpt lat="43.38899" lon="-1.65367">
        <ele>16.96</ele>
        <time>2021-07-05T13:04:33Z</time>
      </trkpt>
      <trkpt lat="43.38892" lon="-1.6537">
        <ele>17.44</ele>
        <time>2021-07-05T13:04:36Z</time>
      </trkpt>
      <trkpt lat="43.38889" lon="-1.65373">
        <ele>17.44</ele>
        <time>2021-07-05T13:04:37Z</time>
      </trkpt>
      <trkpt lat="43.38846" lon="-1.65446">
        <ele>13.12</ele>
        <time>2021-07-05T13:04:47Z</time>
      </trkpt>
      <trkpt lat="43.3877" lon="-1.65574">
        <ele>6.39</ele>
        <time>2021-07-05T13:04:58Z</time>
      </trkpt>
      <trkpt lat="43.3877" lon="-1.65574">
        <ele>6.39</ele>
        <time>2021-07-05T13:04:59Z</time>
      </trkpt>
      <trkpt lat="43.3876" lon="-1.65599">
        <ele>6.39</ele>
        <time>2021-07-05T13:05:00Z</time>
      </trkpt>
      <trkpt lat="43.38725" lon="-1.65706">
        <ele>4.46</ele>
        <time>2021-07-05T13:05:11Z</time>
      </trkpt>
      <trkpt lat="43.38695" lon="-1.65796">
        <ele>3.98</ele>
        <time>2021-07-05T13:05:23Z</time>
      </trkpt>
      <trkpt lat="43.38694" lon="-1.65817">
        <ele>3.02</ele>
        <time>2021-07-05T13:05:32Z</time>
      </trkpt>
      <trkpt lat="43.38708" lon="-1.65844">
        <ele>2.54</ele>
        <time>2021-07-05T13:05:40Z</time>
      </trkpt>
      <trkpt lat="43.38709" lon="-1.65852">
        <ele>2.06</ele>
        <time>2021-07-05T13:05:42Z</time>
      </trkpt>
      <trkpt lat="43.38709" lon="-1.65854">
        <ele>1.58</ele>
        <time>2021-07-05T13:05:43Z</time>
      </trkpt>
      <trkpt lat="43.38707" lon="-1.65857">
        <ele>1.58</ele>
        <time>2021-07-05T13:05:44Z</time>
      </trkpt>
      <trkpt lat="43.38705" lon="-1.6586">
        <ele>1.1</ele>
        <time>2021-07-05T13:05:45Z</time>
      </trkpt>
      <trkpt lat="43.38703" lon="-1.65863">
        <ele>1.1</ele>
        <time>2021-07-05T13:05:46Z</time>
      </trkpt>
      <trkpt lat="43.38701" lon="-1.65864">
        <ele>1.1</ele>
        <time>2021-07-05T13:05:47Z</time>
      </trkpt>
      <trkpt lat="43.38698" lon="-1.65864">
        <ele>2.06</ele>
        <time>2021-07-05T13:05:48Z</time>
      </trkpt>
      <trkpt lat="43.38694" lon="-1.65864">
        <ele>2.54</ele>
        <time>2021-07-05T13:05:49Z</time>
      </trkpt>
      <trkpt lat="43.38694" lon="-1.65864">
        <ele>3.02</ele>
        <time>2021-07-05T13:05:51Z</time>
      </trkpt>
      <trkpt lat="43.38694" lon="-1.65864">
        <ele>3.02</ele>
        <time>2021-07-05T13:05:52Z</time>
      </trkpt>
      <trkpt lat="43.38678" lon="-1.65864">
        <ele>3.02</ele>
        <time>2021-07-05T13:05:53Z</time>
      </trkpt>
      <trkpt lat="43.38675" lon="-1.65868">
        <ele>3.02</ele>
        <time>2021-07-05T13:05:54Z</time>
      </trkpt>
      <trkpt lat="43.38672" lon="-1.65873">
        <ele>3.02</ele>
        <time>2021-07-05T13:05:55Z</time>
      </trkpt>
      <trkpt lat="43.38668" lon="-1.65878">
        <ele>3.02</ele>
        <time>2021-07-05T13:05:56Z</time>
      </trkpt>
      <trkpt lat="43.38665" lon="-1.65884">
        <ele>3.02</ele>
        <time>2021-07-05T13:05:57Z</time>
      </trkpt>
      <trkpt lat="43.38612" lon="-1.6605">
        <ele>3.02</ele>
        <time>2021-07-05T13:06:15Z</time>
      </trkpt>
      <trkpt lat="43.38608" lon="-1.66143">
        <ele>2.54</ele>
        <time>2021-07-05T13:06:26Z</time>
      </trkpt>
      <trkpt lat="43.38607" lon="-1.66149">
        <ele>2.06</ele>
        <time>2021-07-05T13:06:27Z</time>
      </trkpt>
      <trkpt lat="43.38622" lon="-1.66184">
        <ele>1.58</ele>
        <time>2021-07-05T13:06:35Z</time>
      </trkpt>
      <trkpt lat="43.38653" lon="-1.66262">
        <ele>0.62</ele>
        <time>2021-07-05T13:06:50Z</time>
      </trkpt>
      <trkpt lat="43.38677" lon="-1.66303">
        <ele>-1.3</ele>
        <time>2021-07-05T13:07:02Z</time>
      </trkpt>
      <trkpt lat="43.38686" lon="-1.66291">
        <ele>-1.79</ele>
        <time>2021-07-05T13:07:09Z</time>
      </trkpt>
      <trkpt lat="43.38687" lon="-1.66289">
        <ele>-1.79</ele>
        <time>2021-07-05T13:07:10Z</time>
      </trkpt>
      <trkpt lat="43.38688" lon="-1.66288">
        <ele>-1.79</ele>
        <time>2021-07-05T13:07:11Z</time>
      </trkpt>
      <trkpt lat="43.38689" lon="-1.66283">
        <ele>-2.27</ele>
        <time>2021-07-05T13:07:13Z</time>
      </trkpt>
      <trkpt lat="43.38688" lon="-1.66282">
        <ele>-2.27</ele>
        <time>2021-07-05T13:07:14Z</time>
      </trkpt>
      <trkpt lat="43.38671" lon="-1.6626">
        <ele>-1.79</ele>
        <time>2021-07-05T13:07:25Z</time>
      </trkpt>
      <trkpt lat="43.38665" lon="-1.6625">
        <ele>1.1</ele>
        <time>2021-07-05T13:07:40Z</time>
      </trkpt>
      <trkpt lat="43.38649" lon="-1.66252">
        <ele>1.1</ele>
        <time>2021-07-05T13:07:44Z</time>
      </trkpt>
      <trkpt lat="43.38649" lon="-1.66252">
        <ele>1.1</ele>
        <time>2021-07-05T13:07:45Z</time>
      </trkpt>
      <trkpt lat="43.38649" lon="-1.66252">
        <ele>1.1</ele>
        <time>2021-07-05T13:07:46Z</time>
      </trkpt>
      <trkpt lat="43.38648" lon="-1.66252">
        <ele>0.62</ele>
        <time>2021-07-05T13:07:47Z</time>
      </trkpt>
      <trkpt lat="43.38652" lon="-1.66259">
        <ele>0.62</ele>
        <time>2021-07-05T13:07:48Z</time>
      </trkpt>
      <trkpt lat="43.38655" lon="-1.66269">
        <ele>0.62</ele>
        <time>2021-07-05T13:07:49Z</time>
      </trkpt>
      <trkpt lat="43.38659" lon="-1.6628">
        <ele>0.62</ele>
        <time>2021-07-05T13:07:52Z</time>
      </trkpt>
      <trkpt lat="43.38661" lon="-1.66285">
        <ele>0.62</ele>
        <time>2021-07-05T13:07:53Z</time>
      </trkpt>
      <trkpt lat="43.38663" lon="-1.6629">
        <ele>0.14</ele>
        <time>2021-07-05T13:07:54Z</time>
      </trkpt>
      <trkpt lat="43.38664" lon="-1.66295">
        <ele>0.14</ele>
        <time>2021-07-05T13:07:55Z</time>
      </trkpt>
      <trkpt lat="43.38667" lon="-1.66299">
        <ele>0.14</ele>
        <time>2021-07-05T13:07:56Z</time>
      </trkpt>
      <trkpt lat="43.38672" lon="-1.66303">
        <ele>-0.34</ele>
        <time>2021-07-05T13:07:57Z</time>
      </trkpt>
      <trkpt lat="43.38676" lon="-1.66303">
        <ele>-0.82</ele>
        <time>2021-07-05T13:07:58Z</time>
      </trkpt>
      <trkpt lat="43.38681" lon="-1.66304">
        <ele>-1.3</ele>
        <time>2021-07-05T13:07:59Z</time>
      </trkpt>
      <trkpt lat="43.38685" lon="-1.66307">
        <ele>-1.3</ele>
        <time>2021-07-05T13:08:00Z</time>
      </trkpt>
      <trkpt lat="43.38687" lon="-1.66311">
        <ele>-1.79</ele>
        <time>2021-07-05T13:08:01Z</time>
      </trkpt>
      <trkpt lat="43.38689" lon="-1.66315">
        <ele>-1.3</ele>
        <time>2021-07-05T13:08:02Z</time>
      </trkpt>
      <trkpt lat="43.3869" lon="-1.66321">
        <ele>-0.82</ele>
        <time>2021-07-05T13:08:03Z</time>
      </trkpt>
      <trkpt lat="43.3869" lon="-1.66325">
        <ele>-0.82</ele>
        <time>2021-07-05T13:08:04Z</time>
      </trkpt>
      <trkpt lat="43.38686" lon="-1.66328">
        <ele>-0.82</ele>
        <time>2021-07-05T13:08:05Z</time>
      </trkpt>
      <trkpt lat="43.38683" lon="-1.6633">
        <ele>-0.82</ele>
        <time>2021-07-05T13:08:06Z</time>
      </trkpt>
      <trkpt lat="43.3868" lon="-1.66332">
        <ele>-1.3</ele>
        <time>2021-07-05T13:08:07Z</time>
      </trkpt>
      <trkpt lat="43.38678" lon="-1.66334">
        <ele>-1.3</ele>
        <time>2021-07-05T13:08:08Z</time>
      </trkpt>
      <trkpt lat="43.38673" lon="-1.66334">
        <ele>-1.3</ele>
        <time>2021-07-05T13:08:09Z</time>
      </trkpt>
      <trkpt lat="43.38671" lon="-1.66331">
        <ele>-1.3</ele>
        <time>2021-07-05T13:08:10Z</time>
      </trkpt>
      <trkpt lat="43.38668" lon="-1.66329">
        <ele>-1.3</ele>
        <time>2021-07-05T13:08:11Z</time>
      </trkpt>
      <trkpt lat="43.38664" lon="-1.66325">
        <ele>-0.34</ele>
        <time>2021-07-05T13:08:12Z</time>
      </trkpt>
      <trkpt lat="43.38664" lon="-1.66325">
        <ele>-0.34</ele>
        <time>2021-07-05T13:08:13Z</time>
      </trkpt>
      <trkpt lat="43.38663" lon="-1.66316">
        <ele>-0.34</ele>
        <time>2021-07-05T13:08:14Z</time>
      </trkpt>
      <trkpt lat="43.38658" lon="-1.66309">
        <ele>-0.34</ele>
        <time>2021-07-05T13:08:15Z</time>
      </trkpt>
      <trkpt lat="43.38658" lon="-1.66309">
        <ele>-0.34</ele>
        <time>2021-07-05T13:08:16Z</time>
      </trkpt>
      <trkpt lat="43.38656" lon="-1.66305">
        <ele>-0.34</ele>
        <time>2021-07-05T13:08:17Z</time>
      </trkpt>
      <trkpt lat="43.38632" lon="-1.66237">
        <ele>1.1</ele>
        <time>2021-07-05T13:08:33Z</time>
      </trkpt>
    </trkseg>
  </trk>
  <trk>
    <name><![CDATA[Journal actif: 2021-07-05 11:09]]></name>
    <trkseg>
      <trkpt lat="43.38449" lon="-1.66503">
        <ele>2.54</ele>
        <time>2021-07-05T13:09:20Z</time>
      </trkpt>
      <trkpt lat="43.38374" lon="-1.66622">
        <ele>4.46</ele>
        <time>2021-07-05T13:09:31Z</time>
      </trkpt>
      <trkpt lat="43.38247" lon="-1.66722">
        <ele>3.98</ele>
        <time>2021-07-05T13:09:43Z</time>
      </trkpt>
      <trkpt lat="43.38186" lon="-1.66756">
        <ele>3.98</ele>
        <time>2021-07-05T13:09:51Z</time>
      </trkpt>
      <trkpt lat="43.38081" lon="-1.66834">
        <ele>-0.34</ele>
        <time>2021-07-05T13:10:04Z</time>
      </trkpt>
      <trkpt lat="43.38001" lon="-1.66903">
        <ele>0.14</ele>
        <time>2021-07-05T13:10:15Z</time>
      </trkpt>
      <trkpt lat="43.37927" lon="-1.66981">
        <ele>-0.34</ele>
        <time>2021-07-05T13:10:25Z</time>
      </trkpt>
      <trkpt lat="43.3786" lon="-1.67062">
        <ele>0.14</ele>
        <time>2021-07-05T13:10:36Z</time>
      </trkpt>
      <trkpt lat="43.37836" lon="-1.67104">
        <ele>1.1</ele>
        <time>2021-07-05T13:10:44Z</time>
      </trkpt>
      <trkpt lat="43.37802" lon="-1.67203">
        <ele>3.5</ele>
        <time>2021-07-05T13:10:54Z</time>
      </trkpt>
      <trkpt lat="43.37795" lon="-1.67227">
        <ele>4.46</ele>
        <time>2021-07-05T13:10:56Z</time>
      </trkpt>
      <trkpt lat="43.37795" lon="-1.67227">
        <ele>4.46</ele>
        <time>2021-07-05T13:10:57Z</time>
      </trkpt>
      <trkpt lat="43.37794" lon="-1.67233">
        <ele>3.02</ele>
        <time>2021-07-05T13:10:58Z</time>
      </trkpt>
      <trkpt lat="43.37797" lon="-1.67247">
        <ele>3.02</ele>
        <time>2021-07-05T13:10:59Z</time>
      </trkpt>
      <trkpt lat="43.37801" lon="-1.67249">
        <ele>3.02</ele>
        <time>2021-07-05T13:11:00Z</time>
      </trkpt>
      <trkpt lat="43.37805" lon="-1.67252">
        <ele>3.02</ele>
        <time>2021-07-05T13:11:01Z</time>
      </trkpt>
      <trkpt lat="43.3781" lon="-1.67255">
        <ele>3.02</ele>
        <time>2021-07-05T13:11:02Z</time>
      </trkpt>
      <trkpt lat="43.37848" lon="-1.67275">
        <ele>7.83</ele>
        <time>2021-07-05T13:11:08Z</time>
      </trkpt>
      <trkpt lat="43.37854" lon="-1.67277">
        <ele>8.31</ele>
        <time>2021-07-05T13:11:09Z</time>
      </trkpt>
      <trkpt lat="43.37864" lon="-1.67279">
        <ele>9.27</ele>
        <time>2021-07-05T13:11:10Z</time>
      </trkpt>
      <trkpt lat="43.37867" lon="-1.67274">
        <ele>10.23</ele>
        <time>2021-07-05T13:11:11Z</time>
      </trkpt>
      <trkpt lat="43.37867" lon="-1.67274">
        <ele>10.71</ele>
        <time>2021-07-05T13:11:12Z</time>
      </trkpt>
      <trkpt lat="43.37871" lon="-1.67268">
        <ele>11.19</ele>
        <time>2021-07-05T13:11:13Z</time>
      </trkpt>
      <trkpt lat="43.37875" lon="-1.67265">
        <ele>10.71</ele>
        <time>2021-07-05T13:11:14Z</time>
      </trkpt>
      <trkpt lat="43.37878" lon="-1.67269">
        <ele>10.23</ele>
        <time>2021-07-05T13:11:15Z</time>
      </trkpt>
      <trkpt lat="43.37881" lon="-1.67273">
        <ele>9.75</ele>
        <time>2021-07-05T13:11:16Z</time>
      </trkpt>
      <trkpt lat="43.37883" lon="-1.67277">
        <ele>8.79</ele>
        <time>2021-07-05T13:11:17Z</time>
      </trkpt>
      <trkpt lat="43.37882" lon="-1.67283">
        <ele>8.79</ele>
        <time>2021-07-05T13:11:18Z</time>
      </trkpt>
      <trkpt lat="43.37879" lon="-1.67286">
        <ele>8.31</ele>
        <time>2021-07-05T13:11:19Z</time>
      </trkpt>
      <trkpt lat="43.37871" lon="-1.67284">
        <ele>7.83</ele>
        <time>2021-07-05T13:11:20Z</time>
      </trkpt>
      <trkpt lat="43.37867" lon="-1.67281">
        <ele>6.87</ele>
        <time>2021-07-05T13:11:21Z</time>
      </trkpt>
      <trkpt lat="43.37863" lon="-1.67279">
        <ele>6.39</ele>
        <time>2021-07-05T13:11:22Z</time>
      </trkpt>
      <trkpt lat="43.37857" lon="-1.67278">
        <ele>5.91</ele>
        <time>2021-07-05T13:11:23Z</time>
      </trkpt>
      <trkpt lat="43.37852" lon="-1.67276">
        <ele>5.91</ele>
        <time>2021-07-05T13:11:24Z</time>
      </trkpt>
      <trkpt lat="43.37801" lon="-1.67249">
        <ele>2.54</ele>
        <time>2021-07-05T13:11:36Z</time>
      </trkpt>
      <trkpt lat="43.37794" lon="-1.67245">
        <ele>3.02</ele>
        <time>2021-07-05T13:11:48Z</time>
      </trkpt>
      <trkpt lat="43.37793" lon="-1.67244">
        <ele>3.02</ele>
        <time>2021-07-05T13:11:49Z</time>
      </trkpt>
      <trkpt lat="43.37792" lon="-1.6724">
        <ele>3.02</ele>
        <time>2021-07-05T13:11:50Z</time>
      </trkpt>
      <trkpt lat="43.37793" lon="-1.67235">
        <ele>3.02</ele>
        <time>2021-07-05T13:11:51Z</time>
      </trkpt>
      <trkpt lat="43.37795" lon="-1.67228">
        <ele>3.02</ele>
        <time>2021-07-05T13:11:52Z</time>
      </trkpt>
      <trkpt lat="43.37822" lon="-1.67139">
        <ele>3.98</ele>
        <time>2021-07-05T13:12:03Z</time>
      </trkpt>
      <trkpt lat="43.37831" lon="-1.67115">
        <ele>4.46</ele>
        <time>2021-07-05T13:12:08Z</time>
      </trkpt>
      <trkpt lat="43.37883" lon="-1.67035">
        <ele>4.46</ele>
        <time>2021-07-05T13:12:19Z</time>
      </trkpt>
      <trkpt lat="43.37976" lon="-1.66926">
        <ele>4.94</ele>
        <time>2021-07-05T13:12:31Z</time>
      </trkpt>
      <trkpt lat="43.3805" lon="-1.66861">
        <ele>2.54</ele>
        <time>2021-07-05T13:12:41Z</time>
      </trkpt>
      <trkpt lat="43.38152" lon="-1.66779">
        <ele>3.02</ele>
        <time>2021-07-05T13:12:53Z</time>
      </trkpt>
      <trkpt lat="43.3821" lon="-1.66744">
        <ele>4.46</ele>
        <time>2021-07-05T13:13:01Z</time>
      </trkpt>
      <trkpt lat="43.38306" lon="-1.6668">
        <ele>5.91</ele>
        <time>2021-07-05T13:13:12Z</time>
      </trkpt>
      <trkpt lat="43.3843" lon="-1.66544">
        <ele>7.35</ele>
        <time>2021-07-05T13:13:25Z</time>
      </trkpt>
      <trkpt lat="43.38513" lon="-1.66357">
        <ele>5.91</ele>
        <time>2021-07-05T13:13:41Z</time>
      </trkpt>
      <trkpt lat="43.38543" lon="-1.66292">
        <ele>4.94</ele>
        <time>2021-07-05T13:13:49Z</time>
      </trkpt>
      <trkpt lat="43.38544" lon="-1.66288">
        <ele>4.94</ele>
        <time>2021-07-05T13:13:50Z</time>
      </trkpt>
      <trkpt lat="43.38545" lon="-1.66285">
        <ele>4.94</ele>
        <time>2021-07-05T13:13:51Z</time>
      </trkpt>
      <trkpt lat="43.38546" lon="-1.66283">
        <ele>4.94</ele>
        <time>2021-07-05T13:13:52Z</time>
      </trkpt>
    </trkseg>
  </trk>
  <trk>
    <name><![CDATA[Journal actif: 2021-07-05 13:26]]></name>
    <trkseg>
      <trkpt lat="43.38515" lon="-1.66315">
        <ele>-4.67</ele>
        <time>2021-07-05T15:26:45Z</time>
      </trkpt>
      <trkpt lat="43.38516" lon="-1.66317">
        <ele>-4.67</ele>
        <time>2021-07-05T15:27:17Z</time>
      </trkpt>
      <trkpt lat="43.38518" lon="-1.66316">
        <ele>-5.15</ele>
        <time>2021-07-05T15:27:32Z</time>
      </trkpt>
      <trkpt lat="43.3852" lon="-1.66313">
        <ele>-5.15</ele>
        <time>2021-07-05T15:27:40Z</time>
      </trkpt>
      <trkpt lat="43.38544" lon="-1.66289">
        <ele>-6.11</ele>
        <time>2021-07-05T15:27:57Z</time>
      </trkpt>
      <trkpt lat="43.38545" lon="-1.66287">
        <ele>-5.63</ele>
        <time>2021-07-05T15:27:58Z</time>
      </trkpt>
      <trkpt lat="43.38545" lon="-1.66287">
        <ele>-5.63</ele>
        <time>2021-07-05T15:27:59Z</time>
      </trkpt>
      <trkpt lat="43.38545" lon="-1.66286">
        <ele>-6.11</ele>
        <time>2021-07-05T15:28:13Z</time>
      </trkpt>
      <trkpt lat="43.38546" lon="-1.66285">
        <ele>-6.11</ele>
        <time>2021-07-05T15:28:14Z</time>
      </trkpt>
      <trkpt lat="43.38546" lon="-1.66283">
        <ele>-6.11</ele>
        <time>2021-07-05T15:28:15Z</time>
      </trkpt>
      <trkpt lat="43.38548" lon="-1.66279">
        <ele>-6.11</ele>
        <time>2021-07-05T15:28:16Z</time>
      </trkpt>
      <trkpt lat="43.38548" lon="-1.66279">
        <ele>-6.11</ele>
        <time>2021-07-05T15:28:17Z</time>
      </trkpt>
      <trkpt lat="43.3855" lon="-1.66275">
        <ele>-6.11</ele>
        <time>2021-07-05T15:28:18Z</time>
      </trkpt>
      <trkpt lat="43.38581" lon="-1.66208">
        <ele>-6.59</ele>
        <time>2021-07-05T15:28:29Z</time>
      </trkpt>
      <trkpt lat="43.38594" lon="-1.66181">
        <ele>-6.59</ele>
        <time>2021-07-05T15:28:34Z</time>
      </trkpt>
      <trkpt lat="43.38599" lon="-1.66175">
        <ele>-6.59</ele>
        <time>2021-07-05T15:28:35Z</time>
      </trkpt>
      <trkpt lat="43.38603" lon="-1.66172">
        <ele>-6.11</ele>
        <time>2021-07-05T15:28:36Z</time>
      </trkpt>
      <trkpt lat="43.38612" lon="-1.66172">
        <ele>-6.11</ele>
        <time>2021-07-05T15:28:37Z</time>
      </trkpt>
      <trkpt lat="43.38612" lon="-1.66172">
        <ele>-6.11</ele>
        <time>2021-07-05T15:28:38Z</time>
      </trkpt>
      <trkpt lat="43.38615" lon="-1.66173">
        <ele>-6.11</ele>
        <time>2021-07-05T15:28:39Z</time>
      </trkpt>
      <trkpt lat="43.38618" lon="-1.66177">
        <ele>-6.11</ele>
        <time>2021-07-05T15:28:40Z</time>
      </trkpt>
      <trkpt lat="43.38621" lon="-1.66182">
        <ele>-6.59</ele>
        <time>2021-07-05T15:28:41Z</time>
      </trkpt>
      <trkpt lat="43.38623" lon="-1.66187">
        <ele>-5.63</ele>
        <time>2021-07-05T15:28:42Z</time>
      </trkpt>
      <trkpt lat="43.38623" lon="-1.66193">
        <ele>-5.63</ele>
        <time>2021-07-05T15:28:43Z</time>
      </trkpt>
      <trkpt lat="43.38622" lon="-1.662">
        <ele>-5.15</ele>
        <time>2021-07-05T15:28:44Z</time>
      </trkpt>
      <trkpt lat="43.38621" lon="-1.66207">
        <ele>-5.15</ele>
        <time>2021-07-05T15:28:45Z</time>
      </trkpt>
      <trkpt lat="43.38618" lon="-1.6621">
        <ele>-5.15</ele>
        <time>2021-07-05T15:28:46Z</time>
      </trkpt>
      <trkpt lat="43.38612" lon="-1.66212">
        <ele>-5.15</ele>
        <time>2021-07-05T15:28:47Z</time>
      </trkpt>
      <trkpt lat="43.38606" lon="-1.66215">
        <ele>-5.15</ele>
        <time>2021-07-05T15:28:48Z</time>
      </trkpt>
      <trkpt lat="43.38593" lon="-1.6622">
        <ele>-4.67</ele>
        <time>2021-07-05T15:28:50Z</time>
      </trkpt>
      <trkpt lat="43.38586" lon="-1.66223">
        <ele>-4.67</ele>
        <time>2021-07-05T15:28:51Z</time>
      </trkpt>
      <trkpt lat="43.38579" lon="-1.66226">
        <ele>-4.67</ele>
        <time>2021-07-05T15:28:52Z</time>
      </trkpt>
      <trkpt lat="43.3857" lon="-1.66231">
        <ele>-4.67</ele>
        <time>2021-07-05T15:28:53Z</time>
      </trkpt>
      <trkpt lat="43.38565" lon="-1.66239">
        <ele>-4.67</ele>
        <time>2021-07-05T15:28:54Z</time>
      </trkpt>
      <trkpt lat="43.3856" lon="-1.66248">
        <ele>-4.67</ele>
        <time>2021-07-05T15:28:55Z</time>
      </trkpt>
      <trkpt lat="43.38555" lon="-1.66259">
        <ele>-4.67</ele>
        <time>2021-07-05T15:28:56Z</time>
      </trkpt>
      <trkpt lat="43.38468" lon="-1.66461">
        <ele>-3.23</ele>
        <time>2021-07-05T15:29:12Z</time>
      </trkpt>
      <trkpt lat="43.38399" lon="-1.66594">
        <ele>-1.79</ele>
        <time>2021-07-05T15:29:23Z</time>
      </trkpt>
      <trkpt lat="43.38329" lon="-1.66662">
        <ele>-2.75</ele>
        <time>2021-07-05T15:29:32Z</time>
      </trkpt>
      <trkpt lat="43.38209" lon="-1.66745">
        <ele>-4.19</ele>
        <time>2021-07-05T15:29:44Z</time>
      </trkpt>
      <trkpt lat="43.38153" lon="-1.66778">
        <ele>-4.19</ele>
        <time>2021-07-05T15:29:53Z</time>
      </trkpt>
      <trkpt lat="43.38062" lon="-1.66851">
        <ele>-3.23</ele>
        <time>2021-07-05T15:30:03Z</time>
      </trkpt>
      <trkpt lat="43.38008" lon="-1.66896">
        <ele>-2.27</ele>
        <time>2021-07-05T15:30:11Z</time>
      </trkpt>
      <trkpt lat="43.37915" lon="-1.66994">
        <ele>-1.3</ele>
        <time>2021-07-05T15:30:22Z</time>
      </trkpt>
      <trkpt lat="43.37832" lon="-1.67111">
        <ele>0.62</ele>
        <time>2021-07-05T15:30:34Z</time>
      </trkpt>
      <trkpt lat="43.37827" lon="-1.67124">
        <ele>1.58</ele>
        <time>2021-07-05T15:30:35Z</time>
      </trkpt>
      <trkpt lat="43.3777" lon="-1.67313">
        <ele>4.46</ele>
        <time>2021-07-05T15:30:49Z</time>
      </trkpt>
      <trkpt lat="43.3775" lon="-1.6737">
        <ele>5.42</ele>
        <time>2021-07-05T15:30:53Z</time>
      </trkpt>
      <trkpt lat="43.37742" lon="-1.67384">
        <ele>6.39</ele>
        <time>2021-07-05T15:30:54Z</time>
      </trkpt>
      <trkpt lat="43.3765" lon="-1.67537">
        <ele>11.67</ele>
        <time>2021-07-05T15:31:06Z</time>
      </trkpt>
      <trkpt lat="43.37638" lon="-1.67561">
        <ele>14.08</ele>
        <time>2021-07-05T15:31:08Z</time>
      </trkpt>
      <trkpt lat="43.37632" lon="-1.67576">
        <ele>14.08</ele>
        <time>2021-07-05T15:31:09Z</time>
      </trkpt>
      <trkpt lat="43.37626" lon="-1.67591">
        <ele>14.56</ele>
        <time>2021-07-05T15:31:10Z</time>
      </trkpt>
      <trkpt lat="43.37597" lon="-1.67689">
        <ele>17.92</ele>
        <time>2021-07-05T15:31:17Z</time>
      </trkpt>
      <trkpt lat="43.37593" lon="-1.67701">
        <ele>18.88</ele>
        <time>2021-07-05T15:31:18Z</time>
      </trkpt>
      <trkpt lat="43.37588" lon="-1.67713">
        <ele>17.92</ele>
        <time>2021-07-05T15:31:19Z</time>
      </trkpt>
      <trkpt lat="43.3748" lon="-1.67864">
        <ele>10.23</ele>
        <time>2021-07-05T15:31:32Z</time>
      </trkpt>
      <trkpt lat="43.37331" lon="-1.68009">
        <ele>10.23</ele>
        <time>2021-07-05T15:31:46Z</time>
      </trkpt>
      <trkpt lat="43.37278" lon="-1.68067">
        <ele>8.31</ele>
        <time>2021-07-05T15:31:52Z</time>
      </trkpt>
      <trkpt lat="43.37272" lon="-1.68075">
        <ele>8.79</ele>
        <time>2021-07-05T15:31:53Z</time>
      </trkpt>
      <trkpt lat="43.37267" lon="-1.68082">
        <ele>8.79</ele>
        <time>2021-07-05T15:31:54Z</time>
      </trkpt>
      <trkpt lat="43.37262" lon="-1.68091">
        <ele>9.27</ele>
        <time>2021-07-05T15:31:55Z</time>
      </trkpt>
      <trkpt lat="43.37258" lon="-1.681">
        <ele>9.27</ele>
        <time>2021-07-05T15:31:56Z</time>
      </trkpt>
      <trkpt lat="43.37251" lon="-1.68137">
        <ele>10.23</ele>
        <time>2021-07-05T15:32:01Z</time>
      </trkpt>
      <trkpt lat="43.37249" lon="-1.68144">
        <ele>10.23</ele>
        <time>2021-07-05T15:32:02Z</time>
      </trkpt>
      <trkpt lat="43.37248" lon="-1.68164">
        <ele>10.23</ele>
        <time>2021-07-05T15:32:03Z</time>
      </trkpt>
      <trkpt lat="43.37257" lon="-1.68201">
        <ele>8.79</ele>
        <time>2021-07-05T15:32:08Z</time>
      </trkpt>
      <trkpt lat="43.37261" lon="-1.6822">
        <ele>8.31</ele>
        <time>2021-07-05T15:32:09Z</time>
      </trkpt>
      <trkpt lat="43.37261" lon="-1.6822">
        <ele>7.83</ele>
        <time>2021-07-05T15:32:10Z</time>
      </trkpt>
      <trkpt lat="43.37268" lon="-1.68234">
        <ele>7.35</ele>
        <time>2021-07-05T15:32:11Z</time>
      </trkpt>
      <trkpt lat="43.37274" lon="-1.6824">
        <ele>6.87</ele>
        <time>2021-07-05T15:32:12Z</time>
      </trkpt>
      <trkpt lat="43.37274" lon="-1.6824">
        <ele>6.39</ele>
        <time>2021-07-05T15:32:13Z</time>
      </trkpt>
      <trkpt lat="43.37279" lon="-1.68244">
        <ele>5.91</ele>
        <time>2021-07-05T15:32:14Z</time>
      </trkpt>
      <trkpt lat="43.37287" lon="-1.68245">
        <ele>4.94</ele>
        <time>2021-07-05T15:32:15Z</time>
      </trkpt>
      <trkpt lat="43.37294" lon="-1.68247">
        <ele>4.46</ele>
        <time>2021-07-05T15:32:16Z</time>
      </trkpt>
      <trkpt lat="43.37301" lon="-1.68244">
        <ele>3.5</ele>
        <time>2021-07-05T15:32:17Z</time>
      </trkpt>
      <trkpt lat="43.37308" lon="-1.68239">
        <ele>2.54</ele>
        <time>2021-07-05T15:32:18Z</time>
      </trkpt>
      <trkpt lat="43.37314" lon="-1.68233">
        <ele>2.06</ele>
        <time>2021-07-05T15:32:19Z</time>
      </trkpt>
      <trkpt lat="43.37343" lon="-1.6821">
        <ele>2.54</ele>
        <time>2021-07-05T15:32:23Z</time>
      </trkpt>
      <trkpt lat="43.37355" lon="-1.68189">
        <ele>3.02</ele>
        <time>2021-07-05T15:32:25Z</time>
      </trkpt>
      <trkpt lat="43.3736" lon="-1.68175">
        <ele>3.5</ele>
        <time>2021-07-05T15:32:26Z</time>
      </trkpt>
      <trkpt lat="43.37368" lon="-1.68171">
        <ele>3.5</ele>
        <time>2021-07-05T15:32:27Z</time>
      </trkpt>
      <trkpt lat="43.37368" lon="-1.68171">
        <ele>3.98</ele>
        <time>2021-07-05T15:32:28Z</time>
      </trkpt>
      <trkpt lat="43.37374" lon="-1.68175">
        <ele>3.98</ele>
        <time>2021-07-05T15:32:29Z</time>
      </trkpt>
      <trkpt lat="43.3738" lon="-1.68179">
        <ele>3.5</ele>
        <time>2021-07-05T15:32:30Z</time>
      </trkpt>
      <trkpt lat="43.37383" lon="-1.68193">
        <ele>3.5</ele>
        <time>2021-07-05T15:32:31Z</time>
      </trkpt>
      <trkpt lat="43.37383" lon="-1.68202">
        <ele>3.5</ele>
        <time>2021-07-05T15:32:32Z</time>
      </trkpt>
      <trkpt lat="43.37383" lon="-1.68205">
        <ele>3.5</ele>
        <time>2021-07-05T15:32:33Z</time>
      </trkpt>
      <trkpt lat="43.37361" lon="-1.68305">
        <ele>-4.19</ele>
        <time>2021-07-05T15:32:41Z</time>
      </trkpt>
      <trkpt lat="43.37357" lon="-1.68322">
        <ele>-3.23</ele>
        <time>2021-07-05T15:32:42Z</time>
      </trkpt>
      <trkpt lat="43.37354" lon="-1.68337">
        <ele>-3.71</ele>
        <time>2021-07-05T15:32:43Z</time>
      </trkpt>
      <trkpt lat="43.37351" lon="-1.68352">
        <ele>-4.19</ele>
        <time>2021-07-05T15:32:44Z</time>
      </trkpt>
      <trkpt lat="43.37354" lon="-1.68384">
        <ele>-4.19</ele>
        <time>2021-07-05T15:32:45Z</time>
      </trkpt>
      <trkpt lat="43.37359" lon="-1.68397">
        <ele>-2.75</ele>
        <time>2021-07-05T15:32:46Z</time>
      </trkpt>
      <trkpt lat="43.37359" lon="-1.68397">
        <ele>-3.71</ele>
        <time>2021-07-05T15:32:47Z</time>
      </trkpt>
      <trkpt lat="43.37367" lon="-1.68412">
        <ele>-2.75</ele>
        <time>2021-07-05T15:32:48Z</time>
      </trkpt>
      <trkpt lat="43.37374" lon="-1.68426">
        <ele>-3.71</ele>
        <time>2021-07-05T15:32:49Z</time>
      </trkpt>
      <trkpt lat="43.37383" lon="-1.6844">
        <ele>-2.75</ele>
        <time>2021-07-05T15:32:50Z</time>
      </trkpt>
      <trkpt lat="43.37392" lon="-1.68452">
        <ele>-2.27</ele>
        <time>2021-07-05T15:32:51Z</time>
      </trkpt>
      <trkpt lat="43.37402" lon="-1.68464">
        <ele>-2.75</ele>
        <time>2021-07-05T15:32:52Z</time>
      </trkpt>
      <trkpt lat="43.37538" lon="-1.68586">
        <ele>-1.79</ele>
        <time>2021-07-05T15:33:05Z</time>
      </trkpt>
      <trkpt lat="43.37719" lon="-1.68695">
        <ele>-0.82</ele>
        <time>2021-07-05T15:33:19Z</time>
      </trkpt>
      <trkpt lat="43.37782" lon="-1.68739">
        <ele>-1.79</ele>
        <time>2021-07-05T15:33:23Z</time>
      </trkpt>
      <trkpt lat="43.37782" lon="-1.68739">
        <ele>-2.75</ele>
        <time>2021-07-05T15:33:24Z</time>
      </trkpt>
      <trkpt lat="43.37793" lon="-1.68753">
        <ele>-3.23</ele>
        <time>2021-07-05T15:33:25Z</time>
      </trkpt>
      <trkpt lat="43.37804" lon="-1.68767">
        <ele>-4.67</ele>
        <time>2021-07-05T15:33:26Z</time>
      </trkpt>
      <trkpt lat="43.37815" lon="-1.68782">
        <ele>-4.67</ele>
        <time>2021-07-05T15:33:27Z</time>
      </trkpt>
      <trkpt lat="43.37823" lon="-1.68799">
        <ele>-4.19</ele>
        <time>2021-07-05T15:33:28Z</time>
      </trkpt>
      <trkpt lat="43.37831" lon="-1.68816">
        <ele>-4.19</ele>
        <time>2021-07-05T15:33:29Z</time>
      </trkpt>
      <trkpt lat="43.37872" lon="-1.68893">
        <ele>-3.71</ele>
        <time>2021-07-05T15:33:33Z</time>
      </trkpt>
      <trkpt lat="43.37872" lon="-1.68893">
        <ele>-2.75</ele>
        <time>2021-07-05T15:33:34Z</time>
      </trkpt>
      <trkpt lat="43.37882" lon="-1.68907">
        <ele>-1.79</ele>
        <time>2021-07-05T15:33:35Z</time>
      </trkpt>
      <trkpt lat="43.37893" lon="-1.68915">
        <ele>-1.79</ele>
        <time>2021-07-05T15:33:36Z</time>
      </trkpt>
      <trkpt lat="43.37903" lon="-1.68922">
        <ele>-1.79</ele>
        <time>2021-07-05T15:33:37Z</time>
      </trkpt>
      <trkpt lat="43.37915" lon="-1.68929">
        <ele>-1.79</ele>
        <time>2021-07-05T15:33:38Z</time>
      </trkpt>
      <trkpt lat="43.37928" lon="-1.68932">
        <ele>-1.79</ele>
        <time>2021-07-05T15:33:39Z</time>
      </trkpt>
      <trkpt lat="43.37941" lon="-1.68935">
        <ele>-2.75</ele>
        <time>2021-07-05T15:33:40Z</time>
      </trkpt>
      <trkpt lat="43.37956" lon="-1.68934">
        <ele>-2.75</ele>
        <time>2021-07-05T15:33:41Z</time>
      </trkpt>
      <trkpt lat="43.37971" lon="-1.68932">
        <ele>-1.3</ele>
        <time>2021-07-05T15:33:42Z</time>
      </trkpt>
      <trkpt lat="43.37999" lon="-1.68926">
        <ele>-0.82</ele>
        <time>2021-07-05T15:33:43Z</time>
      </trkpt>
      <trkpt lat="43.38066" lon="-1.68911">
        <ele>-1.3</ele>
        <time>2021-07-05T15:33:49Z</time>
      </trkpt>
      <trkpt lat="43.38078" lon="-1.68911">
        <ele>-1.79</ele>
        <time>2021-07-05T15:33:50Z</time>
      </trkpt>
      <trkpt lat="43.3809" lon="-1.68914">
        <ele>-2.27</ele>
        <time>2021-07-05T15:33:51Z</time>
      </trkpt>
      <trkpt lat="43.38103" lon="-1.68919">
        <ele>-1.3</ele>
        <time>2021-07-05T15:33:52Z</time>
      </trkpt>
      <trkpt lat="43.38127" lon="-1.68936">
        <ele>-0.82</ele>
        <time>2021-07-05T15:33:53Z</time>
      </trkpt>
      <trkpt lat="43.38127" lon="-1.68936">
        <ele>-0.82</ele>
        <time>2021-07-05T15:33:54Z</time>
      </trkpt>
      <trkpt lat="43.38138" lon="-1.68949">
        <ele>-0.82</ele>
        <time>2021-07-05T15:33:55Z</time>
      </trkpt>
      <trkpt lat="43.3815" lon="-1.68964">
        <ele>-1.3</ele>
        <time>2021-07-05T15:33:56Z</time>
      </trkpt>
      <trkpt lat="43.38159" lon="-1.68982">
        <ele>-1.3</ele>
        <time>2021-07-05T15:33:57Z</time>
      </trkpt>
      <trkpt lat="43.38167" lon="-1.68999">
        <ele>-1.3</ele>
        <time>2021-07-05T15:33:58Z</time>
      </trkpt>
      <trkpt lat="43.38251" lon="-1.69167">
        <ele>-1.3</ele>
        <time>2021-07-05T15:34:09Z</time>
      </trkpt>
      <trkpt lat="43.38307" lon="-1.69282">
        <ele>0.62</ele>
        <time>2021-07-05T15:34:19Z</time>
      </trkpt>
      <trkpt lat="43.38318" lon="-1.69288">
        <ele>1.58</ele>
        <time>2021-07-05T15:34:21Z</time>
      </trkpt>
      <trkpt lat="43.38325" lon="-1.69297">
        <ele>1.58</ele>
        <time>2021-07-05T15:34:22Z</time>
      </trkpt>
      <trkpt lat="43.38327" lon="-1.69304">
        <ele>2.06</ele>
        <time>2021-07-05T15:34:23Z</time>
      </trkpt>
      <trkpt lat="43.38326" lon="-1.69324">
        <ele>2.54</ele>
        <time>2021-07-05T15:34:25Z</time>
      </trkpt>
      <trkpt lat="43.3833" lon="-1.69332">
        <ele>2.54</ele>
        <time>2021-07-05T15:34:26Z</time>
      </trkpt>
      <trkpt lat="43.38334" lon="-1.69341">
        <ele>3.02</ele>
        <time>2021-07-05T15:34:27Z</time>
      </trkpt>
      <trkpt lat="43.38388" lon="-1.69451">
        <ele>5.91</ele>
        <time>2021-07-05T15:34:36Z</time>
      </trkpt>
      <trkpt lat="43.38456" lon="-1.69608">
        <ele>10.23</ele>
        <time>2021-07-05T15:34:45Z</time>
      </trkpt>
      <trkpt lat="43.38462" lon="-1.69649">
        <ele>12.63</ele>
        <time>2021-07-05T15:34:46Z</time>
      </trkpt>
      <trkpt lat="43.38475" lon="-1.69749">
        <ele>21.77</ele>
        <time>2021-07-05T15:34:52Z</time>
      </trkpt>
      <trkpt lat="43.38482" lon="-1.69768">
        <ele>24.17</ele>
        <time>2021-07-05T15:34:53Z</time>
      </trkpt>
      <trkpt lat="43.38488" lon="-1.69787">
        <ele>25.61</ele>
        <time>2021-07-05T15:34:54Z</time>
      </trkpt>
      <trkpt lat="43.38497" lon="-1.69804">
        <ele>27.05</ele>
        <time>2021-07-05T15:34:55Z</time>
      </trkpt>
      <trkpt lat="43.38508" lon="-1.69818">
        <ele>28.02</ele>
        <time>2021-07-05T15:34:56Z</time>
      </trkpt>
      <trkpt lat="43.3852" lon="-1.69834">
        <ele>28.5</ele>
        <time>2021-07-05T15:34:57Z</time>
      </trkpt>
      <trkpt lat="43.38533" lon="-1.69849">
        <ele>28.98</ele>
        <time>2021-07-05T15:34:58Z</time>
      </trkpt>
      <trkpt lat="43.38546" lon="-1.69861">
        <ele>29.94</ele>
        <time>2021-07-05T15:34:59Z</time>
      </trkpt>
      <trkpt lat="43.3871" lon="-1.6999">
        <ele>36.19</ele>
        <time>2021-07-05T15:35:10Z</time>
      </trkpt>
      <trkpt lat="43.38727" lon="-1.69999">
        <ele>37.15</ele>
        <time>2021-07-05T15:35:11Z</time>
      </trkpt>
      <trkpt lat="43.38744" lon="-1.70004">
        <ele>38.59</ele>
        <time>2021-07-05T15:35:12Z</time>
      </trkpt>
      <trkpt lat="43.38761" lon="-1.70005">
        <ele>38.59</ele>
        <time>2021-07-05T15:35:13Z</time>
      </trkpt>
      <trkpt lat="43.38779" lon="-1.70002">
        <ele>38.11</ele>
        <time>2021-07-05T15:35:14Z</time>
      </trkpt>
      <trkpt lat="43.38797" lon="-1.69999">
        <ele>39.07</ele>
        <time>2021-07-05T15:35:15Z</time>
      </trkpt>
      <trkpt lat="43.38895" lon="-1.6998">
        <ele>41.47</ele>
        <time>2021-07-05T15:35:21Z</time>
      </trkpt>
      <trkpt lat="43.38912" lon="-1.69979">
        <ele>40.99</ele>
        <time>2021-07-05T15:35:22Z</time>
      </trkpt>
      <trkpt lat="43.38926" lon="-1.69982">
        <ele>40.99</ele>
        <time>2021-07-05T15:35:23Z</time>
      </trkpt>
      <trkpt lat="43.38941" lon="-1.69986">
        <ele>41.47</ele>
        <time>2021-07-05T15:35:24Z</time>
      </trkpt>
      <trkpt lat="43.38956" lon="-1.69991">
        <ele>42.44</ele>
        <time>2021-07-05T15:35:25Z</time>
      </trkpt>
      <trkpt lat="43.3897" lon="-1.69995">
        <ele>43.4</ele>
        <time>2021-07-05T15:35:26Z</time>
      </trkpt>
      <trkpt lat="43.38983" lon="-1.70006">
        <ele>43.4</ele>
        <time>2021-07-05T15:35:27Z</time>
      </trkpt>
      <trkpt lat="43.38995" lon="-1.70015">
        <ele>41.47</ele>
        <time>2021-07-05T15:35:28Z</time>
      </trkpt>
      <trkpt lat="43.39007" lon="-1.70028">
        <ele>40.99</ele>
        <time>2021-07-05T15:35:29Z</time>
      </trkpt>
      <trkpt lat="43.39042" lon="-1.70071">
        <ele>37.63</ele>
        <time>2021-07-05T15:35:34Z</time>
      </trkpt>
      <trkpt lat="43.39048" lon="-1.70074">
        <ele>38.11</ele>
        <time>2021-07-05T15:35:35Z</time>
      </trkpt>
      <trkpt lat="43.39054" lon="-1.70077">
        <ele>38.11</ele>
        <time>2021-07-05T15:35:36Z</time>
      </trkpt>
      <trkpt lat="43.39063" lon="-1.70081">
        <ele>38.59</ele>
        <time>2021-07-05T15:35:37Z</time>
      </trkpt>
      <trkpt lat="43.39063" lon="-1.70081">
        <ele>38.11</ele>
        <time>2021-07-05T15:35:38Z</time>
      </trkpt>
      <trkpt lat="43.39097" lon="-1.7009">
        <ele>36.67</ele>
        <time>2021-07-05T15:35:44Z</time>
      </trkpt>
      <trkpt lat="43.39102" lon="-1.70091">
        <ele>36.67</ele>
        <time>2021-07-05T15:35:45Z</time>
      </trkpt>
      <trkpt lat="43.39106" lon="-1.70095">
        <ele>36.67</ele>
        <time>2021-07-05T15:35:46Z</time>
      </trkpt>
      <trkpt lat="43.3911" lon="-1.70099">
        <ele>36.19</ele>
        <time>2021-07-05T15:35:47Z</time>
      </trkpt>
      <trkpt lat="43.3911" lon="-1.70099">
        <ele>36.19</ele>
        <time>2021-07-05T15:35:48Z</time>
      </trkpt>
      <trkpt lat="43.3911" lon="-1.70108">
        <ele>35.71</ele>
        <time>2021-07-05T15:35:49Z</time>
      </trkpt>
      <trkpt lat="43.3911" lon="-1.70108">
        <ele>35.71</ele>
        <time>2021-07-05T15:35:50Z</time>
      </trkpt>
      <trkpt lat="43.3911" lon="-1.70112">
        <ele>35.71</ele>
        <time>2021-07-05T15:35:51Z</time>
      </trkpt>
      <trkpt lat="43.3911" lon="-1.70116">
        <ele>35.23</ele>
        <time>2021-07-05T15:35:52Z</time>
      </trkpt>
      <trkpt lat="43.39106" lon="-1.70127">
        <ele>34.74</ele>
        <time>2021-07-05T15:35:53Z</time>
      </trkpt>
      <trkpt lat="43.39106" lon="-1.70127">
        <ele>34.26</ele>
        <time>2021-07-05T15:35:54Z</time>
      </trkpt>
      <trkpt lat="43.39063" lon="-1.7024">
        <ele>28.98</ele>
        <time>2021-07-05T15:36:05Z</time>
      </trkpt>
      <trkpt lat="43.39017" lon="-1.70388">
        <ele>33.3</ele>
        <time>2021-07-05T15:36:16Z</time>
      </trkpt>
      <trkpt lat="43.38949" lon="-1.70587">
        <ele>39.55</ele>
        <time>2021-07-05T15:36:28Z</time>
      </trkpt>
      <trkpt lat="43.38942" lon="-1.70601">
        <ele>39.07</ele>
        <time>2021-07-05T15:36:29Z</time>
      </trkpt>
      <trkpt lat="43.38913" lon="-1.7066">
        <ele>38.59</ele>
        <time>2021-07-05T15:36:33Z</time>
      </trkpt>
      <trkpt lat="43.38906" lon="-1.70675">
        <ele>38.59</ele>
        <time>2021-07-05T15:36:34Z</time>
      </trkpt>
      <trkpt lat="43.389" lon="-1.70691">
        <ele>39.07</ele>
        <time>2021-07-05T15:36:35Z</time>
      </trkpt>
      <trkpt lat="43.38883" lon="-1.70814">
        <ele>35.71</ele>
        <time>2021-07-05T15:36:42Z</time>
      </trkpt>
      <trkpt lat="43.38879" lon="-1.7083">
        <ele>35.23</ele>
        <time>2021-07-05T15:36:43Z</time>
      </trkpt>
      <trkpt lat="43.38875" lon="-1.70845">
        <ele>33.78</ele>
        <time>2021-07-05T15:36:44Z</time>
      </trkpt>
      <trkpt lat="43.38867" lon="-1.70858">
        <ele>32.34</ele>
        <time>2021-07-05T15:36:45Z</time>
      </trkpt>
      <trkpt lat="43.3886" lon="-1.70869">
        <ele>31.86</ele>
        <time>2021-07-05T15:36:46Z</time>
      </trkpt>
      <trkpt lat="43.3885" lon="-1.70879">
        <ele>31.86</ele>
        <time>2021-07-05T15:36:47Z</time>
      </trkpt>
      <trkpt lat="43.38841" lon="-1.70888">
        <ele>30.9</ele>
        <time>2021-07-05T15:36:48Z</time>
      </trkpt>
      <trkpt lat="43.3883" lon="-1.70893">
        <ele>30.9</ele>
        <time>2021-07-05T15:36:49Z</time>
      </trkpt>
      <trkpt lat="43.38818" lon="-1.70897">
        <ele>29.94</ele>
        <time>2021-07-05T15:36:50Z</time>
      </trkpt>
      <trkpt lat="43.38684" lon="-1.7095">
        <ele>25.13</ele>
        <time>2021-07-05T15:37:01Z</time>
      </trkpt>
      <trkpt lat="43.38674" lon="-1.7096">
        <ele>23.21</ele>
        <time>2021-07-05T15:37:02Z</time>
      </trkpt>
      <trkpt lat="43.38664" lon="-1.70971">
        <ele>21.77</ele>
        <time>2021-07-05T15:37:03Z</time>
      </trkpt>
      <trkpt lat="43.38654" lon="-1.70982">
        <ele>21.29</ele>
        <time>2021-07-05T15:37:04Z</time>
      </trkpt>
      <trkpt lat="43.38642" lon="-1.71014">
        <ele>19.84</ele>
        <time>2021-07-05T15:37:05Z</time>
      </trkpt>
      <trkpt lat="43.38642" lon="-1.71014">
        <ele>20.32</ele>
        <time>2021-07-05T15:37:06Z</time>
      </trkpt>
      <trkpt lat="43.38632" lon="-1.71046">
        <ele>19.36</ele>
        <time>2021-07-05T15:37:07Z</time>
      </trkpt>
      <trkpt lat="43.38632" lon="-1.71046">
        <ele>18.88</ele>
        <time>2021-07-05T15:37:08Z</time>
      </trkpt>
      <trkpt lat="43.38633" lon="-1.71063">
        <ele>17.92</ele>
        <time>2021-07-05T15:37:09Z</time>
      </trkpt>
      <trkpt lat="43.38634" lon="-1.71082">
        <ele>17.92</ele>
        <time>2021-07-05T15:37:10Z</time>
      </trkpt>
      <trkpt lat="43.38636" lon="-1.71102">
        <ele>17.92</ele>
        <time>2021-07-05T15:37:11Z</time>
      </trkpt>
      <trkpt lat="43.38639" lon="-1.71121">
        <ele>16.48</ele>
        <time>2021-07-05T15:37:12Z</time>
      </trkpt>
      <trkpt lat="43.38683" lon="-1.71322">
        <ele>14.56</ele>
        <time>2021-07-05T15:37:21Z</time>
      </trkpt>
      <trkpt lat="43.38683" lon="-1.71322">
        <ele>14.56</ele>
        <time>2021-07-05T15:37:22Z</time>
      </trkpt>
      <trkpt lat="43.3868" lon="-1.71342">
        <ele>14.08</ele>
        <time>2021-07-05T15:37:23Z</time>
      </trkpt>
      <trkpt lat="43.38678" lon="-1.71363">
        <ele>14.56</ele>
        <time>2021-07-05T15:37:24Z</time>
      </trkpt>
      <trkpt lat="43.38674" lon="-1.71383">
        <ele>14.08</ele>
        <time>2021-07-05T15:37:25Z</time>
      </trkpt>
      <trkpt lat="43.38598" lon="-1.71649">
        <ele>18.88</ele>
        <time>2021-07-05T15:37:37Z</time>
      </trkpt>
      <trkpt lat="43.38498" lon="-1.71937">
        <ele>31.86</ele>
        <time>2021-07-05T15:37:50Z</time>
      </trkpt>
      <trkpt lat="43.38419" lon="-1.72142">
        <ele>39.55</ele>
        <time>2021-07-05T15:38:01Z</time>
      </trkpt>
      <trkpt lat="43.38412" lon="-1.72171">
        <ele>38.59</ele>
        <time>2021-07-05T15:38:03Z</time>
      </trkpt>
      <trkpt lat="43.38409" lon="-1.72186">
        <ele>38.59</ele>
        <time>2021-07-05T15:38:04Z</time>
      </trkpt>
      <trkpt lat="43.38407" lon="-1.72199">
        <ele>38.59</ele>
        <time>2021-07-05T15:38:05Z</time>
      </trkpt>
      <trkpt lat="43.38405" lon="-1.72212">
        <ele>38.11</ele>
        <time>2021-07-05T15:38:06Z</time>
      </trkpt>
      <trkpt lat="43.38406" lon="-1.72227">
        <ele>38.11</ele>
        <time>2021-07-05T15:38:07Z</time>
      </trkpt>
      <trkpt lat="43.3841" lon="-1.72259">
        <ele>37.63</ele>
        <time>2021-07-05T15:38:08Z</time>
      </trkpt>
      <trkpt lat="43.3841" lon="-1.72259">
        <ele>36.67</ele>
        <time>2021-07-05T15:38:09Z</time>
      </trkpt>
      <trkpt lat="43.38436" lon="-1.72389">
        <ele>29.94</ele>
        <time>2021-07-05T15:38:17Z</time>
      </trkpt>
      <trkpt lat="43.38437" lon="-1.72406">
        <ele>28.98</ele>
        <time>2021-07-05T15:38:18Z</time>
      </trkpt>
      <trkpt lat="43.38437" lon="-1.72423">
        <ele>28.5</ele>
        <time>2021-07-05T15:38:19Z</time>
      </trkpt>
      <trkpt lat="43.38436" lon="-1.72441">
        <ele>28.02</ele>
        <time>2021-07-05T15:38:20Z</time>
      </trkpt>
      <trkpt lat="43.38433" lon="-1.72458">
        <ele>26.09</ele>
        <time>2021-07-05T15:38:21Z</time>
      </trkpt>
      <trkpt lat="43.3843" lon="-1.72473">
        <ele>24.65</ele>
        <time>2021-07-05T15:38:22Z</time>
      </trkpt>
      <trkpt lat="43.38425" lon="-1.72489">
        <ele>23.69</ele>
        <time>2021-07-05T15:38:23Z</time>
      </trkpt>
      <trkpt lat="43.3842" lon="-1.72504">
        <ele>23.21</ele>
        <time>2021-07-05T15:38:24Z</time>
      </trkpt>
      <trkpt lat="43.38414" lon="-1.72521">
        <ele>22.73</ele>
        <time>2021-07-05T15:38:25Z</time>
      </trkpt>
      <trkpt lat="43.38406" lon="-1.72535">
        <ele>21.29</ele>
        <time>2021-07-05T15:38:26Z</time>
      </trkpt>
      <trkpt lat="43.38396" lon="-1.72548">
        <ele>20.32</ele>
        <time>2021-07-05T15:38:27Z</time>
      </trkpt>
      <trkpt lat="43.38387" lon="-1.72561">
        <ele>19.84</ele>
        <time>2021-07-05T15:38:28Z</time>
      </trkpt>
      <trkpt lat="43.38377" lon="-1.7257">
        <ele>18.88</ele>
        <time>2021-07-05T15:38:29Z</time>
      </trkpt>
      <trkpt lat="43.38365" lon="-1.72581">
        <ele>18.88</ele>
        <time>2021-07-05T15:38:30Z</time>
      </trkpt>
      <trkpt lat="43.38229" lon="-1.72713">
        <ele>8.79</ele>
        <time>2021-07-05T15:38:42Z</time>
      </trkpt>
      <trkpt lat="43.3822" lon="-1.72727">
        <ele>8.31</ele>
        <time>2021-07-05T15:38:43Z</time>
      </trkpt>
      <trkpt lat="43.38211" lon="-1.72741">
        <ele>8.31</ele>
        <time>2021-07-05T15:38:44Z</time>
      </trkpt>
      <trkpt lat="43.38206" lon="-1.72757">
        <ele>8.31</ele>
        <time>2021-07-05T15:38:45Z</time>
      </trkpt>
      <trkpt lat="43.38201" lon="-1.72775">
        <ele>7.83</ele>
        <time>2021-07-05T15:38:46Z</time>
      </trkpt>
      <trkpt lat="43.38166" lon="-1.72933">
        <ele>11.67</ele>
        <time>2021-07-05T15:38:55Z</time>
      </trkpt>
      <trkpt lat="43.38166" lon="-1.72952">
        <ele>12.63</ele>
        <time>2021-07-05T15:38:56Z</time>
      </trkpt>
      <trkpt lat="43.38182" lon="-1.73109">
        <ele>15.04</ele>
        <time>2021-07-05T15:39:04Z</time>
      </trkpt>
      <trkpt lat="43.38183" lon="-1.73126">
        <ele>16</ele>
        <time>2021-07-05T15:39:05Z</time>
      </trkpt>
      <trkpt lat="43.38181" lon="-1.73143">
        <ele>16.96</ele>
        <time>2021-07-05T15:39:06Z</time>
      </trkpt>
      <trkpt lat="43.38178" lon="-1.73158">
        <ele>16.48</ele>
        <time>2021-07-05T15:39:07Z</time>
      </trkpt>
      <trkpt lat="43.38174" lon="-1.73174">
        <ele>15.52</ele>
        <time>2021-07-05T15:39:08Z</time>
      </trkpt>
      <trkpt lat="43.38166" lon="-1.73186">
        <ele>14.56</ele>
        <time>2021-07-05T15:39:09Z</time>
      </trkpt>
      <trkpt lat="43.38158" lon="-1.73198">
        <ele>14.08</ele>
        <time>2021-07-05T15:39:10Z</time>
      </trkpt>
      <trkpt lat="43.38148" lon="-1.73209">
        <ele>13.6</ele>
        <time>2021-07-05T15:39:11Z</time>
      </trkpt>
      <trkpt lat="43.38138" lon="-1.73218">
        <ele>13.12</ele>
        <time>2021-07-05T15:39:12Z</time>
      </trkpt>
      <trkpt lat="43.38126" lon="-1.73225">
        <ele>13.12</ele>
        <time>2021-07-05T15:39:13Z</time>
      </trkpt>
      <trkpt lat="43.38114" lon="-1.7323">
        <ele>13.6</ele>
        <time>2021-07-05T15:39:14Z</time>
      </trkpt>
      <trkpt lat="43.38101" lon="-1.7323">
        <ele>13.6</ele>
        <time>2021-07-05T15:39:15Z</time>
      </trkpt>
      <trkpt lat="43.38087" lon="-1.73231">
        <ele>12.15</ele>
        <time>2021-07-05T15:39:16Z</time>
      </trkpt>
      <trkpt lat="43.38045" lon="-1.73233">
        <ele>11.19</ele>
        <time>2021-07-05T15:39:19Z</time>
      </trkpt>
      <trkpt lat="43.38033" lon="-1.73236">
        <ele>9.75</ele>
        <time>2021-07-05T15:39:20Z</time>
      </trkpt>
      <trkpt lat="43.38021" lon="-1.73241">
        <ele>8.31</ele>
        <time>2021-07-05T15:39:21Z</time>
      </trkpt>
      <trkpt lat="43.38009" lon="-1.73249">
        <ele>7.83</ele>
        <time>2021-07-05T15:39:22Z</time>
      </trkpt>
      <trkpt lat="43.37996" lon="-1.73258">
        <ele>6.87</ele>
        <time>2021-07-05T15:39:23Z</time>
      </trkpt>
      <trkpt lat="43.37886" lon="-1.73351">
        <ele>4.46</ele>
        <time>2021-07-05T15:39:33Z</time>
      </trkpt>
      <trkpt lat="43.37811" lon="-1.73468">
        <ele>6.39</ele>
        <time>2021-07-05T15:39:44Z</time>
      </trkpt>
      <trkpt lat="43.37747" lon="-1.73577">
        <ele>10.23</ele>
        <time>2021-07-05T15:39:52Z</time>
      </trkpt>
      <trkpt lat="43.37741" lon="-1.73594">
        <ele>11.19</ele>
        <time>2021-07-05T15:39:53Z</time>
      </trkpt>
      <trkpt lat="43.37737" lon="-1.73611">
        <ele>12.15</ele>
        <time>2021-07-05T15:39:54Z</time>
      </trkpt>
      <trkpt lat="43.37735" lon="-1.73628">
        <ele>14.08</ele>
        <time>2021-07-05T15:39:55Z</time>
      </trkpt>
      <trkpt lat="43.37734" lon="-1.73646">
        <ele>15.04</ele>
        <time>2021-07-05T15:39:56Z</time>
      </trkpt>
      <trkpt lat="43.37737" lon="-1.7368">
        <ele>14.56</ele>
        <time>2021-07-05T15:39:57Z</time>
      </trkpt>
      <trkpt lat="43.37737" lon="-1.7368">
        <ele>15.52</ele>
        <time>2021-07-05T15:39:58Z</time>
      </trkpt>
      <trkpt lat="43.37741" lon="-1.73699">
        <ele>16.48</ele>
        <time>2021-07-05T15:39:59Z</time>
      </trkpt>
      <trkpt lat="43.37757" lon="-1.73781">
        <ele>18.4</ele>
        <time>2021-07-05T15:40:04Z</time>
      </trkpt>
      <trkpt lat="43.37759" lon="-1.73797">
        <ele>19.36</ele>
        <time>2021-07-05T15:40:05Z</time>
      </trkpt>
      <trkpt lat="43.37752" lon="-1.73829">
        <ele>20.32</ele>
        <time>2021-07-05T15:40:06Z</time>
      </trkpt>
      <trkpt lat="43.37749" lon="-1.73845">
        <ele>20.81</ele>
        <time>2021-07-05T15:40:07Z</time>
      </trkpt>
      <trkpt lat="43.37749" lon="-1.73845">
        <ele>21.77</ele>
        <time>2021-07-05T15:40:08Z</time>
      </trkpt>
      <trkpt lat="43.37743" lon="-1.73858">
        <ele>23.21</ele>
        <time>2021-07-05T15:40:09Z</time>
      </trkpt>
      <trkpt lat="43.37735" lon="-1.7387">
        <ele>24.17</ele>
        <time>2021-07-05T15:40:10Z</time>
      </trkpt>
      <trkpt lat="43.37727" lon="-1.73882">
        <ele>25.61</ele>
        <time>2021-07-05T15:40:11Z</time>
      </trkpt>
      <trkpt lat="43.37718" lon="-1.73895">
        <ele>26.57</ele>
        <time>2021-07-05T15:40:12Z</time>
      </trkpt>
      <trkpt lat="43.37676" lon="-1.73937">
        <ele>29.46</ele>
        <time>2021-07-05T15:40:16Z</time>
      </trkpt>
      <trkpt lat="43.37668" lon="-1.7395">
        <ele>30.42</ele>
        <time>2021-07-05T15:40:17Z</time>
      </trkpt>
      <trkpt lat="43.37661" lon="-1.73963">
        <ele>30.9</ele>
        <time>2021-07-05T15:40:18Z</time>
      </trkpt>
      <trkpt lat="43.37648" lon="-1.73992">
        <ele>31.38</ele>
        <time>2021-07-05T15:40:19Z</time>
      </trkpt>
      <trkpt lat="43.37648" lon="-1.73992">
        <ele>32.34</ele>
        <time>2021-07-05T15:40:20Z</time>
      </trkpt>
      <trkpt lat="43.37643" lon="-1.74026">
        <ele>33.78</ele>
        <time>2021-07-05T15:40:21Z</time>
      </trkpt>
      <trkpt lat="43.37643" lon="-1.74026">
        <ele>33.78</ele>
        <time>2021-07-05T15:40:22Z</time>
      </trkpt>
      <trkpt lat="43.37641" lon="-1.74041">
        <ele>34.74</ele>
        <time>2021-07-05T15:40:23Z</time>
      </trkpt>
      <trkpt lat="43.37644" lon="-1.74059">
        <ele>35.23</ele>
        <time>2021-07-05T15:40:24Z</time>
      </trkpt>
      <trkpt lat="43.37647" lon="-1.74076">
        <ele>35.71</ele>
        <time>2021-07-05T15:40:25Z</time>
      </trkpt>
      <trkpt lat="43.37655" lon="-1.7411">
        <ele>37.15</ele>
        <time>2021-07-05T15:40:26Z</time>
      </trkpt>
      <trkpt lat="43.37655" lon="-1.7411">
        <ele>37.63</ele>
        <time>2021-07-05T15:40:27Z</time>
      </trkpt>
      <trkpt lat="43.37686" lon="-1.74196">
        <ele>40.51</ele>
        <time>2021-07-05T15:40:33Z</time>
      </trkpt>
      <trkpt lat="43.37689" lon="-1.74204">
        <ele>40.99</ele>
        <time>2021-07-05T15:40:34Z</time>
      </trkpt>
      <trkpt lat="43.37691" lon="-1.74211">
        <ele>41.47</ele>
        <time>2021-07-05T15:40:35Z</time>
      </trkpt>
      <trkpt lat="43.37694" lon="-1.74217">
        <ele>41.95</ele>
        <time>2021-07-05T15:40:36Z</time>
      </trkpt>
      <trkpt lat="43.37699" lon="-1.74233">
        <ele>42.44</ele>
        <time>2021-07-05T15:40:37Z</time>
      </trkpt>
      <trkpt lat="43.37699" lon="-1.74233">
        <ele>42.44</ele>
        <time>2021-07-05T15:40:38Z</time>
      </trkpt>
      <trkpt lat="43.37702" lon="-1.74241">
        <ele>42.92</ele>
        <time>2021-07-05T15:40:39Z</time>
      </trkpt>
      <trkpt lat="43.37705" lon="-1.74249">
        <ele>42.92</ele>
        <time>2021-07-05T15:40:40Z</time>
      </trkpt>
      <trkpt lat="43.37708" lon="-1.74258">
        <ele>42.92</ele>
        <time>2021-07-05T15:40:41Z</time>
      </trkpt>
      <trkpt lat="43.37733" lon="-1.74365">
        <ele>42.44</ele>
        <time>2021-07-05T15:40:50Z</time>
      </trkpt>
      <trkpt lat="43.37735" lon="-1.74576">
        <ele>46.28</ele>
        <time>2021-07-05T15:41:03Z</time>
      </trkpt>
      <trkpt lat="43.37693" lon="-1.74729">
        <ele>43.88</ele>
        <time>2021-07-05T15:41:12Z</time>
      </trkpt>
      <trkpt lat="43.37686" lon="-1.74744">
        <ele>43.4</ele>
        <time>2021-07-05T15:41:13Z</time>
      </trkpt>
      <trkpt lat="43.3768" lon="-1.74757">
        <ele>42.92</ele>
        <time>2021-07-05T15:41:14Z</time>
      </trkpt>
      <trkpt lat="43.37672" lon="-1.7477">
        <ele>42.92</ele>
        <time>2021-07-05T15:41:15Z</time>
      </trkpt>
      <trkpt lat="43.37646" lon="-1.74806">
        <ele>45.8</ele>
        <time>2021-07-05T15:41:18Z</time>
      </trkpt>
      <trkpt lat="43.37638" lon="-1.74819">
        <ele>46.76</ele>
        <time>2021-07-05T15:41:19Z</time>
      </trkpt>
      <trkpt lat="43.37631" lon="-1.74835">
        <ele>47.24</ele>
        <time>2021-07-05T15:41:20Z</time>
      </trkpt>
      <trkpt lat="43.37625" lon="-1.7485">
        <ele>48.2</ele>
        <time>2021-07-05T15:41:21Z</time>
      </trkpt>
      <trkpt lat="43.37622" lon="-1.74866">
        <ele>49.16</ele>
        <time>2021-07-05T15:41:22Z</time>
      </trkpt>
      <trkpt lat="43.37619" lon="-1.74882">
        <ele>50.13</ele>
        <time>2021-07-05T15:41:23Z</time>
      </trkpt>
      <trkpt lat="43.37603" lon="-1.75039">
        <ele>52.53</ele>
        <time>2021-07-05T15:41:34Z</time>
      </trkpt>
      <trkpt lat="43.37587" lon="-1.75106">
        <ele>52.05</ele>
        <time>2021-07-05T15:41:41Z</time>
      </trkpt>
      <trkpt lat="43.37583" lon="-1.75115">
        <ele>52.53</ele>
        <time>2021-07-05T15:41:42Z</time>
      </trkpt>
      <trkpt lat="43.37578" lon="-1.75124">
        <ele>52.53</ele>
        <time>2021-07-05T15:41:43Z</time>
      </trkpt>
      <trkpt lat="43.37574" lon="-1.75133">
        <ele>52.05</ele>
        <time>2021-07-05T15:41:44Z</time>
      </trkpt>
      <trkpt lat="43.37561" lon="-1.75149">
        <ele>51.57</ele>
        <time>2021-07-05T15:41:45Z</time>
      </trkpt>
      <trkpt lat="43.37561" lon="-1.75149">
        <ele>51.09</ele>
        <time>2021-07-05T15:41:46Z</time>
      </trkpt>
      <trkpt lat="43.37554" lon="-1.75156">
        <ele>51.09</ele>
        <time>2021-07-05T15:41:47Z</time>
      </trkpt>
      <trkpt lat="43.37547" lon="-1.75161">
        <ele>50.61</ele>
        <time>2021-07-05T15:41:48Z</time>
      </trkpt>
      <trkpt lat="43.37521" lon="-1.75172">
        <ele>51.09</ele>
        <time>2021-07-05T15:41:52Z</time>
      </trkpt>
      <trkpt lat="43.37516" lon="-1.75174">
        <ele>51.09</ele>
        <time>2021-07-05T15:41:53Z</time>
      </trkpt>
      <trkpt lat="43.37513" lon="-1.75176">
        <ele>50.61</ele>
        <time>2021-07-05T15:41:54Z</time>
      </trkpt>
      <trkpt lat="43.3751" lon="-1.75182">
        <ele>50.61</ele>
        <time>2021-07-05T15:41:55Z</time>
      </trkpt>
      <trkpt lat="43.37509" lon="-1.75186">
        <ele>50.61</ele>
        <time>2021-07-05T15:41:56Z</time>
      </trkpt>
      <trkpt lat="43.37507" lon="-1.75192">
        <ele>50.61</ele>
        <time>2021-07-05T15:41:57Z</time>
      </trkpt>
      <trkpt lat="43.37504" lon="-1.75196">
        <ele>51.09</ele>
        <time>2021-07-05T15:41:58Z</time>
      </trkpt>
      <trkpt lat="43.37498" lon="-1.75199">
        <ele>51.09</ele>
        <time>2021-07-05T15:41:59Z</time>
      </trkpt>
      <trkpt lat="43.37494" lon="-1.75199">
        <ele>51.57</ele>
        <time>2021-07-05T15:42:00Z</time>
      </trkpt>
      <trkpt lat="43.37489" lon="-1.75198">
        <ele>51.57</ele>
        <time>2021-07-05T15:42:01Z</time>
      </trkpt>
      <trkpt lat="43.37486" lon="-1.75198">
        <ele>52.05</ele>
        <time>2021-07-05T15:42:02Z</time>
      </trkpt>
      <trkpt lat="43.37486" lon="-1.75198">
        <ele>52.05</ele>
        <time>2021-07-05T15:42:03Z</time>
      </trkpt>
      <trkpt lat="43.37475" lon="-1.75184">
        <ele>52.05</ele>
        <time>2021-07-05T15:42:04Z</time>
      </trkpt>
      <trkpt lat="43.3747" lon="-1.75186">
        <ele>52.05</ele>
        <time>2021-07-05T15:42:05Z</time>
      </trkpt>
      <trkpt lat="43.37464" lon="-1.75189">
        <ele>52.05</ele>
        <time>2021-07-05T15:42:06Z</time>
      </trkpt>
      <trkpt lat="43.37458" lon="-1.75192">
        <ele>52.05</ele>
        <time>2021-07-05T15:42:07Z</time>
      </trkpt>
      <trkpt lat="43.37452" lon="-1.75195">
        <ele>52.05</ele>
        <time>2021-07-05T15:42:08Z</time>
      </trkpt>
      <trkpt lat="43.37445" lon="-1.75199">
        <ele>51.57</ele>
        <time>2021-07-05T15:42:09Z</time>
      </trkpt>
      <trkpt lat="43.37426" lon="-1.75214">
        <ele>51.09</ele>
        <time>2021-07-05T15:42:12Z</time>
      </trkpt>
      <trkpt lat="43.37419" lon="-1.7522">
        <ele>50.61</ele>
        <time>2021-07-05T15:42:13Z</time>
      </trkpt>
      <trkpt lat="43.37375" lon="-1.75312">
        <ele>46.28</ele>
        <time>2021-07-05T15:42:23Z</time>
      </trkpt>
      <trkpt lat="43.37349" lon="-1.75502">
        <ele>37.15</ele>
        <time>2021-07-05T15:42:37Z</time>
      </trkpt>
      <trkpt lat="43.3735" lon="-1.7553">
        <ele>35.23</ele>
        <time>2021-07-05T15:42:39Z</time>
      </trkpt>
      <trkpt lat="43.37354" lon="-1.75544">
        <ele>35.71</ele>
        <time>2021-07-05T15:42:40Z</time>
      </trkpt>
      <trkpt lat="43.37359" lon="-1.75558">
        <ele>36.67</ele>
        <time>2021-07-05T15:42:41Z</time>
      </trkpt>
      <trkpt lat="43.37364" lon="-1.75571">
        <ele>36.67</ele>
        <time>2021-07-05T15:42:42Z</time>
      </trkpt>
      <trkpt lat="43.37371" lon="-1.75582">
        <ele>36.67</ele>
        <time>2021-07-05T15:42:43Z</time>
      </trkpt>
      <trkpt lat="43.37378" lon="-1.75592">
        <ele>36.67</ele>
        <time>2021-07-05T15:42:44Z</time>
      </trkpt>
      <trkpt lat="43.37387" lon="-1.75602">
        <ele>37.63</ele>
        <time>2021-07-05T15:42:45Z</time>
      </trkpt>
      <trkpt lat="43.37396" lon="-1.7561">
        <ele>37.15</ele>
        <time>2021-07-05T15:42:46Z</time>
      </trkpt>
      <trkpt lat="43.37404" lon="-1.75617">
        <ele>37.15</ele>
        <time>2021-07-05T15:42:47Z</time>
      </trkpt>
      <trkpt lat="43.3743" lon="-1.7564">
        <ele>34.26</ele>
        <time>2021-07-05T15:42:50Z</time>
      </trkpt>
      <trkpt lat="43.37441" lon="-1.75648">
        <ele>31.86</ele>
        <time>2021-07-05T15:42:51Z</time>
      </trkpt>
      <trkpt lat="43.37447" lon="-1.75656">
        <ele>29.94</ele>
        <time>2021-07-05T15:42:52Z</time>
      </trkpt>
      <trkpt lat="43.37454" lon="-1.75668">
        <ele>29.46</ele>
        <time>2021-07-05T15:42:53Z</time>
      </trkpt>
      <trkpt lat="43.37461" lon="-1.75681">
        <ele>28.98</ele>
        <time>2021-07-05T15:42:54Z</time>
      </trkpt>
      <trkpt lat="43.37464" lon="-1.75695">
        <ele>27.53</ele>
        <time>2021-07-05T15:42:55Z</time>
      </trkpt>
      <trkpt lat="43.37467" lon="-1.75711">
        <ele>26.09</ele>
        <time>2021-07-05T15:42:56Z</time>
      </trkpt>
      <trkpt lat="43.37465" lon="-1.75726">
        <ele>25.13</ele>
        <time>2021-07-05T15:42:57Z</time>
      </trkpt>
      <trkpt lat="43.37463" lon="-1.75742">
        <ele>23.69</ele>
        <time>2021-07-05T15:42:58Z</time>
      </trkpt>
      <trkpt lat="43.37459" lon="-1.75756">
        <ele>22.73</ele>
        <time>2021-07-05T15:42:59Z</time>
      </trkpt>
      <trkpt lat="43.37455" lon="-1.7577">
        <ele>21.77</ele>
        <time>2021-07-05T15:43:00Z</time>
      </trkpt>
      <trkpt lat="43.37447" lon="-1.75781">
        <ele>21.29</ele>
        <time>2021-07-05T15:43:01Z</time>
      </trkpt>
      <trkpt lat="43.37439" lon="-1.75793">
        <ele>19.84</ele>
        <time>2021-07-05T15:43:02Z</time>
      </trkpt>
      <trkpt lat="43.37377" lon="-1.75877">
        <ele>16.48</ele>
        <time>2021-07-05T15:43:10Z</time>
      </trkpt>
      <trkpt lat="43.37371" lon="-1.75888">
        <ele>16</ele>
        <time>2021-07-05T15:43:11Z</time>
      </trkpt>
      <trkpt lat="43.37367" lon="-1.759">
        <ele>15.04</ele>
        <time>2021-07-05T15:43:12Z</time>
      </trkpt>
      <trkpt lat="43.37364" lon="-1.75913">
        <ele>14.08</ele>
        <time>2021-07-05T15:43:13Z</time>
      </trkpt>
      <trkpt lat="43.37362" lon="-1.75927">
        <ele>12.63</ele>
        <time>2021-07-05T15:43:14Z</time>
      </trkpt>
      <trkpt lat="43.37362" lon="-1.75954">
        <ele>11.67</ele>
        <time>2021-07-05T15:43:15Z</time>
      </trkpt>
      <trkpt lat="43.37362" lon="-1.75954">
        <ele>11.67</ele>
        <time>2021-07-05T15:43:16Z</time>
      </trkpt>
      <trkpt lat="43.37364" lon="-1.75965">
        <ele>11.67</ele>
        <time>2021-07-05T15:43:17Z</time>
      </trkpt>
      <trkpt lat="43.37366" lon="-1.75977">
        <ele>13.12</ele>
        <time>2021-07-05T15:43:18Z</time>
      </trkpt>
      <trkpt lat="43.3737" lon="-1.75987">
        <ele>13.6</ele>
        <time>2021-07-05T15:43:19Z</time>
      </trkpt>
      <trkpt lat="43.37375" lon="-1.75998">
        <ele>13.12</ele>
        <time>2021-07-05T15:43:20Z</time>
      </trkpt>
      <trkpt lat="43.37381" lon="-1.76007">
        <ele>13.12</ele>
        <time>2021-07-05T15:43:21Z</time>
      </trkpt>
      <trkpt lat="43.37389" lon="-1.76016">
        <ele>13.12</ele>
        <time>2021-07-05T15:43:22Z</time>
      </trkpt>
      <trkpt lat="43.37398" lon="-1.76027">
        <ele>13.12</ele>
        <time>2021-07-05T15:43:23Z</time>
      </trkpt>
      <trkpt lat="43.37407" lon="-1.76033">
        <ele>12.63</ele>
        <time>2021-07-05T15:43:24Z</time>
      </trkpt>
      <trkpt lat="43.37417" lon="-1.76038">
        <ele>12.15</ele>
        <time>2021-07-05T15:43:25Z</time>
      </trkpt>
      <trkpt lat="43.37426" lon="-1.76042">
        <ele>11.19</ele>
        <time>2021-07-05T15:43:26Z</time>
      </trkpt>
      <trkpt lat="43.37504" lon="-1.76099">
        <ele>3.02</ele>
        <time>2021-07-05T15:43:35Z</time>
      </trkpt>
      <trkpt lat="43.37542" lon="-1.76173">
        <ele>0.14</ele>
        <time>2021-07-05T15:43:44Z</time>
      </trkpt>
      <trkpt lat="43.37561" lon="-1.76267">
        <ele>2.54</ele>
        <time>2021-07-05T15:43:58Z</time>
      </trkpt>
      <trkpt lat="43.37561" lon="-1.76274">
        <ele>2.54</ele>
        <time>2021-07-05T15:43:59Z</time>
      </trkpt>
      <trkpt lat="43.37561" lon="-1.76282">
        <ele>2.06</ele>
        <time>2021-07-05T15:44:00Z</time>
      </trkpt>
      <trkpt lat="43.3756" lon="-1.76289">
        <ele>2.06</ele>
        <time>2021-07-05T15:44:01Z</time>
      </trkpt>
      <trkpt lat="43.37558" lon="-1.76296">
        <ele>2.06</ele>
        <time>2021-07-05T15:44:02Z</time>
      </trkpt>
      <trkpt lat="43.37545" lon="-1.7635">
        <ele>1.1</ele>
        <time>2021-07-05T15:44:12Z</time>
      </trkpt>
      <trkpt lat="43.37524" lon="-1.76433">
        <ele>0.62</ele>
        <time>2021-07-05T15:44:26Z</time>
      </trkpt>
      <trkpt lat="43.37505" lon="-1.76515">
        <ele>0.14</ele>
        <time>2021-07-05T15:44:41Z</time>
      </trkpt>
      <trkpt lat="43.37471" lon="-1.76664">
        <ele>0.14</ele>
        <time>2021-07-05T15:45:01Z</time>
      </trkpt>
      <trkpt lat="43.3744" lon="-1.76801">
        <ele>0.14</ele>
        <time>2021-07-05T15:45:18Z</time>
      </trkpt>
      <trkpt lat="43.37411" lon="-1.76937">
        <ele>-0.34</ele>
        <time>2021-07-05T15:45:36Z</time>
      </trkpt>
      <trkpt lat="43.37386" lon="-1.77047">
        <ele>-0.34</ele>
        <time>2021-07-05T15:45:52Z</time>
      </trkpt>
      <trkpt lat="43.3737" lon="-1.77125">
        <ele>-0.82</ele>
        <time>2021-07-05T15:46:05Z</time>
      </trkpt>
      <trkpt lat="43.37362" lon="-1.77113">
        <ele>-0.82</ele>
        <time>2021-07-05T15:46:06Z</time>
      </trkpt>
      <trkpt lat="43.37358" lon="-1.77113">
        <ele>-0.82</ele>
        <time>2021-07-05T15:46:07Z</time>
      </trkpt>
      <trkpt lat="43.37354" lon="-1.77113">
        <ele>-0.82</ele>
        <time>2021-07-05T15:46:09Z</time>
      </trkpt>
      <trkpt lat="43.37328" lon="-1.77116">
        <ele>-0.34</ele>
        <time>2021-07-05T15:46:15Z</time>
      </trkpt>
      <trkpt lat="43.37325" lon="-1.77109">
        <ele>-0.34</ele>
        <time>2021-07-05T15:46:16Z</time>
      </trkpt>
      <trkpt lat="43.37325" lon="-1.77109">
        <ele>-0.34</ele>
        <time>2021-07-05T15:46:17Z</time>
      </trkpt>
      <trkpt lat="43.37326" lon="-1.77105">
        <ele>-0.34</ele>
        <time>2021-07-05T15:46:18Z</time>
      </trkpt>
      <trkpt lat="43.37327" lon="-1.771">
        <ele>-0.34</ele>
        <time>2021-07-05T15:46:19Z</time>
      </trkpt>
      <trkpt lat="43.3733" lon="-1.77087">
        <ele>-0.82</ele>
        <time>2021-07-05T15:46:20Z</time>
      </trkpt>
      <trkpt lat="43.37346" lon="-1.77014">
        <ele>0.62</ele>
        <time>2021-07-05T15:46:33Z</time>
      </trkpt>
      <trkpt lat="43.37347" lon="-1.76995">
        <ele>1.58</ele>
        <time>2021-07-05T15:46:36Z</time>
      </trkpt>
      <trkpt lat="43.37351" lon="-1.76962">
        <ele>3.02</ele>
        <time>2021-07-05T15:46:43Z</time>
      </trkpt>
      <trkpt lat="43.37351" lon="-1.76957">
        <ele>1.58</ele>
        <time>2021-07-05T15:46:44Z</time>
      </trkpt>
      <trkpt lat="43.37351" lon="-1.76957">
        <ele>1.58</ele>
        <time>2021-07-05T15:46:45Z</time>
      </trkpt>
      <trkpt lat="43.3735" lon="-1.76957">
        <ele>1.1</ele>
        <time>2021-07-05T15:46:46Z</time>
      </trkpt>
      <trkpt lat="43.37347" lon="-1.76955">
        <ele>1.1</ele>
        <time>2021-07-05T15:46:47Z</time>
      </trkpt>
      <trkpt lat="43.37343" lon="-1.76954">
        <ele>1.58</ele>
        <time>2021-07-05T15:46:48Z</time>
      </trkpt>
      <trkpt lat="43.37339" lon="-1.76952">
        <ele>2.06</ele>
        <time>2021-07-05T15:46:49Z</time>
      </trkpt>
      <trkpt lat="43.37335" lon="-1.76949">
        <ele>2.06</ele>
        <time>2021-07-05T15:46:50Z</time>
      </trkpt>
      <trkpt lat="43.37331" lon="-1.76944">
        <ele>2.06</ele>
        <time>2021-07-05T15:46:51Z</time>
      </trkpt>
      <trkpt lat="43.37328" lon="-1.76939">
        <ele>2.06</ele>
        <time>2021-07-05T15:46:52Z</time>
      </trkpt>
      <trkpt lat="43.37326" lon="-1.76934">
        <ele>1.58</ele>
        <time>2021-07-05T15:46:53Z</time>
      </trkpt>
      <trkpt lat="43.37325" lon="-1.76929">
        <ele>1.58</ele>
        <time>2021-07-05T15:46:54Z</time>
      </trkpt>
      <trkpt lat="43.37324" lon="-1.76924">
        <ele>1.1</ele>
        <time>2021-07-05T15:46:55Z</time>
      </trkpt>
      <trkpt lat="43.37323" lon="-1.76918">
        <ele>1.1</ele>
        <time>2021-07-05T15:46:56Z</time>
      </trkpt>
      <trkpt lat="43.37326" lon="-1.76908">
        <ele>1.1</ele>
        <time>2021-07-05T15:46:57Z</time>
      </trkpt>
      <trkpt lat="43.37326" lon="-1.76908">
        <ele>1.1</ele>
        <time>2021-07-05T15:46:58Z</time>
      </trkpt>
      <trkpt lat="43.37329" lon="-1.76896">
        <ele>1.58</ele>
        <time>2021-07-05T15:46:59Z</time>
      </trkpt>
      <trkpt lat="43.37329" lon="-1.76896">
        <ele>2.06</ele>
        <time>2021-07-05T15:47:00Z</time>
      </trkpt>
      <trkpt lat="43.37332" lon="-1.76894">
        <ele>2.06</ele>
        <time>2021-07-05T15:47:01Z</time>
      </trkpt>
      <trkpt lat="43.37336" lon="-1.76891">
        <ele>1.58</ele>
        <time>2021-07-05T15:47:02Z</time>
      </trkpt>
      <trkpt lat="43.3734" lon="-1.76888">
        <ele>2.06</ele>
        <time>2021-07-05T15:47:03Z</time>
      </trkpt>
      <trkpt lat="43.37344" lon="-1.76885">
        <ele>2.54</ele>
        <time>2021-07-05T15:47:04Z</time>
      </trkpt>
      <trkpt lat="43.37353" lon="-1.76883">
        <ele>3.02</ele>
        <time>2021-07-05T15:47:05Z</time>
      </trkpt>
      <trkpt lat="43.37357" lon="-1.76884">
        <ele>3.02</ele>
        <time>2021-07-05T15:47:06Z</time>
      </trkpt>
      <trkpt lat="43.3736" lon="-1.76885">
        <ele>3.5</ele>
        <time>2021-07-05T15:47:07Z</time>
      </trkpt>
      <trkpt lat="43.3736" lon="-1.76885">
        <ele>3.98</ele>
        <time>2021-07-05T15:47:08Z</time>
      </trkpt>
      <trkpt lat="43.37364" lon="-1.76887">
        <ele>3.98</ele>
        <time>2021-07-05T15:47:09Z</time>
      </trkpt>
      <trkpt lat="43.37366" lon="-1.76891">
        <ele>3.98</ele>
        <time>2021-07-05T15:47:10Z</time>
      </trkpt>
      <trkpt lat="43.37368" lon="-1.76895">
        <ele>3.98</ele>
        <time>2021-07-05T15:47:11Z</time>
      </trkpt>
      <trkpt lat="43.3737" lon="-1.76899">
        <ele>3.5</ele>
        <time>2021-07-05T15:47:12Z</time>
      </trkpt>
      <trkpt lat="43.37374" lon="-1.76907">
        <ele>3.98</ele>
        <time>2021-07-05T15:47:13Z</time>
      </trkpt>
      <trkpt lat="43.37374" lon="-1.76907">
        <ele>3.02</ele>
        <time>2021-07-05T15:47:14Z</time>
      </trkpt>
      <trkpt lat="43.37369" lon="-1.76945">
        <ele>3.02</ele>
        <time>2021-07-05T15:47:23Z</time>
      </trkpt>
      <trkpt lat="43.37368" lon="-1.76948">
        <ele>3.5</ele>
        <time>2021-07-05T15:47:24Z</time>
      </trkpt>
      <trkpt lat="43.37371" lon="-1.76953">
        <ele>3.5</ele>
        <time>2021-07-05T15:47:25Z</time>
      </trkpt>
      <trkpt lat="43.37392" lon="-1.76981">
        <ele>5.42</ele>
        <time>2021-07-05T15:47:39Z</time>
      </trkpt>
      <trkpt lat="43.37397" lon="-1.76995">
        <ele>4.94</ele>
        <time>2021-07-05T15:47:49Z</time>
      </trkpt>
      <trkpt lat="43.37397" lon="-1.76995">
        <ele>4.94</ele>
        <time>2021-07-05T15:47:50Z</time>
      </trkpt>
      <trkpt lat="43.37396" lon="-1.76998">
        <ele>4.94</ele>
        <time>2021-07-05T15:47:51Z</time>
      </trkpt>
      <trkpt lat="43.37384" lon="-1.77055">
        <ele>3.5</ele>
        <time>2021-07-05T15:48:06Z</time>
      </trkpt>
      <trkpt lat="43.37384" lon="-1.77055">
        <ele>3.5</ele>
        <time>2021-07-05T15:48:42Z</time>
      </trkpt>
      <trkpt lat="43.37385" lon="-1.77052">
        <ele>3.5</ele>
        <time>2021-07-05T15:48:43Z</time>
      </trkpt>
      <trkpt lat="43.37385" lon="-1.77054">
        <ele>3.5</ele>
        <time>2021-07-05T15:48:54Z</time>
      </trkpt>
      <trkpt lat="43.37385" lon="-1.77054">
        <ele>3.5</ele>
        <time>2021-07-05T15:49:16Z</time>
      </trkpt>
      <trkpt lat="43.37385" lon="-1.77054">
        <ele>3.5</ele>
        <time>2021-07-05T15:49:39Z</time>
      </trkpt>
    </trkseg>
  </trk>
  <trk>
    <name><![CDATA[Journal actif: 2021-07-05 15:28]]></name>
    <trkseg>
      <trkpt lat="43.3739" lon="-1.77045">
        <ele>8.79</ele>
        <time>2021-07-05T17:28:22Z</time>
      </trkpt>
      <trkpt lat="43.37391" lon="-1.77045">
        <ele>8.31</ele>
        <time>2021-07-05T17:30:24Z</time>
      </trkpt>
      <trkpt lat="43.37388" lon="-1.77047">
        <ele>8.31</ele>
        <time>2021-07-05T17:30:36Z</time>
      </trkpt>
      <trkpt lat="43.37385" lon="-1.77053">
        <ele>8.31</ele>
        <time>2021-07-05T17:30:40Z</time>
      </trkpt>
      <trkpt lat="43.37385" lon="-1.77053">
        <ele>7.83</ele>
        <time>2021-07-05T17:30:41Z</time>
      </trkpt>
      <trkpt lat="43.37368" lon="-1.77134">
        <ele>7.35</ele>
        <time>2021-07-05T17:30:56Z</time>
      </trkpt>
      <trkpt lat="43.37354" lon="-1.77207">
        <ele>6.39</ele>
        <time>2021-07-05T17:31:11Z</time>
      </trkpt>
      <trkpt lat="43.37343" lon="-1.77262">
        <ele>5.91</ele>
        <time>2021-07-05T17:31:24Z</time>
      </trkpt>
      <trkpt lat="43.37329" lon="-1.77331">
        <ele>5.42</ele>
        <time>2021-07-05T17:31:36Z</time>
      </trkpt>
      <trkpt lat="43.37316" lon="-1.77391">
        <ele>6.39</ele>
        <time>2021-07-05T17:31:50Z</time>
      </trkpt>
      <trkpt lat="43.37314" lon="-1.77407">
        <ele>5.91</ele>
        <time>2021-07-05T17:32:01Z</time>
      </trkpt>
      <trkpt lat="43.37306" lon="-1.77477">
        <ele>5.91</ele>
        <time>2021-07-05T17:32:17Z</time>
      </trkpt>
      <trkpt lat="43.37296" lon="-1.77558">
        <ele>5.42</ele>
        <time>2021-07-05T17:32:34Z</time>
      </trkpt>
      <trkpt lat="43.37295" lon="-1.77572">
        <ele>4.94</ele>
        <time>2021-07-05T17:32:39Z</time>
      </trkpt>
      <trkpt lat="43.37294" lon="-1.77575">
        <ele>4.94</ele>
        <time>2021-07-05T17:32:40Z</time>
      </trkpt>
      <trkpt lat="43.37291" lon="-1.77567">
        <ele>4.94</ele>
        <time>2021-07-05T17:32:41Z</time>
      </trkpt>
      <trkpt lat="43.37258" lon="-1.77571">
        <ele>3.98</ele>
        <time>2021-07-05T17:32:51Z</time>
      </trkpt>
      <trkpt lat="43.37237" lon="-1.77574">
        <ele>3.98</ele>
        <time>2021-07-05T17:32:56Z</time>
      </trkpt>
      <trkpt lat="43.37233" lon="-1.77575">
        <ele>3.98</ele>
        <time>2021-07-05T17:32:57Z</time>
      </trkpt>
      <trkpt lat="43.37229" lon="-1.77575">
        <ele>3.98</ele>
        <time>2021-07-05T17:32:58Z</time>
      </trkpt>
      <trkpt lat="43.37225" lon="-1.77576">
        <ele>3.98</ele>
        <time>2021-07-05T17:32:59Z</time>
      </trkpt>
      <trkpt lat="43.37222" lon="-1.77576">
        <ele>3.5</ele>
        <time>2021-07-05T17:33:09Z</time>
      </trkpt>
      <trkpt lat="43.37197" lon="-1.77579">
        <ele>3.02</ele>
        <time>2021-07-05T17:33:17Z</time>
      </trkpt>
      <trkpt lat="43.37116" lon="-1.77586">
        <ele>2.54</ele>
        <time>2021-07-05T17:33:35Z</time>
      </trkpt>
      <trkpt lat="43.3707" lon="-1.77591">
        <ele>2.06</ele>
        <time>2021-07-05T17:33:50Z</time>
      </trkpt>
      <trkpt lat="43.3707" lon="-1.77591">
        <ele>2.06</ele>
        <time>2021-07-05T17:33:52Z</time>
      </trkpt>
      <trkpt lat="43.37065" lon="-1.77592">
        <ele>2.06</ele>
        <time>2021-07-05T17:33:53Z</time>
      </trkpt>
      <trkpt lat="43.37065" lon="-1.77592">
        <ele>2.06</ele>
        <time>2021-07-05T17:33:54Z</time>
      </trkpt>
      <trkpt lat="43.37063" lon="-1.77588">
        <ele>2.06</ele>
        <time>2021-07-05T17:33:55Z</time>
      </trkpt>
      <trkpt lat="43.37063" lon="-1.77578">
        <ele>2.06</ele>
        <time>2021-07-05T17:33:56Z</time>
      </trkpt>
      <trkpt lat="43.37063" lon="-1.77578">
        <ele>1.58</ele>
        <time>2021-07-05T17:33:57Z</time>
      </trkpt>
      <trkpt lat="43.37053" lon="-1.77473">
        <ele>1.58</ele>
        <time>2021-07-05T17:34:11Z</time>
      </trkpt>
      <trkpt lat="43.37012" lon="-1.77362">
        <ele>0.62</ele>
        <time>2021-07-05T17:34:26Z</time>
      </trkpt>
      <trkpt lat="43.36956" lon="-1.77289">
        <ele>0.14</ele>
        <time>2021-07-05T17:34:40Z</time>
      </trkpt>
      <trkpt lat="43.36885" lon="-1.77216">
        <ele>-0.34</ele>
        <time>2021-07-05T17:34:57Z</time>
      </trkpt>
      <trkpt lat="43.36791" lon="-1.77153">
        <ele>-0.82</ele>
        <time>2021-07-05T17:35:12Z</time>
      </trkpt>
      <trkpt lat="43.3668" lon="-1.77077">
        <ele>-0.82</ele>
        <time>2021-07-05T17:35:28Z</time>
      </trkpt>
      <trkpt lat="43.36549" lon="-1.76986">
        <ele>-0.82</ele>
        <time>2021-07-05T17:35:49Z</time>
      </trkpt>
      <trkpt lat="43.36523" lon="-1.76976">
        <ele>-1.3</ele>
        <time>2021-07-05T17:35:54Z</time>
      </trkpt>
      <trkpt lat="43.36517" lon="-1.76975">
        <ele>-1.3</ele>
        <time>2021-07-05T17:35:55Z</time>
      </trkpt>
      <trkpt lat="43.36511" lon="-1.76976">
        <ele>-1.3</ele>
        <time>2021-07-05T17:35:56Z</time>
      </trkpt>
      <trkpt lat="43.36505" lon="-1.76979">
        <ele>-1.3</ele>
        <time>2021-07-05T17:35:57Z</time>
      </trkpt>
      <trkpt lat="43.36499" lon="-1.76982">
        <ele>-1.3</ele>
        <time>2021-07-05T17:35:58Z</time>
      </trkpt>
      <trkpt lat="43.36492" lon="-1.76986">
        <ele>-0.82</ele>
        <time>2021-07-05T17:35:59Z</time>
      </trkpt>
      <trkpt lat="43.36484" lon="-1.76989">
        <ele>-0.82</ele>
        <time>2021-07-05T17:36:00Z</time>
      </trkpt>
      <trkpt lat="43.36445" lon="-1.7701">
        <ele>0.14</ele>
        <time>2021-07-05T17:36:05Z</time>
      </trkpt>
      <trkpt lat="43.36439" lon="-1.77019">
        <ele>0.14</ele>
        <time>2021-07-05T17:36:06Z</time>
      </trkpt>
      <trkpt lat="43.36366" lon="-1.7712">
        <ele>2.06</ele>
        <time>2021-07-05T17:36:15Z</time>
      </trkpt>
      <trkpt lat="43.36341" lon="-1.7714">
        <ele>3.5</ele>
        <time>2021-07-05T17:36:19Z</time>
      </trkpt>
      <trkpt lat="43.36333" lon="-1.77147">
        <ele>4.46</ele>
        <time>2021-07-05T17:36:20Z</time>
      </trkpt>
      <trkpt lat="43.36325" lon="-1.77152">
        <ele>5.42</ele>
        <time>2021-07-05T17:36:21Z</time>
      </trkpt>
      <trkpt lat="43.36317" lon="-1.77153">
        <ele>4.94</ele>
        <time>2021-07-05T17:36:22Z</time>
      </trkpt>
      <trkpt lat="43.36307" lon="-1.77154">
        <ele>4.94</ele>
        <time>2021-07-05T17:36:23Z</time>
      </trkpt>
      <trkpt lat="43.36298" lon="-1.77155">
        <ele>5.42</ele>
        <time>2021-07-05T17:36:24Z</time>
      </trkpt>
      <trkpt lat="43.36259" lon="-1.77162">
        <ele>7.35</ele>
        <time>2021-07-05T17:36:28Z</time>
      </trkpt>
      <trkpt lat="43.3625" lon="-1.77167">
        <ele>7.35</ele>
        <time>2021-07-05T17:36:29Z</time>
      </trkpt>
      <trkpt lat="43.36186" lon="-1.77206">
        <ele>7.83</ele>
        <time>2021-07-05T17:36:39Z</time>
      </trkpt>
      <trkpt lat="43.36183" lon="-1.77217">
        <ele>7.83</ele>
        <time>2021-07-05T17:36:40Z</time>
      </trkpt>
      <trkpt lat="43.36173" lon="-1.77225">
        <ele>7.83</ele>
        <time>2021-07-05T17:36:41Z</time>
      </trkpt>
      <trkpt lat="43.3614" lon="-1.7734">
        <ele>7.35</ele>
        <time>2021-07-05T17:36:51Z</time>
      </trkpt>
      <trkpt lat="43.36094" lon="-1.77472">
        <ele>14.56</ele>
        <time>2021-07-05T17:37:02Z</time>
      </trkpt>
      <trkpt lat="43.36065" lon="-1.7751">
        <ele>16</ele>
        <time>2021-07-05T17:37:06Z</time>
      </trkpt>
      <trkpt lat="43.36056" lon="-1.77516">
        <ele>16.48</ele>
        <time>2021-07-05T17:37:07Z</time>
      </trkpt>
      <trkpt lat="43.36047" lon="-1.77522">
        <ele>16.96</ele>
        <time>2021-07-05T17:37:08Z</time>
      </trkpt>
      <trkpt lat="43.36039" lon="-1.77528">
        <ele>17.92</ele>
        <time>2021-07-05T17:37:09Z</time>
      </trkpt>
      <trkpt lat="43.36032" lon="-1.77531">
        <ele>18.88</ele>
        <time>2021-07-05T17:37:10Z</time>
      </trkpt>
      <trkpt lat="43.36025" lon="-1.77533">
        <ele>18.88</ele>
        <time>2021-07-05T17:37:11Z</time>
      </trkpt>
      <trkpt lat="43.35947" lon="-1.7757">
        <ele>20.81</ele>
        <time>2021-07-05T17:37:23Z</time>
      </trkpt>
      <trkpt lat="43.35878" lon="-1.776">
        <ele>17.92</ele>
        <time>2021-07-05T17:37:37Z</time>
      </trkpt>
      <trkpt lat="43.35832" lon="-1.77616">
        <ele>15.04</ele>
        <time>2021-07-05T17:37:48Z</time>
      </trkpt>
      <trkpt lat="43.35827" lon="-1.77618">
        <ele>15.04</ele>
        <time>2021-07-05T17:37:49Z</time>
      </trkpt>
      <trkpt lat="43.35823" lon="-1.77621">
        <ele>15.04</ele>
        <time>2021-07-05T17:37:50Z</time>
      </trkpt>
      <trkpt lat="43.35815" lon="-1.77627">
        <ele>15.04</ele>
        <time>2021-07-05T17:37:52Z</time>
      </trkpt>
      <trkpt lat="43.35801" lon="-1.77636">
        <ele>14.56</ele>
        <time>2021-07-05T17:37:55Z</time>
      </trkpt>
      <trkpt lat="43.35796" lon="-1.77639">
        <ele>14.08</ele>
        <time>2021-07-05T17:37:56Z</time>
      </trkpt>
      <trkpt lat="43.35792" lon="-1.77639">
        <ele>14.56</ele>
        <time>2021-07-05T17:37:57Z</time>
      </trkpt>
      <trkpt lat="43.35787" lon="-1.77639">
        <ele>14.08</ele>
        <time>2021-07-05T17:37:58Z</time>
      </trkpt>
      <trkpt lat="43.35782" lon="-1.77639">
        <ele>14.08</ele>
        <time>2021-07-05T17:37:59Z</time>
      </trkpt>
      <trkpt lat="43.35733" lon="-1.77633">
        <ele>16</ele>
        <time>2021-07-05T17:38:12Z</time>
      </trkpt>
      <trkpt lat="43.35733" lon="-1.77633">
        <ele>16.48</ele>
        <time>2021-07-05T17:38:38Z</time>
      </trkpt>
      <trkpt lat="43.35713" lon="-1.77631">
        <ele>16.96</ele>
        <time>2021-07-05T17:39:58Z</time>
      </trkpt>
      <trkpt lat="43.35683" lon="-1.77636">
        <ele>15.52</ele>
        <time>2021-07-05T17:40:10Z</time>
      </trkpt>
      <trkpt lat="43.3566" lon="-1.77681">
        <ele>12.63</ele>
        <time>2021-07-05T17:40:30Z</time>
      </trkpt>
      <trkpt lat="43.3566" lon="-1.77681">
        <ele>12.15</ele>
        <time>2021-07-05T17:40:49Z</time>
      </trkpt>
      <trkpt lat="43.35642" lon="-1.77708">
        <ele>11.19</ele>
        <time>2021-07-05T17:42:39Z</time>
      </trkpt>
      <trkpt lat="43.35585" lon="-1.77773">
        <ele>10.71</ele>
        <time>2021-07-05T17:42:55Z</time>
      </trkpt>
      <trkpt lat="43.35528" lon="-1.77839">
        <ele>11.67</ele>
        <time>2021-07-05T17:43:10Z</time>
      </trkpt>
      <trkpt lat="43.35499" lon="-1.77875">
        <ele>12.15</ele>
        <time>2021-07-05T17:43:19Z</time>
      </trkpt>
      <trkpt lat="43.35424" lon="-1.7797">
        <ele>11.67</ele>
        <time>2021-07-05T17:43:33Z</time>
      </trkpt>
      <trkpt lat="43.35343" lon="-1.78072">
        <ele>5.91</ele>
        <time>2021-07-05T17:43:52Z</time>
      </trkpt>
      <trkpt lat="43.35336" lon="-1.7808">
        <ele>5.91</ele>
        <time>2021-07-05T17:43:54Z</time>
      </trkpt>
      <trkpt lat="43.35336" lon="-1.7808">
        <ele>5.42</ele>
        <time>2021-07-05T17:43:55Z</time>
      </trkpt>
      <trkpt lat="43.35333" lon="-1.78084">
        <ele>5.42</ele>
        <time>2021-07-05T17:43:56Z</time>
      </trkpt>
      <trkpt lat="43.35283" lon="-1.78152">
        <ele>4.46</ele>
        <time>2021-07-05T17:44:11Z</time>
      </trkpt>
      <trkpt lat="43.35218" lon="-1.78236">
        <ele>8.79</ele>
        <time>2021-07-05T17:44:28Z</time>
      </trkpt>
      <trkpt lat="43.35167" lon="-1.78293">
        <ele>10.71</ele>
        <time>2021-07-05T17:44:41Z</time>
      </trkpt>
      <trkpt lat="43.35163" lon="-1.78296">
        <ele>11.19</ele>
        <time>2021-07-05T17:44:42Z</time>
      </trkpt>
      <trkpt lat="43.35159" lon="-1.78296">
        <ele>11.19</ele>
        <time>2021-07-05T17:44:43Z</time>
      </trkpt>
      <trkpt lat="43.35155" lon="-1.78297">
        <ele>11.19</ele>
        <time>2021-07-05T17:44:44Z</time>
      </trkpt>
      <trkpt lat="43.3515" lon="-1.78297">
        <ele>11.19</ele>
        <time>2021-07-05T17:44:45Z</time>
      </trkpt>
      <trkpt lat="43.35122" lon="-1.78295">
        <ele>11.67</ele>
        <time>2021-07-05T17:44:51Z</time>
      </trkpt>
      <trkpt lat="43.35118" lon="-1.78293">
        <ele>12.15</ele>
        <time>2021-07-05T17:44:52Z</time>
      </trkpt>
      <trkpt lat="43.35118" lon="-1.78293">
        <ele>12.15</ele>
        <time>2021-07-05T17:44:53Z</time>
      </trkpt>
      <trkpt lat="43.35101" lon="-1.78284">
        <ele>11.67</ele>
        <time>2021-07-05T17:44:57Z</time>
      </trkpt>
      <trkpt lat="43.35097" lon="-1.78282">
        <ele>11.67</ele>
        <time>2021-07-05T17:44:58Z</time>
      </trkpt>
      <trkpt lat="43.35083" lon="-1.78282">
        <ele>12.15</ele>
        <time>2021-07-05T17:45:02Z</time>
      </trkpt>
      <trkpt lat="43.35079" lon="-1.78284">
        <ele>11.67</ele>
        <time>2021-07-05T17:45:03Z</time>
      </trkpt>
      <trkpt lat="43.35074" lon="-1.78286">
        <ele>11.19</ele>
        <time>2021-07-05T17:45:04Z</time>
      </trkpt>
      <trkpt lat="43.35071" lon="-1.7829">
        <ele>10.23</ele>
        <time>2021-07-05T17:45:05Z</time>
      </trkpt>
      <trkpt lat="43.35067" lon="-1.78295">
        <ele>9.75</ele>
        <time>2021-07-05T17:45:06Z</time>
      </trkpt>
      <trkpt lat="43.35064" lon="-1.78299">
        <ele>8.79</ele>
        <time>2021-07-05T17:45:07Z</time>
      </trkpt>
      <trkpt lat="43.35028" lon="-1.7835">
        <ele>4.46</ele>
        <time>2021-07-05T17:45:18Z</time>
      </trkpt>
      <trkpt lat="43.34966" lon="-1.7843">
        <ele>2.54</ele>
        <time>2021-07-05T17:45:30Z</time>
      </trkpt>
      <trkpt lat="43.34881" lon="-1.78543">
        <ele>1.1</ele>
        <time>2021-07-05T17:45:44Z</time>
      </trkpt>
      <trkpt lat="43.34807" lon="-1.78638">
        <ele>-2.27</ele>
        <time>2021-07-05T17:45:58Z</time>
      </trkpt>
      <trkpt lat="43.34791" lon="-1.78655">
        <ele>-2.27</ele>
        <time>2021-07-05T17:46:05Z</time>
      </trkpt>
      <trkpt lat="43.34789" lon="-1.78691">
        <ele>-1.79</ele>
        <time>2021-07-05T17:46:11Z</time>
      </trkpt>
      <trkpt lat="43.34786" lon="-1.78694">
        <ele>-1.79</ele>
        <time>2021-07-05T17:46:12Z</time>
      </trkpt>
      <trkpt lat="43.34783" lon="-1.78699">
        <ele>-2.27</ele>
        <time>2021-07-05T17:46:13Z</time>
      </trkpt>
      <trkpt lat="43.3478" lon="-1.78702">
        <ele>-2.27</ele>
        <time>2021-07-05T17:46:14Z</time>
      </trkpt>
      <trkpt lat="43.34776" lon="-1.78701">
        <ele>-2.27</ele>
        <time>2021-07-05T17:46:15Z</time>
      </trkpt>
      <trkpt lat="43.34773" lon="-1.787">
        <ele>-1.79</ele>
        <time>2021-07-05T17:46:16Z</time>
      </trkpt>
      <trkpt lat="43.34772" lon="-1.787">
        <ele>-1.79</ele>
        <time>2021-07-05T17:46:17Z</time>
      </trkpt>
      <trkpt lat="43.34768" lon="-1.78696">
        <ele>-1.79</ele>
        <time>2021-07-05T17:46:18Z</time>
      </trkpt>
      <trkpt lat="43.34766" lon="-1.78694">
        <ele>-1.79</ele>
        <time>2021-07-05T17:46:19Z</time>
      </trkpt>
      <trkpt lat="43.34754" lon="-1.78693">
        <ele>-1.79</ele>
        <time>2021-07-05T17:46:20Z</time>
      </trkpt>
      <trkpt lat="43.3475" lon="-1.78696">
        <ele>-1.3</ele>
        <time>2021-07-05T17:46:21Z</time>
      </trkpt>
    </trkseg>
  </trk>
  <trk>
    <name><![CDATA[Journal actif: 2021-07-05 15:58]]></name>
    <trkseg>
      <trkpt lat="43.3472" lon="-1.78714">
        <ele>0.62</ele>
        <time>2021-07-05T17:58:56Z</time>
      </trkpt>
      <trkpt lat="43.34728" lon="-1.7871">
        <ele>1.1</ele>
        <time>2021-07-05T17:59:46Z</time>
      </trkpt>
      <trkpt lat="43.34747" lon="-1.78698">
        <ele>1.58</ele>
        <time>2021-07-05T18:00:00Z</time>
      </trkpt>
      <trkpt lat="43.34757" lon="-1.78673">
        <ele>2.06</ele>
        <time>2021-07-05T18:00:10Z</time>
      </trkpt>
      <trkpt lat="43.34771" lon="-1.78653">
        <ele>2.54</ele>
        <time>2021-07-05T18:00:21Z</time>
      </trkpt>
      <trkpt lat="43.34796" lon="-1.78649">
        <ele>2.54</ele>
        <time>2021-07-05T18:00:33Z</time>
      </trkpt>
      <trkpt lat="43.34822" lon="-1.7862">
        <ele>3.5</ele>
        <time>2021-07-05T18:00:47Z</time>
      </trkpt>
      <trkpt lat="43.34842" lon="-1.78594">
        <ele>4.46</ele>
        <time>2021-07-05T18:01:02Z</time>
      </trkpt>
      <trkpt lat="43.34855" lon="-1.78578">
        <ele>4.94</ele>
        <time>2021-07-05T18:01:15Z</time>
      </trkpt>
      <trkpt lat="43.34873" lon="-1.78553">
        <ele>5.91</ele>
        <time>2021-07-05T18:01:30Z</time>
      </trkpt>
      <trkpt lat="43.34878" lon="-1.78548">
        <ele>6.39</ele>
        <time>2021-07-05T18:01:41Z</time>
      </trkpt>
      <trkpt lat="43.34891" lon="-1.7853">
        <ele>6.87</ele>
        <time>2021-07-05T18:01:59Z</time>
      </trkpt>
      <trkpt lat="43.34943" lon="-1.7846">
        <ele>6.87</ele>
        <time>2021-07-05T18:02:18Z</time>
      </trkpt>
      <trkpt lat="43.34977" lon="-1.78416">
        <ele>6.87</ele>
        <time>2021-07-05T18:02:29Z</time>
      </trkpt>
      <trkpt lat="43.35014" lon="-1.78363">
        <ele>8.31</ele>
        <time>2021-07-05T18:02:35Z</time>
      </trkpt>
      <trkpt lat="43.35016" lon="-1.78353">
        <ele>8.79</ele>
        <time>2021-07-05T18:02:36Z</time>
      </trkpt>
      <trkpt lat="43.35019" lon="-1.78343">
        <ele>9.27</ele>
        <time>2021-07-05T18:02:37Z</time>
      </trkpt>
      <trkpt lat="43.35021" lon="-1.78333">
        <ele>9.27</ele>
        <time>2021-07-05T18:02:38Z</time>
      </trkpt>
      <trkpt lat="43.35021" lon="-1.78333">
        <ele>9.75</ele>
        <time>2021-07-05T18:02:39Z</time>
      </trkpt>
      <trkpt lat="43.35024" lon="-1.78322">
        <ele>9.75</ele>
        <time>2021-07-05T18:02:40Z</time>
      </trkpt>
      <trkpt lat="43.35026" lon="-1.78312">
        <ele>9.75</ele>
        <time>2021-07-05T18:02:41Z</time>
      </trkpt>
      <trkpt lat="43.35027" lon="-1.78301">
        <ele>9.27</ele>
        <time>2021-07-05T18:02:42Z</time>
      </trkpt>
      <trkpt lat="43.35029" lon="-1.78279">
        <ele>9.27</ele>
        <time>2021-07-05T18:02:43Z</time>
      </trkpt>
      <trkpt lat="43.35029" lon="-1.78238">
        <ele>8.31</ele>
        <time>2021-07-05T18:02:48Z</time>
      </trkpt>
      <trkpt lat="43.35029" lon="-1.7823">
        <ele>8.31</ele>
        <time>2021-07-05T18:02:49Z</time>
      </trkpt>
      <trkpt lat="43.35" lon="-1.78122">
        <ele>10.23</ele>
        <time>2021-07-05T18:03:01Z</time>
      </trkpt>
      <trkpt lat="43.34994" lon="-1.78087">
        <ele>10.71</ele>
        <time>2021-07-05T18:03:03Z</time>
      </trkpt>
      <trkpt lat="43.34991" lon="-1.78073">
        <ele>10.71</ele>
        <time>2021-07-05T18:03:04Z</time>
      </trkpt>
      <trkpt lat="43.34991" lon="-1.78073">
        <ele>10.23</ele>
        <time>2021-07-05T18:03:05Z</time>
      </trkpt>
      <trkpt lat="43.34979" lon="-1.77892">
        <ele>8.79</ele>
        <time>2021-07-05T18:03:18Z</time>
      </trkpt>
      <trkpt lat="43.34958" lon="-1.77704">
        <ele>8.79</ele>
        <time>2021-07-05T18:03:30Z</time>
      </trkpt>
      <trkpt lat="43.34965" lon="-1.77501">
        <ele>5.42</ele>
        <time>2021-07-05T18:03:43Z</time>
      </trkpt>
      <trkpt lat="43.34973" lon="-1.7735">
        <ele>0.62</ele>
        <time>2021-07-05T18:03:54Z</time>
      </trkpt>
      <trkpt lat="43.34987" lon="-1.77265">
        <ele>-0.34</ele>
        <time>2021-07-05T18:04:03Z</time>
      </trkpt>
      <trkpt lat="43.34988" lon="-1.77254">
        <ele>-0.34</ele>
        <time>2021-07-05T18:04:04Z</time>
      </trkpt>
      <trkpt lat="43.34987" lon="-1.77242">
        <ele>-0.34</ele>
        <time>2021-07-05T18:04:05Z</time>
      </trkpt>
      <trkpt lat="43.34985" lon="-1.7723">
        <ele>-0.34</ele>
        <time>2021-07-05T18:04:06Z</time>
      </trkpt>
      <trkpt lat="43.34982" lon="-1.77219">
        <ele>-0.34</ele>
        <time>2021-07-05T18:04:07Z</time>
      </trkpt>
      <trkpt lat="43.34977" lon="-1.77209">
        <ele>-0.34</ele>
        <time>2021-07-05T18:04:08Z</time>
      </trkpt>
      <trkpt lat="43.34923" lon="-1.77065">
        <ele>0.62</ele>
        <time>2021-07-05T18:04:22Z</time>
      </trkpt>
      <trkpt lat="43.34916" lon="-1.77043">
        <ele>1.1</ele>
        <time>2021-07-05T18:04:26Z</time>
      </trkpt>
      <trkpt lat="43.34916" lon="-1.77043">
        <ele>1.1</ele>
        <time>2021-07-05T18:04:27Z</time>
      </trkpt>
      <trkpt lat="43.34914" lon="-1.77038">
        <ele>0.62</ele>
        <time>2021-07-05T18:04:28Z</time>
      </trkpt>
      <trkpt lat="43.34912" lon="-1.77033">
        <ele>0.62</ele>
        <time>2021-07-05T18:04:29Z</time>
      </trkpt>
      <trkpt lat="43.3491" lon="-1.77029">
        <ele>0.62</ele>
        <time>2021-07-05T18:04:30Z</time>
      </trkpt>
      <trkpt lat="43.34907" lon="-1.77026">
        <ele>1.1</ele>
        <time>2021-07-05T18:04:31Z</time>
      </trkpt>
      <trkpt lat="43.34906" lon="-1.77018">
        <ele>1.58</ele>
        <time>2021-07-05T18:04:32Z</time>
      </trkpt>
      <trkpt lat="43.34907" lon="-1.77014">
        <ele>1.58</ele>
        <time>2021-07-05T18:04:33Z</time>
      </trkpt>
      <trkpt lat="43.34913" lon="-1.77004">
        <ele>1.58</ele>
        <time>2021-07-05T18:04:34Z</time>
      </trkpt>
      <trkpt lat="43.34913" lon="-1.77004">
        <ele>2.06</ele>
        <time>2021-07-05T18:04:35Z</time>
      </trkpt>
      <trkpt lat="43.34916" lon="-1.76998">
        <ele>2.06</ele>
        <time>2021-07-05T18:04:36Z</time>
      </trkpt>
      <trkpt lat="43.3492" lon="-1.76984">
        <ele>2.06</ele>
        <time>2021-07-05T18:04:37Z</time>
      </trkpt>
      <trkpt lat="43.3492" lon="-1.76977">
        <ele>2.06</ele>
        <time>2021-07-05T18:04:38Z</time>
      </trkpt>
      <trkpt lat="43.3492" lon="-1.76977">
        <ele>2.06</ele>
        <time>2021-07-05T18:04:39Z</time>
      </trkpt>
      <trkpt lat="43.3492" lon="-1.76968">
        <ele>2.06</ele>
        <time>2021-07-05T18:04:40Z</time>
      </trkpt>
      <trkpt lat="43.34917" lon="-1.76928">
        <ele>2.54</ele>
        <time>2021-07-05T18:04:46Z</time>
      </trkpt>
      <trkpt lat="43.34916" lon="-1.76922">
        <ele>2.54</ele>
        <time>2021-07-05T18:04:47Z</time>
      </trkpt>
      <trkpt lat="43.34912" lon="-1.76908">
        <ele>3.02</ele>
        <time>2021-07-05T18:04:48Z</time>
      </trkpt>
      <trkpt lat="43.3491" lon="-1.76902">
        <ele>3.5</ele>
        <time>2021-07-05T18:04:50Z</time>
      </trkpt>
      <trkpt lat="43.34907" lon="-1.76896">
        <ele>3.5</ele>
        <time>2021-07-05T18:04:51Z</time>
      </trkpt>
      <trkpt lat="43.34901" lon="-1.76861">
        <ele>4.46</ele>
        <time>2021-07-05T18:04:54Z</time>
      </trkpt>
      <trkpt lat="43.34901" lon="-1.76861">
        <ele>4.94</ele>
        <time>2021-07-05T18:04:55Z</time>
      </trkpt>
      <trkpt lat="43.34826" lon="-1.7672">
        <ele>3.5</ele>
        <time>2021-07-05T18:05:10Z</time>
      </trkpt>
      <trkpt lat="43.34755" lon="-1.76657">
        <ele>4.46</ele>
        <time>2021-07-05T18:05:19Z</time>
      </trkpt>
      <trkpt lat="43.34658" lon="-1.76569">
        <ele>7.83</ele>
        <time>2021-07-05T18:05:32Z</time>
      </trkpt>
      <trkpt lat="43.34642" lon="-1.76541">
        <ele>8.31</ele>
        <time>2021-07-05T18:05:34Z</time>
      </trkpt>
      <trkpt lat="43.34642" lon="-1.76541">
        <ele>8.79</ele>
        <time>2021-07-05T18:05:35Z</time>
      </trkpt>
      <trkpt lat="43.34638" lon="-1.76531">
        <ele>9.27</ele>
        <time>2021-07-05T18:05:36Z</time>
      </trkpt>
      <trkpt lat="43.34634" lon="-1.76523">
        <ele>9.27</ele>
        <time>2021-07-05T18:05:37Z</time>
      </trkpt>
      <trkpt lat="43.34631" lon="-1.76513">
        <ele>9.75</ele>
        <time>2021-07-05T18:05:38Z</time>
      </trkpt>
      <trkpt lat="43.34605" lon="-1.76414">
        <ele>13.6</ele>
        <time>2021-07-05T18:05:50Z</time>
      </trkpt>
      <trkpt lat="43.34604" lon="-1.7641">
        <ele>10.71</ele>
        <time>2021-07-05T18:06:02Z</time>
      </trkpt>
      <trkpt lat="43.34597" lon="-1.76381">
        <ele>9.75</ele>
        <time>2021-07-05T18:06:11Z</time>
      </trkpt>
      <trkpt lat="43.3458" lon="-1.76314">
        <ele>4.94</ele>
        <time>2021-07-05T18:06:24Z</time>
      </trkpt>
      <trkpt lat="43.34571" lon="-1.76275">
        <ele>2.54</ele>
        <time>2021-07-05T18:06:32Z</time>
      </trkpt>
      <trkpt lat="43.34571" lon="-1.76275">
        <ele>3.02</ele>
        <time>2021-07-05T18:06:33Z</time>
      </trkpt>
      <trkpt lat="43.34569" lon="-1.7627">
        <ele>3.02</ele>
        <time>2021-07-05T18:06:34Z</time>
      </trkpt>
      <trkpt lat="43.34565" lon="-1.76262">
        <ele>3.5</ele>
        <time>2021-07-05T18:06:35Z</time>
      </trkpt>
      <trkpt lat="43.34561" lon="-1.7626">
        <ele>3.98</ele>
        <time>2021-07-05T18:06:36Z</time>
      </trkpt>
      <trkpt lat="43.34554" lon="-1.76258">
        <ele>3.98</ele>
        <time>2021-07-05T18:06:37Z</time>
      </trkpt>
      <trkpt lat="43.34551" lon="-1.76257">
        <ele>4.46</ele>
        <time>2021-07-05T18:06:38Z</time>
      </trkpt>
      <trkpt lat="43.34551" lon="-1.76257">
        <ele>4.46</ele>
        <time>2021-07-05T18:06:39Z</time>
      </trkpt>
      <trkpt lat="43.34511" lon="-1.76204">
        <ele>4.94</ele>
        <time>2021-07-05T18:06:49Z</time>
      </trkpt>
      <trkpt lat="43.3447" lon="-1.76156">
        <ele>6.39</ele>
        <time>2021-07-05T18:06:56Z</time>
      </trkpt>
      <trkpt lat="43.34462" lon="-1.76145">
        <ele>6.39</ele>
        <time>2021-07-05T18:06:57Z</time>
      </trkpt>
      <trkpt lat="43.3445" lon="-1.76153">
        <ele>6.87</ele>
        <time>2021-07-05T18:06:59Z</time>
      </trkpt>
      <trkpt lat="43.34446" lon="-1.76149">
        <ele>6.87</ele>
        <time>2021-07-05T18:07:00Z</time>
      </trkpt>
      <trkpt lat="43.34442" lon="-1.76145">
        <ele>6.87</ele>
        <time>2021-07-05T18:07:01Z</time>
      </trkpt>
      <trkpt lat="43.34441" lon="-1.7613">
        <ele>6.87</ele>
        <time>2021-07-05T18:07:02Z</time>
      </trkpt>
      <trkpt lat="43.34441" lon="-1.7613">
        <ele>6.87</ele>
        <time>2021-07-05T18:07:03Z</time>
      </trkpt>
      <trkpt lat="43.34442" lon="-1.76128">
        <ele>6.87</ele>
        <time>2021-07-05T18:07:04Z</time>
      </trkpt>
      <trkpt lat="43.34446" lon="-1.76125">
        <ele>6.39</ele>
        <time>2021-07-05T18:07:05Z</time>
      </trkpt>
      <trkpt lat="43.34449" lon="-1.76123">
        <ele>5.42</ele>
        <time>2021-07-05T18:07:06Z</time>
      </trkpt>
      <trkpt lat="43.34456" lon="-1.76124">
        <ele>4.94</ele>
        <time>2021-07-05T18:07:07Z</time>
      </trkpt>
      <trkpt lat="43.3446" lon="-1.76129">
        <ele>4.46</ele>
        <time>2021-07-05T18:07:08Z</time>
      </trkpt>
      <trkpt lat="43.3446" lon="-1.76129">
        <ele>3.98</ele>
        <time>2021-07-05T18:07:09Z</time>
      </trkpt>
      <trkpt lat="43.34463" lon="-1.76131">
        <ele>3.98</ele>
        <time>2021-07-05T18:07:10Z</time>
      </trkpt>
      <trkpt lat="43.34463" lon="-1.76146">
        <ele>3.5</ele>
        <time>2021-07-05T18:07:11Z</time>
      </trkpt>
      <trkpt lat="43.34467" lon="-1.76151">
        <ele>3.5</ele>
        <time>2021-07-05T18:07:12Z</time>
      </trkpt>
      <trkpt lat="43.34471" lon="-1.76157">
        <ele>3.5</ele>
        <time>2021-07-05T18:07:13Z</time>
      </trkpt>
      <trkpt lat="43.34476" lon="-1.76162">
        <ele>3.02</ele>
        <time>2021-07-05T18:07:14Z</time>
      </trkpt>
      <trkpt lat="43.34484" lon="-1.76173">
        <ele>3.02</ele>
        <time>2021-07-05T18:07:15Z</time>
      </trkpt>
      <trkpt lat="43.34488" lon="-1.76177">
        <ele>2.54</ele>
        <time>2021-07-05T18:07:17Z</time>
      </trkpt>
      <trkpt lat="43.34495" lon="-1.76186">
        <ele>3.02</ele>
        <time>2021-07-05T18:07:18Z</time>
      </trkpt>
      <trkpt lat="43.34504" lon="-1.76196">
        <ele>3.02</ele>
        <time>2021-07-05T18:07:28Z</time>
      </trkpt>
      <trkpt lat="43.34504" lon="-1.76196">
        <ele>3.5</ele>
        <time>2021-07-05T18:09:08Z</time>
      </trkpt>
      <trkpt lat="43.34504" lon="-1.76196">
        <ele>3.5</ele>
        <time>2021-07-05T18:11:36Z</time>
      </trkpt>
      <trkpt lat="43.34504" lon="-1.76196">
        <ele>3.5</ele>
        <time>2021-07-05T18:12:05Z</time>
      </trkpt>
      <trkpt lat="43.34504" lon="-1.76196">
        <ele>3.5</ele>
        <time>2021-07-05T18:12:11Z</time>
      </trkpt>
      <trkpt lat="43.34507" lon="-1.762">
        <ele>3.98</ele>
        <time>2021-07-05T18:12:13Z</time>
      </trkpt>
      <trkpt lat="43.34522" lon="-1.76217">
        <ele>3.98</ele>
        <time>2021-07-05T18:12:28Z</time>
      </trkpt>
      <trkpt lat="43.34539" lon="-1.76235">
        <ele>3.98</ele>
        <time>2021-07-05T18:12:54Z</time>
      </trkpt>
      <trkpt lat="43.3455" lon="-1.76245">
        <ele>4.46</ele>
        <time>2021-07-05T18:13:01Z</time>
      </trkpt>
      <trkpt lat="43.34552" lon="-1.76247">
        <ele>4.46</ele>
        <time>2021-07-05T18:13:02Z</time>
      </trkpt>
      <trkpt lat="43.34563" lon="-1.7624">
        <ele>4.46</ele>
        <time>2021-07-05T18:13:04Z</time>
      </trkpt>
      <trkpt lat="43.34569" lon="-1.76245">
        <ele>4.46</ele>
        <time>2021-07-05T18:13:05Z</time>
      </trkpt>
      <trkpt lat="43.34569" lon="-1.7625">
        <ele>4.46</ele>
        <time>2021-07-05T18:13:06Z</time>
      </trkpt>
      <trkpt lat="43.3457" lon="-1.76254">
        <ele>3.98</ele>
        <time>2021-07-05T18:13:07Z</time>
      </trkpt>
      <trkpt lat="43.34568" lon="-1.76259">
        <ele>3.5</ele>
        <time>2021-07-05T18:13:08Z</time>
      </trkpt>
      <trkpt lat="43.34563" lon="-1.76261">
        <ele>3.02</ele>
        <time>2021-07-05T18:13:09Z</time>
      </trkpt>
      <trkpt lat="43.34563" lon="-1.76261">
        <ele>2.54</ele>
        <time>2021-07-05T18:13:10Z</time>
      </trkpt>
      <trkpt lat="43.34555" lon="-1.76258">
        <ele>2.54</ele>
        <time>2021-07-05T18:13:11Z</time>
      </trkpt>
      <trkpt lat="43.34555" lon="-1.76258">
        <ele>2.06</ele>
        <time>2021-07-05T18:13:12Z</time>
      </trkpt>
      <trkpt lat="43.34551" lon="-1.76257">
        <ele>2.54</ele>
        <time>2021-07-05T18:13:13Z</time>
      </trkpt>
      <trkpt lat="43.34499" lon="-1.76191">
        <ele>2.06</ele>
        <time>2021-07-05T18:13:24Z</time>
      </trkpt>
      <trkpt lat="43.34466" lon="-1.7615">
        <ele>3.02</ele>
        <time>2021-07-05T18:13:33Z</time>
      </trkpt>
      <trkpt lat="43.34447" lon="-1.7615">
        <ele>3.02</ele>
        <time>2021-07-05T18:13:35Z</time>
      </trkpt>
      <trkpt lat="43.34447" lon="-1.7615">
        <ele>3.02</ele>
        <time>2021-07-05T18:13:36Z</time>
      </trkpt>
      <trkpt lat="43.34444" lon="-1.76147">
        <ele>3.5</ele>
        <time>2021-07-05T18:13:37Z</time>
      </trkpt>
      <trkpt lat="43.34441" lon="-1.76139">
        <ele>3.5</ele>
        <time>2021-07-05T18:13:38Z</time>
      </trkpt>
      <trkpt lat="43.34441" lon="-1.76133">
        <ele>3.5</ele>
        <time>2021-07-05T18:13:39Z</time>
      </trkpt>
      <trkpt lat="43.34441" lon="-1.76129">
        <ele>3.5</ele>
        <time>2021-07-05T18:13:40Z</time>
      </trkpt>
      <trkpt lat="43.34446" lon="-1.76125">
        <ele>3.5</ele>
        <time>2021-07-05T18:13:41Z</time>
      </trkpt>
      <trkpt lat="43.34452" lon="-1.76116">
        <ele>3.02</ele>
        <time>2021-07-05T18:13:42Z</time>
      </trkpt>
      <trkpt lat="43.34452" lon="-1.7611">
        <ele>3.02</ele>
        <time>2021-07-05T18:13:43Z</time>
      </trkpt>
      <trkpt lat="43.34451" lon="-1.76103">
        <ele>2.54</ele>
        <time>2021-07-05T18:13:44Z</time>
      </trkpt>
      <trkpt lat="43.34451" lon="-1.76095">
        <ele>2.06</ele>
        <time>2021-07-05T18:13:45Z</time>
      </trkpt>
      <trkpt lat="43.34451" lon="-1.76086">
        <ele>1.58</ele>
        <time>2021-07-05T18:13:46Z</time>
      </trkpt>
      <trkpt lat="43.34448" lon="-1.75953">
        <ele>-1.79</ele>
        <time>2021-07-05T18:13:56Z</time>
      </trkpt>
      <trkpt lat="43.34456" lon="-1.7585">
        <ele>-0.34</ele>
        <time>2021-07-05T18:14:04Z</time>
      </trkpt>
      <trkpt lat="43.34456" lon="-1.75838">
        <ele>-0.34</ele>
        <time>2021-07-05T18:14:05Z</time>
      </trkpt>
      <trkpt lat="43.34454" lon="-1.75826">
        <ele>-0.82</ele>
        <time>2021-07-05T18:14:06Z</time>
      </trkpt>
      <trkpt lat="43.34453" lon="-1.75812">
        <ele>-0.82</ele>
        <time>2021-07-05T18:14:07Z</time>
      </trkpt>
      <trkpt lat="43.34451" lon="-1.75798">
        <ele>-0.82</ele>
        <time>2021-07-05T18:14:08Z</time>
      </trkpt>
      <trkpt lat="43.34448" lon="-1.75785">
        <ele>-1.3</ele>
        <time>2021-07-05T18:14:09Z</time>
      </trkpt>
      <trkpt lat="43.34444" lon="-1.75773">
        <ele>-1.3</ele>
        <time>2021-07-05T18:14:10Z</time>
      </trkpt>
      <trkpt lat="43.3444" lon="-1.75761">
        <ele>-1.3</ele>
        <time>2021-07-05T18:14:11Z</time>
      </trkpt>
      <trkpt lat="43.34374" lon="-1.7562">
        <ele>2.06</ele>
        <time>2021-07-05T18:14:22Z</time>
      </trkpt>
      <trkpt lat="43.34234" lon="-1.75404">
        <ele>0.14</ele>
        <time>2021-07-05T18:14:40Z</time>
      </trkpt>
      <trkpt lat="43.34133" lon="-1.75274">
        <ele>-0.82</ele>
        <time>2021-07-05T18:14:53Z</time>
      </trkpt>
      <trkpt lat="43.34075" lon="-1.7522">
        <ele>0.14</ele>
        <time>2021-07-05T18:15:01Z</time>
      </trkpt>
      <trkpt lat="43.34043" lon="-1.75218">
        <ele>0.14</ele>
        <time>2021-07-05T18:15:05Z</time>
      </trkpt>
      <trkpt lat="43.34035" lon="-1.75218">
        <ele>0.14</ele>
        <time>2021-07-05T18:15:06Z</time>
      </trkpt>
      <trkpt lat="43.33983" lon="-1.75214">
        <ele>0.14</ele>
        <time>2021-07-05T18:15:13Z</time>
      </trkpt>
      <trkpt lat="43.33977" lon="-1.7521">
        <ele>0.14</ele>
        <time>2021-07-05T18:15:14Z</time>
      </trkpt>
      <trkpt lat="43.3397" lon="-1.75205">
        <ele>0.14</ele>
        <time>2021-07-05T18:15:15Z</time>
      </trkpt>
      <trkpt lat="43.33964" lon="-1.752">
        <ele>0.14</ele>
        <time>2021-07-05T18:15:16Z</time>
      </trkpt>
      <trkpt lat="43.33959" lon="-1.75194">
        <ele>0.14</ele>
        <time>2021-07-05T18:15:17Z</time>
      </trkpt>
      <trkpt lat="43.33954" lon="-1.75187">
        <ele>0.62</ele>
        <time>2021-07-05T18:15:18Z</time>
      </trkpt>
      <trkpt lat="43.3395" lon="-1.7518">
        <ele>0.62</ele>
        <time>2021-07-05T18:15:19Z</time>
      </trkpt>
      <trkpt lat="43.3395" lon="-1.75171">
        <ele>0.62</ele>
        <time>2021-07-05T18:15:20Z</time>
      </trkpt>
      <trkpt lat="43.3395" lon="-1.75162">
        <ele>1.1</ele>
        <time>2021-07-05T18:15:21Z</time>
      </trkpt>
      <trkpt lat="43.3395" lon="-1.75148">
        <ele>1.1</ele>
        <time>2021-07-05T18:15:22Z</time>
      </trkpt>
      <trkpt lat="43.3395" lon="-1.75148">
        <ele>1.1</ele>
        <time>2021-07-05T18:15:23Z</time>
      </trkpt>
      <trkpt lat="43.3394" lon="-1.75137">
        <ele>1.1</ele>
        <time>2021-07-05T18:15:24Z</time>
      </trkpt>
      <trkpt lat="43.3394" lon="-1.75137">
        <ele>1.1</ele>
        <time>2021-07-05T18:15:25Z</time>
      </trkpt>
      <trkpt lat="43.33937" lon="-1.75129">
        <ele>1.58</ele>
        <time>2021-07-05T18:15:26Z</time>
      </trkpt>
      <trkpt lat="43.33938" lon="-1.75123">
        <ele>1.58</ele>
        <time>2021-07-05T18:15:27Z</time>
      </trkpt>
      <trkpt lat="43.33944" lon="-1.75119">
        <ele>1.58</ele>
        <time>2021-07-05T18:15:28Z</time>
      </trkpt>
      <trkpt lat="43.33948" lon="-1.75118">
        <ele>2.06</ele>
        <time>2021-07-05T18:15:29Z</time>
      </trkpt>
      <trkpt lat="43.33952" lon="-1.75116">
        <ele>2.54</ele>
        <time>2021-07-05T18:15:30Z</time>
      </trkpt>
      <trkpt lat="43.33952" lon="-1.75116">
        <ele>2.54</ele>
        <time>2021-07-05T18:15:31Z</time>
      </trkpt>
      <trkpt lat="43.33962" lon="-1.75119">
        <ele>2.54</ele>
        <time>2021-07-05T18:15:32Z</time>
      </trkpt>
      <trkpt lat="43.33966" lon="-1.75115">
        <ele>3.5</ele>
        <time>2021-07-05T18:15:33Z</time>
      </trkpt>
      <trkpt lat="43.33971" lon="-1.7511">
        <ele>5.42</ele>
        <time>2021-07-05T18:15:34Z</time>
      </trkpt>
      <trkpt lat="43.33975" lon="-1.75106">
        <ele>6.39</ele>
        <time>2021-07-05T18:15:35Z</time>
      </trkpt>
      <trkpt lat="43.33978" lon="-1.75097">
        <ele>6.87</ele>
        <time>2021-07-05T18:15:36Z</time>
      </trkpt>
      <trkpt lat="43.33981" lon="-1.75089">
        <ele>5.91</ele>
        <time>2021-07-05T18:15:37Z</time>
      </trkpt>
      <trkpt lat="43.33991" lon="-1.75053">
        <ele>6.87</ele>
        <time>2021-07-05T18:15:41Z</time>
      </trkpt>
      <trkpt lat="43.33993" lon="-1.75046">
        <ele>6.87</ele>
        <time>2021-07-05T18:15:42Z</time>
      </trkpt>
      <trkpt lat="43.33996" lon="-1.75039">
        <ele>6.87</ele>
        <time>2021-07-05T18:15:43Z</time>
      </trkpt>
      <trkpt lat="43.33999" lon="-1.75013">
        <ele>7.35</ele>
        <time>2021-07-05T18:15:47Z</time>
      </trkpt>
      <trkpt lat="43.34003" lon="-1.75008">
        <ele>7.35</ele>
        <time>2021-07-05T18:15:48Z</time>
      </trkpt>
      <trkpt lat="43.34006" lon="-1.75005">
        <ele>7.83</ele>
        <time>2021-07-05T18:15:49Z</time>
      </trkpt>
      <trkpt lat="43.3401" lon="-1.75003">
        <ele>7.83</ele>
        <time>2021-07-05T18:15:50Z</time>
      </trkpt>
      <trkpt lat="43.34013" lon="-1.75005">
        <ele>7.35</ele>
        <time>2021-07-05T18:15:51Z</time>
      </trkpt>
      <trkpt lat="43.34016" lon="-1.75007">
        <ele>7.35</ele>
        <time>2021-07-05T18:15:52Z</time>
      </trkpt>
      <trkpt lat="43.3404" lon="-1.74998">
        <ele>7.83</ele>
        <time>2021-07-05T18:16:00Z</time>
      </trkpt>
      <trkpt lat="43.34046" lon="-1.74992">
        <ele>7.83</ele>
        <time>2021-07-05T18:16:01Z</time>
      </trkpt>
      <trkpt lat="43.34046" lon="-1.74992">
        <ele>7.35</ele>
        <time>2021-07-05T18:16:02Z</time>
      </trkpt>
      <trkpt lat="43.34079" lon="-1.74944">
        <ele>6.87</ele>
        <time>2021-07-05T18:16:16Z</time>
      </trkpt>
      <trkpt lat="43.3409" lon="-1.74922">
        <ele>5.42</ele>
        <time>2021-07-05T18:16:29Z</time>
      </trkpt>
      <trkpt lat="43.34113" lon="-1.74867">
        <ele>7.35</ele>
        <time>2021-07-05T18:16:39Z</time>
      </trkpt>
      <trkpt lat="43.3413" lon="-1.74827">
        <ele>8.79</ele>
        <time>2021-07-05T18:16:43Z</time>
      </trkpt>
      <trkpt lat="43.34141" lon="-1.74713">
        <ele>9.75</ele>
        <time>2021-07-05T18:16:53Z</time>
      </trkpt>
      <trkpt lat="43.34128" lon="-1.74493">
        <ele>13.6</ele>
        <time>2021-07-05T18:17:08Z</time>
      </trkpt>
      <trkpt lat="43.34109" lon="-1.74237">
        <ele>26.57</ele>
        <time>2021-07-05T18:17:22Z</time>
      </trkpt>
      <trkpt lat="43.34089" lon="-1.73939">
        <ele>41.95</ele>
        <time>2021-07-05T18:17:34Z</time>
      </trkpt>
      <trkpt lat="43.34089" lon="-1.73621">
        <ele>56.86</ele>
        <time>2021-07-05T18:17:46Z</time>
      </trkpt>
      <trkpt lat="43.34101" lon="-1.73132">
        <ele>79.45</ele>
        <time>2021-07-05T18:18:03Z</time>
      </trkpt>
      <trkpt lat="43.34137" lon="-1.72953">
        <ele>88.1</ele>
        <time>2021-07-05T18:18:11Z</time>
      </trkpt>
      <trkpt lat="43.34235" lon="-1.72668">
        <ele>89.54</ele>
        <time>2021-07-05T18:18:22Z</time>
      </trkpt>
      <trkpt lat="43.3438" lon="-1.72386">
        <ele>80.41</ele>
        <time>2021-07-05T18:18:33Z</time>
      </trkpt>
      <trkpt lat="43.3452" lon="-1.72251">
        <ele>76.08</ele>
        <time>2021-07-05T18:18:40Z</time>
      </trkpt>
      <trkpt lat="43.34769" lon="-1.7202">
        <ele>64.55</ele>
        <time>2021-07-05T18:18:51Z</time>
      </trkpt>
      <trkpt lat="43.34956" lon="-1.71816">
        <ele>57.34</ele>
        <time>2021-07-05T18:19:01Z</time>
      </trkpt>
      <trkpt lat="43.35074" lon="-1.71769">
        <ele>51.57</ele>
        <time>2021-07-05T18:19:07Z</time>
      </trkpt>
      <trkpt lat="43.35314" lon="-1.71758">
        <ele>41.47</ele>
        <time>2021-07-05T18:19:17Z</time>
      </trkpt>
      <trkpt lat="43.35475" lon="-1.71717">
        <ele>33.78</ele>
        <time>2021-07-05T18:19:24Z</time>
      </trkpt>
      <trkpt lat="43.35597" lon="-1.71624">
        <ele>34.74</ele>
        <time>2021-07-05T18:19:30Z</time>
      </trkpt>
      <trkpt lat="43.35711" lon="-1.71464">
        <ele>27.53</ele>
        <time>2021-07-05T18:19:37Z</time>
      </trkpt>
      <trkpt lat="43.35782" lon="-1.71261">
        <ele>27.05</ele>
        <time>2021-07-05T18:19:44Z</time>
      </trkpt>
      <trkpt lat="43.35846" lon="-1.70882">
        <ele>22.25</ele>
        <time>2021-07-05T18:19:56Z</time>
      </trkpt>
      <trkpt lat="43.35841" lon="-1.70522">
        <ele>17.92</ele>
        <time>2021-07-05T18:20:07Z</time>
      </trkpt>
      <trkpt lat="43.35854" lon="-1.70198">
        <ele>13.12</ele>
        <time>2021-07-05T18:20:17Z</time>
      </trkpt>
      <trkpt lat="43.35919" lon="-1.69875">
        <ele>10.71</ele>
        <time>2021-07-05T18:20:27Z</time>
      </trkpt>
      <trkpt lat="43.36047" lon="-1.69537">
        <ele>10.23</ele>
        <time>2021-07-05T18:20:38Z</time>
      </trkpt>
      <trkpt lat="43.36224" lon="-1.69205">
        <ele>14.08</ele>
        <time>2021-07-05T18:20:50Z</time>
      </trkpt>
      <trkpt lat="43.36465" lon="-1.68869">
        <ele>16</ele>
        <time>2021-07-05T18:21:04Z</time>
      </trkpt>
      <trkpt lat="43.36788" lon="-1.68424">
        <ele>12.63</ele>
        <time>2021-07-05T18:21:22Z</time>
      </trkpt>
      <trkpt lat="43.3703" lon="-1.68014">
        <ele>13.12</ele>
        <time>2021-07-05T18:21:37Z</time>
      </trkpt>
      <trkpt lat="43.37182" lon="-1.67647">
        <ele>22.73</ele>
        <time>2021-07-05T18:21:49Z</time>
      </trkpt>
      <trkpt lat="43.37414" lon="-1.66991">
        <ele>27.05</ele>
        <time>2021-07-05T18:22:10Z</time>
      </trkpt>
      <trkpt lat="43.37475" lon="-1.66728">
        <ele>23.69</ele>
        <time>2021-07-05T18:22:18Z</time>
      </trkpt>
      <trkpt lat="43.37482" lon="-1.66443">
        <ele>21.29</ele>
        <time>2021-07-05T18:22:26Z</time>
      </trkpt>
      <trkpt lat="43.37436" lon="-1.66167">
        <ele>22.25</ele>
        <time>2021-07-05T18:22:34Z</time>
      </trkpt>
      <trkpt lat="43.37352" lon="-1.65788">
        <ele>23.69</ele>
        <time>2021-07-05T18:22:46Z</time>
      </trkpt>
      <trkpt lat="43.37346" lon="-1.65523">
        <ele>15.04</ele>
        <time>2021-07-05T18:22:54Z</time>
      </trkpt>
      <trkpt lat="43.37392" lon="-1.65263">
        <ele>7.83</ele>
        <time>2021-07-05T18:23:02Z</time>
      </trkpt>
      <trkpt lat="43.37476" lon="-1.65052">
        <ele>1.58</ele>
        <time>2021-07-05T18:23:09Z</time>
      </trkpt>
      <trkpt lat="43.3761" lon="-1.64852">
        <ele>1.58</ele>
        <time>2021-07-05T18:23:17Z</time>
      </trkpt>
      <trkpt lat="43.37866" lon="-1.64593">
        <ele>1.58</ele>
        <time>2021-07-05T18:23:29Z</time>
      </trkpt>
      <trkpt lat="43.38069" lon="-1.64471">
        <ele>3.5</ele>
        <time>2021-07-05T18:23:39Z</time>
      </trkpt>
      <trkpt lat="43.38352" lon="-1.64371">
        <ele>10.23</ele>
        <time>2021-07-05T18:23:51Z</time>
      </trkpt>
      <trkpt lat="43.38601" lon="-1.64245">
        <ele>20.81</ele>
        <time>2021-07-05T18:24:02Z</time>
      </trkpt>
      <trkpt lat="43.38928" lon="-1.64047">
        <ele>37.63</ele>
        <time>2021-07-05T18:24:17Z</time>
      </trkpt>
      <trkpt lat="43.39228" lon="-1.63824">
        <ele>47.24</ele>
        <time>2021-07-05T18:24:31Z</time>
      </trkpt>
      <trkpt lat="43.39471" lon="-1.6373">
        <ele>43.88</ele>
        <time>2021-07-05T18:24:40Z</time>
      </trkpt>
      <trkpt lat="43.39755" lon="-1.63694">
        <ele>32.34</ele>
        <time>2021-07-05T18:24:52Z</time>
      </trkpt>
      <trkpt lat="43.39972" lon="-1.63612">
        <ele>23.69</ele>
        <time>2021-07-05T18:25:01Z</time>
      </trkpt>
      <trkpt lat="43.4016" lon="-1.63463">
        <ele>19.36</ele>
        <time>2021-07-05T18:25:10Z</time>
      </trkpt>
      <trkpt lat="43.40342" lon="-1.63248">
        <ele>11.19</ele>
        <time>2021-07-05T18:25:20Z</time>
      </trkpt>
      <trkpt lat="43.4052" lon="-1.62958">
        <ele>11.19</ele>
        <time>2021-07-05T18:25:31Z</time>
      </trkpt>
      <trkpt lat="43.40752" lon="-1.62498">
        <ele>17.92</ele>
        <time>2021-07-05T18:25:47Z</time>
      </trkpt>
      <trkpt lat="43.40919" lon="-1.62231">
        <ele>23.69</ele>
        <time>2021-07-05T18:25:58Z</time>
      </trkpt>
      <trkpt lat="43.41046" lon="-1.61989">
        <ele>30.9</ele>
        <time>2021-07-05T18:26:07Z</time>
      </trkpt>
      <trkpt lat="43.4119" lon="-1.61625">
        <ele>39.55</ele>
        <time>2021-07-05T18:26:19Z</time>
      </trkpt>
      <trkpt lat="43.41339" lon="-1.61386">
        <ele>36.19</ele>
        <time>2021-07-05T18:26:28Z</time>
      </trkpt>
      <trkpt lat="43.41501" lon="-1.61102">
        <ele>31.86</ele>
        <time>2021-07-05T18:26:38Z</time>
      </trkpt>
      <trkpt lat="43.41587" lon="-1.60804">
        <ele>36.67</ele>
        <time>2021-07-05T18:26:47Z</time>
      </trkpt>
      <trkpt lat="43.41679" lon="-1.60532">
        <ele>47.24</ele>
        <time>2021-07-05T18:26:56Z</time>
      </trkpt>
      <trkpt lat="43.41841" lon="-1.6025">
        <ele>47.72</ele>
        <time>2021-07-05T18:27:07Z</time>
      </trkpt>
      <trkpt lat="43.41989" lon="-1.60059">
        <ele>45.32</ele>
        <time>2021-07-05T18:27:15Z</time>
      </trkpt>
      <trkpt lat="43.42284" lon="-1.5973">
        <ele>34.26</ele>
        <time>2021-07-05T18:27:30Z</time>
      </trkpt>
      <trkpt lat="43.42462" lon="-1.59443">
        <ele>25.61</ele>
        <time>2021-07-05T18:27:41Z</time>
      </trkpt>
      <trkpt lat="43.42719" lon="-1.5896">
        <ele>12.63</ele>
        <time>2021-07-05T18:27:58Z</time>
      </trkpt>
      <trkpt lat="43.42929" lon="-1.58651">
        <ele>6.87</ele>
        <time>2021-07-05T18:28:09Z</time>
      </trkpt>
      <trkpt lat="43.4303" lon="-1.58423">
        <ele>7.35</ele>
        <time>2021-07-05T18:28:18Z</time>
      </trkpt>
      <trkpt lat="43.43144" lon="-1.58003">
        <ele>6.39</ele>
        <time>2021-07-05T18:28:31Z</time>
      </trkpt>
      <trkpt lat="43.43262" lon="-1.57629">
        <ele>7.35</ele>
        <time>2021-07-05T18:28:45Z</time>
      </trkpt>
      <trkpt lat="43.43381" lon="-1.57424">
        <ele>10.71</ele>
        <time>2021-07-05T18:28:53Z</time>
      </trkpt>
      <trkpt lat="43.43548" lon="-1.57253">
        <ele>13.12</ele>
        <time>2021-07-05T18:29:01Z</time>
      </trkpt>
      <trkpt lat="43.43808" lon="-1.57055">
        <ele>16.48</ele>
        <time>2021-07-05T18:29:12Z</time>
      </trkpt>
      <trkpt lat="43.44043" lon="-1.56825">
        <ele>20.32</ele>
        <time>2021-07-05T18:29:23Z</time>
      </trkpt>
      <trkpt lat="43.44249" lon="-1.56696">
        <ele>25.13</ele>
        <time>2021-07-05T18:29:32Z</time>
      </trkpt>
      <trkpt lat="43.44491" lon="-1.56543">
        <ele>31.86</ele>
        <time>2021-07-05T18:29:42Z</time>
      </trkpt>
      <trkpt lat="43.44648" lon="-1.56362">
        <ele>39.07</ele>
        <time>2021-07-05T18:29:51Z</time>
      </trkpt>
      <trkpt lat="43.4476" lon="-1.56169">
        <ele>44.36</ele>
        <time>2021-07-05T18:30:00Z</time>
      </trkpt>
      <trkpt lat="43.44841" lon="-1.55922">
        <ele>52.05</ele>
        <time>2021-07-05T18:30:09Z</time>
      </trkpt>
      <trkpt lat="43.44861" lon="-1.55693">
        <ele>57.34</ele>
        <time>2021-07-05T18:30:17Z</time>
      </trkpt>
      <trkpt lat="43.4485" lon="-1.55538">
        <ele>62.14</ele>
        <time>2021-07-05T18:30:25Z</time>
      </trkpt>
      <trkpt lat="43.44818" lon="-1.55415">
        <ele>65.51</ele>
        <time>2021-07-05T18:30:35Z</time>
      </trkpt>
      <trkpt lat="43.44747" lon="-1.55291">
        <ele>63.1</ele>
        <time>2021-07-05T18:30:47Z</time>
      </trkpt>
      <trkpt lat="43.44737" lon="-1.55271">
        <ele>61.66</ele>
        <time>2021-07-05T18:30:49Z</time>
      </trkpt>
      <trkpt lat="43.44732" lon="-1.5526">
        <ele>61.18</ele>
        <time>2021-07-05T18:30:50Z</time>
      </trkpt>
      <trkpt lat="43.4473" lon="-1.55248">
        <ele>59.74</ele>
        <time>2021-07-05T18:30:51Z</time>
      </trkpt>
      <trkpt lat="43.44727" lon="-1.55234">
        <ele>59.26</ele>
        <time>2021-07-05T18:30:52Z</time>
      </trkpt>
      <trkpt lat="43.44726" lon="-1.55222">
        <ele>58.3</ele>
        <time>2021-07-05T18:30:53Z</time>
      </trkpt>
      <trkpt lat="43.44726" lon="-1.55207">
        <ele>58.3</ele>
        <time>2021-07-05T18:30:54Z</time>
      </trkpt>
      <trkpt lat="43.44729" lon="-1.55197">
        <ele>57.82</ele>
        <time>2021-07-05T18:30:55Z</time>
      </trkpt>
      <trkpt lat="43.44734" lon="-1.55185">
        <ele>57.82</ele>
        <time>2021-07-05T18:30:56Z</time>
      </trkpt>
      <trkpt lat="43.4474" lon="-1.55172">
        <ele>57.34</ele>
        <time>2021-07-05T18:30:57Z</time>
      </trkpt>
      <trkpt lat="43.44745" lon="-1.5516">
        <ele>57.34</ele>
        <time>2021-07-05T18:30:58Z</time>
      </trkpt>
      <trkpt lat="43.44751" lon="-1.55148">
        <ele>56.86</ele>
        <time>2021-07-05T18:30:59Z</time>
      </trkpt>
      <trkpt lat="43.4477" lon="-1.55127">
        <ele>55.41</ele>
        <time>2021-07-05T18:31:00Z</time>
      </trkpt>
      <trkpt lat="43.4477" lon="-1.55127">
        <ele>54.93</ele>
        <time>2021-07-05T18:31:01Z</time>
      </trkpt>
      <trkpt lat="43.44793" lon="-1.5511">
        <ele>54.93</ele>
        <time>2021-07-05T18:31:02Z</time>
      </trkpt>
      <trkpt lat="43.44793" lon="-1.5511">
        <ele>53.97</ele>
        <time>2021-07-05T18:31:03Z</time>
      </trkpt>
      <trkpt lat="43.44821" lon="-1.55099">
        <ele>53.49</ele>
        <time>2021-07-05T18:31:04Z</time>
      </trkpt>
      <trkpt lat="43.44857" lon="-1.55101">
        <ele>53.97</ele>
        <time>2021-07-05T18:31:07Z</time>
      </trkpt>
      <trkpt lat="43.44857" lon="-1.55101">
        <ele>54.45</ele>
        <time>2021-07-05T18:31:08Z</time>
      </trkpt>
      <trkpt lat="43.4487" lon="-1.55108">
        <ele>54.45</ele>
        <time>2021-07-05T18:31:09Z</time>
      </trkpt>
      <trkpt lat="43.44884" lon="-1.55115">
        <ele>54.93</ele>
        <time>2021-07-05T18:31:10Z</time>
      </trkpt>
      <trkpt lat="43.44893" lon="-1.55123">
        <ele>56.86</ele>
        <time>2021-07-05T18:31:11Z</time>
      </trkpt>
      <trkpt lat="43.44903" lon="-1.55139">
        <ele>58.3</ele>
        <time>2021-07-05T18:31:12Z</time>
      </trkpt>
      <trkpt lat="43.44913" lon="-1.55154">
        <ele>58.78</ele>
        <time>2021-07-05T18:31:13Z</time>
      </trkpt>
      <trkpt lat="43.44928" lon="-1.55173">
        <ele>59.26</ele>
        <time>2021-07-05T18:31:14Z</time>
      </trkpt>
      <trkpt lat="43.45012" lon="-1.55367">
        <ele>64.55</ele>
        <time>2021-07-05T18:31:27Z</time>
      </trkpt>
      <trkpt lat="43.45035" lon="-1.5545">
        <ele>65.51</ele>
        <time>2021-07-05T18:31:35Z</time>
      </trkpt>
      <trkpt lat="43.45041" lon="-1.55469">
        <ele>63.58</ele>
        <time>2021-07-05T18:31:44Z</time>
      </trkpt>
      <trkpt lat="43.45043" lon="-1.55475">
        <ele>63.58</ele>
        <time>2021-07-05T18:31:46Z</time>
      </trkpt>
      <trkpt lat="43.45044" lon="-1.55481">
        <ele>63.58</ele>
        <time>2021-07-05T18:31:47Z</time>
      </trkpt>
      <trkpt lat="43.45046" lon="-1.55488">
        <ele>64.07</ele>
        <time>2021-07-05T18:31:48Z</time>
      </trkpt>
      <trkpt lat="43.45068" lon="-1.55585">
        <ele>67.91</ele>
        <time>2021-07-05T18:31:58Z</time>
      </trkpt>
      <trkpt lat="43.45077" lon="-1.55602">
        <ele>68.39</ele>
        <time>2021-07-05T18:32:01Z</time>
      </trkpt>
      <trkpt lat="43.4508" lon="-1.55608">
        <ele>68.87</ele>
        <time>2021-07-05T18:32:02Z</time>
      </trkpt>
      <trkpt lat="43.45084" lon="-1.55613">
        <ele>68.87</ele>
        <time>2021-07-05T18:32:03Z</time>
      </trkpt>
      <trkpt lat="43.45088" lon="-1.55619">
        <ele>68.87</ele>
        <time>2021-07-05T18:32:04Z</time>
      </trkpt>
      <trkpt lat="43.45092" lon="-1.55625">
        <ele>69.35</ele>
        <time>2021-07-05T18:32:05Z</time>
      </trkpt>
      <trkpt lat="43.45096" lon="-1.55629">
        <ele>69.35</ele>
        <time>2021-07-05T18:32:06Z</time>
      </trkpt>
      <trkpt lat="43.45101" lon="-1.55635">
        <ele>69.83</ele>
        <time>2021-07-05T18:32:07Z</time>
      </trkpt>
      <trkpt lat="43.45107" lon="-1.55643">
        <ele>70.31</ele>
        <time>2021-07-05T18:32:08Z</time>
      </trkpt>
      <trkpt lat="43.45111" lon="-1.5566">
        <ele>70.79</ele>
        <time>2021-07-05T18:32:09Z</time>
      </trkpt>
      <trkpt lat="43.4511" lon="-1.55667">
        <ele>71.27</ele>
        <time>2021-07-05T18:32:10Z</time>
      </trkpt>
      <trkpt lat="43.4511" lon="-1.55667">
        <ele>71.27</ele>
        <time>2021-07-05T18:32:11Z</time>
      </trkpt>
      <trkpt lat="43.45108" lon="-1.55682">
        <ele>71.27</ele>
        <time>2021-07-05T18:32:12Z</time>
      </trkpt>
      <trkpt lat="43.45105" lon="-1.55693">
        <ele>71.76</ele>
        <time>2021-07-05T18:32:13Z</time>
      </trkpt>
      <trkpt lat="43.45105" lon="-1.55693">
        <ele>72.72</ele>
        <time>2021-07-05T18:32:14Z</time>
      </trkpt>
      <trkpt lat="43.45101" lon="-1.55708">
        <ele>73.68</ele>
        <time>2021-07-05T18:32:15Z</time>
      </trkpt>
      <trkpt lat="43.45097" lon="-1.55693">
        <ele>74.16</ele>
        <time>2021-07-05T18:32:16Z</time>
      </trkpt>
      <trkpt lat="43.45095" lon="-1.55716">
        <ele>74.16</ele>
        <time>2021-07-05T18:32:17Z</time>
      </trkpt>
      <trkpt lat="43.45091" lon="-1.55723">
        <ele>73.68</ele>
        <time>2021-07-05T18:32:18Z</time>
      </trkpt>
      <trkpt lat="43.45075" lon="-1.55719">
        <ele>73.2</ele>
        <time>2021-07-05T18:32:19Z</time>
      </trkpt>
      <trkpt lat="43.45072" lon="-1.5573">
        <ele>73.2</ele>
        <time>2021-07-05T18:32:20Z</time>
      </trkpt>
      <trkpt lat="43.45033" lon="-1.55868">
        <ele>69.83</ele>
        <time>2021-07-05T18:32:29Z</time>
      </trkpt>
      <trkpt lat="43.45" lon="-1.56003">
        <ele>67.43</ele>
        <time>2021-07-05T18:32:37Z</time>
      </trkpt>
      <trkpt lat="43.44998" lon="-1.56019">
        <ele>67.43</ele>
        <time>2021-07-05T18:32:38Z</time>
      </trkpt>
      <trkpt lat="43.44995" lon="-1.56036">
        <ele>67.43</ele>
        <time>2021-07-05T18:32:39Z</time>
      </trkpt>
      <trkpt lat="43.44995" lon="-1.56053">
        <ele>66.95</ele>
        <time>2021-07-05T18:32:40Z</time>
      </trkpt>
      <trkpt lat="43.44996" lon="-1.56071">
        <ele>66.95</ele>
        <time>2021-07-05T18:32:41Z</time>
      </trkpt>
      <trkpt lat="43.45" lon="-1.56089">
        <ele>66.47</ele>
        <time>2021-07-05T18:32:42Z</time>
      </trkpt>
      <trkpt lat="43.45003" lon="-1.56107">
        <ele>66.47</ele>
        <time>2021-07-05T18:32:43Z</time>
      </trkpt>
      <trkpt lat="43.45079" lon="-1.56495">
        <ele>58.3</ele>
        <time>2021-07-05T18:33:04Z</time>
      </trkpt>
      <trkpt lat="43.45093" lon="-1.56606">
        <ele>56.86</ele>
        <time>2021-07-05T18:33:12Z</time>
      </trkpt>
      <trkpt lat="43.45093" lon="-1.56624">
        <ele>57.34</ele>
        <time>2021-07-05T18:33:13Z</time>
      </trkpt>
      <trkpt lat="43.45091" lon="-1.56659">
        <ele>58.78</ele>
        <time>2021-07-05T18:33:14Z</time>
      </trkpt>
      <trkpt lat="43.45091" lon="-1.56659">
        <ele>60.22</ele>
        <time>2021-07-05T18:33:15Z</time>
      </trkpt>
      <trkpt lat="43.45081" lon="-1.56697">
        <ele>61.66</ele>
        <time>2021-07-05T18:33:16Z</time>
      </trkpt>
      <trkpt lat="43.45081" lon="-1.56697">
        <ele>63.1</ele>
        <time>2021-07-05T18:33:17Z</time>
      </trkpt>
      <trkpt lat="43.45074" lon="-1.56713">
        <ele>63.58</ele>
        <time>2021-07-05T18:33:18Z</time>
      </trkpt>
      <trkpt lat="43.45058" lon="-1.56747">
        <ele>63.1</ele>
        <time>2021-07-05T18:33:19Z</time>
      </trkpt>
      <trkpt lat="43.44927" lon="-1.57026">
        <ele>69.83</ele>
        <time>2021-07-05T18:33:36Z</time>
      </trkpt>
      <trkpt lat="43.44814" lon="-1.57255">
        <ele>69.35</ele>
        <time>2021-07-05T18:33:52Z</time>
      </trkpt>
      <trkpt lat="43.44788" lon="-1.57309">
        <ele>69.35</ele>
        <time>2021-07-05T18:33:57Z</time>
      </trkpt>
      <trkpt lat="43.44787" lon="-1.5733">
        <ele>68.39</ele>
        <time>2021-07-05T18:33:58Z</time>
      </trkpt>
      <trkpt lat="43.44785" lon="-1.57339">
        <ele>67.91</ele>
        <time>2021-07-05T18:33:59Z</time>
      </trkpt>
      <trkpt lat="43.44785" lon="-1.57339">
        <ele>67.43</ele>
        <time>2021-07-05T18:34:00Z</time>
      </trkpt>
      <trkpt lat="43.44784" lon="-1.57343">
        <ele>67.91</ele>
        <time>2021-07-05T18:34:01Z</time>
      </trkpt>
      <trkpt lat="43.44772" lon="-1.57344">
        <ele>68.39</ele>
        <time>2021-07-05T18:34:02Z</time>
      </trkpt>
      <trkpt lat="43.44762" lon="-1.57357">
        <ele>68.87</ele>
        <time>2021-07-05T18:34:03Z</time>
      </trkpt>
      <trkpt lat="43.44757" lon="-1.57376">
        <ele>68.87</ele>
        <time>2021-07-05T18:34:04Z</time>
      </trkpt>
      <trkpt lat="43.44757" lon="-1.57376">
        <ele>68.87</ele>
        <time>2021-07-05T18:34:05Z</time>
      </trkpt>
      <trkpt lat="43.44754" lon="-1.57387">
        <ele>66.95</ele>
        <time>2021-07-05T18:34:06Z</time>
      </trkpt>
      <trkpt lat="43.44751" lon="-1.57399">
        <ele>65.51</ele>
        <time>2021-07-05T18:34:07Z</time>
      </trkpt>
      <trkpt lat="43.44723" lon="-1.57562">
        <ele>63.1</ele>
        <time>2021-07-05T18:34:17Z</time>
      </trkpt>
      <trkpt lat="43.4471" lon="-1.57649">
        <ele>65.51</ele>
        <time>2021-07-05T18:34:25Z</time>
      </trkpt>
      <trkpt lat="43.44709" lon="-1.57656">
        <ele>65.51</ele>
        <time>2021-07-05T18:34:26Z</time>
      </trkpt>
      <trkpt lat="43.44709" lon="-1.5766">
        <ele>65.99</ele>
        <time>2021-07-05T18:34:27Z</time>
      </trkpt>
      <trkpt lat="43.44716" lon="-1.57666">
        <ele>65.99</ele>
        <time>2021-07-05T18:34:28Z</time>
      </trkpt>
      <trkpt lat="43.44718" lon="-1.57668">
        <ele>65.99</ele>
        <time>2021-07-05T18:34:29Z</time>
      </trkpt>
      <trkpt lat="43.44722" lon="-1.57675">
        <ele>65.99</ele>
        <time>2021-07-05T18:34:30Z</time>
      </trkpt>
      <trkpt lat="43.44724" lon="-1.57681">
        <ele>66.47</ele>
        <time>2021-07-05T18:34:31Z</time>
      </trkpt>
      <trkpt lat="43.44729" lon="-1.57688">
        <ele>66.47</ele>
        <time>2021-07-05T18:34:32Z</time>
      </trkpt>
      <trkpt lat="43.44736" lon="-1.57687">
        <ele>66.47</ele>
        <time>2021-07-05T18:34:33Z</time>
      </trkpt>
      <trkpt lat="43.44743" lon="-1.57686">
        <ele>66.95</ele>
        <time>2021-07-05T18:34:34Z</time>
      </trkpt>
      <trkpt lat="43.44751" lon="-1.57685">
        <ele>66.95</ele>
        <time>2021-07-05T18:34:35Z</time>
      </trkpt>
      <trkpt lat="43.4476" lon="-1.57684">
        <ele>66.47</ele>
        <time>2021-07-05T18:34:36Z</time>
      </trkpt>
      <trkpt lat="43.44849" lon="-1.57666">
        <ele>62.62</ele>
        <time>2021-07-05T18:34:46Z</time>
      </trkpt>
      <trkpt lat="43.44859" lon="-1.57662">
        <ele>61.66</ele>
        <time>2021-07-05T18:34:47Z</time>
      </trkpt>
      <trkpt lat="43.44933" lon="-1.57639">
        <ele>64.55</ele>
        <time>2021-07-05T18:34:55Z</time>
      </trkpt>
      <trkpt lat="43.44933" lon="-1.57639">
        <ele>64.55</ele>
        <time>2021-07-05T18:34:56Z</time>
      </trkpt>
      <trkpt lat="43.4494" lon="-1.57632">
        <ele>64.07</ele>
        <time>2021-07-05T18:34:57Z</time>
      </trkpt>
      <trkpt lat="43.44945" lon="-1.57625">
        <ele>64.07</ele>
        <time>2021-07-05T18:34:58Z</time>
      </trkpt>
      <trkpt lat="43.44951" lon="-1.57618">
        <ele>63.58</ele>
        <time>2021-07-05T18:34:59Z</time>
      </trkpt>
      <trkpt lat="43.44989" lon="-1.57574">
        <ele>59.74</ele>
        <time>2021-07-05T18:35:07Z</time>
      </trkpt>
      <trkpt lat="43.45048" lon="-1.57504">
        <ele>55.89</ele>
        <time>2021-07-05T18:35:20Z</time>
      </trkpt>
      <trkpt lat="43.45082" lon="-1.57465">
        <ele>54.45</ele>
        <time>2021-07-05T18:35:27Z</time>
      </trkpt>
      <trkpt lat="43.45087" lon="-1.57463">
        <ele>53.97</ele>
        <time>2021-07-05T18:35:28Z</time>
      </trkpt>
      <trkpt lat="43.45097" lon="-1.5746">
        <ele>53.49</ele>
        <time>2021-07-05T18:35:31Z</time>
      </trkpt>
      <trkpt lat="43.45101" lon="-1.57457">
        <ele>53.01</ele>
        <time>2021-07-05T18:35:32Z</time>
      </trkpt>
      <trkpt lat="43.45168" lon="-1.57414">
        <ele>48.68</ele>
        <time>2021-07-05T18:35:40Z</time>
      </trkpt>
      <trkpt lat="43.4526" lon="-1.57392">
        <ele>44.84</ele>
        <time>2021-07-05T18:35:50Z</time>
      </trkpt>
      <trkpt lat="43.454" lon="-1.57363">
        <ele>33.3</ele>
        <time>2021-07-05T18:36:03Z</time>
      </trkpt>
      <trkpt lat="43.45542" lon="-1.57331">
        <ele>30.9</ele>
        <time>2021-07-05T18:36:17Z</time>
      </trkpt>
      <trkpt lat="43.45554" lon="-1.57328">
        <ele>30.42</ele>
        <time>2021-07-05T18:36:18Z</time>
      </trkpt>
      <trkpt lat="43.45565" lon="-1.5732">
        <ele>29.46</ele>
        <time>2021-07-05T18:36:19Z</time>
      </trkpt>
      <trkpt lat="43.45575" lon="-1.57313">
        <ele>29.94</ele>
        <time>2021-07-05T18:36:20Z</time>
      </trkpt>
      <trkpt lat="43.45662" lon="-1.57242">
        <ele>28.02</ele>
        <time>2021-07-05T18:36:29Z</time>
      </trkpt>
      <trkpt lat="43.45672" lon="-1.57237">
        <ele>28.5</ele>
        <time>2021-07-05T18:36:30Z</time>
      </trkpt>
      <trkpt lat="43.45683" lon="-1.57235">
        <ele>28.02</ele>
        <time>2021-07-05T18:36:31Z</time>
      </trkpt>
      <trkpt lat="43.45694" lon="-1.57235">
        <ele>28.02</ele>
        <time>2021-07-05T18:36:32Z</time>
      </trkpt>
      <trkpt lat="43.45707" lon="-1.57236">
        <ele>28.02</ele>
        <time>2021-07-05T18:36:33Z</time>
      </trkpt>
      <trkpt lat="43.45793" lon="-1.57247">
        <ele>23.69</ele>
        <time>2021-07-05T18:36:41Z</time>
      </trkpt>
      <trkpt lat="43.458" lon="-1.57248">
        <ele>23.21</ele>
        <time>2021-07-05T18:36:42Z</time>
      </trkpt>
      <trkpt lat="43.45807" lon="-1.57247">
        <ele>23.21</ele>
        <time>2021-07-05T18:36:43Z</time>
      </trkpt>
      <trkpt lat="43.45811" lon="-1.5724">
        <ele>23.21</ele>
        <time>2021-07-05T18:36:44Z</time>
      </trkpt>
      <trkpt lat="43.45813" lon="-1.57234">
        <ele>22.73</ele>
        <time>2021-07-05T18:36:45Z</time>
      </trkpt>
      <trkpt lat="43.45819" lon="-1.57225">
        <ele>22.25</ele>
        <time>2021-07-05T18:36:46Z</time>
      </trkpt>
      <trkpt lat="43.45824" lon="-1.57221">
        <ele>21.77</ele>
        <time>2021-07-05T18:36:47Z</time>
      </trkpt>
      <trkpt lat="43.45832" lon="-1.57225">
        <ele>21.77</ele>
        <time>2021-07-05T18:36:48Z</time>
      </trkpt>
      <trkpt lat="43.45838" lon="-1.57235">
        <ele>21.77</ele>
        <time>2021-07-05T18:36:49Z</time>
      </trkpt>
      <trkpt lat="43.45838" lon="-1.57235">
        <ele>21.77</ele>
        <time>2021-07-05T18:36:50Z</time>
      </trkpt>
      <trkpt lat="43.4584" lon="-1.57239">
        <ele>21.29</ele>
        <time>2021-07-05T18:36:51Z</time>
      </trkpt>
      <trkpt lat="43.45849" lon="-1.57241">
        <ele>21.29</ele>
        <time>2021-07-05T18:36:52Z</time>
      </trkpt>
      <trkpt lat="43.45853" lon="-1.57239">
        <ele>20.81</ele>
        <time>2021-07-05T18:36:53Z</time>
      </trkpt>
      <trkpt lat="43.45858" lon="-1.57236">
        <ele>19.84</ele>
        <time>2021-07-05T18:36:54Z</time>
      </trkpt>
      <trkpt lat="43.45865" lon="-1.57234">
        <ele>18.88</ele>
        <time>2021-07-05T18:36:55Z</time>
      </trkpt>
      <trkpt lat="43.45955" lon="-1.57185">
        <ele>10.23</ele>
        <time>2021-07-05T18:37:05Z</time>
      </trkpt>
      <trkpt lat="43.46095" lon="-1.57096">
        <ele>10.71</ele>
        <time>2021-07-05T18:37:18Z</time>
      </trkpt>
      <trkpt lat="43.46149" lon="-1.57062">
        <ele>14.08</ele>
        <time>2021-07-05T18:37:24Z</time>
      </trkpt>
      <trkpt lat="43.46158" lon="-1.5706">
        <ele>15.04</ele>
        <time>2021-07-05T18:37:25Z</time>
      </trkpt>
      <trkpt lat="43.46166" lon="-1.57059">
        <ele>15.52</ele>
        <time>2021-07-05T18:37:26Z</time>
      </trkpt>
      <trkpt lat="43.46175" lon="-1.57058">
        <ele>16.48</ele>
        <time>2021-07-05T18:37:27Z</time>
      </trkpt>
      <trkpt lat="43.46184" lon="-1.57056">
        <ele>16.96</ele>
        <time>2021-07-05T18:37:28Z</time>
      </trkpt>
      <trkpt lat="43.46191" lon="-1.57055">
        <ele>17.44</ele>
        <time>2021-07-05T18:37:29Z</time>
      </trkpt>
      <trkpt lat="43.46197" lon="-1.5706">
        <ele>17.92</ele>
        <time>2021-07-05T18:37:30Z</time>
      </trkpt>
      <trkpt lat="43.46203" lon="-1.57066">
        <ele>17.92</ele>
        <time>2021-07-05T18:37:31Z</time>
      </trkpt>
      <trkpt lat="43.46209" lon="-1.57071">
        <ele>18.4</ele>
        <time>2021-07-05T18:37:32Z</time>
      </trkpt>
      <trkpt lat="43.4622" lon="-1.57066">
        <ele>18.88</ele>
        <time>2021-07-05T18:37:33Z</time>
      </trkpt>
      <trkpt lat="43.46229" lon="-1.57063">
        <ele>19.36</ele>
        <time>2021-07-05T18:37:34Z</time>
      </trkpt>
      <trkpt lat="43.46236" lon="-1.57066">
        <ele>19.84</ele>
        <time>2021-07-05T18:37:35Z</time>
      </trkpt>
      <trkpt lat="43.46249" lon="-1.57079">
        <ele>19.84</ele>
        <time>2021-07-05T18:37:36Z</time>
      </trkpt>
      <trkpt lat="43.46249" lon="-1.57079">
        <ele>20.32</ele>
        <time>2021-07-05T18:37:37Z</time>
      </trkpt>
      <trkpt lat="43.46256" lon="-1.57076">
        <ele>20.32</ele>
        <time>2021-07-05T18:37:38Z</time>
      </trkpt>
      <trkpt lat="43.46263" lon="-1.57073">
        <ele>20.32</ele>
        <time>2021-07-05T18:37:39Z</time>
      </trkpt>
      <trkpt lat="43.46361" lon="-1.57066">
        <ele>21.29</ele>
        <time>2021-07-05T18:37:50Z</time>
      </trkpt>
      <trkpt lat="43.46406" lon="-1.57069">
        <ele>22.73</ele>
        <time>2021-07-05T18:37:54Z</time>
      </trkpt>
      <trkpt lat="43.46415" lon="-1.57074">
        <ele>22.25</ele>
        <time>2021-07-05T18:37:55Z</time>
      </trkpt>
      <trkpt lat="43.46415" lon="-1.57074">
        <ele>20.81</ele>
        <time>2021-07-05T18:37:56Z</time>
      </trkpt>
      <trkpt lat="43.46425" lon="-1.57078">
        <ele>19.36</ele>
        <time>2021-07-05T18:37:57Z</time>
      </trkpt>
      <trkpt lat="43.46441" lon="-1.5709">
        <ele>17.44</ele>
        <time>2021-07-05T18:37:58Z</time>
      </trkpt>
      <trkpt lat="43.46449" lon="-1.57098">
        <ele>16.48</ele>
        <time>2021-07-05T18:37:59Z</time>
      </trkpt>
      <trkpt lat="43.46518" lon="-1.57167">
        <ele>9.75</ele>
        <time>2021-07-05T18:38:10Z</time>
      </trkpt>
      <trkpt lat="43.46524" lon="-1.57167">
        <ele>9.75</ele>
        <time>2021-07-05T18:38:11Z</time>
      </trkpt>
      <trkpt lat="43.46529" lon="-1.57167">
        <ele>9.27</ele>
        <time>2021-07-05T18:38:12Z</time>
      </trkpt>
      <trkpt lat="43.46529" lon="-1.57167">
        <ele>9.75</ele>
        <time>2021-07-05T18:38:13Z</time>
      </trkpt>
      <trkpt lat="43.46534" lon="-1.57167">
        <ele>9.75</ele>
        <time>2021-07-05T18:38:14Z</time>
      </trkpt>
      <trkpt lat="43.4654" lon="-1.57167">
        <ele>9.75</ele>
        <time>2021-07-05T18:38:15Z</time>
      </trkpt>
      <trkpt lat="43.46569" lon="-1.57167">
        <ele>8.79</ele>
        <time>2021-07-05T18:38:25Z</time>
      </trkpt>
      <trkpt lat="43.46589" lon="-1.5717">
        <ele>9.27</ele>
        <time>2021-07-05T18:38:43Z</time>
      </trkpt>
    </trkseg>
  </trk>
  <trk>
    <name><![CDATA[Journal actif: 2021-07-06 11:50]]></name>
    <trkseg>
      <trkpt lat="43.46644" lon="-1.57167">
        <ele>12.63</ele>
        <time>2021-07-06T13:50:54Z</time>
      </trkpt>
      <trkpt lat="43.46643" lon="-1.57168">
        <ele>12.63</ele>
        <time>2021-07-06T13:51:15Z</time>
      </trkpt>
      <trkpt lat="43.46628" lon="-1.57174">
        <ele>12.63</ele>
        <time>2021-07-06T13:51:24Z</time>
      </trkpt>
      <trkpt lat="43.46581" lon="-1.57168">
        <ele>12.15</ele>
        <time>2021-07-06T13:51:47Z</time>
      </trkpt>
      <trkpt lat="43.46569" lon="-1.57167">
        <ele>12.15</ele>
        <time>2021-07-06T13:52:03Z</time>
      </trkpt>
      <trkpt lat="43.46561" lon="-1.57167">
        <ele>11.67</ele>
        <time>2021-07-06T13:52:19Z</time>
      </trkpt>
      <trkpt lat="43.46539" lon="-1.57167">
        <ele>12.15</ele>
        <time>2021-07-06T13:52:32Z</time>
      </trkpt>
      <trkpt lat="43.46535" lon="-1.57167">
        <ele>12.15</ele>
        <time>2021-07-06T13:52:44Z</time>
      </trkpt>
      <trkpt lat="43.46535" lon="-1.57167">
        <ele>12.15</ele>
        <time>2021-07-06T13:52:53Z</time>
      </trkpt>
      <trkpt lat="43.46535" lon="-1.57167">
        <ele>12.15</ele>
        <time>2021-07-06T13:52:54Z</time>
      </trkpt>
      <trkpt lat="43.46528" lon="-1.57171">
        <ele>12.15</ele>
        <time>2021-07-06T13:52:55Z</time>
      </trkpt>
      <trkpt lat="43.46528" lon="-1.57171">
        <ele>12.15</ele>
        <time>2021-07-06T13:52:56Z</time>
      </trkpt>
      <trkpt lat="43.46528" lon="-1.57173">
        <ele>12.15</ele>
        <time>2021-07-06T13:52:57Z</time>
      </trkpt>
      <trkpt lat="43.46528" lon="-1.57176">
        <ele>12.15</ele>
        <time>2021-07-06T13:52:58Z</time>
      </trkpt>
      <trkpt lat="43.46528" lon="-1.57171">
        <ele>12.15</ele>
        <time>2021-07-06T13:52:59Z</time>
      </trkpt>
      <trkpt lat="43.46528" lon="-1.57171">
        <ele>11.67</ele>
        <time>2021-07-06T13:53:00Z</time>
      </trkpt>
      <trkpt lat="43.46536" lon="-1.57189">
        <ele>11.67</ele>
        <time>2021-07-06T13:53:01Z</time>
      </trkpt>
      <trkpt lat="43.46577" lon="-1.57214">
        <ele>9.75</ele>
        <time>2021-07-06T13:53:11Z</time>
      </trkpt>
      <trkpt lat="43.46582" lon="-1.57216">
        <ele>9.75</ele>
        <time>2021-07-06T13:53:12Z</time>
      </trkpt>
      <trkpt lat="43.46651" lon="-1.57209">
        <ele>9.75</ele>
        <time>2021-07-06T13:53:25Z</time>
      </trkpt>
      <trkpt lat="43.46696" lon="-1.57161">
        <ele>11.19</ele>
        <time>2021-07-06T13:53:34Z</time>
      </trkpt>
      <trkpt lat="43.467" lon="-1.57154">
        <ele>11.19</ele>
        <time>2021-07-06T13:53:35Z</time>
      </trkpt>
      <trkpt lat="43.46702" lon="-1.57146">
        <ele>11.67</ele>
        <time>2021-07-06T13:53:36Z</time>
      </trkpt>
      <trkpt lat="43.46702" lon="-1.57146">
        <ele>11.67</ele>
        <time>2021-07-06T13:53:37Z</time>
      </trkpt>
      <trkpt lat="43.46702" lon="-1.57139">
        <ele>12.15</ele>
        <time>2021-07-06T13:53:38Z</time>
      </trkpt>
      <trkpt lat="43.46704" lon="-1.57123">
        <ele>12.63</ele>
        <time>2021-07-06T13:53:39Z</time>
      </trkpt>
      <trkpt lat="43.46728" lon="-1.5703">
        <ele>16</ele>
        <time>2021-07-06T13:53:52Z</time>
      </trkpt>
      <trkpt lat="43.46728" lon="-1.5703">
        <ele>16.48</ele>
        <time>2021-07-06T13:53:53Z</time>
      </trkpt>
      <trkpt lat="43.46732" lon="-1.57023">
        <ele>16.48</ele>
        <time>2021-07-06T13:53:54Z</time>
      </trkpt>
      <trkpt lat="43.46736" lon="-1.57017">
        <ele>16.48</ele>
        <time>2021-07-06T13:53:55Z</time>
      </trkpt>
      <trkpt lat="43.4674" lon="-1.57011">
        <ele>16.48</ele>
        <time>2021-07-06T13:53:56Z</time>
      </trkpt>
      <trkpt lat="43.46808" lon="-1.56929">
        <ele>19.36</ele>
        <time>2021-07-06T13:54:09Z</time>
      </trkpt>
      <trkpt lat="43.46925" lon="-1.56819">
        <ele>21.77</ele>
        <time>2021-07-06T13:54:26Z</time>
      </trkpt>
      <trkpt lat="43.47061" lon="-1.56722">
        <ele>25.61</ele>
        <time>2021-07-06T13:54:44Z</time>
      </trkpt>
      <trkpt lat="43.47163" lon="-1.56668">
        <ele>31.38</ele>
        <time>2021-07-06T13:54:55Z</time>
      </trkpt>
      <trkpt lat="43.47253" lon="-1.56659">
        <ele>36.19</ele>
        <time>2021-07-06T13:55:07Z</time>
      </trkpt>
      <trkpt lat="43.47288" lon="-1.56653">
        <ele>37.15</ele>
        <time>2021-07-06T13:55:12Z</time>
      </trkpt>
      <trkpt lat="43.47292" lon="-1.56652">
        <ele>37.63</ele>
        <time>2021-07-06T13:55:13Z</time>
      </trkpt>
      <trkpt lat="43.47296" lon="-1.56649">
        <ele>37.63</ele>
        <time>2021-07-06T13:55:14Z</time>
      </trkpt>
      <trkpt lat="43.47301" lon="-1.56646">
        <ele>38.11</ele>
        <time>2021-07-06T13:55:15Z</time>
      </trkpt>
      <trkpt lat="43.47305" lon="-1.56643">
        <ele>37.63</ele>
        <time>2021-07-06T13:55:16Z</time>
      </trkpt>
      <trkpt lat="43.47308" lon="-1.56637">
        <ele>37.63</ele>
        <time>2021-07-06T13:55:17Z</time>
      </trkpt>
      <trkpt lat="43.47311" lon="-1.56633">
        <ele>37.63</ele>
        <time>2021-07-06T13:55:18Z</time>
      </trkpt>
      <trkpt lat="43.47312" lon="-1.5663">
        <ele>37.63</ele>
        <time>2021-07-06T13:55:19Z</time>
      </trkpt>
      <trkpt lat="43.47315" lon="-1.56625">
        <ele>37.63</ele>
        <time>2021-07-06T13:55:20Z</time>
      </trkpt>
      <trkpt lat="43.47337" lon="-1.56589">
        <ele>35.23</ele>
        <time>2021-07-06T13:55:32Z</time>
      </trkpt>
      <trkpt lat="43.47344" lon="-1.56579">
        <ele>34.74</ele>
        <time>2021-07-06T13:55:42Z</time>
      </trkpt>
      <trkpt lat="43.47364" lon="-1.56549">
        <ele>33.78</ele>
        <time>2021-07-06T13:55:49Z</time>
      </trkpt>
      <trkpt lat="43.47364" lon="-1.56549">
        <ele>33.3</ele>
        <time>2021-07-06T13:55:50Z</time>
      </trkpt>
      <trkpt lat="43.47357" lon="-1.56554">
        <ele>33.3</ele>
        <time>2021-07-06T13:55:51Z</time>
      </trkpt>
      <trkpt lat="43.47355" lon="-1.56551">
        <ele>33.3</ele>
        <time>2021-07-06T13:55:52Z</time>
      </trkpt>
      <trkpt lat="43.47354" lon="-1.56549">
        <ele>32.82</ele>
        <time>2021-07-06T13:55:53Z</time>
      </trkpt>
      <trkpt lat="43.47353" lon="-1.56547">
        <ele>32.82</ele>
        <time>2021-07-06T13:55:54Z</time>
      </trkpt>
      <trkpt lat="43.47353" lon="-1.56547">
        <ele>32.82</ele>
        <time>2021-07-06T13:55:55Z</time>
      </trkpt>
      <trkpt lat="43.47351" lon="-1.56544">
        <ele>32.34</ele>
        <time>2021-07-06T13:55:56Z</time>
      </trkpt>
      <trkpt lat="43.47311" lon="-1.56473">
        <ele>29.94</ele>
        <time>2021-07-06T13:56:10Z</time>
      </trkpt>
      <trkpt lat="43.47294" lon="-1.56443">
        <ele>28.5</ele>
        <time>2021-07-06T13:56:18Z</time>
      </trkpt>
      <trkpt lat="43.47268" lon="-1.56386">
        <ele>25.13</ele>
        <time>2021-07-06T13:56:29Z</time>
      </trkpt>
      <trkpt lat="43.47261" lon="-1.5637">
        <ele>25.61</ele>
        <time>2021-07-06T13:56:34Z</time>
      </trkpt>
      <trkpt lat="43.47235" lon="-1.56316">
        <ele>32.34</ele>
        <time>2021-07-06T13:56:45Z</time>
      </trkpt>
      <trkpt lat="43.47234" lon="-1.56315">
        <ele>32.82</ele>
        <time>2021-07-06T13:56:46Z</time>
      </trkpt>
      <trkpt lat="43.47226" lon="-1.56319">
        <ele>33.3</ele>
        <time>2021-07-06T13:56:47Z</time>
      </trkpt>
      <trkpt lat="43.47174" lon="-1.56344">
        <ele>40.51</ele>
        <time>2021-07-06T13:56:57Z</time>
      </trkpt>
      <trkpt lat="43.47174" lon="-1.56344">
        <ele>41.47</ele>
        <time>2021-07-06T13:56:58Z</time>
      </trkpt>
      <trkpt lat="43.4717" lon="-1.56345">
        <ele>41.95</ele>
        <time>2021-07-06T13:56:59Z</time>
      </trkpt>
      <trkpt lat="43.47165" lon="-1.56343">
        <ele>42.92</ele>
        <time>2021-07-06T13:57:00Z</time>
      </trkpt>
      <trkpt lat="43.47154" lon="-1.56338">
        <ele>43.4</ele>
        <time>2021-07-06T13:57:01Z</time>
      </trkpt>
      <trkpt lat="43.47154" lon="-1.56338">
        <ele>44.36</ele>
        <time>2021-07-06T13:57:02Z</time>
      </trkpt>
      <trkpt lat="43.47145" lon="-1.56329">
        <ele>46.28</ele>
        <time>2021-07-06T13:57:04Z</time>
      </trkpt>
      <trkpt lat="43.4714" lon="-1.56323">
        <ele>47.24</ele>
        <time>2021-07-06T13:57:05Z</time>
      </trkpt>
      <trkpt lat="43.47096" lon="-1.56269">
        <ele>57.34</ele>
        <time>2021-07-06T13:57:14Z</time>
      </trkpt>
      <trkpt lat="43.47091" lon="-1.56264">
        <ele>58.78</ele>
        <time>2021-07-06T13:57:15Z</time>
      </trkpt>
      <trkpt lat="43.47085" lon="-1.56258">
        <ele>59.74</ele>
        <time>2021-07-06T13:57:16Z</time>
      </trkpt>
      <trkpt lat="43.47062" lon="-1.56237">
        <ele>63.1</ele>
        <time>2021-07-06T13:57:20Z</time>
      </trkpt>
      <trkpt lat="43.47056" lon="-1.56232">
        <ele>63.58</ele>
        <time>2021-07-06T13:57:21Z</time>
      </trkpt>
      <trkpt lat="43.4705" lon="-1.56227">
        <ele>63.58</ele>
        <time>2021-07-06T13:57:22Z</time>
      </trkpt>
      <trkpt lat="43.47045" lon="-1.56221">
        <ele>63.58</ele>
        <time>2021-07-06T13:57:23Z</time>
      </trkpt>
      <trkpt lat="43.47037" lon="-1.56206">
        <ele>63.58</ele>
        <time>2021-07-06T13:57:24Z</time>
      </trkpt>
      <trkpt lat="43.47037" lon="-1.56206">
        <ele>63.58</ele>
        <time>2021-07-06T13:57:25Z</time>
      </trkpt>
      <trkpt lat="43.47009" lon="-1.56113">
        <ele>61.18</ele>
        <time>2021-07-06T13:57:36Z</time>
      </trkpt>
      <trkpt lat="43.47006" lon="-1.56102">
        <ele>60.7</ele>
        <time>2021-07-06T13:57:38Z</time>
      </trkpt>
      <trkpt lat="43.46988" lon="-1.56019">
        <ele>58.78</ele>
        <time>2021-07-06T13:57:49Z</time>
      </trkpt>
      <trkpt lat="43.46979" lon="-1.55959">
        <ele>57.34</ele>
        <time>2021-07-06T13:57:57Z</time>
      </trkpt>
      <trkpt lat="43.46973" lon="-1.55943">
        <ele>57.34</ele>
        <time>2021-07-06T13:57:58Z</time>
      </trkpt>
      <trkpt lat="43.46973" lon="-1.55943">
        <ele>57.34</ele>
        <time>2021-07-06T13:57:59Z</time>
      </trkpt>
      <trkpt lat="43.46928" lon="-1.55865">
        <ele>64.07</ele>
        <time>2021-07-06T13:58:08Z</time>
      </trkpt>
      <trkpt lat="43.46923" lon="-1.55855">
        <ele>63.1</ele>
        <time>2021-07-06T13:58:09Z</time>
      </trkpt>
      <trkpt lat="43.46883" lon="-1.55769">
        <ele>62.14</ele>
        <time>2021-07-06T13:58:18Z</time>
      </trkpt>
      <trkpt lat="43.46883" lon="-1.55758">
        <ele>62.62</ele>
        <time>2021-07-06T13:58:19Z</time>
      </trkpt>
      <trkpt lat="43.46883" lon="-1.5575">
        <ele>62.62</ele>
        <time>2021-07-06T13:58:20Z</time>
      </trkpt>
      <trkpt lat="43.46885" lon="-1.55732">
        <ele>63.1</ele>
        <time>2021-07-06T13:58:21Z</time>
      </trkpt>
      <trkpt lat="43.46885" lon="-1.55732">
        <ele>63.58</ele>
        <time>2021-07-06T13:58:22Z</time>
      </trkpt>
      <trkpt lat="43.46889" lon="-1.55666">
        <ele>66.47</ele>
        <time>2021-07-06T13:58:31Z</time>
      </trkpt>
      <trkpt lat="43.46907" lon="-1.55571">
        <ele>68.39</ele>
        <time>2021-07-06T13:58:45Z</time>
      </trkpt>
      <trkpt lat="43.46903" lon="-1.55529">
        <ele>67.43</ele>
        <time>2021-07-06T13:58:54Z</time>
      </trkpt>
      <trkpt lat="43.46903" lon="-1.55503">
        <ele>67.43</ele>
        <time>2021-07-06T13:59:01Z</time>
      </trkpt>
      <trkpt lat="43.46917" lon="-1.55514">
        <ele>66.47</ele>
        <time>2021-07-06T13:59:08Z</time>
      </trkpt>
      <trkpt lat="43.46915" lon="-1.55524">
        <ele>66.47</ele>
        <time>2021-07-06T13:59:11Z</time>
      </trkpt>
      <trkpt lat="43.46914" lon="-1.55528">
        <ele>65.51</ele>
        <time>2021-07-06T13:59:12Z</time>
      </trkpt>
      <trkpt lat="43.4691" lon="-1.55529">
        <ele>65.51</ele>
        <time>2021-07-06T13:59:13Z</time>
      </trkpt>
      <trkpt lat="43.46905" lon="-1.5553">
        <ele>65.51</ele>
        <time>2021-07-06T13:59:14Z</time>
      </trkpt>
      <trkpt lat="43.46902" lon="-1.55527">
        <ele>65.99</ele>
        <time>2021-07-06T13:59:15Z</time>
      </trkpt>
      <trkpt lat="43.46898" lon="-1.55524">
        <ele>65.99</ele>
        <time>2021-07-06T13:59:16Z</time>
      </trkpt>
      <trkpt lat="43.46897" lon="-1.55523">
        <ele>66.95</ele>
        <time>2021-07-06T13:59:17Z</time>
      </trkpt>
      <trkpt lat="43.46898" lon="-1.55518">
        <ele>66.95</ele>
        <time>2021-07-06T13:59:18Z</time>
      </trkpt>
      <trkpt lat="43.46899" lon="-1.5551">
        <ele>67.43</ele>
        <time>2021-07-06T13:59:19Z</time>
      </trkpt>
      <trkpt lat="43.469" lon="-1.55506">
        <ele>67.43</ele>
        <time>2021-07-06T13:59:20Z</time>
      </trkpt>
      <trkpt lat="43.469" lon="-1.55506">
        <ele>66.95</ele>
        <time>2021-07-06T13:59:21Z</time>
      </trkpt>
      <trkpt lat="43.46894" lon="-1.555">
        <ele>66.95</ele>
        <time>2021-07-06T13:59:22Z</time>
      </trkpt>
      <trkpt lat="43.46891" lon="-1.55498">
        <ele>66.47</ele>
        <time>2021-07-06T13:59:23Z</time>
      </trkpt>
      <trkpt lat="43.46887" lon="-1.55496">
        <ele>66.47</ele>
        <time>2021-07-06T13:59:24Z</time>
      </trkpt>
      <trkpt lat="43.46879" lon="-1.55491">
        <ele>66.47</ele>
        <time>2021-07-06T13:59:25Z</time>
      </trkpt>
      <trkpt lat="43.46879" lon="-1.55491">
        <ele>66.47</ele>
        <time>2021-07-06T13:59:26Z</time>
      </trkpt>
      <trkpt lat="43.46807" lon="-1.55462">
        <ele>67.43</ele>
        <time>2021-07-06T13:59:36Z</time>
      </trkpt>
      <trkpt lat="43.46651" lon="-1.55396">
        <ele>68.87</ele>
        <time>2021-07-06T13:59:54Z</time>
      </trkpt>
      <trkpt lat="43.46541" lon="-1.55317">
        <ele>75.6</ele>
        <time>2021-07-06T14:00:06Z</time>
      </trkpt>
      <trkpt lat="43.46377" lon="-1.55203">
        <ele>73.68</ele>
        <time>2021-07-06T14:00:24Z</time>
      </trkpt>
      <trkpt lat="43.46291" lon="-1.55153">
        <ele>67.43</ele>
        <time>2021-07-06T14:00:37Z</time>
      </trkpt>
      <trkpt lat="43.46276" lon="-1.55143">
        <ele>65.99</ele>
        <time>2021-07-06T14:00:46Z</time>
      </trkpt>
      <trkpt lat="43.4627" lon="-1.55139">
        <ele>65.51</ele>
        <time>2021-07-06T14:00:52Z</time>
      </trkpt>
      <trkpt lat="43.46214" lon="-1.55099">
        <ele>63.1</ele>
        <time>2021-07-06T14:01:03Z</time>
      </trkpt>
      <trkpt lat="43.46203" lon="-1.55086">
        <ele>62.62</ele>
        <time>2021-07-06T14:01:04Z</time>
      </trkpt>
      <trkpt lat="43.46198" lon="-1.55078">
        <ele>62.14</ele>
        <time>2021-07-06T14:01:05Z</time>
      </trkpt>
      <trkpt lat="43.46198" lon="-1.55078">
        <ele>62.14</ele>
        <time>2021-07-06T14:01:06Z</time>
      </trkpt>
      <trkpt lat="43.46161" lon="-1.55009">
        <ele>58.3</ele>
        <time>2021-07-06T14:01:16Z</time>
      </trkpt>
      <trkpt lat="43.46154" lon="-1.54997">
        <ele>55.89</ele>
        <time>2021-07-06T14:01:30Z</time>
      </trkpt>
      <trkpt lat="43.46112" lon="-1.5492">
        <ele>52.53</ele>
        <time>2021-07-06T14:01:45Z</time>
      </trkpt>
      <trkpt lat="43.46064" lon="-1.54827">
        <ele>47.72</ele>
        <time>2021-07-06T14:02:00Z</time>
      </trkpt>
      <trkpt lat="43.46048" lon="-1.54799">
        <ele>46.76</ele>
        <time>2021-07-06T14:02:05Z</time>
      </trkpt>
      <trkpt lat="43.46045" lon="-1.54795">
        <ele>46.28</ele>
        <time>2021-07-06T14:02:06Z</time>
      </trkpt>
      <trkpt lat="43.46042" lon="-1.54792">
        <ele>46.28</ele>
        <time>2021-07-06T14:02:07Z</time>
      </trkpt>
      <trkpt lat="43.46039" lon="-1.5479">
        <ele>45.8</ele>
        <time>2021-07-06T14:02:08Z</time>
      </trkpt>
      <trkpt lat="43.46037" lon="-1.54787">
        <ele>45.8</ele>
        <time>2021-07-06T14:02:09Z</time>
      </trkpt>
      <trkpt lat="43.46028" lon="-1.54794">
        <ele>45.8</ele>
        <time>2021-07-06T14:02:10Z</time>
      </trkpt>
      <trkpt lat="43.4603" lon="-1.54789">
        <ele>45.8</ele>
        <time>2021-07-06T14:02:11Z</time>
      </trkpt>
      <trkpt lat="43.46025" lon="-1.54794">
        <ele>45.32</ele>
        <time>2021-07-06T14:02:12Z</time>
      </trkpt>
      <trkpt lat="43.46019" lon="-1.54796">
        <ele>45.32</ele>
        <time>2021-07-06T14:02:13Z</time>
      </trkpt>
      <trkpt lat="43.46009" lon="-1.54784">
        <ele>45.32</ele>
        <time>2021-07-06T14:02:14Z</time>
      </trkpt>
      <trkpt lat="43.46007" lon="-1.54779">
        <ele>44.84</ele>
        <time>2021-07-06T14:02:15Z</time>
      </trkpt>
      <trkpt lat="43.46007" lon="-1.54779">
        <ele>44.84</ele>
        <time>2021-07-06T14:02:16Z</time>
      </trkpt>
      <trkpt lat="43.46006" lon="-1.54774">
        <ele>44.36</ele>
        <time>2021-07-06T14:02:17Z</time>
      </trkpt>
      <trkpt lat="43.46001" lon="-1.5477">
        <ele>44.36</ele>
        <time>2021-07-06T14:02:18Z</time>
      </trkpt>
      <trkpt lat="43.45997" lon="-1.5477">
        <ele>44.36</ele>
        <time>2021-07-06T14:02:19Z</time>
      </trkpt>
      <trkpt lat="43.45993" lon="-1.54769">
        <ele>43.88</ele>
        <time>2021-07-06T14:02:20Z</time>
      </trkpt>
      <trkpt lat="43.45934" lon="-1.54759">
        <ele>41.95</ele>
        <time>2021-07-06T14:02:28Z</time>
      </trkpt>
      <trkpt lat="43.45871" lon="-1.5474">
        <ele>41.95</ele>
        <time>2021-07-06T14:02:39Z</time>
      </trkpt>
      <trkpt lat="43.45864" lon="-1.54739">
        <ele>41.47</ele>
        <time>2021-07-06T14:02:41Z</time>
      </trkpt>
      <trkpt lat="43.45856" lon="-1.54744">
        <ele>41.47</ele>
        <time>2021-07-06T14:02:42Z</time>
      </trkpt>
      <trkpt lat="43.45856" lon="-1.54744">
        <ele>41.47</ele>
        <time>2021-07-06T14:02:43Z</time>
      </trkpt>
      <trkpt lat="43.45853" lon="-1.54748">
        <ele>40.99</ele>
        <time>2021-07-06T14:02:44Z</time>
      </trkpt>
      <trkpt lat="43.4585" lon="-1.54753">
        <ele>40.99</ele>
        <time>2021-07-06T14:02:45Z</time>
      </trkpt>
      <trkpt lat="43.4585" lon="-1.54753">
        <ele>40.99</ele>
        <time>2021-07-06T14:02:46Z</time>
      </trkpt>
      <trkpt lat="43.45839" lon="-1.54764">
        <ele>40.51</ele>
        <time>2021-07-06T14:02:47Z</time>
      </trkpt>
      <trkpt lat="43.45839" lon="-1.54772">
        <ele>40.03</ele>
        <time>2021-07-06T14:02:48Z</time>
      </trkpt>
      <trkpt lat="43.45838" lon="-1.54781">
        <ele>39.55</ele>
        <time>2021-07-06T14:02:49Z</time>
      </trkpt>
      <trkpt lat="43.45838" lon="-1.54791">
        <ele>38.59</ele>
        <time>2021-07-06T14:02:50Z</time>
      </trkpt>
      <trkpt lat="43.45838" lon="-1.54803">
        <ele>38.11</ele>
        <time>2021-07-06T14:02:51Z</time>
      </trkpt>
      <trkpt lat="43.45842" lon="-1.54826">
        <ele>37.15</ele>
        <time>2021-07-06T14:02:53Z</time>
      </trkpt>
      <trkpt lat="43.45844" lon="-1.54838">
        <ele>37.15</ele>
        <time>2021-07-06T14:02:54Z</time>
      </trkpt>
      <trkpt lat="43.45846" lon="-1.5485">
        <ele>37.15</ele>
        <time>2021-07-06T14:02:55Z</time>
      </trkpt>
      <trkpt lat="43.45848" lon="-1.54862">
        <ele>37.15</ele>
        <time>2021-07-06T14:02:56Z</time>
      </trkpt>
      <trkpt lat="43.45845" lon="-1.54873">
        <ele>37.15</ele>
        <time>2021-07-06T14:02:57Z</time>
      </trkpt>
      <trkpt lat="43.45841" lon="-1.54886">
        <ele>36.19</ele>
        <time>2021-07-06T14:02:58Z</time>
      </trkpt>
      <trkpt lat="43.45837" lon="-1.549">
        <ele>34.74</ele>
        <time>2021-07-06T14:02:59Z</time>
      </trkpt>
      <trkpt lat="43.45833" lon="-1.54913">
        <ele>34.26</ele>
        <time>2021-07-06T14:03:00Z</time>
      </trkpt>
      <trkpt lat="43.4583" lon="-1.54925">
        <ele>33.3</ele>
        <time>2021-07-06T14:03:01Z</time>
      </trkpt>
      <trkpt lat="43.45813" lon="-1.54969">
        <ele>35.23</ele>
        <time>2021-07-06T14:03:05Z</time>
      </trkpt>
      <trkpt lat="43.45807" lon="-1.54977">
        <ele>34.26</ele>
        <time>2021-07-06T14:03:06Z</time>
      </trkpt>
      <trkpt lat="43.45727" lon="-1.55065">
        <ele>41.47</ele>
        <time>2021-07-06T14:03:15Z</time>
      </trkpt>
      <trkpt lat="43.45583" lon="-1.55197">
        <ele>53.01</ele>
        <time>2021-07-06T14:03:27Z</time>
      </trkpt>
      <trkpt lat="43.45359" lon="-1.55418">
        <ele>63.1</ele>
        <time>2021-07-06T14:03:43Z</time>
      </trkpt>
      <trkpt lat="43.4522" lon="-1.55556">
        <ele>65.51</ele>
        <time>2021-07-06T14:03:54Z</time>
      </trkpt>
      <trkpt lat="43.45135" lon="-1.5564">
        <ele>69.35</ele>
        <time>2021-07-06T14:04:03Z</time>
      </trkpt>
      <trkpt lat="43.45122" lon="-1.55648">
        <ele>69.83</ele>
        <time>2021-07-06T14:04:05Z</time>
      </trkpt>
      <trkpt lat="43.45111" lon="-1.55662">
        <ele>69.83</ele>
        <time>2021-07-06T14:04:06Z</time>
      </trkpt>
      <trkpt lat="43.4511" lon="-1.55671">
        <ele>69.83</ele>
        <time>2021-07-06T14:04:07Z</time>
      </trkpt>
      <trkpt lat="43.4511" lon="-1.55671">
        <ele>69.83</ele>
        <time>2021-07-06T14:04:08Z</time>
      </trkpt>
      <trkpt lat="43.45108" lon="-1.55679">
        <ele>69.83</ele>
        <time>2021-07-06T14:04:09Z</time>
      </trkpt>
      <trkpt lat="43.45099" lon="-1.55691">
        <ele>69.83</ele>
        <time>2021-07-06T14:04:10Z</time>
      </trkpt>
      <trkpt lat="43.45093" lon="-1.55693">
        <ele>69.83</ele>
        <time>2021-07-06T14:04:11Z</time>
      </trkpt>
      <trkpt lat="43.45086" lon="-1.55694">
        <ele>70.31</ele>
        <time>2021-07-06T14:04:12Z</time>
      </trkpt>
      <trkpt lat="43.4508" lon="-1.55692">
        <ele>70.31</ele>
        <time>2021-07-06T14:04:13Z</time>
      </trkpt>
      <trkpt lat="43.45074" lon="-1.55686">
        <ele>71.27</ele>
        <time>2021-07-06T14:04:14Z</time>
      </trkpt>
      <trkpt lat="43.45069" lon="-1.55681">
        <ele>71.27</ele>
        <time>2021-07-06T14:04:15Z</time>
      </trkpt>
      <trkpt lat="43.45069" lon="-1.55681">
        <ele>71.76</ele>
        <time>2021-07-06T14:04:16Z</time>
      </trkpt>
      <trkpt lat="43.45064" lon="-1.55675">
        <ele>71.76</ele>
        <time>2021-07-06T14:04:17Z</time>
      </trkpt>
      <trkpt lat="43.45063" lon="-1.5566">
        <ele>72.24</ele>
        <time>2021-07-06T14:04:18Z</time>
      </trkpt>
      <trkpt lat="43.45063" lon="-1.5566">
        <ele>72.72</ele>
        <time>2021-07-06T14:04:19Z</time>
      </trkpt>
      <trkpt lat="43.45063" lon="-1.55651">
        <ele>72.72</ele>
        <time>2021-07-06T14:04:20Z</time>
      </trkpt>
      <trkpt lat="43.45065" lon="-1.55646">
        <ele>71.27</ele>
        <time>2021-07-06T14:04:21Z</time>
      </trkpt>
      <trkpt lat="43.45069" lon="-1.55638">
        <ele>71.27</ele>
        <time>2021-07-06T14:04:22Z</time>
      </trkpt>
      <trkpt lat="43.45071" lon="-1.55623">
        <ele>71.27</ele>
        <time>2021-07-06T14:04:23Z</time>
      </trkpt>
      <trkpt lat="43.4507" lon="-1.55614">
        <ele>70.79</ele>
        <time>2021-07-06T14:04:24Z</time>
      </trkpt>
      <trkpt lat="43.4507" lon="-1.55603">
        <ele>70.79</ele>
        <time>2021-07-06T14:04:25Z</time>
      </trkpt>
      <trkpt lat="43.45069" lon="-1.55591">
        <ele>70.31</ele>
        <time>2021-07-06T14:04:26Z</time>
      </trkpt>
      <trkpt lat="43.45067" lon="-1.55581">
        <ele>69.83</ele>
        <time>2021-07-06T14:04:27Z</time>
      </trkpt>
      <trkpt lat="43.45044" lon="-1.55481">
        <ele>67.91</ele>
        <time>2021-07-06T14:04:37Z</time>
      </trkpt>
      <trkpt lat="43.45034" lon="-1.55444">
        <ele>67.43</ele>
        <time>2021-07-06T14:04:48Z</time>
      </trkpt>
      <trkpt lat="43.45025" lon="-1.55412">
        <ele>65.03</ele>
        <time>2021-07-06T14:04:59Z</time>
      </trkpt>
      <trkpt lat="43.44975" lon="-1.55268">
        <ele>60.7</ele>
        <time>2021-07-06T14:05:11Z</time>
      </trkpt>
      <trkpt lat="43.44891" lon="-1.55121">
        <ele>53.49</ele>
        <time>2021-07-06T14:05:23Z</time>
      </trkpt>
      <trkpt lat="43.44885" lon="-1.55115">
        <ele>53.97</ele>
        <time>2021-07-06T14:05:24Z</time>
      </trkpt>
      <trkpt lat="43.44875" lon="-1.5511">
        <ele>53.97</ele>
        <time>2021-07-06T14:05:25Z</time>
      </trkpt>
      <trkpt lat="43.44864" lon="-1.55105">
        <ele>53.01</ele>
        <time>2021-07-06T14:05:26Z</time>
      </trkpt>
      <trkpt lat="43.44854" lon="-1.551">
        <ele>52.53</ele>
        <time>2021-07-06T14:05:27Z</time>
      </trkpt>
      <trkpt lat="43.44808" lon="-1.55101">
        <ele>51.57</ele>
        <time>2021-07-06T14:05:30Z</time>
      </trkpt>
      <trkpt lat="43.44808" lon="-1.55101">
        <ele>51.09</ele>
        <time>2021-07-06T14:05:31Z</time>
      </trkpt>
      <trkpt lat="43.44796" lon="-1.55108">
        <ele>51.57</ele>
        <time>2021-07-06T14:05:32Z</time>
      </trkpt>
      <trkpt lat="43.44784" lon="-1.55116">
        <ele>51.57</ele>
        <time>2021-07-06T14:05:33Z</time>
      </trkpt>
      <trkpt lat="43.44772" lon="-1.55125">
        <ele>51.57</ele>
        <time>2021-07-06T14:05:34Z</time>
      </trkpt>
      <trkpt lat="43.44761" lon="-1.55137">
        <ele>52.05</ele>
        <time>2021-07-06T14:05:35Z</time>
      </trkpt>
      <trkpt lat="43.4475" lon="-1.55149">
        <ele>52.53</ele>
        <time>2021-07-06T14:05:36Z</time>
      </trkpt>
      <trkpt lat="43.44743" lon="-1.55165">
        <ele>53.97</ele>
        <time>2021-07-06T14:05:37Z</time>
      </trkpt>
      <trkpt lat="43.44737" lon="-1.55179">
        <ele>53.97</ele>
        <time>2021-07-06T14:05:38Z</time>
      </trkpt>
      <trkpt lat="43.4473" lon="-1.55194">
        <ele>53.49</ele>
        <time>2021-07-06T14:05:39Z</time>
      </trkpt>
      <trkpt lat="43.44726" lon="-1.55209">
        <ele>53.01</ele>
        <time>2021-07-06T14:05:40Z</time>
      </trkpt>
      <trkpt lat="43.44726" lon="-1.55224">
        <ele>53.01</ele>
        <time>2021-07-06T14:05:41Z</time>
      </trkpt>
      <trkpt lat="43.44728" lon="-1.55238">
        <ele>53.01</ele>
        <time>2021-07-06T14:05:42Z</time>
      </trkpt>
      <trkpt lat="43.4473" lon="-1.55251">
        <ele>53.01</ele>
        <time>2021-07-06T14:05:43Z</time>
      </trkpt>
      <trkpt lat="43.44737" lon="-1.55263">
        <ele>53.01</ele>
        <time>2021-07-06T14:05:44Z</time>
      </trkpt>
      <trkpt lat="43.44744" lon="-1.55266">
        <ele>53.01</ele>
        <time>2021-07-06T14:05:45Z</time>
      </trkpt>
      <trkpt lat="43.44753" lon="-1.55269">
        <ele>53.01</ele>
        <time>2021-07-06T14:05:46Z</time>
      </trkpt>
      <trkpt lat="43.44762" lon="-1.55272">
        <ele>53.01</ele>
        <time>2021-07-06T14:05:47Z</time>
      </trkpt>
      <trkpt lat="43.4477" lon="-1.55275">
        <ele>52.53</ele>
        <time>2021-07-06T14:05:48Z</time>
      </trkpt>
      <trkpt lat="43.44781" lon="-1.55272">
        <ele>52.53</ele>
        <time>2021-07-06T14:05:49Z</time>
      </trkpt>
      <trkpt lat="43.44789" lon="-1.55267">
        <ele>53.01</ele>
        <time>2021-07-06T14:05:50Z</time>
      </trkpt>
      <trkpt lat="43.44798" lon="-1.55255">
        <ele>53.97</ele>
        <time>2021-07-06T14:05:51Z</time>
      </trkpt>
      <trkpt lat="43.44804" lon="-1.55243">
        <ele>55.41</ele>
        <time>2021-07-06T14:05:52Z</time>
      </trkpt>
      <trkpt lat="43.4481" lon="-1.55231">
        <ele>55.89</ele>
        <time>2021-07-06T14:05:53Z</time>
      </trkpt>
      <trkpt lat="43.44817" lon="-1.55215">
        <ele>55.89</ele>
        <time>2021-07-06T14:05:54Z</time>
      </trkpt>
      <trkpt lat="43.44818" lon="-1.55035">
        <ele>50.61</ele>
        <time>2021-07-06T14:06:03Z</time>
      </trkpt>
      <trkpt lat="43.44766" lon="-1.54727">
        <ele>45.8</ele>
        <time>2021-07-06T14:06:16Z</time>
      </trkpt>
      <trkpt lat="43.44716" lon="-1.54426">
        <ele>40.51</ele>
        <time>2021-07-06T14:06:26Z</time>
      </trkpt>
      <trkpt lat="43.44706" lon="-1.54153">
        <ele>41.47</ele>
        <time>2021-07-06T14:06:34Z</time>
      </trkpt>
      <trkpt lat="43.44746" lon="-1.53921">
        <ele>46.76</ele>
        <time>2021-07-06T14:06:41Z</time>
      </trkpt>
      <trkpt lat="43.4484" lon="-1.53682">
        <ele>55.41</ele>
        <time>2021-07-06T14:06:49Z</time>
      </trkpt>
      <trkpt lat="43.4498" lon="-1.53489">
        <ele>59.74</ele>
        <time>2021-07-06T14:06:57Z</time>
      </trkpt>
      <trkpt lat="43.45255" lon="-1.53151">
        <ele>70.79</ele>
        <time>2021-07-06T14:07:12Z</time>
      </trkpt>
      <trkpt lat="43.45389" lon="-1.52899">
        <ele>70.31</ele>
        <time>2021-07-06T14:07:21Z</time>
      </trkpt>
      <trkpt lat="43.45539" lon="-1.52523">
        <ele>59.26</ele>
        <time>2021-07-06T14:07:33Z</time>
      </trkpt>
      <trkpt lat="43.45672" lon="-1.52302">
        <ele>48.68</ele>
        <time>2021-07-06T14:07:41Z</time>
      </trkpt>
      <trkpt lat="43.45893" lon="-1.52037">
        <ele>35.71</ele>
        <time>2021-07-06T14:07:52Z</time>
      </trkpt>
      <trkpt lat="43.46023" lon="-1.51813">
        <ele>33.78</ele>
        <time>2021-07-06T14:08:00Z</time>
      </trkpt>
      <trkpt lat="43.46108" lon="-1.51553">
        <ele>30.9</ele>
        <time>2021-07-06T14:08:08Z</time>
      </trkpt>
      <trkpt lat="43.46146" lon="-1.51271">
        <ele>20.32</ele>
        <time>2021-07-06T14:08:16Z</time>
      </trkpt>
      <trkpt lat="43.46144" lon="-1.50842">
        <ele>15.52</ele>
        <time>2021-07-06T14:08:28Z</time>
      </trkpt>
      <trkpt lat="43.4612" lon="-1.50395">
        <ele>15.52</ele>
        <time>2021-07-06T14:08:40Z</time>
      </trkpt>
      <trkpt lat="43.4608" lon="-1.49814">
        <ele>20.32</ele>
        <time>2021-07-06T14:08:56Z</time>
      </trkpt>
      <trkpt lat="43.461" lon="-1.49563">
        <ele>18.4</ele>
        <time>2021-07-06T14:09:03Z</time>
      </trkpt>
      <trkpt lat="43.46176" lon="-1.49259">
        <ele>18.88</ele>
        <time>2021-07-06T14:09:12Z</time>
      </trkpt>
      <trkpt lat="43.4635" lon="-1.48718">
        <ele>8.79</ele>
        <time>2021-07-06T14:09:27Z</time>
      </trkpt>
      <trkpt lat="43.46478" lon="-1.48446">
        <ele>5.91</ele>
        <time>2021-07-06T14:09:37Z</time>
      </trkpt>
      <trkpt lat="43.46811" lon="-1.47806">
        <ele>1.1</ele>
        <time>2021-07-06T14:09:58Z</time>
      </trkpt>
      <trkpt lat="43.46912" lon="-1.47536">
        <ele>1.58</ele>
        <time>2021-07-06T14:10:06Z</time>
      </trkpt>
      <trkpt lat="43.4697" lon="-1.47249">
        <ele>2.54</ele>
        <time>2021-07-06T14:10:14Z</time>
      </trkpt>
      <trkpt lat="43.46991" lon="-1.46931">
        <ele>8.79</ele>
        <time>2021-07-06T14:10:23Z</time>
      </trkpt>
      <trkpt lat="43.4702" lon="-1.46663">
        <ele>6.87</ele>
        <time>2021-07-06T14:10:31Z</time>
      </trkpt>
      <trkpt lat="43.47098" lon="-1.46449">
        <ele>1.58</ele>
        <time>2021-07-06T14:10:38Z</time>
      </trkpt>
      <trkpt lat="43.47263" lon="-1.46187">
        <ele>4.46</ele>
        <time>2021-07-06T14:10:48Z</time>
      </trkpt>
      <trkpt lat="43.47368" lon="-1.4596">
        <ele>16.48</ele>
        <time>2021-07-06T14:10:56Z</time>
      </trkpt>
      <trkpt lat="43.47423" lon="-1.45705">
        <ele>22.73</ele>
        <time>2021-07-06T14:11:04Z</time>
      </trkpt>
      <trkpt lat="43.47503" lon="-1.45384">
        <ele>23.69</ele>
        <time>2021-07-06T14:11:14Z</time>
      </trkpt>
      <trkpt lat="43.47648" lon="-1.45053">
        <ele>16</ele>
        <time>2021-07-06T14:11:24Z</time>
      </trkpt>
      <trkpt lat="43.47775" lon="-1.44867">
        <ele>12.63</ele>
        <time>2021-07-06T14:11:32Z</time>
      </trkpt>
      <trkpt lat="43.4794" lon="-1.44736">
        <ele>8.79</ele>
        <time>2021-07-06T14:11:38Z</time>
      </trkpt>
      <trkpt lat="43.48094" lon="-1.44697">
        <ele>5.91</ele>
        <time>2021-07-06T14:11:44Z</time>
      </trkpt>
      <trkpt lat="43.48247" lon="-1.44717">
        <ele>5.91</ele>
        <time>2021-07-06T14:11:51Z</time>
      </trkpt>
      <trkpt lat="43.48617" lon="-1.44837">
        <ele>0.14</ele>
        <time>2021-07-06T14:12:06Z</time>
      </trkpt>
      <trkpt lat="43.4904" lon="-1.44964">
        <ele>-3.71</ele>
        <time>2021-07-06T14:12:23Z</time>
      </trkpt>
      <trkpt lat="43.4922" lon="-1.44944">
        <ele>-2.27</ele>
        <time>2021-07-06T14:12:30Z</time>
      </trkpt>
      <trkpt lat="43.49401" lon="-1.44875">
        <ele>-1.79</ele>
        <time>2021-07-06T14:12:37Z</time>
      </trkpt>
      <trkpt lat="43.49567" lon="-1.44741">
        <ele>-3.23</ele>
        <time>2021-07-06T14:12:44Z</time>
      </trkpt>
      <trkpt lat="43.49703" lon="-1.44553">
        <ele>-1.3</ele>
        <time>2021-07-06T14:12:51Z</time>
      </trkpt>
      <trkpt lat="43.49878" lon="-1.44267">
        <ele>5.91</ele>
        <time>2021-07-06T14:13:01Z</time>
      </trkpt>
      <trkpt lat="43.50014" lon="-1.44129">
        <ele>5.42</ele>
        <time>2021-07-06T14:13:07Z</time>
      </trkpt>
      <trkpt lat="43.50217" lon="-1.44016">
        <ele>2.06</ele>
        <time>2021-07-06T14:13:15Z</time>
      </trkpt>
      <trkpt lat="43.50438" lon="-1.43995">
        <ele>2.06</ele>
        <time>2021-07-06T14:13:22Z</time>
      </trkpt>
      <trkpt lat="43.506" lon="-1.44038">
        <ele>5.42</ele>
        <time>2021-07-06T14:13:29Z</time>
      </trkpt>
      <trkpt lat="43.50802" lon="-1.44169">
        <ele>7.83</ele>
        <time>2021-07-06T14:13:36Z</time>
      </trkpt>
      <trkpt lat="43.51032" lon="-1.44311">
        <ele>6.39</ele>
        <time>2021-07-06T14:13:46Z</time>
      </trkpt>
      <trkpt lat="43.51223" lon="-1.44357">
        <ele>4.94</ele>
        <time>2021-07-06T14:13:53Z</time>
      </trkpt>
      <trkpt lat="43.51418" lon="-1.44335">
        <ele>7.35</ele>
        <time>2021-07-06T14:14:00Z</time>
      </trkpt>
      <trkpt lat="43.51715" lon="-1.4424">
        <ele>11.19</ele>
        <time>2021-07-06T14:14:11Z</time>
      </trkpt>
      <trkpt lat="43.52122" lon="-1.44151">
        <ele>23.21</ele>
        <time>2021-07-06T14:14:26Z</time>
      </trkpt>
      <trkpt lat="43.52434" lon="-1.44001">
        <ele>32.34</ele>
        <time>2021-07-06T14:14:38Z</time>
      </trkpt>
      <trkpt lat="43.52655" lon="-1.43834">
        <ele>30.9</ele>
        <time>2021-07-06T14:14:47Z</time>
      </trkpt>
      <trkpt lat="43.52835" lon="-1.43618">
        <ele>20.81</ele>
        <time>2021-07-06T14:14:55Z</time>
      </trkpt>
      <trkpt lat="43.53074" lon="-1.43308">
        <ele>9.75</ele>
        <time>2021-07-06T14:15:06Z</time>
      </trkpt>
      <trkpt lat="43.53253" lon="-1.43172">
        <ele>6.87</ele>
        <time>2021-07-06T14:15:13Z</time>
      </trkpt>
      <trkpt lat="43.53419" lon="-1.43118">
        <ele>1.58</ele>
        <time>2021-07-06T14:15:19Z</time>
      </trkpt>
      <trkpt lat="43.53618" lon="-1.43135">
        <ele>-0.34</ele>
        <time>2021-07-06T14:15:26Z</time>
      </trkpt>
      <trkpt lat="43.53931" lon="-1.43183">
        <ele>-3.23</ele>
        <time>2021-07-06T14:15:37Z</time>
      </trkpt>
      <trkpt lat="43.54222" lon="-1.43146">
        <ele>0.62</ele>
        <time>2021-07-06T14:15:47Z</time>
      </trkpt>
      <trkpt lat="43.54455" lon="-1.43154">
        <ele>4.46</ele>
        <time>2021-07-06T14:15:55Z</time>
      </trkpt>
      <trkpt lat="43.54816" lon="-1.43244">
        <ele>19.36</ele>
        <time>2021-07-06T14:16:07Z</time>
      </trkpt>
      <trkpt lat="43.55005" lon="-1.43248">
        <ele>30.9</ele>
        <time>2021-07-06T14:16:15Z</time>
      </trkpt>
      <trkpt lat="43.55496" lon="-1.43206">
        <ele>37.15</ele>
        <time>2021-07-06T14:16:33Z</time>
      </trkpt>
      <trkpt lat="43.55718" lon="-1.43143">
        <ele>33.3</ele>
        <time>2021-07-06T14:16:41Z</time>
      </trkpt>
      <trkpt lat="43.56024" lon="-1.43042">
        <ele>26.09</ele>
        <time>2021-07-06T14:16:52Z</time>
      </trkpt>
      <trkpt lat="43.56252" lon="-1.43024">
        <ele>22.73</ele>
        <time>2021-07-06T14:17:00Z</time>
      </trkpt>
      <trkpt lat="43.56537" lon="-1.4307">
        <ele>21.29</ele>
        <time>2021-07-06T14:17:10Z</time>
      </trkpt>
      <trkpt lat="43.56792" lon="-1.43077">
        <ele>29.46</ele>
        <time>2021-07-06T14:17:18Z</time>
      </trkpt>
      <trkpt lat="43.57125" lon="-1.43007">
        <ele>28.98</ele>
        <time>2021-07-06T14:17:31Z</time>
      </trkpt>
      <trkpt lat="43.57366" lon="-1.42886">
        <ele>21.29</ele>
        <time>2021-07-06T14:17:40Z</time>
      </trkpt>
      <trkpt lat="43.57562" lon="-1.42719">
        <ele>16.48</ele>
        <time>2021-07-06T14:17:48Z</time>
      </trkpt>
      <trkpt lat="43.57917" lon="-1.42359">
        <ele>10.23</ele>
        <time>2021-07-06T14:18:03Z</time>
      </trkpt>
      <trkpt lat="43.5818" lon="-1.42174">
        <ele>6.39</ele>
        <time>2021-07-06T14:18:13Z</time>
      </trkpt>
      <trkpt lat="43.5849" lon="-1.42043">
        <ele>5.42</ele>
        <time>2021-07-06T14:18:23Z</time>
      </trkpt>
      <trkpt lat="43.58855" lon="-1.41921">
        <ele>5.42</ele>
        <time>2021-07-06T14:18:37Z</time>
      </trkpt>
      <trkpt lat="43.59232" lon="-1.41707">
        <ele>7.35</ele>
        <time>2021-07-06T14:18:51Z</time>
      </trkpt>
      <trkpt lat="43.59513" lon="-1.41591">
        <ele>10.71</ele>
        <time>2021-07-06T14:19:01Z</time>
      </trkpt>
      <trkpt lat="43.59778" lon="-1.41541">
        <ele>14.08</ele>
        <time>2021-07-06T14:19:10Z</time>
      </trkpt>
      <trkpt lat="43.60067" lon="-1.41563">
        <ele>13.12</ele>
        <time>2021-07-06T14:19:20Z</time>
      </trkpt>
      <trkpt lat="43.60438" lon="-1.41613">
        <ele>9.75</ele>
        <time>2021-07-06T14:19:33Z</time>
      </trkpt>
      <trkpt lat="43.60695" lon="-1.41579">
        <ele>9.75</ele>
        <time>2021-07-06T14:19:42Z</time>
      </trkpt>
      <trkpt lat="43.61112" lon="-1.41424">
        <ele>9.75</ele>
        <time>2021-07-06T14:19:56Z</time>
      </trkpt>
      <trkpt lat="43.61374" lon="-1.41284">
        <ele>11.67</ele>
        <time>2021-07-06T14:20:06Z</time>
      </trkpt>
      <trkpt lat="43.61557" lon="-1.41114">
        <ele>16</ele>
        <time>2021-07-06T14:20:14Z</time>
      </trkpt>
      <trkpt lat="43.61689" lon="-1.40932">
        <ele>14.56</ele>
        <time>2021-07-06T14:20:22Z</time>
      </trkpt>
      <trkpt lat="43.61841" lon="-1.4069">
        <ele>11.67</ele>
        <time>2021-07-06T14:20:32Z</time>
      </trkpt>
      <trkpt lat="43.62033" lon="-1.40433">
        <ele>11.19</ele>
        <time>2021-07-06T14:20:44Z</time>
      </trkpt>
      <trkpt lat="43.62191" lon="-1.40246">
        <ele>7.35</ele>
        <time>2021-07-06T14:20:54Z</time>
      </trkpt>
      <trkpt lat="43.62304" lon="-1.40086">
        <ele>5.42</ele>
        <time>2021-07-06T14:21:03Z</time>
      </trkpt>
      <trkpt lat="43.62402" lon="-1.39968">
        <ele>5.42</ele>
        <time>2021-07-06T14:21:12Z</time>
      </trkpt>
      <trkpt lat="43.6254" lon="-1.39845">
        <ele>6.39</ele>
        <time>2021-07-06T14:21:22Z</time>
      </trkpt>
      <trkpt lat="43.62625" lon="-1.39665">
        <ele>2.06</ele>
        <time>2021-07-06T14:21:31Z</time>
      </trkpt>
      <trkpt lat="43.62653" lon="-1.39589">
        <ele>2.54</ele>
        <time>2021-07-06T14:21:35Z</time>
      </trkpt>
      <trkpt lat="43.62663" lon="-1.39582">
        <ele>3.98</ele>
        <time>2021-07-06T14:21:36Z</time>
      </trkpt>
      <trkpt lat="43.62672" lon="-1.39577">
        <ele>4.46</ele>
        <time>2021-07-06T14:21:37Z</time>
      </trkpt>
      <trkpt lat="43.62682" lon="-1.39572">
        <ele>4.94</ele>
        <time>2021-07-06T14:21:38Z</time>
      </trkpt>
      <trkpt lat="43.6269" lon="-1.39569">
        <ele>5.91</ele>
        <time>2021-07-06T14:21:39Z</time>
      </trkpt>
      <trkpt lat="43.627" lon="-1.39569">
        <ele>6.39</ele>
        <time>2021-07-06T14:21:40Z</time>
      </trkpt>
      <trkpt lat="43.62709" lon="-1.39573">
        <ele>6.87</ele>
        <time>2021-07-06T14:21:41Z</time>
      </trkpt>
      <trkpt lat="43.62718" lon="-1.39578">
        <ele>7.83</ele>
        <time>2021-07-06T14:21:42Z</time>
      </trkpt>
      <trkpt lat="43.62726" lon="-1.39588">
        <ele>8.31</ele>
        <time>2021-07-06T14:21:43Z</time>
      </trkpt>
      <trkpt lat="43.62734" lon="-1.39599">
        <ele>9.27</ele>
        <time>2021-07-06T14:21:44Z</time>
      </trkpt>
      <trkpt lat="43.62811" lon="-1.39709">
        <ele>11.19</ele>
        <time>2021-07-06T14:21:53Z</time>
      </trkpt>
      <trkpt lat="43.62821" lon="-1.39715">
        <ele>11.19</ele>
        <time>2021-07-06T14:21:54Z</time>
      </trkpt>
      <trkpt lat="43.62821" lon="-1.39715">
        <ele>10.23</ele>
        <time>2021-07-06T14:21:55Z</time>
      </trkpt>
      <trkpt lat="43.6283" lon="-1.39718">
        <ele>8.79</ele>
        <time>2021-07-06T14:21:56Z</time>
      </trkpt>
      <trkpt lat="43.62839" lon="-1.39719">
        <ele>8.79</ele>
        <time>2021-07-06T14:21:57Z</time>
      </trkpt>
      <trkpt lat="43.62848" lon="-1.39715">
        <ele>7.35</ele>
        <time>2021-07-06T14:21:58Z</time>
      </trkpt>
      <trkpt lat="43.62857" lon="-1.39712">
        <ele>7.83</ele>
        <time>2021-07-06T14:21:59Z</time>
      </trkpt>
      <trkpt lat="43.62873" lon="-1.39698">
        <ele>7.35</ele>
        <time>2021-07-06T14:22:00Z</time>
      </trkpt>
      <trkpt lat="43.62873" lon="-1.39698">
        <ele>6.87</ele>
        <time>2021-07-06T14:22:01Z</time>
      </trkpt>
      <trkpt lat="43.62957" lon="-1.39612">
        <ele>4.94</ele>
        <time>2021-07-06T14:22:13Z</time>
      </trkpt>
      <trkpt lat="43.62965" lon="-1.39605">
        <ele>4.46</ele>
        <time>2021-07-06T14:22:20Z</time>
      </trkpt>
      <trkpt lat="43.62987" lon="-1.39584">
        <ele>4.46</ele>
        <time>2021-07-06T14:22:27Z</time>
      </trkpt>
      <trkpt lat="43.63056" lon="-1.39509">
        <ele>11.19</ele>
        <time>2021-07-06T14:22:36Z</time>
      </trkpt>
      <trkpt lat="43.63114" lon="-1.39456">
        <ele>9.27</ele>
        <time>2021-07-06T14:22:44Z</time>
      </trkpt>
      <trkpt lat="43.63119" lon="-1.39452">
        <ele>9.27</ele>
        <time>2021-07-06T14:22:46Z</time>
      </trkpt>
      <trkpt lat="43.6312" lon="-1.39426">
        <ele>8.31</ele>
        <time>2021-07-06T14:22:49Z</time>
      </trkpt>
      <trkpt lat="43.63123" lon="-1.39415">
        <ele>8.31</ele>
        <time>2021-07-06T14:22:50Z</time>
      </trkpt>
      <trkpt lat="43.63127" lon="-1.39408">
        <ele>8.79</ele>
        <time>2021-07-06T14:22:51Z</time>
      </trkpt>
      <trkpt lat="43.63131" lon="-1.39401">
        <ele>8.79</ele>
        <time>2021-07-06T14:22:52Z</time>
      </trkpt>
      <trkpt lat="43.63141" lon="-1.39399">
        <ele>8.31</ele>
        <time>2021-07-06T14:22:53Z</time>
      </trkpt>
      <trkpt lat="43.63147" lon="-1.39399">
        <ele>7.83</ele>
        <time>2021-07-06T14:22:54Z</time>
      </trkpt>
      <trkpt lat="43.63153" lon="-1.39398">
        <ele>7.83</ele>
        <time>2021-07-06T14:22:55Z</time>
      </trkpt>
      <trkpt lat="43.63161" lon="-1.39401">
        <ele>7.35</ele>
        <time>2021-07-06T14:22:56Z</time>
      </trkpt>
      <trkpt lat="43.63165" lon="-1.39407">
        <ele>7.35</ele>
        <time>2021-07-06T14:22:57Z</time>
      </trkpt>
      <trkpt lat="43.6317" lon="-1.39413">
        <ele>6.87</ele>
        <time>2021-07-06T14:22:58Z</time>
      </trkpt>
      <trkpt lat="43.63172" lon="-1.39421">
        <ele>6.87</ele>
        <time>2021-07-06T14:22:59Z</time>
      </trkpt>
      <trkpt lat="43.63174" lon="-1.39429">
        <ele>6.39</ele>
        <time>2021-07-06T14:23:00Z</time>
      </trkpt>
      <trkpt lat="43.63175" lon="-1.39438">
        <ele>6.87</ele>
        <time>2021-07-06T14:23:01Z</time>
      </trkpt>
      <trkpt lat="43.63174" lon="-1.39447">
        <ele>6.39</ele>
        <time>2021-07-06T14:23:02Z</time>
      </trkpt>
      <trkpt lat="43.6317" lon="-1.39455">
        <ele>6.39</ele>
        <time>2021-07-06T14:23:03Z</time>
      </trkpt>
      <trkpt lat="43.63165" lon="-1.39463">
        <ele>6.39</ele>
        <time>2021-07-06T14:23:04Z</time>
      </trkpt>
      <trkpt lat="43.63162" lon="-1.39466">
        <ele>6.39</ele>
        <time>2021-07-06T14:23:05Z</time>
      </trkpt>
      <trkpt lat="43.63151" lon="-1.3948">
        <ele>6.39</ele>
        <time>2021-07-06T14:23:06Z</time>
      </trkpt>
      <trkpt lat="43.6315" lon="-1.3949">
        <ele>6.39</ele>
        <time>2021-07-06T14:23:07Z</time>
      </trkpt>
      <trkpt lat="43.63149" lon="-1.39501">
        <ele>5.91</ele>
        <time>2021-07-06T14:23:08Z</time>
      </trkpt>
      <trkpt lat="43.63136" lon="-1.39639">
        <ele>3.02</ele>
        <time>2021-07-06T14:23:22Z</time>
      </trkpt>
      <trkpt lat="43.63132" lon="-1.39674">
        <ele>2.54</ele>
        <time>2021-07-06T14:23:30Z</time>
      </trkpt>
      <trkpt lat="43.63132" lon="-1.39674">
        <ele>2.54</ele>
        <time>2021-07-06T14:23:31Z</time>
      </trkpt>
      <trkpt lat="43.63141" lon="-1.39692">
        <ele>2.54</ele>
        <time>2021-07-06T14:23:33Z</time>
      </trkpt>
      <trkpt lat="43.63145" lon="-1.39697">
        <ele>2.54</ele>
        <time>2021-07-06T14:23:34Z</time>
      </trkpt>
      <trkpt lat="43.63145" lon="-1.39705">
        <ele>3.02</ele>
        <time>2021-07-06T14:23:35Z</time>
      </trkpt>
      <trkpt lat="43.63145" lon="-1.39714">
        <ele>3.02</ele>
        <time>2021-07-06T14:23:36Z</time>
      </trkpt>
      <trkpt lat="43.63142" lon="-1.39722">
        <ele>3.02</ele>
        <time>2021-07-06T14:23:37Z</time>
      </trkpt>
      <trkpt lat="43.63141" lon="-1.39726">
        <ele>3.02</ele>
        <time>2021-07-06T14:23:38Z</time>
      </trkpt>
      <trkpt lat="43.63132" lon="-1.39743">
        <ele>3.02</ele>
        <time>2021-07-06T14:23:39Z</time>
      </trkpt>
      <trkpt lat="43.63134" lon="-1.39753">
        <ele>3.02</ele>
        <time>2021-07-06T14:23:40Z</time>
      </trkpt>
      <trkpt lat="43.63135" lon="-1.39765">
        <ele>3.5</ele>
        <time>2021-07-06T14:23:41Z</time>
      </trkpt>
      <trkpt lat="43.63165" lon="-1.39911">
        <ele>4.46</ele>
        <time>2021-07-06T14:23:51Z</time>
      </trkpt>
      <trkpt lat="43.63186" lon="-1.40102">
        <ele>10.23</ele>
        <time>2021-07-06T14:24:01Z</time>
      </trkpt>
      <trkpt lat="43.63177" lon="-1.4021">
        <ele>13.6</ele>
        <time>2021-07-06T14:24:08Z</time>
      </trkpt>
      <trkpt lat="43.63177" lon="-1.40229">
        <ele>14.56</ele>
        <time>2021-07-06T14:24:09Z</time>
      </trkpt>
      <trkpt lat="43.63177" lon="-1.40247">
        <ele>15.52</ele>
        <time>2021-07-06T14:24:10Z</time>
      </trkpt>
      <trkpt lat="43.63181" lon="-1.40266">
        <ele>16.48</ele>
        <time>2021-07-06T14:24:11Z</time>
      </trkpt>
      <trkpt lat="43.63184" lon="-1.40285">
        <ele>17.44</ele>
        <time>2021-07-06T14:24:12Z</time>
      </trkpt>
      <trkpt lat="43.63188" lon="-1.40304">
        <ele>18.4</ele>
        <time>2021-07-06T14:24:13Z</time>
      </trkpt>
      <trkpt lat="43.63194" lon="-1.40322">
        <ele>18.4</ele>
        <time>2021-07-06T14:24:14Z</time>
      </trkpt>
      <trkpt lat="43.63201" lon="-1.40339">
        <ele>18.4</ele>
        <time>2021-07-06T14:24:15Z</time>
      </trkpt>
      <trkpt lat="43.63209" lon="-1.40357">
        <ele>18.88</ele>
        <time>2021-07-06T14:24:16Z</time>
      </trkpt>
      <trkpt lat="43.63298" lon="-1.40577">
        <ele>16.96</ele>
        <time>2021-07-06T14:24:28Z</time>
      </trkpt>
      <trkpt lat="43.6341" lon="-1.40903">
        <ele>20.32</ele>
        <time>2021-07-06T14:24:43Z</time>
      </trkpt>
      <trkpt lat="43.63502" lon="-1.41179">
        <ele>21.29</ele>
        <time>2021-07-06T14:24:57Z</time>
      </trkpt>
      <trkpt lat="43.63567" lon="-1.41415">
        <ele>16</ele>
        <time>2021-07-06T14:25:09Z</time>
      </trkpt>
      <trkpt lat="43.63605" lon="-1.41575">
        <ele>16.48</ele>
        <time>2021-07-06T14:25:19Z</time>
      </trkpt>
      <trkpt lat="43.63611" lon="-1.41599">
        <ele>16.96</ele>
        <time>2021-07-06T14:25:22Z</time>
      </trkpt>
      <trkpt lat="43.63612" lon="-1.41606">
        <ele>16.96</ele>
        <time>2021-07-06T14:25:23Z</time>
      </trkpt>
      <trkpt lat="43.63614" lon="-1.41613">
        <ele>16.96</ele>
        <time>2021-07-06T14:25:24Z</time>
      </trkpt>
      <trkpt lat="43.63615" lon="-1.41619">
        <ele>16.48</ele>
        <time>2021-07-06T14:25:25Z</time>
      </trkpt>
      <trkpt lat="43.63619" lon="-1.41618">
        <ele>16.48</ele>
        <time>2021-07-06T14:25:26Z</time>
      </trkpt>
      <trkpt lat="43.63627" lon="-1.41618">
        <ele>15.52</ele>
        <time>2021-07-06T14:25:27Z</time>
      </trkpt>
      <trkpt lat="43.63633" lon="-1.41622">
        <ele>15.04</ele>
        <time>2021-07-06T14:25:28Z</time>
      </trkpt>
      <trkpt lat="43.63639" lon="-1.41629">
        <ele>15.04</ele>
        <time>2021-07-06T14:25:29Z</time>
      </trkpt>
      <trkpt lat="43.63647" lon="-1.41625">
        <ele>15.04</ele>
        <time>2021-07-06T14:25:30Z</time>
      </trkpt>
      <trkpt lat="43.63657" lon="-1.41621">
        <ele>15.04</ele>
        <time>2021-07-06T14:25:31Z</time>
      </trkpt>
      <trkpt lat="43.63774" lon="-1.41573">
        <ele>16.48</ele>
        <time>2021-07-06T14:25:41Z</time>
      </trkpt>
      <trkpt lat="43.63854" lon="-1.41554">
        <ele>16.48</ele>
        <time>2021-07-06T14:25:47Z</time>
      </trkpt>
      <trkpt lat="43.63868" lon="-1.41549">
        <ele>15.04</ele>
        <time>2021-07-06T14:25:48Z</time>
      </trkpt>
      <trkpt lat="43.63882" lon="-1.41541">
        <ele>14.08</ele>
        <time>2021-07-06T14:25:49Z</time>
      </trkpt>
      <trkpt lat="43.64014" lon="-1.41468">
        <ele>6.87</ele>
        <time>2021-07-06T14:25:57Z</time>
      </trkpt>
      <trkpt lat="43.64152" lon="-1.41441">
        <ele>7.35</ele>
        <time>2021-07-06T14:26:07Z</time>
      </trkpt>
      <trkpt lat="43.64188" lon="-1.41434">
        <ele>7.83</ele>
        <time>2021-07-06T14:26:10Z</time>
      </trkpt>
      <trkpt lat="43.64198" lon="-1.41432">
        <ele>7.83</ele>
        <time>2021-07-06T14:26:11Z</time>
      </trkpt>
      <trkpt lat="43.64214" lon="-1.41413">
        <ele>7.35</ele>
        <time>2021-07-06T14:26:13Z</time>
      </trkpt>
      <trkpt lat="43.6422" lon="-1.4141">
        <ele>7.83</ele>
        <time>2021-07-06T14:26:14Z</time>
      </trkpt>
      <trkpt lat="43.64235" lon="-1.41421">
        <ele>6.87</ele>
        <time>2021-07-06T14:26:15Z</time>
      </trkpt>
      <trkpt lat="43.64243" lon="-1.41415">
        <ele>6.87</ele>
        <time>2021-07-06T14:26:16Z</time>
      </trkpt>
      <trkpt lat="43.64252" lon="-1.41408">
        <ele>6.87</ele>
        <time>2021-07-06T14:26:17Z</time>
      </trkpt>
      <trkpt lat="43.64261" lon="-1.414">
        <ele>6.39</ele>
        <time>2021-07-06T14:26:18Z</time>
      </trkpt>
      <trkpt lat="43.64387" lon="-1.41295">
        <ele>5.91</ele>
        <time>2021-07-06T14:26:28Z</time>
      </trkpt>
      <trkpt lat="43.64541" lon="-1.41117">
        <ele>6.87</ele>
        <time>2021-07-06T14:26:40Z</time>
      </trkpt>
      <trkpt lat="43.64713" lon="-1.40874">
        <ele>10.23</ele>
        <time>2021-07-06T14:26:54Z</time>
      </trkpt>
      <trkpt lat="43.64796" lon="-1.4078">
        <ele>8.31</ele>
        <time>2021-07-06T14:27:02Z</time>
      </trkpt>
      <trkpt lat="43.64822" lon="-1.40759">
        <ele>7.35</ele>
        <time>2021-07-06T14:27:06Z</time>
      </trkpt>
      <trkpt lat="43.64828" lon="-1.40756">
        <ele>7.35</ele>
        <time>2021-07-06T14:27:07Z</time>
      </trkpt>
      <trkpt lat="43.64838" lon="-1.4075">
        <ele>6.87</ele>
        <time>2021-07-06T14:27:09Z</time>
      </trkpt>
      <trkpt lat="43.64838" lon="-1.4075">
        <ele>6.87</ele>
        <time>2021-07-06T14:27:10Z</time>
      </trkpt>
      <trkpt lat="43.64846" lon="-1.40724">
        <ele>6.87</ele>
        <time>2021-07-06T14:27:11Z</time>
      </trkpt>
      <trkpt lat="43.64851" lon="-1.40724">
        <ele>6.87</ele>
        <time>2021-07-06T14:27:12Z</time>
      </trkpt>
      <trkpt lat="43.64856" lon="-1.40724">
        <ele>6.87</ele>
        <time>2021-07-06T14:27:13Z</time>
      </trkpt>
      <trkpt lat="43.6486" lon="-1.40724">
        <ele>6.87</ele>
        <time>2021-07-06T14:27:14Z</time>
      </trkpt>
      <trkpt lat="43.64862" lon="-1.40735">
        <ele>6.87</ele>
        <time>2021-07-06T14:27:15Z</time>
      </trkpt>
      <trkpt lat="43.64864" lon="-1.40741">
        <ele>6.87</ele>
        <time>2021-07-06T14:27:16Z</time>
      </trkpt>
      <trkpt lat="43.64863" lon="-1.40746">
        <ele>6.39</ele>
        <time>2021-07-06T14:27:17Z</time>
      </trkpt>
      <trkpt lat="43.64862" lon="-1.40752">
        <ele>6.39</ele>
        <time>2021-07-06T14:27:18Z</time>
      </trkpt>
      <trkpt lat="43.64854" lon="-1.40764">
        <ele>6.39</ele>
        <time>2021-07-06T14:27:19Z</time>
      </trkpt>
      <trkpt lat="43.64855" lon="-1.40774">
        <ele>6.39</ele>
        <time>2021-07-06T14:27:20Z</time>
      </trkpt>
      <trkpt lat="43.64843" lon="-1.40898">
        <ele>1.58</ele>
        <time>2021-07-06T14:27:29Z</time>
      </trkpt>
      <trkpt lat="43.64813" lon="-1.41067">
        <ele>-2.27</ele>
        <time>2021-07-06T14:27:40Z</time>
      </trkpt>
      <trkpt lat="43.64774" lon="-1.41229">
        <ele>-4.19</ele>
        <time>2021-07-06T14:27:53Z</time>
      </trkpt>
      <trkpt lat="43.64768" lon="-1.41245">
        <ele>-3.71</ele>
        <time>2021-07-06T14:27:55Z</time>
      </trkpt>
      <trkpt lat="43.64764" lon="-1.41256">
        <ele>-3.71</ele>
        <time>2021-07-06T14:27:56Z</time>
      </trkpt>
      <trkpt lat="43.64766" lon="-1.41261">
        <ele>-4.19</ele>
        <time>2021-07-06T14:27:57Z</time>
      </trkpt>
      <trkpt lat="43.64766" lon="-1.41261">
        <ele>-4.19</ele>
        <time>2021-07-06T14:27:58Z</time>
      </trkpt>
      <trkpt lat="43.64769" lon="-1.41263">
        <ele>-4.19</ele>
        <time>2021-07-06T14:27:59Z</time>
      </trkpt>
      <trkpt lat="43.64773" lon="-1.41266">
        <ele>-3.71</ele>
        <time>2021-07-06T14:28:00Z</time>
      </trkpt>
      <trkpt lat="43.64776" lon="-1.41276">
        <ele>-3.23</ele>
        <time>2021-07-06T14:28:01Z</time>
      </trkpt>
      <trkpt lat="43.64776" lon="-1.41282">
        <ele>-2.75</ele>
        <time>2021-07-06T14:28:02Z</time>
      </trkpt>
      <trkpt lat="43.64774" lon="-1.41287">
        <ele>-2.75</ele>
        <time>2021-07-06T14:28:03Z</time>
      </trkpt>
      <trkpt lat="43.64771" lon="-1.4129">
        <ele>-2.75</ele>
        <time>2021-07-06T14:28:04Z</time>
      </trkpt>
      <trkpt lat="43.64765" lon="-1.41293">
        <ele>-2.27</ele>
        <time>2021-07-06T14:28:05Z</time>
      </trkpt>
      <trkpt lat="43.64765" lon="-1.41293">
        <ele>-1.79</ele>
        <time>2021-07-06T14:28:06Z</time>
      </trkpt>
      <trkpt lat="43.6476" lon="-1.41294">
        <ele>-1.79</ele>
        <time>2021-07-06T14:28:07Z</time>
      </trkpt>
      <trkpt lat="43.64756" lon="-1.41292">
        <ele>-1.3</ele>
        <time>2021-07-06T14:28:08Z</time>
      </trkpt>
      <trkpt lat="43.64752" lon="-1.41288">
        <ele>-1.3</ele>
        <time>2021-07-06T14:28:09Z</time>
      </trkpt>
      <trkpt lat="43.6475" lon="-1.41282">
        <ele>-1.3</ele>
        <time>2021-07-06T14:28:10Z</time>
      </trkpt>
      <trkpt lat="43.6475" lon="-1.41275">
        <ele>-1.3</ele>
        <time>2021-07-06T14:28:11Z</time>
      </trkpt>
      <trkpt lat="43.6475" lon="-1.41268">
        <ele>-1.3</ele>
        <time>2021-07-06T14:28:12Z</time>
      </trkpt>
      <trkpt lat="43.64755" lon="-1.41263">
        <ele>-1.3</ele>
        <time>2021-07-06T14:28:13Z</time>
      </trkpt>
      <trkpt lat="43.6476" lon="-1.4126">
        <ele>-1.3</ele>
        <time>2021-07-06T14:28:14Z</time>
      </trkpt>
      <trkpt lat="43.64769" lon="-1.41263">
        <ele>-1.3</ele>
        <time>2021-07-06T14:28:15Z</time>
      </trkpt>
      <trkpt lat="43.64773" lon="-1.41266">
        <ele>-0.82</ele>
        <time>2021-07-06T14:28:16Z</time>
      </trkpt>
      <trkpt lat="43.64773" lon="-1.41266">
        <ele>-0.82</ele>
        <time>2021-07-06T14:28:17Z</time>
      </trkpt>
      <trkpt lat="43.64776" lon="-1.41281">
        <ele>-0.82</ele>
        <time>2021-07-06T14:28:18Z</time>
      </trkpt>
      <trkpt lat="43.64776" lon="-1.41281">
        <ele>-0.34</ele>
        <time>2021-07-06T14:28:19Z</time>
      </trkpt>
      <trkpt lat="43.64776" lon="-1.41284">
        <ele>-0.34</ele>
        <time>2021-07-06T14:28:20Z</time>
      </trkpt>
      <trkpt lat="43.64785" lon="-1.41297">
        <ele>0.14</ele>
        <time>2021-07-06T14:28:21Z</time>
      </trkpt>
      <trkpt lat="43.64791" lon="-1.41299">
        <ele>0.14</ele>
        <time>2021-07-06T14:28:22Z</time>
      </trkpt>
      <trkpt lat="43.64791" lon="-1.41299">
        <ele>0.14</ele>
        <time>2021-07-06T14:28:23Z</time>
      </trkpt>
      <trkpt lat="43.64797" lon="-1.41301">
        <ele>0.14</ele>
        <time>2021-07-06T14:28:24Z</time>
      </trkpt>
      <trkpt lat="43.64805" lon="-1.413">
        <ele>0.14</ele>
        <time>2021-07-06T14:28:25Z</time>
      </trkpt>
      <trkpt lat="43.64905" lon="-1.41293">
        <ele>-0.82</ele>
        <time>2021-07-06T14:28:35Z</time>
      </trkpt>
      <trkpt lat="43.65" lon="-1.41289">
        <ele>-2.27</ele>
        <time>2021-07-06T14:28:45Z</time>
      </trkpt>
      <trkpt lat="43.65013" lon="-1.41288">
        <ele>-2.75</ele>
        <time>2021-07-06T14:28:47Z</time>
      </trkpt>
      <trkpt lat="43.65018" lon="-1.41287">
        <ele>-3.23</ele>
        <time>2021-07-06T14:28:48Z</time>
      </trkpt>
      <trkpt lat="43.65023" lon="-1.41287">
        <ele>-3.23</ele>
        <time>2021-07-06T14:28:49Z</time>
      </trkpt>
      <trkpt lat="43.65029" lon="-1.41279">
        <ele>-3.71</ele>
        <time>2021-07-06T14:28:50Z</time>
      </trkpt>
      <trkpt lat="43.65031" lon="-1.41274">
        <ele>-3.71</ele>
        <time>2021-07-06T14:28:51Z</time>
      </trkpt>
      <trkpt lat="43.65036" lon="-1.4127">
        <ele>-3.71</ele>
        <time>2021-07-06T14:28:52Z</time>
      </trkpt>
      <trkpt lat="43.65042" lon="-1.41268">
        <ele>-4.19</ele>
        <time>2021-07-06T14:28:53Z</time>
      </trkpt>
      <trkpt lat="43.65046" lon="-1.41267">
        <ele>-4.19</ele>
        <time>2021-07-06T14:28:54Z</time>
      </trkpt>
      <trkpt lat="43.65051" lon="-1.41273">
        <ele>-3.71</ele>
        <time>2021-07-06T14:28:55Z</time>
      </trkpt>
      <trkpt lat="43.65054" lon="-1.41279">
        <ele>-3.71</ele>
        <time>2021-07-06T14:28:56Z</time>
      </trkpt>
      <trkpt lat="43.65058" lon="-1.41284">
        <ele>-3.23</ele>
        <time>2021-07-06T14:28:57Z</time>
      </trkpt>
      <trkpt lat="43.65068" lon="-1.41285">
        <ele>-2.75</ele>
        <time>2021-07-06T14:28:58Z</time>
      </trkpt>
      <trkpt lat="43.65075" lon="-1.41285">
        <ele>-3.23</ele>
        <time>2021-07-06T14:28:59Z</time>
      </trkpt>
      <trkpt lat="43.65176" lon="-1.41272">
        <ele>1.58</ele>
        <time>2021-07-06T14:29:10Z</time>
      </trkpt>
      <trkpt lat="43.65223" lon="-1.41253">
        <ele>2.06</ele>
        <time>2021-07-06T14:29:15Z</time>
      </trkpt>
      <trkpt lat="43.65232" lon="-1.41248">
        <ele>1.58</ele>
        <time>2021-07-06T14:29:16Z</time>
      </trkpt>
      <trkpt lat="43.65245" lon="-1.41239">
        <ele>1.1</ele>
        <time>2021-07-06T14:29:18Z</time>
      </trkpt>
      <trkpt lat="43.6526" lon="-1.41225">
        <ele>-0.34</ele>
        <time>2021-07-06T14:29:21Z</time>
      </trkpt>
      <trkpt lat="43.653" lon="-1.41171">
        <ele>-1.79</ele>
        <time>2021-07-06T14:29:30Z</time>
      </trkpt>
      <trkpt lat="43.65398" lon="-1.41019">
        <ele>-4.67</ele>
        <time>2021-07-06T14:29:44Z</time>
      </trkpt>
      <trkpt lat="43.65403" lon="-1.4101">
        <ele>-4.67</ele>
        <time>2021-07-06T14:29:45Z</time>
      </trkpt>
      <trkpt lat="43.65408" lon="-1.41003">
        <ele>-4.67</ele>
        <time>2021-07-06T14:29:46Z</time>
      </trkpt>
      <trkpt lat="43.65413" lon="-1.40996">
        <ele>-5.15</ele>
        <time>2021-07-06T14:29:47Z</time>
      </trkpt>
      <trkpt lat="43.65409" lon="-1.40976">
        <ele>-5.63</ele>
        <time>2021-07-06T14:29:49Z</time>
      </trkpt>
      <trkpt lat="43.65408" lon="-1.40964">
        <ele>-5.63</ele>
        <time>2021-07-06T14:29:50Z</time>
      </trkpt>
      <trkpt lat="43.65411" lon="-1.40958">
        <ele>-5.63</ele>
        <time>2021-07-06T14:29:51Z</time>
      </trkpt>
      <trkpt lat="43.65417" lon="-1.40952">
        <ele>-5.15</ele>
        <time>2021-07-06T14:29:52Z</time>
      </trkpt>
      <trkpt lat="43.65422" lon="-1.40951">
        <ele>-5.15</ele>
        <time>2021-07-06T14:29:53Z</time>
      </trkpt>
      <trkpt lat="43.65422" lon="-1.40951">
        <ele>-5.15</ele>
        <time>2021-07-06T14:29:54Z</time>
      </trkpt>
      <trkpt lat="43.65438" lon="-1.40952">
        <ele>-5.15</ele>
        <time>2021-07-06T14:29:55Z</time>
      </trkpt>
      <trkpt lat="43.65499" lon="-1.40861">
        <ele>-5.15</ele>
        <time>2021-07-06T14:30:05Z</time>
      </trkpt>
      <trkpt lat="43.65599" lon="-1.407">
        <ele>-7.55</ele>
        <time>2021-07-06T14:30:19Z</time>
      </trkpt>
      <trkpt lat="43.65663" lon="-1.40566">
        <ele>-6.59</ele>
        <time>2021-07-06T14:30:30Z</time>
      </trkpt>
      <trkpt lat="43.65734" lon="-1.40401">
        <ele>-5.63</ele>
        <time>2021-07-06T14:30:42Z</time>
      </trkpt>
      <trkpt lat="43.65762" lon="-1.40338">
        <ele>-4.67</ele>
        <time>2021-07-06T14:30:49Z</time>
      </trkpt>
      <trkpt lat="43.65767" lon="-1.40331">
        <ele>-5.15</ele>
        <time>2021-07-06T14:30:50Z</time>
      </trkpt>
      <trkpt lat="43.65772" lon="-1.40324">
        <ele>-5.15</ele>
        <time>2021-07-06T14:30:51Z</time>
      </trkpt>
      <trkpt lat="43.65784" lon="-1.40303">
        <ele>-5.63</ele>
        <time>2021-07-06T14:30:54Z</time>
      </trkpt>
      <trkpt lat="43.65792" lon="-1.40288">
        <ele>-5.63</ele>
        <time>2021-07-06T14:30:55Z</time>
      </trkpt>
      <trkpt lat="43.65792" lon="-1.40288">
        <ele>-5.63</ele>
        <time>2021-07-06T14:30:56Z</time>
      </trkpt>
      <trkpt lat="43.65797" lon="-1.40268">
        <ele>-5.15</ele>
        <time>2021-07-06T14:30:58Z</time>
      </trkpt>
      <trkpt lat="43.658" lon="-1.40257">
        <ele>-4.19</ele>
        <time>2021-07-06T14:30:59Z</time>
      </trkpt>
      <trkpt lat="43.65856" lon="-1.40121">
        <ele>-2.75</ele>
        <time>2021-07-06T14:31:11Z</time>
      </trkpt>
      <trkpt lat="43.65935" lon="-1.39988">
        <ele>-0.34</ele>
        <time>2021-07-06T14:31:22Z</time>
      </trkpt>
      <trkpt lat="43.65993" lon="-1.3992">
        <ele>-1.3</ele>
        <time>2021-07-06T14:31:29Z</time>
      </trkpt>
      <trkpt lat="43.6603" lon="-1.39897">
        <ele>-0.82</ele>
        <time>2021-07-06T14:31:32Z</time>
      </trkpt>
      <trkpt lat="43.6603" lon="-1.39897">
        <ele>-0.34</ele>
        <time>2021-07-06T14:31:33Z</time>
      </trkpt>
      <trkpt lat="43.66039" lon="-1.39893">
        <ele>-0.34</ele>
        <time>2021-07-06T14:31:34Z</time>
      </trkpt>
      <trkpt lat="43.6605" lon="-1.39891">
        <ele>0.14</ele>
        <time>2021-07-06T14:31:35Z</time>
      </trkpt>
      <trkpt lat="43.66061" lon="-1.3989">
        <ele>1.1</ele>
        <time>2021-07-06T14:31:36Z</time>
      </trkpt>
      <trkpt lat="43.66195" lon="-1.39861">
        <ele>2.06</ele>
        <time>2021-07-06T14:31:48Z</time>
      </trkpt>
      <trkpt lat="43.66242" lon="-1.39839">
        <ele>2.06</ele>
        <time>2021-07-06T14:31:54Z</time>
      </trkpt>
      <trkpt lat="43.66249" lon="-1.39834">
        <ele>2.54</ele>
        <time>2021-07-06T14:31:55Z</time>
      </trkpt>
      <trkpt lat="43.66257" lon="-1.39826">
        <ele>3.02</ele>
        <time>2021-07-06T14:31:56Z</time>
      </trkpt>
      <trkpt lat="43.66272" lon="-1.3981">
        <ele>3.5</ele>
        <time>2021-07-06T14:31:57Z</time>
      </trkpt>
      <trkpt lat="43.66277" lon="-1.398">
        <ele>4.46</ele>
        <time>2021-07-06T14:31:58Z</time>
      </trkpt>
      <trkpt lat="43.66277" lon="-1.398">
        <ele>5.42</ele>
        <time>2021-07-06T14:31:59Z</time>
      </trkpt>
      <trkpt lat="43.66283" lon="-1.39787">
        <ele>5.91</ele>
        <time>2021-07-06T14:32:00Z</time>
      </trkpt>
      <trkpt lat="43.66291" lon="-1.39762">
        <ele>5.91</ele>
        <time>2021-07-06T14:32:01Z</time>
      </trkpt>
      <trkpt lat="43.66291" lon="-1.39762">
        <ele>6.39</ele>
        <time>2021-07-06T14:32:02Z</time>
      </trkpt>
      <trkpt lat="43.66328" lon="-1.39579">
        <ele>9.27</ele>
        <time>2021-07-06T14:32:16Z</time>
      </trkpt>
      <trkpt lat="43.6633" lon="-1.39565">
        <ele>9.27</ele>
        <time>2021-07-06T14:32:17Z</time>
      </trkpt>
      <trkpt lat="43.66331" lon="-1.39551">
        <ele>9.75</ele>
        <time>2021-07-06T14:32:18Z</time>
      </trkpt>
      <trkpt lat="43.66334" lon="-1.39539">
        <ele>9.27</ele>
        <time>2021-07-06T14:32:19Z</time>
      </trkpt>
      <trkpt lat="43.66338" lon="-1.39528">
        <ele>9.75</ele>
        <time>2021-07-06T14:32:20Z</time>
      </trkpt>
      <trkpt lat="43.66342" lon="-1.39515">
        <ele>10.23</ele>
        <time>2021-07-06T14:32:21Z</time>
      </trkpt>
      <trkpt lat="43.66377" lon="-1.39432">
        <ele>13.12</ele>
        <time>2021-07-06T14:32:31Z</time>
      </trkpt>
      <trkpt lat="43.66384" lon="-1.39418">
        <ele>14.08</ele>
        <time>2021-07-06T14:32:34Z</time>
      </trkpt>
      <trkpt lat="43.66386" lon="-1.39412">
        <ele>14.08</ele>
        <time>2021-07-06T14:32:35Z</time>
      </trkpt>
      <trkpt lat="43.66398" lon="-1.39359">
        <ele>11.19</ele>
        <time>2021-07-06T14:32:46Z</time>
      </trkpt>
      <trkpt lat="43.66398" lon="-1.39359">
        <ele>11.19</ele>
        <time>2021-07-06T14:32:47Z</time>
      </trkpt>
      <trkpt lat="43.66395" lon="-1.39343">
        <ele>10.71</ele>
        <time>2021-07-06T14:32:48Z</time>
      </trkpt>
      <trkpt lat="43.66405" lon="-1.39333">
        <ele>10.71</ele>
        <time>2021-07-06T14:32:49Z</time>
      </trkpt>
      <trkpt lat="43.66427" lon="-1.3934">
        <ele>10.23</ele>
        <time>2021-07-06T14:32:59Z</time>
      </trkpt>
      <trkpt lat="43.66453" lon="-1.39333">
        <ele>10.71</ele>
        <time>2021-07-06T14:33:07Z</time>
      </trkpt>
      <trkpt lat="43.66512" lon="-1.39317">
        <ele>9.75</ele>
        <time>2021-07-06T14:33:18Z</time>
      </trkpt>
      <trkpt lat="43.66593" lon="-1.39269">
        <ele>7.35</ele>
        <time>2021-07-06T14:33:30Z</time>
      </trkpt>
      <trkpt lat="43.66602" lon="-1.39264">
        <ele>7.35</ele>
        <time>2021-07-06T14:33:31Z</time>
      </trkpt>
      <trkpt lat="43.66611" lon="-1.39259">
        <ele>6.87</ele>
        <time>2021-07-06T14:33:32Z</time>
      </trkpt>
      <trkpt lat="43.66619" lon="-1.39258">
        <ele>6.87</ele>
        <time>2021-07-06T14:33:33Z</time>
      </trkpt>
      <trkpt lat="43.66627" lon="-1.39257">
        <ele>6.87</ele>
        <time>2021-07-06T14:33:34Z</time>
      </trkpt>
      <trkpt lat="43.66635" lon="-1.39257">
        <ele>6.87</ele>
        <time>2021-07-06T14:33:35Z</time>
      </trkpt>
      <trkpt lat="43.66642" lon="-1.39256">
        <ele>6.87</ele>
        <time>2021-07-06T14:33:36Z</time>
      </trkpt>
      <trkpt lat="43.66649" lon="-1.39258">
        <ele>6.87</ele>
        <time>2021-07-06T14:33:37Z</time>
      </trkpt>
      <trkpt lat="43.66657" lon="-1.39261">
        <ele>7.35</ele>
        <time>2021-07-06T14:33:38Z</time>
      </trkpt>
      <trkpt lat="43.66741" lon="-1.39283">
        <ele>8.79</ele>
        <time>2021-07-06T14:33:49Z</time>
      </trkpt>
      <trkpt lat="43.66822" lon="-1.3929">
        <ele>8.31</ele>
        <time>2021-07-06T14:34:01Z</time>
      </trkpt>
      <trkpt lat="43.66833" lon="-1.39291">
        <ele>7.83</ele>
        <time>2021-07-06T14:34:03Z</time>
      </trkpt>
      <trkpt lat="43.66846" lon="-1.39289">
        <ele>8.31</ele>
        <time>2021-07-06T14:34:05Z</time>
      </trkpt>
      <trkpt lat="43.66855" lon="-1.39286">
        <ele>8.31</ele>
        <time>2021-07-06T14:34:06Z</time>
      </trkpt>
      <trkpt lat="43.66875" lon="-1.39295">
        <ele>8.79</ele>
        <time>2021-07-06T14:34:09Z</time>
      </trkpt>
      <trkpt lat="43.66883" lon="-1.39297">
        <ele>8.79</ele>
        <time>2021-07-06T14:34:10Z</time>
      </trkpt>
      <trkpt lat="43.66892" lon="-1.39299">
        <ele>8.79</ele>
        <time>2021-07-06T14:34:11Z</time>
      </trkpt>
      <trkpt lat="43.66901" lon="-1.39295">
        <ele>7.83</ele>
        <time>2021-07-06T14:34:12Z</time>
      </trkpt>
      <trkpt lat="43.66909" lon="-1.3929">
        <ele>7.83</ele>
        <time>2021-07-06T14:34:13Z</time>
      </trkpt>
      <trkpt lat="43.66979" lon="-1.39237">
        <ele>8.31</ele>
        <time>2021-07-06T14:34:23Z</time>
      </trkpt>
      <trkpt lat="43.6706" lon="-1.39154">
        <ele>5.42</ele>
        <time>2021-07-06T14:34:37Z</time>
      </trkpt>
      <trkpt lat="43.6706" lon="-1.39154">
        <ele>4.94</ele>
        <time>2021-07-06T14:34:38Z</time>
      </trkpt>
      <trkpt lat="43.67064" lon="-1.3915">
        <ele>4.94</ele>
        <time>2021-07-06T14:34:39Z</time>
      </trkpt>
      <trkpt lat="43.67067" lon="-1.39141">
        <ele>4.94</ele>
        <time>2021-07-06T14:34:40Z</time>
      </trkpt>
      <trkpt lat="43.67067" lon="-1.39134">
        <ele>4.94</ele>
        <time>2021-07-06T14:34:41Z</time>
      </trkpt>
      <trkpt lat="43.67068" lon="-1.39128">
        <ele>5.42</ele>
        <time>2021-07-06T14:34:42Z</time>
      </trkpt>
      <trkpt lat="43.67069" lon="-1.39121">
        <ele>5.42</ele>
        <time>2021-07-06T14:34:43Z</time>
      </trkpt>
      <trkpt lat="43.6707" lon="-1.39114">
        <ele>5.42</ele>
        <time>2021-07-06T14:34:44Z</time>
      </trkpt>
      <trkpt lat="43.67071" lon="-1.39108">
        <ele>5.91</ele>
        <time>2021-07-06T14:34:45Z</time>
      </trkpt>
      <trkpt lat="43.67072" lon="-1.39101">
        <ele>5.91</ele>
        <time>2021-07-06T14:34:46Z</time>
      </trkpt>
      <trkpt lat="43.67093" lon="-1.39029">
        <ele>6.87</ele>
        <time>2021-07-06T14:35:00Z</time>
      </trkpt>
      <trkpt lat="43.67104" lon="-1.39">
        <ele>6.39</ele>
        <time>2021-07-06T14:35:05Z</time>
      </trkpt>
      <trkpt lat="43.67107" lon="-1.38995">
        <ele>5.91</ele>
        <time>2021-07-06T14:35:06Z</time>
      </trkpt>
      <trkpt lat="43.67119" lon="-1.38962">
        <ele>5.91</ele>
        <time>2021-07-06T14:35:12Z</time>
      </trkpt>
      <trkpt lat="43.67122" lon="-1.38957">
        <ele>5.91</ele>
        <time>2021-07-06T14:35:13Z</time>
      </trkpt>
      <trkpt lat="43.67125" lon="-1.38952">
        <ele>6.39</ele>
        <time>2021-07-06T14:35:14Z</time>
      </trkpt>
      <trkpt lat="43.67128" lon="-1.38947">
        <ele>6.39</ele>
        <time>2021-07-06T14:35:15Z</time>
      </trkpt>
      <trkpt lat="43.67131" lon="-1.38943">
        <ele>6.87</ele>
        <time>2021-07-06T14:35:16Z</time>
      </trkpt>
    </trkseg>
  </trk>
  <trk>
    <name><![CDATA[Journal actif: 2021-07-06 15:22]]></name>
    <trkseg>
      <trkpt lat="43.66964" lon="-1.39062">
        <ele>9.27</ele>
        <time>2021-07-06T17:22:22Z</time>
      </trkpt>
      <trkpt lat="43.66967" lon="-1.39057">
        <ele>11.19</ele>
        <time>2021-07-06T17:22:58Z</time>
      </trkpt>
      <trkpt lat="43.66968" lon="-1.3903">
        <ele>10.71</ele>
        <time>2021-07-06T17:23:12Z</time>
      </trkpt>
      <trkpt lat="43.66965" lon="-1.3902">
        <ele>11.19</ele>
        <time>2021-07-06T17:23:16Z</time>
      </trkpt>
      <trkpt lat="43.67028" lon="-1.39014">
        <ele>9.75</ele>
        <time>2021-07-06T17:23:30Z</time>
      </trkpt>
      <trkpt lat="43.67077" lon="-1.39012">
        <ele>10.23</ele>
        <time>2021-07-06T17:23:42Z</time>
      </trkpt>
      <trkpt lat="43.67085" lon="-1.39017">
        <ele>10.23</ele>
        <time>2021-07-06T17:23:52Z</time>
      </trkpt>
      <trkpt lat="43.67094" lon="-1.39021">
        <ele>10.71</ele>
        <time>2021-07-06T17:24:00Z</time>
      </trkpt>
      <trkpt lat="43.67096" lon="-1.39022">
        <ele>10.71</ele>
        <time>2021-07-06T17:24:01Z</time>
      </trkpt>
      <trkpt lat="43.67074" lon="-1.39093">
        <ele>10.23</ele>
        <time>2021-07-06T17:24:16Z</time>
      </trkpt>
      <trkpt lat="43.67069" lon="-1.39122">
        <ele>10.23</ele>
        <time>2021-07-06T17:24:25Z</time>
      </trkpt>
      <trkpt lat="43.67068" lon="-1.39133">
        <ele>9.75</ele>
        <time>2021-07-06T17:24:28Z</time>
      </trkpt>
      <trkpt lat="43.67067" lon="-1.39138">
        <ele>9.27</ele>
        <time>2021-07-06T17:24:29Z</time>
      </trkpt>
      <trkpt lat="43.67066" lon="-1.39144">
        <ele>9.27</ele>
        <time>2021-07-06T17:24:31Z</time>
      </trkpt>
      <trkpt lat="43.67066" lon="-1.39149">
        <ele>8.79</ele>
        <time>2021-07-06T17:24:32Z</time>
      </trkpt>
      <trkpt lat="43.67061" lon="-1.39153">
        <ele>8.79</ele>
        <time>2021-07-06T17:24:34Z</time>
      </trkpt>
      <trkpt lat="43.67057" lon="-1.39157">
        <ele>7.83</ele>
        <time>2021-07-06T17:24:35Z</time>
      </trkpt>
      <trkpt lat="43.67052" lon="-1.39163">
        <ele>7.35</ele>
        <time>2021-07-06T17:24:36Z</time>
      </trkpt>
      <trkpt lat="43.66976" lon="-1.39241">
        <ele>9.27</ele>
        <time>2021-07-06T17:24:46Z</time>
      </trkpt>
      <trkpt lat="43.66928" lon="-1.39281">
        <ele>9.75</ele>
        <time>2021-07-06T17:24:51Z</time>
      </trkpt>
      <trkpt lat="43.66918" lon="-1.39286">
        <ele>9.75</ele>
        <time>2021-07-06T17:24:52Z</time>
      </trkpt>
      <trkpt lat="43.66908" lon="-1.39291">
        <ele>9.75</ele>
        <time>2021-07-06T17:24:53Z</time>
      </trkpt>
      <trkpt lat="43.66857" lon="-1.39311">
        <ele>9.27</ele>
        <time>2021-07-06T17:24:59Z</time>
      </trkpt>
      <trkpt lat="43.66852" lon="-1.39314">
        <ele>9.27</ele>
        <time>2021-07-06T17:25:00Z</time>
      </trkpt>
      <trkpt lat="43.66846" lon="-1.3931">
        <ele>8.79</ele>
        <time>2021-07-06T17:25:01Z</time>
      </trkpt>
      <trkpt lat="43.66823" lon="-1.39295">
        <ele>8.31</ele>
        <time>2021-07-06T17:25:04Z</time>
      </trkpt>
      <trkpt lat="43.66817" lon="-1.39291">
        <ele>7.83</ele>
        <time>2021-07-06T17:25:05Z</time>
      </trkpt>
      <trkpt lat="43.66734" lon="-1.39283">
        <ele>7.83</ele>
        <time>2021-07-06T17:25:15Z</time>
      </trkpt>
      <trkpt lat="43.66647" lon="-1.39258">
        <ele>5.91</ele>
        <time>2021-07-06T17:25:25Z</time>
      </trkpt>
      <trkpt lat="43.66638" lon="-1.39256">
        <ele>5.91</ele>
        <time>2021-07-06T17:25:26Z</time>
      </trkpt>
      <trkpt lat="43.66628" lon="-1.39257">
        <ele>5.42</ele>
        <time>2021-07-06T17:25:27Z</time>
      </trkpt>
      <trkpt lat="43.66618" lon="-1.39258">
        <ele>4.94</ele>
        <time>2021-07-06T17:25:28Z</time>
      </trkpt>
      <trkpt lat="43.66608" lon="-1.39261">
        <ele>4.46</ele>
        <time>2021-07-06T17:25:29Z</time>
      </trkpt>
      <trkpt lat="43.66598" lon="-1.39266">
        <ele>3.98</ele>
        <time>2021-07-06T17:25:30Z</time>
      </trkpt>
      <trkpt lat="43.66589" lon="-1.39272">
        <ele>3.02</ele>
        <time>2021-07-06T17:25:31Z</time>
      </trkpt>
      <trkpt lat="43.66519" lon="-1.39312">
        <ele>3.02</ele>
        <time>2021-07-06T17:25:41Z</time>
      </trkpt>
      <trkpt lat="43.66508" lon="-1.3932">
        <ele>3.5</ele>
        <time>2021-07-06T17:25:43Z</time>
      </trkpt>
      <trkpt lat="43.66425" lon="-1.3934">
        <ele>5.91</ele>
        <time>2021-07-06T17:25:56Z</time>
      </trkpt>
      <trkpt lat="43.66407" lon="-1.39357">
        <ele>7.35</ele>
        <time>2021-07-06T17:26:01Z</time>
      </trkpt>
      <trkpt lat="43.66407" lon="-1.39357">
        <ele>7.35</ele>
        <time>2021-07-06T17:26:02Z</time>
      </trkpt>
      <trkpt lat="43.66397" lon="-1.39366">
        <ele>7.83</ele>
        <time>2021-07-06T17:26:03Z</time>
      </trkpt>
      <trkpt lat="43.66397" lon="-1.39366">
        <ele>8.31</ele>
        <time>2021-07-06T17:26:04Z</time>
      </trkpt>
      <trkpt lat="43.66395" lon="-1.39374">
        <ele>8.79</ele>
        <time>2021-07-06T17:26:05Z</time>
      </trkpt>
      <trkpt lat="43.66394" lon="-1.39382">
        <ele>9.27</ele>
        <time>2021-07-06T17:26:06Z</time>
      </trkpt>
      <trkpt lat="43.66385" lon="-1.39414">
        <ele>10.23</ele>
        <time>2021-07-06T17:26:10Z</time>
      </trkpt>
      <trkpt lat="43.66383" lon="-1.3942">
        <ele>10.23</ele>
        <time>2021-07-06T17:26:11Z</time>
      </trkpt>
      <trkpt lat="43.66386" lon="-1.39465">
        <ele>9.27</ele>
        <time>2021-07-06T17:26:19Z</time>
      </trkpt>
      <trkpt lat="43.66411" lon="-1.39589">
        <ele>5.42</ele>
        <time>2021-07-06T17:26:35Z</time>
      </trkpt>
      <trkpt lat="43.66421" lon="-1.39603">
        <ele>4.46</ele>
        <time>2021-07-06T17:26:40Z</time>
      </trkpt>
      <trkpt lat="43.66424" lon="-1.39607">
        <ele>4.46</ele>
        <time>2021-07-06T17:26:41Z</time>
      </trkpt>
      <trkpt lat="43.66424" lon="-1.39608">
        <ele>4.46</ele>
        <time>2021-07-06T17:26:42Z</time>
      </trkpt>
      <trkpt lat="43.66419" lon="-1.39617">
        <ele>3.98</ele>
        <time>2021-07-06T17:26:43Z</time>
      </trkpt>
      <trkpt lat="43.66416" lon="-1.39621">
        <ele>3.98</ele>
        <time>2021-07-06T17:26:44Z</time>
      </trkpt>
      <trkpt lat="43.66418" lon="-1.39633">
        <ele>3.98</ele>
        <time>2021-07-06T17:26:45Z</time>
      </trkpt>
      <trkpt lat="43.6642" lon="-1.39637">
        <ele>3.98</ele>
        <time>2021-07-06T17:26:46Z</time>
      </trkpt>
      <trkpt lat="43.66421" lon="-1.39642">
        <ele>3.5</ele>
        <time>2021-07-06T17:26:47Z</time>
      </trkpt>
      <trkpt lat="43.66423" lon="-1.39647">
        <ele>3.98</ele>
        <time>2021-07-06T17:26:48Z</time>
      </trkpt>
      <trkpt lat="43.66425" lon="-1.39653">
        <ele>3.98</ele>
        <time>2021-07-06T17:26:49Z</time>
      </trkpt>
      <trkpt lat="43.66459" lon="-1.39752">
        <ele>4.94</ele>
        <time>2021-07-06T17:27:01Z</time>
      </trkpt>
      <trkpt lat="43.66462" lon="-1.39769">
        <ele>4.94</ele>
        <time>2021-07-06T17:27:02Z</time>
      </trkpt>
      <trkpt lat="43.66462" lon="-1.39769">
        <ele>4.94</ele>
        <time>2021-07-06T17:27:04Z</time>
      </trkpt>
      <trkpt lat="43.66467" lon="-1.39783">
        <ele>4.94</ele>
        <time>2021-07-06T17:27:05Z</time>
      </trkpt>
      <trkpt lat="43.66475" lon="-1.39804">
        <ele>5.91</ele>
        <time>2021-07-06T17:27:08Z</time>
      </trkpt>
      <trkpt lat="43.66478" lon="-1.39812">
        <ele>6.39</ele>
        <time>2021-07-06T17:27:09Z</time>
      </trkpt>
      <trkpt lat="43.66509" lon="-1.39938">
        <ele>4.46</ele>
        <time>2021-07-06T17:27:20Z</time>
      </trkpt>
      <trkpt lat="43.66528" lon="-1.40098">
        <ele>2.06</ele>
        <time>2021-07-06T17:27:31Z</time>
      </trkpt>
      <trkpt lat="43.66556" lon="-1.40255">
        <ele>1.58</ele>
        <time>2021-07-06T17:27:42Z</time>
      </trkpt>
      <trkpt lat="43.66573" lon="-1.40335">
        <ele>2.54</ele>
        <time>2021-07-06T17:27:50Z</time>
      </trkpt>
      <trkpt lat="43.66594" lon="-1.40438">
        <ele>4.94</ele>
        <time>2021-07-06T17:27:59Z</time>
      </trkpt>
      <trkpt lat="43.66613" lon="-1.4055">
        <ele>8.79</ele>
        <time>2021-07-06T17:28:09Z</time>
      </trkpt>
      <trkpt lat="43.66622" lon="-1.40651">
        <ele>5.91</ele>
        <time>2021-07-06T17:28:17Z</time>
      </trkpt>
      <trkpt lat="43.66627" lon="-1.40696">
        <ele>3.98</ele>
        <time>2021-07-06T17:28:20Z</time>
      </trkpt>
      <trkpt lat="43.66631" lon="-1.40708">
        <ele>3.98</ele>
        <time>2021-07-06T17:28:21Z</time>
      </trkpt>
      <trkpt lat="43.66636" lon="-1.40721">
        <ele>3.02</ele>
        <time>2021-07-06T17:28:22Z</time>
      </trkpt>
      <trkpt lat="43.66645" lon="-1.4075">
        <ele>2.06</ele>
        <time>2021-07-06T17:28:23Z</time>
      </trkpt>
      <trkpt lat="43.66645" lon="-1.4075">
        <ele>1.1</ele>
        <time>2021-07-06T17:28:24Z</time>
      </trkpt>
      <trkpt lat="43.66724" lon="-1.40912">
        <ele>-9</ele>
        <time>2021-07-06T17:28:34Z</time>
      </trkpt>
      <trkpt lat="43.66844" lon="-1.41164">
        <ele>-15.24</ele>
        <time>2021-07-06T17:28:48Z</time>
      </trkpt>
      <trkpt lat="43.66927" lon="-1.41328">
        <ele>-14.28</ele>
        <time>2021-07-06T17:28:58Z</time>
      </trkpt>
      <trkpt lat="43.67021" lon="-1.41491">
        <ele>-17.65</ele>
        <time>2021-07-06T17:29:08Z</time>
      </trkpt>
      <trkpt lat="43.67089" lon="-1.41651">
        <ele>-18.13</ele>
        <time>2021-07-06T17:29:18Z</time>
      </trkpt>
      <trkpt lat="43.6713" lon="-1.41749">
        <ele>-10.92</ele>
        <time>2021-07-06T17:29:27Z</time>
      </trkpt>
      <trkpt lat="43.6713" lon="-1.41749">
        <ele>-9.96</ele>
        <time>2021-07-06T17:29:28Z</time>
      </trkpt>
      <trkpt lat="43.67137" lon="-1.41749">
        <ele>-9.48</ele>
        <time>2021-07-06T17:29:29Z</time>
      </trkpt>
      <trkpt lat="43.67143" lon="-1.41753">
        <ele>-9</ele>
        <time>2021-07-06T17:29:30Z</time>
      </trkpt>
      <trkpt lat="43.67147" lon="-1.41759">
        <ele>-8.03</ele>
        <time>2021-07-06T17:29:31Z</time>
      </trkpt>
      <trkpt lat="43.67149" lon="-1.41766">
        <ele>-7.55</ele>
        <time>2021-07-06T17:29:32Z</time>
      </trkpt>
      <trkpt lat="43.67149" lon="-1.41769">
        <ele>-8.03</ele>
        <time>2021-07-06T17:29:33Z</time>
      </trkpt>
      <trkpt lat="43.67145" lon="-1.41787">
        <ele>-8.03</ele>
        <time>2021-07-06T17:29:34Z</time>
      </trkpt>
      <trkpt lat="43.67149" lon="-1.41796">
        <ele>-7.55</ele>
        <time>2021-07-06T17:29:35Z</time>
      </trkpt>
      <trkpt lat="43.67197" lon="-1.41908">
        <ele>-5.15</ele>
        <time>2021-07-06T17:29:47Z</time>
      </trkpt>
      <trkpt lat="43.67226" lon="-1.41976">
        <ele>-0.82</ele>
        <time>2021-07-06T17:29:58Z</time>
      </trkpt>
      <trkpt lat="43.67236" lon="-1.41998">
        <ele>0.62</ele>
        <time>2021-07-06T17:30:02Z</time>
      </trkpt>
      <trkpt lat="43.67239" lon="-1.42005">
        <ele>1.1</ele>
        <time>2021-07-06T17:30:03Z</time>
      </trkpt>
      <trkpt lat="43.67233" lon="-1.42014">
        <ele>2.06</ele>
        <time>2021-07-06T17:30:04Z</time>
      </trkpt>
      <trkpt lat="43.67233" lon="-1.42013">
        <ele>1.1</ele>
        <time>2021-07-06T17:30:06Z</time>
      </trkpt>
    </trkseg>
  </trk>
  <trk>
    <name><![CDATA[Journal actif: 2021-07-07 11:14]]></name>
    <trkseg>
      <trkpt lat="43.67177" lon="-1.41985">
        <ele>4.94</ele>
        <time>2021-07-07T13:14:05Z</time>
      </trkpt>
      <trkpt lat="43.67175" lon="-1.41979">
        <ele>4.46</ele>
        <time>2021-07-07T13:14:41Z</time>
      </trkpt>
      <trkpt lat="43.67175" lon="-1.41977">
        <ele>4.46</ele>
        <time>2021-07-07T13:14:42Z</time>
      </trkpt>
      <trkpt lat="43.67175" lon="-1.41975">
        <ele>4.46</ele>
        <time>2021-07-07T13:14:43Z</time>
      </trkpt>
      <trkpt lat="43.67175" lon="-1.41973">
        <ele>4.46</ele>
        <time>2021-07-07T13:14:44Z</time>
      </trkpt>
      <trkpt lat="43.67175" lon="-1.4197">
        <ele>4.46</ele>
        <time>2021-07-07T13:14:45Z</time>
      </trkpt>
      <trkpt lat="43.67177" lon="-1.41968">
        <ele>4.46</ele>
        <time>2021-07-07T13:14:46Z</time>
      </trkpt>
      <trkpt lat="43.67194" lon="-1.41955">
        <ele>4.46</ele>
        <time>2021-07-07T13:15:00Z</time>
      </trkpt>
      <trkpt lat="43.67194" lon="-1.41955">
        <ele>3.98</ele>
        <time>2021-07-07T13:15:19Z</time>
      </trkpt>
      <trkpt lat="43.67194" lon="-1.41955">
        <ele>4.46</ele>
        <time>2021-07-07T13:15:53Z</time>
      </trkpt>
      <trkpt lat="43.67194" lon="-1.41955">
        <ele>4.46</ele>
        <time>2021-07-07T13:16:50Z</time>
      </trkpt>
      <trkpt lat="43.67194" lon="-1.41955">
        <ele>3.98</ele>
        <time>2021-07-07T13:18:44Z</time>
      </trkpt>
      <trkpt lat="43.67206" lon="-1.41946">
        <ele>4.46</ele>
        <time>2021-07-07T13:18:59Z</time>
      </trkpt>
      <trkpt lat="43.67202" lon="-1.4192">
        <ele>4.46</ele>
        <time>2021-07-07T13:19:07Z</time>
      </trkpt>
      <trkpt lat="43.6719" lon="-1.41892">
        <ele>3.98</ele>
        <time>2021-07-07T13:19:12Z</time>
      </trkpt>
      <trkpt lat="43.67153" lon="-1.41806">
        <ele>5.91</ele>
        <time>2021-07-07T13:19:25Z</time>
      </trkpt>
      <trkpt lat="43.67146" lon="-1.41789">
        <ele>4.94</ele>
        <time>2021-07-07T13:19:28Z</time>
      </trkpt>
      <trkpt lat="43.67144" lon="-1.41785">
        <ele>4.46</ele>
        <time>2021-07-07T13:19:29Z</time>
      </trkpt>
      <trkpt lat="43.67136" lon="-1.41783">
        <ele>4.46</ele>
        <time>2021-07-07T13:19:30Z</time>
      </trkpt>
      <trkpt lat="43.67132" lon="-1.41784">
        <ele>3.98</ele>
        <time>2021-07-07T13:19:31Z</time>
      </trkpt>
      <trkpt lat="43.67132" lon="-1.41784">
        <ele>3.98</ele>
        <time>2021-07-07T13:19:32Z</time>
      </trkpt>
      <trkpt lat="43.67119" lon="-1.41777">
        <ele>3.5</ele>
        <time>2021-07-07T13:19:33Z</time>
      </trkpt>
      <trkpt lat="43.67115" lon="-1.4178">
        <ele>3.5</ele>
        <time>2021-07-07T13:19:34Z</time>
      </trkpt>
      <trkpt lat="43.6711" lon="-1.41784">
        <ele>3.5</ele>
        <time>2021-07-07T13:19:35Z</time>
      </trkpt>
      <trkpt lat="43.67037" lon="-1.41843">
        <ele>0.14</ele>
        <time>2021-07-07T13:19:47Z</time>
      </trkpt>
      <trkpt lat="43.66984" lon="-1.41877">
        <ele>-2.75</ele>
        <time>2021-07-07T13:19:54Z</time>
      </trkpt>
      <trkpt lat="43.66878" lon="-1.41909">
        <ele>-12.36</ele>
        <time>2021-07-07T13:20:05Z</time>
      </trkpt>
      <trkpt lat="43.66735" lon="-1.41935">
        <ele>-11.4</ele>
        <time>2021-07-07T13:20:19Z</time>
      </trkpt>
      <trkpt lat="43.66726" lon="-1.41933">
        <ele>-10.44</ele>
        <time>2021-07-07T13:20:20Z</time>
      </trkpt>
      <trkpt lat="43.66726" lon="-1.41933">
        <ele>-8.03</ele>
        <time>2021-07-07T13:20:21Z</time>
      </trkpt>
      <trkpt lat="43.66716" lon="-1.41932">
        <ele>-9</ele>
        <time>2021-07-07T13:20:22Z</time>
      </trkpt>
      <trkpt lat="43.66709" lon="-1.41925">
        <ele>-9</ele>
        <time>2021-07-07T13:20:23Z</time>
      </trkpt>
      <trkpt lat="43.667" lon="-1.41918">
        <ele>-9</ele>
        <time>2021-07-07T13:20:24Z</time>
      </trkpt>
      <trkpt lat="43.66693" lon="-1.41911">
        <ele>-8.51</ele>
        <time>2021-07-07T13:20:25Z</time>
      </trkpt>
      <trkpt lat="43.66689" lon="-1.41904">
        <ele>-7.55</ele>
        <time>2021-07-07T13:20:26Z</time>
      </trkpt>
      <trkpt lat="43.66684" lon="-1.41893">
        <ele>-6.59</ele>
        <time>2021-07-07T13:20:27Z</time>
      </trkpt>
      <trkpt lat="43.66679" lon="-1.41883">
        <ele>-6.59</ele>
        <time>2021-07-07T13:20:28Z</time>
      </trkpt>
      <trkpt lat="43.66618" lon="-1.41742">
        <ele>-3.23</ele>
        <time>2021-07-07T13:20:39Z</time>
      </trkpt>
      <trkpt lat="43.66545" lon="-1.41585">
        <ele>1.58</ele>
        <time>2021-07-07T13:20:51Z</time>
      </trkpt>
      <trkpt lat="43.6651" lon="-1.41522">
        <ele>2.06</ele>
        <time>2021-07-07T13:20:57Z</time>
      </trkpt>
      <trkpt lat="43.66502" lon="-1.41518">
        <ele>2.54</ele>
        <time>2021-07-07T13:20:58Z</time>
      </trkpt>
      <trkpt lat="43.66495" lon="-1.41514">
        <ele>2.06</ele>
        <time>2021-07-07T13:20:59Z</time>
      </trkpt>
      <trkpt lat="43.66488" lon="-1.41511">
        <ele>2.06</ele>
        <time>2021-07-07T13:21:00Z</time>
      </trkpt>
      <trkpt lat="43.6648" lon="-1.41511">
        <ele>1.58</ele>
        <time>2021-07-07T13:21:01Z</time>
      </trkpt>
      <trkpt lat="43.66472" lon="-1.41511">
        <ele>1.1</ele>
        <time>2021-07-07T13:21:02Z</time>
      </trkpt>
      <trkpt lat="43.66463" lon="-1.41511">
        <ele>1.1</ele>
        <time>2021-07-07T13:21:03Z</time>
      </trkpt>
      <trkpt lat="43.66401" lon="-1.41515">
        <ele>1.58</ele>
        <time>2021-07-07T13:21:10Z</time>
      </trkpt>
      <trkpt lat="43.66392" lon="-1.41516">
        <ele>2.06</ele>
        <time>2021-07-07T13:21:11Z</time>
      </trkpt>
      <trkpt lat="43.66385" lon="-1.41518">
        <ele>2.54</ele>
        <time>2021-07-07T13:21:12Z</time>
      </trkpt>
      <trkpt lat="43.66373" lon="-1.41519">
        <ele>3.02</ele>
        <time>2021-07-07T13:21:13Z</time>
      </trkpt>
      <trkpt lat="43.66373" lon="-1.41519">
        <ele>3.02</ele>
        <time>2021-07-07T13:21:14Z</time>
      </trkpt>
      <trkpt lat="43.66359" lon="-1.41541">
        <ele>4.94</ele>
        <time>2021-07-07T13:21:20Z</time>
      </trkpt>
      <trkpt lat="43.66357" lon="-1.41541">
        <ele>4.94</ele>
        <time>2021-07-07T13:21:21Z</time>
      </trkpt>
      <trkpt lat="43.66347" lon="-1.41543">
        <ele>5.91</ele>
        <time>2021-07-07T13:21:22Z</time>
      </trkpt>
      <trkpt lat="43.66338" lon="-1.41566">
        <ele>6.87</ele>
        <time>2021-07-07T13:21:24Z</time>
      </trkpt>
      <trkpt lat="43.66327" lon="-1.41593">
        <ele>7.83</ele>
        <time>2021-07-07T13:21:28Z</time>
      </trkpt>
      <trkpt lat="43.66322" lon="-1.41601">
        <ele>8.31</ele>
        <time>2021-07-07T13:21:29Z</time>
      </trkpt>
      <trkpt lat="43.66312" lon="-1.41617">
        <ele>8.79</ele>
        <time>2021-07-07T13:21:30Z</time>
      </trkpt>
      <trkpt lat="43.66312" lon="-1.41617">
        <ele>9.75</ele>
        <time>2021-07-07T13:21:31Z</time>
      </trkpt>
      <trkpt lat="43.66305" lon="-1.41626">
        <ele>10.23</ele>
        <time>2021-07-07T13:21:32Z</time>
      </trkpt>
      <trkpt lat="43.66298" lon="-1.41632">
        <ele>10.71</ele>
        <time>2021-07-07T13:21:33Z</time>
      </trkpt>
      <trkpt lat="43.66269" lon="-1.41661">
        <ele>10.71</ele>
        <time>2021-07-07T13:21:37Z</time>
      </trkpt>
      <trkpt lat="43.66263" lon="-1.41668">
        <ele>10.23</ele>
        <time>2021-07-07T13:21:38Z</time>
      </trkpt>
      <trkpt lat="43.66258" lon="-1.41678">
        <ele>9.75</ele>
        <time>2021-07-07T13:21:39Z</time>
      </trkpt>
      <trkpt lat="43.66257" lon="-1.41689">
        <ele>9.75</ele>
        <time>2021-07-07T13:21:40Z</time>
      </trkpt>
      <trkpt lat="43.66255" lon="-1.417">
        <ele>9.27</ele>
        <time>2021-07-07T13:21:41Z</time>
      </trkpt>
      <trkpt lat="43.66257" lon="-1.41724">
        <ele>8.79</ele>
        <time>2021-07-07T13:21:42Z</time>
      </trkpt>
      <trkpt lat="43.66257" lon="-1.41724">
        <ele>8.31</ele>
        <time>2021-07-07T13:21:43Z</time>
      </trkpt>
      <trkpt lat="43.6626" lon="-1.41736">
        <ele>6.87</ele>
        <time>2021-07-07T13:21:44Z</time>
      </trkpt>
      <trkpt lat="43.66262" lon="-1.41748">
        <ele>5.91</ele>
        <time>2021-07-07T13:21:45Z</time>
      </trkpt>
      <trkpt lat="43.6631" lon="-1.41906">
        <ele>-2.27</ele>
        <time>2021-07-07T13:21:56Z</time>
      </trkpt>
      <trkpt lat="43.66316" lon="-1.41926">
        <ele>-5.15</ele>
        <time>2021-07-07T13:21:59Z</time>
      </trkpt>
      <trkpt lat="43.66317" lon="-1.41936">
        <ele>-6.11</ele>
        <time>2021-07-07T13:22:00Z</time>
      </trkpt>
      <trkpt lat="43.66317" lon="-1.41947">
        <ele>-7.55</ele>
        <time>2021-07-07T13:22:01Z</time>
      </trkpt>
      <trkpt lat="43.66312" lon="-1.4204">
        <ele>-4.67</ele>
        <time>2021-07-07T13:22:08Z</time>
      </trkpt>
      <trkpt lat="43.66312" lon="-1.4204">
        <ele>-4.67</ele>
        <time>2021-07-07T13:22:09Z</time>
      </trkpt>
      <trkpt lat="43.66309" lon="-1.42057">
        <ele>-4.19</ele>
        <time>2021-07-07T13:22:10Z</time>
      </trkpt>
      <trkpt lat="43.66306" lon="-1.42098">
        <ele>-0.82</ele>
        <time>2021-07-07T13:22:16Z</time>
      </trkpt>
      <trkpt lat="43.66303" lon="-1.42104">
        <ele>0.14</ele>
        <time>2021-07-07T13:22:17Z</time>
      </trkpt>
      <trkpt lat="43.66293" lon="-1.42106">
        <ele>0.62</ele>
        <time>2021-07-07T13:22:18Z</time>
      </trkpt>
      <trkpt lat="43.66293" lon="-1.42106">
        <ele>1.1</ele>
        <time>2021-07-07T13:22:19Z</time>
      </trkpt>
      <trkpt lat="43.6628" lon="-1.42099">
        <ele>1.1</ele>
        <time>2021-07-07T13:22:20Z</time>
      </trkpt>
      <trkpt lat="43.66274" lon="-1.42102">
        <ele>1.58</ele>
        <time>2021-07-07T13:22:21Z</time>
      </trkpt>
      <trkpt lat="43.66267" lon="-1.42105">
        <ele>2.06</ele>
        <time>2021-07-07T13:22:22Z</time>
      </trkpt>
      <trkpt lat="43.66253" lon="-1.42112">
        <ele>2.06</ele>
        <time>2021-07-07T13:22:23Z</time>
      </trkpt>
      <trkpt lat="43.66253" lon="-1.42112">
        <ele>3.02</ele>
        <time>2021-07-07T13:22:24Z</time>
      </trkpt>
      <trkpt lat="43.66239" lon="-1.42125">
        <ele>3.5</ele>
        <time>2021-07-07T13:22:25Z</time>
      </trkpt>
      <trkpt lat="43.66239" lon="-1.42125">
        <ele>3.98</ele>
        <time>2021-07-07T13:22:26Z</time>
      </trkpt>
      <trkpt lat="43.66232" lon="-1.42133">
        <ele>3.98</ele>
        <time>2021-07-07T13:22:27Z</time>
      </trkpt>
      <trkpt lat="43.66226" lon="-1.4214">
        <ele>4.46</ele>
        <time>2021-07-07T13:22:28Z</time>
      </trkpt>
      <trkpt lat="43.66222" lon="-1.42149">
        <ele>3.98</ele>
        <time>2021-07-07T13:22:29Z</time>
      </trkpt>
      <trkpt lat="43.66218" lon="-1.42159">
        <ele>3.5</ele>
        <time>2021-07-07T13:22:30Z</time>
      </trkpt>
      <trkpt lat="43.66214" lon="-1.42169">
        <ele>3.02</ele>
        <time>2021-07-07T13:22:31Z</time>
      </trkpt>
      <trkpt lat="43.6621" lon="-1.42179">
        <ele>3.02</ele>
        <time>2021-07-07T13:22:32Z</time>
      </trkpt>
      <trkpt lat="43.66207" lon="-1.4219">
        <ele>3.02</ele>
        <time>2021-07-07T13:22:33Z</time>
      </trkpt>
      <trkpt lat="43.66205" lon="-1.42201">
        <ele>3.02</ele>
        <time>2021-07-07T13:22:34Z</time>
      </trkpt>
      <trkpt lat="43.66204" lon="-1.42213">
        <ele>2.54</ele>
        <time>2021-07-07T13:22:35Z</time>
      </trkpt>
      <trkpt lat="43.66177" lon="-1.42352">
        <ele>1.1</ele>
        <time>2021-07-07T13:22:48Z</time>
      </trkpt>
      <trkpt lat="43.66168" lon="-1.4238">
        <ele>1.1</ele>
        <time>2021-07-07T13:22:51Z</time>
      </trkpt>
      <trkpt lat="43.66158" lon="-1.42406">
        <ele>0.62</ele>
        <time>2021-07-07T13:22:54Z</time>
      </trkpt>
      <trkpt lat="43.66154" lon="-1.42414">
        <ele>0.62</ele>
        <time>2021-07-07T13:22:55Z</time>
      </trkpt>
      <trkpt lat="43.6611" lon="-1.4248">
        <ele>2.54</ele>
        <time>2021-07-07T13:23:05Z</time>
      </trkpt>
      <trkpt lat="43.66105" lon="-1.42503">
        <ele>2.06</ele>
        <time>2021-07-07T13:23:09Z</time>
      </trkpt>
      <trkpt lat="43.66103" lon="-1.42508">
        <ele>2.06</ele>
        <time>2021-07-07T13:23:10Z</time>
      </trkpt>
      <trkpt lat="43.66101" lon="-1.42512">
        <ele>2.06</ele>
        <time>2021-07-07T13:23:11Z</time>
      </trkpt>
      <trkpt lat="43.66078" lon="-1.4253">
        <ele>1.1</ele>
        <time>2021-07-07T13:23:22Z</time>
      </trkpt>
      <trkpt lat="43.66054" lon="-1.42574">
        <ele>-4.67</ele>
        <time>2021-07-07T13:23:35Z</time>
      </trkpt>
      <trkpt lat="43.66023" lon="-1.42631">
        <ele>-6.11</ele>
        <time>2021-07-07T13:23:49Z</time>
      </trkpt>
      <trkpt lat="43.66008" lon="-1.42662">
        <ele>-3.23</ele>
        <time>2021-07-07T13:23:59Z</time>
      </trkpt>
      <trkpt lat="43.66008" lon="-1.42666">
        <ele>-2.27</ele>
        <time>2021-07-07T13:24:00Z</time>
      </trkpt>
      <trkpt lat="43.66006" lon="-1.42665">
        <ele>-1.79</ele>
        <time>2021-07-07T13:24:01Z</time>
      </trkpt>
      <trkpt lat="43.66004" lon="-1.42664">
        <ele>-1.79</ele>
        <time>2021-07-07T13:24:02Z</time>
      </trkpt>
      <trkpt lat="43.66002" lon="-1.42663">
        <ele>-1.3</ele>
        <time>2021-07-07T13:24:03Z</time>
      </trkpt>
      <trkpt lat="43.66" lon="-1.42662">
        <ele>-1.3</ele>
        <time>2021-07-07T13:24:04Z</time>
      </trkpt>
      <trkpt lat="43.65996" lon="-1.42663">
        <ele>-0.82</ele>
        <time>2021-07-07T13:24:05Z</time>
      </trkpt>
      <trkpt lat="43.65994" lon="-1.42665">
        <ele>-0.82</ele>
        <time>2021-07-07T13:24:06Z</time>
      </trkpt>
      <trkpt lat="43.65989" lon="-1.42669">
        <ele>0.14</ele>
        <time>2021-07-07T13:24:07Z</time>
      </trkpt>
      <trkpt lat="43.65951" lon="-1.42701">
        <ele>3.5</ele>
        <time>2021-07-07T13:24:22Z</time>
      </trkpt>
      <trkpt lat="43.65947" lon="-1.42705">
        <ele>3.98</ele>
        <time>2021-07-07T13:24:35Z</time>
      </trkpt>
      <trkpt lat="43.65947" lon="-1.42703">
        <ele>3.98</ele>
        <time>2021-07-07T13:24:36Z</time>
      </trkpt>
      <trkpt lat="43.65947" lon="-1.42703">
        <ele>3.98</ele>
        <time>2021-07-07T13:24:37Z</time>
      </trkpt>
      <trkpt lat="43.65946" lon="-1.427">
        <ele>3.98</ele>
        <time>2021-07-07T13:24:38Z</time>
      </trkpt>
      <trkpt lat="43.65945" lon="-1.42696">
        <ele>3.98</ele>
        <time>2021-07-07T13:24:39Z</time>
      </trkpt>
      <trkpt lat="43.65945" lon="-1.42696">
        <ele>3.5</ele>
        <time>2021-07-07T13:24:57Z</time>
      </trkpt>
      <trkpt lat="43.65943" lon="-1.42689">
        <ele>3.5</ele>
        <time>2021-07-07T13:25:16Z</time>
      </trkpt>
      <trkpt lat="43.65936" lon="-1.42657">
        <ele>3.98</ele>
        <time>2021-07-07T13:25:33Z</time>
      </trkpt>
      <trkpt lat="43.65962" lon="-1.42638">
        <ele>3.02</ele>
        <time>2021-07-07T13:25:46Z</time>
      </trkpt>
      <trkpt lat="43.65991" lon="-1.42612">
        <ele>1.58</ele>
        <time>2021-07-07T13:25:58Z</time>
      </trkpt>
      <trkpt lat="43.66011" lon="-1.42594">
        <ele>1.58</ele>
        <time>2021-07-07T13:26:08Z</time>
      </trkpt>
      <trkpt lat="43.66051" lon="-1.42552">
        <ele>1.1</ele>
        <time>2021-07-07T13:26:23Z</time>
      </trkpt>
      <trkpt lat="43.66072" lon="-1.42541">
        <ele>-0.82</ele>
        <time>2021-07-07T13:26:33Z</time>
      </trkpt>
      <trkpt lat="43.66083" lon="-1.4252">
        <ele>-0.34</ele>
        <time>2021-07-07T13:26:39Z</time>
      </trkpt>
      <trkpt lat="43.66083" lon="-1.42511">
        <ele>-0.34</ele>
        <time>2021-07-07T13:26:40Z</time>
      </trkpt>
      <trkpt lat="43.66082" lon="-1.42508">
        <ele>0.14</ele>
        <time>2021-07-07T13:26:41Z</time>
      </trkpt>
      <trkpt lat="43.6608" lon="-1.42504">
        <ele>-0.34</ele>
        <time>2021-07-07T13:26:42Z</time>
      </trkpt>
      <trkpt lat="43.66078" lon="-1.425">
        <ele>-0.34</ele>
        <time>2021-07-07T13:26:43Z</time>
      </trkpt>
      <trkpt lat="43.66072" lon="-1.42497">
        <ele>-0.82</ele>
        <time>2021-07-07T13:26:44Z</time>
      </trkpt>
      <trkpt lat="43.66068" lon="-1.42498">
        <ele>-1.3</ele>
        <time>2021-07-07T13:26:45Z</time>
      </trkpt>
      <trkpt lat="43.66062" lon="-1.42499">
        <ele>-1.79</ele>
        <time>2021-07-07T13:26:46Z</time>
      </trkpt>
      <trkpt lat="43.66057" lon="-1.425">
        <ele>-2.75</ele>
        <time>2021-07-07T13:26:47Z</time>
      </trkpt>
      <trkpt lat="43.66051" lon="-1.42502">
        <ele>-3.23</ele>
        <time>2021-07-07T13:26:48Z</time>
      </trkpt>
      <trkpt lat="43.66046" lon="-1.42503">
        <ele>-3.71</ele>
        <time>2021-07-07T13:26:49Z</time>
      </trkpt>
      <trkpt lat="43.66022" lon="-1.42508">
        <ele>-6.11</ele>
        <time>2021-07-07T13:26:53Z</time>
      </trkpt>
      <trkpt lat="43.65984" lon="-1.42532">
        <ele>-9</ele>
        <time>2021-07-07T13:27:00Z</time>
      </trkpt>
      <trkpt lat="43.65978" lon="-1.42536">
        <ele>-9.48</ele>
        <time>2021-07-07T13:27:01Z</time>
      </trkpt>
      <trkpt lat="43.65973" lon="-1.42542">
        <ele>-9.48</ele>
        <time>2021-07-07T13:27:02Z</time>
      </trkpt>
      <trkpt lat="43.65938" lon="-1.42583">
        <ele>-8.03</ele>
        <time>2021-07-07T13:27:11Z</time>
      </trkpt>
      <trkpt lat="43.65927" lon="-1.42597">
        <ele>-8.51</ele>
        <time>2021-07-07T13:27:16Z</time>
      </trkpt>
      <trkpt lat="43.65911" lon="-1.4261">
        <ele>-9.48</ele>
        <time>2021-07-07T13:27:20Z</time>
      </trkpt>
      <trkpt lat="43.65843" lon="-1.4264">
        <ele>-7.55</ele>
        <time>2021-07-07T13:27:34Z</time>
      </trkpt>
      <trkpt lat="43.65838" lon="-1.42642">
        <ele>-7.55</ele>
        <time>2021-07-07T13:27:35Z</time>
      </trkpt>
      <trkpt lat="43.65834" lon="-1.42646">
        <ele>-7.55</ele>
        <time>2021-07-07T13:27:36Z</time>
      </trkpt>
      <trkpt lat="43.65831" lon="-1.4265">
        <ele>-7.55</ele>
        <time>2021-07-07T13:27:37Z</time>
      </trkpt>
      <trkpt lat="43.65827" lon="-1.42653">
        <ele>-7.55</ele>
        <time>2021-07-07T13:27:38Z</time>
      </trkpt>
      <trkpt lat="43.65824" lon="-1.42656">
        <ele>-7.55</ele>
        <time>2021-07-07T13:27:39Z</time>
      </trkpt>
      <trkpt lat="43.65814" lon="-1.42672">
        <ele>-6.11</ele>
        <time>2021-07-07T13:27:48Z</time>
      </trkpt>
      <trkpt lat="43.65812" lon="-1.42687">
        <ele>-5.15</ele>
        <time>2021-07-07T13:27:58Z</time>
      </trkpt>
      <trkpt lat="43.65823" lon="-1.42709">
        <ele>-5.63</ele>
        <time>2021-07-07T13:28:05Z</time>
      </trkpt>
      <trkpt lat="43.65822" lon="-1.42717">
        <ele>-5.63</ele>
        <time>2021-07-07T13:28:06Z</time>
      </trkpt>
      <trkpt lat="43.65819" lon="-1.42719">
        <ele>-5.15</ele>
        <time>2021-07-07T13:28:07Z</time>
      </trkpt>
      <trkpt lat="43.65816" lon="-1.42722">
        <ele>-5.15</ele>
        <time>2021-07-07T13:28:08Z</time>
      </trkpt>
      <trkpt lat="43.65813" lon="-1.42723">
        <ele>-5.15</ele>
        <time>2021-07-07T13:28:09Z</time>
      </trkpt>
      <trkpt lat="43.65807" lon="-1.42719">
        <ele>-4.67</ele>
        <time>2021-07-07T13:28:10Z</time>
      </trkpt>
      <trkpt lat="43.65805" lon="-1.42716">
        <ele>-4.67</ele>
        <time>2021-07-07T13:28:11Z</time>
      </trkpt>
      <trkpt lat="43.658" lon="-1.42711">
        <ele>-4.67</ele>
        <time>2021-07-07T13:28:12Z</time>
      </trkpt>
      <trkpt lat="43.65796" lon="-1.42712">
        <ele>-4.67</ele>
        <time>2021-07-07T13:28:13Z</time>
      </trkpt>
      <trkpt lat="43.65791" lon="-1.42714">
        <ele>-4.67</ele>
        <time>2021-07-07T13:28:14Z</time>
      </trkpt>
      <trkpt lat="43.65704" lon="-1.42724">
        <ele>-7.07</ele>
        <time>2021-07-07T13:28:28Z</time>
      </trkpt>
      <trkpt lat="43.65698" lon="-1.42724">
        <ele>-7.07</ele>
        <time>2021-07-07T13:28:35Z</time>
      </trkpt>
      <trkpt lat="43.65691" lon="-1.42724">
        <ele>-7.55</ele>
        <time>2021-07-07T13:28:36Z</time>
      </trkpt>
      <trkpt lat="43.65686" lon="-1.42724">
        <ele>-7.07</ele>
        <time>2021-07-07T13:28:37Z</time>
      </trkpt>
      <trkpt lat="43.65686" lon="-1.42724">
        <ele>-7.07</ele>
        <time>2021-07-07T13:28:38Z</time>
      </trkpt>
      <trkpt lat="43.65684" lon="-1.42724">
        <ele>-6.59</ele>
        <time>2021-07-07T13:28:40Z</time>
      </trkpt>
      <trkpt lat="43.65684" lon="-1.42724">
        <ele>-6.11</ele>
        <time>2021-07-07T13:28:41Z</time>
      </trkpt>
      <trkpt lat="43.65684" lon="-1.42724">
        <ele>-5.15</ele>
        <time>2021-07-07T13:28:59Z</time>
      </trkpt>
      <trkpt lat="43.65684" lon="-1.42724">
        <ele>-5.15</ele>
        <time>2021-07-07T13:29:19Z</time>
      </trkpt>
      <trkpt lat="43.65684" lon="-1.42724">
        <ele>-4.67</ele>
        <time>2021-07-07T13:30:12Z</time>
      </trkpt>
      <trkpt lat="43.65684" lon="-1.42724">
        <ele>-4.67</ele>
        <time>2021-07-07T13:30:44Z</time>
      </trkpt>
      <trkpt lat="43.65684" lon="-1.42724">
        <ele>-5.15</ele>
        <time>2021-07-07T13:31:22Z</time>
      </trkpt>
      <trkpt lat="43.65684" lon="-1.42724">
        <ele>-5.63</ele>
        <time>2021-07-07T13:32:02Z</time>
      </trkpt>
      <trkpt lat="43.65684" lon="-1.42724">
        <ele>-6.11</ele>
        <time>2021-07-07T13:32:52Z</time>
      </trkpt>
      <trkpt lat="43.65684" lon="-1.42724">
        <ele>-6.11</ele>
        <time>2021-07-07T13:34:14Z</time>
      </trkpt>
      <trkpt lat="43.65684" lon="-1.42724">
        <ele>-6.11</ele>
        <time>2021-07-07T13:35:05Z</time>
      </trkpt>
      <trkpt lat="43.65684" lon="-1.42724">
        <ele>-6.11</ele>
        <time>2021-07-07T13:36:19Z</time>
      </trkpt>
      <trkpt lat="43.65684" lon="-1.42724">
        <ele>-6.11</ele>
        <time>2021-07-07T13:37:24Z</time>
      </trkpt>
      <trkpt lat="43.65684" lon="-1.42724">
        <ele>-6.11</ele>
        <time>2021-07-07T13:38:45Z</time>
      </trkpt>
      <trkpt lat="43.65684" lon="-1.42724">
        <ele>-5.63</ele>
        <time>2021-07-07T13:39:57Z</time>
      </trkpt>
      <trkpt lat="43.65684" lon="-1.42724">
        <ele>-5.63</ele>
        <time>2021-07-07T13:41:37Z</time>
      </trkpt>
      <trkpt lat="43.65684" lon="-1.42724">
        <ele>-5.63</ele>
        <time>2021-07-07T13:42:50Z</time>
      </trkpt>
      <trkpt lat="43.65684" lon="-1.42724">
        <ele>-5.15</ele>
        <time>2021-07-07T13:43:34Z</time>
      </trkpt>
      <trkpt lat="43.65684" lon="-1.42724">
        <ele>-4.67</ele>
        <time>2021-07-07T13:44:19Z</time>
      </trkpt>
      <trkpt lat="43.65684" lon="-1.42724">
        <ele>-4.67</ele>
        <time>2021-07-07T13:45:35Z</time>
      </trkpt>
      <trkpt lat="43.65684" lon="-1.42724">
        <ele>-5.15</ele>
        <time>2021-07-07T13:46:45Z</time>
      </trkpt>
    </trkseg>
  </trk>
  <trk>
    <name><![CDATA[Journal actif: 2021-07-07 11:47]]></name>
    <trkseg>
      <trkpt lat="43.65684" lon="-1.42724">
        <ele>-5.15</ele>
        <time>2021-07-07T13:47:19Z</time>
      </trkpt>
      <trkpt lat="43.65663" lon="-1.42724">
        <ele>-4.67</ele>
        <time>2021-07-07T13:47:50Z</time>
      </trkpt>
      <trkpt lat="43.65659" lon="-1.42724">
        <ele>-5.15</ele>
        <time>2021-07-07T13:47:51Z</time>
      </trkpt>
      <trkpt lat="43.65655" lon="-1.42724">
        <ele>-5.15</ele>
        <time>2021-07-07T13:47:52Z</time>
      </trkpt>
      <trkpt lat="43.65593" lon="-1.42724">
        <ele>-4.67</ele>
        <time>2021-07-07T13:48:05Z</time>
      </trkpt>
      <trkpt lat="43.65496" lon="-1.42723">
        <ele>-5.63</ele>
        <time>2021-07-07T13:48:22Z</time>
      </trkpt>
      <trkpt lat="43.6537" lon="-1.42722">
        <ele>-5.63</ele>
        <time>2021-07-07T13:48:39Z</time>
      </trkpt>
      <trkpt lat="43.65356" lon="-1.42722">
        <ele>-5.15</ele>
        <time>2021-07-07T13:48:48Z</time>
      </trkpt>
      <trkpt lat="43.65335" lon="-1.42734">
        <ele>-5.15</ele>
        <time>2021-07-07T13:48:56Z</time>
      </trkpt>
      <trkpt lat="43.65311" lon="-1.42722">
        <ele>-5.63</ele>
        <time>2021-07-07T13:49:04Z</time>
      </trkpt>
      <trkpt lat="43.65307" lon="-1.42722">
        <ele>-5.63</ele>
        <time>2021-07-07T13:49:05Z</time>
      </trkpt>
      <trkpt lat="43.65229" lon="-1.42723">
        <ele>-5.15</ele>
        <time>2021-07-07T13:49:16Z</time>
      </trkpt>
      <trkpt lat="43.65188" lon="-1.42723">
        <ele>-4.67</ele>
        <time>2021-07-07T13:49:21Z</time>
      </trkpt>
      <trkpt lat="43.65188" lon="-1.42723">
        <ele>-4.67</ele>
        <time>2021-07-07T13:49:22Z</time>
      </trkpt>
      <trkpt lat="43.65184" lon="-1.42723">
        <ele>-4.67</ele>
        <time>2021-07-07T13:49:23Z</time>
      </trkpt>
      <trkpt lat="43.65179" lon="-1.42724">
        <ele>-4.19</ele>
        <time>2021-07-07T13:49:24Z</time>
      </trkpt>
      <trkpt lat="43.65171" lon="-1.42734">
        <ele>-4.19</ele>
        <time>2021-07-07T13:49:25Z</time>
      </trkpt>
      <trkpt lat="43.65171" lon="-1.42734">
        <ele>-4.19</ele>
        <time>2021-07-07T13:49:26Z</time>
      </trkpt>
      <trkpt lat="43.65165" lon="-1.42738">
        <ele>-4.19</ele>
        <time>2021-07-07T13:49:27Z</time>
      </trkpt>
      <trkpt lat="43.6516" lon="-1.42737">
        <ele>-4.19</ele>
        <time>2021-07-07T13:49:28Z</time>
      </trkpt>
      <trkpt lat="43.65156" lon="-1.42737">
        <ele>-4.19</ele>
        <time>2021-07-07T13:49:29Z</time>
      </trkpt>
      <trkpt lat="43.65146" lon="-1.42721">
        <ele>-4.19</ele>
        <time>2021-07-07T13:49:30Z</time>
      </trkpt>
      <trkpt lat="43.6514" lon="-1.42722">
        <ele>-4.19</ele>
        <time>2021-07-07T13:49:31Z</time>
      </trkpt>
      <trkpt lat="43.65133" lon="-1.42722">
        <ele>-3.71</ele>
        <time>2021-07-07T13:49:32Z</time>
      </trkpt>
      <trkpt lat="43.65133" lon="-1.42722">
        <ele>-4.19</ele>
        <time>2021-07-07T13:49:33Z</time>
      </trkpt>
      <trkpt lat="43.65015" lon="-1.42722">
        <ele>-3.23</ele>
        <time>2021-07-07T13:49:48Z</time>
      </trkpt>
      <trkpt lat="43.64856" lon="-1.42723">
        <ele>-2.27</ele>
        <time>2021-07-07T13:50:04Z</time>
      </trkpt>
      <trkpt lat="43.64659" lon="-1.42725">
        <ele>0.14</ele>
        <time>2021-07-07T13:50:23Z</time>
      </trkpt>
      <trkpt lat="43.64594" lon="-1.42718">
        <ele>0.14</ele>
        <time>2021-07-07T13:50:33Z</time>
      </trkpt>
      <trkpt lat="43.64575" lon="-1.42721">
        <ele>-0.82</ele>
        <time>2021-07-07T13:50:40Z</time>
      </trkpt>
      <trkpt lat="43.64573" lon="-1.42723">
        <ele>-0.82</ele>
        <time>2021-07-07T13:50:41Z</time>
      </trkpt>
      <trkpt lat="43.6457" lon="-1.42729">
        <ele>-0.82</ele>
        <time>2021-07-07T13:50:42Z</time>
      </trkpt>
      <trkpt lat="43.64579" lon="-1.42799">
        <ele>0.14</ele>
        <time>2021-07-07T13:50:53Z</time>
      </trkpt>
      <trkpt lat="43.64588" lon="-1.42872">
        <ele>0.62</ele>
        <time>2021-07-07T13:51:04Z</time>
      </trkpt>
      <trkpt lat="43.64593" lon="-1.4291">
        <ele>1.1</ele>
        <time>2021-07-07T13:51:10Z</time>
      </trkpt>
      <trkpt lat="43.64602" lon="-1.42982">
        <ele>1.1</ele>
        <time>2021-07-07T13:51:22Z</time>
      </trkpt>
      <trkpt lat="43.64613" lon="-1.43101">
        <ele>2.06</ele>
        <time>2021-07-07T13:51:36Z</time>
      </trkpt>
      <trkpt lat="43.64615" lon="-1.43122">
        <ele>2.06</ele>
        <time>2021-07-07T13:51:44Z</time>
      </trkpt>
      <trkpt lat="43.64618" lon="-1.43154">
        <ele>2.06</ele>
        <time>2021-07-07T13:51:53Z</time>
      </trkpt>
      <trkpt lat="43.64619" lon="-1.43163">
        <ele>2.06</ele>
        <time>2021-07-07T13:51:55Z</time>
      </trkpt>
      <trkpt lat="43.64616" lon="-1.43165">
        <ele>2.06</ele>
        <time>2021-07-07T13:51:56Z</time>
      </trkpt>
      <trkpt lat="43.64616" lon="-1.43165">
        <ele>1.58</ele>
        <time>2021-07-07T13:51:57Z</time>
      </trkpt>
      <trkpt lat="43.64608" lon="-1.43167">
        <ele>1.1</ele>
        <time>2021-07-07T13:51:58Z</time>
      </trkpt>
      <trkpt lat="43.64604" lon="-1.43168">
        <ele>1.1</ele>
        <time>2021-07-07T13:51:59Z</time>
      </trkpt>
      <trkpt lat="43.64552" lon="-1.43184">
        <ele>1.1</ele>
        <time>2021-07-07T13:52:08Z</time>
      </trkpt>
      <trkpt lat="43.6449" lon="-1.43221">
        <ele>-0.82</ele>
        <time>2021-07-07T13:52:20Z</time>
      </trkpt>
      <trkpt lat="43.64458" lon="-1.43236">
        <ele>-1.3</ele>
        <time>2021-07-07T13:52:32Z</time>
      </trkpt>
      <trkpt lat="43.64434" lon="-1.43245">
        <ele>-1.79</ele>
        <time>2021-07-07T13:52:50Z</time>
      </trkpt>
      <trkpt lat="43.64414" lon="-1.43251">
        <ele>-1.79</ele>
        <time>2021-07-07T13:52:56Z</time>
      </trkpt>
      <trkpt lat="43.6441" lon="-1.43253">
        <ele>-1.79</ele>
        <time>2021-07-07T13:52:57Z</time>
      </trkpt>
      <trkpt lat="43.64407" lon="-1.43262">
        <ele>-1.79</ele>
        <time>2021-07-07T13:52:58Z</time>
      </trkpt>
      <trkpt lat="43.64408" lon="-1.43267">
        <ele>-1.79</ele>
        <time>2021-07-07T13:52:59Z</time>
      </trkpt>
      <trkpt lat="43.64408" lon="-1.43273">
        <ele>-1.79</ele>
        <time>2021-07-07T13:53:00Z</time>
      </trkpt>
      <trkpt lat="43.64408" lon="-1.43279">
        <ele>-1.79</ele>
        <time>2021-07-07T13:53:01Z</time>
      </trkpt>
      <trkpt lat="43.6442" lon="-1.43372">
        <ele>-1.79</ele>
        <time>2021-07-07T13:53:15Z</time>
      </trkpt>
      <trkpt lat="43.64424" lon="-1.43386">
        <ele>-2.75</ele>
        <time>2021-07-07T13:53:18Z</time>
      </trkpt>
      <trkpt lat="43.64426" lon="-1.43392">
        <ele>-2.27</ele>
        <time>2021-07-07T13:53:19Z</time>
      </trkpt>
      <trkpt lat="43.6443" lon="-1.43398">
        <ele>-2.27</ele>
        <time>2021-07-07T13:53:20Z</time>
      </trkpt>
      <trkpt lat="43.64433" lon="-1.43403">
        <ele>-2.27</ele>
        <time>2021-07-07T13:53:21Z</time>
      </trkpt>
      <trkpt lat="43.64436" lon="-1.43409">
        <ele>-2.27</ele>
        <time>2021-07-07T13:53:22Z</time>
      </trkpt>
      <trkpt lat="43.6444" lon="-1.43413">
        <ele>-2.27</ele>
        <time>2021-07-07T13:53:23Z</time>
      </trkpt>
      <trkpt lat="43.64444" lon="-1.43416">
        <ele>-2.75</ele>
        <time>2021-07-07T13:53:24Z</time>
      </trkpt>
      <trkpt lat="43.64449" lon="-1.4342">
        <ele>-2.75</ele>
        <time>2021-07-07T13:53:25Z</time>
      </trkpt>
      <trkpt lat="43.64455" lon="-1.43422">
        <ele>-2.75</ele>
        <time>2021-07-07T13:53:26Z</time>
      </trkpt>
      <trkpt lat="43.64551" lon="-1.43449">
        <ele>-3.23</ele>
        <time>2021-07-07T13:53:42Z</time>
      </trkpt>
      <trkpt lat="43.64637" lon="-1.43482">
        <ele>-4.19</ele>
        <time>2021-07-07T13:53:56Z</time>
      </trkpt>
      <trkpt lat="43.64741" lon="-1.43523">
        <ele>-5.15</ele>
        <time>2021-07-07T13:54:12Z</time>
      </trkpt>
      <trkpt lat="43.64843" lon="-1.43558">
        <ele>-5.63</ele>
        <time>2021-07-07T13:54:28Z</time>
      </trkpt>
      <trkpt lat="43.64869" lon="-1.43564">
        <ele>-4.19</ele>
        <time>2021-07-07T13:54:34Z</time>
      </trkpt>
      <trkpt lat="43.64877" lon="-1.4356">
        <ele>-4.19</ele>
        <time>2021-07-07T13:54:37Z</time>
      </trkpt>
      <trkpt lat="43.64878" lon="-1.43562">
        <ele>-4.19</ele>
        <time>2021-07-07T13:54:38Z</time>
      </trkpt>
      <trkpt lat="43.6488" lon="-1.43565">
        <ele>-4.19</ele>
        <time>2021-07-07T13:54:39Z</time>
      </trkpt>
      <trkpt lat="43.64891" lon="-1.43572">
        <ele>-3.71</ele>
        <time>2021-07-07T13:54:42Z</time>
      </trkpt>
      <trkpt lat="43.64895" lon="-1.43573">
        <ele>-3.71</ele>
        <time>2021-07-07T13:54:43Z</time>
      </trkpt>
      <trkpt lat="43.64976" lon="-1.43603">
        <ele>-4.67</ele>
        <time>2021-07-07T13:55:00Z</time>
      </trkpt>
      <trkpt lat="43.65078" lon="-1.43636">
        <ele>-6.59</ele>
        <time>2021-07-07T13:55:17Z</time>
      </trkpt>
      <trkpt lat="43.6519" lon="-1.43679">
        <ele>-6.59</ele>
        <time>2021-07-07T13:55:33Z</time>
      </trkpt>
      <trkpt lat="43.65222" lon="-1.43699">
        <ele>-6.59</ele>
        <time>2021-07-07T13:55:40Z</time>
      </trkpt>
      <trkpt lat="43.65274" lon="-1.43804">
        <ele>-3.71</ele>
        <time>2021-07-07T13:55:54Z</time>
      </trkpt>
      <trkpt lat="43.65323" lon="-1.43927">
        <ele>-1.79</ele>
        <time>2021-07-07T13:56:12Z</time>
      </trkpt>
      <trkpt lat="43.65353" lon="-1.44004">
        <ele>-0.82</ele>
        <time>2021-07-07T13:56:27Z</time>
      </trkpt>
      <trkpt lat="43.65358" lon="-1.44016">
        <ele>-0.34</ele>
        <time>2021-07-07T13:56:39Z</time>
      </trkpt>
      <trkpt lat="43.65369" lon="-1.44044">
        <ele>0.14</ele>
        <time>2021-07-07T13:56:52Z</time>
      </trkpt>
      <trkpt lat="43.65389" lon="-1.44096">
        <ele>0.14</ele>
        <time>2021-07-07T13:57:02Z</time>
      </trkpt>
      <trkpt lat="43.6543" lon="-1.44217">
        <ele>0.14</ele>
        <time>2021-07-07T13:57:18Z</time>
      </trkpt>
      <trkpt lat="43.6545" lon="-1.44318">
        <ele>1.1</ele>
        <time>2021-07-07T13:57:33Z</time>
      </trkpt>
      <trkpt lat="43.65451" lon="-1.44324">
        <ele>1.58</ele>
        <time>2021-07-07T13:57:35Z</time>
      </trkpt>
      <trkpt lat="43.65452" lon="-1.44327">
        <ele>1.58</ele>
        <time>2021-07-07T13:57:36Z</time>
      </trkpt>
      <trkpt lat="43.6545" lon="-1.44327">
        <ele>1.58</ele>
        <time>2021-07-07T13:57:37Z</time>
      </trkpt>
      <trkpt lat="43.65447" lon="-1.44329">
        <ele>1.58</ele>
        <time>2021-07-07T13:57:38Z</time>
      </trkpt>
      <trkpt lat="43.65444" lon="-1.4433">
        <ele>1.58</ele>
        <time>2021-07-07T13:57:39Z</time>
      </trkpt>
      <trkpt lat="43.65397" lon="-1.44347">
        <ele>2.06</ele>
        <time>2021-07-07T13:57:51Z</time>
      </trkpt>
      <trkpt lat="43.65374" lon="-1.4437">
        <ele>1.58</ele>
        <time>2021-07-07T13:58:03Z</time>
      </trkpt>
      <trkpt lat="43.65337" lon="-1.44407">
        <ele>2.06</ele>
        <time>2021-07-07T13:58:18Z</time>
      </trkpt>
      <trkpt lat="43.65337" lon="-1.44407">
        <ele>1.58</ele>
        <time>2021-07-07T13:58:23Z</time>
      </trkpt>
      <trkpt lat="43.65335" lon="-1.44409">
        <ele>1.58</ele>
        <time>2021-07-07T13:58:24Z</time>
      </trkpt>
      <trkpt lat="43.65331" lon="-1.44408">
        <ele>1.58</ele>
        <time>2021-07-07T13:58:25Z</time>
      </trkpt>
      <trkpt lat="43.6533" lon="-1.44405">
        <ele>1.58</ele>
        <time>2021-07-07T13:58:26Z</time>
      </trkpt>
      <trkpt lat="43.6533" lon="-1.44402">
        <ele>1.58</ele>
        <time>2021-07-07T13:58:27Z</time>
      </trkpt>
      <trkpt lat="43.65329" lon="-1.444">
        <ele>1.1</ele>
        <time>2021-07-07T13:58:28Z</time>
      </trkpt>
      <trkpt lat="43.65329" lon="-1.44398">
        <ele>1.1</ele>
        <time>2021-07-07T13:58:29Z</time>
      </trkpt>
      <trkpt lat="43.65329" lon="-1.44397">
        <ele>0.62</ele>
        <time>2021-07-07T13:58:46Z</time>
      </trkpt>
      <trkpt lat="43.65329" lon="-1.44397">
        <ele>0.62</ele>
        <time>2021-07-07T14:01:24Z</time>
      </trkpt>
      <trkpt lat="43.65329" lon="-1.44397">
        <ele>0.62</ele>
        <time>2021-07-07T14:04:55Z</time>
      </trkpt>
    </trkseg>
  </trk>
  <trk>
    <name><![CDATA[Journal actif: 2021-07-07 12:07]]></name>
    <trkseg>
      <trkpt lat="43.65329" lon="-1.44397">
        <ele>0.14</ele>
        <time>2021-07-07T14:07:43Z</time>
      </trkpt>
      <trkpt lat="43.65323" lon="-1.44367">
        <ele>-0.82</ele>
        <time>2021-07-07T14:08:47Z</time>
      </trkpt>
      <trkpt lat="43.6532" lon="-1.44347">
        <ele>-0.34</ele>
        <time>2021-07-07T14:09:06Z</time>
      </trkpt>
      <trkpt lat="43.65319" lon="-1.44345">
        <ele>-0.34</ele>
        <time>2021-07-07T14:09:07Z</time>
      </trkpt>
      <trkpt lat="43.65319" lon="-1.44343">
        <ele>-0.34</ele>
        <time>2021-07-07T14:09:08Z</time>
      </trkpt>
      <trkpt lat="43.6532" lon="-1.44342">
        <ele>-0.34</ele>
        <time>2021-07-07T14:09:09Z</time>
      </trkpt>
      <trkpt lat="43.65322" lon="-1.44342">
        <ele>-0.34</ele>
        <time>2021-07-07T14:09:10Z</time>
      </trkpt>
      <trkpt lat="43.65325" lon="-1.44342">
        <ele>-0.34</ele>
        <time>2021-07-07T14:09:11Z</time>
      </trkpt>
      <trkpt lat="43.65329" lon="-1.44343">
        <ele>-0.34</ele>
        <time>2021-07-07T14:09:12Z</time>
      </trkpt>
      <trkpt lat="43.65379" lon="-1.4435">
        <ele>0.62</ele>
        <time>2021-07-07T14:09:25Z</time>
      </trkpt>
      <trkpt lat="43.65388" lon="-1.44345">
        <ele>1.1</ele>
        <time>2021-07-07T14:09:28Z</time>
      </trkpt>
      <trkpt lat="43.65391" lon="-1.44346">
        <ele>1.1</ele>
        <time>2021-07-07T14:09:29Z</time>
      </trkpt>
      <trkpt lat="43.65393" lon="-1.44348">
        <ele>1.1</ele>
        <time>2021-07-07T14:09:30Z</time>
      </trkpt>
      <trkpt lat="43.65392" lon="-1.44352">
        <ele>0.62</ele>
        <time>2021-07-07T14:09:31Z</time>
      </trkpt>
      <trkpt lat="43.65391" lon="-1.44355">
        <ele>0.62</ele>
        <time>2021-07-07T14:09:32Z</time>
      </trkpt>
      <trkpt lat="43.65388" lon="-1.44364">
        <ele>0.62</ele>
        <time>2021-07-07T14:09:33Z</time>
      </trkpt>
      <trkpt lat="43.6539" lon="-1.44374">
        <ele>1.1</ele>
        <time>2021-07-07T14:09:34Z</time>
      </trkpt>
      <trkpt lat="43.6539" lon="-1.44374">
        <ele>2.06</ele>
        <time>2021-07-07T14:09:35Z</time>
      </trkpt>
      <trkpt lat="43.65409" lon="-1.44457">
        <ele>5.42</ele>
        <time>2021-07-07T14:09:49Z</time>
      </trkpt>
      <trkpt lat="43.65413" lon="-1.44476">
        <ele>5.42</ele>
        <time>2021-07-07T14:09:57Z</time>
      </trkpt>
      <trkpt lat="43.65412" lon="-1.44479">
        <ele>5.42</ele>
        <time>2021-07-07T14:09:58Z</time>
      </trkpt>
      <trkpt lat="43.6541" lon="-1.4448">
        <ele>5.42</ele>
        <time>2021-07-07T14:09:59Z</time>
      </trkpt>
      <trkpt lat="43.65407" lon="-1.44481">
        <ele>5.91</ele>
        <time>2021-07-07T14:10:00Z</time>
      </trkpt>
      <trkpt lat="43.65404" lon="-1.44483">
        <ele>6.39</ele>
        <time>2021-07-07T14:10:01Z</time>
      </trkpt>
      <trkpt lat="43.65338" lon="-1.44509">
        <ele>9.75</ele>
        <time>2021-07-07T14:10:17Z</time>
      </trkpt>
      <trkpt lat="43.65245" lon="-1.44537">
        <ele>12.15</ele>
        <time>2021-07-07T14:10:35Z</time>
      </trkpt>
      <trkpt lat="43.65196" lon="-1.44552">
        <ele>12.63</ele>
        <time>2021-07-07T14:10:48Z</time>
      </trkpt>
      <trkpt lat="43.65171" lon="-1.44556">
        <ele>12.63</ele>
        <time>2021-07-07T14:11:01Z</time>
      </trkpt>
      <trkpt lat="43.65118" lon="-1.44558">
        <ele>13.6</ele>
        <time>2021-07-07T14:11:16Z</time>
      </trkpt>
      <trkpt lat="43.65082" lon="-1.4456">
        <ele>14.56</ele>
        <time>2021-07-07T14:11:29Z</time>
      </trkpt>
      <trkpt lat="43.65075" lon="-1.44517">
        <ele>13.12</ele>
        <time>2021-07-07T14:11:41Z</time>
      </trkpt>
      <trkpt lat="43.65075" lon="-1.44495">
        <ele>12.15</ele>
        <time>2021-07-07T14:11:49Z</time>
      </trkpt>
      <trkpt lat="43.65076" lon="-1.44494">
        <ele>12.15</ele>
        <time>2021-07-07T14:11:51Z</time>
      </trkpt>
      <trkpt lat="43.65079" lon="-1.44493">
        <ele>11.67</ele>
        <time>2021-07-07T14:11:52Z</time>
      </trkpt>
      <trkpt lat="43.65124" lon="-1.44489">
        <ele>8.79</ele>
        <time>2021-07-07T14:12:06Z</time>
      </trkpt>
      <trkpt lat="43.6517" lon="-1.44483">
        <ele>5.91</ele>
        <time>2021-07-07T14:12:19Z</time>
      </trkpt>
      <trkpt lat="43.65171" lon="-1.44483">
        <ele>6.39</ele>
        <time>2021-07-07T14:12:20Z</time>
      </trkpt>
      <trkpt lat="43.65171" lon="-1.44484">
        <ele>6.39</ele>
        <time>2021-07-07T14:12:21Z</time>
      </trkpt>
      <trkpt lat="43.65171" lon="-1.44487">
        <ele>6.39</ele>
        <time>2021-07-07T14:12:22Z</time>
      </trkpt>
      <trkpt lat="43.65172" lon="-1.44492">
        <ele>6.39</ele>
        <time>2021-07-07T14:12:23Z</time>
      </trkpt>
      <trkpt lat="43.65172" lon="-1.44498">
        <ele>6.87</ele>
        <time>2021-07-07T14:12:24Z</time>
      </trkpt>
      <trkpt lat="43.65173" lon="-1.44504">
        <ele>6.87</ele>
        <time>2021-07-07T14:12:25Z</time>
      </trkpt>
      <trkpt lat="43.65174" lon="-1.4451">
        <ele>7.35</ele>
        <time>2021-07-07T14:12:26Z</time>
      </trkpt>
      <trkpt lat="43.65175" lon="-1.44523">
        <ele>7.83</ele>
        <time>2021-07-07T14:12:27Z</time>
      </trkpt>
      <trkpt lat="43.65175" lon="-1.44523">
        <ele>7.83</ele>
        <time>2021-07-07T14:12:28Z</time>
      </trkpt>
      <trkpt lat="43.65175" lon="-1.44529">
        <ele>8.31</ele>
        <time>2021-07-07T14:12:29Z</time>
      </trkpt>
      <trkpt lat="43.65179" lon="-1.44554">
        <ele>7.83</ele>
        <time>2021-07-07T14:12:36Z</time>
      </trkpt>
      <trkpt lat="43.65176" lon="-1.44556">
        <ele>7.83</ele>
        <time>2021-07-07T14:12:37Z</time>
      </trkpt>
      <trkpt lat="43.65173" lon="-1.44556">
        <ele>7.83</ele>
        <time>2021-07-07T14:12:38Z</time>
      </trkpt>
      <trkpt lat="43.65122" lon="-1.44558">
        <ele>10.23</ele>
        <time>2021-07-07T14:12:49Z</time>
      </trkpt>
      <trkpt lat="43.65078" lon="-1.4456">
        <ele>11.67</ele>
        <time>2021-07-07T14:13:01Z</time>
      </trkpt>
      <trkpt lat="43.65037" lon="-1.44533">
        <ele>12.15</ele>
        <time>2021-07-07T14:13:14Z</time>
      </trkpt>
      <trkpt lat="43.64992" lon="-1.44455">
        <ele>9.27</ele>
        <time>2021-07-07T14:13:30Z</time>
      </trkpt>
      <trkpt lat="43.64969" lon="-1.44416">
        <ele>9.27</ele>
        <time>2021-07-07T14:13:39Z</time>
      </trkpt>
      <trkpt lat="43.64966" lon="-1.44411">
        <ele>9.27</ele>
        <time>2021-07-07T14:13:40Z</time>
      </trkpt>
      <trkpt lat="43.64964" lon="-1.44408">
        <ele>9.75</ele>
        <time>2021-07-07T14:13:41Z</time>
      </trkpt>
      <trkpt lat="43.6496" lon="-1.44407">
        <ele>9.75</ele>
        <time>2021-07-07T14:13:42Z</time>
      </trkpt>
      <trkpt lat="43.64957" lon="-1.44407">
        <ele>10.23</ele>
        <time>2021-07-07T14:13:43Z</time>
      </trkpt>
      <trkpt lat="43.64952" lon="-1.44403">
        <ele>10.23</ele>
        <time>2021-07-07T14:13:44Z</time>
      </trkpt>
      <trkpt lat="43.6495" lon="-1.44399">
        <ele>10.23</ele>
        <time>2021-07-07T14:13:45Z</time>
      </trkpt>
      <trkpt lat="43.64952" lon="-1.44395">
        <ele>10.23</ele>
        <time>2021-07-07T14:13:46Z</time>
      </trkpt>
      <trkpt lat="43.64953" lon="-1.4439">
        <ele>10.23</ele>
        <time>2021-07-07T14:13:47Z</time>
      </trkpt>
      <trkpt lat="43.64952" lon="-1.44382">
        <ele>10.23</ele>
        <time>2021-07-07T14:13:48Z</time>
      </trkpt>
      <trkpt lat="43.64951" lon="-1.44378">
        <ele>10.23</ele>
        <time>2021-07-07T14:13:49Z</time>
      </trkpt>
      <trkpt lat="43.64949" lon="-1.44372">
        <ele>10.71</ele>
        <time>2021-07-07T14:13:50Z</time>
      </trkpt>
      <trkpt lat="43.64948" lon="-1.44367">
        <ele>10.23</ele>
        <time>2021-07-07T14:13:51Z</time>
      </trkpt>
      <trkpt lat="43.64945" lon="-1.44362">
        <ele>10.23</ele>
        <time>2021-07-07T14:13:52Z</time>
      </trkpt>
      <trkpt lat="43.64942" lon="-1.44357">
        <ele>9.75</ele>
        <time>2021-07-07T14:13:53Z</time>
      </trkpt>
      <trkpt lat="43.64895" lon="-1.44273">
        <ele>6.39</ele>
        <time>2021-07-07T14:14:08Z</time>
      </trkpt>
      <trkpt lat="43.64841" lon="-1.44182">
        <ele>5.91</ele>
        <time>2021-07-07T14:14:22Z</time>
      </trkpt>
      <trkpt lat="43.64821" lon="-1.44144">
        <ele>5.42</ele>
        <time>2021-07-07T14:14:27Z</time>
      </trkpt>
      <trkpt lat="43.64764" lon="-1.44038">
        <ele>6.87</ele>
        <time>2021-07-07T14:14:38Z</time>
      </trkpt>
      <trkpt lat="43.64703" lon="-1.43933">
        <ele>7.83</ele>
        <time>2021-07-07T14:14:52Z</time>
      </trkpt>
      <trkpt lat="43.64628" lon="-1.43805">
        <ele>4.46</ele>
        <time>2021-07-07T14:15:07Z</time>
      </trkpt>
      <trkpt lat="43.64565" lon="-1.4369">
        <ele>4.94</ele>
        <time>2021-07-07T14:15:19Z</time>
      </trkpt>
      <trkpt lat="43.64494" lon="-1.4357">
        <ele>5.42</ele>
        <time>2021-07-07T14:15:31Z</time>
      </trkpt>
      <trkpt lat="43.64443" lon="-1.43448">
        <ele>4.94</ele>
        <time>2021-07-07T14:15:45Z</time>
      </trkpt>
      <trkpt lat="43.64416" lon="-1.43348">
        <ele>5.42</ele>
        <time>2021-07-07T14:15:58Z</time>
      </trkpt>
      <trkpt lat="43.64413" lon="-1.43328">
        <ele>5.91</ele>
        <time>2021-07-07T14:16:08Z</time>
      </trkpt>
      <trkpt lat="43.64409" lon="-1.43291">
        <ele>5.91</ele>
        <time>2021-07-07T14:16:18Z</time>
      </trkpt>
      <trkpt lat="43.64407" lon="-1.43257">
        <ele>6.39</ele>
        <time>2021-07-07T14:16:29Z</time>
      </trkpt>
      <trkpt lat="43.64407" lon="-1.43257">
        <ele>7.35</ele>
        <time>2021-07-07T14:16:34Z</time>
      </trkpt>
      <trkpt lat="43.64409" lon="-1.43253">
        <ele>7.35</ele>
        <time>2021-07-07T14:16:35Z</time>
      </trkpt>
      <trkpt lat="43.64411" lon="-1.43252">
        <ele>7.35</ele>
        <time>2021-07-07T14:16:36Z</time>
      </trkpt>
      <trkpt lat="43.64464" lon="-1.43233">
        <ele>6.87</ele>
        <time>2021-07-07T14:16:46Z</time>
      </trkpt>
      <trkpt lat="43.6455" lon="-1.43185">
        <ele>7.83</ele>
        <time>2021-07-07T14:16:58Z</time>
      </trkpt>
      <trkpt lat="43.64584" lon="-1.43174">
        <ele>7.83</ele>
        <time>2021-07-07T14:17:07Z</time>
      </trkpt>
      <trkpt lat="43.64607" lon="-1.43167">
        <ele>6.87</ele>
        <time>2021-07-07T14:17:18Z</time>
      </trkpt>
      <trkpt lat="43.64618" lon="-1.43164">
        <ele>6.87</ele>
        <time>2021-07-07T14:17:20Z</time>
      </trkpt>
      <trkpt lat="43.64711" lon="-1.43149">
        <ele>3.98</ele>
        <time>2021-07-07T14:17:31Z</time>
      </trkpt>
      <trkpt lat="43.64802" lon="-1.43129">
        <ele>1.1</ele>
        <time>2021-07-07T14:17:41Z</time>
      </trkpt>
      <trkpt lat="43.64812" lon="-1.43126">
        <ele>1.1</ele>
        <time>2021-07-07T14:17:42Z</time>
      </trkpt>
      <trkpt lat="43.64827" lon="-1.43115">
        <ele>1.1</ele>
        <time>2021-07-07T14:17:43Z</time>
      </trkpt>
      <trkpt lat="43.64895" lon="-1.43062">
        <ele>-0.34</ele>
        <time>2021-07-07T14:17:53Z</time>
      </trkpt>
      <trkpt lat="43.64903" lon="-1.43059">
        <ele>-0.82</ele>
        <time>2021-07-07T14:17:54Z</time>
      </trkpt>
      <trkpt lat="43.6491" lon="-1.43056">
        <ele>-1.3</ele>
        <time>2021-07-07T14:17:55Z</time>
      </trkpt>
      <trkpt lat="43.64919" lon="-1.43057">
        <ele>-1.3</ele>
        <time>2021-07-07T14:17:56Z</time>
      </trkpt>
      <trkpt lat="43.64928" lon="-1.43059">
        <ele>-1.79</ele>
        <time>2021-07-07T14:17:57Z</time>
      </trkpt>
      <trkpt lat="43.64937" lon="-1.4306">
        <ele>-2.27</ele>
        <time>2021-07-07T14:17:58Z</time>
      </trkpt>
      <trkpt lat="43.65047" lon="-1.43093">
        <ele>-6.59</ele>
        <time>2021-07-07T14:18:09Z</time>
      </trkpt>
      <trkpt lat="43.6508" lon="-1.43105">
        <ele>-7.55</ele>
        <time>2021-07-07T14:18:15Z</time>
      </trkpt>
      <trkpt lat="43.6509" lon="-1.4311">
        <ele>-7.55</ele>
        <time>2021-07-07T14:18:16Z</time>
      </trkpt>
      <trkpt lat="43.65097" lon="-1.43107">
        <ele>-7.07</ele>
        <time>2021-07-07T14:18:17Z</time>
      </trkpt>
      <trkpt lat="43.65174" lon="-1.43074">
        <ele>-3.23</ele>
        <time>2021-07-07T14:18:29Z</time>
      </trkpt>
      <trkpt lat="43.65178" lon="-1.43072">
        <ele>-2.75</ele>
        <time>2021-07-07T14:18:30Z</time>
      </trkpt>
      <trkpt lat="43.65182" lon="-1.43069">
        <ele>-2.75</ele>
        <time>2021-07-07T14:18:31Z</time>
      </trkpt>
      <trkpt lat="43.65187" lon="-1.43063">
        <ele>-2.75</ele>
        <time>2021-07-07T14:18:32Z</time>
      </trkpt>
      <trkpt lat="43.65187" lon="-1.43063">
        <ele>-2.75</ele>
        <time>2021-07-07T14:18:33Z</time>
      </trkpt>
      <trkpt lat="43.65187" lon="-1.43051">
        <ele>-3.23</ele>
        <time>2021-07-07T14:18:34Z</time>
      </trkpt>
      <trkpt lat="43.65187" lon="-1.43051">
        <ele>-3.23</ele>
        <time>2021-07-07T14:18:35Z</time>
      </trkpt>
      <trkpt lat="43.65186" lon="-1.43043">
        <ele>-3.71</ele>
        <time>2021-07-07T14:18:36Z</time>
      </trkpt>
      <trkpt lat="43.65168" lon="-1.4292">
        <ele>-2.75</ele>
        <time>2021-07-07T14:18:47Z</time>
      </trkpt>
      <trkpt lat="43.65167" lon="-1.42895">
        <ele>-3.23</ele>
        <time>2021-07-07T14:18:49Z</time>
      </trkpt>
      <trkpt lat="43.65167" lon="-1.42883">
        <ele>-2.75</ele>
        <time>2021-07-07T14:18:50Z</time>
      </trkpt>
      <trkpt lat="43.65167" lon="-1.4287">
        <ele>-2.75</ele>
        <time>2021-07-07T14:18:51Z</time>
      </trkpt>
      <trkpt lat="43.65169" lon="-1.42857">
        <ele>-2.27</ele>
        <time>2021-07-07T14:18:52Z</time>
      </trkpt>
      <trkpt lat="43.65171" lon="-1.42845">
        <ele>-1.79</ele>
        <time>2021-07-07T14:18:53Z</time>
      </trkpt>
      <trkpt lat="43.65175" lon="-1.42824">
        <ele>-0.82</ele>
        <time>2021-07-07T14:18:55Z</time>
      </trkpt>
      <trkpt lat="43.65177" lon="-1.42803">
        <ele>-0.34</ele>
        <time>2021-07-07T14:18:57Z</time>
      </trkpt>
      <trkpt lat="43.65176" lon="-1.42783">
        <ele>-0.34</ele>
        <time>2021-07-07T14:18:59Z</time>
      </trkpt>
      <trkpt lat="43.65175" lon="-1.42774">
        <ele>-0.34</ele>
        <time>2021-07-07T14:19:00Z</time>
      </trkpt>
      <trkpt lat="43.65172" lon="-1.42757">
        <ele>-0.34</ele>
        <time>2021-07-07T14:19:02Z</time>
      </trkpt>
      <trkpt lat="43.65171" lon="-1.4275">
        <ele>-0.34</ele>
        <time>2021-07-07T14:19:03Z</time>
      </trkpt>
      <trkpt lat="43.65152" lon="-1.42732">
        <ele>0.62</ele>
        <time>2021-07-07T14:19:09Z</time>
      </trkpt>
      <trkpt lat="43.65152" lon="-1.42732">
        <ele>0.62</ele>
        <time>2021-07-07T14:19:10Z</time>
      </trkpt>
      <trkpt lat="43.65151" lon="-1.42727">
        <ele>0.62</ele>
        <time>2021-07-07T14:19:11Z</time>
      </trkpt>
      <trkpt lat="43.6515" lon="-1.4272">
        <ele>0.62</ele>
        <time>2021-07-07T14:19:12Z</time>
      </trkpt>
      <trkpt lat="43.65151" lon="-1.42714">
        <ele>0.62</ele>
        <time>2021-07-07T14:19:13Z</time>
      </trkpt>
      <trkpt lat="43.65155" lon="-1.4271">
        <ele>0.14</ele>
        <time>2021-07-07T14:19:14Z</time>
      </trkpt>
      <trkpt lat="43.65165" lon="-1.42708">
        <ele>0.14</ele>
        <time>2021-07-07T14:19:15Z</time>
      </trkpt>
      <trkpt lat="43.65171" lon="-1.42711">
        <ele>0.14</ele>
        <time>2021-07-07T14:19:16Z</time>
      </trkpt>
      <trkpt lat="43.65171" lon="-1.42711">
        <ele>-0.34</ele>
        <time>2021-07-07T14:19:17Z</time>
      </trkpt>
      <trkpt lat="43.65183" lon="-1.42724">
        <ele>-0.82</ele>
        <time>2021-07-07T14:19:19Z</time>
      </trkpt>
      <trkpt lat="43.6519" lon="-1.42723">
        <ele>-0.82</ele>
        <time>2021-07-07T14:19:20Z</time>
      </trkpt>
      <trkpt lat="43.65298" lon="-1.42722">
        <ele>-1.3</ele>
        <time>2021-07-07T14:19:34Z</time>
      </trkpt>
      <trkpt lat="43.65308" lon="-1.42722">
        <ele>-0.82</ele>
        <time>2021-07-07T14:19:36Z</time>
      </trkpt>
      <trkpt lat="43.65313" lon="-1.42722">
        <ele>-0.82</ele>
        <time>2021-07-07T14:19:37Z</time>
      </trkpt>
      <trkpt lat="43.65324" lon="-1.42703">
        <ele>0.14</ele>
        <time>2021-07-07T14:19:39Z</time>
      </trkpt>
      <trkpt lat="43.65332" lon="-1.42704">
        <ele>0.14</ele>
        <time>2021-07-07T14:19:40Z</time>
      </trkpt>
      <trkpt lat="43.65332" lon="-1.42704">
        <ele>0.62</ele>
        <time>2021-07-07T14:19:41Z</time>
      </trkpt>
      <trkpt lat="43.65337" lon="-1.42705">
        <ele>0.62</ele>
        <time>2021-07-07T14:19:42Z</time>
      </trkpt>
      <trkpt lat="43.65348" lon="-1.42722">
        <ele>1.1</ele>
        <time>2021-07-07T14:19:43Z</time>
      </trkpt>
      <trkpt lat="43.65362" lon="-1.42722">
        <ele>2.06</ele>
        <time>2021-07-07T14:19:46Z</time>
      </trkpt>
      <trkpt lat="43.6537" lon="-1.42722">
        <ele>2.54</ele>
        <time>2021-07-07T14:19:47Z</time>
      </trkpt>
      <trkpt lat="43.65472" lon="-1.42723">
        <ele>2.54</ele>
        <time>2021-07-07T14:19:57Z</time>
      </trkpt>
      <trkpt lat="43.65603" lon="-1.42724">
        <ele>1.58</ele>
        <time>2021-07-07T14:20:10Z</time>
      </trkpt>
      <trkpt lat="43.65677" lon="-1.42724">
        <ele>1.58</ele>
        <time>2021-07-07T14:20:20Z</time>
      </trkpt>
      <trkpt lat="43.65773" lon="-1.42718">
        <ele>0.14</ele>
        <time>2021-07-07T14:20:33Z</time>
      </trkpt>
      <trkpt lat="43.65802" lon="-1.42711">
        <ele>0.14</ele>
        <time>2021-07-07T14:20:40Z</time>
      </trkpt>
      <trkpt lat="43.65804" lon="-1.42704">
        <ele>0.14</ele>
        <time>2021-07-07T14:20:41Z</time>
      </trkpt>
      <trkpt lat="43.65806" lon="-1.42698">
        <ele>-0.34</ele>
        <time>2021-07-07T14:20:42Z</time>
      </trkpt>
      <trkpt lat="43.65811" lon="-1.42693">
        <ele>0.14</ele>
        <time>2021-07-07T14:20:43Z</time>
      </trkpt>
      <trkpt lat="43.65812" lon="-1.42685">
        <ele>0.14</ele>
        <time>2021-07-07T14:20:44Z</time>
      </trkpt>
      <trkpt lat="43.65813" lon="-1.42677">
        <ele>0.62</ele>
        <time>2021-07-07T14:20:45Z</time>
      </trkpt>
      <trkpt lat="43.65816" lon="-1.42668">
        <ele>0.62</ele>
        <time>2021-07-07T14:20:46Z</time>
      </trkpt>
      <trkpt lat="43.65821" lon="-1.42661">
        <ele>0.62</ele>
        <time>2021-07-07T14:20:47Z</time>
      </trkpt>
      <trkpt lat="43.65826" lon="-1.42654">
        <ele>0.62</ele>
        <time>2021-07-07T14:20:48Z</time>
      </trkpt>
      <trkpt lat="43.65832" lon="-1.42648">
        <ele>0.62</ele>
        <time>2021-07-07T14:20:49Z</time>
      </trkpt>
      <trkpt lat="43.65838" lon="-1.42643">
        <ele>0.62</ele>
        <time>2021-07-07T14:20:50Z</time>
      </trkpt>
      <trkpt lat="43.65844" lon="-1.4264">
        <ele>0.62</ele>
        <time>2021-07-07T14:20:51Z</time>
      </trkpt>
      <trkpt lat="43.65852" lon="-1.42637">
        <ele>1.1</ele>
        <time>2021-07-07T14:20:52Z</time>
      </trkpt>
      <trkpt lat="43.65914" lon="-1.42609">
        <ele>3.5</ele>
        <time>2021-07-07T14:21:00Z</time>
      </trkpt>
      <trkpt lat="43.6592" lon="-1.42605">
        <ele>3.5</ele>
        <time>2021-07-07T14:21:01Z</time>
      </trkpt>
      <trkpt lat="43.65926" lon="-1.42598">
        <ele>3.98</ele>
        <time>2021-07-07T14:21:02Z</time>
      </trkpt>
      <trkpt lat="43.65967" lon="-1.4255">
        <ele>3.02</ele>
        <time>2021-07-07T14:21:09Z</time>
      </trkpt>
      <trkpt lat="43.65973" lon="-1.42543">
        <ele>3.02</ele>
        <time>2021-07-07T14:21:10Z</time>
      </trkpt>
      <trkpt lat="43.65978" lon="-1.42536">
        <ele>2.54</ele>
        <time>2021-07-07T14:21:11Z</time>
      </trkpt>
      <trkpt lat="43.66021" lon="-1.42508">
        <ele>3.02</ele>
        <time>2021-07-07T14:21:17Z</time>
      </trkpt>
      <trkpt lat="43.66028" lon="-1.42506">
        <ele>3.02</ele>
        <time>2021-07-07T14:21:18Z</time>
      </trkpt>
      <trkpt lat="43.66062" lon="-1.42499">
        <ele>3.5</ele>
        <time>2021-07-07T14:21:25Z</time>
      </trkpt>
      <trkpt lat="43.66076" lon="-1.42496">
        <ele>3.02</ele>
        <time>2021-07-07T14:21:29Z</time>
      </trkpt>
      <trkpt lat="43.66078" lon="-1.42483">
        <ele>2.54</ele>
        <time>2021-07-07T14:21:30Z</time>
      </trkpt>
      <trkpt lat="43.66085" lon="-1.42479">
        <ele>2.54</ele>
        <time>2021-07-07T14:21:31Z</time>
      </trkpt>
      <trkpt lat="43.66085" lon="-1.42479">
        <ele>2.54</ele>
        <time>2021-07-07T14:21:32Z</time>
      </trkpt>
      <trkpt lat="43.6609" lon="-1.42479">
        <ele>3.02</ele>
        <time>2021-07-07T14:21:33Z</time>
      </trkpt>
      <trkpt lat="43.66094" lon="-1.42479">
        <ele>2.54</ele>
        <time>2021-07-07T14:21:34Z</time>
      </trkpt>
      <trkpt lat="43.66098" lon="-1.42479">
        <ele>2.54</ele>
        <time>2021-07-07T14:21:35Z</time>
      </trkpt>
      <trkpt lat="43.66098" lon="-1.42479">
        <ele>3.02</ele>
        <time>2021-07-07T14:21:36Z</time>
      </trkpt>
      <trkpt lat="43.66115" lon="-1.42473">
        <ele>3.5</ele>
        <time>2021-07-07T14:21:37Z</time>
      </trkpt>
      <trkpt lat="43.66115" lon="-1.42473">
        <ele>3.5</ele>
        <time>2021-07-07T14:21:38Z</time>
      </trkpt>
      <trkpt lat="43.66119" lon="-1.42467">
        <ele>3.5</ele>
        <time>2021-07-07T14:21:39Z</time>
      </trkpt>
      <trkpt lat="43.66143" lon="-1.42435">
        <ele>3.5</ele>
        <time>2021-07-07T14:21:44Z</time>
      </trkpt>
      <trkpt lat="43.66147" lon="-1.42428">
        <ele>3.5</ele>
        <time>2021-07-07T14:21:45Z</time>
      </trkpt>
      <trkpt lat="43.66154" lon="-1.42415">
        <ele>3.02</ele>
        <time>2021-07-07T14:21:46Z</time>
      </trkpt>
      <trkpt lat="43.66175" lon="-1.42359">
        <ele>2.54</ele>
        <time>2021-07-07T14:21:57Z</time>
      </trkpt>
      <trkpt lat="43.66183" lon="-1.42331">
        <ele>3.02</ele>
        <time>2021-07-07T14:22:10Z</time>
      </trkpt>
      <trkpt lat="43.66198" lon="-1.42256">
        <ele>2.54</ele>
        <time>2021-07-07T14:22:17Z</time>
      </trkpt>
      <trkpt lat="43.66206" lon="-1.42194">
        <ele>2.06</ele>
        <time>2021-07-07T14:22:22Z</time>
      </trkpt>
      <trkpt lat="43.66213" lon="-1.4217">
        <ele>2.54</ele>
        <time>2021-07-07T14:22:23Z</time>
      </trkpt>
      <trkpt lat="43.66213" lon="-1.4217">
        <ele>3.02</ele>
        <time>2021-07-07T14:22:24Z</time>
      </trkpt>
      <trkpt lat="43.66218" lon="-1.42158">
        <ele>3.02</ele>
        <time>2021-07-07T14:22:25Z</time>
      </trkpt>
      <trkpt lat="43.66223" lon="-1.42147">
        <ele>3.02</ele>
        <time>2021-07-07T14:22:26Z</time>
      </trkpt>
      <trkpt lat="43.66228" lon="-1.42138">
        <ele>3.5</ele>
        <time>2021-07-07T14:22:27Z</time>
      </trkpt>
      <trkpt lat="43.66235" lon="-1.4213">
        <ele>3.5</ele>
        <time>2021-07-07T14:22:28Z</time>
      </trkpt>
      <trkpt lat="43.66248" lon="-1.42114">
        <ele>3.5</ele>
        <time>2021-07-07T14:22:29Z</time>
      </trkpt>
      <trkpt lat="43.66279" lon="-1.42099">
        <ele>2.54</ele>
        <time>2021-07-07T14:22:34Z</time>
      </trkpt>
      <trkpt lat="43.66286" lon="-1.42096">
        <ele>2.54</ele>
        <time>2021-07-07T14:22:35Z</time>
      </trkpt>
      <trkpt lat="43.66292" lon="-1.42084">
        <ele>2.54</ele>
        <time>2021-07-07T14:22:36Z</time>
      </trkpt>
      <trkpt lat="43.66293" lon="-1.4208">
        <ele>2.54</ele>
        <time>2021-07-07T14:22:37Z</time>
      </trkpt>
      <trkpt lat="43.66307" lon="-1.4207">
        <ele>3.02</ele>
        <time>2021-07-07T14:22:38Z</time>
      </trkpt>
      <trkpt lat="43.66309" lon="-1.42059">
        <ele>3.02</ele>
        <time>2021-07-07T14:22:39Z</time>
      </trkpt>
      <trkpt lat="43.66311" lon="-1.42048">
        <ele>3.02</ele>
        <time>2021-07-07T14:22:40Z</time>
      </trkpt>
      <trkpt lat="43.66313" lon="-1.42035">
        <ele>3.5</ele>
        <time>2021-07-07T14:22:41Z</time>
      </trkpt>
      <trkpt lat="43.66315" lon="-1.42021">
        <ele>3.5</ele>
        <time>2021-07-07T14:22:42Z</time>
      </trkpt>
      <trkpt lat="43.66317" lon="-1.42005">
        <ele>3.02</ele>
        <time>2021-07-07T14:22:43Z</time>
      </trkpt>
      <trkpt lat="43.66317" lon="-1.41957">
        <ele>4.46</ele>
        <time>2021-07-07T14:22:46Z</time>
      </trkpt>
      <trkpt lat="43.66317" lon="-1.41941">
        <ele>4.46</ele>
        <time>2021-07-07T14:22:47Z</time>
      </trkpt>
      <trkpt lat="43.66316" lon="-1.41926">
        <ele>3.98</ele>
        <time>2021-07-07T14:22:48Z</time>
      </trkpt>
      <trkpt lat="43.66311" lon="-1.41912">
        <ele>5.42</ele>
        <time>2021-07-07T14:22:49Z</time>
      </trkpt>
      <trkpt lat="43.66307" lon="-1.41898">
        <ele>5.42</ele>
        <time>2021-07-07T14:22:50Z</time>
      </trkpt>
      <trkpt lat="43.66257" lon="-1.4172">
        <ele>13.12</ele>
        <time>2021-07-07T14:23:01Z</time>
      </trkpt>
      <trkpt lat="43.66255" lon="-1.41707">
        <ele>14.08</ele>
        <time>2021-07-07T14:23:02Z</time>
      </trkpt>
      <trkpt lat="43.66256" lon="-1.41694">
        <ele>16</ele>
        <time>2021-07-07T14:23:03Z</time>
      </trkpt>
      <trkpt lat="43.66261" lon="-1.4167">
        <ele>17.44</ele>
        <time>2021-07-07T14:23:04Z</time>
      </trkpt>
      <trkpt lat="43.66261" lon="-1.4167">
        <ele>18.4</ele>
        <time>2021-07-07T14:23:05Z</time>
      </trkpt>
      <trkpt lat="43.66275" lon="-1.41654">
        <ele>20.32</ele>
        <time>2021-07-07T14:23:06Z</time>
      </trkpt>
      <trkpt lat="43.66282" lon="-1.41646">
        <ele>20.81</ele>
        <time>2021-07-07T14:23:07Z</time>
      </trkpt>
      <trkpt lat="43.66291" lon="-1.41639">
        <ele>20.81</ele>
        <time>2021-07-07T14:23:08Z</time>
      </trkpt>
      <trkpt lat="43.66291" lon="-1.41639">
        <ele>20.32</ele>
        <time>2021-07-07T14:23:09Z</time>
      </trkpt>
      <trkpt lat="43.66299" lon="-1.41631">
        <ele>20.32</ele>
        <time>2021-07-07T14:23:10Z</time>
      </trkpt>
      <trkpt lat="43.66316" lon="-1.41611">
        <ele>18.88</ele>
        <time>2021-07-07T14:23:12Z</time>
      </trkpt>
      <trkpt lat="43.66328" lon="-1.41591">
        <ele>17.92</ele>
        <time>2021-07-07T14:23:13Z</time>
      </trkpt>
      <trkpt lat="43.66328" lon="-1.41591">
        <ele>16.48</ele>
        <time>2021-07-07T14:23:14Z</time>
      </trkpt>
      <trkpt lat="43.66337" lon="-1.4157">
        <ele>16</ele>
        <time>2021-07-07T14:23:15Z</time>
      </trkpt>
      <trkpt lat="43.66337" lon="-1.4157">
        <ele>15.04</ele>
        <time>2021-07-07T14:23:16Z</time>
      </trkpt>
      <trkpt lat="43.66344" lon="-1.41552">
        <ele>12.63</ele>
        <time>2021-07-07T14:23:18Z</time>
      </trkpt>
      <trkpt lat="43.66347" lon="-1.41544">
        <ele>12.15</ele>
        <time>2021-07-07T14:23:19Z</time>
      </trkpt>
      <trkpt lat="43.66345" lon="-1.41514">
        <ele>10.71</ele>
        <time>2021-07-07T14:23:21Z</time>
      </trkpt>
      <trkpt lat="43.66345" lon="-1.41514">
        <ele>9.75</ele>
        <time>2021-07-07T14:23:22Z</time>
      </trkpt>
      <trkpt lat="43.6635" lon="-1.41509">
        <ele>9.75</ele>
        <time>2021-07-07T14:23:23Z</time>
      </trkpt>
      <trkpt lat="43.66355" lon="-1.41505">
        <ele>8.31</ele>
        <time>2021-07-07T14:23:24Z</time>
      </trkpt>
      <trkpt lat="43.66368" lon="-1.41511">
        <ele>7.83</ele>
        <time>2021-07-07T14:23:25Z</time>
      </trkpt>
      <trkpt lat="43.6638" lon="-1.41518">
        <ele>7.35</ele>
        <time>2021-07-07T14:23:26Z</time>
      </trkpt>
      <trkpt lat="43.66459" lon="-1.41511">
        <ele>4.94</ele>
        <time>2021-07-07T14:23:34Z</time>
      </trkpt>
      <trkpt lat="43.6651" lon="-1.41522">
        <ele>4.94</ele>
        <time>2021-07-07T14:23:38Z</time>
      </trkpt>
      <trkpt lat="43.6651" lon="-1.41522">
        <ele>5.91</ele>
        <time>2021-07-07T14:23:39Z</time>
      </trkpt>
      <trkpt lat="43.66525" lon="-1.41541">
        <ele>5.91</ele>
        <time>2021-07-07T14:23:40Z</time>
      </trkpt>
      <trkpt lat="43.66529" lon="-1.41551">
        <ele>5.42</ele>
        <time>2021-07-07T14:23:41Z</time>
      </trkpt>
      <trkpt lat="43.66535" lon="-1.41564">
        <ele>5.91</ele>
        <time>2021-07-07T14:23:42Z</time>
      </trkpt>
      <trkpt lat="43.66535" lon="-1.41564">
        <ele>5.91</ele>
        <time>2021-07-07T14:23:43Z</time>
      </trkpt>
      <trkpt lat="43.66623" lon="-1.41754">
        <ele>3.5</ele>
        <time>2021-07-07T14:23:56Z</time>
      </trkpt>
      <trkpt lat="43.66678" lon="-1.41882">
        <ele>2.54</ele>
        <time>2021-07-07T14:24:06Z</time>
      </trkpt>
      <trkpt lat="43.66694" lon="-1.41912">
        <ele>2.54</ele>
        <time>2021-07-07T14:24:10Z</time>
      </trkpt>
      <trkpt lat="43.66702" lon="-1.41919">
        <ele>2.54</ele>
        <time>2021-07-07T14:24:11Z</time>
      </trkpt>
      <trkpt lat="43.6671" lon="-1.41926">
        <ele>2.54</ele>
        <time>2021-07-07T14:24:12Z</time>
      </trkpt>
      <trkpt lat="43.66717" lon="-1.41932">
        <ele>2.54</ele>
        <time>2021-07-07T14:24:13Z</time>
      </trkpt>
      <trkpt lat="43.66728" lon="-1.41934">
        <ele>1.1</ele>
        <time>2021-07-07T14:24:14Z</time>
      </trkpt>
      <trkpt lat="43.66739" lon="-1.41935">
        <ele>0.62</ele>
        <time>2021-07-07T14:24:15Z</time>
      </trkpt>
      <trkpt lat="43.66748" lon="-1.41936">
        <ele>1.1</ele>
        <time>2021-07-07T14:24:16Z</time>
      </trkpt>
      <trkpt lat="43.66759" lon="-1.41934">
        <ele>1.58</ele>
        <time>2021-07-07T14:24:17Z</time>
      </trkpt>
      <trkpt lat="43.66899" lon="-1.41904">
        <ele>4.46</ele>
        <time>2021-07-07T14:24:28Z</time>
      </trkpt>
      <trkpt lat="43.66995" lon="-1.41872">
        <ele>7.35</ele>
        <time>2021-07-07T14:24:36Z</time>
      </trkpt>
      <trkpt lat="43.67095" lon="-1.41796">
        <ele>9.27</ele>
        <time>2021-07-07T14:24:46Z</time>
      </trkpt>
      <trkpt lat="43.6712" lon="-1.41776">
        <ele>9.27</ele>
        <time>2021-07-07T14:24:50Z</time>
      </trkpt>
      <trkpt lat="43.67123" lon="-1.41773">
        <ele>9.27</ele>
        <time>2021-07-07T14:24:51Z</time>
      </trkpt>
      <trkpt lat="43.67123" lon="-1.41762">
        <ele>9.75</ele>
        <time>2021-07-07T14:24:52Z</time>
      </trkpt>
      <trkpt lat="43.67127" lon="-1.41753">
        <ele>10.23</ele>
        <time>2021-07-07T14:24:53Z</time>
      </trkpt>
      <trkpt lat="43.67139" lon="-1.41749">
        <ele>9.27</ele>
        <time>2021-07-07T14:24:54Z</time>
      </trkpt>
      <trkpt lat="43.67139" lon="-1.41749">
        <ele>9.27</ele>
        <time>2021-07-07T14:24:55Z</time>
      </trkpt>
      <trkpt lat="43.67153" lon="-1.41755">
        <ele>9.27</ele>
        <time>2021-07-07T14:24:56Z</time>
      </trkpt>
      <trkpt lat="43.67153" lon="-1.41755">
        <ele>8.79</ele>
        <time>2021-07-07T14:24:57Z</time>
      </trkpt>
      <trkpt lat="43.67167" lon="-1.41747">
        <ele>9.27</ele>
        <time>2021-07-07T14:24:58Z</time>
      </trkpt>
      <trkpt lat="43.67167" lon="-1.41747">
        <ele>9.27</ele>
        <time>2021-07-07T14:24:59Z</time>
      </trkpt>
      <trkpt lat="43.67193" lon="-1.41732">
        <ele>7.83</ele>
        <time>2021-07-07T14:25:02Z</time>
      </trkpt>
      <trkpt lat="43.67203" lon="-1.41726">
        <ele>8.31</ele>
        <time>2021-07-07T14:25:03Z</time>
      </trkpt>
      <trkpt lat="43.67212" lon="-1.41723">
        <ele>9.27</ele>
        <time>2021-07-07T14:25:04Z</time>
      </trkpt>
      <trkpt lat="43.67235" lon="-1.41721">
        <ele>11.19</ele>
        <time>2021-07-07T14:25:06Z</time>
      </trkpt>
      <trkpt lat="43.67247" lon="-1.4172">
        <ele>11.67</ele>
        <time>2021-07-07T14:25:07Z</time>
      </trkpt>
      <trkpt lat="43.67376" lon="-1.41747">
        <ele>9.75</ele>
        <time>2021-07-07T14:25:15Z</time>
      </trkpt>
      <trkpt lat="43.67616" lon="-1.41802">
        <ele>11.19</ele>
        <time>2021-07-07T14:25:28Z</time>
      </trkpt>
      <trkpt lat="43.67905" lon="-1.41867">
        <ele>9.27</ele>
        <time>2021-07-07T14:25:43Z</time>
      </trkpt>
      <trkpt lat="43.67984" lon="-1.41885">
        <ele>9.75</ele>
        <time>2021-07-07T14:25:47Z</time>
      </trkpt>
      <trkpt lat="43.68001" lon="-1.41895">
        <ele>10.23</ele>
        <time>2021-07-07T14:25:48Z</time>
      </trkpt>
      <trkpt lat="43.68154" lon="-1.42017">
        <ele>9.75</ele>
        <time>2021-07-07T14:25:56Z</time>
      </trkpt>
      <trkpt lat="43.68344" lon="-1.42175">
        <ele>16.96</ele>
        <time>2021-07-07T14:26:09Z</time>
      </trkpt>
      <trkpt lat="43.68398" lon="-1.42219">
        <ele>19.84</ele>
        <time>2021-07-07T14:26:13Z</time>
      </trkpt>
      <trkpt lat="43.68409" lon="-1.42233">
        <ele>19.36</ele>
        <time>2021-07-07T14:26:14Z</time>
      </trkpt>
      <trkpt lat="43.68419" lon="-1.42247">
        <ele>18.88</ele>
        <time>2021-07-07T14:26:15Z</time>
      </trkpt>
      <trkpt lat="43.68429" lon="-1.42262">
        <ele>17.92</ele>
        <time>2021-07-07T14:26:16Z</time>
      </trkpt>
      <trkpt lat="43.68436" lon="-1.42279">
        <ele>16.48</ele>
        <time>2021-07-07T14:26:17Z</time>
      </trkpt>
      <trkpt lat="43.68445" lon="-1.42297">
        <ele>15.04</ele>
        <time>2021-07-07T14:26:18Z</time>
      </trkpt>
      <trkpt lat="43.68454" lon="-1.42318">
        <ele>13.6</ele>
        <time>2021-07-07T14:26:19Z</time>
      </trkpt>
      <trkpt lat="43.68511" lon="-1.42449">
        <ele>5.42</ele>
        <time>2021-07-07T14:26:26Z</time>
      </trkpt>
      <trkpt lat="43.6852" lon="-1.42466">
        <ele>3.98</ele>
        <time>2021-07-07T14:26:27Z</time>
      </trkpt>
      <trkpt lat="43.68531" lon="-1.4248">
        <ele>3.5</ele>
        <time>2021-07-07T14:26:28Z</time>
      </trkpt>
      <trkpt lat="43.68544" lon="-1.42494">
        <ele>2.54</ele>
        <time>2021-07-07T14:26:29Z</time>
      </trkpt>
      <trkpt lat="43.68556" lon="-1.42506">
        <ele>2.06</ele>
        <time>2021-07-07T14:26:30Z</time>
      </trkpt>
      <trkpt lat="43.68571" lon="-1.42515">
        <ele>3.5</ele>
        <time>2021-07-07T14:26:31Z</time>
      </trkpt>
      <trkpt lat="43.68586" lon="-1.42524">
        <ele>3.98</ele>
        <time>2021-07-07T14:26:32Z</time>
      </trkpt>
      <trkpt lat="43.68601" lon="-1.4253">
        <ele>3.5</ele>
        <time>2021-07-07T14:26:33Z</time>
      </trkpt>
      <trkpt lat="43.68632" lon="-1.42539">
        <ele>3.02</ele>
        <time>2021-07-07T14:26:34Z</time>
      </trkpt>
      <trkpt lat="43.688" lon="-1.42541">
        <ele>6.39</ele>
        <time>2021-07-07T14:26:45Z</time>
      </trkpt>
      <trkpt lat="43.68975" lon="-1.42541">
        <ele>8.31</ele>
        <time>2021-07-07T14:26:56Z</time>
      </trkpt>
      <trkpt lat="43.69139" lon="-1.42542">
        <ele>9.75</ele>
        <time>2021-07-07T14:27:07Z</time>
      </trkpt>
      <trkpt lat="43.69237" lon="-1.42539">
        <ele>7.83</ele>
        <time>2021-07-07T14:27:15Z</time>
      </trkpt>
      <trkpt lat="43.69262" lon="-1.4253">
        <ele>6.39</ele>
        <time>2021-07-07T14:27:21Z</time>
      </trkpt>
      <trkpt lat="43.69269" lon="-1.42519">
        <ele>5.42</ele>
        <time>2021-07-07T14:27:24Z</time>
      </trkpt>
      <trkpt lat="43.69276" lon="-1.42514">
        <ele>5.91</ele>
        <time>2021-07-07T14:27:25Z</time>
      </trkpt>
      <trkpt lat="43.69281" lon="-1.42513">
        <ele>6.39</ele>
        <time>2021-07-07T14:27:26Z</time>
      </trkpt>
      <trkpt lat="43.69293" lon="-1.42515">
        <ele>6.39</ele>
        <time>2021-07-07T14:27:27Z</time>
      </trkpt>
      <trkpt lat="43.69293" lon="-1.42515">
        <ele>5.91</ele>
        <time>2021-07-07T14:27:28Z</time>
      </trkpt>
      <trkpt lat="43.69298" lon="-1.42519">
        <ele>5.91</ele>
        <time>2021-07-07T14:27:29Z</time>
      </trkpt>
      <trkpt lat="43.69302" lon="-1.42524">
        <ele>5.91</ele>
        <time>2021-07-07T14:27:30Z</time>
      </trkpt>
      <trkpt lat="43.69305" lon="-1.42531">
        <ele>5.91</ele>
        <time>2021-07-07T14:27:31Z</time>
      </trkpt>
      <trkpt lat="43.69306" lon="-1.42539">
        <ele>6.39</ele>
        <time>2021-07-07T14:27:32Z</time>
      </trkpt>
      <trkpt lat="43.69306" lon="-1.42548">
        <ele>6.39</ele>
        <time>2021-07-07T14:27:33Z</time>
      </trkpt>
      <trkpt lat="43.69305" lon="-1.42555">
        <ele>6.39</ele>
        <time>2021-07-07T14:27:34Z</time>
      </trkpt>
      <trkpt lat="43.69301" lon="-1.42563">
        <ele>5.91</ele>
        <time>2021-07-07T14:27:35Z</time>
      </trkpt>
      <trkpt lat="43.69296" lon="-1.4257">
        <ele>5.42</ele>
        <time>2021-07-07T14:27:36Z</time>
      </trkpt>
      <trkpt lat="43.69294" lon="-1.42584">
        <ele>5.42</ele>
        <time>2021-07-07T14:27:37Z</time>
      </trkpt>
      <trkpt lat="43.69295" lon="-1.42594">
        <ele>5.42</ele>
        <time>2021-07-07T14:27:38Z</time>
      </trkpt>
      <trkpt lat="43.69299" lon="-1.42604">
        <ele>4.94</ele>
        <time>2021-07-07T14:27:39Z</time>
      </trkpt>
      <trkpt lat="43.69303" lon="-1.42614">
        <ele>4.94</ele>
        <time>2021-07-07T14:27:40Z</time>
      </trkpt>
      <trkpt lat="43.69307" lon="-1.42624">
        <ele>4.94</ele>
        <time>2021-07-07T14:27:41Z</time>
      </trkpt>
      <trkpt lat="43.69364" lon="-1.42731">
        <ele>8.79</ele>
        <time>2021-07-07T14:27:50Z</time>
      </trkpt>
      <trkpt lat="43.69394" lon="-1.42795">
        <ele>8.31</ele>
        <time>2021-07-07T14:27:55Z</time>
      </trkpt>
      <trkpt lat="43.69484" lon="-1.42943">
        <ele>2.54</ele>
        <time>2021-07-07T14:28:08Z</time>
      </trkpt>
      <trkpt lat="43.69556" lon="-1.43027">
        <ele>1.58</ele>
        <time>2021-07-07T14:28:16Z</time>
      </trkpt>
      <trkpt lat="43.6968" lon="-1.43169">
        <ele>5.91</ele>
        <time>2021-07-07T14:28:30Z</time>
      </trkpt>
      <trkpt lat="43.69803" lon="-1.4331">
        <ele>3.98</ele>
        <time>2021-07-07T14:28:45Z</time>
      </trkpt>
      <trkpt lat="43.69809" lon="-1.43318">
        <ele>3.98</ele>
        <time>2021-07-07T14:28:47Z</time>
      </trkpt>
      <trkpt lat="43.69811" lon="-1.43327">
        <ele>3.98</ele>
        <time>2021-07-07T14:28:48Z</time>
      </trkpt>
      <trkpt lat="43.69813" lon="-1.43336">
        <ele>3.5</ele>
        <time>2021-07-07T14:28:49Z</time>
      </trkpt>
      <trkpt lat="43.69815" lon="-1.43345">
        <ele>3.5</ele>
        <time>2021-07-07T14:28:50Z</time>
      </trkpt>
      <trkpt lat="43.69816" lon="-1.43353">
        <ele>3.5</ele>
        <time>2021-07-07T14:28:51Z</time>
      </trkpt>
      <trkpt lat="43.69818" lon="-1.4336">
        <ele>3.02</ele>
        <time>2021-07-07T14:28:52Z</time>
      </trkpt>
      <trkpt lat="43.69819" lon="-1.43365">
        <ele>3.5</ele>
        <time>2021-07-07T14:28:53Z</time>
      </trkpt>
      <trkpt lat="43.69827" lon="-1.43379">
        <ele>3.5</ele>
        <time>2021-07-07T14:28:54Z</time>
      </trkpt>
      <trkpt lat="43.6983" lon="-1.43385">
        <ele>3.5</ele>
        <time>2021-07-07T14:28:55Z</time>
      </trkpt>
      <trkpt lat="43.69831" lon="-1.43392">
        <ele>3.98</ele>
        <time>2021-07-07T14:28:56Z</time>
      </trkpt>
      <trkpt lat="43.6983" lon="-1.434">
        <ele>3.98</ele>
        <time>2021-07-07T14:28:57Z</time>
      </trkpt>
      <trkpt lat="43.69827" lon="-1.43406">
        <ele>3.5</ele>
        <time>2021-07-07T14:28:58Z</time>
      </trkpt>
      <trkpt lat="43.69825" lon="-1.43413">
        <ele>3.5</ele>
        <time>2021-07-07T14:28:59Z</time>
      </trkpt>
      <trkpt lat="43.69822" lon="-1.43418">
        <ele>3.02</ele>
        <time>2021-07-07T14:29:00Z</time>
      </trkpt>
      <trkpt lat="43.69822" lon="-1.43418">
        <ele>3.02</ele>
        <time>2021-07-07T14:29:01Z</time>
      </trkpt>
      <trkpt lat="43.69821" lon="-1.43427">
        <ele>3.02</ele>
        <time>2021-07-07T14:29:02Z</time>
      </trkpt>
      <trkpt lat="43.69821" lon="-1.43434">
        <ele>3.5</ele>
        <time>2021-07-07T14:29:03Z</time>
      </trkpt>
      <trkpt lat="43.69821" lon="-1.43442">
        <ele>3.98</ele>
        <time>2021-07-07T14:29:04Z</time>
      </trkpt>
      <trkpt lat="43.69821" lon="-1.4345">
        <ele>4.94</ele>
        <time>2021-07-07T14:29:05Z</time>
      </trkpt>
      <trkpt lat="43.6982" lon="-1.43466">
        <ele>5.42</ele>
        <time>2021-07-07T14:29:06Z</time>
      </trkpt>
      <trkpt lat="43.69813" lon="-1.43522">
        <ele>9.27</ele>
        <time>2021-07-07T14:29:15Z</time>
      </trkpt>
      <trkpt lat="43.69811" lon="-1.43528">
        <ele>9.27</ele>
        <time>2021-07-07T14:29:16Z</time>
      </trkpt>
      <trkpt lat="43.6981" lon="-1.43535">
        <ele>8.79</ele>
        <time>2021-07-07T14:29:17Z</time>
      </trkpt>
      <trkpt lat="43.69777" lon="-1.43644">
        <ele>4.94</ele>
        <time>2021-07-07T14:29:32Z</time>
      </trkpt>
      <trkpt lat="43.69777" lon="-1.43676">
        <ele>4.46</ele>
        <time>2021-07-07T14:29:39Z</time>
      </trkpt>
      <trkpt lat="43.69777" lon="-1.43676">
        <ele>4.46</ele>
        <time>2021-07-07T14:29:40Z</time>
      </trkpt>
      <trkpt lat="43.69805" lon="-1.43668">
        <ele>3.02</ele>
        <time>2021-07-07T14:29:52Z</time>
      </trkpt>
      <trkpt lat="43.69848" lon="-1.4363">
        <ele>2.06</ele>
        <time>2021-07-07T14:30:06Z</time>
      </trkpt>
      <trkpt lat="43.69854" lon="-1.43632">
        <ele>3.98</ele>
        <time>2021-07-07T14:30:09Z</time>
      </trkpt>
      <trkpt lat="43.69856" lon="-1.43632">
        <ele>3.98</ele>
        <time>2021-07-07T14:30:10Z</time>
      </trkpt>
      <trkpt lat="43.69857" lon="-1.43633">
        <ele>4.46</ele>
        <time>2021-07-07T14:30:11Z</time>
      </trkpt>
      <trkpt lat="43.69849" lon="-1.43629">
        <ele>4.94</ele>
        <time>2021-07-07T14:30:12Z</time>
      </trkpt>
      <trkpt lat="43.69858" lon="-1.43633">
        <ele>4.46</ele>
        <time>2021-07-07T14:30:14Z</time>
      </trkpt>
      <trkpt lat="43.69856" lon="-1.43633">
        <ele>4.46</ele>
        <time>2021-07-07T14:30:15Z</time>
      </trkpt>
      <trkpt lat="43.69854" lon="-1.43632">
        <ele>4.46</ele>
        <time>2021-07-07T14:30:16Z</time>
      </trkpt>
      <trkpt lat="43.69842" lon="-1.43635">
        <ele>4.46</ele>
        <time>2021-07-07T14:30:17Z</time>
      </trkpt>
      <trkpt lat="43.69831" lon="-1.4368">
        <ele>4.94</ele>
        <time>2021-07-07T14:30:27Z</time>
      </trkpt>
      <trkpt lat="43.69829" lon="-1.43685">
        <ele>5.42</ele>
        <time>2021-07-07T14:30:41Z</time>
      </trkpt>
      <trkpt lat="43.69818" lon="-1.43697">
        <ele>5.42</ele>
        <time>2021-07-07T14:38:42Z</time>
      </trkpt>
      <trkpt lat="43.69818" lon="-1.43697">
        <ele>4.94</ele>
        <time>2021-07-07T14:38:47Z</time>
      </trkpt>
    </trkseg>
  </trk>
  <trk>
    <name><![CDATA[Journal actif: 2021-07-07 12:38]]></name>
    <trkseg>
      <trkpt lat="43.69795" lon="-1.43691">
        <ele>3.98</ele>
        <time>2021-07-07T14:38:58Z</time>
      </trkpt>
      <trkpt lat="43.69791" lon="-1.43688">
        <ele>3.5</ele>
        <time>2021-07-07T14:39:01Z</time>
      </trkpt>
      <trkpt lat="43.69791" lon="-1.43687">
        <ele>3.5</ele>
        <time>2021-07-07T14:39:02Z</time>
      </trkpt>
      <trkpt lat="43.69792" lon="-1.43675">
        <ele>3.5</ele>
        <time>2021-07-07T14:39:03Z</time>
      </trkpt>
      <trkpt lat="43.69794" lon="-1.43675">
        <ele>3.5</ele>
        <time>2021-07-07T14:39:04Z</time>
      </trkpt>
      <trkpt lat="43.69796" lon="-1.43674">
        <ele>3.02</ele>
        <time>2021-07-07T14:39:05Z</time>
      </trkpt>
      <trkpt lat="43.69846" lon="-1.43631">
        <ele>1.58</ele>
        <time>2021-07-07T14:39:24Z</time>
      </trkpt>
      <trkpt lat="43.69877" lon="-1.43641">
        <ele>2.54</ele>
        <time>2021-07-07T14:39:36Z</time>
      </trkpt>
      <trkpt lat="43.69926" lon="-1.43644">
        <ele>3.5</ele>
        <time>2021-07-07T14:39:52Z</time>
      </trkpt>
      <trkpt lat="43.69953" lon="-1.43623">
        <ele>2.06</ele>
        <time>2021-07-07T14:40:04Z</time>
      </trkpt>
      <trkpt lat="43.69957" lon="-1.43573">
        <ele>1.58</ele>
        <time>2021-07-07T14:40:17Z</time>
      </trkpt>
      <trkpt lat="43.69979" lon="-1.4352">
        <ele>3.02</ele>
        <time>2021-07-07T14:40:29Z</time>
      </trkpt>
      <trkpt lat="43.69989" lon="-1.4346">
        <ele>3.5</ele>
        <time>2021-07-07T14:40:44Z</time>
      </trkpt>
      <trkpt lat="43.69972" lon="-1.43393">
        <ele>0.14</ele>
        <time>2021-07-07T14:40:59Z</time>
      </trkpt>
      <trkpt lat="43.69955" lon="-1.4337">
        <ele>0.14</ele>
        <time>2021-07-07T14:41:05Z</time>
      </trkpt>
      <trkpt lat="43.69956" lon="-1.43365">
        <ele>0.14</ele>
        <time>2021-07-07T14:41:06Z</time>
      </trkpt>
      <trkpt lat="43.69962" lon="-1.43357">
        <ele>0.14</ele>
        <time>2021-07-07T14:41:07Z</time>
      </trkpt>
      <trkpt lat="43.69962" lon="-1.43357">
        <ele>0.62</ele>
        <time>2021-07-07T14:41:08Z</time>
      </trkpt>
      <trkpt lat="43.69967" lon="-1.43354">
        <ele>1.1</ele>
        <time>2021-07-07T14:41:09Z</time>
      </trkpt>
      <trkpt lat="43.69971" lon="-1.43352">
        <ele>1.1</ele>
        <time>2021-07-07T14:41:10Z</time>
      </trkpt>
      <trkpt lat="43.69976" lon="-1.43354">
        <ele>1.58</ele>
        <time>2021-07-07T14:41:11Z</time>
      </trkpt>
      <trkpt lat="43.69986" lon="-1.43355">
        <ele>2.06</ele>
        <time>2021-07-07T14:41:13Z</time>
      </trkpt>
      <trkpt lat="43.69992" lon="-1.43355">
        <ele>2.06</ele>
        <time>2021-07-07T14:41:14Z</time>
      </trkpt>
      <trkpt lat="43.69998" lon="-1.43355">
        <ele>2.06</ele>
        <time>2021-07-07T14:41:15Z</time>
      </trkpt>
      <trkpt lat="43.70124" lon="-1.43354">
        <ele>0.62</ele>
        <time>2021-07-07T14:41:32Z</time>
      </trkpt>
      <trkpt lat="43.70271" lon="-1.43342">
        <ele>-3.71</ele>
        <time>2021-07-07T14:41:51Z</time>
      </trkpt>
      <trkpt lat="43.70376" lon="-1.43303">
        <ele>2.54</ele>
        <time>2021-07-07T14:42:06Z</time>
      </trkpt>
      <trkpt lat="43.70502" lon="-1.43212">
        <ele>-2.75</ele>
        <time>2021-07-07T14:42:23Z</time>
      </trkpt>
      <trkpt lat="43.70516" lon="-1.43198">
        <ele>-3.71</ele>
        <time>2021-07-07T14:42:26Z</time>
      </trkpt>
      <trkpt lat="43.70516" lon="-1.43198">
        <ele>-4.19</ele>
        <time>2021-07-07T14:42:27Z</time>
      </trkpt>
      <trkpt lat="43.7052" lon="-1.43193">
        <ele>-4.19</ele>
        <time>2021-07-07T14:42:28Z</time>
      </trkpt>
      <trkpt lat="43.70523" lon="-1.43188">
        <ele>-4.19</ele>
        <time>2021-07-07T14:42:29Z</time>
      </trkpt>
      <trkpt lat="43.70527" lon="-1.43182">
        <ele>-4.19</ele>
        <time>2021-07-07T14:42:30Z</time>
      </trkpt>
      <trkpt lat="43.70532" lon="-1.43178">
        <ele>-4.19</ele>
        <time>2021-07-07T14:42:31Z</time>
      </trkpt>
      <trkpt lat="43.70537" lon="-1.43176">
        <ele>-4.19</ele>
        <time>2021-07-07T14:42:32Z</time>
      </trkpt>
      <trkpt lat="43.70543" lon="-1.43175">
        <ele>-4.19</ele>
        <time>2021-07-07T14:42:33Z</time>
      </trkpt>
      <trkpt lat="43.70553" lon="-1.43167">
        <ele>-3.71</ele>
        <time>2021-07-07T14:42:34Z</time>
      </trkpt>
      <trkpt lat="43.70553" lon="-1.43167">
        <ele>-3.71</ele>
        <time>2021-07-07T14:42:35Z</time>
      </trkpt>
      <trkpt lat="43.70559" lon="-1.43162">
        <ele>-3.71</ele>
        <time>2021-07-07T14:42:36Z</time>
      </trkpt>
      <trkpt lat="43.70565" lon="-1.43157">
        <ele>-3.23</ele>
        <time>2021-07-07T14:42:37Z</time>
      </trkpt>
      <trkpt lat="43.70669" lon="-1.43067">
        <ele>-6.59</ele>
        <time>2021-07-07T14:42:51Z</time>
      </trkpt>
      <trkpt lat="43.70746" lon="-1.43031">
        <ele>-7.55</ele>
        <time>2021-07-07T14:43:02Z</time>
      </trkpt>
      <trkpt lat="43.70804" lon="-1.43012">
        <ele>-6.11</ele>
        <time>2021-07-07T14:43:13Z</time>
      </trkpt>
      <trkpt lat="43.70864" lon="-1.43003">
        <ele>-5.63</ele>
        <time>2021-07-07T14:43:24Z</time>
      </trkpt>
      <trkpt lat="43.70979" lon="-1.43021">
        <ele>-2.75</ele>
        <time>2021-07-07T14:43:37Z</time>
      </trkpt>
      <trkpt lat="43.71048" lon="-1.43036">
        <ele>-1.79</ele>
        <time>2021-07-07T14:43:47Z</time>
      </trkpt>
      <trkpt lat="43.71043" lon="-1.43039">
        <ele>-1.79</ele>
        <time>2021-07-07T14:43:48Z</time>
      </trkpt>
      <trkpt lat="43.71043" lon="-1.43039">
        <ele>-1.79</ele>
        <time>2021-07-07T14:43:49Z</time>
      </trkpt>
      <trkpt lat="43.71043" lon="-1.43043">
        <ele>-1.79</ele>
        <time>2021-07-07T14:43:50Z</time>
      </trkpt>
      <trkpt lat="43.71043" lon="-1.43046">
        <ele>-2.27</ele>
        <time>2021-07-07T14:43:51Z</time>
      </trkpt>
      <trkpt lat="43.71042" lon="-1.43054">
        <ele>-2.75</ele>
        <time>2021-07-07T14:43:52Z</time>
      </trkpt>
      <trkpt lat="43.71042" lon="-1.43054">
        <ele>-2.75</ele>
        <time>2021-07-07T14:43:53Z</time>
      </trkpt>
      <trkpt lat="43.71028" lon="-1.4307">
        <ele>-3.23</ele>
        <time>2021-07-07T14:43:57Z</time>
      </trkpt>
      <trkpt lat="43.71026" lon="-1.43076">
        <ele>-3.23</ele>
        <time>2021-07-07T14:43:58Z</time>
      </trkpt>
      <trkpt lat="43.71023" lon="-1.43088">
        <ele>-3.23</ele>
        <time>2021-07-07T14:43:59Z</time>
      </trkpt>
      <trkpt lat="43.71023" lon="-1.43088">
        <ele>-3.71</ele>
        <time>2021-07-07T14:44:00Z</time>
      </trkpt>
      <trkpt lat="43.71021" lon="-1.43094">
        <ele>-3.71</ele>
        <time>2021-07-07T14:44:01Z</time>
      </trkpt>
      <trkpt lat="43.71021" lon="-1.431">
        <ele>-3.71</ele>
        <time>2021-07-07T14:44:02Z</time>
      </trkpt>
      <trkpt lat="43.71023" lon="-1.43112">
        <ele>-3.71</ele>
        <time>2021-07-07T14:44:03Z</time>
      </trkpt>
      <trkpt lat="43.71023" lon="-1.43112">
        <ele>-3.71</ele>
        <time>2021-07-07T14:44:04Z</time>
      </trkpt>
      <trkpt lat="43.71025" lon="-1.43119">
        <ele>-3.71</ele>
        <time>2021-07-07T14:44:05Z</time>
      </trkpt>
      <trkpt lat="43.71066" lon="-1.43215">
        <ele>-2.27</ele>
        <time>2021-07-07T14:44:19Z</time>
      </trkpt>
      <trkpt lat="43.71074" lon="-1.43226">
        <ele>-2.27</ele>
        <time>2021-07-07T14:44:20Z</time>
      </trkpt>
      <trkpt lat="43.71078" lon="-1.43232">
        <ele>-2.27</ele>
        <time>2021-07-07T14:44:21Z</time>
      </trkpt>
      <trkpt lat="43.7109" lon="-1.43245">
        <ele>-1.79</ele>
        <time>2021-07-07T14:44:25Z</time>
      </trkpt>
      <trkpt lat="43.71094" lon="-1.43249">
        <ele>-1.3</ele>
        <time>2021-07-07T14:44:26Z</time>
      </trkpt>
      <trkpt lat="43.71098" lon="-1.43254">
        <ele>-1.3</ele>
        <time>2021-07-07T14:44:27Z</time>
      </trkpt>
      <trkpt lat="43.71099" lon="-1.43259">
        <ele>-0.82</ele>
        <time>2021-07-07T14:44:28Z</time>
      </trkpt>
      <trkpt lat="43.711" lon="-1.43265">
        <ele>-0.82</ele>
        <time>2021-07-07T14:44:29Z</time>
      </trkpt>
      <trkpt lat="43.71101" lon="-1.43271">
        <ele>-0.82</ele>
        <time>2021-07-07T14:44:30Z</time>
      </trkpt>
      <trkpt lat="43.71102" lon="-1.43277">
        <ele>-0.82</ele>
        <time>2021-07-07T14:44:31Z</time>
      </trkpt>
      <trkpt lat="43.71097" lon="-1.43285">
        <ele>-0.82</ele>
        <time>2021-07-07T14:44:32Z</time>
      </trkpt>
      <trkpt lat="43.71097" lon="-1.43285">
        <ele>-0.82</ele>
        <time>2021-07-07T14:44:33Z</time>
      </trkpt>
      <trkpt lat="43.71094" lon="-1.4329">
        <ele>-0.82</ele>
        <time>2021-07-07T14:44:34Z</time>
      </trkpt>
      <trkpt lat="43.71091" lon="-1.43295">
        <ele>-0.82</ele>
        <time>2021-07-07T14:44:35Z</time>
      </trkpt>
      <trkpt lat="43.71089" lon="-1.43299">
        <ele>-1.3</ele>
        <time>2021-07-07T14:44:36Z</time>
      </trkpt>
      <trkpt lat="43.71085" lon="-1.43299">
        <ele>-1.3</ele>
        <time>2021-07-07T14:44:37Z</time>
      </trkpt>
      <trkpt lat="43.71076" lon="-1.433">
        <ele>-1.3</ele>
        <time>2021-07-07T14:44:38Z</time>
      </trkpt>
      <trkpt lat="43.71076" lon="-1.433">
        <ele>-1.3</ele>
        <time>2021-07-07T14:44:39Z</time>
      </trkpt>
      <trkpt lat="43.71072" lon="-1.43297">
        <ele>-1.79</ele>
        <time>2021-07-07T14:44:40Z</time>
      </trkpt>
      <trkpt lat="43.71067" lon="-1.43294">
        <ele>-1.79</ele>
        <time>2021-07-07T14:44:41Z</time>
      </trkpt>
      <trkpt lat="43.71065" lon="-1.43287">
        <ele>-1.79</ele>
        <time>2021-07-07T14:44:42Z</time>
      </trkpt>
      <trkpt lat="43.71064" lon="-1.4328">
        <ele>-2.27</ele>
        <time>2021-07-07T14:44:43Z</time>
      </trkpt>
      <trkpt lat="43.71061" lon="-1.43273">
        <ele>-2.27</ele>
        <time>2021-07-07T14:44:44Z</time>
      </trkpt>
      <trkpt lat="43.71063" lon="-1.43265">
        <ele>-2.75</ele>
        <time>2021-07-07T14:44:45Z</time>
      </trkpt>
      <trkpt lat="43.71065" lon="-1.43257">
        <ele>-2.75</ele>
        <time>2021-07-07T14:44:46Z</time>
      </trkpt>
      <trkpt lat="43.71065" lon="-1.43246">
        <ele>-3.23</ele>
        <time>2021-07-07T14:44:47Z</time>
      </trkpt>
      <trkpt lat="43.71064" lon="-1.43237">
        <ele>-3.71</ele>
        <time>2021-07-07T14:44:48Z</time>
      </trkpt>
      <trkpt lat="43.71064" lon="-1.43228">
        <ele>-3.71</ele>
        <time>2021-07-07T14:44:49Z</time>
      </trkpt>
      <trkpt lat="43.7106" lon="-1.43205">
        <ele>-3.71</ele>
        <time>2021-07-07T14:44:50Z</time>
      </trkpt>
      <trkpt lat="43.71056" lon="-1.43196">
        <ele>-4.19</ele>
        <time>2021-07-07T14:44:51Z</time>
      </trkpt>
      <trkpt lat="43.70999" lon="-1.43072">
        <ele>-5.63</ele>
        <time>2021-07-07T14:45:06Z</time>
      </trkpt>
      <trkpt lat="43.70994" lon="-1.43061">
        <ele>-5.63</ele>
        <time>2021-07-07T14:45:08Z</time>
      </trkpt>
      <trkpt lat="43.70992" lon="-1.43055">
        <ele>-5.15</ele>
        <time>2021-07-07T14:45:09Z</time>
      </trkpt>
      <trkpt lat="43.7099" lon="-1.4305">
        <ele>-5.15</ele>
        <time>2021-07-07T14:45:10Z</time>
      </trkpt>
      <trkpt lat="43.70988" lon="-1.43045">
        <ele>-5.15</ele>
        <time>2021-07-07T14:45:11Z</time>
      </trkpt>
      <trkpt lat="43.70982" lon="-1.43045">
        <ele>-5.15</ele>
        <time>2021-07-07T14:45:12Z</time>
      </trkpt>
      <trkpt lat="43.70976" lon="-1.43044">
        <ele>-5.15</ele>
        <time>2021-07-07T14:45:13Z</time>
      </trkpt>
      <trkpt lat="43.70953" lon="-1.43042">
        <ele>-5.15</ele>
        <time>2021-07-07T14:45:15Z</time>
      </trkpt>
      <trkpt lat="43.7085" lon="-1.43043">
        <ele>-7.07</ele>
        <time>2021-07-07T14:45:28Z</time>
      </trkpt>
      <trkpt lat="43.70788" lon="-1.43053">
        <ele>-6.11</ele>
        <time>2021-07-07T14:45:38Z</time>
      </trkpt>
      <trkpt lat="43.70784" lon="-1.43055">
        <ele>-5.63</ele>
        <time>2021-07-07T14:45:39Z</time>
      </trkpt>
      <trkpt lat="43.70777" lon="-1.43047">
        <ele>-5.63</ele>
        <time>2021-07-07T14:45:40Z</time>
      </trkpt>
      <trkpt lat="43.70775" lon="-1.43042">
        <ele>-6.59</ele>
        <time>2021-07-07T14:45:41Z</time>
      </trkpt>
      <trkpt lat="43.70775" lon="-1.43042">
        <ele>-6.59</ele>
        <time>2021-07-07T14:45:42Z</time>
      </trkpt>
      <trkpt lat="43.70774" lon="-1.43037">
        <ele>-6.59</ele>
        <time>2021-07-07T14:45:43Z</time>
      </trkpt>
      <trkpt lat="43.70772" lon="-1.43032">
        <ele>-6.59</ele>
        <time>2021-07-07T14:45:44Z</time>
      </trkpt>
      <trkpt lat="43.70765" lon="-1.43004">
        <ele>-5.63</ele>
        <time>2021-07-07T14:45:52Z</time>
      </trkpt>
      <trkpt lat="43.70752" lon="-1.4291">
        <ele>-4.19</ele>
        <time>2021-07-07T14:46:03Z</time>
      </trkpt>
      <trkpt lat="43.70778" lon="-1.42767">
        <ele>-5.15</ele>
        <time>2021-07-07T14:46:16Z</time>
      </trkpt>
      <trkpt lat="43.70819" lon="-1.42605">
        <ele>-5.63</ele>
        <time>2021-07-07T14:46:28Z</time>
      </trkpt>
      <trkpt lat="43.70845" lon="-1.425">
        <ele>-7.55</ele>
        <time>2021-07-07T14:46:36Z</time>
      </trkpt>
      <trkpt lat="43.70857" lon="-1.42447">
        <ele>-8.51</ele>
        <time>2021-07-07T14:46:40Z</time>
      </trkpt>
      <trkpt lat="43.70857" lon="-1.42432">
        <ele>-8.51</ele>
        <time>2021-07-07T14:46:41Z</time>
      </trkpt>
      <trkpt lat="43.70857" lon="-1.42416">
        <ele>-8.51</ele>
        <time>2021-07-07T14:46:42Z</time>
      </trkpt>
      <trkpt lat="43.70847" lon="-1.42351">
        <ele>-8.03</ele>
        <time>2021-07-07T14:46:46Z</time>
      </trkpt>
      <trkpt lat="43.70843" lon="-1.42334">
        <ele>-7.55</ele>
        <time>2021-07-07T14:46:47Z</time>
      </trkpt>
      <trkpt lat="43.70829" lon="-1.42301">
        <ele>-6.59</ele>
        <time>2021-07-07T14:46:48Z</time>
      </trkpt>
      <trkpt lat="43.70736" lon="-1.42082">
        <ele>-1.79</ele>
        <time>2021-07-07T14:47:02Z</time>
      </trkpt>
      <trkpt lat="43.70661" lon="-1.41892">
        <ele>2.06</ele>
        <time>2021-07-07T14:47:14Z</time>
      </trkpt>
      <trkpt lat="43.7065" lon="-1.41876">
        <ele>3.02</ele>
        <time>2021-07-07T14:47:17Z</time>
      </trkpt>
      <trkpt lat="43.70646" lon="-1.41869">
        <ele>3.02</ele>
        <time>2021-07-07T14:47:18Z</time>
      </trkpt>
      <trkpt lat="43.70642" lon="-1.41863">
        <ele>3.02</ele>
        <time>2021-07-07T14:47:19Z</time>
      </trkpt>
      <trkpt lat="43.70629" lon="-1.41859">
        <ele>2.54</ele>
        <time>2021-07-07T14:47:21Z</time>
      </trkpt>
      <trkpt lat="43.70624" lon="-1.41854">
        <ele>3.02</ele>
        <time>2021-07-07T14:47:22Z</time>
      </trkpt>
      <trkpt lat="43.70619" lon="-1.41844">
        <ele>3.02</ele>
        <time>2021-07-07T14:47:23Z</time>
      </trkpt>
      <trkpt lat="43.70616" lon="-1.41836">
        <ele>2.54</ele>
        <time>2021-07-07T14:47:24Z</time>
      </trkpt>
      <trkpt lat="43.70617" lon="-1.41823">
        <ele>2.54</ele>
        <time>2021-07-07T14:47:25Z</time>
      </trkpt>
      <trkpt lat="43.70619" lon="-1.41814">
        <ele>2.54</ele>
        <time>2021-07-07T14:47:26Z</time>
      </trkpt>
      <trkpt lat="43.7063" lon="-1.41802">
        <ele>2.06</ele>
        <time>2021-07-07T14:47:27Z</time>
      </trkpt>
      <trkpt lat="43.7063" lon="-1.41802">
        <ele>2.06</ele>
        <time>2021-07-07T14:47:28Z</time>
      </trkpt>
      <trkpt lat="43.70635" lon="-1.41798">
        <ele>2.06</ele>
        <time>2021-07-07T14:47:29Z</time>
      </trkpt>
      <trkpt lat="43.7065" lon="-1.41796">
        <ele>2.06</ele>
        <time>2021-07-07T14:47:30Z</time>
      </trkpt>
      <trkpt lat="43.7065" lon="-1.41796">
        <ele>2.06</ele>
        <time>2021-07-07T14:47:31Z</time>
      </trkpt>
      <trkpt lat="43.70658" lon="-1.41794">
        <ele>1.58</ele>
        <time>2021-07-07T14:47:32Z</time>
      </trkpt>
      <trkpt lat="43.70678" lon="-1.41782">
        <ele>1.1</ele>
        <time>2021-07-07T14:47:33Z</time>
      </trkpt>
      <trkpt lat="43.70737" lon="-1.41738">
        <ele>0.62</ele>
        <time>2021-07-07T14:47:40Z</time>
      </trkpt>
      <trkpt lat="43.70747" lon="-1.41731">
        <ele>0.62</ele>
        <time>2021-07-07T14:47:41Z</time>
      </trkpt>
      <trkpt lat="43.70756" lon="-1.41725">
        <ele>0.62</ele>
        <time>2021-07-07T14:47:42Z</time>
      </trkpt>
      <trkpt lat="43.70765" lon="-1.41719">
        <ele>1.58</ele>
        <time>2021-07-07T14:47:43Z</time>
      </trkpt>
      <trkpt lat="43.70776" lon="-1.41718">
        <ele>1.58</ele>
        <time>2021-07-07T14:47:44Z</time>
      </trkpt>
      <trkpt lat="43.70787" lon="-1.41717">
        <ele>2.54</ele>
        <time>2021-07-07T14:47:45Z</time>
      </trkpt>
      <trkpt lat="43.70799" lon="-1.41716">
        <ele>3.02</ele>
        <time>2021-07-07T14:47:46Z</time>
      </trkpt>
      <trkpt lat="43.70809" lon="-1.41718">
        <ele>3.5</ele>
        <time>2021-07-07T14:47:47Z</time>
      </trkpt>
      <trkpt lat="43.70819" lon="-1.41722">
        <ele>3.5</ele>
        <time>2021-07-07T14:47:48Z</time>
      </trkpt>
      <trkpt lat="43.70831" lon="-1.41728">
        <ele>4.94</ele>
        <time>2021-07-07T14:47:49Z</time>
      </trkpt>
      <trkpt lat="43.70847" lon="-1.41744">
        <ele>5.42</ele>
        <time>2021-07-07T14:47:50Z</time>
      </trkpt>
      <trkpt lat="43.70856" lon="-1.41755">
        <ele>6.39</ele>
        <time>2021-07-07T14:47:51Z</time>
      </trkpt>
      <trkpt lat="43.70856" lon="-1.41755">
        <ele>6.87</ele>
        <time>2021-07-07T14:47:52Z</time>
      </trkpt>
      <trkpt lat="43.70864" lon="-1.41765">
        <ele>6.87</ele>
        <time>2021-07-07T14:47:53Z</time>
      </trkpt>
      <trkpt lat="43.70934" lon="-1.41877">
        <ele>4.94</ele>
        <time>2021-07-07T14:48:02Z</time>
      </trkpt>
      <trkpt lat="43.70944" lon="-1.41886">
        <ele>4.46</ele>
        <time>2021-07-07T14:48:03Z</time>
      </trkpt>
      <trkpt lat="43.70955" lon="-1.41895">
        <ele>3.5</ele>
        <time>2021-07-07T14:48:04Z</time>
      </trkpt>
      <trkpt lat="43.70966" lon="-1.41903">
        <ele>3.02</ele>
        <time>2021-07-07T14:48:05Z</time>
      </trkpt>
      <trkpt lat="43.70978" lon="-1.41909">
        <ele>2.06</ele>
        <time>2021-07-07T14:48:06Z</time>
      </trkpt>
      <trkpt lat="43.7099" lon="-1.41915">
        <ele>2.06</ele>
        <time>2021-07-07T14:48:07Z</time>
      </trkpt>
      <trkpt lat="43.71003" lon="-1.41917">
        <ele>2.06</ele>
        <time>2021-07-07T14:48:08Z</time>
      </trkpt>
      <trkpt lat="43.71019" lon="-1.41919">
        <ele>2.06</ele>
        <time>2021-07-07T14:48:09Z</time>
      </trkpt>
      <trkpt lat="43.71034" lon="-1.41921">
        <ele>2.06</ele>
        <time>2021-07-07T14:48:10Z</time>
      </trkpt>
      <trkpt lat="43.71047" lon="-1.41918">
        <ele>1.58</ele>
        <time>2021-07-07T14:48:11Z</time>
      </trkpt>
      <trkpt lat="43.71174" lon="-1.41892">
        <ele>2.54</ele>
        <time>2021-07-07T14:48:20Z</time>
      </trkpt>
      <trkpt lat="43.71187" lon="-1.41894">
        <ele>3.5</ele>
        <time>2021-07-07T14:48:21Z</time>
      </trkpt>
      <trkpt lat="43.71202" lon="-1.41895">
        <ele>3.98</ele>
        <time>2021-07-07T14:48:22Z</time>
      </trkpt>
      <trkpt lat="43.71213" lon="-1.41901">
        <ele>4.46</ele>
        <time>2021-07-07T14:48:23Z</time>
      </trkpt>
      <trkpt lat="43.71225" lon="-1.41911">
        <ele>4.46</ele>
        <time>2021-07-07T14:48:24Z</time>
      </trkpt>
      <trkpt lat="43.71237" lon="-1.41921">
        <ele>4.46</ele>
        <time>2021-07-07T14:48:25Z</time>
      </trkpt>
      <trkpt lat="43.7125" lon="-1.4193">
        <ele>3.5</ele>
        <time>2021-07-07T14:48:26Z</time>
      </trkpt>
      <trkpt lat="43.71383" lon="-1.42063">
        <ele>0.14</ele>
        <time>2021-07-07T14:48:37Z</time>
      </trkpt>
      <trkpt lat="43.71494" lon="-1.42118">
        <ele>3.5</ele>
        <time>2021-07-07T14:48:45Z</time>
      </trkpt>
      <trkpt lat="43.71524" lon="-1.42122">
        <ele>1.58</ele>
        <time>2021-07-07T14:48:47Z</time>
      </trkpt>
      <trkpt lat="43.71539" lon="-1.42119">
        <ele>1.1</ele>
        <time>2021-07-07T14:48:48Z</time>
      </trkpt>
      <trkpt lat="43.7157" lon="-1.4211">
        <ele>1.1</ele>
        <time>2021-07-07T14:48:49Z</time>
      </trkpt>
      <trkpt lat="43.71585" lon="-1.42103">
        <ele>0.62</ele>
        <time>2021-07-07T14:48:50Z</time>
      </trkpt>
      <trkpt lat="43.71599" lon="-1.42096">
        <ele>0.14</ele>
        <time>2021-07-07T14:48:51Z</time>
      </trkpt>
      <trkpt lat="43.71599" lon="-1.42096">
        <ele>0.14</ele>
        <time>2021-07-07T14:48:52Z</time>
      </trkpt>
      <trkpt lat="43.71611" lon="-1.42087">
        <ele>0.14</ele>
        <time>2021-07-07T14:48:53Z</time>
      </trkpt>
      <trkpt lat="43.71623" lon="-1.42073">
        <ele>0.14</ele>
        <time>2021-07-07T14:48:54Z</time>
      </trkpt>
      <trkpt lat="43.71635" lon="-1.42059">
        <ele>1.58</ele>
        <time>2021-07-07T14:48:55Z</time>
      </trkpt>
      <trkpt lat="43.71645" lon="-1.42045">
        <ele>2.54</ele>
        <time>2021-07-07T14:48:56Z</time>
      </trkpt>
      <trkpt lat="43.71655" lon="-1.42029">
        <ele>3.5</ele>
        <time>2021-07-07T14:48:57Z</time>
      </trkpt>
      <trkpt lat="43.71809" lon="-1.41803">
        <ele>3.02</ele>
        <time>2021-07-07T14:49:12Z</time>
      </trkpt>
      <trkpt lat="43.71974" lon="-1.41649">
        <ele>-3.23</ele>
        <time>2021-07-07T14:49:24Z</time>
      </trkpt>
      <trkpt lat="43.72181" lon="-1.41515">
        <ele>-1.3</ele>
        <time>2021-07-07T14:49:37Z</time>
      </trkpt>
      <trkpt lat="43.72354" lon="-1.41405">
        <ele>-4.19</ele>
        <time>2021-07-07T14:49:51Z</time>
      </trkpt>
      <trkpt lat="43.7255" lon="-1.4128">
        <ele>-2.27</ele>
        <time>2021-07-07T14:50:06Z</time>
      </trkpt>
      <trkpt lat="43.72713" lon="-1.41183">
        <ele>1.1</ele>
        <time>2021-07-07T14:50:19Z</time>
      </trkpt>
      <trkpt lat="43.72828" lon="-1.4117">
        <ele>-1.3</ele>
        <time>2021-07-07T14:50:27Z</time>
      </trkpt>
      <trkpt lat="43.72953" lon="-1.41221">
        <ele>-1.79</ele>
        <time>2021-07-07T14:50:36Z</time>
      </trkpt>
      <trkpt lat="43.73056" lon="-1.41306">
        <ele>-0.82</ele>
        <time>2021-07-07T14:50:45Z</time>
      </trkpt>
      <trkpt lat="43.73067" lon="-1.41314">
        <ele>-0.34</ele>
        <time>2021-07-07T14:50:46Z</time>
      </trkpt>
      <trkpt lat="43.73078" lon="-1.41316">
        <ele>-0.34</ele>
        <time>2021-07-07T14:50:47Z</time>
      </trkpt>
      <trkpt lat="43.73089" lon="-1.41315">
        <ele>-1.3</ele>
        <time>2021-07-07T14:50:48Z</time>
      </trkpt>
      <trkpt lat="43.73101" lon="-1.41313">
        <ele>-2.27</ele>
        <time>2021-07-07T14:50:49Z</time>
      </trkpt>
      <trkpt lat="43.73114" lon="-1.4131">
        <ele>-3.23</ele>
        <time>2021-07-07T14:50:50Z</time>
      </trkpt>
      <trkpt lat="43.73126" lon="-1.41306">
        <ele>-3.71</ele>
        <time>2021-07-07T14:50:51Z</time>
      </trkpt>
      <trkpt lat="43.73293" lon="-1.41225">
        <ele>-2.75</ele>
        <time>2021-07-07T14:51:04Z</time>
      </trkpt>
      <trkpt lat="43.73429" lon="-1.41163">
        <ele>-3.23</ele>
        <time>2021-07-07T14:51:15Z</time>
      </trkpt>
      <trkpt lat="43.73442" lon="-1.4116">
        <ele>-2.75</ele>
        <time>2021-07-07T14:51:16Z</time>
      </trkpt>
      <trkpt lat="43.73456" lon="-1.4116">
        <ele>-1.79</ele>
        <time>2021-07-07T14:51:17Z</time>
      </trkpt>
      <trkpt lat="43.73469" lon="-1.41162">
        <ele>-1.79</ele>
        <time>2021-07-07T14:51:18Z</time>
      </trkpt>
      <trkpt lat="43.73482" lon="-1.41163">
        <ele>-1.3</ele>
        <time>2021-07-07T14:51:19Z</time>
      </trkpt>
      <trkpt lat="43.73494" lon="-1.41165">
        <ele>-2.27</ele>
        <time>2021-07-07T14:51:20Z</time>
      </trkpt>
      <trkpt lat="43.73506" lon="-1.41172">
        <ele>-2.27</ele>
        <time>2021-07-07T14:51:21Z</time>
      </trkpt>
      <trkpt lat="43.73518" lon="-1.41179">
        <ele>-1.79</ele>
        <time>2021-07-07T14:51:22Z</time>
      </trkpt>
      <trkpt lat="43.73531" lon="-1.41187">
        <ele>-1.3</ele>
        <time>2021-07-07T14:51:23Z</time>
      </trkpt>
      <trkpt lat="43.73601" lon="-1.4123">
        <ele>-1.79</ele>
        <time>2021-07-07T14:51:29Z</time>
      </trkpt>
      <trkpt lat="43.7361" lon="-1.41235">
        <ele>-1.3</ele>
        <time>2021-07-07T14:51:30Z</time>
      </trkpt>
      <trkpt lat="43.73621" lon="-1.41236">
        <ele>-1.3</ele>
        <time>2021-07-07T14:51:31Z</time>
      </trkpt>
      <trkpt lat="43.73633" lon="-1.41237">
        <ele>-1.79</ele>
        <time>2021-07-07T14:51:32Z</time>
      </trkpt>
      <trkpt lat="43.73655" lon="-1.41233">
        <ele>-3.23</ele>
        <time>2021-07-07T14:51:33Z</time>
      </trkpt>
      <trkpt lat="43.73655" lon="-1.41233">
        <ele>-2.75</ele>
        <time>2021-07-07T14:51:34Z</time>
      </trkpt>
      <trkpt lat="43.73667" lon="-1.41227">
        <ele>-2.75</ele>
        <time>2021-07-07T14:51:35Z</time>
      </trkpt>
      <trkpt lat="43.73677" lon="-1.41221">
        <ele>-2.75</ele>
        <time>2021-07-07T14:51:36Z</time>
      </trkpt>
      <trkpt lat="43.73687" lon="-1.41213">
        <ele>-2.75</ele>
        <time>2021-07-07T14:51:37Z</time>
      </trkpt>
      <trkpt lat="43.73846" lon="-1.41085">
        <ele>-4.19</ele>
        <time>2021-07-07T14:51:50Z</time>
      </trkpt>
      <trkpt lat="43.73988" lon="-1.4097">
        <ele>-4.19</ele>
        <time>2021-07-07T14:52:00Z</time>
      </trkpt>
      <trkpt lat="43.74149" lon="-1.40841">
        <ele>-5.63</ele>
        <time>2021-07-07T14:52:11Z</time>
      </trkpt>
      <trkpt lat="43.74369" lon="-1.40663">
        <ele>-6.59</ele>
        <time>2021-07-07T14:52:25Z</time>
      </trkpt>
      <trkpt lat="43.74668" lon="-1.40421">
        <ele>-4.19</ele>
        <time>2021-07-07T14:52:43Z</time>
      </trkpt>
      <trkpt lat="43.74913" lon="-1.40223">
        <ele>-1.3</ele>
        <time>2021-07-07T14:52:58Z</time>
      </trkpt>
      <trkpt lat="43.75183" lon="-1.40005">
        <ele>-0.82</ele>
        <time>2021-07-07T14:53:15Z</time>
      </trkpt>
      <trkpt lat="43.75347" lon="-1.39873">
        <ele>-1.79</ele>
        <time>2021-07-07T14:53:25Z</time>
      </trkpt>
      <trkpt lat="43.7563" lon="-1.39644">
        <ele>-2.27</ele>
        <time>2021-07-07T14:53:42Z</time>
      </trkpt>
      <trkpt lat="43.75852" lon="-1.39464">
        <ele>-2.27</ele>
        <time>2021-07-07T14:53:56Z</time>
      </trkpt>
      <trkpt lat="43.76021" lon="-1.39329">
        <ele>-6.11</ele>
        <time>2021-07-07T14:54:08Z</time>
      </trkpt>
      <trkpt lat="43.76173" lon="-1.39206">
        <ele>-6.11</ele>
        <time>2021-07-07T14:54:19Z</time>
      </trkpt>
      <trkpt lat="43.76279" lon="-1.3912">
        <ele>-5.63</ele>
        <time>2021-07-07T14:54:29Z</time>
      </trkpt>
      <trkpt lat="43.76294" lon="-1.39105">
        <ele>-5.15</ele>
        <time>2021-07-07T14:54:31Z</time>
      </trkpt>
      <trkpt lat="43.76303" lon="-1.39096">
        <ele>-4.67</ele>
        <time>2021-07-07T14:54:32Z</time>
      </trkpt>
      <trkpt lat="43.76421" lon="-1.3897">
        <ele>-5.63</ele>
        <time>2021-07-07T14:54:43Z</time>
      </trkpt>
      <trkpt lat="43.76502" lon="-1.38871">
        <ele>-4.67</ele>
        <time>2021-07-07T14:54:53Z</time>
      </trkpt>
      <trkpt lat="43.7651" lon="-1.38853">
        <ele>-4.19</ele>
        <time>2021-07-07T14:54:55Z</time>
      </trkpt>
      <trkpt lat="43.76514" lon="-1.38844">
        <ele>-3.71</ele>
        <time>2021-07-07T14:54:56Z</time>
      </trkpt>
      <trkpt lat="43.7652" lon="-1.3882">
        <ele>-3.23</ele>
        <time>2021-07-07T14:54:59Z</time>
      </trkpt>
      <trkpt lat="43.76523" lon="-1.38813">
        <ele>-2.75</ele>
        <time>2021-07-07T14:55:00Z</time>
      </trkpt>
      <trkpt lat="43.76529" lon="-1.38804">
        <ele>-2.27</ele>
        <time>2021-07-07T14:55:01Z</time>
      </trkpt>
      <trkpt lat="43.76534" lon="-1.38801">
        <ele>-1.79</ele>
        <time>2021-07-07T14:55:02Z</time>
      </trkpt>
      <trkpt lat="43.76539" lon="-1.38799">
        <ele>-2.75</ele>
        <time>2021-07-07T14:55:03Z</time>
      </trkpt>
      <trkpt lat="43.76547" lon="-1.388">
        <ele>-2.75</ele>
        <time>2021-07-07T14:55:04Z</time>
      </trkpt>
      <trkpt lat="43.76553" lon="-1.38801">
        <ele>-3.23</ele>
        <time>2021-07-07T14:55:05Z</time>
      </trkpt>
      <trkpt lat="43.76558" lon="-1.38806">
        <ele>-2.75</ele>
        <time>2021-07-07T14:55:06Z</time>
      </trkpt>
      <trkpt lat="43.76563" lon="-1.38813">
        <ele>-2.27</ele>
        <time>2021-07-07T14:55:07Z</time>
      </trkpt>
      <trkpt lat="43.76567" lon="-1.38818">
        <ele>-2.27</ele>
        <time>2021-07-07T14:55:08Z</time>
      </trkpt>
      <trkpt lat="43.76567" lon="-1.38824">
        <ele>-2.27</ele>
        <time>2021-07-07T14:55:09Z</time>
      </trkpt>
      <trkpt lat="43.76568" lon="-1.38832">
        <ele>-2.27</ele>
        <time>2021-07-07T14:55:10Z</time>
      </trkpt>
      <trkpt lat="43.76569" lon="-1.38841">
        <ele>-2.27</ele>
        <time>2021-07-07T14:55:11Z</time>
      </trkpt>
      <trkpt lat="43.76569" lon="-1.38848">
        <ele>-2.27</ele>
        <time>2021-07-07T14:55:12Z</time>
      </trkpt>
      <trkpt lat="43.76566" lon="-1.38855">
        <ele>-2.27</ele>
        <time>2021-07-07T14:55:13Z</time>
      </trkpt>
      <trkpt lat="43.76563" lon="-1.38862">
        <ele>-2.27</ele>
        <time>2021-07-07T14:55:14Z</time>
      </trkpt>
      <trkpt lat="43.76561" lon="-1.38873">
        <ele>-2.27</ele>
        <time>2021-07-07T14:55:15Z</time>
      </trkpt>
      <trkpt lat="43.76561" lon="-1.38882">
        <ele>-2.27</ele>
        <time>2021-07-07T14:55:16Z</time>
      </trkpt>
      <trkpt lat="43.76561" lon="-1.38892">
        <ele>-2.27</ele>
        <time>2021-07-07T14:55:17Z</time>
      </trkpt>
      <trkpt lat="43.76562" lon="-1.38902">
        <ele>-3.23</ele>
        <time>2021-07-07T14:55:18Z</time>
      </trkpt>
      <trkpt lat="43.76565" lon="-1.38912">
        <ele>-3.23</ele>
        <time>2021-07-07T14:55:19Z</time>
      </trkpt>
      <trkpt lat="43.76569" lon="-1.38923">
        <ele>-2.75</ele>
        <time>2021-07-07T14:55:20Z</time>
      </trkpt>
      <trkpt lat="43.76574" lon="-1.38937">
        <ele>-3.23</ele>
        <time>2021-07-07T14:55:21Z</time>
      </trkpt>
      <trkpt lat="43.76668" lon="-1.39045">
        <ele>-2.75</ele>
        <time>2021-07-07T14:55:31Z</time>
      </trkpt>
      <trkpt lat="43.76838" lon="-1.39152">
        <ele>-2.27</ele>
        <time>2021-07-07T14:55:44Z</time>
      </trkpt>
      <trkpt lat="43.77008" lon="-1.39248">
        <ele>0.14</ele>
        <time>2021-07-07T14:55:56Z</time>
      </trkpt>
      <trkpt lat="43.77253" lon="-1.3939">
        <ele>3.5</ele>
        <time>2021-07-07T14:56:13Z</time>
      </trkpt>
      <trkpt lat="43.77371" lon="-1.39452">
        <ele>3.5</ele>
        <time>2021-07-07T14:56:23Z</time>
      </trkpt>
      <trkpt lat="43.77423" lon="-1.39461">
        <ele>3.5</ele>
        <time>2021-07-07T14:56:29Z</time>
      </trkpt>
      <trkpt lat="43.7743" lon="-1.39461">
        <ele>3.02</ele>
        <time>2021-07-07T14:56:30Z</time>
      </trkpt>
      <trkpt lat="43.77436" lon="-1.3946">
        <ele>2.54</ele>
        <time>2021-07-07T14:56:31Z</time>
      </trkpt>
      <trkpt lat="43.77442" lon="-1.39457">
        <ele>2.54</ele>
        <time>2021-07-07T14:56:32Z</time>
      </trkpt>
      <trkpt lat="43.77448" lon="-1.39453">
        <ele>2.54</ele>
        <time>2021-07-07T14:56:33Z</time>
      </trkpt>
      <trkpt lat="43.77455" lon="-1.39452">
        <ele>2.06</ele>
        <time>2021-07-07T14:56:34Z</time>
      </trkpt>
      <trkpt lat="43.77462" lon="-1.39453">
        <ele>2.06</ele>
        <time>2021-07-07T14:56:35Z</time>
      </trkpt>
      <trkpt lat="43.77468" lon="-1.39457">
        <ele>2.06</ele>
        <time>2021-07-07T14:56:36Z</time>
      </trkpt>
      <trkpt lat="43.77473" lon="-1.39463">
        <ele>1.58</ele>
        <time>2021-07-07T14:56:37Z</time>
      </trkpt>
      <trkpt lat="43.77476" lon="-1.3947">
        <ele>1.58</ele>
        <time>2021-07-07T14:56:38Z</time>
      </trkpt>
      <trkpt lat="43.77477" lon="-1.39478">
        <ele>1.1</ele>
        <time>2021-07-07T14:56:39Z</time>
      </trkpt>
      <trkpt lat="43.7748" lon="-1.39486">
        <ele>0.62</ele>
        <time>2021-07-07T14:56:40Z</time>
      </trkpt>
      <trkpt lat="43.77483" lon="-1.39493">
        <ele>1.1</ele>
        <time>2021-07-07T14:56:41Z</time>
      </trkpt>
      <trkpt lat="43.77486" lon="-1.395">
        <ele>1.58</ele>
        <time>2021-07-07T14:56:42Z</time>
      </trkpt>
      <trkpt lat="43.77494" lon="-1.39516">
        <ele>1.58</ele>
        <time>2021-07-07T14:56:43Z</time>
      </trkpt>
      <trkpt lat="43.775" lon="-1.39523">
        <ele>1.58</ele>
        <time>2021-07-07T14:56:44Z</time>
      </trkpt>
      <trkpt lat="43.77507" lon="-1.3953">
        <ele>1.58</ele>
        <time>2021-07-07T14:56:45Z</time>
      </trkpt>
      <trkpt lat="43.77507" lon="-1.3953">
        <ele>1.58</ele>
        <time>2021-07-07T14:56:46Z</time>
      </trkpt>
      <trkpt lat="43.77513" lon="-1.39537">
        <ele>1.58</ele>
        <time>2021-07-07T14:56:47Z</time>
      </trkpt>
      <trkpt lat="43.77599" lon="-1.39589">
        <ele>2.54</ele>
        <time>2021-07-07T14:56:56Z</time>
      </trkpt>
      <trkpt lat="43.77738" lon="-1.39669">
        <ele>2.54</ele>
        <time>2021-07-07T14:57:08Z</time>
      </trkpt>
      <trkpt lat="43.7787" lon="-1.39746">
        <ele>3.98</ele>
        <time>2021-07-07T14:57:21Z</time>
      </trkpt>
      <trkpt lat="43.77892" lon="-1.39752">
        <ele>4.46</ele>
        <time>2021-07-07T14:57:24Z</time>
      </trkpt>
      <trkpt lat="43.77898" lon="-1.39753">
        <ele>4.46</ele>
        <time>2021-07-07T14:57:25Z</time>
      </trkpt>
      <trkpt lat="43.77916" lon="-1.39748">
        <ele>2.54</ele>
        <time>2021-07-07T14:57:28Z</time>
      </trkpt>
      <trkpt lat="43.77928" lon="-1.39752">
        <ele>2.54</ele>
        <time>2021-07-07T14:57:29Z</time>
      </trkpt>
      <trkpt lat="43.77928" lon="-1.39752">
        <ele>2.06</ele>
        <time>2021-07-07T14:57:30Z</time>
      </trkpt>
      <trkpt lat="43.77933" lon="-1.39757">
        <ele>1.58</ele>
        <time>2021-07-07T14:57:31Z</time>
      </trkpt>
      <trkpt lat="43.77936" lon="-1.39763">
        <ele>1.1</ele>
        <time>2021-07-07T14:57:32Z</time>
      </trkpt>
      <trkpt lat="43.77937" lon="-1.39776">
        <ele>0.62</ele>
        <time>2021-07-07T14:57:33Z</time>
      </trkpt>
      <trkpt lat="43.77937" lon="-1.39776">
        <ele>0.62</ele>
        <time>2021-07-07T14:57:34Z</time>
      </trkpt>
      <trkpt lat="43.77937" lon="-1.39784">
        <ele>0.14</ele>
        <time>2021-07-07T14:57:35Z</time>
      </trkpt>
      <trkpt lat="43.77935" lon="-1.39791">
        <ele>-0.82</ele>
        <time>2021-07-07T14:57:36Z</time>
      </trkpt>
      <trkpt lat="43.77931" lon="-1.39797">
        <ele>-1.3</ele>
        <time>2021-07-07T14:57:37Z</time>
      </trkpt>
      <trkpt lat="43.77925" lon="-1.39801">
        <ele>-2.27</ele>
        <time>2021-07-07T14:57:38Z</time>
      </trkpt>
      <trkpt lat="43.7792" lon="-1.39803">
        <ele>-1.79</ele>
        <time>2021-07-07T14:57:39Z</time>
      </trkpt>
      <trkpt lat="43.77916" lon="-1.3981">
        <ele>-1.79</ele>
        <time>2021-07-07T14:57:40Z</time>
      </trkpt>
      <trkpt lat="43.77913" lon="-1.39817">
        <ele>-2.27</ele>
        <time>2021-07-07T14:57:41Z</time>
      </trkpt>
      <trkpt lat="43.7791" lon="-1.39825">
        <ele>-2.27</ele>
        <time>2021-07-07T14:57:42Z</time>
      </trkpt>
      <trkpt lat="43.77908" lon="-1.39833">
        <ele>-2.27</ele>
        <time>2021-07-07T14:57:43Z</time>
      </trkpt>
      <trkpt lat="43.77904" lon="-1.39953">
        <ele>-3.23</ele>
        <time>2021-07-07T14:57:54Z</time>
      </trkpt>
      <trkpt lat="43.7791" lon="-1.40018">
        <ele>-3.23</ele>
        <time>2021-07-07T14:58:01Z</time>
      </trkpt>
      <trkpt lat="43.77913" lon="-1.40026">
        <ele>-3.23</ele>
        <time>2021-07-07T14:58:02Z</time>
      </trkpt>
      <trkpt lat="43.77915" lon="-1.40035">
        <ele>-3.23</ele>
        <time>2021-07-07T14:58:03Z</time>
      </trkpt>
      <trkpt lat="43.77944" lon="-1.40089">
        <ele>-3.23</ele>
        <time>2021-07-07T14:58:11Z</time>
      </trkpt>
      <trkpt lat="43.78011" lon="-1.40131">
        <ele>-2.75</ele>
        <time>2021-07-07T14:58:22Z</time>
      </trkpt>
      <trkpt lat="43.78097" lon="-1.40189">
        <ele>-3.23</ele>
        <time>2021-07-07T14:58:36Z</time>
      </trkpt>
      <trkpt lat="43.78101" lon="-1.40194">
        <ele>-3.23</ele>
        <time>2021-07-07T14:58:37Z</time>
      </trkpt>
      <trkpt lat="43.78105" lon="-1.40198">
        <ele>-2.75</ele>
        <time>2021-07-07T14:58:38Z</time>
      </trkpt>
      <trkpt lat="43.78108" lon="-1.40203">
        <ele>-3.23</ele>
        <time>2021-07-07T14:58:39Z</time>
      </trkpt>
      <trkpt lat="43.78114" lon="-1.40212">
        <ele>-3.23</ele>
        <time>2021-07-07T14:58:40Z</time>
      </trkpt>
      <trkpt lat="43.78114" lon="-1.40212">
        <ele>-3.23</ele>
        <time>2021-07-07T14:58:41Z</time>
      </trkpt>
      <trkpt lat="43.78116" lon="-1.40216">
        <ele>-3.23</ele>
        <time>2021-07-07T14:58:42Z</time>
      </trkpt>
      <trkpt lat="43.78118" lon="-1.4022">
        <ele>-2.75</ele>
        <time>2021-07-07T14:58:43Z</time>
      </trkpt>
      <trkpt lat="43.78123" lon="-1.40222">
        <ele>-2.75</ele>
        <time>2021-07-07T14:58:44Z</time>
      </trkpt>
      <trkpt lat="43.7813" lon="-1.40225">
        <ele>-2.75</ele>
        <time>2021-07-07T14:58:45Z</time>
      </trkpt>
      <trkpt lat="43.7813" lon="-1.40225">
        <ele>-2.75</ele>
        <time>2021-07-07T14:58:46Z</time>
      </trkpt>
      <trkpt lat="43.7816" lon="-1.40232">
        <ele>-2.27</ele>
        <time>2021-07-07T14:58:57Z</time>
      </trkpt>
      <trkpt lat="43.78173" lon="-1.40229">
        <ele>-2.27</ele>
        <time>2021-07-07T14:59:00Z</time>
      </trkpt>
      <trkpt lat="43.78242" lon="-1.40199">
        <ele>-2.27</ele>
        <time>2021-07-07T14:59:11Z</time>
      </trkpt>
      <trkpt lat="43.78352" lon="-1.40159">
        <ele>-1.3</ele>
        <time>2021-07-07T14:59:26Z</time>
      </trkpt>
      <trkpt lat="43.78402" lon="-1.40146">
        <ele>-1.3</ele>
        <time>2021-07-07T14:59:36Z</time>
      </trkpt>
      <trkpt lat="43.78459" lon="-1.40147">
        <ele>-1.3</ele>
        <time>2021-07-07T14:59:45Z</time>
      </trkpt>
      <trkpt lat="43.78466" lon="-1.40148">
        <ele>-1.3</ele>
        <time>2021-07-07T14:59:46Z</time>
      </trkpt>
      <trkpt lat="43.78472" lon="-1.40149">
        <ele>-1.3</ele>
        <time>2021-07-07T14:59:47Z</time>
      </trkpt>
      <trkpt lat="43.78477" lon="-1.40153">
        <ele>-1.3</ele>
        <time>2021-07-07T14:59:48Z</time>
      </trkpt>
      <trkpt lat="43.78483" lon="-1.40157">
        <ele>-1.3</ele>
        <time>2021-07-07T14:59:49Z</time>
      </trkpt>
      <trkpt lat="43.78551" lon="-1.40219">
        <ele>-1.79</ele>
        <time>2021-07-07T15:00:03Z</time>
      </trkpt>
      <trkpt lat="43.7859" lon="-1.40258">
        <ele>-1.79</ele>
        <time>2021-07-07T15:00:17Z</time>
      </trkpt>
      <trkpt lat="43.7863" lon="-1.40306">
        <ele>-2.27</ele>
        <time>2021-07-07T15:00:30Z</time>
      </trkpt>
      <trkpt lat="43.78635" lon="-1.40317">
        <ele>-2.27</ele>
        <time>2021-07-07T15:00:31Z</time>
      </trkpt>
      <trkpt lat="43.78636" lon="-1.40322">
        <ele>-1.79</ele>
        <time>2021-07-07T15:00:32Z</time>
      </trkpt>
      <trkpt lat="43.78646" lon="-1.40428">
        <ele>-1.3</ele>
        <time>2021-07-07T15:00:46Z</time>
      </trkpt>
      <trkpt lat="43.78662" lon="-1.40589">
        <ele>-0.82</ele>
        <time>2021-07-07T15:01:04Z</time>
      </trkpt>
      <trkpt lat="43.78666" lon="-1.40627">
        <ele>-0.34</ele>
        <time>2021-07-07T15:01:11Z</time>
      </trkpt>
      <trkpt lat="43.78666" lon="-1.4063">
        <ele>-0.34</ele>
        <time>2021-07-07T15:01:12Z</time>
      </trkpt>
      <trkpt lat="43.78662" lon="-1.40628">
        <ele>-0.34</ele>
        <time>2021-07-07T15:01:13Z</time>
      </trkpt>
      <trkpt lat="43.78598" lon="-1.40643">
        <ele>-1.79</ele>
        <time>2021-07-07T15:01:25Z</time>
      </trkpt>
      <trkpt lat="43.78551" lon="-1.40657">
        <ele>-1.3</ele>
        <time>2021-07-07T15:01:33Z</time>
      </trkpt>
      <trkpt lat="43.78546" lon="-1.40659">
        <ele>-1.3</ele>
        <time>2021-07-07T15:01:34Z</time>
      </trkpt>
      <trkpt lat="43.7854" lon="-1.40661">
        <ele>-0.82</ele>
        <time>2021-07-07T15:01:35Z</time>
      </trkpt>
      <trkpt lat="43.78535" lon="-1.40665">
        <ele>-0.82</ele>
        <time>2021-07-07T15:01:36Z</time>
      </trkpt>
      <trkpt lat="43.78531" lon="-1.40672">
        <ele>-0.82</ele>
        <time>2021-07-07T15:01:37Z</time>
      </trkpt>
      <trkpt lat="43.78527" lon="-1.40679">
        <ele>-0.82</ele>
        <time>2021-07-07T15:01:38Z</time>
      </trkpt>
      <trkpt lat="43.78466" lon="-1.40795">
        <ele>0.14</ele>
        <time>2021-07-07T15:01:52Z</time>
      </trkpt>
      <trkpt lat="43.7843" lon="-1.40863">
        <ele>-0.34</ele>
        <time>2021-07-07T15:02:03Z</time>
      </trkpt>
      <trkpt lat="43.78424" lon="-1.40875">
        <ele>-0.34</ele>
        <time>2021-07-07T15:02:04Z</time>
      </trkpt>
      <trkpt lat="43.78424" lon="-1.40875">
        <ele>-0.34</ele>
        <time>2021-07-07T15:02:05Z</time>
      </trkpt>
      <trkpt lat="43.78423" lon="-1.40881">
        <ele>-0.34</ele>
        <time>2021-07-07T15:02:06Z</time>
      </trkpt>
      <trkpt lat="43.78423" lon="-1.40888">
        <ele>-0.34</ele>
        <time>2021-07-07T15:02:07Z</time>
      </trkpt>
      <trkpt lat="43.78423" lon="-1.40893">
        <ele>-0.82</ele>
        <time>2021-07-07T15:02:08Z</time>
      </trkpt>
      <trkpt lat="43.78424" lon="-1.409">
        <ele>-0.82</ele>
        <time>2021-07-07T15:02:09Z</time>
      </trkpt>
      <trkpt lat="43.78437" lon="-1.40977">
        <ele>-0.82</ele>
        <time>2021-07-07T15:02:23Z</time>
      </trkpt>
      <trkpt lat="43.78442" lon="-1.40999">
        <ele>-1.3</ele>
        <time>2021-07-07T15:02:27Z</time>
      </trkpt>
      <trkpt lat="43.78442" lon="-1.40999">
        <ele>-1.3</ele>
        <time>2021-07-07T15:02:28Z</time>
      </trkpt>
      <trkpt lat="43.78443" lon="-1.41005">
        <ele>-1.3</ele>
        <time>2021-07-07T15:02:29Z</time>
      </trkpt>
      <trkpt lat="43.78445" lon="-1.41009">
        <ele>-1.3</ele>
        <time>2021-07-07T15:02:30Z</time>
      </trkpt>
      <trkpt lat="43.78453" lon="-1.41015">
        <ele>-1.3</ele>
        <time>2021-07-07T15:02:31Z</time>
      </trkpt>
      <trkpt lat="43.78453" lon="-1.41015">
        <ele>-1.79</ele>
        <time>2021-07-07T15:02:32Z</time>
      </trkpt>
      <trkpt lat="43.78457" lon="-1.41018">
        <ele>-1.79</ele>
        <time>2021-07-07T15:02:33Z</time>
      </trkpt>
      <trkpt lat="43.78465" lon="-1.41023">
        <ele>-1.79</ele>
        <time>2021-07-07T15:02:34Z</time>
      </trkpt>
      <trkpt lat="43.78485" lon="-1.4103">
        <ele>-1.79</ele>
        <time>2021-07-07T15:02:41Z</time>
      </trkpt>
      <trkpt lat="43.78487" lon="-1.41031">
        <ele>-1.79</ele>
        <time>2021-07-07T15:02:42Z</time>
      </trkpt>
      <trkpt lat="43.78488" lon="-1.41031">
        <ele>-2.27</ele>
        <time>2021-07-07T15:02:43Z</time>
      </trkpt>
      <trkpt lat="43.78484" lon="-1.41044">
        <ele>-2.27</ele>
        <time>2021-07-07T15:02:54Z</time>
      </trkpt>
      <trkpt lat="43.78485" lon="-1.41054">
        <ele>16.48</ele>
        <time>2021-07-07T15:47:16Z</time>
      </trkpt>
      <trkpt lat="43.78483" lon="-1.41044">
        <ele>2.54</ele>
        <time>2021-07-07T15:47:31Z</time>
      </trkpt>
      <trkpt lat="43.78483" lon="-1.41046">
        <ele>2.54</ele>
        <time>2021-07-07T15:47:37Z</time>
      </trkpt>
      <trkpt lat="43.78474" lon="-1.41047">
        <ele>2.54</ele>
        <time>2021-07-07T15:47:43Z</time>
      </trkpt>
      <trkpt lat="43.78473" lon="-1.41047">
        <ele>2.54</ele>
        <time>2021-07-07T15:47:44Z</time>
      </trkpt>
      <trkpt lat="43.78473" lon="-1.41047">
        <ele>2.54</ele>
        <time>2021-07-07T15:47:45Z</time>
      </trkpt>
      <trkpt lat="43.78464" lon="-1.41036">
        <ele>2.54</ele>
        <time>2021-07-07T15:47:46Z</time>
      </trkpt>
      <trkpt lat="43.78464" lon="-1.41036">
        <ele>2.06</ele>
        <time>2021-07-07T15:47:47Z</time>
      </trkpt>
      <trkpt lat="43.78477" lon="-1.41027">
        <ele>2.06</ele>
        <time>2021-07-07T15:47:48Z</time>
      </trkpt>
      <trkpt lat="43.78482" lon="-1.41029">
        <ele>2.06</ele>
        <time>2021-07-07T15:47:49Z</time>
      </trkpt>
      <trkpt lat="43.78482" lon="-1.41029">
        <ele>2.06</ele>
        <time>2021-07-07T15:47:50Z</time>
      </trkpt>
      <trkpt lat="43.78485" lon="-1.4103">
        <ele>2.54</ele>
        <time>2021-07-07T15:47:51Z</time>
      </trkpt>
      <trkpt lat="43.78488" lon="-1.41031">
        <ele>2.54</ele>
        <time>2021-07-07T15:47:52Z</time>
      </trkpt>
      <trkpt lat="43.78491" lon="-1.41033">
        <ele>3.02</ele>
        <time>2021-07-07T15:47:53Z</time>
      </trkpt>
      <trkpt lat="43.78522" lon="-1.41063">
        <ele>2.06</ele>
        <time>2021-07-07T15:48:06Z</time>
      </trkpt>
      <trkpt lat="43.78525" lon="-1.41121">
        <ele>0.62</ele>
        <time>2021-07-07T15:48:22Z</time>
      </trkpt>
      <trkpt lat="43.7855" lon="-1.41185">
        <ele>1.1</ele>
        <time>2021-07-07T15:48:36Z</time>
      </trkpt>
      <trkpt lat="43.78577" lon="-1.41234">
        <ele>4.94</ele>
        <time>2021-07-07T15:48:49Z</time>
      </trkpt>
      <trkpt lat="43.78584" lon="-1.41231">
        <ele>5.42</ele>
        <time>2021-07-07T15:48:58Z</time>
      </trkpt>
      <trkpt lat="43.78589" lon="-1.41229">
        <ele>5.42</ele>
        <time>2021-07-07T15:53:35Z</time>
      </trkpt>
      <trkpt lat="43.78591" lon="-1.41228">
        <ele>5.42</ele>
        <time>2021-07-07T15:53:36Z</time>
      </trkpt>
      <trkpt lat="43.78595" lon="-1.41226">
        <ele>5.42</ele>
        <time>2021-07-07T15:53:37Z</time>
      </trkpt>
      <trkpt lat="43.78595" lon="-1.41226">
        <ele>5.42</ele>
        <time>2021-07-07T15:53:38Z</time>
      </trkpt>
      <trkpt lat="43.78596" lon="-1.41226">
        <ele>4.94</ele>
        <time>2021-07-07T15:53:39Z</time>
      </trkpt>
      <trkpt lat="43.78597" lon="-1.41225">
        <ele>4.94</ele>
        <time>2021-07-07T15:53:40Z</time>
      </trkpt>
      <trkpt lat="43.78598" lon="-1.41229">
        <ele>4.94</ele>
        <time>2021-07-07T15:53:55Z</time>
      </trkpt>
      <trkpt lat="43.78598" lon="-1.41228">
        <ele>4.94</ele>
        <time>2021-07-07T15:53:59Z</time>
      </trkpt>
      <trkpt lat="43.78599" lon="-1.41224">
        <ele>4.94</ele>
        <time>2021-07-07T15:54:03Z</time>
      </trkpt>
      <trkpt lat="43.78601" lon="-1.41224">
        <ele>4.94</ele>
        <time>2021-07-07T15:54:04Z</time>
      </trkpt>
      <trkpt lat="43.78607" lon="-1.41221">
        <ele>4.94</ele>
        <time>2021-07-07T15:54:05Z</time>
      </trkpt>
      <trkpt lat="43.78611" lon="-1.41219">
        <ele>5.42</ele>
        <time>2021-07-07T15:54:06Z</time>
      </trkpt>
      <trkpt lat="43.78668" lon="-1.41195">
        <ele>6.39</ele>
        <time>2021-07-07T15:54:22Z</time>
      </trkpt>
    </trkseg>
  </trk>
  <trk>
    <name><![CDATA[Journal actif: 2021-07-07 13:54]]></name>
    <trkseg>
      <trkpt lat="43.78677" lon="-1.41191">
        <ele>5.91</ele>
        <time>2021-07-07T15:54:25Z</time>
      </trkpt>
      <trkpt lat="43.78743" lon="-1.41171">
        <ele>3.5</ele>
        <time>2021-07-07T15:54:42Z</time>
      </trkpt>
      <trkpt lat="43.78771" lon="-1.41162">
        <ele>3.98</ele>
        <time>2021-07-07T15:54:55Z</time>
      </trkpt>
      <trkpt lat="43.78793" lon="-1.41156">
        <ele>3.5</ele>
        <time>2021-07-07T15:55:05Z</time>
      </trkpt>
      <trkpt lat="43.78795" lon="-1.41155">
        <ele>3.5</ele>
        <time>2021-07-07T15:55:06Z</time>
      </trkpt>
      <trkpt lat="43.78803" lon="-1.41153">
        <ele>3.5</ele>
        <time>2021-07-07T15:55:07Z</time>
      </trkpt>
      <trkpt lat="43.78803" lon="-1.41153">
        <ele>3.02</ele>
        <time>2021-07-07T15:55:08Z</time>
      </trkpt>
      <trkpt lat="43.78786" lon="-1.41116">
        <ele>2.54</ele>
        <time>2021-07-07T15:55:10Z</time>
      </trkpt>
      <trkpt lat="43.78794" lon="-1.41114">
        <ele>2.06</ele>
        <time>2021-07-07T15:55:21Z</time>
      </trkpt>
      <trkpt lat="43.78822" lon="-1.41059">
        <ele>1.58</ele>
        <time>2021-07-07T15:55:34Z</time>
      </trkpt>
      <trkpt lat="43.78806" lon="-1.41025">
        <ele>0.14</ele>
        <time>2021-07-07T15:55:42Z</time>
      </trkpt>
      <trkpt lat="43.78757" lon="-1.40937">
        <ele>-2.75</ele>
        <time>2021-07-07T15:55:59Z</time>
      </trkpt>
      <trkpt lat="43.78749" lon="-1.40923">
        <ele>-2.75</ele>
        <time>2021-07-07T15:56:03Z</time>
      </trkpt>
      <trkpt lat="43.78749" lon="-1.40923">
        <ele>-2.75</ele>
        <time>2021-07-07T15:56:04Z</time>
      </trkpt>
      <trkpt lat="43.78754" lon="-1.40921">
        <ele>-2.75</ele>
        <time>2021-07-07T15:56:05Z</time>
      </trkpt>
      <trkpt lat="43.78814" lon="-1.40891">
        <ele>-2.75</ele>
        <time>2021-07-07T15:56:16Z</time>
      </trkpt>
      <trkpt lat="43.78845" lon="-1.40875">
        <ele>-2.27</ele>
        <time>2021-07-07T15:56:21Z</time>
      </trkpt>
      <trkpt lat="43.78849" lon="-1.40872">
        <ele>-2.27</ele>
        <time>2021-07-07T15:56:22Z</time>
      </trkpt>
      <trkpt lat="43.78861" lon="-1.40863">
        <ele>-1.79</ele>
        <time>2021-07-07T15:56:26Z</time>
      </trkpt>
      <trkpt lat="43.78871" lon="-1.40868">
        <ele>-1.3</ele>
        <time>2021-07-07T15:56:28Z</time>
      </trkpt>
      <trkpt lat="43.78875" lon="-1.40865">
        <ele>-1.3</ele>
        <time>2021-07-07T15:56:29Z</time>
      </trkpt>
      <trkpt lat="43.7888" lon="-1.40862">
        <ele>-1.3</ele>
        <time>2021-07-07T15:56:30Z</time>
      </trkpt>
      <trkpt lat="43.78943" lon="-1.40824">
        <ele>0.14</ele>
        <time>2021-07-07T15:56:39Z</time>
      </trkpt>
      <trkpt lat="43.78951" lon="-1.4082">
        <ele>0.62</ele>
        <time>2021-07-07T15:56:40Z</time>
      </trkpt>
      <trkpt lat="43.7896" lon="-1.40817">
        <ele>1.1</ele>
        <time>2021-07-07T15:56:41Z</time>
      </trkpt>
      <trkpt lat="43.78968" lon="-1.40814">
        <ele>2.06</ele>
        <time>2021-07-07T15:56:42Z</time>
      </trkpt>
      <trkpt lat="43.78977" lon="-1.40814">
        <ele>2.06</ele>
        <time>2021-07-07T15:56:43Z</time>
      </trkpt>
      <trkpt lat="43.78988" lon="-1.40815">
        <ele>3.02</ele>
        <time>2021-07-07T15:56:44Z</time>
      </trkpt>
      <trkpt lat="43.79" lon="-1.40815">
        <ele>3.5</ele>
        <time>2021-07-07T15:56:45Z</time>
      </trkpt>
      <trkpt lat="43.79104" lon="-1.40819">
        <ele>2.06</ele>
        <time>2021-07-07T15:56:57Z</time>
      </trkpt>
      <trkpt lat="43.79111" lon="-1.40817">
        <ele>1.58</ele>
        <time>2021-07-07T15:56:58Z</time>
      </trkpt>
      <trkpt lat="43.79159" lon="-1.40791">
        <ele>0.62</ele>
        <time>2021-07-07T15:57:06Z</time>
      </trkpt>
      <trkpt lat="43.79164" lon="-1.40788">
        <ele>0.62</ele>
        <time>2021-07-07T15:57:07Z</time>
      </trkpt>
      <trkpt lat="43.79174" lon="-1.40779">
        <ele>0.62</ele>
        <time>2021-07-07T15:57:11Z</time>
      </trkpt>
      <trkpt lat="43.79176" lon="-1.40778">
        <ele>0.14</ele>
        <time>2021-07-07T15:57:12Z</time>
      </trkpt>
      <trkpt lat="43.79176" lon="-1.40777">
        <ele>0.14</ele>
        <time>2021-07-07T15:57:13Z</time>
      </trkpt>
      <trkpt lat="43.79177" lon="-1.40781">
        <ele>0.14</ele>
        <time>2021-07-07T15:57:14Z</time>
      </trkpt>
      <trkpt lat="43.79179" lon="-1.40785">
        <ele>-0.34</ele>
        <time>2021-07-07T15:57:15Z</time>
      </trkpt>
      <trkpt lat="43.7918" lon="-1.4079">
        <ele>-0.82</ele>
        <time>2021-07-07T15:57:16Z</time>
      </trkpt>
      <trkpt lat="43.79207" lon="-1.40874">
        <ele>0.62</ele>
        <time>2021-07-07T15:57:27Z</time>
      </trkpt>
      <trkpt lat="43.79234" lon="-1.40964">
        <ele>5.91</ele>
        <time>2021-07-07T15:57:39Z</time>
      </trkpt>
      <trkpt lat="43.79243" lon="-1.40971">
        <ele>5.91</ele>
        <time>2021-07-07T15:57:42Z</time>
      </trkpt>
      <trkpt lat="43.79241" lon="-1.40983">
        <ele>5.91</ele>
        <time>2021-07-07T15:57:43Z</time>
      </trkpt>
      <trkpt lat="43.79241" lon="-1.40983">
        <ele>5.91</ele>
        <time>2021-07-07T15:57:44Z</time>
      </trkpt>
      <trkpt lat="43.79237" lon="-1.40985">
        <ele>5.42</ele>
        <time>2021-07-07T15:57:45Z</time>
      </trkpt>
      <trkpt lat="43.79236" lon="-1.40986">
        <ele>5.42</ele>
        <time>2021-07-07T15:57:46Z</time>
      </trkpt>
      <trkpt lat="43.79233" lon="-1.40981">
        <ele>5.42</ele>
        <time>2021-07-07T15:57:47Z</time>
      </trkpt>
      <trkpt lat="43.79228" lon="-1.40978">
        <ele>5.42</ele>
        <time>2021-07-07T15:57:48Z</time>
      </trkpt>
      <trkpt lat="43.79225" lon="-1.40979">
        <ele>5.42</ele>
        <time>2021-07-07T15:57:49Z</time>
      </trkpt>
      <trkpt lat="43.79216" lon="-1.40982">
        <ele>5.91</ele>
        <time>2021-07-07T15:57:50Z</time>
      </trkpt>
      <trkpt lat="43.7915" lon="-1.41007">
        <ele>4.46</ele>
        <time>2021-07-07T15:58:01Z</time>
      </trkpt>
      <trkpt lat="43.79025" lon="-1.41039">
        <ele>-1.3</ele>
        <time>2021-07-07T15:58:19Z</time>
      </trkpt>
      <trkpt lat="43.78982" lon="-1.41049">
        <ele>0.62</ele>
        <time>2021-07-07T15:58:28Z</time>
      </trkpt>
      <trkpt lat="43.78978" lon="-1.4105">
        <ele>0.62</ele>
        <time>2021-07-07T15:58:30Z</time>
      </trkpt>
      <trkpt lat="43.78977" lon="-1.4105">
        <ele>0.14</ele>
        <time>2021-07-07T15:58:31Z</time>
      </trkpt>
      <trkpt lat="43.78977" lon="-1.4105">
        <ele>0.14</ele>
        <time>2021-07-07T15:58:32Z</time>
      </trkpt>
      <trkpt lat="43.78976" lon="-1.41048">
        <ele>0.14</ele>
        <time>2021-07-07T15:58:33Z</time>
      </trkpt>
      <trkpt lat="43.78976" lon="-1.41045">
        <ele>-0.34</ele>
        <time>2021-07-07T15:58:34Z</time>
      </trkpt>
      <trkpt lat="43.78975" lon="-1.41041">
        <ele>-0.34</ele>
        <time>2021-07-07T15:58:35Z</time>
      </trkpt>
      <trkpt lat="43.78975" lon="-1.41037">
        <ele>-0.82</ele>
        <time>2021-07-07T15:58:36Z</time>
      </trkpt>
      <trkpt lat="43.78975" lon="-1.41034">
        <ele>-1.3</ele>
        <time>2021-07-07T15:58:37Z</time>
      </trkpt>
      <trkpt lat="43.78987" lon="-1.40959">
        <ele>-3.71</ele>
        <time>2021-07-07T15:58:50Z</time>
      </trkpt>
      <trkpt lat="43.78987" lon="-1.40955">
        <ele>-3.71</ele>
        <time>2021-07-07T15:58:51Z</time>
      </trkpt>
      <trkpt lat="43.78984" lon="-1.40951">
        <ele>-4.19</ele>
        <time>2021-07-07T15:58:52Z</time>
      </trkpt>
      <trkpt lat="43.7898" lon="-1.40948">
        <ele>-4.19</ele>
        <time>2021-07-07T15:58:53Z</time>
      </trkpt>
      <trkpt lat="43.78976" lon="-1.40946">
        <ele>-4.67</ele>
        <time>2021-07-07T15:58:54Z</time>
      </trkpt>
      <trkpt lat="43.78913" lon="-1.40892">
        <ele>-7.55</ele>
        <time>2021-07-07T15:59:08Z</time>
      </trkpt>
      <trkpt lat="43.78894" lon="-1.40865">
        <ele>-8.03</ele>
        <time>2021-07-07T15:59:14Z</time>
      </trkpt>
      <trkpt lat="43.78887" lon="-1.40869">
        <ele>-8.03</ele>
        <time>2021-07-07T15:59:15Z</time>
      </trkpt>
      <trkpt lat="43.78884" lon="-1.40872">
        <ele>-8.03</ele>
        <time>2021-07-07T15:59:16Z</time>
      </trkpt>
      <trkpt lat="43.78878" lon="-1.40879">
        <ele>-8.51</ele>
        <time>2021-07-07T15:59:17Z</time>
      </trkpt>
      <trkpt lat="43.78875" lon="-1.40881">
        <ele>-9</ele>
        <time>2021-07-07T15:59:18Z</time>
      </trkpt>
      <trkpt lat="43.78875" lon="-1.40881">
        <ele>-9</ele>
        <time>2021-07-07T15:59:19Z</time>
      </trkpt>
      <trkpt lat="43.78871" lon="-1.40878">
        <ele>-9</ele>
        <time>2021-07-07T15:59:20Z</time>
      </trkpt>
      <trkpt lat="43.78865" lon="-1.40867">
        <ele>-9.48</ele>
        <time>2021-07-07T15:59:21Z</time>
      </trkpt>
      <trkpt lat="43.78865" lon="-1.40867">
        <ele>-9.48</ele>
        <time>2021-07-07T15:59:22Z</time>
      </trkpt>
      <trkpt lat="43.78856" lon="-1.40867">
        <ele>-9.48</ele>
        <time>2021-07-07T15:59:23Z</time>
      </trkpt>
      <trkpt lat="43.78852" lon="-1.4087">
        <ele>-9.48</ele>
        <time>2021-07-07T15:59:24Z</time>
      </trkpt>
      <trkpt lat="43.78847" lon="-1.40873">
        <ele>-9.96</ele>
        <time>2021-07-07T15:59:25Z</time>
      </trkpt>
      <trkpt lat="43.78772" lon="-1.40912">
        <ele>-6.11</ele>
        <time>2021-07-07T15:59:37Z</time>
      </trkpt>
      <trkpt lat="43.78753" lon="-1.40921">
        <ele>-5.63</ele>
        <time>2021-07-07T15:59:40Z</time>
      </trkpt>
      <trkpt lat="43.78753" lon="-1.40921">
        <ele>-6.11</ele>
        <time>2021-07-07T15:59:41Z</time>
      </trkpt>
      <trkpt lat="43.78748" lon="-1.40916">
        <ele>-6.11</ele>
        <time>2021-07-07T15:59:42Z</time>
      </trkpt>
      <trkpt lat="43.78748" lon="-1.40916">
        <ele>-6.11</ele>
        <time>2021-07-07T15:59:43Z</time>
      </trkpt>
      <trkpt lat="43.78747" lon="-1.40902">
        <ele>-6.59</ele>
        <time>2021-07-07T15:59:44Z</time>
      </trkpt>
      <trkpt lat="43.78736" lon="-1.40809">
        <ele>-7.55</ele>
        <time>2021-07-07T15:59:53Z</time>
      </trkpt>
      <trkpt lat="43.78718" lon="-1.40664">
        <ele>-8.03</ele>
        <time>2021-07-07T16:00:05Z</time>
      </trkpt>
      <trkpt lat="43.78711" lon="-1.40554">
        <ele>-7.07</ele>
        <time>2021-07-07T16:00:16Z</time>
      </trkpt>
      <trkpt lat="43.78687" lon="-1.40409">
        <ele>-9</ele>
        <time>2021-07-07T16:00:28Z</time>
      </trkpt>
      <trkpt lat="43.78674" lon="-1.40269">
        <ele>-7.55</ele>
        <time>2021-07-07T16:00:41Z</time>
      </trkpt>
      <trkpt lat="43.78667" lon="-1.40213">
        <ele>-6.59</ele>
        <time>2021-07-07T16:00:50Z</time>
      </trkpt>
      <trkpt lat="43.78667" lon="-1.40213">
        <ele>-6.59</ele>
        <time>2021-07-07T16:00:51Z</time>
      </trkpt>
      <trkpt lat="43.78671" lon="-1.40212">
        <ele>-6.59</ele>
        <time>2021-07-07T16:00:52Z</time>
      </trkpt>
      <trkpt lat="43.78675" lon="-1.40211">
        <ele>-6.11</ele>
        <time>2021-07-07T16:00:53Z</time>
      </trkpt>
      <trkpt lat="43.7868" lon="-1.4021">
        <ele>-6.11</ele>
        <time>2021-07-07T16:00:54Z</time>
      </trkpt>
      <trkpt lat="43.78737" lon="-1.40198">
        <ele>-4.19</ele>
        <time>2021-07-07T16:01:06Z</time>
      </trkpt>
      <trkpt lat="43.78739" lon="-1.40198">
        <ele>-4.67</ele>
        <time>2021-07-07T16:01:07Z</time>
      </trkpt>
      <trkpt lat="43.78746" lon="-1.40187">
        <ele>-4.67</ele>
        <time>2021-07-07T16:01:08Z</time>
      </trkpt>
      <trkpt lat="43.78741" lon="-1.40148">
        <ele>-3.71</ele>
        <time>2021-07-07T16:01:20Z</time>
      </trkpt>
      <trkpt lat="43.78741" lon="-1.40148">
        <ele>-3.71</ele>
        <time>2021-07-07T16:01:28Z</time>
      </trkpt>
      <trkpt lat="43.78741" lon="-1.40147">
        <ele>-3.71</ele>
        <time>2021-07-07T16:01:29Z</time>
      </trkpt>
      <trkpt lat="43.78734" lon="-1.40147">
        <ele>-3.71</ele>
        <time>2021-07-07T16:01:30Z</time>
      </trkpt>
      <trkpt lat="43.787" lon="-1.40155">
        <ele>-3.71</ele>
        <time>2021-07-07T16:01:40Z</time>
      </trkpt>
      <trkpt lat="43.78697" lon="-1.40156">
        <ele>-3.71</ele>
        <time>2021-07-07T16:01:41Z</time>
      </trkpt>
      <trkpt lat="43.787" lon="-1.40156">
        <ele>-3.71</ele>
        <time>2021-07-07T16:01:42Z</time>
      </trkpt>
      <trkpt lat="43.78706" lon="-1.40198">
        <ele>-3.71</ele>
        <time>2021-07-07T16:01:55Z</time>
      </trkpt>
      <trkpt lat="43.78706" lon="-1.40198">
        <ele>-3.23</ele>
        <time>2021-07-07T16:01:59Z</time>
      </trkpt>
      <trkpt lat="43.78706" lon="-1.40205">
        <ele>-3.23</ele>
        <time>2021-07-07T16:02:00Z</time>
      </trkpt>
      <trkpt lat="43.78706" lon="-1.40204">
        <ele>-3.71</ele>
        <time>2021-07-07T16:02:01Z</time>
      </trkpt>
      <trkpt lat="43.78709" lon="-1.40204">
        <ele>-3.71</ele>
        <time>2021-07-07T16:02:02Z</time>
      </trkpt>
      <trkpt lat="43.78716" lon="-1.40202">
        <ele>-3.71</ele>
        <time>2021-07-07T16:02:03Z</time>
      </trkpt>
      <trkpt lat="43.78716" lon="-1.40202">
        <ele>-3.71</ele>
        <time>2021-07-07T16:02:04Z</time>
      </trkpt>
      <trkpt lat="43.7872" lon="-1.40202">
        <ele>-4.19</ele>
        <time>2021-07-07T16:02:05Z</time>
      </trkpt>
      <trkpt lat="43.78794" lon="-1.40182">
        <ele>-3.71</ele>
        <time>2021-07-07T16:02:18Z</time>
      </trkpt>
      <trkpt lat="43.78799" lon="-1.40181">
        <ele>-3.71</ele>
        <time>2021-07-07T16:02:19Z</time>
      </trkpt>
      <trkpt lat="43.78803" lon="-1.40179">
        <ele>-3.71</ele>
        <time>2021-07-07T16:02:20Z</time>
      </trkpt>
      <trkpt lat="43.78808" lon="-1.40175">
        <ele>-3.71</ele>
        <time>2021-07-07T16:02:21Z</time>
      </trkpt>
      <trkpt lat="43.78812" lon="-1.40169">
        <ele>-3.71</ele>
        <time>2021-07-07T16:02:22Z</time>
      </trkpt>
      <trkpt lat="43.78814" lon="-1.40164">
        <ele>-3.71</ele>
        <time>2021-07-07T16:02:23Z</time>
      </trkpt>
      <trkpt lat="43.78817" lon="-1.40159">
        <ele>-3.71</ele>
        <time>2021-07-07T16:02:24Z</time>
      </trkpt>
      <trkpt lat="43.78819" lon="-1.40154">
        <ele>-3.71</ele>
        <time>2021-07-07T16:02:25Z</time>
      </trkpt>
      <trkpt lat="43.78821" lon="-1.40149">
        <ele>-3.71</ele>
        <time>2021-07-07T16:02:26Z</time>
      </trkpt>
      <trkpt lat="43.78822" lon="-1.40141">
        <ele>-3.23</ele>
        <time>2021-07-07T16:02:27Z</time>
      </trkpt>
      <trkpt lat="43.78822" lon="-1.40136">
        <ele>-3.23</ele>
        <time>2021-07-07T16:02:28Z</time>
      </trkpt>
      <trkpt lat="43.78823" lon="-1.4013">
        <ele>-2.75</ele>
        <time>2021-07-07T16:02:29Z</time>
      </trkpt>
      <trkpt lat="43.78829" lon="-1.40132">
        <ele>-2.75</ele>
        <time>2021-07-07T16:02:30Z</time>
      </trkpt>
      <trkpt lat="43.78834" lon="-1.40131">
        <ele>-2.75</ele>
        <time>2021-07-07T16:02:31Z</time>
      </trkpt>
      <trkpt lat="43.78839" lon="-1.4013">
        <ele>-2.75</ele>
        <time>2021-07-07T16:02:32Z</time>
      </trkpt>
      <trkpt lat="43.78922" lon="-1.4011">
        <ele>-2.27</ele>
        <time>2021-07-07T16:02:47Z</time>
      </trkpt>
      <trkpt lat="43.78948" lon="-1.40096">
        <ele>-0.34</ele>
        <time>2021-07-07T16:02:55Z</time>
      </trkpt>
      <trkpt lat="43.78949" lon="-1.4009">
        <ele>-0.34</ele>
        <time>2021-07-07T16:02:56Z</time>
      </trkpt>
      <trkpt lat="43.7895" lon="-1.40084">
        <ele>-0.34</ele>
        <time>2021-07-07T16:02:57Z</time>
      </trkpt>
      <trkpt lat="43.78951" lon="-1.40079">
        <ele>-0.82</ele>
        <time>2021-07-07T16:02:58Z</time>
      </trkpt>
      <trkpt lat="43.7895" lon="-1.40074">
        <ele>-0.34</ele>
        <time>2021-07-07T16:02:59Z</time>
      </trkpt>
      <trkpt lat="43.78945" lon="-1.40047">
        <ele>-1.79</ele>
        <time>2021-07-07T16:03:04Z</time>
      </trkpt>
      <trkpt lat="43.78944" lon="-1.40046">
        <ele>-1.79</ele>
        <time>2021-07-07T16:03:05Z</time>
      </trkpt>
      <trkpt lat="43.78941" lon="-1.40022">
        <ele>-2.27</ele>
        <time>2021-07-07T16:03:08Z</time>
      </trkpt>
      <trkpt lat="43.7892" lon="-1.39923">
        <ele>-3.23</ele>
        <time>2021-07-07T16:03:17Z</time>
      </trkpt>
      <trkpt lat="43.78874" lon="-1.3973">
        <ele>-5.15</ele>
        <time>2021-07-07T16:03:33Z</time>
      </trkpt>
      <trkpt lat="43.78861" lon="-1.39689">
        <ele>-6.11</ele>
        <time>2021-07-07T16:03:40Z</time>
      </trkpt>
      <trkpt lat="43.78856" lon="-1.39671">
        <ele>-6.59</ele>
        <time>2021-07-07T16:03:48Z</time>
      </trkpt>
      <trkpt lat="43.78854" lon="-1.39666">
        <ele>-7.07</ele>
        <time>2021-07-07T16:03:49Z</time>
      </trkpt>
      <trkpt lat="43.78843" lon="-1.39661">
        <ele>-7.07</ele>
        <time>2021-07-07T16:03:50Z</time>
      </trkpt>
      <trkpt lat="43.78843" lon="-1.39661">
        <ele>-7.55</ele>
        <time>2021-07-07T16:03:51Z</time>
      </trkpt>
      <trkpt lat="43.78842" lon="-1.39662">
        <ele>-7.55</ele>
        <time>2021-07-07T16:03:52Z</time>
      </trkpt>
      <trkpt lat="43.78832" lon="-1.39658">
        <ele>-7.55</ele>
        <time>2021-07-07T16:03:53Z</time>
      </trkpt>
      <trkpt lat="43.78827" lon="-1.39663">
        <ele>-8.03</ele>
        <time>2021-07-07T16:03:54Z</time>
      </trkpt>
      <trkpt lat="43.78758" lon="-1.39718">
        <ele>-10.92</ele>
        <time>2021-07-07T16:04:03Z</time>
      </trkpt>
      <trkpt lat="43.78683" lon="-1.39748">
        <ele>-9.96</ele>
        <time>2021-07-07T16:04:15Z</time>
      </trkpt>
      <trkpt lat="43.78604" lon="-1.3978">
        <ele>-7.07</ele>
        <time>2021-07-07T16:04:28Z</time>
      </trkpt>
      <trkpt lat="43.78524" lon="-1.39812">
        <ele>-5.15</ele>
        <time>2021-07-07T16:04:43Z</time>
      </trkpt>
      <trkpt lat="43.78449" lon="-1.39821">
        <ele>-4.67</ele>
        <time>2021-07-07T16:04:56Z</time>
      </trkpt>
      <trkpt lat="43.78305" lon="-1.3984">
        <ele>-4.19</ele>
        <time>2021-07-07T16:05:13Z</time>
      </trkpt>
      <trkpt lat="43.78199" lon="-1.39853">
        <ele>-7.07</ele>
        <time>2021-07-07T16:05:23Z</time>
      </trkpt>
      <trkpt lat="43.78181" lon="-1.39855">
        <ele>-6.59</ele>
        <time>2021-07-07T16:05:25Z</time>
      </trkpt>
      <trkpt lat="43.78162" lon="-1.39858">
        <ele>-7.07</ele>
        <time>2021-07-07T16:05:26Z</time>
      </trkpt>
      <trkpt lat="43.7808" lon="-1.39858">
        <ele>-8.51</ele>
        <time>2021-07-07T16:05:35Z</time>
      </trkpt>
      <trkpt lat="43.78058" lon="-1.39851">
        <ele>-9</ele>
        <time>2021-07-07T16:05:36Z</time>
      </trkpt>
      <trkpt lat="43.78058" lon="-1.39851">
        <ele>-8.51</ele>
        <time>2021-07-07T16:05:37Z</time>
      </trkpt>
      <trkpt lat="43.77973" lon="-1.39808">
        <ele>-11.88</ele>
        <time>2021-07-07T16:05:47Z</time>
      </trkpt>
      <trkpt lat="43.77937" lon="-1.39799">
        <ele>-14.76</ele>
        <time>2021-07-07T16:05:55Z</time>
      </trkpt>
      <trkpt lat="43.77927" lon="-1.398">
        <ele>-16.21</ele>
        <time>2021-07-07T16:05:58Z</time>
      </trkpt>
      <trkpt lat="43.77923" lon="-1.39802">
        <ele>-16.21</ele>
        <time>2021-07-07T16:05:59Z</time>
      </trkpt>
      <trkpt lat="43.77918" lon="-1.39805">
        <ele>-17.17</ele>
        <time>2021-07-07T16:06:00Z</time>
      </trkpt>
      <trkpt lat="43.77916" lon="-1.3981">
        <ele>-16.69</ele>
        <time>2021-07-07T16:06:01Z</time>
      </trkpt>
      <trkpt lat="43.77914" lon="-1.39816">
        <ele>-16.69</ele>
        <time>2021-07-07T16:06:02Z</time>
      </trkpt>
      <trkpt lat="43.77911" lon="-1.39822">
        <ele>-16.69</ele>
        <time>2021-07-07T16:06:03Z</time>
      </trkpt>
      <trkpt lat="43.77908" lon="-1.3983">
        <ele>-16.69</ele>
        <time>2021-07-07T16:06:04Z</time>
      </trkpt>
      <trkpt lat="43.77907" lon="-1.39839">
        <ele>-16.69</ele>
        <time>2021-07-07T16:06:05Z</time>
      </trkpt>
    </trkseg>
  </trk>
  <trk>
    <name><![CDATA[Journal actif: 2021-07-07 14:06]]></name>
    <trkseg>
      <trkpt lat="43.77904" lon="-1.39898">
        <ele>-12.84</ele>
        <time>2021-07-07T16:06:11Z</time>
      </trkpt>
      <trkpt lat="43.77908" lon="-1.4001">
        <ele>-8.51</ele>
        <time>2021-07-07T16:06:21Z</time>
      </trkpt>
      <trkpt lat="43.77911" lon="-1.4002">
        <ele>-8.51</ele>
        <time>2021-07-07T16:06:22Z</time>
      </trkpt>
      <trkpt lat="43.77914" lon="-1.4003">
        <ele>-8.51</ele>
        <time>2021-07-07T16:06:23Z</time>
      </trkpt>
      <trkpt lat="43.77917" lon="-1.40041">
        <ele>-8.51</ele>
        <time>2021-07-07T16:06:24Z</time>
      </trkpt>
      <trkpt lat="43.7792" lon="-1.40051">
        <ele>-8.51</ele>
        <time>2021-07-07T16:06:25Z</time>
      </trkpt>
      <trkpt lat="43.77923" lon="-1.40061">
        <ele>-8.51</ele>
        <time>2021-07-07T16:06:26Z</time>
      </trkpt>
      <trkpt lat="43.77929" lon="-1.4007">
        <ele>-8.51</ele>
        <time>2021-07-07T16:06:27Z</time>
      </trkpt>
      <trkpt lat="43.77941" lon="-1.40086">
        <ele>-8.51</ele>
        <time>2021-07-07T16:06:28Z</time>
      </trkpt>
      <trkpt lat="43.77953" lon="-1.40099">
        <ele>-9</ele>
        <time>2021-07-07T16:06:31Z</time>
      </trkpt>
      <trkpt lat="43.77958" lon="-1.40106">
        <ele>-9</ele>
        <time>2021-07-07T16:06:32Z</time>
      </trkpt>
      <trkpt lat="43.77963" lon="-1.4011">
        <ele>-8.51</ele>
        <time>2021-07-07T16:06:33Z</time>
      </trkpt>
      <trkpt lat="43.77987" lon="-1.40121">
        <ele>-9.48</ele>
        <time>2021-07-07T16:06:40Z</time>
      </trkpt>
      <trkpt lat="43.77983" lon="-1.40131">
        <ele>-9.48</ele>
        <time>2021-07-07T16:06:45Z</time>
      </trkpt>
      <trkpt lat="43.77981" lon="-1.40129">
        <ele>-9.48</ele>
        <time>2021-07-07T16:06:46Z</time>
      </trkpt>
      <trkpt lat="43.77978" lon="-1.40128">
        <ele>-10.44</ele>
        <time>2021-07-07T16:06:47Z</time>
      </trkpt>
      <trkpt lat="43.77971" lon="-1.40124">
        <ele>-11.88</ele>
        <time>2021-07-07T16:06:49Z</time>
      </trkpt>
      <trkpt lat="43.77935" lon="-1.40094">
        <ele>-14.76</ele>
        <time>2021-07-07T16:06:55Z</time>
      </trkpt>
      <trkpt lat="43.77929" lon="-1.40088">
        <ele>-15.72</ele>
        <time>2021-07-07T16:06:56Z</time>
      </trkpt>
      <trkpt lat="43.77919" lon="-1.40067">
        <ele>-16.21</ele>
        <time>2021-07-07T16:06:57Z</time>
      </trkpt>
      <trkpt lat="43.77919" lon="-1.40067">
        <ele>-15.72</ele>
        <time>2021-07-07T16:06:58Z</time>
      </trkpt>
      <trkpt lat="43.7791" lon="-1.40045">
        <ele>-15.24</ele>
        <time>2021-07-07T16:06:59Z</time>
      </trkpt>
      <trkpt lat="43.77905" lon="-1.40034">
        <ele>-15.72</ele>
        <time>2021-07-07T16:07:00Z</time>
      </trkpt>
      <trkpt lat="43.77886" lon="-1.39969">
        <ele>-15.24</ele>
        <time>2021-07-07T16:07:08Z</time>
      </trkpt>
      <trkpt lat="43.7788" lon="-1.39967">
        <ele>-14.76</ele>
        <time>2021-07-07T16:07:09Z</time>
      </trkpt>
      <trkpt lat="43.77876" lon="-1.39968">
        <ele>-14.76</ele>
        <time>2021-07-07T16:07:10Z</time>
      </trkpt>
      <trkpt lat="43.77871" lon="-1.39969">
        <ele>-15.24</ele>
        <time>2021-07-07T16:07:11Z</time>
      </trkpt>
      <trkpt lat="43.77866" lon="-1.39969">
        <ele>-15.72</ele>
        <time>2021-07-07T16:07:12Z</time>
      </trkpt>
      <trkpt lat="43.7781" lon="-1.39975">
        <ele>-14.76</ele>
        <time>2021-07-07T16:07:21Z</time>
      </trkpt>
      <trkpt lat="43.77803" lon="-1.39975">
        <ele>-14.28</ele>
        <time>2021-07-07T16:07:22Z</time>
      </trkpt>
      <trkpt lat="43.77797" lon="-1.39973">
        <ele>-14.28</ele>
        <time>2021-07-07T16:07:23Z</time>
      </trkpt>
      <trkpt lat="43.7774" lon="-1.39931">
        <ele>-15.72</ele>
        <time>2021-07-07T16:07:31Z</time>
      </trkpt>
      <trkpt lat="43.7774" lon="-1.39931">
        <ele>-15.24</ele>
        <time>2021-07-07T16:07:32Z</time>
      </trkpt>
      <trkpt lat="43.77714" lon="-1.39886">
        <ele>-14.28</ele>
        <time>2021-07-07T16:07:36Z</time>
      </trkpt>
      <trkpt lat="43.77708" lon="-1.3988">
        <ele>-14.76</ele>
        <time>2021-07-07T16:07:37Z</time>
      </trkpt>
      <trkpt lat="43.77704" lon="-1.39876">
        <ele>-15.72</ele>
        <time>2021-07-07T16:07:38Z</time>
      </trkpt>
      <trkpt lat="43.77697" lon="-1.39874">
        <ele>-15.72</ele>
        <time>2021-07-07T16:07:39Z</time>
      </trkpt>
      <trkpt lat="43.77697" lon="-1.39874">
        <ele>-16.69</ele>
        <time>2021-07-07T16:07:40Z</time>
      </trkpt>
      <trkpt lat="43.77682" lon="-1.39871">
        <ele>-16.69</ele>
        <time>2021-07-07T16:07:41Z</time>
      </trkpt>
      <trkpt lat="43.77682" lon="-1.39871">
        <ele>-17.17</ele>
        <time>2021-07-07T16:07:42Z</time>
      </trkpt>
      <trkpt lat="43.77676" lon="-1.3987">
        <ele>-17.65</ele>
        <time>2021-07-07T16:07:43Z</time>
      </trkpt>
      <trkpt lat="43.77662" lon="-1.39873">
        <ele>-18.13</ele>
        <time>2021-07-07T16:07:44Z</time>
      </trkpt>
      <trkpt lat="43.77602" lon="-1.39909">
        <ele>-20.05</ele>
        <time>2021-07-07T16:07:54Z</time>
      </trkpt>
      <trkpt lat="43.77595" lon="-1.39911">
        <ele>-20.05</ele>
        <time>2021-07-07T16:07:55Z</time>
      </trkpt>
      <trkpt lat="43.77589" lon="-1.39913">
        <ele>-20.05</ele>
        <time>2021-07-07T16:07:56Z</time>
      </trkpt>
      <trkpt lat="43.77581" lon="-1.39911">
        <ele>-20.53</ele>
        <time>2021-07-07T16:07:57Z</time>
      </trkpt>
      <trkpt lat="43.77566" lon="-1.39908">
        <ele>-20.05</ele>
        <time>2021-07-07T16:07:58Z</time>
      </trkpt>
      <trkpt lat="43.77566" lon="-1.39908">
        <ele>-18.61</ele>
        <time>2021-07-07T16:07:59Z</time>
      </trkpt>
      <trkpt lat="43.77558" lon="-1.39907">
        <ele>-18.13</ele>
        <time>2021-07-07T16:08:00Z</time>
      </trkpt>
      <trkpt lat="43.7755" lon="-1.39905">
        <ele>-17.65</ele>
        <time>2021-07-07T16:08:01Z</time>
      </trkpt>
      <trkpt lat="43.77543" lon="-1.39904">
        <ele>-17.65</ele>
        <time>2021-07-07T16:08:02Z</time>
      </trkpt>
      <trkpt lat="43.77536" lon="-1.399">
        <ele>-17.17</ele>
        <time>2021-07-07T16:08:03Z</time>
      </trkpt>
      <trkpt lat="43.77463" lon="-1.39853">
        <ele>-18.13</ele>
        <time>2021-07-07T16:08:14Z</time>
      </trkpt>
      <trkpt lat="43.77451" lon="-1.39844">
        <ele>-19.09</ele>
        <time>2021-07-07T16:08:16Z</time>
      </trkpt>
      <trkpt lat="43.77443" lon="-1.39839">
        <ele>-19.57</ele>
        <time>2021-07-07T16:08:17Z</time>
      </trkpt>
      <trkpt lat="43.77443" lon="-1.39839">
        <ele>-19.57</ele>
        <time>2021-07-07T16:08:18Z</time>
      </trkpt>
      <trkpt lat="43.77438" lon="-1.39836">
        <ele>-19.57</ele>
        <time>2021-07-07T16:08:19Z</time>
      </trkpt>
      <trkpt lat="43.77428" lon="-1.39839">
        <ele>-20.05</ele>
        <time>2021-07-07T16:08:20Z</time>
      </trkpt>
      <trkpt lat="43.77425" lon="-1.39845">
        <ele>-20.53</ele>
        <time>2021-07-07T16:08:21Z</time>
      </trkpt>
      <trkpt lat="43.77423" lon="-1.39851">
        <ele>-21.01</ele>
        <time>2021-07-07T16:08:22Z</time>
      </trkpt>
      <trkpt lat="43.77419" lon="-1.39858">
        <ele>-21.01</ele>
        <time>2021-07-07T16:08:23Z</time>
      </trkpt>
      <trkpt lat="43.77374" lon="-1.39971">
        <ele>-17.65</ele>
        <time>2021-07-07T16:08:36Z</time>
      </trkpt>
      <trkpt lat="43.77354" lon="-1.40069">
        <ele>-10.44</ele>
        <time>2021-07-07T16:08:46Z</time>
      </trkpt>
      <trkpt lat="43.77355" lon="-1.40137">
        <ele>-8.03</ele>
        <time>2021-07-07T16:08:52Z</time>
      </trkpt>
      <trkpt lat="43.77357" lon="-1.40177">
        <ele>-9</ele>
        <time>2021-07-07T16:08:56Z</time>
      </trkpt>
      <trkpt lat="43.77355" lon="-1.40185">
        <ele>-9</ele>
        <time>2021-07-07T16:08:57Z</time>
      </trkpt>
      <trkpt lat="43.77353" lon="-1.40201">
        <ele>-8.51</ele>
        <time>2021-07-07T16:08:59Z</time>
      </trkpt>
      <trkpt lat="43.77353" lon="-1.40208">
        <ele>-8.51</ele>
        <time>2021-07-07T16:09:00Z</time>
      </trkpt>
      <trkpt lat="43.77354" lon="-1.40214">
        <ele>-8.51</ele>
        <time>2021-07-07T16:09:01Z</time>
      </trkpt>
      <trkpt lat="43.77355" lon="-1.40219">
        <ele>-8.51</ele>
        <time>2021-07-07T16:09:02Z</time>
      </trkpt>
      <trkpt lat="43.77356" lon="-1.40223">
        <ele>-8.51</ele>
        <time>2021-07-07T16:09:03Z</time>
      </trkpt>
      <trkpt lat="43.77362" lon="-1.40238">
        <ele>-9.48</ele>
        <time>2021-07-07T16:09:06Z</time>
      </trkpt>
      <trkpt lat="43.77361" lon="-1.40243">
        <ele>-9.48</ele>
        <time>2021-07-07T16:09:07Z</time>
      </trkpt>
      <trkpt lat="43.77359" lon="-1.40247">
        <ele>-9.48</ele>
        <time>2021-07-07T16:09:08Z</time>
      </trkpt>
      <trkpt lat="43.77359" lon="-1.40261">
        <ele>-9</ele>
        <time>2021-07-07T16:09:11Z</time>
      </trkpt>
      <trkpt lat="43.77359" lon="-1.40261">
        <ele>-8.51</ele>
        <time>2021-07-07T16:09:12Z</time>
      </trkpt>
      <trkpt lat="43.77359" lon="-1.40267">
        <ele>-9</ele>
        <time>2021-07-07T16:09:13Z</time>
      </trkpt>
      <trkpt lat="43.77359" lon="-1.40273">
        <ele>-8.51</ele>
        <time>2021-07-07T16:09:14Z</time>
      </trkpt>
      <trkpt lat="43.77359" lon="-1.4028">
        <ele>-9</ele>
        <time>2021-07-07T16:09:15Z</time>
      </trkpt>
      <trkpt lat="43.77361" lon="-1.40286">
        <ele>-9.48</ele>
        <time>2021-07-07T16:09:16Z</time>
      </trkpt>
      <trkpt lat="43.77364" lon="-1.40294">
        <ele>-9.96</ele>
        <time>2021-07-07T16:09:17Z</time>
      </trkpt>
      <trkpt lat="43.77368" lon="-1.40303">
        <ele>-9.96</ele>
        <time>2021-07-07T16:09:18Z</time>
      </trkpt>
      <trkpt lat="43.77372" lon="-1.4031">
        <ele>-9.48</ele>
        <time>2021-07-07T16:09:19Z</time>
      </trkpt>
      <trkpt lat="43.77401" lon="-1.40344">
        <ele>-10.92</ele>
        <time>2021-07-07T16:09:24Z</time>
      </trkpt>
      <trkpt lat="43.77408" lon="-1.40352">
        <ele>-12.84</ele>
        <time>2021-07-07T16:09:25Z</time>
      </trkpt>
      <trkpt lat="43.77413" lon="-1.40361">
        <ele>-13.8</ele>
        <time>2021-07-07T16:09:26Z</time>
      </trkpt>
      <trkpt lat="43.77418" lon="-1.40374">
        <ele>-14.28</ele>
        <time>2021-07-07T16:09:27Z</time>
      </trkpt>
      <trkpt lat="43.77424" lon="-1.40388">
        <ele>-14.28</ele>
        <time>2021-07-07T16:09:28Z</time>
      </trkpt>
      <trkpt lat="43.77468" lon="-1.40499">
        <ele>-11.88</ele>
        <time>2021-07-07T16:09:38Z</time>
      </trkpt>
      <trkpt lat="43.7747" lon="-1.40508">
        <ele>-12.36</ele>
        <time>2021-07-07T16:09:39Z</time>
      </trkpt>
      <trkpt lat="43.77475" lon="-1.40552">
        <ele>-13.32</ele>
        <time>2021-07-07T16:09:42Z</time>
      </trkpt>
      <trkpt lat="43.77474" lon="-1.40565">
        <ele>-12.84</ele>
        <time>2021-07-07T16:09:43Z</time>
      </trkpt>
      <trkpt lat="43.77468" lon="-1.40725">
        <ele>-7.55</ele>
        <time>2021-07-07T16:09:58Z</time>
      </trkpt>
      <trkpt lat="43.77468" lon="-1.40799">
        <ele>-6.11</ele>
        <time>2021-07-07T16:10:07Z</time>
      </trkpt>
      <trkpt lat="43.77468" lon="-1.40807">
        <ele>-6.11</ele>
        <time>2021-07-07T16:10:08Z</time>
      </trkpt>
      <trkpt lat="43.77468" lon="-1.40814">
        <ele>-6.11</ele>
        <time>2021-07-07T16:10:09Z</time>
      </trkpt>
      <trkpt lat="43.77468" lon="-1.40821">
        <ele>-6.11</ele>
        <time>2021-07-07T16:10:10Z</time>
      </trkpt>
      <trkpt lat="43.77469" lon="-1.40828">
        <ele>-6.59</ele>
        <time>2021-07-07T16:10:11Z</time>
      </trkpt>
      <trkpt lat="43.77472" lon="-1.40835">
        <ele>-7.07</ele>
        <time>2021-07-07T16:10:12Z</time>
      </trkpt>
      <trkpt lat="43.77475" lon="-1.40841">
        <ele>-7.55</ele>
        <time>2021-07-07T16:10:13Z</time>
      </trkpt>
      <trkpt lat="43.77517" lon="-1.40929">
        <ele>-9.48</ele>
        <time>2021-07-07T16:10:26Z</time>
      </trkpt>
      <trkpt lat="43.77519" lon="-1.40936">
        <ele>-9</ele>
        <time>2021-07-07T16:10:27Z</time>
      </trkpt>
      <trkpt lat="43.77521" lon="-1.4095">
        <ele>-9</ele>
        <time>2021-07-07T16:10:28Z</time>
      </trkpt>
      <trkpt lat="43.77521" lon="-1.4095">
        <ele>-8.51</ele>
        <time>2021-07-07T16:10:29Z</time>
      </trkpt>
      <trkpt lat="43.77524" lon="-1.40964">
        <ele>-8.03</ele>
        <time>2021-07-07T16:10:30Z</time>
      </trkpt>
      <trkpt lat="43.77528" lon="-1.4101">
        <ele>-5.63</ele>
        <time>2021-07-07T16:10:40Z</time>
      </trkpt>
      <trkpt lat="43.7753" lon="-1.41034">
        <ele>-5.63</ele>
        <time>2021-07-07T16:10:51Z</time>
      </trkpt>
      <trkpt lat="43.7753" lon="-1.41034">
        <ele>-5.15</ele>
        <time>2021-07-07T16:11:18Z</time>
      </trkpt>
      <trkpt lat="43.7753" lon="-1.41034">
        <ele>-5.15</ele>
        <time>2021-07-07T16:11:22Z</time>
      </trkpt>
      <trkpt lat="43.7753" lon="-1.41041">
        <ele>-5.15</ele>
        <time>2021-07-07T16:11:23Z</time>
      </trkpt>
      <trkpt lat="43.7753" lon="-1.41041">
        <ele>-5.15</ele>
        <time>2021-07-07T16:11:24Z</time>
      </trkpt>
      <trkpt lat="43.7753" lon="-1.41041">
        <ele>-5.15</ele>
        <time>2021-07-07T16:11:25Z</time>
      </trkpt>
      <trkpt lat="43.7753" lon="-1.41031">
        <ele>-5.15</ele>
        <time>2021-07-07T16:11:26Z</time>
      </trkpt>
      <trkpt lat="43.77525" lon="-1.40973">
        <ele>-7.07</ele>
        <time>2021-07-07T16:11:42Z</time>
      </trkpt>
      <trkpt lat="43.77514" lon="-1.40918">
        <ele>-10.44</ele>
        <time>2021-07-07T16:11:54Z</time>
      </trkpt>
      <trkpt lat="43.77475" lon="-1.40841">
        <ele>-8.03</ele>
        <time>2021-07-07T16:12:07Z</time>
      </trkpt>
      <trkpt lat="43.77472" lon="-1.40835">
        <ele>-8.03</ele>
        <time>2021-07-07T16:12:08Z</time>
      </trkpt>
      <trkpt lat="43.77468" lon="-1.40815">
        <ele>-8.03</ele>
        <time>2021-07-07T16:12:10Z</time>
      </trkpt>
      <trkpt lat="43.77468" lon="-1.40809">
        <ele>-8.03</ele>
        <time>2021-07-07T16:12:11Z</time>
      </trkpt>
      <trkpt lat="43.77468" lon="-1.40809">
        <ele>-8.51</ele>
        <time>2021-07-07T16:12:12Z</time>
      </trkpt>
      <trkpt lat="43.77468" lon="-1.40735">
        <ele>-10.92</ele>
        <time>2021-07-07T16:12:21Z</time>
      </trkpt>
      <trkpt lat="43.77468" lon="-1.40735">
        <ele>-10.92</ele>
        <time>2021-07-07T16:12:22Z</time>
      </trkpt>
      <trkpt lat="43.77468" lon="-1.40714">
        <ele>-11.4</ele>
        <time>2021-07-07T16:12:31Z</time>
      </trkpt>
    </trkseg>
  </trk>
  <trk>
    <name><![CDATA[Journal actif: 2021-07-07 14:12]]></name>
    <trkseg>
      <trkpt lat="43.77468" lon="-1.40714">
        <ele>-11.4</ele>
        <time>2021-07-07T16:12:57Z</time>
      </trkpt>
      <trkpt lat="43.77469" lon="-1.40704">
        <ele>-11.4</ele>
        <time>2021-07-07T16:13:16Z</time>
      </trkpt>
      <trkpt lat="43.77472" lon="-1.40624">
        <ele>-13.32</ele>
        <time>2021-07-07T16:13:24Z</time>
      </trkpt>
      <trkpt lat="43.77474" lon="-1.40545">
        <ele>-14.28</ele>
        <time>2021-07-07T16:13:29Z</time>
      </trkpt>
      <trkpt lat="43.77472" lon="-1.40531">
        <ele>-13.8</ele>
        <time>2021-07-07T16:13:30Z</time>
      </trkpt>
      <trkpt lat="43.77471" lon="-1.40518">
        <ele>-13.8</ele>
        <time>2021-07-07T16:13:31Z</time>
      </trkpt>
      <trkpt lat="43.77469" lon="-1.40504">
        <ele>-13.32</ele>
        <time>2021-07-07T16:13:32Z</time>
      </trkpt>
      <trkpt lat="43.77465" lon="-1.4049">
        <ele>-12.84</ele>
        <time>2021-07-07T16:13:33Z</time>
      </trkpt>
      <trkpt lat="43.77412" lon="-1.40359">
        <ele>-14.76</ele>
        <time>2021-07-07T16:13:43Z</time>
      </trkpt>
      <trkpt lat="43.77406" lon="-1.4035">
        <ele>-15.24</ele>
        <time>2021-07-07T16:13:44Z</time>
      </trkpt>
      <trkpt lat="43.77401" lon="-1.40343">
        <ele>-15.72</ele>
        <time>2021-07-07T16:13:45Z</time>
      </trkpt>
      <trkpt lat="43.77395" lon="-1.40337">
        <ele>-16.21</ele>
        <time>2021-07-07T16:13:46Z</time>
      </trkpt>
      <trkpt lat="43.77389" lon="-1.4033">
        <ele>-17.17</ele>
        <time>2021-07-07T16:13:47Z</time>
      </trkpt>
      <trkpt lat="43.77382" lon="-1.40322">
        <ele>-17.65</ele>
        <time>2021-07-07T16:13:48Z</time>
      </trkpt>
      <trkpt lat="43.77368" lon="-1.40305">
        <ele>-18.13</ele>
        <time>2021-07-07T16:13:49Z</time>
      </trkpt>
      <trkpt lat="43.77368" lon="-1.40305">
        <ele>-18.61</ele>
        <time>2021-07-07T16:13:50Z</time>
      </trkpt>
      <trkpt lat="43.77365" lon="-1.40295">
        <ele>-18.61</ele>
        <time>2021-07-07T16:13:51Z</time>
      </trkpt>
      <trkpt lat="43.77361" lon="-1.40284">
        <ele>-18.61</ele>
        <time>2021-07-07T16:13:52Z</time>
      </trkpt>
      <trkpt lat="43.77357" lon="-1.40275">
        <ele>-19.09</ele>
        <time>2021-07-07T16:13:53Z</time>
      </trkpt>
      <trkpt lat="43.77353" lon="-1.40265">
        <ele>-18.61</ele>
        <time>2021-07-07T16:13:54Z</time>
      </trkpt>
      <trkpt lat="43.77344" lon="-1.4025">
        <ele>-18.13</ele>
        <time>2021-07-07T16:13:56Z</time>
      </trkpt>
      <trkpt lat="43.77342" lon="-1.40241">
        <ele>-18.13</ele>
        <time>2021-07-07T16:13:57Z</time>
      </trkpt>
      <trkpt lat="43.77344" lon="-1.40232">
        <ele>-18.61</ele>
        <time>2021-07-07T16:13:58Z</time>
      </trkpt>
      <trkpt lat="43.77348" lon="-1.40224">
        <ele>-18.61</ele>
        <time>2021-07-07T16:13:59Z</time>
      </trkpt>
      <trkpt lat="43.77351" lon="-1.40214">
        <ele>-18.61</ele>
        <time>2021-07-07T16:14:00Z</time>
      </trkpt>
      <trkpt lat="43.77353" lon="-1.40202">
        <ele>-18.61</ele>
        <time>2021-07-07T16:14:01Z</time>
      </trkpt>
      <trkpt lat="43.77355" lon="-1.40191">
        <ele>-18.13</ele>
        <time>2021-07-07T16:14:02Z</time>
      </trkpt>
      <trkpt lat="43.77356" lon="-1.40163">
        <ele>-17.65</ele>
        <time>2021-07-07T16:14:03Z</time>
      </trkpt>
      <trkpt lat="43.77356" lon="-1.40163">
        <ele>-17.65</ele>
        <time>2021-07-07T16:14:04Z</time>
      </trkpt>
      <trkpt lat="43.77353" lon="-1.401">
        <ele>-14.76</ele>
        <time>2021-07-07T16:14:08Z</time>
      </trkpt>
      <trkpt lat="43.77381" lon="-1.39948">
        <ele>-15.72</ele>
        <time>2021-07-07T16:14:18Z</time>
      </trkpt>
      <trkpt lat="43.77385" lon="-1.39932">
        <ele>-15.24</ele>
        <time>2021-07-07T16:14:19Z</time>
      </trkpt>
      <trkpt lat="43.77434" lon="-1.39821">
        <ele>-14.28</ele>
        <time>2021-07-07T16:14:27Z</time>
      </trkpt>
      <trkpt lat="43.77436" lon="-1.39807">
        <ele>-14.28</ele>
        <time>2021-07-07T16:14:28Z</time>
      </trkpt>
      <trkpt lat="43.77438" lon="-1.39797">
        <ele>-14.28</ele>
        <time>2021-07-07T16:14:29Z</time>
      </trkpt>
      <trkpt lat="43.77437" lon="-1.39783">
        <ele>-13.8</ele>
        <time>2021-07-07T16:14:30Z</time>
      </trkpt>
      <trkpt lat="43.77436" lon="-1.39769">
        <ele>-13.8</ele>
        <time>2021-07-07T16:14:31Z</time>
      </trkpt>
      <trkpt lat="43.77435" lon="-1.39755">
        <ele>-13.8</ele>
        <time>2021-07-07T16:14:32Z</time>
      </trkpt>
      <trkpt lat="43.77424" lon="-1.39655">
        <ele>-13.8</ele>
        <time>2021-07-07T16:14:40Z</time>
      </trkpt>
      <trkpt lat="43.77422" lon="-1.39649">
        <ele>-12.84</ele>
        <time>2021-07-07T16:14:41Z</time>
      </trkpt>
      <trkpt lat="43.77418" lon="-1.39641">
        <ele>-12.84</ele>
        <time>2021-07-07T16:14:42Z</time>
      </trkpt>
      <trkpt lat="43.77415" lon="-1.39636">
        <ele>-11.88</ele>
        <time>2021-07-07T16:14:43Z</time>
      </trkpt>
      <trkpt lat="43.77415" lon="-1.3963">
        <ele>-11.88</ele>
        <time>2021-07-07T16:14:44Z</time>
      </trkpt>
      <trkpt lat="43.77416" lon="-1.39625">
        <ele>-11.4</ele>
        <time>2021-07-07T16:14:45Z</time>
      </trkpt>
      <trkpt lat="43.77427" lon="-1.39608">
        <ele>-10.44</ele>
        <time>2021-07-07T16:14:47Z</time>
      </trkpt>
      <trkpt lat="43.77427" lon="-1.39608">
        <ele>-11.4</ele>
        <time>2021-07-07T16:14:48Z</time>
      </trkpt>
      <trkpt lat="43.77431" lon="-1.39585">
        <ele>-11.4</ele>
        <time>2021-07-07T16:14:49Z</time>
      </trkpt>
      <trkpt lat="43.77431" lon="-1.39585">
        <ele>-11.88</ele>
        <time>2021-07-07T16:14:50Z</time>
      </trkpt>
      <trkpt lat="43.77432" lon="-1.39573">
        <ele>-12.36</ele>
        <time>2021-07-07T16:14:51Z</time>
      </trkpt>
      <trkpt lat="43.77433" lon="-1.39493">
        <ele>-10.92</ele>
        <time>2021-07-07T16:14:59Z</time>
      </trkpt>
      <trkpt lat="43.77433" lon="-1.39482">
        <ele>-10.92</ele>
        <time>2021-07-07T16:15:00Z</time>
      </trkpt>
      <trkpt lat="43.77434" lon="-1.39473">
        <ele>-10.92</ele>
        <time>2021-07-07T16:15:01Z</time>
      </trkpt>
      <trkpt lat="43.77436" lon="-1.39465">
        <ele>-10.92</ele>
        <time>2021-07-07T16:15:02Z</time>
      </trkpt>
      <trkpt lat="43.77441" lon="-1.39458">
        <ele>-10.44</ele>
        <time>2021-07-07T16:15:03Z</time>
      </trkpt>
      <trkpt lat="43.77446" lon="-1.39455">
        <ele>-10.44</ele>
        <time>2021-07-07T16:15:04Z</time>
      </trkpt>
      <trkpt lat="43.77458" lon="-1.39452">
        <ele>-10.44</ele>
        <time>2021-07-07T16:15:05Z</time>
      </trkpt>
      <trkpt lat="43.77465" lon="-1.39453">
        <ele>-10.92</ele>
        <time>2021-07-07T16:15:06Z</time>
      </trkpt>
      <trkpt lat="43.77472" lon="-1.39462">
        <ele>-10.92</ele>
        <time>2021-07-07T16:15:07Z</time>
      </trkpt>
      <trkpt lat="43.77476" lon="-1.3947">
        <ele>-10.44</ele>
        <time>2021-07-07T16:15:08Z</time>
      </trkpt>
      <trkpt lat="43.77476" lon="-1.3947">
        <ele>-10.44</ele>
        <time>2021-07-07T16:15:09Z</time>
      </trkpt>
      <trkpt lat="43.77478" lon="-1.3948">
        <ele>-10.44</ele>
        <time>2021-07-07T16:15:10Z</time>
      </trkpt>
      <trkpt lat="43.77491" lon="-1.39511">
        <ele>-10.44</ele>
        <time>2021-07-07T16:15:12Z</time>
      </trkpt>
      <trkpt lat="43.77491" lon="-1.39511">
        <ele>-10.44</ele>
        <time>2021-07-07T16:15:13Z</time>
      </trkpt>
      <trkpt lat="43.77504" lon="-1.39527">
        <ele>-10.44</ele>
        <time>2021-07-07T16:15:14Z</time>
      </trkpt>
      <trkpt lat="43.77511" lon="-1.39534">
        <ele>-9.96</ele>
        <time>2021-07-07T16:15:15Z</time>
      </trkpt>
      <trkpt lat="43.77511" lon="-1.39534">
        <ele>-9.96</ele>
        <time>2021-07-07T16:15:16Z</time>
      </trkpt>
      <trkpt lat="43.77609" lon="-1.39595">
        <ele>-9.96</ele>
        <time>2021-07-07T16:15:25Z</time>
      </trkpt>
      <trkpt lat="43.77732" lon="-1.39666">
        <ele>-10.44</ele>
        <time>2021-07-07T16:15:35Z</time>
      </trkpt>
      <trkpt lat="43.77859" lon="-1.3974">
        <ele>-11.4</ele>
        <time>2021-07-07T16:15:47Z</time>
      </trkpt>
      <trkpt lat="43.77897" lon="-1.39753">
        <ele>-9.96</ele>
        <time>2021-07-07T16:15:52Z</time>
      </trkpt>
      <trkpt lat="43.77904" lon="-1.39754">
        <ele>-9.48</ele>
        <time>2021-07-07T16:15:53Z</time>
      </trkpt>
      <trkpt lat="43.77906" lon="-1.39754">
        <ele>-9.96</ele>
        <time>2021-07-07T16:15:54Z</time>
      </trkpt>
      <trkpt lat="43.77926" lon="-1.39751">
        <ele>-9.96</ele>
        <time>2021-07-07T16:15:56Z</time>
      </trkpt>
      <trkpt lat="43.77926" lon="-1.39751">
        <ele>-9.96</ele>
        <time>2021-07-07T16:15:57Z</time>
      </trkpt>
      <trkpt lat="43.77932" lon="-1.39754">
        <ele>-9.96</ele>
        <time>2021-07-07T16:15:58Z</time>
      </trkpt>
      <trkpt lat="43.77935" lon="-1.39762">
        <ele>-9.96</ele>
        <time>2021-07-07T16:15:59Z</time>
      </trkpt>
      <trkpt lat="43.77937" lon="-1.39769">
        <ele>-10.44</ele>
        <time>2021-07-07T16:16:00Z</time>
      </trkpt>
      <trkpt lat="43.7794" lon="-1.39776">
        <ele>-10.44</ele>
        <time>2021-07-07T16:16:01Z</time>
      </trkpt>
      <trkpt lat="43.77937" lon="-1.39781">
        <ele>-10.44</ele>
        <time>2021-07-07T16:16:02Z</time>
      </trkpt>
      <trkpt lat="43.77936" lon="-1.39788">
        <ele>-10.92</ele>
        <time>2021-07-07T16:16:03Z</time>
      </trkpt>
      <trkpt lat="43.77932" lon="-1.39794">
        <ele>-11.4</ele>
        <time>2021-07-07T16:16:04Z</time>
      </trkpt>
      <trkpt lat="43.7793" lon="-1.39799">
        <ele>-11.4</ele>
        <time>2021-07-07T16:16:05Z</time>
      </trkpt>
      <trkpt lat="43.77915" lon="-1.39813">
        <ele>-11.4</ele>
        <time>2021-07-07T16:16:06Z</time>
      </trkpt>
      <trkpt lat="43.77915" lon="-1.39813">
        <ele>-11.4</ele>
        <time>2021-07-07T16:16:07Z</time>
      </trkpt>
      <trkpt lat="43.77911" lon="-1.39822">
        <ele>-11.4</ele>
        <time>2021-07-07T16:16:08Z</time>
      </trkpt>
      <trkpt lat="43.77908" lon="-1.39833">
        <ele>-10.92</ele>
        <time>2021-07-07T16:16:09Z</time>
      </trkpt>
      <trkpt lat="43.77907" lon="-1.39843">
        <ele>-10.44</ele>
        <time>2021-07-07T16:16:10Z</time>
      </trkpt>
      <trkpt lat="43.77906" lon="-1.39855">
        <ele>-9.96</ele>
        <time>2021-07-07T16:16:11Z</time>
      </trkpt>
      <trkpt lat="43.77907" lon="-1.4">
        <ele>-6.59</ele>
        <time>2021-07-07T16:16:22Z</time>
      </trkpt>
      <trkpt lat="43.77909" lon="-1.40012">
        <ele>-5.63</ele>
        <time>2021-07-07T16:16:23Z</time>
      </trkpt>
      <trkpt lat="43.77912" lon="-1.40023">
        <ele>-6.59</ele>
        <time>2021-07-07T16:16:24Z</time>
      </trkpt>
      <trkpt lat="43.77915" lon="-1.40035">
        <ele>-7.07</ele>
        <time>2021-07-07T16:16:25Z</time>
      </trkpt>
      <trkpt lat="43.77919" lon="-1.40047">
        <ele>-7.55</ele>
        <time>2021-07-07T16:16:26Z</time>
      </trkpt>
      <trkpt lat="43.77923" lon="-1.40061">
        <ele>-7.55</ele>
        <time>2021-07-07T16:16:27Z</time>
      </trkpt>
      <trkpt lat="43.77928" lon="-1.40069">
        <ele>-8.03</ele>
        <time>2021-07-07T16:16:28Z</time>
      </trkpt>
      <trkpt lat="43.77942" lon="-1.40086">
        <ele>-5.63</ele>
        <time>2021-07-07T16:16:30Z</time>
      </trkpt>
      <trkpt lat="43.77949" lon="-1.40095">
        <ele>-5.63</ele>
        <time>2021-07-07T16:16:31Z</time>
      </trkpt>
      <trkpt lat="43.77957" lon="-1.40105">
        <ele>-6.11</ele>
        <time>2021-07-07T16:16:32Z</time>
      </trkpt>
      <trkpt lat="43.77966" lon="-1.40111">
        <ele>-5.15</ele>
        <time>2021-07-07T16:16:33Z</time>
      </trkpt>
      <trkpt lat="43.77976" lon="-1.40116">
        <ele>-5.15</ele>
        <time>2021-07-07T16:16:34Z</time>
      </trkpt>
      <trkpt lat="43.77989" lon="-1.40122">
        <ele>-5.63</ele>
        <time>2021-07-07T16:16:35Z</time>
      </trkpt>
      <trkpt lat="43.78088" lon="-1.40181">
        <ele>-5.63</ele>
        <time>2021-07-07T16:16:46Z</time>
      </trkpt>
      <trkpt lat="43.78099" lon="-1.40192">
        <ele>-5.15</ele>
        <time>2021-07-07T16:16:48Z</time>
      </trkpt>
      <trkpt lat="43.78104" lon="-1.40197">
        <ele>-6.59</ele>
        <time>2021-07-07T16:16:49Z</time>
      </trkpt>
      <trkpt lat="43.78109" lon="-1.40203">
        <ele>-7.55</ele>
        <time>2021-07-07T16:16:50Z</time>
      </trkpt>
      <trkpt lat="43.78113" lon="-1.40211">
        <ele>-7.55</ele>
        <time>2021-07-07T16:16:51Z</time>
      </trkpt>
      <trkpt lat="43.78117" lon="-1.40216">
        <ele>-8.03</ele>
        <time>2021-07-07T16:16:52Z</time>
      </trkpt>
      <trkpt lat="43.78121" lon="-1.40221">
        <ele>-8.03</ele>
        <time>2021-07-07T16:16:53Z</time>
      </trkpt>
      <trkpt lat="43.78125" lon="-1.40222">
        <ele>-7.55</ele>
        <time>2021-07-07T16:16:54Z</time>
      </trkpt>
      <trkpt lat="43.78171" lon="-1.40229">
        <ele>-6.59</ele>
        <time>2021-07-07T16:17:05Z</time>
      </trkpt>
      <trkpt lat="43.78177" lon="-1.40228">
        <ele>-6.59</ele>
        <time>2021-07-07T16:17:06Z</time>
      </trkpt>
      <trkpt lat="43.78262" lon="-1.40192">
        <ele>-7.07</ele>
        <time>2021-07-07T16:17:16Z</time>
      </trkpt>
      <trkpt lat="43.78419" lon="-1.40143">
        <ele>-7.07</ele>
        <time>2021-07-07T16:17:31Z</time>
      </trkpt>
      <trkpt lat="43.78456" lon="-1.40147">
        <ele>-6.11</ele>
        <time>2021-07-07T16:17:36Z</time>
      </trkpt>
      <trkpt lat="43.78467" lon="-1.40148">
        <ele>-5.63</ele>
        <time>2021-07-07T16:17:37Z</time>
      </trkpt>
      <trkpt lat="43.78476" lon="-1.40152">
        <ele>-4.19</ele>
        <time>2021-07-07T16:17:38Z</time>
      </trkpt>
      <trkpt lat="43.78538" lon="-1.40205">
        <ele>-1.79</ele>
        <time>2021-07-07T16:17:48Z</time>
      </trkpt>
      <trkpt lat="43.78572" lon="-1.4024">
        <ele>-0.82</ele>
        <time>2021-07-07T16:18:01Z</time>
      </trkpt>
      <trkpt lat="43.78603" lon="-1.40271">
        <ele>-0.34</ele>
        <time>2021-07-07T16:18:14Z</time>
      </trkpt>
      <trkpt lat="43.78612" lon="-1.4028">
        <ele>0.14</ele>
        <time>2021-07-07T16:18:29Z</time>
      </trkpt>
    </trkseg>
  </trk>
  <trk>
    <name><![CDATA[Journal actif: 2021-07-07 14:21]]></name>
    <trkseg>
      <trkpt lat="43.78589" lon="-1.40256">
        <ele>-7.07</ele>
        <time>2021-07-07T16:21:30Z</time>
      </trkpt>
      <trkpt lat="43.78633" lon="-1.40284">
        <ele>-6.59</ele>
        <time>2021-07-07T16:21:40Z</time>
      </trkpt>
      <trkpt lat="43.78633" lon="-1.40284">
        <ele>-6.59</ele>
        <time>2021-07-07T16:23:08Z</time>
      </trkpt>
      <trkpt lat="43.78633" lon="-1.40284">
        <ele>-6.11</ele>
        <time>2021-07-07T16:25:45Z</time>
      </trkpt>
      <trkpt lat="43.78633" lon="-1.40284">
        <ele>-6.11</ele>
        <time>2021-07-07T16:27:44Z</time>
      </trkpt>
      <trkpt lat="43.78633" lon="-1.40284">
        <ele>-6.11</ele>
        <time>2021-07-07T16:28:57Z</time>
      </trkpt>
      <trkpt lat="43.78633" lon="-1.40284">
        <ele>-5.15</ele>
        <time>2021-07-07T16:32:05Z</time>
      </trkpt>
      <trkpt lat="43.78633" lon="-1.40284">
        <ele>-5.15</ele>
        <time>2021-07-07T16:33:51Z</time>
      </trkpt>
      <trkpt lat="43.78633" lon="-1.40284">
        <ele>-5.63</ele>
        <time>2021-07-07T16:34:49Z</time>
      </trkpt>
      <trkpt lat="43.78633" lon="-1.40284">
        <ele>-5.63</ele>
        <time>2021-07-07T16:34:50Z</time>
      </trkpt>
      <trkpt lat="43.78612" lon="-1.4028">
        <ele>-6.11</ele>
        <time>2021-07-07T16:34:51Z</time>
      </trkpt>
      <trkpt lat="43.78612" lon="-1.4028">
        <ele>-6.11</ele>
        <time>2021-07-07T16:34:52Z</time>
      </trkpt>
      <trkpt lat="43.78614" lon="-1.40282">
        <ele>-6.11</ele>
        <time>2021-07-07T16:34:53Z</time>
      </trkpt>
      <trkpt lat="43.78614" lon="-1.40282">
        <ele>-6.59</ele>
        <time>2021-07-07T16:34:54Z</time>
      </trkpt>
      <trkpt lat="43.78615" lon="-1.40284">
        <ele>-6.59</ele>
        <time>2021-07-07T16:34:55Z</time>
      </trkpt>
      <trkpt lat="43.78617" lon="-1.40286">
        <ele>-6.59</ele>
        <time>2021-07-07T16:34:56Z</time>
      </trkpt>
      <trkpt lat="43.78619" lon="-1.40288">
        <ele>-6.59</ele>
        <time>2021-07-07T16:34:57Z</time>
      </trkpt>
      <trkpt lat="43.78621" lon="-1.4029">
        <ele>-6.59</ele>
        <time>2021-07-07T16:34:58Z</time>
      </trkpt>
      <trkpt lat="43.78624" lon="-1.40295">
        <ele>-6.11</ele>
        <time>2021-07-07T16:34:59Z</time>
      </trkpt>
      <trkpt lat="43.78638" lon="-1.40339">
        <ele>-5.63</ele>
        <time>2021-07-07T16:35:13Z</time>
      </trkpt>
      <trkpt lat="43.78645" lon="-1.40412">
        <ele>-2.75</ele>
        <time>2021-07-07T16:35:26Z</time>
      </trkpt>
      <trkpt lat="43.78655" lon="-1.40485">
        <ele>-1.79</ele>
        <time>2021-07-07T16:35:41Z</time>
      </trkpt>
      <trkpt lat="43.78686" lon="-1.40479">
        <ele>-2.27</ele>
        <time>2021-07-07T16:35:52Z</time>
      </trkpt>
      <trkpt lat="43.78692" lon="-1.40478">
        <ele>-2.27</ele>
        <time>2021-07-07T16:35:56Z</time>
      </trkpt>
      <trkpt lat="43.78694" lon="-1.40478">
        <ele>-2.27</ele>
        <time>2021-07-07T16:35:57Z</time>
      </trkpt>
      <trkpt lat="43.78697" lon="-1.40473">
        <ele>-2.27</ele>
        <time>2021-07-07T16:35:58Z</time>
      </trkpt>
      <trkpt lat="43.78697" lon="-1.4047">
        <ele>-2.27</ele>
        <time>2021-07-07T16:35:59Z</time>
      </trkpt>
      <trkpt lat="43.78696" lon="-1.40467">
        <ele>-2.27</ele>
        <time>2021-07-07T16:36:00Z</time>
      </trkpt>
      <trkpt lat="43.78684" lon="-1.40381">
        <ele>-2.75</ele>
        <time>2021-07-07T16:36:11Z</time>
      </trkpt>
      <trkpt lat="43.78673" lon="-1.40263">
        <ele>-0.82</ele>
        <time>2021-07-07T16:36:25Z</time>
      </trkpt>
      <trkpt lat="43.78667" lon="-1.40223">
        <ele>1.1</ele>
        <time>2021-07-07T16:36:32Z</time>
      </trkpt>
      <trkpt lat="43.78668" lon="-1.40212">
        <ele>1.1</ele>
        <time>2021-07-07T16:36:33Z</time>
      </trkpt>
      <trkpt lat="43.78668" lon="-1.40212">
        <ele>1.1</ele>
        <time>2021-07-07T16:36:34Z</time>
      </trkpt>
      <trkpt lat="43.78672" lon="-1.40212">
        <ele>1.1</ele>
        <time>2021-07-07T16:36:35Z</time>
      </trkpt>
      <trkpt lat="43.78677" lon="-1.40211">
        <ele>1.58</ele>
        <time>2021-07-07T16:36:36Z</time>
      </trkpt>
      <trkpt lat="43.78683" lon="-1.40209">
        <ele>1.58</ele>
        <time>2021-07-07T16:36:37Z</time>
      </trkpt>
      <trkpt lat="43.78788" lon="-1.40184">
        <ele>2.54</ele>
        <time>2021-07-07T16:36:51Z</time>
      </trkpt>
      <trkpt lat="43.78794" lon="-1.40182">
        <ele>2.54</ele>
        <time>2021-07-07T16:36:52Z</time>
      </trkpt>
      <trkpt lat="43.788" lon="-1.4018">
        <ele>2.54</ele>
        <time>2021-07-07T16:36:53Z</time>
      </trkpt>
      <trkpt lat="43.78807" lon="-1.40176">
        <ele>2.54</ele>
        <time>2021-07-07T16:36:54Z</time>
      </trkpt>
      <trkpt lat="43.78811" lon="-1.40171">
        <ele>2.06</ele>
        <time>2021-07-07T16:36:55Z</time>
      </trkpt>
      <trkpt lat="43.78814" lon="-1.40164">
        <ele>2.06</ele>
        <time>2021-07-07T16:36:56Z</time>
      </trkpt>
      <trkpt lat="43.78817" lon="-1.40157">
        <ele>2.06</ele>
        <time>2021-07-07T16:36:57Z</time>
      </trkpt>
      <trkpt lat="43.78822" lon="-1.40142">
        <ele>1.1</ele>
        <time>2021-07-07T16:36:59Z</time>
      </trkpt>
      <trkpt lat="43.78822" lon="-1.40134">
        <ele>1.1</ele>
        <time>2021-07-07T16:37:00Z</time>
      </trkpt>
      <trkpt lat="43.78823" lon="-1.4013">
        <ele>1.58</ele>
        <time>2021-07-07T16:37:01Z</time>
      </trkpt>
      <trkpt lat="43.78835" lon="-1.4013">
        <ele>1.58</ele>
        <time>2021-07-07T16:37:02Z</time>
      </trkpt>
      <trkpt lat="43.78835" lon="-1.4013">
        <ele>1.58</ele>
        <time>2021-07-07T16:37:03Z</time>
      </trkpt>
      <trkpt lat="43.7885" lon="-1.40127">
        <ele>1.1</ele>
        <time>2021-07-07T16:37:04Z</time>
      </trkpt>
      <trkpt lat="43.78938" lon="-1.40109">
        <ele>1.58</ele>
        <time>2021-07-07T16:37:16Z</time>
      </trkpt>
      <trkpt lat="43.78943" lon="-1.40101">
        <ele>1.58</ele>
        <time>2021-07-07T16:37:17Z</time>
      </trkpt>
      <trkpt lat="43.78943" lon="-1.40101">
        <ele>1.58</ele>
        <time>2021-07-07T16:37:18Z</time>
      </trkpt>
      <trkpt lat="43.78946" lon="-1.40098">
        <ele>1.58</ele>
        <time>2021-07-07T16:37:19Z</time>
      </trkpt>
      <trkpt lat="43.78949" lon="-1.40093">
        <ele>1.58</ele>
        <time>2021-07-07T16:37:20Z</time>
      </trkpt>
      <trkpt lat="43.7895" lon="-1.40086">
        <ele>1.58</ele>
        <time>2021-07-07T16:37:21Z</time>
      </trkpt>
      <trkpt lat="43.78951" lon="-1.4008">
        <ele>1.58</ele>
        <time>2021-07-07T16:37:22Z</time>
      </trkpt>
      <trkpt lat="43.7895" lon="-1.40073">
        <ele>1.58</ele>
        <time>2021-07-07T16:37:23Z</time>
      </trkpt>
      <trkpt lat="43.78945" lon="-1.40046">
        <ele>1.58</ele>
        <time>2021-07-07T16:37:27Z</time>
      </trkpt>
      <trkpt lat="43.78944" lon="-1.40046">
        <ele>1.58</ele>
        <time>2021-07-07T16:37:28Z</time>
      </trkpt>
      <trkpt lat="43.7894" lon="-1.40018">
        <ele>1.58</ele>
        <time>2021-07-07T16:37:31Z</time>
      </trkpt>
      <trkpt lat="43.7892" lon="-1.39922">
        <ele>-0.34</ele>
        <time>2021-07-07T16:37:40Z</time>
      </trkpt>
      <trkpt lat="43.7887" lon="-1.39716">
        <ele>1.58</ele>
        <time>2021-07-07T16:37:55Z</time>
      </trkpt>
      <trkpt lat="43.78857" lon="-1.39674">
        <ele>2.54</ele>
        <time>2021-07-07T16:38:00Z</time>
      </trkpt>
      <trkpt lat="43.78855" lon="-1.39668">
        <ele>3.02</ele>
        <time>2021-07-07T16:38:01Z</time>
      </trkpt>
      <trkpt lat="43.78853" lon="-1.39662">
        <ele>2.54</ele>
        <time>2021-07-07T16:38:02Z</time>
      </trkpt>
      <trkpt lat="43.78844" lon="-1.39661">
        <ele>2.06</ele>
        <time>2021-07-07T16:38:04Z</time>
      </trkpt>
      <trkpt lat="43.78838" lon="-1.39658">
        <ele>2.06</ele>
        <time>2021-07-07T16:38:05Z</time>
      </trkpt>
      <trkpt lat="43.78834" lon="-1.39652">
        <ele>1.1</ele>
        <time>2021-07-07T16:38:06Z</time>
      </trkpt>
      <trkpt lat="43.78833" lon="-1.39648">
        <ele>1.58</ele>
        <time>2021-07-07T16:38:07Z</time>
      </trkpt>
      <trkpt lat="43.78833" lon="-1.39638">
        <ele>1.1</ele>
        <time>2021-07-07T16:38:08Z</time>
      </trkpt>
      <trkpt lat="43.78835" lon="-1.39632">
        <ele>0.62</ele>
        <time>2021-07-07T16:38:09Z</time>
      </trkpt>
      <trkpt lat="43.78846" lon="-1.39627">
        <ele>0.62</ele>
        <time>2021-07-07T16:38:10Z</time>
      </trkpt>
      <trkpt lat="43.78846" lon="-1.39627">
        <ele>0.14</ele>
        <time>2021-07-07T16:38:11Z</time>
      </trkpt>
      <trkpt lat="43.78846" lon="-1.39627">
        <ele>0.14</ele>
        <time>2021-07-07T16:38:12Z</time>
      </trkpt>
      <trkpt lat="43.78865" lon="-1.39616">
        <ele>0.62</ele>
        <time>2021-07-07T16:38:13Z</time>
      </trkpt>
      <trkpt lat="43.78947" lon="-1.3952">
        <ele>0.62</ele>
        <time>2021-07-07T16:38:25Z</time>
      </trkpt>
      <trkpt lat="43.78971" lon="-1.39493">
        <ele>-0.34</ele>
        <time>2021-07-07T16:38:28Z</time>
      </trkpt>
      <trkpt lat="43.79119" lon="-1.39393">
        <ele>-0.34</ele>
        <time>2021-07-07T16:38:41Z</time>
      </trkpt>
      <trkpt lat="43.79242" lon="-1.393">
        <ele>3.02</ele>
        <time>2021-07-07T16:38:53Z</time>
      </trkpt>
      <trkpt lat="43.79324" lon="-1.39232">
        <ele>2.06</ele>
        <time>2021-07-07T16:39:03Z</time>
      </trkpt>
      <trkpt lat="43.79335" lon="-1.39223">
        <ele>2.06</ele>
        <time>2021-07-07T16:39:04Z</time>
      </trkpt>
      <trkpt lat="43.79339" lon="-1.39205">
        <ele>2.06</ele>
        <time>2021-07-07T16:39:07Z</time>
      </trkpt>
      <trkpt lat="43.79343" lon="-1.39201">
        <ele>2.06</ele>
        <time>2021-07-07T16:39:08Z</time>
      </trkpt>
      <trkpt lat="43.79352" lon="-1.39203">
        <ele>2.06</ele>
        <time>2021-07-07T16:39:09Z</time>
      </trkpt>
      <trkpt lat="43.79352" lon="-1.39203">
        <ele>0.62</ele>
        <time>2021-07-07T16:39:10Z</time>
      </trkpt>
      <trkpt lat="43.79361" lon="-1.39203">
        <ele>0.62</ele>
        <time>2021-07-07T16:39:11Z</time>
      </trkpt>
      <trkpt lat="43.79367" lon="-1.39198">
        <ele>0.62</ele>
        <time>2021-07-07T16:39:12Z</time>
      </trkpt>
      <trkpt lat="43.79373" lon="-1.39193">
        <ele>1.58</ele>
        <time>2021-07-07T16:39:13Z</time>
      </trkpt>
      <trkpt lat="43.79478" lon="-1.39107">
        <ele>1.1</ele>
        <time>2021-07-07T16:39:26Z</time>
      </trkpt>
      <trkpt lat="43.79565" lon="-1.39033">
        <ele>3.5</ele>
        <time>2021-07-07T16:39:37Z</time>
      </trkpt>
      <trkpt lat="43.79571" lon="-1.39028">
        <ele>3.5</ele>
        <time>2021-07-07T16:39:38Z</time>
      </trkpt>
      <trkpt lat="43.79577" lon="-1.39022">
        <ele>3.5</ele>
        <time>2021-07-07T16:39:39Z</time>
      </trkpt>
      <trkpt lat="43.79581" lon="-1.39016">
        <ele>3.5</ele>
        <time>2021-07-07T16:39:40Z</time>
      </trkpt>
      <trkpt lat="43.79585" lon="-1.39009">
        <ele>3.5</ele>
        <time>2021-07-07T16:39:41Z</time>
      </trkpt>
      <trkpt lat="43.79592" lon="-1.39006">
        <ele>3.5</ele>
        <time>2021-07-07T16:39:42Z</time>
      </trkpt>
      <trkpt lat="43.79598" lon="-1.39004">
        <ele>3.5</ele>
        <time>2021-07-07T16:39:43Z</time>
      </trkpt>
      <trkpt lat="43.79604" lon="-1.39">
        <ele>2.54</ele>
        <time>2021-07-07T16:39:44Z</time>
      </trkpt>
      <trkpt lat="43.7961" lon="-1.38995">
        <ele>3.02</ele>
        <time>2021-07-07T16:39:45Z</time>
      </trkpt>
      <trkpt lat="43.79617" lon="-1.3899">
        <ele>3.02</ele>
        <time>2021-07-07T16:39:46Z</time>
      </trkpt>
      <trkpt lat="43.79705" lon="-1.38924">
        <ele>0.62</ele>
        <time>2021-07-07T16:39:55Z</time>
      </trkpt>
      <trkpt lat="43.79855" lon="-1.38794">
        <ele>3.02</ele>
        <time>2021-07-07T16:40:09Z</time>
      </trkpt>
      <trkpt lat="43.79862" lon="-1.38787">
        <ele>3.02</ele>
        <time>2021-07-07T16:40:10Z</time>
      </trkpt>
      <trkpt lat="43.79869" lon="-1.38782">
        <ele>3.02</ele>
        <time>2021-07-07T16:40:11Z</time>
      </trkpt>
      <trkpt lat="43.79872" lon="-1.38762">
        <ele>2.06</ele>
        <time>2021-07-07T16:40:13Z</time>
      </trkpt>
      <trkpt lat="43.79878" lon="-1.38752">
        <ele>2.06</ele>
        <time>2021-07-07T16:40:14Z</time>
      </trkpt>
      <trkpt lat="43.79884" lon="-1.3875">
        <ele>1.58</ele>
        <time>2021-07-07T16:40:15Z</time>
      </trkpt>
      <trkpt lat="43.79901" lon="-1.38752">
        <ele>1.58</ele>
        <time>2021-07-07T16:40:16Z</time>
      </trkpt>
      <trkpt lat="43.79901" lon="-1.38752">
        <ele>1.1</ele>
        <time>2021-07-07T16:40:17Z</time>
      </trkpt>
      <trkpt lat="43.79907" lon="-1.38746">
        <ele>1.1</ele>
        <time>2021-07-07T16:40:18Z</time>
      </trkpt>
      <trkpt lat="43.79914" lon="-1.38739">
        <ele>1.1</ele>
        <time>2021-07-07T16:40:19Z</time>
      </trkpt>
      <trkpt lat="43.80003" lon="-1.3865">
        <ele>4.46</ele>
        <time>2021-07-07T16:40:28Z</time>
      </trkpt>
      <trkpt lat="43.80182" lon="-1.38473">
        <ele>4.46</ele>
        <time>2021-07-07T16:40:41Z</time>
      </trkpt>
      <trkpt lat="43.80338" lon="-1.3832">
        <ele>3.5</ele>
        <time>2021-07-07T16:40:54Z</time>
      </trkpt>
      <trkpt lat="43.80573" lon="-1.38129">
        <ele>2.06</ele>
        <time>2021-07-07T16:41:09Z</time>
      </trkpt>
      <trkpt lat="43.80721" lon="-1.38011">
        <ele>2.06</ele>
        <time>2021-07-07T16:41:21Z</time>
      </trkpt>
      <trkpt lat="43.80775" lon="-1.37968">
        <ele>1.1</ele>
        <time>2021-07-07T16:41:27Z</time>
      </trkpt>
      <trkpt lat="43.80808" lon="-1.37942">
        <ele>0.62</ele>
        <time>2021-07-07T16:41:37Z</time>
      </trkpt>
      <trkpt lat="43.80897" lon="-1.37896">
        <ele>5.91</ele>
        <time>2021-07-07T16:41:46Z</time>
      </trkpt>
      <trkpt lat="43.81091" lon="-1.37842">
        <ele>10.23</ele>
        <time>2021-07-07T16:42:02Z</time>
      </trkpt>
      <trkpt lat="43.81195" lon="-1.37838">
        <ele>10.23</ele>
        <time>2021-07-07T16:42:12Z</time>
      </trkpt>
      <trkpt lat="43.81358" lon="-1.37866">
        <ele>5.42</ele>
        <time>2021-07-07T16:42:26Z</time>
      </trkpt>
      <trkpt lat="43.81448" lon="-1.37862">
        <ele>6.39</ele>
        <time>2021-07-07T16:42:35Z</time>
      </trkpt>
      <trkpt lat="43.8149" lon="-1.37847">
        <ele>10.23</ele>
        <time>2021-07-07T16:42:42Z</time>
      </trkpt>
      <trkpt lat="43.81495" lon="-1.37845">
        <ele>10.23</ele>
        <time>2021-07-07T16:42:43Z</time>
      </trkpt>
      <trkpt lat="43.81499" lon="-1.37842">
        <ele>10.71</ele>
        <time>2021-07-07T16:42:44Z</time>
      </trkpt>
      <trkpt lat="43.81502" lon="-1.37836">
        <ele>10.23</ele>
        <time>2021-07-07T16:42:45Z</time>
      </trkpt>
      <trkpt lat="43.81504" lon="-1.3782">
        <ele>10.23</ele>
        <time>2021-07-07T16:42:46Z</time>
      </trkpt>
      <trkpt lat="43.81504" lon="-1.3782">
        <ele>10.23</ele>
        <time>2021-07-07T16:42:47Z</time>
      </trkpt>
      <trkpt lat="43.815" lon="-1.37812">
        <ele>9.75</ele>
        <time>2021-07-07T16:42:48Z</time>
      </trkpt>
      <trkpt lat="43.81496" lon="-1.37803">
        <ele>9.27</ele>
        <time>2021-07-07T16:42:49Z</time>
      </trkpt>
      <trkpt lat="43.81442" lon="-1.37677">
        <ele>6.87</ele>
        <time>2021-07-07T16:42:59Z</time>
      </trkpt>
      <trkpt lat="43.81435" lon="-1.37666">
        <ele>5.91</ele>
        <time>2021-07-07T16:43:00Z</time>
      </trkpt>
      <trkpt lat="43.81429" lon="-1.37654">
        <ele>5.42</ele>
        <time>2021-07-07T16:43:01Z</time>
      </trkpt>
      <trkpt lat="43.8142" lon="-1.37646">
        <ele>4.46</ele>
        <time>2021-07-07T16:43:02Z</time>
      </trkpt>
      <trkpt lat="43.8141" lon="-1.37638">
        <ele>3.98</ele>
        <time>2021-07-07T16:43:03Z</time>
      </trkpt>
      <trkpt lat="43.81256" lon="-1.37529">
        <ele>1.58</ele>
        <time>2021-07-07T16:43:16Z</time>
      </trkpt>
      <trkpt lat="43.81248" lon="-1.37523">
        <ele>2.06</ele>
        <time>2021-07-07T16:43:17Z</time>
      </trkpt>
      <trkpt lat="43.81235" lon="-1.37519">
        <ele>2.54</ele>
        <time>2021-07-07T16:43:19Z</time>
      </trkpt>
      <trkpt lat="43.81228" lon="-1.37505">
        <ele>2.06</ele>
        <time>2021-07-07T16:43:20Z</time>
      </trkpt>
      <trkpt lat="43.81178" lon="-1.37463">
        <ele>2.06</ele>
        <time>2021-07-07T16:43:27Z</time>
      </trkpt>
      <trkpt lat="43.81146" lon="-1.37436">
        <ele>2.06</ele>
        <time>2021-07-07T16:43:30Z</time>
      </trkpt>
      <trkpt lat="43.81043" lon="-1.37311">
        <ele>2.54</ele>
        <time>2021-07-07T16:43:40Z</time>
      </trkpt>
      <trkpt lat="43.80937" lon="-1.37233">
        <ele>3.02</ele>
        <time>2021-07-07T16:43:49Z</time>
      </trkpt>
      <trkpt lat="43.80838" lon="-1.37164">
        <ele>6.39</ele>
        <time>2021-07-07T16:43:58Z</time>
      </trkpt>
      <trkpt lat="43.80714" lon="-1.37065">
        <ele>5.91</ele>
        <time>2021-07-07T16:44:08Z</time>
      </trkpt>
      <trkpt lat="43.80586" lon="-1.36949">
        <ele>4.46</ele>
        <time>2021-07-07T16:44:19Z</time>
      </trkpt>
      <trkpt lat="43.80586" lon="-1.36949">
        <ele>4.94</ele>
        <time>2021-07-07T16:44:20Z</time>
      </trkpt>
      <trkpt lat="43.8058" lon="-1.36938">
        <ele>6.87</ele>
        <time>2021-07-07T16:44:21Z</time>
      </trkpt>
      <trkpt lat="43.80566" lon="-1.36913">
        <ele>6.87</ele>
        <time>2021-07-07T16:44:22Z</time>
      </trkpt>
      <trkpt lat="43.80566" lon="-1.36913">
        <ele>7.35</ele>
        <time>2021-07-07T16:44:23Z</time>
      </trkpt>
      <trkpt lat="43.80561" lon="-1.36899">
        <ele>6.87</ele>
        <time>2021-07-07T16:44:24Z</time>
      </trkpt>
      <trkpt lat="43.80515" lon="-1.36741">
        <ele>5.42</ele>
        <time>2021-07-07T16:44:32Z</time>
      </trkpt>
      <trkpt lat="43.80459" lon="-1.36539">
        <ele>5.91</ele>
        <time>2021-07-07T16:44:41Z</time>
      </trkpt>
      <trkpt lat="43.80321" lon="-1.36219">
        <ele>11.19</ele>
        <time>2021-07-07T16:44:55Z</time>
      </trkpt>
      <trkpt lat="43.80233" lon="-1.36057">
        <ele>13.12</ele>
        <time>2021-07-07T16:45:03Z</time>
      </trkpt>
      <trkpt lat="43.80083" lon="-1.35812">
        <ele>19.36</ele>
        <time>2021-07-07T16:45:16Z</time>
      </trkpt>
      <trkpt lat="43.7998" lon="-1.35565">
        <ele>22.73</ele>
        <time>2021-07-07T16:45:27Z</time>
      </trkpt>
      <trkpt lat="43.79883" lon="-1.35272">
        <ele>26.09</ele>
        <time>2021-07-07T16:45:39Z</time>
      </trkpt>
      <trkpt lat="43.79815" lon="-1.35">
        <ele>18.4</ele>
        <time>2021-07-07T16:45:49Z</time>
      </trkpt>
      <trkpt lat="43.79767" lon="-1.34771">
        <ele>16.48</ele>
        <time>2021-07-07T16:45:58Z</time>
      </trkpt>
      <trkpt lat="43.79714" lon="-1.3443">
        <ele>23.21</ele>
        <time>2021-07-07T16:46:10Z</time>
      </trkpt>
      <trkpt lat="43.79637" lon="-1.34105">
        <ele>25.61</ele>
        <time>2021-07-07T16:46:21Z</time>
      </trkpt>
      <trkpt lat="43.79538" lon="-1.33687">
        <ele>17.92</ele>
        <time>2021-07-07T16:46:37Z</time>
      </trkpt>
      <trkpt lat="43.79503" lon="-1.3348">
        <ele>17.92</ele>
        <time>2021-07-07T16:46:46Z</time>
      </trkpt>
      <trkpt lat="43.79471" lon="-1.33171">
        <ele>17.92</ele>
        <time>2021-07-07T16:46:58Z</time>
      </trkpt>
      <trkpt lat="43.79443" lon="-1.32872">
        <ele>17.44</ele>
        <time>2021-07-07T16:47:10Z</time>
      </trkpt>
      <trkpt lat="43.79442" lon="-1.32848">
        <ele>16.96</ele>
        <time>2021-07-07T16:47:11Z</time>
      </trkpt>
      <trkpt lat="43.79442" lon="-1.32824">
        <ele>17.44</ele>
        <time>2021-07-07T16:47:12Z</time>
      </trkpt>
      <trkpt lat="43.79444" lon="-1.32801">
        <ele>17.44</ele>
        <time>2021-07-07T16:47:13Z</time>
      </trkpt>
      <trkpt lat="43.79448" lon="-1.32777">
        <ele>16.48</ele>
        <time>2021-07-07T16:47:14Z</time>
      </trkpt>
      <trkpt lat="43.79453" lon="-1.32755">
        <ele>16.48</ele>
        <time>2021-07-07T16:47:15Z</time>
      </trkpt>
      <trkpt lat="43.79459" lon="-1.32732">
        <ele>16.96</ele>
        <time>2021-07-07T16:47:16Z</time>
      </trkpt>
      <trkpt lat="43.79536" lon="-1.32483">
        <ele>14.08</ele>
        <time>2021-07-07T16:47:27Z</time>
      </trkpt>
      <trkpt lat="43.79577" lon="-1.3233">
        <ele>12.15</ele>
        <time>2021-07-07T16:47:34Z</time>
      </trkpt>
      <trkpt lat="43.79579" lon="-1.32306">
        <ele>10.71</ele>
        <time>2021-07-07T16:47:35Z</time>
      </trkpt>
      <trkpt lat="43.79588" lon="-1.32211">
        <ele>11.67</ele>
        <time>2021-07-07T16:47:39Z</time>
      </trkpt>
      <trkpt lat="43.7959" lon="-1.3219">
        <ele>12.15</ele>
        <time>2021-07-07T16:47:40Z</time>
      </trkpt>
      <trkpt lat="43.79597" lon="-1.32172">
        <ele>13.6</ele>
        <time>2021-07-07T16:47:41Z</time>
      </trkpt>
      <trkpt lat="43.79605" lon="-1.32153">
        <ele>14.08</ele>
        <time>2021-07-07T16:47:42Z</time>
      </trkpt>
      <trkpt lat="43.79612" lon="-1.32135">
        <ele>14.56</ele>
        <time>2021-07-07T16:47:43Z</time>
      </trkpt>
      <trkpt lat="43.79694" lon="-1.31957">
        <ele>17.92</ele>
        <time>2021-07-07T16:47:53Z</time>
      </trkpt>
      <trkpt lat="43.7973" lon="-1.31824">
        <ele>17.92</ele>
        <time>2021-07-07T16:48:01Z</time>
      </trkpt>
      <trkpt lat="43.79801" lon="-1.31461">
        <ele>21.29</ele>
        <time>2021-07-07T16:48:17Z</time>
      </trkpt>
      <trkpt lat="43.7986" lon="-1.31159">
        <ele>20.81</ele>
        <time>2021-07-07T16:48:29Z</time>
      </trkpt>
      <trkpt lat="43.79915" lon="-1.30876">
        <ele>23.21</ele>
        <time>2021-07-07T16:48:40Z</time>
      </trkpt>
      <trkpt lat="43.79961" lon="-1.30642">
        <ele>17.92</ele>
        <time>2021-07-07T16:48:51Z</time>
      </trkpt>
      <trkpt lat="43.79961" lon="-1.30642">
        <ele>17.92</ele>
        <time>2021-07-07T16:48:52Z</time>
      </trkpt>
      <trkpt lat="43.79957" lon="-1.3056">
        <ele>19.36</ele>
        <time>2021-07-07T16:48:58Z</time>
      </trkpt>
      <trkpt lat="43.79957" lon="-1.30553">
        <ele>18.88</ele>
        <time>2021-07-07T16:48:59Z</time>
      </trkpt>
      <trkpt lat="43.79949" lon="-1.30472">
        <ele>16.48</ele>
        <time>2021-07-07T16:49:06Z</time>
      </trkpt>
      <trkpt lat="43.79931" lon="-1.30354">
        <ele>14.56</ele>
        <time>2021-07-07T16:49:15Z</time>
      </trkpt>
      <trkpt lat="43.7991" lon="-1.3028">
        <ele>19.36</ele>
        <time>2021-07-07T16:49:26Z</time>
      </trkpt>
      <trkpt lat="43.79902" lon="-1.30266">
        <ele>18.88</ele>
        <time>2021-07-07T16:49:29Z</time>
      </trkpt>
      <trkpt lat="43.79902" lon="-1.30266">
        <ele>18.4</ele>
        <time>2021-07-07T16:49:30Z</time>
      </trkpt>
      <trkpt lat="43.79894" lon="-1.30262">
        <ele>18.4</ele>
        <time>2021-07-07T16:49:31Z</time>
      </trkpt>
      <trkpt lat="43.79888" lon="-1.30259">
        <ele>17.92</ele>
        <time>2021-07-07T16:49:32Z</time>
      </trkpt>
      <trkpt lat="43.79881" lon="-1.30256">
        <ele>17.92</ele>
        <time>2021-07-07T16:49:33Z</time>
      </trkpt>
      <trkpt lat="43.79874" lon="-1.30253">
        <ele>17.92</ele>
        <time>2021-07-07T16:49:34Z</time>
      </trkpt>
      <trkpt lat="43.79848" lon="-1.30246">
        <ele>17.92</ele>
        <time>2021-07-07T16:49:38Z</time>
      </trkpt>
      <trkpt lat="43.79837" lon="-1.3024">
        <ele>17.44</ele>
        <time>2021-07-07T16:49:39Z</time>
      </trkpt>
      <trkpt lat="43.79834" lon="-1.30237">
        <ele>17.44</ele>
        <time>2021-07-07T16:49:40Z</time>
      </trkpt>
      <trkpt lat="43.79828" lon="-1.30231">
        <ele>16.96</ele>
        <time>2021-07-07T16:49:41Z</time>
      </trkpt>
      <trkpt lat="43.79821" lon="-1.30224">
        <ele>16.96</ele>
        <time>2021-07-07T16:49:42Z</time>
      </trkpt>
      <trkpt lat="43.79733" lon="-1.30128">
        <ele>16</ele>
        <time>2021-07-07T16:49:53Z</time>
      </trkpt>
      <trkpt lat="43.79666" lon="-1.30012">
        <ele>16.96</ele>
        <time>2021-07-07T16:50:05Z</time>
      </trkpt>
      <trkpt lat="43.79597" lon="-1.29857">
        <ele>15.52</ele>
        <time>2021-07-07T16:50:19Z</time>
      </trkpt>
      <trkpt lat="43.79522" lon="-1.29738">
        <ele>13.6</ele>
        <time>2021-07-07T16:50:28Z</time>
      </trkpt>
      <trkpt lat="43.79522" lon="-1.29738">
        <ele>13.6</ele>
        <time>2021-07-07T16:50:29Z</time>
      </trkpt>
      <trkpt lat="43.79492" lon="-1.29709">
        <ele>12.15</ele>
        <time>2021-07-07T16:50:33Z</time>
      </trkpt>
      <trkpt lat="43.79483" lon="-1.29704">
        <ele>11.19</ele>
        <time>2021-07-07T16:50:34Z</time>
      </trkpt>
      <trkpt lat="43.79473" lon="-1.297">
        <ele>10.23</ele>
        <time>2021-07-07T16:50:35Z</time>
      </trkpt>
      <trkpt lat="43.79462" lon="-1.297">
        <ele>10.71</ele>
        <time>2021-07-07T16:50:36Z</time>
      </trkpt>
      <trkpt lat="43.79451" lon="-1.29699">
        <ele>12.63</ele>
        <time>2021-07-07T16:50:37Z</time>
      </trkpt>
      <trkpt lat="43.79428" lon="-1.29697">
        <ele>14.08</ele>
        <time>2021-07-07T16:50:38Z</time>
      </trkpt>
      <trkpt lat="43.79293" lon="-1.29691">
        <ele>16</ele>
        <time>2021-07-07T16:50:49Z</time>
      </trkpt>
      <trkpt lat="43.79286" lon="-1.2969">
        <ele>16.48</ele>
        <time>2021-07-07T16:50:50Z</time>
      </trkpt>
      <trkpt lat="43.79279" lon="-1.2969">
        <ele>15.04</ele>
        <time>2021-07-07T16:50:51Z</time>
      </trkpt>
      <trkpt lat="43.79277" lon="-1.29684">
        <ele>15.04</ele>
        <time>2021-07-07T16:50:52Z</time>
      </trkpt>
      <trkpt lat="43.79277" lon="-1.29684">
        <ele>14.08</ele>
        <time>2021-07-07T16:50:53Z</time>
      </trkpt>
      <trkpt lat="43.79275" lon="-1.29676">
        <ele>14.08</ele>
        <time>2021-07-07T16:50:54Z</time>
      </trkpt>
      <trkpt lat="43.79262" lon="-1.29634">
        <ele>12.63</ele>
        <time>2021-07-07T16:50:57Z</time>
      </trkpt>
      <trkpt lat="43.79238" lon="-1.29518">
        <ele>10.71</ele>
        <time>2021-07-07T16:51:05Z</time>
      </trkpt>
      <trkpt lat="43.79227" lon="-1.29483">
        <ele>12.15</ele>
        <time>2021-07-07T16:51:07Z</time>
      </trkpt>
      <trkpt lat="43.79222" lon="-1.29466">
        <ele>12.63</ele>
        <time>2021-07-07T16:51:08Z</time>
      </trkpt>
      <trkpt lat="43.79219" lon="-1.29448">
        <ele>12.63</ele>
        <time>2021-07-07T16:51:09Z</time>
      </trkpt>
      <trkpt lat="43.7921" lon="-1.29393">
        <ele>14.56</ele>
        <time>2021-07-07T16:51:12Z</time>
      </trkpt>
      <trkpt lat="43.79207" lon="-1.29375">
        <ele>15.04</ele>
        <time>2021-07-07T16:51:13Z</time>
      </trkpt>
      <trkpt lat="43.79144" lon="-1.29188">
        <ele>16.96</ele>
        <time>2021-07-07T16:51:24Z</time>
      </trkpt>
      <trkpt lat="43.79055" lon="-1.28879">
        <ele>17.44</ele>
        <time>2021-07-07T16:51:39Z</time>
      </trkpt>
      <trkpt lat="43.78957" lon="-1.28592">
        <ele>17.44</ele>
        <time>2021-07-07T16:51:52Z</time>
      </trkpt>
      <trkpt lat="43.7884" lon="-1.28256">
        <ele>16.48</ele>
        <time>2021-07-07T16:52:06Z</time>
      </trkpt>
      <trkpt lat="43.78706" lon="-1.2788">
        <ele>16.96</ele>
        <time>2021-07-07T16:52:22Z</time>
      </trkpt>
      <trkpt lat="43.78643" lon="-1.27726">
        <ele>17.44</ele>
        <time>2021-07-07T16:52:29Z</time>
      </trkpt>
      <trkpt lat="43.78639" lon="-1.27704">
        <ele>16.96</ele>
        <time>2021-07-07T16:52:30Z</time>
      </trkpt>
      <trkpt lat="43.78631" lon="-1.27661">
        <ele>16.96</ele>
        <time>2021-07-07T16:52:31Z</time>
      </trkpt>
      <trkpt lat="43.78631" lon="-1.27661">
        <ele>17.92</ele>
        <time>2021-07-07T16:52:32Z</time>
      </trkpt>
      <trkpt lat="43.78629" lon="-1.27639">
        <ele>17.92</ele>
        <time>2021-07-07T16:52:33Z</time>
      </trkpt>
      <trkpt lat="43.78636" lon="-1.27532">
        <ele>17.44</ele>
        <time>2021-07-07T16:52:38Z</time>
      </trkpt>
      <trkpt lat="43.78664" lon="-1.27369">
        <ele>19.36</ele>
        <time>2021-07-07T16:52:46Z</time>
      </trkpt>
      <trkpt lat="43.78662" lon="-1.27073">
        <ele>17.92</ele>
        <time>2021-07-07T16:53:00Z</time>
      </trkpt>
      <trkpt lat="43.78624" lon="-1.26886">
        <ele>13.6</ele>
        <time>2021-07-07T16:53:09Z</time>
      </trkpt>
      <trkpt lat="43.78563" lon="-1.26669">
        <ele>14.56</ele>
        <time>2021-07-07T16:53:20Z</time>
      </trkpt>
      <trkpt lat="43.7856" lon="-1.26648">
        <ele>14.56</ele>
        <time>2021-07-07T16:53:21Z</time>
      </trkpt>
      <trkpt lat="43.78556" lon="-1.26629">
        <ele>15.52</ele>
        <time>2021-07-07T16:53:22Z</time>
      </trkpt>
      <trkpt lat="43.78556" lon="-1.2661">
        <ele>16</ele>
        <time>2021-07-07T16:53:23Z</time>
      </trkpt>
      <trkpt lat="43.78558" lon="-1.26571">
        <ele>16</ele>
        <time>2021-07-07T16:53:24Z</time>
      </trkpt>
      <trkpt lat="43.78558" lon="-1.26571">
        <ele>16</ele>
        <time>2021-07-07T16:53:25Z</time>
      </trkpt>
      <trkpt lat="43.78563" lon="-1.2655">
        <ele>16</ele>
        <time>2021-07-07T16:53:26Z</time>
      </trkpt>
      <trkpt lat="43.78567" lon="-1.2653">
        <ele>16</ele>
        <time>2021-07-07T16:53:27Z</time>
      </trkpt>
      <trkpt lat="43.78576" lon="-1.26488">
        <ele>16</ele>
        <time>2021-07-07T16:53:28Z</time>
      </trkpt>
      <trkpt lat="43.78651" lon="-1.26243">
        <ele>16.96</ele>
        <time>2021-07-07T16:53:40Z</time>
      </trkpt>
      <trkpt lat="43.78736" lon="-1.25961">
        <ele>19.36</ele>
        <time>2021-07-07T16:53:53Z</time>
      </trkpt>
      <trkpt lat="43.78742" lon="-1.25919">
        <ele>18.4</ele>
        <time>2021-07-07T16:53:54Z</time>
      </trkpt>
      <trkpt lat="43.78742" lon="-1.25919">
        <ele>18.88</ele>
        <time>2021-07-07T16:53:55Z</time>
      </trkpt>
      <trkpt lat="43.78742" lon="-1.25899">
        <ele>19.36</ele>
        <time>2021-07-07T16:53:56Z</time>
      </trkpt>
      <trkpt lat="43.78739" lon="-1.25852">
        <ele>19.36</ele>
        <time>2021-07-07T16:53:57Z</time>
      </trkpt>
      <trkpt lat="43.7872" lon="-1.25646">
        <ele>20.81</ele>
        <time>2021-07-07T16:54:07Z</time>
      </trkpt>
      <trkpt lat="43.78721" lon="-1.25623">
        <ele>20.32</ele>
        <time>2021-07-07T16:54:08Z</time>
      </trkpt>
      <trkpt lat="43.78746" lon="-1.2536">
        <ele>20.81</ele>
        <time>2021-07-07T16:54:19Z</time>
      </trkpt>
      <trkpt lat="43.78754" lon="-1.24994">
        <ele>26.57</ele>
        <time>2021-07-07T16:54:34Z</time>
      </trkpt>
      <trkpt lat="43.78732" lon="-1.24781">
        <ele>28.02</ele>
        <time>2021-07-07T16:54:43Z</time>
      </trkpt>
      <trkpt lat="43.78734" lon="-1.24378">
        <ele>27.05</ele>
        <time>2021-07-07T16:54:58Z</time>
      </trkpt>
      <trkpt lat="43.78735" lon="-1.24023">
        <ele>25.13</ele>
        <time>2021-07-07T16:55:12Z</time>
      </trkpt>
      <trkpt lat="43.78738" lon="-1.23582">
        <ele>23.69</ele>
        <time>2021-07-07T16:55:30Z</time>
      </trkpt>
      <trkpt lat="43.78736" lon="-1.2354">
        <ele>22.73</ele>
        <time>2021-07-07T16:55:32Z</time>
      </trkpt>
      <trkpt lat="43.78734" lon="-1.23519">
        <ele>20.81</ele>
        <time>2021-07-07T16:55:33Z</time>
      </trkpt>
      <trkpt lat="43.78731" lon="-1.23499">
        <ele>19.36</ele>
        <time>2021-07-07T16:55:34Z</time>
      </trkpt>
      <trkpt lat="43.78725" lon="-1.23479">
        <ele>18.88</ele>
        <time>2021-07-07T16:55:35Z</time>
      </trkpt>
      <trkpt lat="43.78709" lon="-1.23441">
        <ele>17.92</ele>
        <time>2021-07-07T16:55:36Z</time>
      </trkpt>
      <trkpt lat="43.78709" lon="-1.23441">
        <ele>16.96</ele>
        <time>2021-07-07T16:55:37Z</time>
      </trkpt>
      <trkpt lat="43.78571" lon="-1.23207">
        <ele>21.77</ele>
        <time>2021-07-07T16:55:50Z</time>
      </trkpt>
      <trkpt lat="43.78396" lon="-1.22929">
        <ele>21.29</ele>
        <time>2021-07-07T16:56:05Z</time>
      </trkpt>
      <trkpt lat="43.78328" lon="-1.2277">
        <ele>21.29</ele>
        <time>2021-07-07T16:56:13Z</time>
      </trkpt>
      <trkpt lat="43.78279" lon="-1.22623">
        <ele>22.25</ele>
        <time>2021-07-07T16:56:21Z</time>
      </trkpt>
      <trkpt lat="43.78259" lon="-1.22558">
        <ele>23.69</ele>
        <time>2021-07-07T16:56:28Z</time>
      </trkpt>
      <trkpt lat="43.78251" lon="-1.22547">
        <ele>23.21</ele>
        <time>2021-07-07T16:56:35Z</time>
      </trkpt>
      <trkpt lat="43.78251" lon="-1.22547">
        <ele>22.73</ele>
        <time>2021-07-07T16:56:36Z</time>
      </trkpt>
      <trkpt lat="43.78176" lon="-1.22517">
        <ele>16.96</ele>
        <time>2021-07-07T16:56:46Z</time>
      </trkpt>
      <trkpt lat="43.78104" lon="-1.22475">
        <ele>14.56</ele>
        <time>2021-07-07T16:56:56Z</time>
      </trkpt>
      <trkpt lat="43.78098" lon="-1.22468">
        <ele>14.56</ele>
        <time>2021-07-07T16:56:57Z</time>
      </trkpt>
      <trkpt lat="43.78092" lon="-1.22461">
        <ele>15.52</ele>
        <time>2021-07-07T16:56:58Z</time>
      </trkpt>
      <trkpt lat="43.78086" lon="-1.2245">
        <ele>16</ele>
        <time>2021-07-07T16:56:59Z</time>
      </trkpt>
      <trkpt lat="43.78083" lon="-1.22439">
        <ele>16.96</ele>
        <time>2021-07-07T16:57:00Z</time>
      </trkpt>
      <trkpt lat="43.7808" lon="-1.22428">
        <ele>17.92</ele>
        <time>2021-07-07T16:57:01Z</time>
      </trkpt>
      <trkpt lat="43.78076" lon="-1.22417">
        <ele>18.88</ele>
        <time>2021-07-07T16:57:02Z</time>
      </trkpt>
      <trkpt lat="43.78075" lon="-1.22391">
        <ele>19.36</ele>
        <time>2021-07-07T16:57:03Z</time>
      </trkpt>
      <trkpt lat="43.78075" lon="-1.22391">
        <ele>19.84</ele>
        <time>2021-07-07T16:57:04Z</time>
      </trkpt>
      <trkpt lat="43.78088" lon="-1.22197">
        <ele>22.73</ele>
        <time>2021-07-07T16:57:17Z</time>
      </trkpt>
      <trkpt lat="43.78116" lon="-1.22032">
        <ele>24.65</ele>
        <time>2021-07-07T16:57:27Z</time>
      </trkpt>
      <trkpt lat="43.78119" lon="-1.21911">
        <ele>26.09</ele>
        <time>2021-07-07T16:57:36Z</time>
      </trkpt>
      <trkpt lat="43.78103" lon="-1.21796">
        <ele>27.05</ele>
        <time>2021-07-07T16:57:48Z</time>
      </trkpt>
      <trkpt lat="43.78093" lon="-1.2174">
        <ele>28.5</ele>
        <time>2021-07-07T16:57:56Z</time>
      </trkpt>
      <trkpt lat="43.78084" lon="-1.21709">
        <ele>28.98</ele>
        <time>2021-07-07T16:58:30Z</time>
      </trkpt>
      <trkpt lat="43.78066" lon="-1.21648">
        <ele>28.5</ele>
        <time>2021-07-07T16:58:39Z</time>
      </trkpt>
      <trkpt lat="43.78064" lon="-1.21641">
        <ele>28.02</ele>
        <time>2021-07-07T16:58:40Z</time>
      </trkpt>
      <trkpt lat="43.78063" lon="-1.21635">
        <ele>28.5</ele>
        <time>2021-07-07T16:58:41Z</time>
      </trkpt>
      <trkpt lat="43.78059" lon="-1.21634">
        <ele>28.5</ele>
        <time>2021-07-07T16:58:42Z</time>
      </trkpt>
      <trkpt lat="43.78054" lon="-1.21633">
        <ele>28.5</ele>
        <time>2021-07-07T16:58:43Z</time>
      </trkpt>
      <trkpt lat="43.78049" lon="-1.21632">
        <ele>28.5</ele>
        <time>2021-07-07T16:58:44Z</time>
      </trkpt>
      <trkpt lat="43.77951" lon="-1.21614">
        <ele>26.57</ele>
        <time>2021-07-07T16:59:00Z</time>
      </trkpt>
      <trkpt lat="43.77912" lon="-1.21605">
        <ele>25.13</ele>
        <time>2021-07-07T16:59:06Z</time>
      </trkpt>
      <trkpt lat="43.77912" lon="-1.21605">
        <ele>25.61</ele>
        <time>2021-07-07T16:59:07Z</time>
      </trkpt>
      <trkpt lat="43.77909" lon="-1.21603">
        <ele>25.13</ele>
        <time>2021-07-07T16:59:08Z</time>
      </trkpt>
      <trkpt lat="43.77905" lon="-1.21599">
        <ele>25.13</ele>
        <time>2021-07-07T16:59:09Z</time>
      </trkpt>
      <trkpt lat="43.77902" lon="-1.21594">
        <ele>25.13</ele>
        <time>2021-07-07T16:59:10Z</time>
      </trkpt>
      <trkpt lat="43.77901" lon="-1.21588">
        <ele>25.61</ele>
        <time>2021-07-07T16:59:11Z</time>
      </trkpt>
      <trkpt lat="43.77896" lon="-1.21462">
        <ele>25.13</ele>
        <time>2021-07-07T16:59:21Z</time>
      </trkpt>
      <trkpt lat="43.77878" lon="-1.21324">
        <ele>23.69</ele>
        <time>2021-07-07T16:59:30Z</time>
      </trkpt>
      <trkpt lat="43.77873" lon="-1.21314">
        <ele>23.69</ele>
        <time>2021-07-07T16:59:31Z</time>
      </trkpt>
      <trkpt lat="43.77869" lon="-1.21305">
        <ele>23.69</ele>
        <time>2021-07-07T16:59:32Z</time>
      </trkpt>
      <trkpt lat="43.77866" lon="-1.21297">
        <ele>23.21</ele>
        <time>2021-07-07T16:59:33Z</time>
      </trkpt>
      <trkpt lat="43.7785" lon="-1.21276">
        <ele>23.69</ele>
        <time>2021-07-07T16:59:35Z</time>
      </trkpt>
      <trkpt lat="43.77849" lon="-1.21267">
        <ele>23.69</ele>
        <time>2021-07-07T16:59:36Z</time>
      </trkpt>
      <trkpt lat="43.77849" lon="-1.21267">
        <ele>23.69</ele>
        <time>2021-07-07T16:59:37Z</time>
      </trkpt>
      <trkpt lat="43.77849" lon="-1.21257">
        <ele>23.69</ele>
        <time>2021-07-07T16:59:38Z</time>
      </trkpt>
      <trkpt lat="43.7785" lon="-1.21246">
        <ele>23.21</ele>
        <time>2021-07-07T16:59:39Z</time>
      </trkpt>
      <trkpt lat="43.7785" lon="-1.21222">
        <ele>23.21</ele>
        <time>2021-07-07T16:59:40Z</time>
      </trkpt>
      <trkpt lat="43.7785" lon="-1.21222">
        <ele>22.73</ele>
        <time>2021-07-07T16:59:41Z</time>
      </trkpt>
      <trkpt lat="43.77831" lon="-1.21093">
        <ele>23.21</ele>
        <time>2021-07-07T16:59:50Z</time>
      </trkpt>
      <trkpt lat="43.7782" lon="-1.21051">
        <ele>24.17</ele>
        <time>2021-07-07T16:59:53Z</time>
      </trkpt>
      <trkpt lat="43.77816" lon="-1.21038">
        <ele>24.17</ele>
        <time>2021-07-07T16:59:54Z</time>
      </trkpt>
      <trkpt lat="43.77811" lon="-1.21028">
        <ele>24.65</ele>
        <time>2021-07-07T16:59:55Z</time>
      </trkpt>
      <trkpt lat="43.77806" lon="-1.21018">
        <ele>24.65</ele>
        <time>2021-07-07T16:59:56Z</time>
      </trkpt>
      <trkpt lat="43.77801" lon="-1.21009">
        <ele>24.17</ele>
        <time>2021-07-07T16:59:57Z</time>
      </trkpt>
      <trkpt lat="43.77795" lon="-1.21001">
        <ele>24.17</ele>
        <time>2021-07-07T16:59:58Z</time>
      </trkpt>
      <trkpt lat="43.77789" lon="-1.20996">
        <ele>23.69</ele>
        <time>2021-07-07T16:59:59Z</time>
      </trkpt>
      <trkpt lat="43.77781" lon="-1.20993">
        <ele>24.17</ele>
        <time>2021-07-07T17:00:00Z</time>
      </trkpt>
      <trkpt lat="43.77773" lon="-1.20992">
        <ele>23.69</ele>
        <time>2021-07-07T17:00:01Z</time>
      </trkpt>
      <trkpt lat="43.77765" lon="-1.2099">
        <ele>23.69</ele>
        <time>2021-07-07T17:00:02Z</time>
      </trkpt>
      <trkpt lat="43.77745" lon="-1.20995">
        <ele>26.09</ele>
        <time>2021-07-07T17:00:04Z</time>
      </trkpt>
      <trkpt lat="43.77735" lon="-1.21">
        <ele>27.53</ele>
        <time>2021-07-07T17:00:05Z</time>
      </trkpt>
      <trkpt lat="43.77725" lon="-1.21005">
        <ele>28.5</ele>
        <time>2021-07-07T17:00:06Z</time>
      </trkpt>
      <trkpt lat="43.77709" lon="-1.21024">
        <ele>28.98</ele>
        <time>2021-07-07T17:00:07Z</time>
      </trkpt>
      <trkpt lat="43.77702" lon="-1.21034">
        <ele>27.05</ele>
        <time>2021-07-07T17:00:08Z</time>
      </trkpt>
      <trkpt lat="43.77699" lon="-1.21052">
        <ele>25.61</ele>
        <time>2021-07-07T17:00:09Z</time>
      </trkpt>
      <trkpt lat="43.77699" lon="-1.21052">
        <ele>24.65</ele>
        <time>2021-07-07T17:00:10Z</time>
      </trkpt>
      <trkpt lat="43.77699" lon="-1.21067">
        <ele>25.13</ele>
        <time>2021-07-07T17:00:11Z</time>
      </trkpt>
      <trkpt lat="43.77698" lon="-1.21082">
        <ele>26.09</ele>
        <time>2021-07-07T17:00:12Z</time>
      </trkpt>
      <trkpt lat="43.77701" lon="-1.21098">
        <ele>26.09</ele>
        <time>2021-07-07T17:00:13Z</time>
      </trkpt>
      <trkpt lat="43.77705" lon="-1.21111">
        <ele>25.13</ele>
        <time>2021-07-07T17:00:14Z</time>
      </trkpt>
      <trkpt lat="43.77711" lon="-1.21124">
        <ele>24.65</ele>
        <time>2021-07-07T17:00:15Z</time>
      </trkpt>
      <trkpt lat="43.77718" lon="-1.21136">
        <ele>26.09</ele>
        <time>2021-07-07T17:00:16Z</time>
      </trkpt>
      <trkpt lat="43.77728" lon="-1.21144">
        <ele>27.53</ele>
        <time>2021-07-07T17:00:17Z</time>
      </trkpt>
      <trkpt lat="43.7774" lon="-1.2115">
        <ele>27.53</ele>
        <time>2021-07-07T17:00:18Z</time>
      </trkpt>
      <trkpt lat="43.77764" lon="-1.21154">
        <ele>28.02</ele>
        <time>2021-07-07T17:00:19Z</time>
      </trkpt>
      <trkpt lat="43.77777" lon="-1.2115">
        <ele>27.53</ele>
        <time>2021-07-07T17:00:20Z</time>
      </trkpt>
      <trkpt lat="43.77777" lon="-1.2115">
        <ele>26.57</ele>
        <time>2021-07-07T17:00:21Z</time>
      </trkpt>
      <trkpt lat="43.77791" lon="-1.21146">
        <ele>25.61</ele>
        <time>2021-07-07T17:00:22Z</time>
      </trkpt>
      <trkpt lat="43.77806" lon="-1.21142">
        <ele>25.13</ele>
        <time>2021-07-07T17:00:23Z</time>
      </trkpt>
      <trkpt lat="43.77951" lon="-1.21083">
        <ele>23.69</ele>
        <time>2021-07-07T17:00:31Z</time>
      </trkpt>
      <trkpt lat="43.78184" lon="-1.20996">
        <ele>20.81</ele>
        <time>2021-07-07T17:00:41Z</time>
      </trkpt>
      <trkpt lat="43.78472" lon="-1.20914">
        <ele>25.13</ele>
        <time>2021-07-07T17:00:52Z</time>
      </trkpt>
      <trkpt lat="43.78736" lon="-1.20912">
        <ele>28.98</ele>
        <time>2021-07-07T17:01:02Z</time>
      </trkpt>
      <trkpt lat="43.79076" lon="-1.20911">
        <ele>31.86</ele>
        <time>2021-07-07T17:01:15Z</time>
      </trkpt>
      <trkpt lat="43.79308" lon="-1.20841">
        <ele>35.71</ele>
        <time>2021-07-07T17:01:24Z</time>
      </trkpt>
      <trkpt lat="43.79576" lon="-1.20676">
        <ele>38.59</ele>
        <time>2021-07-07T17:01:35Z</time>
      </trkpt>
      <trkpt lat="43.80068" lon="-1.20346">
        <ele>43.88</ele>
        <time>2021-07-07T17:01:55Z</time>
      </trkpt>
      <trkpt lat="43.80431" lon="-1.20097">
        <ele>47.72</ele>
        <time>2021-07-07T17:02:10Z</time>
      </trkpt>
      <trkpt lat="43.80944" lon="-1.19751">
        <ele>53.01</ele>
        <time>2021-07-07T17:02:31Z</time>
      </trkpt>
      <trkpt lat="43.81489" lon="-1.19384">
        <ele>57.82</ele>
        <time>2021-07-07T17:02:53Z</time>
      </trkpt>
      <trkpt lat="43.82023" lon="-1.1903">
        <ele>60.22</ele>
        <time>2021-07-07T17:03:14Z</time>
      </trkpt>
      <trkpt lat="43.82512" lon="-1.18698">
        <ele>62.62</ele>
        <time>2021-07-07T17:03:34Z</time>
      </trkpt>
      <trkpt lat="43.82873" lon="-1.18453">
        <ele>64.55</ele>
        <time>2021-07-07T17:03:50Z</time>
      </trkpt>
      <trkpt lat="43.83209" lon="-1.18224">
        <ele>64.55</ele>
        <time>2021-07-07T17:04:06Z</time>
      </trkpt>
      <trkpt lat="43.83398" lon="-1.18095">
        <ele>65.51</ele>
        <time>2021-07-07T17:04:16Z</time>
      </trkpt>
      <trkpt lat="43.83483" lon="-1.1804">
        <ele>66.47</ele>
        <time>2021-07-07T17:04:24Z</time>
      </trkpt>
      <trkpt lat="43.83512" lon="-1.18022">
        <ele>66.47</ele>
        <time>2021-07-07T17:04:31Z</time>
      </trkpt>
      <trkpt lat="43.83548" lon="-1.18001">
        <ele>65.99</ele>
        <time>2021-07-07T17:04:38Z</time>
      </trkpt>
      <trkpt lat="43.83646" lon="-1.17935">
        <ele>65.51</ele>
        <time>2021-07-07T17:04:45Z</time>
      </trkpt>
      <trkpt lat="43.83783" lon="-1.17843">
        <ele>63.1</ele>
        <time>2021-07-07T17:04:54Z</time>
      </trkpt>
      <trkpt lat="43.84026" lon="-1.17677">
        <ele>64.55</ele>
        <time>2021-07-07T17:05:06Z</time>
      </trkpt>
      <trkpt lat="43.84332" lon="-1.17469">
        <ele>66.47</ele>
        <time>2021-07-07T17:05:19Z</time>
      </trkpt>
      <trkpt lat="43.84844" lon="-1.17126">
        <ele>66.95</ele>
        <time>2021-07-07T17:05:39Z</time>
      </trkpt>
      <trkpt lat="43.85424" lon="-1.16734">
        <ele>68.39</ele>
        <time>2021-07-07T17:06:01Z</time>
      </trkpt>
      <trkpt lat="43.85947" lon="-1.16375">
        <ele>67.91</ele>
        <time>2021-07-07T17:06:21Z</time>
      </trkpt>
      <trkpt lat="43.86415" lon="-1.16034">
        <ele>65.99</ele>
        <time>2021-07-07T17:06:40Z</time>
      </trkpt>
      <trkpt lat="43.86593" lon="-1.15852">
        <ele>65.99</ele>
        <time>2021-07-07T17:06:48Z</time>
      </trkpt>
      <trkpt lat="43.8676" lon="-1.15587">
        <ele>66.47</ele>
        <time>2021-07-07T17:06:57Z</time>
      </trkpt>
      <trkpt lat="43.86868" lon="-1.15316">
        <ele>64.55</ele>
        <time>2021-07-07T17:07:05Z</time>
      </trkpt>
      <trkpt lat="43.86936" lon="-1.14979">
        <ele>63.1</ele>
        <time>2021-07-07T17:07:14Z</time>
      </trkpt>
      <trkpt lat="43.87023" lon="-1.14347">
        <ele>63.58</ele>
        <time>2021-07-07T17:07:31Z</time>
      </trkpt>
      <trkpt lat="43.87089" lon="-1.14033">
        <ele>64.07</ele>
        <time>2021-07-07T17:07:41Z</time>
      </trkpt>
      <trkpt lat="43.87142" lon="-1.13834">
        <ele>61.18</ele>
        <time>2021-07-07T17:07:49Z</time>
      </trkpt>
      <trkpt lat="43.87149" lon="-1.13797">
        <ele>62.14</ele>
        <time>2021-07-07T17:07:51Z</time>
      </trkpt>
      <trkpt lat="43.87153" lon="-1.1376">
        <ele>61.66</ele>
        <time>2021-07-07T17:07:52Z</time>
      </trkpt>
      <trkpt lat="43.87154" lon="-1.13742">
        <ele>61.66</ele>
        <time>2021-07-07T17:07:53Z</time>
      </trkpt>
      <trkpt lat="43.87154" lon="-1.13742">
        <ele>61.18</ele>
        <time>2021-07-07T17:07:54Z</time>
      </trkpt>
      <trkpt lat="43.87152" lon="-1.13723">
        <ele>60.7</ele>
        <time>2021-07-07T17:07:55Z</time>
      </trkpt>
      <trkpt lat="43.87149" lon="-1.13704">
        <ele>60.7</ele>
        <time>2021-07-07T17:07:56Z</time>
      </trkpt>
      <trkpt lat="43.87146" lon="-1.13686">
        <ele>60.7</ele>
        <time>2021-07-07T17:07:57Z</time>
      </trkpt>
      <trkpt lat="43.87141" lon="-1.13668">
        <ele>60.7</ele>
        <time>2021-07-07T17:07:58Z</time>
      </trkpt>
      <trkpt lat="43.87136" lon="-1.1365">
        <ele>61.18</ele>
        <time>2021-07-07T17:07:59Z</time>
      </trkpt>
      <trkpt lat="43.87084" lon="-1.13521">
        <ele>58.78</ele>
        <time>2021-07-07T17:08:07Z</time>
      </trkpt>
      <trkpt lat="43.8708" lon="-1.13506">
        <ele>58.78</ele>
        <time>2021-07-07T17:08:08Z</time>
      </trkpt>
      <trkpt lat="43.87079" lon="-1.13491">
        <ele>59.74</ele>
        <time>2021-07-07T17:08:09Z</time>
      </trkpt>
      <trkpt lat="43.87075" lon="-1.13443">
        <ele>60.7</ele>
        <time>2021-07-07T17:08:13Z</time>
      </trkpt>
      <trkpt lat="43.87073" lon="-1.13436">
        <ele>60.7</ele>
        <time>2021-07-07T17:08:14Z</time>
      </trkpt>
      <trkpt lat="43.87071" lon="-1.1343">
        <ele>60.22</ele>
        <time>2021-07-07T17:08:23Z</time>
      </trkpt>
      <trkpt lat="43.87057" lon="-1.13411">
        <ele>60.22</ele>
        <time>2021-07-07T17:08:37Z</time>
      </trkpt>
      <trkpt lat="43.87054" lon="-1.13405">
        <ele>60.22</ele>
        <time>2021-07-07T17:08:38Z</time>
      </trkpt>
      <trkpt lat="43.87051" lon="-1.13398">
        <ele>60.22</ele>
        <time>2021-07-07T17:08:39Z</time>
      </trkpt>
      <trkpt lat="43.87051" lon="-1.13398">
        <ele>60.22</ele>
        <time>2021-07-07T17:08:40Z</time>
      </trkpt>
      <trkpt lat="43.87049" lon="-1.13389">
        <ele>60.22</ele>
        <time>2021-07-07T17:08:41Z</time>
      </trkpt>
      <trkpt lat="43.8705" lon="-1.13381">
        <ele>60.22</ele>
        <time>2021-07-07T17:08:42Z</time>
      </trkpt>
      <trkpt lat="43.8705" lon="-1.13373">
        <ele>60.22</ele>
        <time>2021-07-07T17:08:43Z</time>
      </trkpt>
      <trkpt lat="43.87053" lon="-1.13363">
        <ele>60.22</ele>
        <time>2021-07-07T17:08:44Z</time>
      </trkpt>
      <trkpt lat="43.87065" lon="-1.13351">
        <ele>60.22</ele>
        <time>2021-07-07T17:08:45Z</time>
      </trkpt>
      <trkpt lat="43.87065" lon="-1.13351">
        <ele>60.22</ele>
        <time>2021-07-07T17:08:46Z</time>
      </trkpt>
      <trkpt lat="43.87072" lon="-1.13346">
        <ele>60.22</ele>
        <time>2021-07-07T17:08:47Z</time>
      </trkpt>
      <trkpt lat="43.87078" lon="-1.13339">
        <ele>60.22</ele>
        <time>2021-07-07T17:08:48Z</time>
      </trkpt>
      <trkpt lat="43.87083" lon="-1.13331">
        <ele>60.22</ele>
        <time>2021-07-07T17:08:49Z</time>
      </trkpt>
      <trkpt lat="43.87088" lon="-1.1332">
        <ele>60.22</ele>
        <time>2021-07-07T17:08:50Z</time>
      </trkpt>
      <trkpt lat="43.87092" lon="-1.13309">
        <ele>59.74</ele>
        <time>2021-07-07T17:08:51Z</time>
      </trkpt>
      <trkpt lat="43.87152" lon="-1.1318">
        <ele>58.3</ele>
        <time>2021-07-07T17:09:01Z</time>
      </trkpt>
      <trkpt lat="43.87161" lon="-1.13168">
        <ele>57.82</ele>
        <time>2021-07-07T17:09:02Z</time>
      </trkpt>
      <trkpt lat="43.87171" lon="-1.13159">
        <ele>56.86</ele>
        <time>2021-07-07T17:09:03Z</time>
      </trkpt>
      <trkpt lat="43.8719" lon="-1.13147">
        <ele>56.86</ele>
        <time>2021-07-07T17:09:04Z</time>
      </trkpt>
      <trkpt lat="43.872" lon="-1.13143">
        <ele>56.86</ele>
        <time>2021-07-07T17:09:05Z</time>
      </trkpt>
      <trkpt lat="43.872" lon="-1.13143">
        <ele>56.37</ele>
        <time>2021-07-07T17:09:06Z</time>
      </trkpt>
      <trkpt lat="43.87209" lon="-1.13139">
        <ele>55.89</ele>
        <time>2021-07-07T17:09:08Z</time>
      </trkpt>
      <trkpt lat="43.87236" lon="-1.13125">
        <ele>54.93</ele>
        <time>2021-07-07T17:09:09Z</time>
      </trkpt>
      <trkpt lat="43.87241" lon="-1.13115">
        <ele>56.37</ele>
        <time>2021-07-07T17:09:11Z</time>
      </trkpt>
      <trkpt lat="43.87252" lon="-1.1311">
        <ele>55.41</ele>
        <time>2021-07-07T17:09:12Z</time>
      </trkpt>
      <trkpt lat="43.87264" lon="-1.13119">
        <ele>54.93</ele>
        <time>2021-07-07T17:09:13Z</time>
      </trkpt>
      <trkpt lat="43.87264" lon="-1.13119">
        <ele>54.93</ele>
        <time>2021-07-07T17:09:14Z</time>
      </trkpt>
      <trkpt lat="43.87278" lon="-1.13128">
        <ele>55.41</ele>
        <time>2021-07-07T17:09:15Z</time>
      </trkpt>
      <trkpt lat="43.87278" lon="-1.13128">
        <ele>55.41</ele>
        <time>2021-07-07T17:09:16Z</time>
      </trkpt>
      <trkpt lat="43.87286" lon="-1.13131">
        <ele>55.41</ele>
        <time>2021-07-07T17:09:17Z</time>
      </trkpt>
      <trkpt lat="43.87295" lon="-1.13134">
        <ele>55.41</ele>
        <time>2021-07-07T17:09:18Z</time>
      </trkpt>
      <trkpt lat="43.87391" lon="-1.13139">
        <ele>53.49</ele>
        <time>2021-07-07T17:09:26Z</time>
      </trkpt>
      <trkpt lat="43.87535" lon="-1.13118">
        <ele>47.24</ele>
        <time>2021-07-07T17:09:35Z</time>
      </trkpt>
      <trkpt lat="43.87719" lon="-1.13038">
        <ele>48.68</ele>
        <time>2021-07-07T17:09:46Z</time>
      </trkpt>
      <trkpt lat="43.87947" lon="-1.12944">
        <ele>49.65</ele>
        <time>2021-07-07T17:09:59Z</time>
      </trkpt>
      <trkpt lat="43.88078" lon="-1.12924">
        <ele>54.93</ele>
        <time>2021-07-07T17:10:07Z</time>
      </trkpt>
      <trkpt lat="43.88132" lon="-1.12915">
        <ele>56.37</ele>
        <time>2021-07-07T17:10:13Z</time>
      </trkpt>
      <trkpt lat="43.88146" lon="-1.12913">
        <ele>56.37</ele>
        <time>2021-07-07T17:10:18Z</time>
      </trkpt>
      <trkpt lat="43.88148" lon="-1.12912">
        <ele>56.37</ele>
        <time>2021-07-07T17:10:19Z</time>
      </trkpt>
      <trkpt lat="43.88148" lon="-1.12915">
        <ele>56.86</ele>
        <time>2021-07-07T17:10:20Z</time>
      </trkpt>
      <trkpt lat="43.8815" lon="-1.12928">
        <ele>56.86</ele>
        <time>2021-07-07T17:10:21Z</time>
      </trkpt>
      <trkpt lat="43.8815" lon="-1.12928">
        <ele>56.86</ele>
        <time>2021-07-07T17:10:22Z</time>
      </trkpt>
      <trkpt lat="43.88151" lon="-1.12935">
        <ele>56.86</ele>
        <time>2021-07-07T17:10:23Z</time>
      </trkpt>
      <trkpt lat="43.8816" lon="-1.12987">
        <ele>57.82</ele>
        <time>2021-07-07T17:10:29Z</time>
      </trkpt>
      <trkpt lat="43.88163" lon="-1.13006">
        <ele>58.3</ele>
        <time>2021-07-07T17:10:30Z</time>
      </trkpt>
      <trkpt lat="43.88164" lon="-1.13014">
        <ele>57.82</ele>
        <time>2021-07-07T17:10:31Z</time>
      </trkpt>
      <trkpt lat="43.88177" lon="-1.13026">
        <ele>57.82</ele>
        <time>2021-07-07T17:10:32Z</time>
      </trkpt>
      <trkpt lat="43.88222" lon="-1.13064">
        <ele>54.45</ele>
        <time>2021-07-07T17:10:39Z</time>
      </trkpt>
      <trkpt lat="43.88273" lon="-1.13083">
        <ele>46.76</ele>
        <time>2021-07-07T17:10:46Z</time>
      </trkpt>
      <trkpt lat="43.88282" lon="-1.13086">
        <ele>45.8</ele>
        <time>2021-07-07T17:10:47Z</time>
      </trkpt>
      <trkpt lat="43.88323" lon="-1.13089">
        <ele>41.95</ele>
        <time>2021-07-07T17:10:51Z</time>
      </trkpt>
      <trkpt lat="43.88344" lon="-1.13092">
        <ele>42.44</ele>
        <time>2021-07-07T17:10:52Z</time>
      </trkpt>
      <trkpt lat="43.88354" lon="-1.13097">
        <ele>43.4</ele>
        <time>2021-07-07T17:10:53Z</time>
      </trkpt>
      <trkpt lat="43.88471" lon="-1.13151">
        <ele>53.01</ele>
        <time>2021-07-07T17:11:04Z</time>
      </trkpt>
      <trkpt lat="43.88579" lon="-1.13202">
        <ele>50.61</ele>
        <time>2021-07-07T17:11:14Z</time>
      </trkpt>
      <trkpt lat="43.88606" lon="-1.13214">
        <ele>54.45</ele>
        <time>2021-07-07T17:11:22Z</time>
      </trkpt>
      <trkpt lat="43.88609" lon="-1.13216">
        <ele>54.45</ele>
        <time>2021-07-07T17:11:27Z</time>
      </trkpt>
      <trkpt lat="43.88621" lon="-1.13178">
        <ele>54.93</ele>
        <time>2021-07-07T17:11:30Z</time>
      </trkpt>
      <trkpt lat="43.88634" lon="-1.13175">
        <ele>53.49</ele>
        <time>2021-07-07T17:11:34Z</time>
      </trkpt>
      <trkpt lat="43.88673" lon="-1.13207">
        <ele>53.01</ele>
        <time>2021-07-07T17:11:47Z</time>
      </trkpt>
      <trkpt lat="43.88676" lon="-1.13233">
        <ele>52.53</ele>
        <time>2021-07-07T17:11:55Z</time>
      </trkpt>
      <trkpt lat="43.88671" lon="-1.13236">
        <ele>52.53</ele>
        <time>2021-07-07T17:11:56Z</time>
      </trkpt>
      <trkpt lat="43.88671" lon="-1.13236">
        <ele>52.05</ele>
        <time>2021-07-07T17:11:57Z</time>
      </trkpt>
      <trkpt lat="43.88667" lon="-1.13238">
        <ele>52.05</ele>
        <time>2021-07-07T17:11:58Z</time>
      </trkpt>
      <trkpt lat="43.88658" lon="-1.13239">
        <ele>51.57</ele>
        <time>2021-07-07T17:11:59Z</time>
      </trkpt>
      <trkpt lat="43.88658" lon="-1.13239">
        <ele>51.57</ele>
        <time>2021-07-07T17:12:00Z</time>
      </trkpt>
      <trkpt lat="43.88603" lon="-1.13213">
        <ele>53.49</ele>
        <time>2021-07-07T17:12:09Z</time>
      </trkpt>
      <trkpt lat="43.88601" lon="-1.13212">
        <ele>54.45</ele>
        <time>2021-07-07T17:12:10Z</time>
      </trkpt>
      <trkpt lat="43.88601" lon="-1.13212">
        <ele>54.45</ele>
        <time>2021-07-07T17:12:11Z</time>
      </trkpt>
      <trkpt lat="43.88599" lon="-1.13211">
        <ele>54.45</ele>
        <time>2021-07-07T17:12:13Z</time>
      </trkpt>
      <trkpt lat="43.88599" lon="-1.13211">
        <ele>54.45</ele>
        <time>2021-07-07T17:12:14Z</time>
      </trkpt>
      <trkpt lat="43.8861" lon="-1.13216">
        <ele>54.45</ele>
        <time>2021-07-07T17:12:20Z</time>
      </trkpt>
      <trkpt lat="43.88613" lon="-1.13218">
        <ele>53.97</ele>
        <time>2021-07-07T17:12:21Z</time>
      </trkpt>
      <trkpt lat="43.88617" lon="-1.1322">
        <ele>53.97</ele>
        <time>2021-07-07T17:12:22Z</time>
      </trkpt>
      <trkpt lat="43.88626" lon="-1.13223">
        <ele>53.49</ele>
        <time>2021-07-07T17:12:23Z</time>
      </trkpt>
      <trkpt lat="43.88626" lon="-1.13223">
        <ele>53.49</ele>
        <time>2021-07-07T17:12:24Z</time>
      </trkpt>
      <trkpt lat="43.88651" lon="-1.13235">
        <ele>53.01</ele>
        <time>2021-07-07T17:12:32Z</time>
      </trkpt>
      <trkpt lat="43.88653" lon="-1.13236">
        <ele>52.53</ele>
        <time>2021-07-07T17:12:33Z</time>
      </trkpt>
      <trkpt lat="43.88655" lon="-1.13237">
        <ele>52.53</ele>
        <time>2021-07-07T17:12:34Z</time>
      </trkpt>
      <trkpt lat="43.88657" lon="-1.13238">
        <ele>53.49</ele>
        <time>2021-07-07T17:12:48Z</time>
      </trkpt>
      <trkpt lat="43.88657" lon="-1.13238">
        <ele>52.05</ele>
        <time>2021-07-07T17:32:04Z</time>
      </trkpt>
      <trkpt lat="43.88657" lon="-1.13238">
        <ele>51.57</ele>
        <time>2021-07-07T17:38:10Z</time>
      </trkpt>
      <trkpt lat="43.88674" lon="-1.13232">
        <ele>51.57</ele>
        <time>2021-07-07T17:38:23Z</time>
      </trkpt>
      <trkpt lat="43.88648" lon="-1.13234">
        <ele>51.57</ele>
        <time>2021-07-07T17:38:32Z</time>
      </trkpt>
      <trkpt lat="43.88591" lon="-1.13207">
        <ele>52.05</ele>
        <time>2021-07-07T17:38:49Z</time>
      </trkpt>
      <trkpt lat="43.88527" lon="-1.13177">
        <ele>50.61</ele>
        <time>2021-07-07T17:39:00Z</time>
      </trkpt>
      <trkpt lat="43.88415" lon="-1.13125">
        <ele>48.2</ele>
        <time>2021-07-07T17:39:15Z</time>
      </trkpt>
      <trkpt lat="43.88339" lon="-1.1309">
        <ele>43.4</ele>
        <time>2021-07-07T17:39:23Z</time>
      </trkpt>
      <trkpt lat="43.88332" lon="-1.1309">
        <ele>42.92</ele>
        <time>2021-07-07T17:39:24Z</time>
      </trkpt>
      <trkpt lat="43.88324" lon="-1.13089">
        <ele>42.92</ele>
        <time>2021-07-07T17:39:25Z</time>
      </trkpt>
      <trkpt lat="43.88315" lon="-1.13089">
        <ele>44.84</ele>
        <time>2021-07-07T17:39:26Z</time>
      </trkpt>
      <trkpt lat="43.88306" lon="-1.13088">
        <ele>45.8</ele>
        <time>2021-07-07T17:39:27Z</time>
      </trkpt>
      <trkpt lat="43.88297" lon="-1.13087">
        <ele>46.76</ele>
        <time>2021-07-07T17:39:28Z</time>
      </trkpt>
      <trkpt lat="43.88288" lon="-1.13087">
        <ele>47.72</ele>
        <time>2021-07-07T17:39:29Z</time>
      </trkpt>
      <trkpt lat="43.8828" lon="-1.13085">
        <ele>49.16</ele>
        <time>2021-07-07T17:39:30Z</time>
      </trkpt>
      <trkpt lat="43.88272" lon="-1.13082">
        <ele>50.13</ele>
        <time>2021-07-07T17:39:31Z</time>
      </trkpt>
      <trkpt lat="43.88265" lon="-1.1308">
        <ele>50.61</ele>
        <time>2021-07-07T17:39:32Z</time>
      </trkpt>
      <trkpt lat="43.88215" lon="-1.13059">
        <ele>55.41</ele>
        <time>2021-07-07T17:39:39Z</time>
      </trkpt>
      <trkpt lat="43.88208" lon="-1.13054">
        <ele>55.89</ele>
        <time>2021-07-07T17:39:40Z</time>
      </trkpt>
      <trkpt lat="43.88203" lon="-1.1305">
        <ele>56.37</ele>
        <time>2021-07-07T17:39:41Z</time>
      </trkpt>
      <trkpt lat="43.88197" lon="-1.13046">
        <ele>56.86</ele>
        <time>2021-07-07T17:39:42Z</time>
      </trkpt>
      <trkpt lat="43.88191" lon="-1.13042">
        <ele>56.86</ele>
        <time>2021-07-07T17:39:43Z</time>
      </trkpt>
      <trkpt lat="43.88165" lon="-1.13018">
        <ele>54.93</ele>
        <time>2021-07-07T17:39:52Z</time>
      </trkpt>
      <trkpt lat="43.88164" lon="-1.13012">
        <ele>54.93</ele>
        <time>2021-07-07T17:39:53Z</time>
      </trkpt>
      <trkpt lat="43.88163" lon="-1.13008">
        <ele>54.93</ele>
        <time>2021-07-07T17:39:54Z</time>
      </trkpt>
      <trkpt lat="43.88162" lon="-1.13002">
        <ele>54.93</ele>
        <time>2021-07-07T17:39:55Z</time>
      </trkpt>
      <trkpt lat="43.88149" lon="-1.1292">
        <ele>54.93</ele>
        <time>2021-07-07T17:40:04Z</time>
      </trkpt>
      <trkpt lat="43.88131" lon="-1.12806">
        <ele>53.97</ele>
        <time>2021-07-07T17:40:14Z</time>
      </trkpt>
      <trkpt lat="43.88118" lon="-1.12719">
        <ele>57.34</ele>
        <time>2021-07-07T17:40:20Z</time>
      </trkpt>
      <trkpt lat="43.88116" lon="-1.12711">
        <ele>57.82</ele>
        <time>2021-07-07T17:40:21Z</time>
      </trkpt>
      <trkpt lat="43.88115" lon="-1.12704">
        <ele>57.34</ele>
        <time>2021-07-07T17:40:22Z</time>
      </trkpt>
      <trkpt lat="43.88114" lon="-1.12699">
        <ele>56.37</ele>
        <time>2021-07-07T17:40:23Z</time>
      </trkpt>
      <trkpt lat="43.88108" lon="-1.12695">
        <ele>56.37</ele>
        <time>2021-07-07T17:40:24Z</time>
      </trkpt>
      <trkpt lat="43.88103" lon="-1.12696">
        <ele>55.89</ele>
        <time>2021-07-07T17:40:25Z</time>
      </trkpt>
      <trkpt lat="43.88099" lon="-1.12697">
        <ele>55.89</ele>
        <time>2021-07-07T17:40:26Z</time>
      </trkpt>
      <trkpt lat="43.88088" lon="-1.12699">
        <ele>56.86</ele>
        <time>2021-07-07T17:40:29Z</time>
      </trkpt>
      <trkpt lat="43.88085" lon="-1.127">
        <ele>57.34</ele>
        <time>2021-07-07T17:40:30Z</time>
      </trkpt>
      <trkpt lat="43.88083" lon="-1.127">
        <ele>57.34</ele>
        <time>2021-07-07T17:40:31Z</time>
      </trkpt>
      <trkpt lat="43.88084" lon="-1.127">
        <ele>57.82</ele>
        <time>2021-07-07T17:40:33Z</time>
      </trkpt>
      <trkpt lat="43.88086" lon="-1.127">
        <ele>58.3</ele>
        <time>2021-07-07T17:40:34Z</time>
      </trkpt>
      <trkpt lat="43.88089" lon="-1.12699">
        <ele>58.3</ele>
        <time>2021-07-07T17:40:35Z</time>
      </trkpt>
      <trkpt lat="43.88091" lon="-1.12699">
        <ele>58.3</ele>
        <time>2021-07-07T17:40:36Z</time>
      </trkpt>
      <trkpt lat="43.88094" lon="-1.12698">
        <ele>58.3</ele>
        <time>2021-07-07T17:40:37Z</time>
      </trkpt>
      <trkpt lat="43.88096" lon="-1.12698">
        <ele>57.82</ele>
        <time>2021-07-07T17:40:38Z</time>
      </trkpt>
      <trkpt lat="43.88098" lon="-1.12697">
        <ele>57.82</ele>
        <time>2021-07-07T17:40:39Z</time>
      </trkpt>
      <trkpt lat="43.88101" lon="-1.12696">
        <ele>57.82</ele>
        <time>2021-07-07T17:40:40Z</time>
      </trkpt>
      <trkpt lat="43.88103" lon="-1.12696">
        <ele>57.82</ele>
        <time>2021-07-07T17:40:41Z</time>
      </trkpt>
      <trkpt lat="43.88106" lon="-1.12695">
        <ele>57.82</ele>
        <time>2021-07-07T17:40:42Z</time>
      </trkpt>
      <trkpt lat="43.88112" lon="-1.12694">
        <ele>58.78</ele>
        <time>2021-07-07T17:40:55Z</time>
      </trkpt>
      <trkpt lat="43.88114" lon="-1.12697">
        <ele>59.26</ele>
        <time>2021-07-07T17:40:56Z</time>
      </trkpt>
      <trkpt lat="43.88114" lon="-1.12697">
        <ele>59.74</ele>
        <time>2021-07-07T17:40:58Z</time>
      </trkpt>
      <trkpt lat="43.88129" lon="-1.12792">
        <ele>61.66</ele>
        <time>2021-07-07T17:41:07Z</time>
      </trkpt>
      <trkpt lat="43.88146" lon="-1.12904">
        <ele>62.62</ele>
        <time>2021-07-07T17:41:16Z</time>
      </trkpt>
      <trkpt lat="43.88148" lon="-1.12917">
        <ele>61.66</ele>
        <time>2021-07-07T17:41:20Z</time>
      </trkpt>
      <trkpt lat="43.88149" lon="-1.12919">
        <ele>61.18</ele>
        <time>2021-07-07T17:41:21Z</time>
      </trkpt>
      <trkpt lat="43.88144" lon="-1.12913">
        <ele>60.7</ele>
        <time>2021-07-07T17:41:22Z</time>
      </trkpt>
      <trkpt lat="43.88141" lon="-1.12914">
        <ele>60.7</ele>
        <time>2021-07-07T17:41:23Z</time>
      </trkpt>
      <trkpt lat="43.88136" lon="-1.12915">
        <ele>60.7</ele>
        <time>2021-07-07T17:41:24Z</time>
      </trkpt>
      <trkpt lat="43.8813" lon="-1.12916">
        <ele>60.7</ele>
        <time>2021-07-07T17:41:25Z</time>
      </trkpt>
      <trkpt lat="43.88063" lon="-1.12931">
        <ele>58.78</ele>
        <time>2021-07-07T17:41:34Z</time>
      </trkpt>
      <trkpt lat="43.88058" lon="-1.12934">
        <ele>58.3</ele>
        <time>2021-07-07T17:41:35Z</time>
      </trkpt>
      <trkpt lat="43.88056" lon="-1.12938">
        <ele>57.82</ele>
        <time>2021-07-07T17:41:36Z</time>
      </trkpt>
      <trkpt lat="43.8805" lon="-1.12952">
        <ele>57.34</ele>
        <time>2021-07-07T17:41:37Z</time>
      </trkpt>
      <trkpt lat="43.8805" lon="-1.12952">
        <ele>56.86</ele>
        <time>2021-07-07T17:41:38Z</time>
      </trkpt>
      <trkpt lat="43.88048" lon="-1.12959">
        <ele>56.37</ele>
        <time>2021-07-07T17:41:39Z</time>
      </trkpt>
      <trkpt lat="43.88044" lon="-1.12976">
        <ele>55.89</ele>
        <time>2021-07-07T17:41:40Z</time>
      </trkpt>
      <trkpt lat="43.88044" lon="-1.12976">
        <ele>55.41</ele>
        <time>2021-07-07T17:41:41Z</time>
      </trkpt>
      <trkpt lat="43.88043" lon="-1.12994">
        <ele>53.97</ele>
        <time>2021-07-07T17:41:43Z</time>
      </trkpt>
      <trkpt lat="43.88043" lon="-1.13004">
        <ele>53.97</ele>
        <time>2021-07-07T17:41:44Z</time>
      </trkpt>
      <trkpt lat="43.88043" lon="-1.13012">
        <ele>53.97</ele>
        <time>2021-07-07T17:41:45Z</time>
      </trkpt>
      <trkpt lat="43.88046" lon="-1.13021">
        <ele>53.97</ele>
        <time>2021-07-07T17:41:46Z</time>
      </trkpt>
      <trkpt lat="43.88049" lon="-1.13031">
        <ele>53.49</ele>
        <time>2021-07-07T17:41:47Z</time>
      </trkpt>
      <trkpt lat="43.88053" lon="-1.13041">
        <ele>52.53</ele>
        <time>2021-07-07T17:41:48Z</time>
      </trkpt>
      <trkpt lat="43.88059" lon="-1.13046">
        <ele>51.57</ele>
        <time>2021-07-07T17:41:49Z</time>
      </trkpt>
      <trkpt lat="43.88068" lon="-1.13053">
        <ele>50.61</ele>
        <time>2021-07-07T17:41:50Z</time>
      </trkpt>
      <trkpt lat="43.88078" lon="-1.13062">
        <ele>49.65</ele>
        <time>2021-07-07T17:41:51Z</time>
      </trkpt>
      <trkpt lat="43.88088" lon="-1.1307">
        <ele>49.65</ele>
        <time>2021-07-07T17:41:52Z</time>
      </trkpt>
      <trkpt lat="43.881" lon="-1.13076">
        <ele>49.16</ele>
        <time>2021-07-07T17:41:53Z</time>
      </trkpt>
      <trkpt lat="43.88114" lon="-1.13079">
        <ele>50.13</ele>
        <time>2021-07-07T17:41:54Z</time>
      </trkpt>
      <trkpt lat="43.88253" lon="-1.13111">
        <ele>48.68</ele>
        <time>2021-07-07T17:42:03Z</time>
      </trkpt>
      <trkpt lat="43.88444" lon="-1.1317">
        <ele>45.8</ele>
        <time>2021-07-07T17:42:13Z</time>
      </trkpt>
    </trkseg>
  </trk>
  <trk>
    <name><![CDATA[Journal actif: 2021-07-07 15:42]]></name>
    <trkseg>
      <trkpt lat="43.88855" lon="-1.1336">
        <ele>47.72</ele>
        <time>2021-07-07T17:42:33Z</time>
      </trkpt>
      <trkpt lat="43.89065" lon="-1.1342">
        <ele>50.61</ele>
        <time>2021-07-07T17:42:42Z</time>
      </trkpt>
      <trkpt lat="43.89287" lon="-1.13423">
        <ele>53.01</ele>
        <time>2021-07-07T17:42:51Z</time>
      </trkpt>
      <trkpt lat="43.89512" lon="-1.13358">
        <ele>55.89</ele>
        <time>2021-07-07T17:43:00Z</time>
      </trkpt>
      <trkpt lat="43.89754" lon="-1.13209">
        <ele>56.37</ele>
        <time>2021-07-07T17:43:10Z</time>
      </trkpt>
      <trkpt lat="43.90263" lon="-1.12825">
        <ele>60.22</ele>
        <time>2021-07-07T17:43:31Z</time>
      </trkpt>
      <trkpt lat="43.90612" lon="-1.12559">
        <ele>62.14</ele>
        <time>2021-07-07T17:43:46Z</time>
      </trkpt>
      <trkpt lat="43.91106" lon="-1.12184">
        <ele>65.03</ele>
        <time>2021-07-07T17:44:07Z</time>
      </trkpt>
      <trkpt lat="43.91603" lon="-1.11811">
        <ele>67.43</ele>
        <time>2021-07-07T17:44:28Z</time>
      </trkpt>
      <trkpt lat="43.91907" lon="-1.11562">
        <ele>68.39</ele>
        <time>2021-07-07T17:44:43Z</time>
      </trkpt>
      <trkpt lat="43.921" lon="-1.11333">
        <ele>67.91</ele>
        <time>2021-07-07T17:44:53Z</time>
      </trkpt>
      <trkpt lat="43.92408" lon="-1.10908">
        <ele>70.79</ele>
        <time>2021-07-07T17:45:10Z</time>
      </trkpt>
      <trkpt lat="43.92736" lon="-1.10461">
        <ele>73.2</ele>
        <time>2021-07-07T17:45:28Z</time>
      </trkpt>
      <trkpt lat="43.93019" lon="-1.10073">
        <ele>73.2</ele>
        <time>2021-07-07T17:45:44Z</time>
      </trkpt>
      <trkpt lat="43.93234" lon="-1.0978">
        <ele>72.72</ele>
        <time>2021-07-07T17:45:57Z</time>
      </trkpt>
      <trkpt lat="43.93486" lon="-1.09434">
        <ele>74.64</ele>
        <time>2021-07-07T17:46:11Z</time>
      </trkpt>
      <trkpt lat="43.9385" lon="-1.08941">
        <ele>77.52</ele>
        <time>2021-07-07T17:46:30Z</time>
      </trkpt>
      <trkpt lat="43.94185" lon="-1.08477">
        <ele>79.45</ele>
        <time>2021-07-07T17:46:48Z</time>
      </trkpt>
      <trkpt lat="43.94464" lon="-1.08097">
        <ele>79.45</ele>
        <time>2021-07-07T17:47:03Z</time>
      </trkpt>
      <trkpt lat="43.94807" lon="-1.07629">
        <ele>81.37</ele>
        <time>2021-07-07T17:47:21Z</time>
      </trkpt>
      <trkpt lat="43.95213" lon="-1.07076">
        <ele>81.85</ele>
        <time>2021-07-07T17:47:42Z</time>
      </trkpt>
      <trkpt lat="43.95484" lon="-1.06734">
        <ele>81.37</ele>
        <time>2021-07-07T17:47:57Z</time>
      </trkpt>
      <trkpt lat="43.95675" lon="-1.06584">
        <ele>80.89</ele>
        <time>2021-07-07T17:48:05Z</time>
      </trkpt>
      <trkpt lat="43.95903" lon="-1.06483">
        <ele>78.48</ele>
        <time>2021-07-07T17:48:14Z</time>
      </trkpt>
      <trkpt lat="43.96116" lon="-1.06453">
        <ele>77.52</ele>
        <time>2021-07-07T17:48:22Z</time>
      </trkpt>
      <trkpt lat="43.96659" lon="-1.06434">
        <ele>77.52</ele>
        <time>2021-07-07T17:48:42Z</time>
      </trkpt>
      <trkpt lat="43.96952" lon="-1.06372">
        <ele>78.97</ele>
        <time>2021-07-07T17:48:52Z</time>
      </trkpt>
      <trkpt lat="43.97157" lon="-1.06256">
        <ele>79.45</ele>
        <time>2021-07-07T17:49:00Z</time>
      </trkpt>
      <trkpt lat="43.97321" lon="-1.06103">
        <ele>79.93</ele>
        <time>2021-07-07T17:49:08Z</time>
      </trkpt>
      <trkpt lat="43.97481" lon="-1.05878">
        <ele>81.37</ele>
        <time>2021-07-07T17:49:16Z</time>
      </trkpt>
      <trkpt lat="43.97621" lon="-1.05571">
        <ele>82.81</ele>
        <time>2021-07-07T17:49:25Z</time>
      </trkpt>
      <trkpt lat="43.97785" lon="-1.05239">
        <ele>82.81</ele>
        <time>2021-07-07T17:49:35Z</time>
      </trkpt>
      <trkpt lat="43.97955" lon="-1.05016">
        <ele>83.29</ele>
        <time>2021-07-07T17:49:43Z</time>
      </trkpt>
      <trkpt lat="43.98307" lon="-1.04709">
        <ele>83.29</ele>
        <time>2021-07-07T17:49:57Z</time>
      </trkpt>
      <trkpt lat="43.98827" lon="-1.04273">
        <ele>83.77</ele>
        <time>2021-07-07T17:50:18Z</time>
      </trkpt>
      <trkpt lat="43.99236" lon="-1.03928">
        <ele>84.73</ele>
        <time>2021-07-07T17:50:35Z</time>
      </trkpt>
      <trkpt lat="43.99594" lon="-1.03626">
        <ele>84.73</ele>
        <time>2021-07-07T17:50:50Z</time>
      </trkpt>
      <trkpt lat="44.00044" lon="-1.03247">
        <ele>86.18</ele>
        <time>2021-07-07T17:51:08Z</time>
      </trkpt>
      <trkpt lat="44.0065" lon="-1.02735">
        <ele>83.29</ele>
        <time>2021-07-07T17:51:32Z</time>
      </trkpt>
      <trkpt lat="44.01243" lon="-1.02236">
        <ele>82.33</ele>
        <time>2021-07-07T17:51:56Z</time>
      </trkpt>
      <trkpt lat="44.01661" lon="-1.01861">
        <ele>81.37</ele>
        <time>2021-07-07T17:52:13Z</time>
      </trkpt>
      <trkpt lat="44.01904" lon="-1.01652">
        <ele>80.89</ele>
        <time>2021-07-07T17:52:23Z</time>
      </trkpt>
      <trkpt lat="44.0212" lon="-1.01549">
        <ele>78.97</ele>
        <time>2021-07-07T17:52:31Z</time>
      </trkpt>
      <trkpt lat="44.02375" lon="-1.01508">
        <ele>78</ele>
        <time>2021-07-07T17:52:39Z</time>
      </trkpt>
      <trkpt lat="44.02606" lon="-1.01544">
        <ele>76.08</ele>
        <time>2021-07-07T17:52:48Z</time>
      </trkpt>
      <trkpt lat="44.03208" lon="-1.01683">
        <ele>75.6</ele>
        <time>2021-07-07T17:53:09Z</time>
      </trkpt>
      <trkpt lat="44.03438" lon="-1.01681">
        <ele>73.2</ele>
        <time>2021-07-07T17:53:17Z</time>
      </trkpt>
      <trkpt lat="44.03669" lon="-1.0161">
        <ele>73.2</ele>
        <time>2021-07-07T17:53:25Z</time>
      </trkpt>
      <trkpt lat="44.04001" lon="-1.01419">
        <ele>64.55</ele>
        <time>2021-07-07T17:53:37Z</time>
      </trkpt>
      <trkpt lat="44.04437" lon="-1.01161">
        <ele>62.62</ele>
        <time>2021-07-07T17:53:53Z</time>
      </trkpt>
      <trkpt lat="44.05145" lon="-1.00741">
        <ele>63.1</ele>
        <time>2021-07-07T17:54:18Z</time>
      </trkpt>
      <trkpt lat="44.05552" lon="-1.00518">
        <ele>67.43</ele>
        <time>2021-07-07T17:54:34Z</time>
      </trkpt>
      <trkpt lat="44.05785" lon="-1.00473">
        <ele>68.87</ele>
        <time>2021-07-07T17:54:42Z</time>
      </trkpt>
      <trkpt lat="44.06051" lon="-1.00498">
        <ele>68.39</ele>
        <time>2021-07-07T17:54:51Z</time>
      </trkpt>
      <trkpt lat="44.06557" lon="-1.00572">
        <ele>67.91</ele>
        <time>2021-07-07T17:55:08Z</time>
      </trkpt>
      <trkpt lat="44.07099" lon="-1.0054">
        <ele>65.03</ele>
        <time>2021-07-07T17:55:26Z</time>
      </trkpt>
      <trkpt lat="44.07555" lon="-1.00488">
        <ele>70.31</ele>
        <time>2021-07-07T17:55:42Z</time>
      </trkpt>
      <trkpt lat="44.07885" lon="-1.00358">
        <ele>69.35</ele>
        <time>2021-07-07T17:55:54Z</time>
      </trkpt>
      <trkpt lat="44.08635" lon="-1.00036">
        <ele>69.35</ele>
        <time>2021-07-07T17:56:21Z</time>
      </trkpt>
      <trkpt lat="44.09583" lon="-0.99624">
        <ele>71.27</ele>
        <time>2021-07-07T17:56:55Z</time>
      </trkpt>
      <trkpt lat="44.10306" lon="-0.9931">
        <ele>72.72</ele>
        <time>2021-07-07T17:57:21Z</time>
      </trkpt>
      <trkpt lat="44.11063" lon="-0.98978">
        <ele>73.68</ele>
        <time>2021-07-07T17:57:47Z</time>
      </trkpt>
      <trkpt lat="44.11654" lon="-0.9872">
        <ele>73.2</ele>
        <time>2021-07-07T17:58:09Z</time>
      </trkpt>
      <trkpt lat="44.12217" lon="-0.98473">
        <ele>71.27</ele>
        <time>2021-07-07T17:58:29Z</time>
      </trkpt>
      <trkpt lat="44.12777" lon="-0.98228">
        <ele>71.27</ele>
        <time>2021-07-07T17:58:49Z</time>
      </trkpt>
      <trkpt lat="44.13251" lon="-0.98018">
        <ele>69.83</ele>
        <time>2021-07-07T17:59:08Z</time>
      </trkpt>
      <trkpt lat="44.13481" lon="-0.97867">
        <ele>72.72</ele>
        <time>2021-07-07T17:59:17Z</time>
      </trkpt>
      <trkpt lat="44.13711" lon="-0.97637">
        <ele>73.68</ele>
        <time>2021-07-07T17:59:26Z</time>
      </trkpt>
      <trkpt lat="44.14075" lon="-0.97227">
        <ele>71.76</ele>
        <time>2021-07-07T17:59:44Z</time>
      </trkpt>
      <trkpt lat="44.14304" lon="-0.97054">
        <ele>69.83</ele>
        <time>2021-07-07T17:59:53Z</time>
      </trkpt>
      <trkpt lat="44.14593" lon="-0.96843">
        <ele>70.79</ele>
        <time>2021-07-07T18:00:04Z</time>
      </trkpt>
      <trkpt lat="44.14772" lon="-0.96626">
        <ele>73.2</ele>
        <time>2021-07-07T18:00:12Z</time>
      </trkpt>
      <trkpt lat="44.15004" lon="-0.96259">
        <ele>71.76</ele>
        <time>2021-07-07T18:00:24Z</time>
      </trkpt>
      <trkpt lat="44.15188" lon="-0.96053">
        <ele>74.16</ele>
        <time>2021-07-07T18:00:32Z</time>
      </trkpt>
      <trkpt lat="44.1543" lon="-0.95888">
        <ele>74.64</ele>
        <time>2021-07-07T18:00:41Z</time>
      </trkpt>
      <trkpt lat="44.16019" lon="-0.95533">
        <ele>72.72</ele>
        <time>2021-07-07T18:01:02Z</time>
      </trkpt>
      <trkpt lat="44.16488" lon="-0.95254">
        <ele>71.76</ele>
        <time>2021-07-07T18:01:21Z</time>
      </trkpt>
      <trkpt lat="44.17022" lon="-0.94937">
        <ele>70.79</ele>
        <time>2021-07-07T18:01:42Z</time>
      </trkpt>
      <trkpt lat="44.17517" lon="-0.94642">
        <ele>70.79</ele>
        <time>2021-07-07T18:02:01Z</time>
      </trkpt>
      <trkpt lat="44.18173" lon="-0.94253">
        <ele>69.83</ele>
        <time>2021-07-07T18:02:25Z</time>
      </trkpt>
      <trkpt lat="44.18644" lon="-0.93971">
        <ele>70.79</ele>
        <time>2021-07-07T18:02:44Z</time>
      </trkpt>
      <trkpt lat="44.19263" lon="-0.93601">
        <ele>68.87</ele>
        <time>2021-07-07T18:03:07Z</time>
      </trkpt>
      <trkpt lat="44.19749" lon="-0.93311">
        <ele>68.87</ele>
        <time>2021-07-07T18:03:25Z</time>
      </trkpt>
      <trkpt lat="44.20257" lon="-0.93007">
        <ele>72.24</ele>
        <time>2021-07-07T18:03:44Z</time>
      </trkpt>
      <trkpt lat="44.20689" lon="-0.92764">
        <ele>69.35</ele>
        <time>2021-07-07T18:04:00Z</time>
      </trkpt>
      <trkpt lat="44.20946" lon="-0.92685">
        <ele>66.47</ele>
        <time>2021-07-07T18:04:09Z</time>
      </trkpt>
    </trkseg>
  </trk>
  <trk>
    <name><![CDATA[Journal actif: 2021-07-07 16:04]]></name>
    <trkseg>
      <trkpt lat="44.21552" lon="-0.92562">
        <ele>65.51</ele>
        <time>2021-07-07T18:04:29Z</time>
      </trkpt>
      <trkpt lat="44.2183" lon="-0.92467">
        <ele>70.79</ele>
        <time>2021-07-07T18:04:40Z</time>
      </trkpt>
      <trkpt lat="44.22085" lon="-0.92299">
        <ele>72.72</ele>
        <time>2021-07-07T18:04:49Z</time>
      </trkpt>
      <trkpt lat="44.22269" lon="-0.92113">
        <ele>68.39</ele>
        <time>2021-07-07T18:04:58Z</time>
      </trkpt>
      <trkpt lat="44.22477" lon="-0.91809">
        <ele>65.03</ele>
        <time>2021-07-07T18:05:08Z</time>
      </trkpt>
      <trkpt lat="44.22748" lon="-0.9143">
        <ele>66.95</ele>
        <time>2021-07-07T18:05:21Z</time>
      </trkpt>
      <trkpt lat="44.22975" lon="-0.91228">
        <ele>64.55</ele>
        <time>2021-07-07T18:05:30Z</time>
      </trkpt>
      <trkpt lat="44.23221" lon="-0.91092">
        <ele>67.43</ele>
        <time>2021-07-07T18:05:38Z</time>
      </trkpt>
      <trkpt lat="44.2364" lon="-0.90929">
        <ele>66.95</ele>
        <time>2021-07-07T18:05:54Z</time>
      </trkpt>
      <trkpt lat="44.24291" lon="-0.9068">
        <ele>68.87</ele>
        <time>2021-07-07T18:06:17Z</time>
      </trkpt>
      <trkpt lat="44.24841" lon="-0.90471">
        <ele>69.35</ele>
        <time>2021-07-07T18:06:36Z</time>
      </trkpt>
      <trkpt lat="44.25262" lon="-0.90312">
        <ele>69.83</ele>
        <time>2021-07-07T18:06:53Z</time>
      </trkpt>
      <trkpt lat="44.25751" lon="-0.90127">
        <ele>69.35</ele>
        <time>2021-07-07T18:07:12Z</time>
      </trkpt>
      <trkpt lat="44.26249" lon="-0.89941">
        <ele>69.83</ele>
        <time>2021-07-07T18:07:31Z</time>
      </trkpt>
      <trkpt lat="44.26692" lon="-0.89776">
        <ele>68.39</ele>
        <time>2021-07-07T18:07:48Z</time>
      </trkpt>
      <trkpt lat="44.2737" lon="-0.89523">
        <ele>67.43</ele>
        <time>2021-07-07T18:08:13Z</time>
      </trkpt>
      <trkpt lat="44.27952" lon="-0.89306">
        <ele>65.99</ele>
        <time>2021-07-07T18:08:35Z</time>
      </trkpt>
      <trkpt lat="44.28498" lon="-0.89103">
        <ele>66.47</ele>
        <time>2021-07-07T18:08:55Z</time>
      </trkpt>
      <trkpt lat="44.29172" lon="-0.88851">
        <ele>65.51</ele>
        <time>2021-07-07T18:09:20Z</time>
      </trkpt>
      <trkpt lat="44.29766" lon="-0.88629">
        <ele>64.55</ele>
        <time>2021-07-07T18:09:42Z</time>
      </trkpt>
      <trkpt lat="44.30296" lon="-0.88432">
        <ele>63.58</ele>
        <time>2021-07-07T18:10:01Z</time>
      </trkpt>
      <trkpt lat="44.30745" lon="-0.88265">
        <ele>63.1</ele>
        <time>2021-07-07T18:10:17Z</time>
      </trkpt>
      <trkpt lat="44.31057" lon="-0.88179">
        <ele>64.07</ele>
        <time>2021-07-07T18:10:27Z</time>
      </trkpt>
      <trkpt lat="44.3132" lon="-0.88173">
        <ele>63.1</ele>
        <time>2021-07-07T18:10:37Z</time>
      </trkpt>
      <trkpt lat="44.31677" lon="-0.8821">
        <ele>62.62</ele>
        <time>2021-07-07T18:10:49Z</time>
      </trkpt>
      <trkpt lat="44.3191" lon="-0.88167">
        <ele>60.7</ele>
        <time>2021-07-07T18:10:57Z</time>
      </trkpt>
      <trkpt lat="44.32134" lon="-0.88053">
        <ele>61.18</ele>
        <time>2021-07-07T18:11:05Z</time>
      </trkpt>
      <trkpt lat="44.32332" lon="-0.87871">
        <ele>62.14</ele>
        <time>2021-07-07T18:11:13Z</time>
      </trkpt>
      <trkpt lat="44.32526" lon="-0.87605">
        <ele>60.7</ele>
        <time>2021-07-07T18:11:22Z</time>
      </trkpt>
      <trkpt lat="44.32754" lon="-0.87328">
        <ele>60.22</ele>
        <time>2021-07-07T18:11:32Z</time>
      </trkpt>
      <trkpt lat="44.33016" lon="-0.87109">
        <ele>59.74</ele>
        <time>2021-07-07T18:11:41Z</time>
      </trkpt>
      <trkpt lat="44.33451" lon="-0.86828">
        <ele>58.3</ele>
        <time>2021-07-07T18:11:58Z</time>
      </trkpt>
      <trkpt lat="44.34073" lon="-0.86428">
        <ele>59.74</ele>
        <time>2021-07-07T18:12:22Z</time>
      </trkpt>
      <trkpt lat="44.3439" lon="-0.86222">
        <ele>60.22</ele>
        <time>2021-07-07T18:12:36Z</time>
      </trkpt>
      <trkpt lat="44.34571" lon="-0.86099">
        <ele>61.66</ele>
        <time>2021-07-07T18:12:45Z</time>
      </trkpt>
      <trkpt lat="44.34664" lon="-0.86041">
        <ele>62.14</ele>
        <time>2021-07-07T18:12:53Z</time>
      </trkpt>
      <trkpt lat="44.34699" lon="-0.86019">
        <ele>64.07</ele>
        <time>2021-07-07T18:12:59Z</time>
      </trkpt>
      <trkpt lat="44.34702" lon="-0.86017">
        <ele>64.55</ele>
        <time>2021-07-07T18:13:00Z</time>
      </trkpt>
      <trkpt lat="44.34705" lon="-0.86015">
        <ele>65.03</ele>
        <time>2021-07-07T18:13:01Z</time>
      </trkpt>
      <trkpt lat="44.34766" lon="-0.85972">
        <ele>63.58</ele>
        <time>2021-07-07T18:13:07Z</time>
      </trkpt>
      <trkpt lat="44.34869" lon="-0.85907">
        <ele>61.18</ele>
        <time>2021-07-07T18:13:15Z</time>
      </trkpt>
      <trkpt lat="44.35043" lon="-0.85797">
        <ele>59.74</ele>
        <time>2021-07-07T18:13:24Z</time>
      </trkpt>
      <trkpt lat="44.35339" lon="-0.85606">
        <ele>58.3</ele>
        <time>2021-07-07T18:13:37Z</time>
      </trkpt>
      <trkpt lat="44.35722" lon="-0.8536">
        <ele>56.86</ele>
        <time>2021-07-07T18:13:52Z</time>
      </trkpt>
      <trkpt lat="44.3624" lon="-0.85023">
        <ele>53.97</ele>
        <time>2021-07-07T18:14:11Z</time>
      </trkpt>
      <trkpt lat="44.36832" lon="-0.84638">
        <ele>52.05</ele>
        <time>2021-07-07T18:14:33Z</time>
      </trkpt>
      <trkpt lat="44.37437" lon="-0.8425">
        <ele>49.16</ele>
        <time>2021-07-07T18:15:14Z</time>
      </trkpt>
      <trkpt lat="44.37986" lon="-0.83892">
        <ele>47.24</ele>
        <time>2021-07-07T18:15:35Z</time>
      </trkpt>
      <trkpt lat="44.38453" lon="-0.83592">
        <ele>44.84</ele>
        <time>2021-07-07T18:15:53Z</time>
      </trkpt>
      <trkpt lat="44.38776" lon="-0.83417">
        <ele>43.4</ele>
        <time>2021-07-07T18:16:05Z</time>
      </trkpt>
      <trkpt lat="44.39039" lon="-0.83256">
        <ele>44.84</ele>
        <time>2021-07-07T18:16:15Z</time>
      </trkpt>
      <trkpt lat="44.39247" lon="-0.83038">
        <ele>42.92</ele>
        <time>2021-07-07T18:16:24Z</time>
      </trkpt>
      <trkpt lat="44.3963" lon="-0.82512">
        <ele>41.47</ele>
        <time>2021-07-07T18:16:42Z</time>
      </trkpt>
      <trkpt lat="44.39963" lon="-0.82088">
        <ele>39.55</ele>
        <time>2021-07-07T18:16:57Z</time>
      </trkpt>
      <trkpt lat="44.40176" lon="-0.81929">
        <ele>39.55</ele>
        <time>2021-07-07T18:17:05Z</time>
      </trkpt>
      <trkpt lat="44.4038" lon="-0.81845">
        <ele>40.03</ele>
        <time>2021-07-07T18:17:12Z</time>
      </trkpt>
      <trkpt lat="44.40624" lon="-0.81822">
        <ele>40.03</ele>
        <time>2021-07-07T18:17:20Z</time>
      </trkpt>
      <trkpt lat="44.40954" lon="-0.81879">
        <ele>39.55</ele>
        <time>2021-07-07T18:17:31Z</time>
      </trkpt>
      <trkpt lat="44.41323" lon="-0.81956">
        <ele>39.55</ele>
        <time>2021-07-07T18:17:44Z</time>
      </trkpt>
      <trkpt lat="44.41802" lon="-0.82041">
        <ele>39.55</ele>
        <time>2021-07-07T18:18:01Z</time>
      </trkpt>
      <trkpt lat="44.42028" lon="-0.82016">
        <ele>39.55</ele>
        <time>2021-07-07T18:18:09Z</time>
      </trkpt>
      <trkpt lat="44.42333" lon="-0.81899">
        <ele>38.11</ele>
        <time>2021-07-07T18:18:20Z</time>
      </trkpt>
      <trkpt lat="44.42853" lon="-0.81683">
        <ele>36.67</ele>
        <time>2021-07-07T18:18:39Z</time>
      </trkpt>
      <trkpt lat="44.43111" lon="-0.81574">
        <ele>37.15</ele>
        <time>2021-07-07T18:18:49Z</time>
      </trkpt>
      <trkpt lat="44.43496" lon="-0.81413">
        <ele>34.26</ele>
        <time>2021-07-07T18:19:03Z</time>
      </trkpt>
      <trkpt lat="44.44082" lon="-0.81171">
        <ele>36.19</ele>
        <time>2021-07-07T18:19:25Z</time>
      </trkpt>
      <trkpt lat="44.44366" lon="-0.81076">
        <ele>36.19</ele>
        <time>2021-07-07T18:19:37Z</time>
      </trkpt>
      <trkpt lat="44.44685" lon="-0.80935">
        <ele>34.26</ele>
        <time>2021-07-07T18:19:52Z</time>
      </trkpt>
      <trkpt lat="44.45056" lon="-0.8078">
        <ele>32.82</ele>
        <time>2021-07-07T18:20:09Z</time>
      </trkpt>
      <trkpt lat="44.45619" lon="-0.80542">
        <ele>31.38</ele>
        <time>2021-07-07T18:20:34Z</time>
      </trkpt>
      <trkpt lat="44.46071" lon="-0.80352">
        <ele>30.9</ele>
        <time>2021-07-07T18:20:55Z</time>
      </trkpt>
      <trkpt lat="44.46426" lon="-0.80199">
        <ele>22.73</ele>
        <time>2021-07-07T18:21:11Z</time>
      </trkpt>
      <trkpt lat="44.46848" lon="-0.80022">
        <ele>20.81</ele>
        <time>2021-07-07T18:21:29Z</time>
      </trkpt>
      <trkpt lat="44.47161" lon="-0.79883">
        <ele>19.36</ele>
        <time>2021-07-07T18:21:43Z</time>
      </trkpt>
      <trkpt lat="44.4735" lon="-0.79751">
        <ele>16.48</ele>
        <time>2021-07-07T18:21:53Z</time>
      </trkpt>
      <trkpt lat="44.47404" lon="-0.79695">
        <ele>17.44</ele>
        <time>2021-07-07T18:21:57Z</time>
      </trkpt>
      <trkpt lat="44.47415" lon="-0.79679">
        <ele>17.44</ele>
        <time>2021-07-07T18:21:58Z</time>
      </trkpt>
      <trkpt lat="44.47425" lon="-0.79662">
        <ele>17.44</ele>
        <time>2021-07-07T18:21:59Z</time>
      </trkpt>
      <trkpt lat="44.47433" lon="-0.79642">
        <ele>17.44</ele>
        <time>2021-07-07T18:22:00Z</time>
      </trkpt>
      <trkpt lat="44.4744" lon="-0.79623">
        <ele>17.92</ele>
        <time>2021-07-07T18:22:01Z</time>
      </trkpt>
      <trkpt lat="44.47444" lon="-0.79601">
        <ele>17.92</ele>
        <time>2021-07-07T18:22:02Z</time>
      </trkpt>
      <trkpt lat="44.47448" lon="-0.7958">
        <ele>18.88</ele>
        <time>2021-07-07T18:22:03Z</time>
      </trkpt>
      <trkpt lat="44.4745" lon="-0.79559">
        <ele>19.84</ele>
        <time>2021-07-07T18:22:04Z</time>
      </trkpt>
      <trkpt lat="44.47451" lon="-0.79537">
        <ele>19.36</ele>
        <time>2021-07-07T18:22:05Z</time>
      </trkpt>
      <trkpt lat="44.47458" lon="-0.79414">
        <ele>18.4</ele>
        <time>2021-07-07T18:22:11Z</time>
      </trkpt>
      <trkpt lat="44.47463" lon="-0.79398">
        <ele>17.92</ele>
        <time>2021-07-07T18:22:12Z</time>
      </trkpt>
      <trkpt lat="44.47469" lon="-0.7938">
        <ele>17.92</ele>
        <time>2021-07-07T18:22:13Z</time>
      </trkpt>
      <trkpt lat="44.47475" lon="-0.79361">
        <ele>17.44</ele>
        <time>2021-07-07T18:22:14Z</time>
      </trkpt>
      <trkpt lat="44.47483" lon="-0.79345">
        <ele>16.48</ele>
        <time>2021-07-07T18:22:15Z</time>
      </trkpt>
      <trkpt lat="44.47493" lon="-0.79328">
        <ele>16</ele>
        <time>2021-07-07T18:22:16Z</time>
      </trkpt>
      <trkpt lat="44.47617" lon="-0.79192">
        <ele>16.48</ele>
        <time>2021-07-07T18:22:25Z</time>
      </trkpt>
      <trkpt lat="44.47652" lon="-0.79175">
        <ele>16.96</ele>
        <time>2021-07-07T18:22:27Z</time>
      </trkpt>
      <trkpt lat="44.47671" lon="-0.79166">
        <ele>16.96</ele>
        <time>2021-07-07T18:22:28Z</time>
      </trkpt>
      <trkpt lat="44.47691" lon="-0.79164">
        <ele>17.44</ele>
        <time>2021-07-07T18:22:29Z</time>
      </trkpt>
      <trkpt lat="44.47915" lon="-0.7918">
        <ele>19.36</ele>
        <time>2021-07-07T18:22:40Z</time>
      </trkpt>
      <trkpt lat="44.48019" lon="-0.79208">
        <ele>21.77</ele>
        <time>2021-07-07T18:22:45Z</time>
      </trkpt>
      <trkpt lat="44.48183" lon="-0.793">
        <ele>24.17</ele>
        <time>2021-07-07T18:22:54Z</time>
      </trkpt>
      <trkpt lat="44.48311" lon="-0.79317">
        <ele>29.46</ele>
        <time>2021-07-07T18:23:01Z</time>
      </trkpt>
      <trkpt lat="44.48508" lon="-0.79291">
        <ele>32.34</ele>
        <time>2021-07-07T18:23:12Z</time>
      </trkpt>
      <trkpt lat="44.48674" lon="-0.79247">
        <ele>31.86</ele>
        <time>2021-07-07T18:23:22Z</time>
      </trkpt>
      <trkpt lat="44.49041" lon="-0.79106">
        <ele>31.86</ele>
        <time>2021-07-07T18:23:45Z</time>
      </trkpt>
      <trkpt lat="44.49111" lon="-0.79086">
        <ele>30.9</ele>
        <time>2021-07-07T18:23:50Z</time>
      </trkpt>
      <trkpt lat="44.49123" lon="-0.79085">
        <ele>30.42</ele>
        <time>2021-07-07T18:23:51Z</time>
      </trkpt>
      <trkpt lat="44.49136" lon="-0.79089">
        <ele>29.46</ele>
        <time>2021-07-07T18:23:52Z</time>
      </trkpt>
      <trkpt lat="44.49148" lon="-0.79096">
        <ele>28.5</ele>
        <time>2021-07-07T18:23:53Z</time>
      </trkpt>
      <trkpt lat="44.49159" lon="-0.79104">
        <ele>28.02</ele>
        <time>2021-07-07T18:23:54Z</time>
      </trkpt>
      <trkpt lat="44.4917" lon="-0.79112">
        <ele>29.46</ele>
        <time>2021-07-07T18:23:55Z</time>
      </trkpt>
      <trkpt lat="44.49226" lon="-0.79152">
        <ele>28.02</ele>
        <time>2021-07-07T18:23:40Z</time>
      </trkpt>
      <trkpt lat="44.49237" lon="-0.79156">
        <ele>28.5</ele>
        <time>2021-07-07T18:23:41Z</time>
      </trkpt>
      <trkpt lat="44.49279" lon="-0.7917">
        <ele>29.94</ele>
        <time>2021-07-07T18:23:48Z</time>
      </trkpt>
      <trkpt lat="44.49292" lon="-0.79172">
        <ele>30.42</ele>
        <time>2021-07-07T18:23:50Z</time>
      </trkpt>
      <trkpt lat="44.49298" lon="-0.79172">
        <ele>30.42</ele>
        <time>2021-07-07T18:23:51Z</time>
      </trkpt>
      <trkpt lat="44.49305" lon="-0.79171">
        <ele>30.42</ele>
        <time>2021-07-07T18:23:52Z</time>
      </trkpt>
      <trkpt lat="44.49376" lon="-0.79148">
        <ele>29.46</ele>
        <time>2021-07-07T18:24:00Z</time>
      </trkpt>
      <trkpt lat="44.49384" lon="-0.79144">
        <ele>29.94</ele>
        <time>2021-07-07T18:24:01Z</time>
      </trkpt>
      <trkpt lat="44.49384" lon="-0.79144">
        <ele>29.94</ele>
        <time>2021-07-07T18:24:02Z</time>
      </trkpt>
      <trkpt lat="44.49391" lon="-0.79137">
        <ele>29.94</ele>
        <time>2021-07-07T18:24:03Z</time>
      </trkpt>
      <trkpt lat="44.49399" lon="-0.7913">
        <ele>29.94</ele>
        <time>2021-07-07T18:24:04Z</time>
      </trkpt>
      <trkpt lat="44.49406" lon="-0.79123">
        <ele>29.94</ele>
        <time>2021-07-07T18:24:05Z</time>
      </trkpt>
      <trkpt lat="44.49414" lon="-0.79116">
        <ele>29.46</ele>
        <time>2021-07-07T18:24:06Z</time>
      </trkpt>
      <trkpt lat="44.49422" lon="-0.79106">
        <ele>29.46</ele>
        <time>2021-07-07T18:24:07Z</time>
      </trkpt>
      <trkpt lat="44.4943" lon="-0.79096">
        <ele>30.42</ele>
        <time>2021-07-07T18:24:08Z</time>
      </trkpt>
      <trkpt lat="44.49523" lon="-0.78996">
        <ele>32.34</ele>
        <time>2021-07-07T18:24:17Z</time>
      </trkpt>
      <trkpt lat="44.49536" lon="-0.78988">
        <ele>33.3</ele>
        <time>2021-07-07T18:24:18Z</time>
      </trkpt>
      <trkpt lat="44.4955" lon="-0.7898">
        <ele>33.3</ele>
        <time>2021-07-07T18:24:19Z</time>
      </trkpt>
      <trkpt lat="44.49565" lon="-0.78975">
        <ele>33.78</ele>
        <time>2021-07-07T18:24:20Z</time>
      </trkpt>
      <trkpt lat="44.49595" lon="-0.7897">
        <ele>35.23</ele>
        <time>2021-07-07T18:24:21Z</time>
      </trkpt>
      <trkpt lat="44.49595" lon="-0.7897">
        <ele>35.23</ele>
        <time>2021-07-07T18:24:22Z</time>
      </trkpt>
      <trkpt lat="44.4961" lon="-0.78972">
        <ele>34.74</ele>
        <time>2021-07-07T18:24:23Z</time>
      </trkpt>
      <trkpt lat="44.49626" lon="-0.78975">
        <ele>35.71</ele>
        <time>2021-07-07T18:24:24Z</time>
      </trkpt>
      <trkpt lat="44.49642" lon="-0.78983">
        <ele>37.63</ele>
        <time>2021-07-07T18:24:25Z</time>
      </trkpt>
      <trkpt lat="44.49657" lon="-0.7899">
        <ele>39.55</ele>
        <time>2021-07-07T18:24:26Z</time>
      </trkpt>
      <trkpt lat="44.49671" lon="-0.78998">
        <ele>40.99</ele>
        <time>2021-07-07T18:24:27Z</time>
      </trkpt>
      <trkpt lat="44.49758" lon="-0.79043">
        <ele>45.32</ele>
        <time>2021-07-07T18:24:33Z</time>
      </trkpt>
      <trkpt lat="44.49774" lon="-0.79048">
        <ele>44.84</ele>
        <time>2021-07-07T18:24:34Z</time>
      </trkpt>
      <trkpt lat="44.49788" lon="-0.79049">
        <ele>43.88</ele>
        <time>2021-07-07T18:24:35Z</time>
      </trkpt>
      <trkpt lat="44.49802" lon="-0.79047">
        <ele>42.44</ele>
        <time>2021-07-07T18:24:36Z</time>
      </trkpt>
      <trkpt lat="44.49817" lon="-0.79044">
        <ele>41.47</ele>
        <time>2021-07-07T18:24:37Z</time>
      </trkpt>
      <trkpt lat="44.50033" lon="-0.79004">
        <ele>41.95</ele>
        <time>2021-07-07T18:24:51Z</time>
      </trkpt>
      <trkpt lat="44.50089" lon="-0.7899">
        <ele>43.4</ele>
        <time>2021-07-07T18:24:56Z</time>
      </trkpt>
      <trkpt lat="44.50106" lon="-0.78983">
        <ele>42.92</ele>
        <time>2021-07-07T18:24:57Z</time>
      </trkpt>
      <trkpt lat="44.50106" lon="-0.78983">
        <ele>43.4</ele>
        <time>2021-07-07T18:24:58Z</time>
      </trkpt>
      <trkpt lat="44.50113" lon="-0.78979">
        <ele>43.4</ele>
        <time>2021-07-07T18:24:59Z</time>
      </trkpt>
      <trkpt lat="44.50117" lon="-0.78971">
        <ele>43.88</ele>
        <time>2021-07-07T18:25:00Z</time>
      </trkpt>
      <trkpt lat="44.5012" lon="-0.78964">
        <ele>43.88</ele>
        <time>2021-07-07T18:25:01Z</time>
      </trkpt>
      <trkpt lat="44.50128" lon="-0.7896">
        <ele>43.88</ele>
        <time>2021-07-07T18:25:02Z</time>
      </trkpt>
      <trkpt lat="44.5013" lon="-0.7896">
        <ele>42.92</ele>
        <time>2021-07-07T18:25:03Z</time>
      </trkpt>
      <trkpt lat="44.50138" lon="-0.78973">
        <ele>42.92</ele>
        <time>2021-07-07T18:25:04Z</time>
      </trkpt>
      <trkpt lat="44.50143" lon="-0.78973">
        <ele>42.92</ele>
        <time>2021-07-07T18:25:05Z</time>
      </trkpt>
      <trkpt lat="44.50149" lon="-0.78974">
        <ele>42.92</ele>
        <time>2021-07-07T18:25:06Z</time>
      </trkpt>
      <trkpt lat="44.50156" lon="-0.78974">
        <ele>42.92</ele>
        <time>2021-07-07T18:25:07Z</time>
      </trkpt>
      <trkpt lat="44.50164" lon="-0.78974">
        <ele>43.4</ele>
        <time>2021-07-07T18:25:08Z</time>
      </trkpt>
      <trkpt lat="44.50173" lon="-0.78975">
        <ele>43.4</ele>
        <time>2021-07-07T18:25:09Z</time>
      </trkpt>
      <trkpt lat="44.50273" lon="-0.78956">
        <ele>42.92</ele>
        <time>2021-07-07T18:25:18Z</time>
      </trkpt>
      <trkpt lat="44.50434" lon="-0.78925">
        <ele>43.4</ele>
        <time>2021-07-07T18:25:30Z</time>
      </trkpt>
      <trkpt lat="44.50613" lon="-0.7889">
        <ele>43.88</ele>
        <time>2021-07-07T18:25:45Z</time>
      </trkpt>
      <trkpt lat="44.50703" lon="-0.78871">
        <ele>43.4</ele>
        <time>2021-07-07T18:25:56Z</time>
      </trkpt>
      <trkpt lat="44.50807" lon="-0.78843">
        <ele>40.03</ele>
        <time>2021-07-07T18:26:09Z</time>
      </trkpt>
      <trkpt lat="44.50886" lon="-0.78808">
        <ele>37.15</ele>
        <time>2021-07-07T18:26:18Z</time>
      </trkpt>
      <trkpt lat="44.50905" lon="-0.78792">
        <ele>35.71</ele>
        <time>2021-07-07T18:26:20Z</time>
      </trkpt>
      <trkpt lat="44.50915" lon="-0.78786">
        <ele>35.71</ele>
        <time>2021-07-07T18:26:21Z</time>
      </trkpt>
      <trkpt lat="44.50926" lon="-0.78782">
        <ele>35.71</ele>
        <time>2021-07-07T18:26:22Z</time>
      </trkpt>
      <trkpt lat="44.50936" lon="-0.7878">
        <ele>36.19</ele>
        <time>2021-07-07T18:26:23Z</time>
      </trkpt>
      <trkpt lat="44.50946" lon="-0.7878">
        <ele>36.67</ele>
        <time>2021-07-07T18:26:24Z</time>
      </trkpt>
      <trkpt lat="44.51021" lon="-0.78782">
        <ele>34.74</ele>
        <time>2021-07-07T18:26:30Z</time>
      </trkpt>
      <trkpt lat="44.51034" lon="-0.78785">
        <ele>33.3</ele>
        <time>2021-07-07T18:26:31Z</time>
      </trkpt>
      <trkpt lat="44.51045" lon="-0.7879">
        <ele>31.86</ele>
        <time>2021-07-07T18:26:32Z</time>
      </trkpt>
      <trkpt lat="44.51066" lon="-0.7881">
        <ele>29.94</ele>
        <time>2021-07-07T18:26:33Z</time>
      </trkpt>
      <trkpt lat="44.51066" lon="-0.7881">
        <ele>28.02</ele>
        <time>2021-07-07T18:26:34Z</time>
      </trkpt>
      <trkpt lat="44.51077" lon="-0.78824">
        <ele>26.09</ele>
        <time>2021-07-07T18:26:35Z</time>
      </trkpt>
      <trkpt lat="44.51084" lon="-0.78838">
        <ele>25.13</ele>
        <time>2021-07-07T18:26:36Z</time>
      </trkpt>
      <trkpt lat="44.5109" lon="-0.78854">
        <ele>23.69</ele>
        <time>2021-07-07T18:26:37Z</time>
      </trkpt>
      <trkpt lat="44.51094" lon="-0.78873">
        <ele>23.69</ele>
        <time>2021-07-07T18:26:38Z</time>
      </trkpt>
      <trkpt lat="44.51097" lon="-0.78892">
        <ele>23.21</ele>
        <time>2021-07-07T18:26:39Z</time>
      </trkpt>
      <trkpt lat="44.51098" lon="-0.78911">
        <ele>22.73</ele>
        <time>2021-07-07T18:26:40Z</time>
      </trkpt>
      <trkpt lat="44.51097" lon="-0.7893">
        <ele>21.77</ele>
        <time>2021-07-07T18:26:41Z</time>
      </trkpt>
      <trkpt lat="44.51092" lon="-0.79075">
        <ele>16.96</ele>
        <time>2021-07-07T18:26:48Z</time>
      </trkpt>
      <trkpt lat="44.51096" lon="-0.79094">
        <ele>17.44</ele>
        <time>2021-07-07T18:26:49Z</time>
      </trkpt>
      <trkpt lat="44.51101" lon="-0.79113">
        <ele>18.4</ele>
        <time>2021-07-07T18:26:50Z</time>
      </trkpt>
      <trkpt lat="44.51106" lon="-0.79131">
        <ele>17.92</ele>
        <time>2021-07-07T18:26:51Z</time>
      </trkpt>
      <trkpt lat="44.51115" lon="-0.79145">
        <ele>17.92</ele>
        <time>2021-07-07T18:26:52Z</time>
      </trkpt>
      <trkpt lat="44.51125" lon="-0.79161">
        <ele>18.4</ele>
        <time>2021-07-07T18:26:53Z</time>
      </trkpt>
      <trkpt lat="44.51134" lon="-0.79174">
        <ele>18.88</ele>
        <time>2021-07-07T18:26:54Z</time>
      </trkpt>
      <trkpt lat="44.51146" lon="-0.79185">
        <ele>18.88</ele>
        <time>2021-07-07T18:26:55Z</time>
      </trkpt>
      <trkpt lat="44.5116" lon="-0.79193">
        <ele>20.32</ele>
        <time>2021-07-07T18:26:56Z</time>
      </trkpt>
      <trkpt lat="44.51175" lon="-0.79202">
        <ele>21.77</ele>
        <time>2021-07-07T18:26:57Z</time>
      </trkpt>
      <trkpt lat="44.51345" lon="-0.79277">
        <ele>28.98</ele>
        <time>2021-07-07T18:27:08Z</time>
      </trkpt>
      <trkpt lat="44.51468" lon="-0.79323">
        <ele>35.23</ele>
        <time>2021-07-07T18:27:18Z</time>
      </trkpt>
      <trkpt lat="44.51624" lon="-0.79373">
        <ele>35.23</ele>
        <time>2021-07-07T18:27:33Z</time>
      </trkpt>
      <trkpt lat="44.51696" lon="-0.79389">
        <ele>35.71</ele>
        <time>2021-07-07T18:27:43Z</time>
      </trkpt>
      <trkpt lat="44.5171" lon="-0.7939">
        <ele>35.23</ele>
        <time>2021-07-07T18:27:46Z</time>
      </trkpt>
      <trkpt lat="44.5171" lon="-0.7939">
        <ele>35.71</ele>
        <time>2021-07-07T18:27:47Z</time>
      </trkpt>
      <trkpt lat="44.51718" lon="-0.79385">
        <ele>35.71</ele>
        <time>2021-07-07T18:27:49Z</time>
      </trkpt>
      <trkpt lat="44.51718" lon="-0.79385">
        <ele>36.19</ele>
        <time>2021-07-07T18:27:50Z</time>
      </trkpt>
      <trkpt lat="44.51723" lon="-0.79391">
        <ele>36.19</ele>
        <time>2021-07-07T18:27:51Z</time>
      </trkpt>
      <trkpt lat="44.5174" lon="-0.79401">
        <ele>36.19</ele>
        <time>2021-07-07T18:27:54Z</time>
      </trkpt>
      <trkpt lat="44.51746" lon="-0.79401">
        <ele>36.19</ele>
        <time>2021-07-07T18:27:55Z</time>
      </trkpt>
      <trkpt lat="44.5184" lon="-0.79408">
        <ele>36.67</ele>
        <time>2021-07-07T18:28:05Z</time>
      </trkpt>
      <trkpt lat="44.51987" lon="-0.79413">
        <ele>39.55</ele>
        <time>2021-07-07T18:28:18Z</time>
      </trkpt>
      <trkpt lat="44.52157" lon="-0.79402">
        <ele>40.51</ele>
        <time>2021-07-07T18:28:30Z</time>
      </trkpt>
      <trkpt lat="44.52391" lon="-0.79381">
        <ele>40.51</ele>
        <time>2021-07-07T18:28:44Z</time>
      </trkpt>
      <trkpt lat="44.52561" lon="-0.79366">
        <ele>39.55</ele>
        <time>2021-07-07T18:28:56Z</time>
      </trkpt>
      <trkpt lat="44.52764" lon="-0.7934">
        <ele>37.63</ele>
        <time>2021-07-07T18:29:09Z</time>
      </trkpt>
      <trkpt lat="44.5293" lon="-0.79301">
        <ele>36.19</ele>
        <time>2021-07-07T18:29:20Z</time>
      </trkpt>
      <trkpt lat="44.53139" lon="-0.79254">
        <ele>38.59</ele>
        <time>2021-07-07T18:29:33Z</time>
      </trkpt>
      <trkpt lat="44.53283" lon="-0.79243">
        <ele>40.03</ele>
        <time>2021-07-07T18:29:42Z</time>
      </trkpt>
      <trkpt lat="44.53433" lon="-0.79206">
        <ele>40.03</ele>
        <time>2021-07-07T18:29:52Z</time>
      </trkpt>
      <trkpt lat="44.53644" lon="-0.79111">
        <ele>38.59</ele>
        <time>2021-07-07T18:30:06Z</time>
      </trkpt>
      <trkpt lat="44.53846" lon="-0.79022">
        <ele>38.59</ele>
        <time>2021-07-07T18:30:19Z</time>
      </trkpt>
      <trkpt lat="44.54056" lon="-0.78963">
        <ele>41.47</ele>
        <time>2021-07-07T18:30:32Z</time>
      </trkpt>
      <trkpt lat="44.54236" lon="-0.78907">
        <ele>43.4</ele>
        <time>2021-07-07T18:30:43Z</time>
      </trkpt>
      <trkpt lat="44.54444" lon="-0.78844">
        <ele>47.72</ele>
        <time>2021-07-07T18:30:56Z</time>
      </trkpt>
      <trkpt lat="44.54754" lon="-0.78751">
        <ele>53.49</ele>
        <time>2021-07-07T18:31:15Z</time>
      </trkpt>
      <trkpt lat="44.55005" lon="-0.78676">
        <ele>53.49</ele>
        <time>2021-07-07T18:31:31Z</time>
      </trkpt>
      <trkpt lat="44.55248" lon="-0.78603">
        <ele>53.97</ele>
        <time>2021-07-07T18:31:46Z</time>
      </trkpt>
      <trkpt lat="44.55417" lon="-0.78552">
        <ele>60.22</ele>
        <time>2021-07-07T18:31:56Z</time>
      </trkpt>
      <trkpt lat="44.55646" lon="-0.78483">
        <ele>58.78</ele>
        <time>2021-07-07T18:32:09Z</time>
      </trkpt>
      <trkpt lat="44.55833" lon="-0.78427">
        <ele>59.26</ele>
        <time>2021-07-07T18:32:21Z</time>
      </trkpt>
      <trkpt lat="44.56078" lon="-0.78352">
        <ele>61.18</ele>
        <time>2021-07-07T18:32:35Z</time>
      </trkpt>
      <trkpt lat="44.56295" lon="-0.78288">
        <ele>61.66</ele>
        <time>2021-07-07T18:32:48Z</time>
      </trkpt>
      <trkpt lat="44.56478" lon="-0.78231">
        <ele>60.7</ele>
        <time>2021-07-07T18:32:58Z</time>
      </trkpt>
      <trkpt lat="44.56669" lon="-0.78174">
        <ele>63.1</ele>
        <time>2021-07-07T18:33:10Z</time>
      </trkpt>
      <trkpt lat="44.56922" lon="-0.78099">
        <ele>65.03</ele>
        <time>2021-07-07T18:33:25Z</time>
      </trkpt>
      <trkpt lat="44.57105" lon="-0.78046">
        <ele>66.95</ele>
        <time>2021-07-07T18:33:37Z</time>
      </trkpt>
      <trkpt lat="44.57223" lon="-0.7801">
        <ele>67.91</ele>
        <time>2021-07-07T18:33:47Z</time>
      </trkpt>
      <trkpt lat="44.57263" lon="-0.77998">
        <ele>68.39</ele>
        <time>2021-07-07T18:33:55Z</time>
      </trkpt>
      <trkpt lat="44.57269" lon="-0.77996">
        <ele>68.39</ele>
        <time>2021-07-07T18:33:56Z</time>
      </trkpt>
      <trkpt lat="44.5735" lon="-0.77972">
        <ele>68.39</ele>
        <time>2021-07-07T18:34:07Z</time>
      </trkpt>
      <trkpt lat="44.57491" lon="-0.7793">
        <ele>68.87</ele>
        <time>2021-07-07T18:34:22Z</time>
      </trkpt>
      <trkpt lat="44.57615" lon="-0.77891">
        <ele>67.43</ele>
        <time>2021-07-07T18:34:36Z</time>
      </trkpt>
      <trkpt lat="44.57645" lon="-0.77883">
        <ele>67.91</ele>
        <time>2021-07-07T18:34:42Z</time>
      </trkpt>
      <trkpt lat="44.57651" lon="-0.77882">
        <ele>67.91</ele>
        <time>2021-07-07T18:34:43Z</time>
      </trkpt>
      <trkpt lat="44.57657" lon="-0.7788">
        <ele>68.39</ele>
        <time>2021-07-07T18:34:44Z</time>
      </trkpt>
      <trkpt lat="44.57663" lon="-0.77879">
        <ele>68.87</ele>
        <time>2021-07-07T18:34:45Z</time>
      </trkpt>
      <trkpt lat="44.5767" lon="-0.77877">
        <ele>68.87</ele>
        <time>2021-07-07T18:34:46Z</time>
      </trkpt>
      <trkpt lat="44.57806" lon="-0.77836">
        <ele>68.87</ele>
        <time>2021-07-07T18:35:00Z</time>
      </trkpt>
      <trkpt lat="44.58073" lon="-0.77755">
        <ele>68.39</ele>
        <time>2021-07-07T18:35:20Z</time>
      </trkpt>
      <trkpt lat="44.58271" lon="-0.77696">
        <ele>66.95</ele>
        <time>2021-07-07T18:35:35Z</time>
      </trkpt>
      <trkpt lat="44.58524" lon="-0.7762">
        <ele>66.47</ele>
        <time>2021-07-07T18:35:50Z</time>
      </trkpt>
      <trkpt lat="44.58735" lon="-0.77555">
        <ele>65.99</ele>
        <time>2021-07-07T18:36:04Z</time>
      </trkpt>
      <trkpt lat="44.5899" lon="-0.77478">
        <ele>66.47</ele>
        <time>2021-07-07T18:36:21Z</time>
      </trkpt>
      <trkpt lat="44.59236" lon="-0.77404">
        <ele>64.55</ele>
        <time>2021-07-07T18:36:35Z</time>
      </trkpt>
      <trkpt lat="44.59496" lon="-0.77327">
        <ele>64.07</ele>
        <time>2021-07-07T18:36:48Z</time>
      </trkpt>
      <trkpt lat="44.59808" lon="-0.77232">
        <ele>65.51</ele>
        <time>2021-07-07T18:37:07Z</time>
      </trkpt>
      <trkpt lat="44.6004" lon="-0.77162">
        <ele>67.91</ele>
        <time>2021-07-07T18:37:22Z</time>
      </trkpt>
      <trkpt lat="44.60302" lon="-0.77083">
        <ele>68.87</ele>
        <time>2021-07-07T18:37:40Z</time>
      </trkpt>
      <trkpt lat="44.60429" lon="-0.77046">
        <ele>66.47</ele>
        <time>2021-07-07T18:37:52Z</time>
      </trkpt>
      <trkpt lat="44.60473" lon="-0.77031">
        <ele>69.35</ele>
        <time>2021-07-07T18:37:59Z</time>
      </trkpt>
      <trkpt lat="44.60491" lon="-0.77026">
        <ele>69.35</ele>
        <time>2021-07-07T18:38:30Z</time>
      </trkpt>
      <trkpt lat="44.60517" lon="-0.77018">
        <ele>69.35</ele>
        <time>2021-07-07T18:38:46Z</time>
      </trkpt>
      <trkpt lat="44.60539" lon="-0.77011">
        <ele>69.35</ele>
        <time>2021-07-07T18:38:59Z</time>
      </trkpt>
      <trkpt lat="44.60552" lon="-0.77007">
        <ele>69.83</ele>
        <time>2021-07-07T18:39:24Z</time>
      </trkpt>
      <trkpt lat="44.60598" lon="-0.76994">
        <ele>69.83</ele>
        <time>2021-07-07T18:39:37Z</time>
      </trkpt>
      <trkpt lat="44.606" lon="-0.76993">
        <ele>69.83</ele>
        <time>2021-07-07T18:39:50Z</time>
      </trkpt>
      <trkpt lat="44.60622" lon="-0.76986">
        <ele>69.35</ele>
        <time>2021-07-07T18:40:33Z</time>
      </trkpt>
      <trkpt lat="44.60697" lon="-0.76953">
        <ele>68.39</ele>
        <time>2021-07-07T18:40:47Z</time>
      </trkpt>
      <trkpt lat="44.60827" lon="-0.76883">
        <ele>67.91</ele>
        <time>2021-07-07T18:41:05Z</time>
      </trkpt>
      <trkpt lat="44.6096" lon="-0.76803">
        <ele>66.47</ele>
        <time>2021-07-07T18:41:22Z</time>
      </trkpt>
      <trkpt lat="44.61099" lon="-0.76718">
        <ele>65.03</ele>
        <time>2021-07-07T18:41:36Z</time>
      </trkpt>
      <trkpt lat="44.61299" lon="-0.76598">
        <ele>65.03</ele>
        <time>2021-07-07T18:41:51Z</time>
      </trkpt>
      <trkpt lat="44.61616" lon="-0.76407">
        <ele>64.07</ele>
        <time>2021-07-07T18:42:12Z</time>
      </trkpt>
      <trkpt lat="44.61928" lon="-0.76218">
        <ele>60.7</ele>
        <time>2021-07-07T18:42:31Z</time>
      </trkpt>
      <trkpt lat="44.62099" lon="-0.76114">
        <ele>61.66</ele>
        <time>2021-07-07T18:42:41Z</time>
      </trkpt>
      <trkpt lat="44.62455" lon="-0.75898">
        <ele>60.22</ele>
        <time>2021-07-07T18:43:02Z</time>
      </trkpt>
      <trkpt lat="44.62712" lon="-0.75743">
        <ele>58.78</ele>
        <time>2021-07-07T18:43:17Z</time>
      </trkpt>
      <trkpt lat="44.63014" lon="-0.75561">
        <ele>60.22</ele>
        <time>2021-07-07T18:43:34Z</time>
      </trkpt>
      <trkpt lat="44.63261" lon="-0.75411">
        <ele>59.74</ele>
        <time>2021-07-07T18:43:50Z</time>
      </trkpt>
      <trkpt lat="44.63459" lon="-0.75292">
        <ele>59.74</ele>
        <time>2021-07-07T18:44:02Z</time>
      </trkpt>
      <trkpt lat="44.63722" lon="-0.75133">
        <ele>59.74</ele>
        <time>2021-07-07T18:44:18Z</time>
      </trkpt>
      <trkpt lat="44.64113" lon="-0.74897">
        <ele>58.3</ele>
        <time>2021-07-07T18:44:42Z</time>
      </trkpt>
      <trkpt lat="44.64421" lon="-0.74711">
        <ele>58.3</ele>
        <time>2021-07-07T18:45:01Z</time>
      </trkpt>
      <trkpt lat="44.64703" lon="-0.74541">
        <ele>59.26</ele>
        <time>2021-07-07T18:45:19Z</time>
      </trkpt>
      <trkpt lat="44.64968" lon="-0.74381">
        <ele>57.82</ele>
        <time>2021-07-07T18:45:36Z</time>
      </trkpt>
      <trkpt lat="44.65162" lon="-0.74266">
        <ele>55.41</ele>
        <time>2021-07-07T18:45:48Z</time>
      </trkpt>
      <trkpt lat="44.654" lon="-0.7412">
        <ele>54.93</ele>
        <time>2021-07-07T18:46:01Z</time>
      </trkpt>
      <trkpt lat="44.65634" lon="-0.73979">
        <ele>57.34</ele>
        <time>2021-07-07T18:46:16Z</time>
      </trkpt>
      <trkpt lat="44.65911" lon="-0.73813">
        <ele>58.78</ele>
        <time>2021-07-07T18:46:32Z</time>
      </trkpt>
      <trkpt lat="44.66113" lon="-0.7369">
        <ele>56.37</ele>
        <time>2021-07-07T18:46:44Z</time>
      </trkpt>
      <trkpt lat="44.66411" lon="-0.73511">
        <ele>54.45</ele>
        <time>2021-07-07T18:47:01Z</time>
      </trkpt>
      <trkpt lat="44.66802" lon="-0.73274">
        <ele>55.41</ele>
        <time>2021-07-07T18:47:24Z</time>
      </trkpt>
      <trkpt lat="44.67105" lon="-0.73093">
        <ele>56.37</ele>
        <time>2021-07-07T18:47:42Z</time>
      </trkpt>
      <trkpt lat="44.67383" lon="-0.72926">
        <ele>56.37</ele>
        <time>2021-07-07T18:47:59Z</time>
      </trkpt>
      <trkpt lat="44.67679" lon="-0.72748">
        <ele>60.7</ele>
        <time>2021-07-07T18:48:16Z</time>
      </trkpt>
      <trkpt lat="44.67913" lon="-0.72605">
        <ele>60.7</ele>
        <time>2021-07-07T18:48:31Z</time>
      </trkpt>
      <trkpt lat="44.6809" lon="-0.72491">
        <ele>57.34</ele>
        <time>2021-07-07T18:48:42Z</time>
      </trkpt>
      <trkpt lat="44.68264" lon="-0.72345">
        <ele>55.89</ele>
        <time>2021-07-07T18:48:54Z</time>
      </trkpt>
      <trkpt lat="44.68447" lon="-0.7217">
        <ele>57.34</ele>
        <time>2021-07-07T18:49:07Z</time>
      </trkpt>
      <trkpt lat="44.68662" lon="-0.7196">
        <ele>56.86</ele>
        <time>2021-07-07T18:49:22Z</time>
      </trkpt>
      <trkpt lat="44.68893" lon="-0.71739">
        <ele>55.89</ele>
        <time>2021-07-07T18:49:37Z</time>
      </trkpt>
      <trkpt lat="44.69073" lon="-0.71566">
        <ele>54.45</ele>
        <time>2021-07-07T18:49:51Z</time>
      </trkpt>
      <trkpt lat="44.69274" lon="-0.7137">
        <ele>54.93</ele>
        <time>2021-07-07T18:50:05Z</time>
      </trkpt>
      <trkpt lat="44.69531" lon="-0.71124">
        <ele>56.37</ele>
        <time>2021-07-07T18:50:23Z</time>
      </trkpt>
      <trkpt lat="44.69714" lon="-0.70947">
        <ele>57.34</ele>
        <time>2021-07-07T18:50:37Z</time>
      </trkpt>
      <trkpt lat="44.69842" lon="-0.70822">
        <ele>56.86</ele>
        <time>2021-07-07T18:50:47Z</time>
      </trkpt>
      <trkpt lat="44.70003" lon="-0.70668">
        <ele>56.86</ele>
        <time>2021-07-07T18:51:01Z</time>
      </trkpt>
      <trkpt lat="44.70045" lon="-0.70628">
        <ele>57.34</ele>
        <time>2021-07-07T18:51:08Z</time>
      </trkpt>
      <trkpt lat="44.70071" lon="-0.70603">
        <ele>56.37</ele>
        <time>2021-07-07T18:51:18Z</time>
      </trkpt>
      <trkpt lat="44.70085" lon="-0.70588">
        <ele>55.41</ele>
        <time>2021-07-07T18:51:45Z</time>
      </trkpt>
      <trkpt lat="44.70103" lon="-0.70562">
        <ele>54.93</ele>
        <time>2021-07-07T18:51:58Z</time>
      </trkpt>
      <trkpt lat="44.70111" lon="-0.70543">
        <ele>53.97</ele>
        <time>2021-07-07T18:52:03Z</time>
      </trkpt>
      <trkpt lat="44.70116" lon="-0.70542">
        <ele>53.97</ele>
        <time>2021-07-07T18:52:04Z</time>
      </trkpt>
      <trkpt lat="44.70116" lon="-0.70542">
        <ele>53.97</ele>
        <time>2021-07-07T18:52:05Z</time>
      </trkpt>
      <trkpt lat="44.70131" lon="-0.70547">
        <ele>53.97</ele>
        <time>2021-07-07T18:52:06Z</time>
      </trkpt>
      <trkpt lat="44.70145" lon="-0.70534">
        <ele>53.97</ele>
        <time>2021-07-07T18:52:07Z</time>
      </trkpt>
      <trkpt lat="44.70145" lon="-0.70534">
        <ele>54.93</ele>
        <time>2021-07-07T18:52:08Z</time>
      </trkpt>
      <trkpt lat="44.70163" lon="-0.70515">
        <ele>54.93</ele>
        <time>2021-07-07T18:52:09Z</time>
      </trkpt>
      <trkpt lat="44.70242" lon="-0.70438">
        <ele>53.97</ele>
        <time>2021-07-07T18:52:17Z</time>
      </trkpt>
      <trkpt lat="44.70398" lon="-0.70287">
        <ele>52.05</ele>
        <time>2021-07-07T18:52:28Z</time>
      </trkpt>
      <trkpt lat="44.70598" lon="-0.70096">
        <ele>47.72</ele>
        <time>2021-07-07T18:52:39Z</time>
      </trkpt>
      <trkpt lat="44.70782" lon="-0.69918">
        <ele>46.76</ele>
        <time>2021-07-07T18:52:50Z</time>
      </trkpt>
      <trkpt lat="44.71" lon="-0.69712">
        <ele>48.68</ele>
        <time>2021-07-07T18:53:02Z</time>
      </trkpt>
      <trkpt lat="44.71294" lon="-0.69425">
        <ele>48.68</ele>
        <time>2021-07-07T18:53:19Z</time>
      </trkpt>
      <trkpt lat="44.71504" lon="-0.6922">
        <ele>47.72</ele>
        <time>2021-07-07T18:53:33Z</time>
      </trkpt>
      <trkpt lat="44.71568" lon="-0.69159">
        <ele>48.2</ele>
        <time>2021-07-07T18:53:39Z</time>
      </trkpt>
      <trkpt lat="44.71575" lon="-0.69154">
        <ele>47.72</ele>
        <time>2021-07-07T18:53:40Z</time>
      </trkpt>
      <trkpt lat="44.71579" lon="-0.69129">
        <ele>48.2</ele>
        <time>2021-07-07T18:53:42Z</time>
      </trkpt>
      <trkpt lat="44.71584" lon="-0.69122">
        <ele>48.68</ele>
        <time>2021-07-07T18:53:43Z</time>
      </trkpt>
      <trkpt lat="44.71604" lon="-0.69125">
        <ele>49.65</ele>
        <time>2021-07-07T18:53:45Z</time>
      </trkpt>
      <trkpt lat="44.71611" lon="-0.69119">
        <ele>49.65</ele>
        <time>2021-07-07T18:53:46Z</time>
      </trkpt>
      <trkpt lat="44.71618" lon="-0.69111">
        <ele>50.61</ele>
        <time>2021-07-07T18:53:47Z</time>
      </trkpt>
      <trkpt lat="44.71715" lon="-0.69022">
        <ele>48.68</ele>
        <time>2021-07-07T18:53:56Z</time>
      </trkpt>
      <trkpt lat="44.71866" lon="-0.68877">
        <ele>47.24</ele>
        <time>2021-07-07T18:54:06Z</time>
      </trkpt>
      <trkpt lat="44.72149" lon="-0.68605">
        <ele>46.76</ele>
        <time>2021-07-07T18:54:22Z</time>
      </trkpt>
      <trkpt lat="44.72269" lon="-0.68457">
        <ele>46.76</ele>
        <time>2021-07-07T18:54:30Z</time>
      </trkpt>
      <trkpt lat="44.72392" lon="-0.68217">
        <ele>44.84</ele>
        <time>2021-07-07T18:54:42Z</time>
      </trkpt>
      <trkpt lat="44.72515" lon="-0.67968">
        <ele>41.95</ele>
        <time>2021-07-07T18:54:54Z</time>
      </trkpt>
      <trkpt lat="44.72617" lon="-0.67761">
        <ele>41.47</ele>
        <time>2021-07-07T18:55:04Z</time>
      </trkpt>
      <trkpt lat="44.72727" lon="-0.67543">
        <ele>43.88</ele>
        <time>2021-07-07T18:55:15Z</time>
      </trkpt>
      <trkpt lat="44.72858" lon="-0.67275">
        <ele>44.36</ele>
        <time>2021-07-07T18:55:30Z</time>
      </trkpt>
      <trkpt lat="44.73009" lon="-0.66978">
        <ele>46.28</ele>
        <time>2021-07-07T18:55:46Z</time>
      </trkpt>
      <trkpt lat="44.73096" lon="-0.66804">
        <ele>49.16</ele>
        <time>2021-07-07T18:55:58Z</time>
      </trkpt>
      <trkpt lat="44.73182" lon="-0.66641">
        <ele>49.65</ele>
        <time>2021-07-07T18:56:11Z</time>
      </trkpt>
      <trkpt lat="44.73207" lon="-0.66597">
        <ele>49.16</ele>
        <time>2021-07-07T18:56:16Z</time>
      </trkpt>
      <trkpt lat="44.73212" lon="-0.66579">
        <ele>49.16</ele>
        <time>2021-07-07T18:56:17Z</time>
      </trkpt>
      <trkpt lat="44.73212" lon="-0.66579">
        <ele>49.16</ele>
        <time>2021-07-07T18:56:18Z</time>
      </trkpt>
      <trkpt lat="44.73219" lon="-0.66534">
        <ele>48.68</ele>
        <time>2021-07-07T18:56:22Z</time>
      </trkpt>
      <trkpt lat="44.73217" lon="-0.66521">
        <ele>48.2</ele>
        <time>2021-07-07T18:56:23Z</time>
      </trkpt>
      <trkpt lat="44.73195" lon="-0.66331">
        <ele>47.72</ele>
        <time>2021-07-07T18:56:32Z</time>
      </trkpt>
      <trkpt lat="44.73167" lon="-0.66049">
        <ele>46.76</ele>
        <time>2021-07-07T18:56:43Z</time>
      </trkpt>
      <trkpt lat="44.73157" lon="-0.65794">
        <ele>46.28</ele>
        <time>2021-07-07T18:56:54Z</time>
      </trkpt>
      <trkpt lat="44.73157" lon="-0.65644">
        <ele>44.36</ele>
        <time>2021-07-07T18:57:02Z</time>
      </trkpt>
      <trkpt lat="44.73157" lon="-0.65447">
        <ele>44.36</ele>
        <time>2021-07-07T18:57:14Z</time>
      </trkpt>
      <trkpt lat="44.73156" lon="-0.65207">
        <ele>44.36</ele>
        <time>2021-07-07T18:57:27Z</time>
      </trkpt>
      <trkpt lat="44.73153" lon="-0.65042">
        <ele>47.72</ele>
        <time>2021-07-07T18:57:39Z</time>
      </trkpt>
      <trkpt lat="44.73152" lon="-0.65031">
        <ele>48.2</ele>
        <time>2021-07-07T18:57:40Z</time>
      </trkpt>
      <trkpt lat="44.73152" lon="-0.65023">
        <ele>48.2</ele>
        <time>2021-07-07T18:57:41Z</time>
      </trkpt>
      <trkpt lat="44.73143" lon="-0.65012">
        <ele>48.2</ele>
        <time>2021-07-07T18:57:42Z</time>
      </trkpt>
      <trkpt lat="44.73143" lon="-0.64999">
        <ele>48.68</ele>
        <time>2021-07-07T18:57:43Z</time>
      </trkpt>
      <trkpt lat="44.73152" lon="-0.64989">
        <ele>48.68</ele>
        <time>2021-07-07T18:57:44Z</time>
      </trkpt>
      <trkpt lat="44.73152" lon="-0.64978">
        <ele>48.68</ele>
        <time>2021-07-07T18:57:45Z</time>
      </trkpt>
      <trkpt lat="44.73151" lon="-0.64966">
        <ele>48.68</ele>
        <time>2021-07-07T18:57:46Z</time>
      </trkpt>
      <trkpt lat="44.73141" lon="-0.64805">
        <ele>47.72</ele>
        <time>2021-07-07T18:57:56Z</time>
      </trkpt>
      <trkpt lat="44.73113" lon="-0.64567">
        <ele>45.8</ele>
        <time>2021-07-07T18:58:07Z</time>
      </trkpt>
      <trkpt lat="44.73094" lon="-0.64296">
        <ele>46.28</ele>
        <time>2021-07-07T18:58:20Z</time>
      </trkpt>
      <trkpt lat="44.73068" lon="-0.63933">
        <ele>44.84</ele>
        <time>2021-07-07T18:58:36Z</time>
      </trkpt>
      <trkpt lat="44.73049" lon="-0.63648">
        <ele>43.88</ele>
        <time>2021-07-07T18:58:49Z</time>
      </trkpt>
      <trkpt lat="44.73019" lon="-0.63222">
        <ele>44.36</ele>
        <time>2021-07-07T18:59:07Z</time>
      </trkpt>
      <trkpt lat="44.72988" lon="-0.63036">
        <ele>44.36</ele>
        <time>2021-07-07T18:59:16Z</time>
      </trkpt>
      <trkpt lat="44.72939" lon="-0.62803">
        <ele>44.84</ele>
        <time>2021-07-07T18:59:31Z</time>
      </trkpt>
      <trkpt lat="44.72921" lon="-0.62717">
        <ele>44.36</ele>
        <time>2021-07-07T18:59:40Z</time>
      </trkpt>
      <trkpt lat="44.72889" lon="-0.62565">
        <ele>43.4</ele>
        <time>2021-07-07T18:59:49Z</time>
      </trkpt>
      <trkpt lat="44.72833" lon="-0.62292">
        <ele>41.47</ele>
        <time>2021-07-07T19:00:01Z</time>
      </trkpt>
      <trkpt lat="44.7281" lon="-0.62133">
        <ele>41.95</ele>
        <time>2021-07-07T19:00:09Z</time>
      </trkpt>
      <trkpt lat="44.72807" lon="-0.62111">
        <ele>42.44</ele>
        <time>2021-07-07T19:00:10Z</time>
      </trkpt>
      <trkpt lat="44.72793" lon="-0.62099">
        <ele>42.44</ele>
        <time>2021-07-07T19:00:11Z</time>
      </trkpt>
      <trkpt lat="44.72793" lon="-0.62091">
        <ele>42.92</ele>
        <time>2021-07-07T19:00:12Z</time>
      </trkpt>
      <trkpt lat="44.72792" lon="-0.62082">
        <ele>42.92</ele>
        <time>2021-07-07T19:00:13Z</time>
      </trkpt>
      <trkpt lat="44.72792" lon="-0.62079">
        <ele>42.92</ele>
        <time>2021-07-07T19:00:14Z</time>
      </trkpt>
      <trkpt lat="44.72799" lon="-0.6207">
        <ele>42.92</ele>
        <time>2021-07-07T19:00:15Z</time>
      </trkpt>
      <trkpt lat="44.72799" lon="-0.6207">
        <ele>42.92</ele>
        <time>2021-07-07T19:00:16Z</time>
      </trkpt>
      <trkpt lat="44.72801" lon="-0.62054">
        <ele>42.92</ele>
        <time>2021-07-07T19:00:17Z</time>
      </trkpt>
      <trkpt lat="44.72799" lon="-0.6203">
        <ele>42.92</ele>
        <time>2021-07-07T19:00:18Z</time>
      </trkpt>
      <trkpt lat="44.72798" lon="-0.62017">
        <ele>43.4</ele>
        <time>2021-07-07T19:00:19Z</time>
      </trkpt>
      <trkpt lat="44.72778" lon="-0.61848">
        <ele>41.47</ele>
        <time>2021-07-07T19:00:28Z</time>
      </trkpt>
      <trkpt lat="44.72753" lon="-0.61618">
        <ele>36.67</ele>
        <time>2021-07-07T19:00:38Z</time>
      </trkpt>
      <trkpt lat="44.72715" lon="-0.6128">
        <ele>34.74</ele>
        <time>2021-07-07T19:00:51Z</time>
      </trkpt>
      <trkpt lat="44.72657" lon="-0.60914">
        <ele>31.86</ele>
        <time>2021-07-07T19:01:07Z</time>
      </trkpt>
      <trkpt lat="44.72645" lon="-0.60676">
        <ele>30.42</ele>
        <time>2021-07-07T19:01:18Z</time>
      </trkpt>
      <trkpt lat="44.72685" lon="-0.60514">
        <ele>27.53</ele>
        <time>2021-07-07T19:01:26Z</time>
      </trkpt>
      <trkpt lat="44.72741" lon="-0.60313">
        <ele>25.61</ele>
        <time>2021-07-07T19:01:36Z</time>
      </trkpt>
      <trkpt lat="44.72758" lon="-0.60227">
        <ele>23.21</ele>
        <time>2021-07-07T19:01:42Z</time>
      </trkpt>
      <trkpt lat="44.7276" lon="-0.6022">
        <ele>22.73</ele>
        <time>2021-07-07T19:01:43Z</time>
      </trkpt>
      <trkpt lat="44.72763" lon="-0.60206">
        <ele>23.69</ele>
        <time>2021-07-07T19:01:51Z</time>
      </trkpt>
      <trkpt lat="44.72768" lon="-0.60178">
        <ele>23.21</ele>
        <time>2021-07-07T19:02:02Z</time>
      </trkpt>
      <trkpt lat="44.72797" lon="-0.60132">
        <ele>25.13</ele>
        <time>2021-07-07T19:02:14Z</time>
      </trkpt>
      <trkpt lat="44.72843" lon="-0.60102">
        <ele>26.09</ele>
        <time>2021-07-07T19:02:29Z</time>
      </trkpt>
      <trkpt lat="44.72879" lon="-0.60081">
        <ele>25.61</ele>
        <time>2021-07-07T19:02:40Z</time>
      </trkpt>
      <trkpt lat="44.72889" lon="-0.60074">
        <ele>24.65</ele>
        <time>2021-07-07T19:02:54Z</time>
      </trkpt>
      <trkpt lat="44.72894" lon="-0.60047">
        <ele>24.17</ele>
        <time>2021-07-07T19:03:03Z</time>
      </trkpt>
      <trkpt lat="44.72902" lon="-0.60041">
        <ele>24.17</ele>
        <time>2021-07-07T19:03:04Z</time>
      </trkpt>
      <trkpt lat="44.72906" lon="-0.60041">
        <ele>24.17</ele>
        <time>2021-07-07T19:03:05Z</time>
      </trkpt>
      <trkpt lat="44.72906" lon="-0.60041">
        <ele>24.17</ele>
        <time>2021-07-07T19:03:06Z</time>
      </trkpt>
      <trkpt lat="44.7291" lon="-0.60042">
        <ele>24.17</ele>
        <time>2021-07-07T19:03:07Z</time>
      </trkpt>
      <trkpt lat="44.72912" lon="-0.60045">
        <ele>24.17</ele>
        <time>2021-07-07T19:03:08Z</time>
      </trkpt>
      <trkpt lat="44.72916" lon="-0.60058">
        <ele>24.17</ele>
        <time>2021-07-07T19:03:09Z</time>
      </trkpt>
      <trkpt lat="44.72921" lon="-0.6006">
        <ele>23.69</ele>
        <time>2021-07-07T19:03:10Z</time>
      </trkpt>
      <trkpt lat="44.72926" lon="-0.60062">
        <ele>23.69</ele>
        <time>2021-07-07T19:03:11Z</time>
      </trkpt>
      <trkpt lat="44.72932" lon="-0.60063">
        <ele>23.21</ele>
        <time>2021-07-07T19:03:12Z</time>
      </trkpt>
      <trkpt lat="44.72993" lon="-0.60075">
        <ele>23.21</ele>
        <time>2021-07-07T19:03:20Z</time>
      </trkpt>
      <trkpt lat="44.73" lon="-0.60072">
        <ele>23.21</ele>
        <time>2021-07-07T19:03:21Z</time>
      </trkpt>
      <trkpt lat="44.73007" lon="-0.6007">
        <ele>23.21</ele>
        <time>2021-07-07T19:03:22Z</time>
      </trkpt>
      <trkpt lat="44.73037" lon="-0.6006">
        <ele>26.09</ele>
        <time>2021-07-07T19:03:30Z</time>
      </trkpt>
      <trkpt lat="44.73057" lon="-0.60049">
        <ele>25.13</ele>
        <time>2021-07-07T19:03:54Z</time>
      </trkpt>
      <trkpt lat="44.73142" lon="-0.6001">
        <ele>24.17</ele>
        <time>2021-07-07T19:04:05Z</time>
      </trkpt>
      <trkpt lat="44.7324" lon="-0.59985">
        <ele>25.13</ele>
        <time>2021-07-07T19:04:15Z</time>
      </trkpt>
      <trkpt lat="44.73375" lon="-0.59936">
        <ele>29.46</ele>
        <time>2021-07-07T19:04:27Z</time>
      </trkpt>
      <trkpt lat="44.73488" lon="-0.59862">
        <ele>28.5</ele>
        <time>2021-07-07T19:04:37Z</time>
      </trkpt>
      <trkpt lat="44.73609" lon="-0.59746">
        <ele>35.71</ele>
        <time>2021-07-07T19:04:47Z</time>
      </trkpt>
      <trkpt lat="44.73704" lon="-0.59649">
        <ele>39.55</ele>
        <time>2021-07-07T19:04:55Z</time>
      </trkpt>
      <trkpt lat="44.73745" lon="-0.59615">
        <ele>40.03</ele>
        <time>2021-07-07T19:05:00Z</time>
      </trkpt>
      <trkpt lat="44.73756" lon="-0.59608">
        <ele>40.03</ele>
        <time>2021-07-07T19:05:01Z</time>
      </trkpt>
      <trkpt lat="44.73769" lon="-0.59604">
        <ele>40.03</ele>
        <time>2021-07-07T19:05:02Z</time>
      </trkpt>
      <trkpt lat="44.73782" lon="-0.596">
        <ele>39.55</ele>
        <time>2021-07-07T19:05:03Z</time>
      </trkpt>
      <trkpt lat="44.73795" lon="-0.596">
        <ele>39.55</ele>
        <time>2021-07-07T19:05:04Z</time>
      </trkpt>
      <trkpt lat="44.73808" lon="-0.59601">
        <ele>40.51</ele>
        <time>2021-07-07T19:05:05Z</time>
      </trkpt>
      <trkpt lat="44.73821" lon="-0.59603">
        <ele>40.51</ele>
        <time>2021-07-07T19:05:06Z</time>
      </trkpt>
      <trkpt lat="44.73972" lon="-0.59631">
        <ele>35.23</ele>
        <time>2021-07-07T19:05:18Z</time>
      </trkpt>
      <trkpt lat="44.73983" lon="-0.59636">
        <ele>35.71</ele>
        <time>2021-07-07T19:05:19Z</time>
      </trkpt>
      <trkpt lat="44.74093" lon="-0.59681">
        <ele>33.78</ele>
        <time>2021-07-07T19:05:29Z</time>
      </trkpt>
      <trkpt lat="44.74243" lon="-0.59713">
        <ele>35.71</ele>
        <time>2021-07-07T19:05:44Z</time>
      </trkpt>
      <trkpt lat="44.74285" lon="-0.59716">
        <ele>35.71</ele>
        <time>2021-07-07T19:05:52Z</time>
      </trkpt>
      <trkpt lat="44.74313" lon="-0.59708">
        <ele>34.74</ele>
        <time>2021-07-07T19:05:55Z</time>
      </trkpt>
      <trkpt lat="44.74313" lon="-0.59708">
        <ele>34.74</ele>
        <time>2021-07-07T19:05:56Z</time>
      </trkpt>
      <trkpt lat="44.74321" lon="-0.59702">
        <ele>33.78</ele>
        <time>2021-07-07T19:05:58Z</time>
      </trkpt>
      <trkpt lat="44.74327" lon="-0.59696">
        <ele>33.3</ele>
        <time>2021-07-07T19:05:59Z</time>
      </trkpt>
      <trkpt lat="44.74333" lon="-0.59689">
        <ele>32.34</ele>
        <time>2021-07-07T19:06:00Z</time>
      </trkpt>
      <trkpt lat="44.74416" lon="-0.59589">
        <ele>28.98</ele>
        <time>2021-07-07T19:06:09Z</time>
      </trkpt>
      <trkpt lat="44.74567" lon="-0.59406">
        <ele>28.5</ele>
        <time>2021-07-07T19:06:21Z</time>
      </trkpt>
      <trkpt lat="44.74696" lon="-0.59244">
        <ele>26.09</ele>
        <time>2021-07-07T19:06:33Z</time>
      </trkpt>
      <trkpt lat="44.74723" lon="-0.59196">
        <ele>23.21</ele>
        <time>2021-07-07T19:06:38Z</time>
      </trkpt>
      <trkpt lat="44.74734" lon="-0.5918">
        <ele>25.13</ele>
        <time>2021-07-07T19:07:08Z</time>
      </trkpt>
      <trkpt lat="44.74743" lon="-0.59167">
        <ele>25.13</ele>
        <time>2021-07-07T19:07:10Z</time>
      </trkpt>
      <trkpt lat="44.74748" lon="-0.5916">
        <ele>25.13</ele>
        <time>2021-07-07T19:07:11Z</time>
      </trkpt>
      <trkpt lat="44.74753" lon="-0.59152">
        <ele>25.13</ele>
        <time>2021-07-07T19:07:12Z</time>
      </trkpt>
      <trkpt lat="44.74838" lon="-0.59062">
        <ele>24.65</ele>
        <time>2021-07-07T19:07:21Z</time>
      </trkpt>
      <trkpt lat="44.74896" lon="-0.58955">
        <ele>20.32</ele>
        <time>2021-07-07T19:07:31Z</time>
      </trkpt>
      <trkpt lat="44.7494" lon="-0.58872">
        <ele>20.81</ele>
        <time>2021-07-07T19:07:36Z</time>
      </trkpt>
      <trkpt lat="44.7494" lon="-0.58872">
        <ele>20.32</ele>
        <time>2021-07-07T19:07:37Z</time>
      </trkpt>
      <trkpt lat="44.74951" lon="-0.5886">
        <ele>19.36</ele>
        <time>2021-07-07T19:07:38Z</time>
      </trkpt>
      <trkpt lat="44.74975" lon="-0.58844">
        <ele>19.36</ele>
        <time>2021-07-07T19:07:39Z</time>
      </trkpt>
      <trkpt lat="44.74989" lon="-0.5884">
        <ele>18.88</ele>
        <time>2021-07-07T19:07:40Z</time>
      </trkpt>
      <trkpt lat="44.74989" lon="-0.5884">
        <ele>17.44</ele>
        <time>2021-07-07T19:07:41Z</time>
      </trkpt>
      <trkpt lat="44.75159" lon="-0.58797">
        <ele>15.04</ele>
        <time>2021-07-07T19:07:53Z</time>
      </trkpt>
      <trkpt lat="44.7528" lon="-0.58764">
        <ele>18.4</ele>
        <time>2021-07-07T19:08:03Z</time>
      </trkpt>
      <trkpt lat="44.75328" lon="-0.58724">
        <ele>20.81</ele>
        <time>2021-07-07T19:08:13Z</time>
      </trkpt>
      <trkpt lat="44.75341" lon="-0.58713">
        <ele>21.29</ele>
        <time>2021-07-07T19:08:17Z</time>
      </trkpt>
      <trkpt lat="44.75345" lon="-0.5871">
        <ele>21.29</ele>
        <time>2021-07-07T19:08:18Z</time>
      </trkpt>
      <trkpt lat="44.7535" lon="-0.58706">
        <ele>21.77</ele>
        <time>2021-07-07T19:08:20Z</time>
      </trkpt>
      <trkpt lat="44.7536" lon="-0.58681">
        <ele>21.29</ele>
        <time>2021-07-07T19:08:21Z</time>
      </trkpt>
      <trkpt lat="44.75365" lon="-0.5868">
        <ele>21.29</ele>
        <time>2021-07-07T19:08:22Z</time>
      </trkpt>
      <trkpt lat="44.75365" lon="-0.5868">
        <ele>21.29</ele>
        <time>2021-07-07T19:08:23Z</time>
      </trkpt>
      <trkpt lat="44.75365" lon="-0.5868">
        <ele>21.29</ele>
        <time>2021-07-07T19:08:24Z</time>
      </trkpt>
      <trkpt lat="44.75381" lon="-0.58682">
        <ele>19.84</ele>
        <time>2021-07-07T19:08:25Z</time>
      </trkpt>
      <trkpt lat="44.75395" lon="-0.58671">
        <ele>19.36</ele>
        <time>2021-07-07T19:08:26Z</time>
      </trkpt>
      <trkpt lat="44.75395" lon="-0.58671">
        <ele>18.88</ele>
        <time>2021-07-07T19:08:27Z</time>
      </trkpt>
      <trkpt lat="44.75496" lon="-0.58584">
        <ele>21.29</ele>
        <time>2021-07-07T19:08:38Z</time>
      </trkpt>
      <trkpt lat="44.75542" lon="-0.58544">
        <ele>22.25</ele>
        <time>2021-07-07T19:08:43Z</time>
      </trkpt>
      <trkpt lat="44.75555" lon="-0.58533">
        <ele>22.25</ele>
        <time>2021-07-07T19:08:44Z</time>
      </trkpt>
      <trkpt lat="44.75555" lon="-0.58533">
        <ele>22.25</ele>
        <time>2021-07-07T19:08:45Z</time>
      </trkpt>
      <trkpt lat="44.75554" lon="-0.58516">
        <ele>22.25</ele>
        <time>2021-07-07T19:08:47Z</time>
      </trkpt>
      <trkpt lat="44.75561" lon="-0.58505">
        <ele>22.25</ele>
        <time>2021-07-07T19:08:48Z</time>
      </trkpt>
      <trkpt lat="44.75566" lon="-0.58503">
        <ele>22.73</ele>
        <time>2021-07-07T19:08:49Z</time>
      </trkpt>
      <trkpt lat="44.75571" lon="-0.585">
        <ele>22.73</ele>
        <time>2021-07-07T19:08:50Z</time>
      </trkpt>
      <trkpt lat="44.75584" lon="-0.58507">
        <ele>22.73</ele>
        <time>2021-07-07T19:08:51Z</time>
      </trkpt>
      <trkpt lat="44.75587" lon="-0.58504">
        <ele>23.21</ele>
        <time>2021-07-07T19:08:53Z</time>
      </trkpt>
      <trkpt lat="44.7559" lon="-0.58502">
        <ele>23.21</ele>
        <time>2021-07-07T19:08:54Z</time>
      </trkpt>
      <trkpt lat="44.75593" lon="-0.58499">
        <ele>23.69</ele>
        <time>2021-07-07T19:08:55Z</time>
      </trkpt>
      <trkpt lat="44.75596" lon="-0.58496">
        <ele>24.17</ele>
        <time>2021-07-07T19:08:56Z</time>
      </trkpt>
      <trkpt lat="44.75599" lon="-0.58493">
        <ele>24.17</ele>
        <time>2021-07-07T19:08:57Z</time>
      </trkpt>
      <trkpt lat="44.75599" lon="-0.58493">
        <ele>24.17</ele>
        <time>2021-07-07T19:09:16Z</time>
      </trkpt>
      <trkpt lat="44.75617" lon="-0.58479">
        <ele>23.69</ele>
        <time>2021-07-07T19:09:39Z</time>
      </trkpt>
      <trkpt lat="44.75646" lon="-0.58454">
        <ele>24.17</ele>
        <time>2021-07-07T19:09:56Z</time>
      </trkpt>
      <trkpt lat="44.75665" lon="-0.58438">
        <ele>23.21</ele>
        <time>2021-07-07T19:10:42Z</time>
      </trkpt>
      <trkpt lat="44.75698" lon="-0.58409">
        <ele>24.17</ele>
        <time>2021-07-07T19:10:54Z</time>
      </trkpt>
      <trkpt lat="44.75714" lon="-0.58396">
        <ele>24.17</ele>
        <time>2021-07-07T19:11:43Z</time>
      </trkpt>
      <trkpt lat="44.75743" lon="-0.5837">
        <ele>23.69</ele>
        <time>2021-07-07T19:11:53Z</time>
      </trkpt>
      <trkpt lat="44.75777" lon="-0.58346">
        <ele>23.69</ele>
        <time>2021-07-07T19:12:01Z</time>
      </trkpt>
      <trkpt lat="44.75774" lon="-0.58335">
        <ele>23.69</ele>
        <time>2021-07-07T19:12:02Z</time>
      </trkpt>
      <trkpt lat="44.75773" lon="-0.58329">
        <ele>23.21</ele>
        <time>2021-07-07T19:12:03Z</time>
      </trkpt>
      <trkpt lat="44.75772" lon="-0.58324">
        <ele>23.21</ele>
        <time>2021-07-07T19:12:04Z</time>
      </trkpt>
      <trkpt lat="44.75771" lon="-0.58317">
        <ele>22.73</ele>
        <time>2021-07-07T19:12:05Z</time>
      </trkpt>
      <trkpt lat="44.75769" lon="-0.58311">
        <ele>22.25</ele>
        <time>2021-07-07T19:12:06Z</time>
      </trkpt>
      <trkpt lat="44.75768" lon="-0.58303">
        <ele>22.25</ele>
        <time>2021-07-07T19:12:07Z</time>
      </trkpt>
      <trkpt lat="44.75766" lon="-0.58295">
        <ele>21.77</ele>
        <time>2021-07-07T19:12:08Z</time>
      </trkpt>
      <trkpt lat="44.75766" lon="-0.58285">
        <ele>22.25</ele>
        <time>2021-07-07T19:12:09Z</time>
      </trkpt>
      <trkpt lat="44.75766" lon="-0.58274">
        <ele>22.25</ele>
        <time>2021-07-07T19:12:10Z</time>
      </trkpt>
      <trkpt lat="44.7577" lon="-0.58118">
        <ele>19.36</ele>
        <time>2021-07-07T19:12:20Z</time>
      </trkpt>
      <trkpt lat="44.75768" lon="-0.57901">
        <ele>20.81</ele>
        <time>2021-07-07T19:12:33Z</time>
      </trkpt>
      <trkpt lat="44.75762" lon="-0.57661">
        <ele>23.69</ele>
        <time>2021-07-07T19:12:47Z</time>
      </trkpt>
      <trkpt lat="44.75756" lon="-0.57484">
        <ele>23.21</ele>
        <time>2021-07-07T19:12:59Z</time>
      </trkpt>
      <trkpt lat="44.75751" lon="-0.57439">
        <ele>24.17</ele>
        <time>2021-07-07T19:13:03Z</time>
      </trkpt>
      <trkpt lat="44.75747" lon="-0.57424">
        <ele>23.69</ele>
        <time>2021-07-07T19:13:04Z</time>
      </trkpt>
      <trkpt lat="44.75743" lon="-0.57411">
        <ele>23.21</ele>
        <time>2021-07-07T19:13:05Z</time>
      </trkpt>
      <trkpt lat="44.75686" lon="-0.57274">
        <ele>22.25</ele>
        <time>2021-07-07T19:13:17Z</time>
      </trkpt>
      <trkpt lat="44.7567" lon="-0.5725">
        <ele>22.25</ele>
        <time>2021-07-07T19:13:28Z</time>
      </trkpt>
      <trkpt lat="44.75665" lon="-0.57243">
        <ele>22.73</ele>
        <time>2021-07-07T19:13:32Z</time>
      </trkpt>
      <trkpt lat="44.75652" lon="-0.57246">
        <ele>22.25</ele>
        <time>2021-07-07T19:13:35Z</time>
      </trkpt>
      <trkpt lat="44.75649" lon="-0.57234">
        <ele>22.25</ele>
        <time>2021-07-07T19:13:36Z</time>
      </trkpt>
      <trkpt lat="44.75648" lon="-0.57229">
        <ele>22.25</ele>
        <time>2021-07-07T19:13:37Z</time>
      </trkpt>
      <trkpt lat="44.75648" lon="-0.57224">
        <ele>22.25</ele>
        <time>2021-07-07T19:13:38Z</time>
      </trkpt>
      <trkpt lat="44.75653" lon="-0.57217">
        <ele>22.25</ele>
        <time>2021-07-07T19:13:39Z</time>
      </trkpt>
      <trkpt lat="44.75656" lon="-0.57216">
        <ele>22.25</ele>
        <time>2021-07-07T19:13:40Z</time>
      </trkpt>
      <trkpt lat="44.75656" lon="-0.57216">
        <ele>22.25</ele>
        <time>2021-07-07T19:13:41Z</time>
      </trkpt>
      <trkpt lat="44.75668" lon="-0.57222">
        <ele>22.25</ele>
        <time>2021-07-07T19:13:42Z</time>
      </trkpt>
      <trkpt lat="44.75673" lon="-0.57217">
        <ele>22.25</ele>
        <time>2021-07-07T19:13:43Z</time>
      </trkpt>
      <trkpt lat="44.75678" lon="-0.57211">
        <ele>22.25</ele>
        <time>2021-07-07T19:13:44Z</time>
      </trkpt>
      <trkpt lat="44.75684" lon="-0.57204">
        <ele>21.77</ele>
        <time>2021-07-07T19:13:45Z</time>
      </trkpt>
      <trkpt lat="44.75772" lon="-0.57077">
        <ele>23.69</ele>
        <time>2021-07-07T19:13:57Z</time>
      </trkpt>
      <trkpt lat="44.75839" lon="-0.56973">
        <ele>23.69</ele>
        <time>2021-07-07T19:14:08Z</time>
      </trkpt>
      <trkpt lat="44.75845" lon="-0.56953">
        <ele>23.69</ele>
        <time>2021-07-07T19:14:09Z</time>
      </trkpt>
      <trkpt lat="44.75845" lon="-0.56953">
        <ele>23.69</ele>
        <time>2021-07-07T19:14:10Z</time>
      </trkpt>
      <trkpt lat="44.75847" lon="-0.56942">
        <ele>23.21</ele>
        <time>2021-07-07T19:14:11Z</time>
      </trkpt>
      <trkpt lat="44.75849" lon="-0.5693">
        <ele>23.21</ele>
        <time>2021-07-07T19:14:12Z</time>
      </trkpt>
      <trkpt lat="44.75849" lon="-0.56919">
        <ele>23.21</ele>
        <time>2021-07-07T19:14:13Z</time>
      </trkpt>
      <trkpt lat="44.75848" lon="-0.56906">
        <ele>23.21</ele>
        <time>2021-07-07T19:14:14Z</time>
      </trkpt>
      <trkpt lat="44.75846" lon="-0.56867">
        <ele>21.29</ele>
        <time>2021-07-07T19:14:17Z</time>
      </trkpt>
      <trkpt lat="44.75846" lon="-0.56854">
        <ele>21.29</ele>
        <time>2021-07-07T19:14:18Z</time>
      </trkpt>
      <trkpt lat="44.75848" lon="-0.56841">
        <ele>21.29</ele>
        <time>2021-07-07T19:14:19Z</time>
      </trkpt>
      <trkpt lat="44.75854" lon="-0.56814">
        <ele>20.32</ele>
        <time>2021-07-07T19:14:20Z</time>
      </trkpt>
      <trkpt lat="44.75854" lon="-0.56814">
        <ele>20.32</ele>
        <time>2021-07-07T19:14:21Z</time>
      </trkpt>
      <trkpt lat="44.75862" lon="-0.56791">
        <ele>20.32</ele>
        <time>2021-07-07T19:14:22Z</time>
      </trkpt>
      <trkpt lat="44.75884" lon="-0.56709">
        <ele>19.36</ele>
        <time>2021-07-07T19:14:30Z</time>
      </trkpt>
      <trkpt lat="44.75888" lon="-0.56697">
        <ele>18.88</ele>
        <time>2021-07-07T19:14:31Z</time>
      </trkpt>
      <trkpt lat="44.75892" lon="-0.56687">
        <ele>18.88</ele>
        <time>2021-07-07T19:14:32Z</time>
      </trkpt>
      <trkpt lat="44.75897" lon="-0.56677">
        <ele>18.4</ele>
        <time>2021-07-07T19:14:33Z</time>
      </trkpt>
      <trkpt lat="44.75902" lon="-0.56669">
        <ele>18.4</ele>
        <time>2021-07-07T19:14:34Z</time>
      </trkpt>
      <trkpt lat="44.7594" lon="-0.56615">
        <ele>18.88</ele>
        <time>2021-07-07T19:14:40Z</time>
      </trkpt>
      <trkpt lat="44.75951" lon="-0.56593">
        <ele>18.4</ele>
        <time>2021-07-07T19:14:41Z</time>
      </trkpt>
      <trkpt lat="44.75951" lon="-0.56593">
        <ele>17.92</ele>
        <time>2021-07-07T19:14:42Z</time>
      </trkpt>
      <trkpt lat="44.75954" lon="-0.5658">
        <ele>16.96</ele>
        <time>2021-07-07T19:14:43Z</time>
      </trkpt>
      <trkpt lat="44.75958" lon="-0.56567">
        <ele>16.48</ele>
        <time>2021-07-07T19:14:44Z</time>
      </trkpt>
      <trkpt lat="44.7596" lon="-0.56553">
        <ele>16.48</ele>
        <time>2021-07-07T19:14:45Z</time>
      </trkpt>
      <trkpt lat="44.75962" lon="-0.56537">
        <ele>16.96</ele>
        <time>2021-07-07T19:14:46Z</time>
      </trkpt>
      <trkpt lat="44.75963" lon="-0.56521">
        <ele>16.48</ele>
        <time>2021-07-07T19:14:47Z</time>
      </trkpt>
      <trkpt lat="44.75963" lon="-0.56504">
        <ele>15.52</ele>
        <time>2021-07-07T19:14:48Z</time>
      </trkpt>
      <trkpt lat="44.75964" lon="-0.56422">
        <ele>13.12</ele>
        <time>2021-07-07T19:14:54Z</time>
      </trkpt>
      <trkpt lat="44.75965" lon="-0.56412">
        <ele>13.12</ele>
        <time>2021-07-07T19:14:55Z</time>
      </trkpt>
      <trkpt lat="44.75989" lon="-0.56331">
        <ele>13.12</ele>
        <time>2021-07-07T19:15:05Z</time>
      </trkpt>
      <trkpt lat="44.76026" lon="-0.56269">
        <ele>14.08</ele>
        <time>2021-07-07T19:15:17Z</time>
      </trkpt>
      <trkpt lat="44.76069" lon="-0.56201">
        <ele>14.56</ele>
        <time>2021-07-07T19:15:31Z</time>
      </trkpt>
      <trkpt lat="44.76069" lon="-0.56201">
        <ele>15.52</ele>
        <time>2021-07-07T19:15:52Z</time>
      </trkpt>
      <trkpt lat="44.76085" lon="-0.56175">
        <ele>14.56</ele>
        <time>2021-07-07T19:16:10Z</time>
      </trkpt>
      <trkpt lat="44.76122" lon="-0.56111">
        <ele>14.08</ele>
        <time>2021-07-07T19:16:20Z</time>
      </trkpt>
      <trkpt lat="44.76135" lon="-0.56089">
        <ele>14.56</ele>
        <time>2021-07-07T19:16:30Z</time>
      </trkpt>
      <trkpt lat="44.76138" lon="-0.56084">
        <ele>14.56</ele>
        <time>2021-07-07T19:16:51Z</time>
      </trkpt>
      <trkpt lat="44.76147" lon="-0.56069">
        <ele>14.56</ele>
        <time>2021-07-07T19:17:05Z</time>
      </trkpt>
      <trkpt lat="44.76177" lon="-0.56006">
        <ele>14.08</ele>
        <time>2021-07-07T19:17:15Z</time>
      </trkpt>
      <trkpt lat="44.76189" lon="-0.55978">
        <ele>14.08</ele>
        <time>2021-07-07T19:17:25Z</time>
      </trkpt>
      <trkpt lat="44.76201" lon="-0.55952">
        <ele>13.6</ele>
        <time>2021-07-07T19:18:07Z</time>
      </trkpt>
      <trkpt lat="44.76217" lon="-0.55914">
        <ele>13.6</ele>
        <time>2021-07-07T19:18:18Z</time>
      </trkpt>
      <trkpt lat="44.76224" lon="-0.55896">
        <ele>13.6</ele>
        <time>2021-07-07T19:18:23Z</time>
      </trkpt>
      <trkpt lat="44.76232" lon="-0.55899">
        <ele>13.12</ele>
        <time>2021-07-07T19:18:24Z</time>
      </trkpt>
      <trkpt lat="44.76235" lon="-0.55903">
        <ele>13.12</ele>
        <time>2021-07-07T19:18:25Z</time>
      </trkpt>
      <trkpt lat="44.76291" lon="-0.55956">
        <ele>12.15</ele>
        <time>2021-07-07T19:18:34Z</time>
      </trkpt>
      <trkpt lat="44.76433" lon="-0.56095">
        <ele>12.15</ele>
        <time>2021-07-07T19:18:49Z</time>
      </trkpt>
      <trkpt lat="44.76648" lon="-0.563">
        <ele>19.36</ele>
        <time>2021-07-07T19:19:10Z</time>
      </trkpt>
      <trkpt lat="44.76667" lon="-0.56316">
        <ele>18.88</ele>
        <time>2021-07-07T19:19:15Z</time>
      </trkpt>
      <trkpt lat="44.76719" lon="-0.56343">
        <ele>18.88</ele>
        <time>2021-07-07T19:19:22Z</time>
      </trkpt>
      <trkpt lat="44.76854" lon="-0.56369">
        <ele>18.88</ele>
        <time>2021-07-07T19:19:32Z</time>
      </trkpt>
      <trkpt lat="44.76913" lon="-0.5638">
        <ele>18.4</ele>
        <time>2021-07-07T19:19:39Z</time>
      </trkpt>
      <trkpt lat="44.76926" lon="-0.56382">
        <ele>19.36</ele>
        <time>2021-07-07T19:19:46Z</time>
      </trkpt>
      <trkpt lat="44.76947" lon="-0.56386">
        <ele>18.88</ele>
        <time>2021-07-07T19:20:01Z</time>
      </trkpt>
      <trkpt lat="44.77046" lon="-0.56403">
        <ele>18.4</ele>
        <time>2021-07-07T19:20:12Z</time>
      </trkpt>
      <trkpt lat="44.77144" lon="-0.5641">
        <ele>19.36</ele>
        <time>2021-07-07T19:20:22Z</time>
      </trkpt>
      <trkpt lat="44.77151" lon="-0.56407">
        <ele>19.36</ele>
        <time>2021-07-07T19:20:24Z</time>
      </trkpt>
      <trkpt lat="44.77154" lon="-0.56406">
        <ele>19.36</ele>
        <time>2021-07-07T19:20:25Z</time>
      </trkpt>
      <trkpt lat="44.77164" lon="-0.56417">
        <ele>19.36</ele>
        <time>2021-07-07T19:20:26Z</time>
      </trkpt>
      <trkpt lat="44.7717" lon="-0.56419">
        <ele>18.88</ele>
        <time>2021-07-07T19:20:27Z</time>
      </trkpt>
      <trkpt lat="44.77185" lon="-0.56424">
        <ele>19.36</ele>
        <time>2021-07-07T19:20:28Z</time>
      </trkpt>
      <trkpt lat="44.77185" lon="-0.56424">
        <ele>19.36</ele>
        <time>2021-07-07T19:20:29Z</time>
      </trkpt>
      <trkpt lat="44.77306" lon="-0.56449">
        <ele>16.96</ele>
        <time>2021-07-07T19:20:40Z</time>
      </trkpt>
      <trkpt lat="44.77452" lon="-0.56459">
        <ele>15.04</ele>
        <time>2021-07-07T19:20:54Z</time>
      </trkpt>
      <trkpt lat="44.77464" lon="-0.56456">
        <ele>14.56</ele>
        <time>2021-07-07T19:20:55Z</time>
      </trkpt>
      <trkpt lat="44.77464" lon="-0.56456">
        <ele>14.56</ele>
        <time>2021-07-07T19:20:56Z</time>
      </trkpt>
      <trkpt lat="44.77468" lon="-0.56454">
        <ele>14.08</ele>
        <time>2021-07-07T19:20:57Z</time>
      </trkpt>
      <trkpt lat="44.77473" lon="-0.56449">
        <ele>14.08</ele>
        <time>2021-07-07T19:20:58Z</time>
      </trkpt>
      <trkpt lat="44.77481" lon="-0.56444">
        <ele>13.6</ele>
        <time>2021-07-07T19:20:59Z</time>
      </trkpt>
      <trkpt lat="44.77487" lon="-0.56444">
        <ele>13.6</ele>
        <time>2021-07-07T19:21:00Z</time>
      </trkpt>
      <trkpt lat="44.77493" lon="-0.56444">
        <ele>13.6</ele>
        <time>2021-07-07T19:21:01Z</time>
      </trkpt>
      <trkpt lat="44.77507" lon="-0.56452">
        <ele>13.12</ele>
        <time>2021-07-07T19:21:03Z</time>
      </trkpt>
      <trkpt lat="44.7752" lon="-0.56447">
        <ele>13.12</ele>
        <time>2021-07-07T19:21:05Z</time>
      </trkpt>
      <trkpt lat="44.77528" lon="-0.5645">
        <ele>12.63</ele>
        <time>2021-07-07T19:21:06Z</time>
      </trkpt>
      <trkpt lat="44.77536" lon="-0.56453">
        <ele>12.63</ele>
        <time>2021-07-07T19:21:07Z</time>
      </trkpt>
      <trkpt lat="44.77551" lon="-0.56459">
        <ele>12.15</ele>
        <time>2021-07-07T19:21:09Z</time>
      </trkpt>
      <trkpt lat="44.77559" lon="-0.56462">
        <ele>12.15</ele>
        <time>2021-07-07T19:21:10Z</time>
      </trkpt>
      <trkpt lat="44.77687" lon="-0.56511">
        <ele>8.31</ele>
        <time>2021-07-07T19:21:24Z</time>
      </trkpt>
      <trkpt lat="44.77702" lon="-0.5652">
        <ele>8.31</ele>
        <time>2021-07-07T19:21:26Z</time>
      </trkpt>
      <trkpt lat="44.77709" lon="-0.56525">
        <ele>7.83</ele>
        <time>2021-07-07T19:21:27Z</time>
      </trkpt>
      <trkpt lat="44.77712" lon="-0.56531">
        <ele>7.83</ele>
        <time>2021-07-07T19:21:28Z</time>
      </trkpt>
      <trkpt lat="44.77715" lon="-0.56538">
        <ele>7.83</ele>
        <time>2021-07-07T19:21:29Z</time>
      </trkpt>
      <trkpt lat="44.77718" lon="-0.56544">
        <ele>7.35</ele>
        <time>2021-07-07T19:21:30Z</time>
      </trkpt>
      <trkpt lat="44.77718" lon="-0.56545">
        <ele>7.35</ele>
        <time>2021-07-07T19:21:31Z</time>
      </trkpt>
      <trkpt lat="44.77718" lon="-0.56546">
        <ele>6.39</ele>
        <time>2021-07-07T19:21:39Z</time>
      </trkpt>
      <trkpt lat="44.77716" lon="-0.56589">
        <ele>7.35</ele>
        <time>2021-07-07T19:21:53Z</time>
      </trkpt>
      <trkpt lat="44.77714" lon="-0.56607">
        <ele>7.83</ele>
        <time>2021-07-07T19:22:10Z</time>
      </trkpt>
      <trkpt lat="44.77713" lon="-0.56613">
        <ele>8.31</ele>
        <time>2021-07-07T19:22:24Z</time>
      </trkpt>
      <trkpt lat="44.77713" lon="-0.56631">
        <ele>9.27</ele>
        <time>2021-07-07T19:22:45Z</time>
      </trkpt>
      <trkpt lat="44.77713" lon="-0.5664">
        <ele>9.27</ele>
        <time>2021-07-07T19:23:00Z</time>
      </trkpt>
      <trkpt lat="44.77721" lon="-0.56669">
        <ele>9.75</ele>
        <time>2021-07-07T19:23:14Z</time>
      </trkpt>
      <trkpt lat="44.77731" lon="-0.56713">
        <ele>9.27</ele>
        <time>2021-07-07T19:23:31Z</time>
      </trkpt>
      <trkpt lat="44.77765" lon="-0.56763">
        <ele>8.31</ele>
        <time>2021-07-07T19:23:43Z</time>
      </trkpt>
      <trkpt lat="44.77775" lon="-0.56767">
        <ele>8.79</ele>
        <time>2021-07-07T19:23:52Z</time>
      </trkpt>
      <trkpt lat="44.77795" lon="-0.56769">
        <ele>8.79</ele>
        <time>2021-07-07T19:24:01Z</time>
      </trkpt>
      <trkpt lat="44.77799" lon="-0.56765">
        <ele>9.27</ele>
        <time>2021-07-07T19:24:15Z</time>
      </trkpt>
      <trkpt lat="44.77818" lon="-0.56745">
        <ele>8.79</ele>
        <time>2021-07-07T19:24:27Z</time>
      </trkpt>
      <trkpt lat="44.77826" lon="-0.56703">
        <ele>8.79</ele>
        <time>2021-07-07T19:24:38Z</time>
      </trkpt>
      <trkpt lat="44.77822" lon="-0.5663">
        <ele>9.75</ele>
        <time>2021-07-07T19:24:51Z</time>
      </trkpt>
      <trkpt lat="44.77821" lon="-0.56624">
        <ele>9.75</ele>
        <time>2021-07-07T19:24:52Z</time>
      </trkpt>
      <trkpt lat="44.77816" lon="-0.566">
        <ele>9.75</ele>
        <time>2021-07-07T19:25:03Z</time>
      </trkpt>
      <trkpt lat="44.7781" lon="-0.56564">
        <ele>7.83</ele>
        <time>2021-07-07T19:25:19Z</time>
      </trkpt>
      <trkpt lat="44.77807" lon="-0.5655">
        <ele>7.35</ele>
        <time>2021-07-07T19:25:32Z</time>
      </trkpt>
      <trkpt lat="44.77804" lon="-0.56529">
        <ele>7.35</ele>
        <time>2021-07-07T19:25:47Z</time>
      </trkpt>
      <trkpt lat="44.77799" lon="-0.565">
        <ele>7.35</ele>
        <time>2021-07-07T19:26:03Z</time>
      </trkpt>
      <trkpt lat="44.77799" lon="-0.56498">
        <ele>7.35</ele>
        <time>2021-07-07T19:26:20Z</time>
      </trkpt>
      <trkpt lat="44.77799" lon="-0.56498">
        <ele>7.35</ele>
        <time>2021-07-07T19:26:41Z</time>
      </trkpt>
      <trkpt lat="44.77788" lon="-0.56434">
        <ele>7.35</ele>
        <time>2021-07-07T19:26:55Z</time>
      </trkpt>
      <trkpt lat="44.77779" lon="-0.5638">
        <ele>7.35</ele>
        <time>2021-07-07T19:27:10Z</time>
      </trkpt>
      <trkpt lat="44.77771" lon="-0.56311">
        <ele>7.35</ele>
        <time>2021-07-07T19:27:23Z</time>
      </trkpt>
      <trkpt lat="44.77761" lon="-0.56225">
        <ele>7.35</ele>
        <time>2021-07-07T19:27:36Z</time>
      </trkpt>
      <trkpt lat="44.77757" lon="-0.56127">
        <ele>6.87</ele>
        <time>2021-07-07T19:27:50Z</time>
      </trkpt>
      <trkpt lat="44.77758" lon="-0.55987">
        <ele>6.39</ele>
        <time>2021-07-07T19:28:05Z</time>
      </trkpt>
      <trkpt lat="44.77766" lon="-0.55879">
        <ele>6.87</ele>
        <time>2021-07-07T19:28:14Z</time>
      </trkpt>
      <trkpt lat="44.77793" lon="-0.55706">
        <ele>6.87</ele>
        <time>2021-07-07T19:28:23Z</time>
      </trkpt>
      <trkpt lat="44.77841" lon="-0.55476">
        <ele>8.31</ele>
        <time>2021-07-07T19:28:36Z</time>
      </trkpt>
      <trkpt lat="44.77867" lon="-0.5535">
        <ele>8.31</ele>
        <time>2021-07-07T19:28:47Z</time>
      </trkpt>
      <trkpt lat="44.77891" lon="-0.55245">
        <ele>8.31</ele>
        <time>2021-07-07T19:28:55Z</time>
      </trkpt>
      <trkpt lat="44.77946" lon="-0.54994">
        <ele>9.27</ele>
        <time>2021-07-07T19:29:11Z</time>
      </trkpt>
      <trkpt lat="44.77995" lon="-0.54768">
        <ele>7.35</ele>
        <time>2021-07-07T19:29:25Z</time>
      </trkpt>
      <trkpt lat="44.7807" lon="-0.54544">
        <ele>4.94</ele>
        <time>2021-07-07T19:29:36Z</time>
      </trkpt>
      <trkpt lat="44.78195" lon="-0.54351">
        <ele>2.54</ele>
        <time>2021-07-07T19:29:46Z</time>
      </trkpt>
      <trkpt lat="44.78321" lon="-0.54243">
        <ele>-1.3</ele>
        <time>2021-07-07T19:29:55Z</time>
      </trkpt>
      <trkpt lat="44.78481" lon="-0.54177">
        <ele>-1.3</ele>
        <time>2021-07-07T19:30:04Z</time>
      </trkpt>
      <trkpt lat="44.78645" lon="-0.54138">
        <ele>-0.82</ele>
        <time>2021-07-07T19:30:13Z</time>
      </trkpt>
      <trkpt lat="44.78859" lon="-0.54088">
        <ele>-0.82</ele>
        <time>2021-07-07T19:30:28Z</time>
      </trkpt>
      <trkpt lat="44.79013" lon="-0.54053">
        <ele>-0.34</ele>
        <time>2021-07-07T19:30:41Z</time>
      </trkpt>
      <trkpt lat="44.79135" lon="-0.54025">
        <ele>-1.3</ele>
        <time>2021-07-07T19:30:54Z</time>
      </trkpt>
      <trkpt lat="44.79273" lon="-0.53989">
        <ele>-2.27</ele>
        <time>2021-07-07T19:31:09Z</time>
      </trkpt>
      <trkpt lat="44.79391" lon="-0.53949">
        <ele>-4.19</ele>
        <time>2021-07-07T19:31:22Z</time>
      </trkpt>
      <trkpt lat="44.79484" lon="-0.53906">
        <ele>-4.67</ele>
        <time>2021-07-07T19:31:35Z</time>
      </trkpt>
      <trkpt lat="44.79593" lon="-0.53851">
        <ele>-3.23</ele>
        <time>2021-07-07T19:31:51Z</time>
      </trkpt>
      <trkpt lat="44.79701" lon="-0.53786">
        <ele>-4.67</ele>
        <time>2021-07-07T19:32:02Z</time>
      </trkpt>
      <trkpt lat="44.79846" lon="-0.53675">
        <ele>-5.63</ele>
        <time>2021-07-07T19:32:16Z</time>
      </trkpt>
      <trkpt lat="44.79957" lon="-0.5358">
        <ele>-5.15</ele>
        <time>2021-07-07T19:32:31Z</time>
      </trkpt>
      <trkpt lat="44.80005" lon="-0.53539">
        <ele>-5.15</ele>
        <time>2021-07-07T19:32:43Z</time>
      </trkpt>
      <trkpt lat="44.80034" lon="-0.53513">
        <ele>-4.67</ele>
        <time>2021-07-07T19:32:58Z</time>
      </trkpt>
      <trkpt lat="44.80067" lon="-0.53483">
        <ele>-4.67</ele>
        <time>2021-07-07T19:33:12Z</time>
      </trkpt>
      <trkpt lat="44.80111" lon="-0.53444">
        <ele>-5.15</ele>
        <time>2021-07-07T19:33:25Z</time>
      </trkpt>
      <trkpt lat="44.80175" lon="-0.53391">
        <ele>-5.63</ele>
        <time>2021-07-07T19:33:38Z</time>
      </trkpt>
      <trkpt lat="44.80283" lon="-0.53307">
        <ele>-6.11</ele>
        <time>2021-07-07T19:33:52Z</time>
      </trkpt>
      <trkpt lat="44.80401" lon="-0.53228">
        <ele>-6.11</ele>
        <time>2021-07-07T19:34:06Z</time>
      </trkpt>
      <trkpt lat="44.80519" lon="-0.53097">
        <ele>-2.27</ele>
        <time>2021-07-07T19:34:18Z</time>
      </trkpt>
      <trkpt lat="44.8064" lon="-0.52919">
        <ele>1.58</ele>
        <time>2021-07-07T19:34:31Z</time>
      </trkpt>
      <trkpt lat="44.80763" lon="-0.52734">
        <ele>2.06</ele>
        <time>2021-07-07T19:34:43Z</time>
      </trkpt>
      <trkpt lat="44.80891" lon="-0.52541">
        <ele>1.58</ele>
        <time>2021-07-07T19:34:57Z</time>
      </trkpt>
      <trkpt lat="44.8096" lon="-0.52437">
        <ele>-0.82</ele>
        <time>2021-07-07T19:35:09Z</time>
      </trkpt>
      <trkpt lat="44.81007" lon="-0.5237">
        <ele>-2.27</ele>
        <time>2021-07-07T19:35:21Z</time>
      </trkpt>
      <trkpt lat="44.81041" lon="-0.52321">
        <ele>-3.23</ele>
        <time>2021-07-07T19:35:33Z</time>
      </trkpt>
      <trkpt lat="44.81046" lon="-0.52313">
        <ele>-3.23</ele>
        <time>2021-07-07T19:35:47Z</time>
      </trkpt>
      <trkpt lat="44.81094" lon="-0.52253">
        <ele>-3.71</ele>
        <time>2021-07-07T19:36:02Z</time>
      </trkpt>
      <trkpt lat="44.81149" lon="-0.52197">
        <ele>-4.19</ele>
        <time>2021-07-07T19:36:11Z</time>
      </trkpt>
      <trkpt lat="44.81166" lon="-0.52181">
        <ele>-6.11</ele>
        <time>2021-07-07T19:36:13Z</time>
      </trkpt>
      <trkpt lat="44.81174" lon="-0.52173">
        <ele>-4.67</ele>
        <time>2021-07-07T19:36:14Z</time>
      </trkpt>
      <trkpt lat="44.81185" lon="-0.52165">
        <ele>-5.15</ele>
        <time>2021-07-07T19:36:19Z</time>
      </trkpt>
      <trkpt lat="44.8139" lon="-0.52065">
        <ele>-5.15</ele>
        <time>2021-07-07T19:36:29Z</time>
      </trkpt>
      <trkpt lat="44.81552" lon="-0.5206">
        <ele>-6.11</ele>
        <time>2021-07-07T19:36:40Z</time>
      </trkpt>
      <trkpt lat="44.81653" lon="-0.52074">
        <ele>-5.15</ele>
        <time>2021-07-07T19:36:50Z</time>
      </trkpt>
      <trkpt lat="44.81693" lon="-0.5208">
        <ele>-6.11</ele>
        <time>2021-07-07T19:36:58Z</time>
      </trkpt>
      <trkpt lat="44.81712" lon="-0.52078">
        <ele>-5.63</ele>
        <time>2021-07-07T19:37:28Z</time>
      </trkpt>
      <trkpt lat="44.81759" lon="-0.52075">
        <ele>-5.15</ele>
        <time>2021-07-07T19:37:43Z</time>
      </trkpt>
      <trkpt lat="44.81848" lon="-0.52049">
        <ele>-4.67</ele>
        <time>2021-07-07T19:37:58Z</time>
      </trkpt>
      <trkpt lat="44.81963" lon="-0.51974">
        <ele>-4.67</ele>
        <time>2021-07-07T19:38:13Z</time>
      </trkpt>
      <trkpt lat="44.82038" lon="-0.51892">
        <ele>-4.67</ele>
        <time>2021-07-07T19:38:28Z</time>
      </trkpt>
      <trkpt lat="44.82085" lon="-0.51823">
        <ele>-4.67</ele>
        <time>2021-07-07T19:38:41Z</time>
      </trkpt>
      <trkpt lat="44.82125" lon="-0.5174">
        <ele>-4.67</ele>
        <time>2021-07-07T19:38:51Z</time>
      </trkpt>
      <trkpt lat="44.82157" lon="-0.51652">
        <ele>-3.23</ele>
        <time>2021-07-07T19:39:02Z</time>
      </trkpt>
      <trkpt lat="44.82211" lon="-0.51468">
        <ele>-0.82</ele>
        <time>2021-07-07T19:39:15Z</time>
      </trkpt>
      <trkpt lat="44.82281" lon="-0.51318">
        <ele>1.58</ele>
        <time>2021-07-07T19:39:26Z</time>
      </trkpt>
      <trkpt lat="44.82349" lon="-0.51205">
        <ele>2.54</ele>
        <time>2021-07-07T19:39:39Z</time>
      </trkpt>
      <trkpt lat="44.82424" lon="-0.51115">
        <ele>3.02</ele>
        <time>2021-07-07T19:39:54Z</time>
      </trkpt>
      <trkpt lat="44.82471" lon="-0.51068">
        <ele>3.02</ele>
        <time>2021-07-07T19:40:08Z</time>
      </trkpt>
      <trkpt lat="44.8251" lon="-0.5103">
        <ele>3.5</ele>
        <time>2021-07-07T19:40:19Z</time>
      </trkpt>
      <trkpt lat="44.82582" lon="-0.50945">
        <ele>5.42</ele>
        <time>2021-07-07T19:40:29Z</time>
      </trkpt>
      <trkpt lat="44.82682" lon="-0.50791">
        <ele>5.42</ele>
        <time>2021-07-07T19:40:41Z</time>
      </trkpt>
      <trkpt lat="44.8276" lon="-0.50615">
        <ele>8.79</ele>
        <time>2021-07-07T19:40:53Z</time>
      </trkpt>
      <trkpt lat="44.82781" lon="-0.5055">
        <ele>10.23</ele>
        <time>2021-07-07T19:41:01Z</time>
      </trkpt>
      <trkpt lat="44.82796" lon="-0.50505">
        <ele>11.67</ele>
        <time>2021-07-07T19:41:12Z</time>
      </trkpt>
      <trkpt lat="44.82823" lon="-0.50431">
        <ele>13.6</ele>
        <time>2021-07-07T19:41:24Z</time>
      </trkpt>
      <trkpt lat="44.82848" lon="-0.5038">
        <ele>15.52</ele>
        <time>2021-07-07T19:41:36Z</time>
      </trkpt>
      <trkpt lat="44.82883" lon="-0.50319">
        <ele>18.4</ele>
        <time>2021-07-07T19:41:51Z</time>
      </trkpt>
      <trkpt lat="44.8292" lon="-0.50266">
        <ele>21.29</ele>
        <time>2021-07-07T19:42:07Z</time>
      </trkpt>
      <trkpt lat="44.82948" lon="-0.50235">
        <ele>23.21</ele>
        <time>2021-07-07T19:42:20Z</time>
      </trkpt>
      <trkpt lat="44.82988" lon="-0.50194">
        <ele>25.13</ele>
        <time>2021-07-07T19:42:34Z</time>
      </trkpt>
      <trkpt lat="44.8305" lon="-0.50147">
        <ele>26.09</ele>
        <time>2021-07-07T19:42:48Z</time>
      </trkpt>
      <trkpt lat="44.83113" lon="-0.50112">
        <ele>28.98</ele>
        <time>2021-07-07T19:42:58Z</time>
      </trkpt>
      <trkpt lat="44.83233" lon="-0.50056">
        <ele>32.82</ele>
        <time>2021-07-07T19:43:10Z</time>
      </trkpt>
      <trkpt lat="44.83326" lon="-0.50018">
        <ele>35.71</ele>
        <time>2021-07-07T19:43:20Z</time>
      </trkpt>
      <trkpt lat="44.83381" lon="-0.5">
        <ele>39.07</ele>
        <time>2021-07-07T19:43:30Z</time>
      </trkpt>
      <trkpt lat="44.83412" lon="-0.49993">
        <ele>42.44</ele>
        <time>2021-07-07T19:43:42Z</time>
      </trkpt>
      <trkpt lat="44.8347" lon="-0.49987">
        <ele>45.32</ele>
        <time>2021-07-07T19:44:03Z</time>
      </trkpt>
      <trkpt lat="44.83538" lon="-0.49988">
        <ele>48.68</ele>
        <time>2021-07-07T19:44:15Z</time>
      </trkpt>
      <trkpt lat="44.83653" lon="-0.50016">
        <ele>56.37</ele>
        <time>2021-07-07T19:44:31Z</time>
      </trkpt>
      <trkpt lat="44.83677" lon="-0.50025">
        <ele>57.34</ele>
        <time>2021-07-07T19:44:34Z</time>
      </trkpt>
      <trkpt lat="44.8379" lon="-0.50081">
        <ele>62.14</ele>
        <time>2021-07-07T19:44:45Z</time>
      </trkpt>
      <trkpt lat="44.8396" lon="-0.50142">
        <ele>71.27</ele>
        <time>2021-07-07T19:44:58Z</time>
      </trkpt>
      <trkpt lat="44.84131" lon="-0.50154">
        <ele>72.24</ele>
        <time>2021-07-07T19:45:10Z</time>
      </trkpt>
      <trkpt lat="44.84237" lon="-0.50149">
        <ele>69.83</ele>
        <time>2021-07-07T19:45:20Z</time>
      </trkpt>
      <trkpt lat="44.84272" lon="-0.50147">
        <ele>68.87</ele>
        <time>2021-07-07T19:45:28Z</time>
      </trkpt>
      <trkpt lat="44.84312" lon="-0.50148">
        <ele>68.39</ele>
        <time>2021-07-07T19:45:44Z</time>
      </trkpt>
      <trkpt lat="44.84316" lon="-0.50148">
        <ele>68.39</ele>
        <time>2021-07-07T19:45:45Z</time>
      </trkpt>
      <trkpt lat="44.84359" lon="-0.50152">
        <ele>64.55</ele>
        <time>2021-07-07T19:45:56Z</time>
      </trkpt>
      <trkpt lat="44.84382" lon="-0.50156">
        <ele>64.55</ele>
        <time>2021-07-07T19:46:13Z</time>
      </trkpt>
      <trkpt lat="44.84408" lon="-0.5016">
        <ele>63.58</ele>
        <time>2021-07-07T19:46:30Z</time>
      </trkpt>
      <trkpt lat="44.84428" lon="-0.50163">
        <ele>63.1</ele>
        <time>2021-07-07T19:46:51Z</time>
      </trkpt>
      <trkpt lat="44.84487" lon="-0.50183">
        <ele>62.62</ele>
        <time>2021-07-07T19:47:04Z</time>
      </trkpt>
      <trkpt lat="44.84544" lon="-0.50202">
        <ele>63.1</ele>
        <time>2021-07-07T19:47:18Z</time>
      </trkpt>
      <trkpt lat="44.84597" lon="-0.50223">
        <ele>61.18</ele>
        <time>2021-07-07T19:47:28Z</time>
      </trkpt>
      <trkpt lat="44.84604" lon="-0.50226">
        <ele>61.66</ele>
        <time>2021-07-07T19:47:43Z</time>
      </trkpt>
      <trkpt lat="44.84628" lon="-0.50235">
        <ele>61.66</ele>
        <time>2021-07-07T19:47:52Z</time>
      </trkpt>
      <trkpt lat="44.84699" lon="-0.50263">
        <ele>60.7</ele>
        <time>2021-07-07T19:48:07Z</time>
      </trkpt>
      <trkpt lat="44.84815" lon="-0.50309">
        <ele>59.26</ele>
        <time>2021-07-07T19:48:19Z</time>
      </trkpt>
      <trkpt lat="44.8492" lon="-0.50353">
        <ele>49.16</ele>
        <time>2021-07-07T19:48:28Z</time>
      </trkpt>
      <trkpt lat="44.84962" lon="-0.5037">
        <ele>46.28</ele>
        <time>2021-07-07T19:48:36Z</time>
      </trkpt>
      <trkpt lat="44.84962" lon="-0.5037">
        <ele>47.72</ele>
        <time>2021-07-07T19:48:47Z</time>
      </trkpt>
      <trkpt lat="44.84984" lon="-0.50379">
        <ele>47.24</ele>
        <time>2021-07-07T19:48:59Z</time>
      </trkpt>
      <trkpt lat="44.85064" lon="-0.50412">
        <ele>44.84</ele>
        <time>2021-07-07T19:49:12Z</time>
      </trkpt>
      <trkpt lat="44.85119" lon="-0.50435">
        <ele>44.84</ele>
        <time>2021-07-07T19:49:20Z</time>
      </trkpt>
      <trkpt lat="44.85261" lon="-0.50487">
        <ele>48.2</ele>
        <time>2021-07-07T19:49:31Z</time>
      </trkpt>
      <trkpt lat="44.85467" lon="-0.50519">
        <ele>49.65</ele>
        <time>2021-07-07T19:49:44Z</time>
      </trkpt>
      <trkpt lat="44.85661" lon="-0.50498">
        <ele>50.13</ele>
        <time>2021-07-07T19:49:56Z</time>
      </trkpt>
      <trkpt lat="44.85896" lon="-0.50442">
        <ele>48.2</ele>
        <time>2021-07-07T19:50:11Z</time>
      </trkpt>
      <trkpt lat="44.85996" lon="-0.5042">
        <ele>45.8</ele>
        <time>2021-07-07T19:50:21Z</time>
      </trkpt>
      <trkpt lat="44.86096" lon="-0.50401">
        <ele>45.8</ele>
        <time>2021-07-07T19:50:34Z</time>
      </trkpt>
      <trkpt lat="44.86164" lon="-0.50393">
        <ele>47.72</ele>
        <time>2021-07-07T19:50:51Z</time>
      </trkpt>
      <trkpt lat="44.86187" lon="-0.50391">
        <ele>49.16</ele>
        <time>2021-07-07T19:51:05Z</time>
      </trkpt>
      <trkpt lat="44.86221" lon="-0.50387">
        <ele>50.61</ele>
        <time>2021-07-07T19:51:19Z</time>
      </trkpt>
      <trkpt lat="44.86282" lon="-0.50382">
        <ele>49.65</ele>
        <time>2021-07-07T19:51:34Z</time>
      </trkpt>
      <trkpt lat="44.86325" lon="-0.50381">
        <ele>50.13</ele>
        <time>2021-07-07T19:51:47Z</time>
      </trkpt>
      <trkpt lat="44.86346" lon="-0.5038">
        <ele>49.16</ele>
        <time>2021-07-07T19:52:02Z</time>
      </trkpt>
      <trkpt lat="44.86445" lon="-0.50381">
        <ele>47.24</ele>
        <time>2021-07-07T19:52:18Z</time>
      </trkpt>
      <trkpt lat="44.86498" lon="-0.50384">
        <ele>47.24</ele>
        <time>2021-07-07T19:52:29Z</time>
      </trkpt>
      <trkpt lat="44.86574" lon="-0.50391">
        <ele>45.8</ele>
        <time>2021-07-07T19:52:38Z</time>
      </trkpt>
      <trkpt lat="44.86774" lon="-0.50429">
        <ele>38.11</ele>
        <time>2021-07-07T19:52:55Z</time>
      </trkpt>
      <trkpt lat="44.86908" lon="-0.50465">
        <ele>36.19</ele>
        <time>2021-07-07T19:53:08Z</time>
      </trkpt>
      <trkpt lat="44.87001" lon="-0.50498">
        <ele>32.34</ele>
        <time>2021-07-07T19:53:20Z</time>
      </trkpt>
      <trkpt lat="44.87142" lon="-0.50557">
        <ele>31.38</ele>
        <time>2021-07-07T19:53:35Z</time>
      </trkpt>
      <trkpt lat="44.87187" lon="-0.50579">
        <ele>31.38</ele>
        <time>2021-07-07T19:53:43Z</time>
      </trkpt>
      <trkpt lat="44.8723" lon="-0.50601">
        <ele>30.9</ele>
        <time>2021-07-07T19:53:55Z</time>
      </trkpt>
      <trkpt lat="44.87303" lon="-0.5064">
        <ele>30.42</ele>
        <time>2021-07-07T19:54:06Z</time>
      </trkpt>
      <trkpt lat="44.8742" lon="-0.50704">
        <ele>30.9</ele>
        <time>2021-07-07T19:54:17Z</time>
      </trkpt>
      <trkpt lat="44.87548" lon="-0.50774">
        <ele>30.42</ele>
        <time>2021-07-07T19:54:28Z</time>
      </trkpt>
      <trkpt lat="44.87734" lon="-0.50875">
        <ele>30.42</ele>
        <time>2021-07-07T19:54:42Z</time>
      </trkpt>
      <trkpt lat="44.87925" lon="-0.50978">
        <ele>28.02</ele>
        <time>2021-07-07T19:54:56Z</time>
      </trkpt>
      <trkpt lat="44.88022" lon="-0.51033">
        <ele>30.42</ele>
        <time>2021-07-07T19:55:05Z</time>
      </trkpt>
      <trkpt lat="44.88065" lon="-0.51056">
        <ele>30.9</ele>
        <time>2021-07-07T19:55:12Z</time>
      </trkpt>
      <trkpt lat="44.88069" lon="-0.51058">
        <ele>31.86</ele>
        <time>2021-07-07T19:55:26Z</time>
      </trkpt>
      <trkpt lat="44.88097" lon="-0.51074">
        <ele>31.86</ele>
        <time>2021-07-07T19:55:38Z</time>
      </trkpt>
      <trkpt lat="44.88121" lon="-0.51086">
        <ele>31.86</ele>
        <time>2021-07-07T19:55:52Z</time>
      </trkpt>
      <trkpt lat="44.88139" lon="-0.51093">
        <ele>31.38</ele>
        <time>2021-07-07T19:56:07Z</time>
      </trkpt>
      <trkpt lat="44.88159" lon="-0.51103">
        <ele>31.86</ele>
        <time>2021-07-07T19:56:17Z</time>
      </trkpt>
      <trkpt lat="44.88169" lon="-0.51107">
        <ele>32.34</ele>
        <time>2021-07-07T19:56:28Z</time>
      </trkpt>
      <trkpt lat="44.88186" lon="-0.51115">
        <ele>32.82</ele>
        <time>2021-07-07T19:56:39Z</time>
      </trkpt>
      <trkpt lat="44.88187" lon="-0.51115">
        <ele>32.82</ele>
        <time>2021-07-07T19:56:57Z</time>
      </trkpt>
      <trkpt lat="44.8821" lon="-0.51122">
        <ele>33.3</ele>
        <time>2021-07-07T19:57:12Z</time>
      </trkpt>
      <trkpt lat="44.88226" lon="-0.51127">
        <ele>33.3</ele>
        <time>2021-07-07T19:57:29Z</time>
      </trkpt>
      <trkpt lat="44.88234" lon="-0.51129">
        <ele>33.78</ele>
        <time>2021-07-07T19:57:44Z</time>
      </trkpt>
      <trkpt lat="44.88252" lon="-0.51134">
        <ele>34.26</ele>
        <time>2021-07-07T19:57:57Z</time>
      </trkpt>
      <trkpt lat="44.88287" lon="-0.51143">
        <ele>34.74</ele>
        <time>2021-07-07T19:58:10Z</time>
      </trkpt>
      <trkpt lat="44.88306" lon="-0.51147">
        <ele>35.23</ele>
        <time>2021-07-07T19:58:32Z</time>
      </trkpt>
      <trkpt lat="44.88332" lon="-0.51151">
        <ele>35.23</ele>
        <time>2021-07-07T19:58:44Z</time>
      </trkpt>
      <trkpt lat="44.88367" lon="-0.51151">
        <ele>34.74</ele>
        <time>2021-07-07T19:59:00Z</time>
      </trkpt>
      <trkpt lat="44.88391" lon="-0.51145">
        <ele>36.67</ele>
        <time>2021-07-07T19:59:13Z</time>
      </trkpt>
      <trkpt lat="44.88394" lon="-0.51144">
        <ele>38.11</ele>
        <time>2021-07-07T19:59:30Z</time>
      </trkpt>
      <trkpt lat="44.88414" lon="-0.51133">
        <ele>37.63</ele>
        <time>2021-07-07T19:59:42Z</time>
      </trkpt>
      <trkpt lat="44.88438" lon="-0.5111">
        <ele>35.71</ele>
        <time>2021-07-07T20:00:01Z</time>
      </trkpt>
      <trkpt lat="44.88451" lon="-0.51088">
        <ele>35.23</ele>
        <time>2021-07-07T20:00:22Z</time>
      </trkpt>
      <trkpt lat="44.88472" lon="-0.51039">
        <ele>31.86</ele>
        <time>2021-07-07T20:00:45Z</time>
      </trkpt>
      <trkpt lat="44.88478" lon="-0.51017">
        <ele>28.5</ele>
        <time>2021-07-07T20:01:01Z</time>
      </trkpt>
      <trkpt lat="44.88484" lon="-0.50998">
        <ele>28.02</ele>
        <time>2021-07-07T20:01:21Z</time>
      </trkpt>
      <trkpt lat="44.88493" lon="-0.50966">
        <ele>26.09</ele>
        <time>2021-07-07T20:01:43Z</time>
      </trkpt>
      <trkpt lat="44.88503" lon="-0.50932">
        <ele>25.13</ele>
        <time>2021-07-07T20:02:01Z</time>
      </trkpt>
      <trkpt lat="44.88517" lon="-0.50883">
        <ele>24.17</ele>
        <time>2021-07-07T20:02:18Z</time>
      </trkpt>
      <trkpt lat="44.88536" lon="-0.5084">
        <ele>22.73</ele>
        <time>2021-07-07T20:02:35Z</time>
      </trkpt>
      <trkpt lat="44.8855" lon="-0.50812">
        <ele>22.25</ele>
        <time>2021-07-07T20:02:52Z</time>
      </trkpt>
      <trkpt lat="44.8857" lon="-0.50772">
        <ele>23.21</ele>
        <time>2021-07-07T20:03:11Z</time>
      </trkpt>
      <trkpt lat="44.88589" lon="-0.50736">
        <ele>23.21</ele>
        <time>2021-07-07T20:03:27Z</time>
      </trkpt>
      <trkpt lat="44.88615" lon="-0.50699">
        <ele>22.73</ele>
        <time>2021-07-07T20:03:45Z</time>
      </trkpt>
      <trkpt lat="44.8864" lon="-0.50665">
        <ele>22.25</ele>
        <time>2021-07-07T20:04:02Z</time>
      </trkpt>
      <trkpt lat="44.88672" lon="-0.50625">
        <ele>23.69</ele>
        <time>2021-07-07T20:04:15Z</time>
      </trkpt>
      <trkpt lat="44.88737" lon="-0.50565">
        <ele>22.25</ele>
        <time>2021-07-07T20:04:25Z</time>
      </trkpt>
      <trkpt lat="44.88834" lon="-0.50472">
        <ele>20.81</ele>
        <time>2021-07-07T20:04:41Z</time>
      </trkpt>
      <trkpt lat="44.88929" lon="-0.50382">
        <ele>19.36</ele>
        <time>2021-07-07T20:04:54Z</time>
      </trkpt>
      <trkpt lat="44.89073" lon="-0.50232">
        <ele>18.4</ele>
        <time>2021-07-07T20:05:08Z</time>
      </trkpt>
      <trkpt lat="44.89199" lon="-0.50088">
        <ele>16</ele>
        <time>2021-07-07T20:05:20Z</time>
      </trkpt>
      <trkpt lat="44.89264" lon="-0.50013">
        <ele>16.48</ele>
        <time>2021-07-07T20:05:31Z</time>
      </trkpt>
      <trkpt lat="44.8928" lon="-0.49995">
        <ele>16.48</ele>
        <time>2021-07-07T20:05:40Z</time>
      </trkpt>
      <trkpt lat="44.89352" lon="-0.49914">
        <ele>16</ele>
        <time>2021-07-07T20:05:52Z</time>
      </trkpt>
      <trkpt lat="44.89435" lon="-0.49817">
        <ele>16</ele>
        <time>2021-07-07T20:06:03Z</time>
      </trkpt>
      <trkpt lat="44.89461" lon="-0.49791">
        <ele>17.44</ele>
        <time>2021-07-07T20:06:12Z</time>
      </trkpt>
      <trkpt lat="44.89483" lon="-0.49769">
        <ele>18.4</ele>
        <time>2021-07-07T20:06:23Z</time>
      </trkpt>
      <trkpt lat="44.89523" lon="-0.49728">
        <ele>18.88</ele>
        <time>2021-07-07T20:06:33Z</time>
      </trkpt>
      <trkpt lat="44.89613" lon="-0.49647">
        <ele>17.92</ele>
        <time>2021-07-07T20:06:44Z</time>
      </trkpt>
      <trkpt lat="44.89713" lon="-0.49575">
        <ele>17.92</ele>
        <time>2021-07-07T20:06:54Z</time>
      </trkpt>
      <trkpt lat="44.89808" lon="-0.49523">
        <ele>16</ele>
        <time>2021-07-07T20:07:04Z</time>
      </trkpt>
      <trkpt lat="44.89977" lon="-0.4945">
        <ele>17.44</ele>
        <time>2021-07-07T20:07:16Z</time>
      </trkpt>
      <trkpt lat="44.90263" lon="-0.49336">
        <ele>11.67</ele>
        <time>2021-07-07T20:07:32Z</time>
      </trkpt>
      <trkpt lat="44.9057" lon="-0.49205">
        <ele>8.31</ele>
        <time>2021-07-07T20:07:49Z</time>
      </trkpt>
      <trkpt lat="44.90777" lon="-0.49081">
        <ele>7.35</ele>
        <time>2021-07-07T20:07:59Z</time>
      </trkpt>
      <trkpt lat="44.90949" lon="-0.48897">
        <ele>6.39</ele>
        <time>2021-07-07T20:08:08Z</time>
      </trkpt>
      <trkpt lat="44.91087" lon="-0.48656">
        <ele>13.6</ele>
        <time>2021-07-07T20:08:17Z</time>
      </trkpt>
      <trkpt lat="44.9143" lon="-0.48005">
        <ele>15.04</ele>
        <time>2021-07-07T20:08:40Z</time>
      </trkpt>
      <trkpt lat="44.91595" lon="-0.47813">
        <ele>9.75</ele>
        <time>2021-07-07T20:08:48Z</time>
      </trkpt>
      <trkpt lat="44.91785" lon="-0.47682">
        <ele>12.63</ele>
        <time>2021-07-07T20:08:56Z</time>
      </trkpt>
      <trkpt lat="44.92056" lon="-0.47537">
        <ele>16.48</ele>
        <time>2021-07-07T20:09:08Z</time>
      </trkpt>
      <trkpt lat="44.92391" lon="-0.47345">
        <ele>17.44</ele>
        <time>2021-07-07T20:09:23Z</time>
      </trkpt>
      <trkpt lat="44.92742" lon="-0.47112">
        <ele>18.88</ele>
        <time>2021-07-07T20:09:38Z</time>
      </trkpt>
      <trkpt lat="44.93186" lon="-0.4683">
        <ele>14.56</ele>
        <time>2021-07-07T20:09:56Z</time>
      </trkpt>
      <trkpt lat="44.93422" lon="-0.46758">
        <ele>11.19</ele>
        <time>2021-07-07T20:10:05Z</time>
      </trkpt>
      <trkpt lat="44.93666" lon="-0.46714">
        <ele>5.91</ele>
        <time>2021-07-07T20:10:15Z</time>
      </trkpt>
      <trkpt lat="44.94023" lon="-0.46652">
        <ele>-2.75</ele>
        <time>2021-07-07T20:10:31Z</time>
      </trkpt>
      <trkpt lat="44.94243" lon="-0.46614">
        <ele>-3.23</ele>
        <time>2021-07-07T20:10:41Z</time>
      </trkpt>
      <trkpt lat="44.94407" lon="-0.46585">
        <ele>-3.23</ele>
        <time>2021-07-07T20:10:51Z</time>
      </trkpt>
      <trkpt lat="44.94457" lon="-0.46576">
        <ele>-3.23</ele>
        <time>2021-07-07T20:10:57Z</time>
      </trkpt>
      <trkpt lat="44.94509" lon="-0.46566">
        <ele>-1.79</ele>
        <time>2021-07-07T20:11:10Z</time>
      </trkpt>
      <trkpt lat="44.94573" lon="-0.46551">
        <ele>-0.82</ele>
        <time>2021-07-07T20:11:18Z</time>
      </trkpt>
      <trkpt lat="44.9471" lon="-0.46499">
        <ele>-1.3</ele>
        <time>2021-07-07T20:11:28Z</time>
      </trkpt>
      <trkpt lat="44.94872" lon="-0.46398">
        <ele>-0.34</ele>
        <time>2021-07-07T20:11:38Z</time>
      </trkpt>
      <trkpt lat="44.94981" lon="-0.46301">
        <ele>0.62</ele>
        <time>2021-07-07T20:11:46Z</time>
      </trkpt>
      <trkpt lat="44.95039" lon="-0.46235">
        <ele>1.58</ele>
        <time>2021-07-07T20:11:53Z</time>
      </trkpt>
      <trkpt lat="44.95085" lon="-0.46183">
        <ele>3.5</ele>
        <time>2021-07-07T20:12:03Z</time>
      </trkpt>
      <trkpt lat="44.95116" lon="-0.46141">
        <ele>5.42</ele>
        <time>2021-07-07T20:12:12Z</time>
      </trkpt>
      <trkpt lat="44.95198" lon="-0.46016">
        <ele>13.12</ele>
        <time>2021-07-07T20:12:24Z</time>
      </trkpt>
      <trkpt lat="44.95289" lon="-0.4584">
        <ele>22.25</ele>
        <time>2021-07-07T20:12:37Z</time>
      </trkpt>
      <trkpt lat="44.95396" lon="-0.45623">
        <ele>26.09</ele>
        <time>2021-07-07T20:12:49Z</time>
      </trkpt>
      <trkpt lat="44.95529" lon="-0.45351">
        <ele>22.73</ele>
        <time>2021-07-07T20:13:01Z</time>
      </trkpt>
      <trkpt lat="44.95711" lon="-0.44987">
        <ele>10.23</ele>
        <time>2021-07-07T20:13:17Z</time>
      </trkpt>
      <trkpt lat="44.95878" lon="-0.44691">
        <ele>1.1</ele>
        <time>2021-07-07T20:13:32Z</time>
      </trkpt>
      <trkpt lat="44.96024" lon="-0.44493">
        <ele>3.02</ele>
        <time>2021-07-07T20:13:45Z</time>
      </trkpt>
      <trkpt lat="44.9617" lon="-0.4433">
        <ele>3.98</ele>
        <time>2021-07-07T20:13:56Z</time>
      </trkpt>
      <trkpt lat="44.96382" lon="-0.44118">
        <ele>3.02</ele>
        <time>2021-07-07T20:14:11Z</time>
      </trkpt>
      <trkpt lat="44.9666" lon="-0.43847">
        <ele>3.02</ele>
        <time>2021-07-07T20:14:31Z</time>
      </trkpt>
      <trkpt lat="44.96904" lon="-0.43649">
        <ele>11.19</ele>
        <time>2021-07-07T20:14:46Z</time>
      </trkpt>
      <trkpt lat="44.97163" lon="-0.43504">
        <ele>16.96</ele>
        <time>2021-07-07T20:15:00Z</time>
      </trkpt>
      <trkpt lat="44.97504" lon="-0.43343">
        <ele>16</ele>
        <time>2021-07-07T20:15:17Z</time>
      </trkpt>
      <trkpt lat="44.97752" lon="-0.43176">
        <ele>16.96</ele>
        <time>2021-07-07T20:15:31Z</time>
      </trkpt>
      <trkpt lat="44.98048" lon="-0.42979">
        <ele>17.92</ele>
        <time>2021-07-07T20:15:46Z</time>
      </trkpt>
      <trkpt lat="44.98352" lon="-0.42834">
        <ele>16.48</ele>
        <time>2021-07-07T20:15:59Z</time>
      </trkpt>
      <trkpt lat="44.98653" lon="-0.42747">
        <ele>20.32</ele>
        <time>2021-07-07T20:16:13Z</time>
      </trkpt>
      <trkpt lat="44.99003" lon="-0.42702">
        <ele>23.21</ele>
        <time>2021-07-07T20:16:27Z</time>
      </trkpt>
      <trkpt lat="44.99363" lon="-0.42688">
        <ele>25.61</ele>
        <time>2021-07-07T20:16:41Z</time>
      </trkpt>
      <trkpt lat="44.99693" lon="-0.42676">
        <ele>32.34</ele>
        <time>2021-07-07T20:16:54Z</time>
      </trkpt>
      <trkpt lat="45.00065" lon="-0.42677">
        <ele>40.99</ele>
        <time>2021-07-07T20:17:09Z</time>
      </trkpt>
      <trkpt lat="45.00265" lon="-0.42694">
        <ele>43.88</ele>
        <time>2021-07-07T20:17:19Z</time>
      </trkpt>
      <trkpt lat="45.00651" lon="-0.42758">
        <ele>40.99</ele>
        <time>2021-07-07T20:17:38Z</time>
      </trkpt>
      <trkpt lat="45.01039" lon="-0.42872">
        <ele>37.15</ele>
        <time>2021-07-07T20:17:56Z</time>
      </trkpt>
      <trkpt lat="45.01234" lon="-0.42916">
        <ele>37.15</ele>
        <time>2021-07-07T20:18:06Z</time>
      </trkpt>
      <trkpt lat="45.01367" lon="-0.42885">
        <ele>42.92</ele>
        <time>2021-07-07T20:18:13Z</time>
      </trkpt>
      <trkpt lat="45.01522" lon="-0.42771">
        <ele>40.03</ele>
        <time>2021-07-07T20:18:22Z</time>
      </trkpt>
      <trkpt lat="45.01734" lon="-0.42644">
        <ele>40.03</ele>
        <time>2021-07-07T20:18:32Z</time>
      </trkpt>
      <trkpt lat="45.01985" lon="-0.42557">
        <ele>38.59</ele>
        <time>2021-07-07T20:18:43Z</time>
      </trkpt>
      <trkpt lat="45.02399" lon="-0.42418">
        <ele>41.47</ele>
        <time>2021-07-07T20:19:00Z</time>
      </trkpt>
      <trkpt lat="45.02668" lon="-0.42274">
        <ele>41.47</ele>
        <time>2021-07-07T20:19:11Z</time>
      </trkpt>
      <trkpt lat="45.03085" lon="-0.42029">
        <ele>41.95</ele>
        <time>2021-07-07T20:19:28Z</time>
      </trkpt>
      <trkpt lat="45.03539" lon="-0.41771">
        <ele>37.15</ele>
        <time>2021-07-07T20:19:46Z</time>
      </trkpt>
      <trkpt lat="45.03724" lon="-0.4159">
        <ele>35.71</ele>
        <time>2021-07-07T20:19:54Z</time>
      </trkpt>
      <trkpt lat="45.03968" lon="-0.4134">
        <ele>39.55</ele>
        <time>2021-07-07T20:20:05Z</time>
      </trkpt>
      <trkpt lat="45.04192" lon="-0.41202">
        <ele>40.99</ele>
        <time>2021-07-07T20:20:14Z</time>
      </trkpt>
      <trkpt lat="45.04482" lon="-0.41099">
        <ele>41.95</ele>
        <time>2021-07-07T20:20:25Z</time>
      </trkpt>
      <trkpt lat="45.04711" lon="-0.40984">
        <ele>41.95</ele>
        <time>2021-07-07T20:20:34Z</time>
      </trkpt>
      <trkpt lat="45.05149" lon="-0.40689">
        <ele>42.44</ele>
        <time>2021-07-07T20:20:52Z</time>
      </trkpt>
      <trkpt lat="45.05636" lon="-0.40355">
        <ele>38.59</ele>
        <time>2021-07-07T20:21:12Z</time>
      </trkpt>
      <trkpt lat="45.05796" lon="-0.40209">
        <ele>40.99</ele>
        <time>2021-07-07T20:21:19Z</time>
      </trkpt>
      <trkpt lat="45.05968" lon="-0.39968">
        <ele>45.32</ele>
        <time>2021-07-07T20:21:28Z</time>
      </trkpt>
      <trkpt lat="45.06221" lon="-0.39624">
        <ele>45.32</ele>
        <time>2021-07-07T20:21:41Z</time>
      </trkpt>
      <trkpt lat="45.06457" lon="-0.39428">
        <ele>45.8</ele>
        <time>2021-07-07T20:21:51Z</time>
      </trkpt>
      <trkpt lat="45.06853" lon="-0.3912">
        <ele>48.68</ele>
        <time>2021-07-07T20:22:07Z</time>
      </trkpt>
      <trkpt lat="45.07218" lon="-0.38836">
        <ele>45.8</ele>
        <time>2021-07-07T20:22:22Z</time>
      </trkpt>
      <trkpt lat="45.07448" lon="-0.38703">
        <ele>46.28</ele>
        <time>2021-07-07T20:22:31Z</time>
      </trkpt>
      <trkpt lat="45.07787" lon="-0.38593">
        <ele>44.36</ele>
        <time>2021-07-07T20:22:43Z</time>
      </trkpt>
      <trkpt lat="45.08618" lon="-0.38323">
        <ele>56.37</ele>
        <time>2021-07-07T20:23:12Z</time>
      </trkpt>
      <trkpt lat="45.09167" lon="-0.38139">
        <ele>51.57</ele>
        <time>2021-07-07T20:23:31Z</time>
      </trkpt>
      <trkpt lat="45.09438" lon="-0.38081">
        <ele>53.01</ele>
        <time>2021-07-07T20:23:41Z</time>
      </trkpt>
      <trkpt lat="45.09861" lon="-0.38072">
        <ele>43.4</ele>
        <time>2021-07-07T20:23:56Z</time>
      </trkpt>
      <trkpt lat="45.10431" lon="-0.38064">
        <ele>40.51</ele>
        <time>2021-07-07T20:24:16Z</time>
      </trkpt>
      <trkpt lat="45.10714" lon="-0.38021">
        <ele>30.42</ele>
        <time>2021-07-07T20:24:26Z</time>
      </trkpt>
      <trkpt lat="45.1097" lon="-0.3791">
        <ele>26.57</ele>
        <time>2021-07-07T20:24:35Z</time>
      </trkpt>
      <trkpt lat="45.11448" lon="-0.37669">
        <ele>26.57</ele>
        <time>2021-07-07T20:24:52Z</time>
      </trkpt>
      <trkpt lat="45.11721" lon="-0.3761">
        <ele>25.61</ele>
        <time>2021-07-07T20:25:02Z</time>
      </trkpt>
      <trkpt lat="45.12092" lon="-0.37546">
        <ele>28.98</ele>
        <time>2021-07-07T20:25:16Z</time>
      </trkpt>
      <trkpt lat="45.12511" lon="-0.37472">
        <ele>31.86</ele>
        <time>2021-07-07T20:25:32Z</time>
      </trkpt>
      <trkpt lat="45.12777" lon="-0.37389">
        <ele>35.71</ele>
        <time>2021-07-07T20:25:43Z</time>
      </trkpt>
      <trkpt lat="45.13086" lon="-0.3723">
        <ele>35.71</ele>
        <time>2021-07-07T20:25:56Z</time>
      </trkpt>
      <trkpt lat="45.13518" lon="-0.37002">
        <ele>39.55</ele>
        <time>2021-07-07T20:26:13Z</time>
      </trkpt>
      <trkpt lat="45.14063" lon="-0.36715">
        <ele>50.61</ele>
        <time>2021-07-07T20:26:34Z</time>
      </trkpt>
      <trkpt lat="45.14612" lon="-0.36426">
        <ele>47.24</ele>
        <time>2021-07-07T20:26:55Z</time>
      </trkpt>
      <trkpt lat="45.15061" lon="-0.36178">
        <ele>52.05</ele>
        <time>2021-07-07T20:27:12Z</time>
      </trkpt>
      <trkpt lat="45.15259" lon="-0.3601">
        <ele>57.34</ele>
        <time>2021-07-07T20:27:20Z</time>
      </trkpt>
      <trkpt lat="45.1545" lon="-0.35752">
        <ele>60.7</ele>
        <time>2021-07-07T20:27:29Z</time>
      </trkpt>
      <trkpt lat="45.15849" lon="-0.35044">
        <ele>57.82</ele>
        <time>2021-07-07T20:27:50Z</time>
      </trkpt>
      <trkpt lat="45.16149" lon="-0.34511">
        <ele>54.93</ele>
        <time>2021-07-07T20:28:05Z</time>
      </trkpt>
      <trkpt lat="45.1632" lon="-0.34261">
        <ele>51.57</ele>
        <time>2021-07-07T20:28:14Z</time>
      </trkpt>
      <trkpt lat="45.16614" lon="-0.33948">
        <ele>51.57</ele>
        <time>2021-07-07T20:28:26Z</time>
      </trkpt>
      <trkpt lat="45.17039" lon="-0.33505">
        <ele>56.86</ele>
        <time>2021-07-07T20:28:44Z</time>
      </trkpt>
      <trkpt lat="45.17503" lon="-0.33016">
        <ele>54.93</ele>
        <time>2021-07-07T20:29:04Z</time>
      </trkpt>
      <trkpt lat="45.18017" lon="-0.32472">
        <ele>60.7</ele>
        <time>2021-07-07T20:29:26Z</time>
      </trkpt>
      <trkpt lat="45.18553" lon="-0.31911">
        <ele>63.1</ele>
        <time>2021-07-07T20:29:49Z</time>
      </trkpt>
      <trkpt lat="45.18991" lon="-0.31453">
        <ele>66.47</ele>
        <time>2021-07-07T20:30:08Z</time>
      </trkpt>
      <trkpt lat="45.19386" lon="-0.31037">
        <ele>66.95</ele>
        <time>2021-07-07T20:30:25Z</time>
      </trkpt>
      <trkpt lat="45.19874" lon="-0.30524">
        <ele>64.07</ele>
        <time>2021-07-07T20:30:46Z</time>
      </trkpt>
      <trkpt lat="45.20225" lon="-0.30241">
        <ele>63.58</ele>
        <time>2021-07-07T20:30:59Z</time>
      </trkpt>
      <trkpt lat="45.20649" lon="-0.29915">
        <ele>67.43</ele>
        <time>2021-07-07T20:31:17Z</time>
      </trkpt>
      <trkpt lat="45.2111" lon="-0.2955">
        <ele>67.91</ele>
        <time>2021-07-07T20:31:35Z</time>
      </trkpt>
      <trkpt lat="45.21552" lon="-0.29198">
        <ele>72.24</ele>
        <time>2021-07-07T20:31:52Z</time>
      </trkpt>
      <trkpt lat="45.22109" lon="-0.28755">
        <ele>88.58</ele>
        <time>2021-07-07T20:32:13Z</time>
      </trkpt>
      <trkpt lat="45.22601" lon="-0.28365">
        <ele>101.08</ele>
        <time>2021-07-07T20:32:32Z</time>
      </trkpt>
      <trkpt lat="45.22977" lon="-0.28062">
        <ele>110.21</ele>
        <time>2021-07-07T20:32:47Z</time>
      </trkpt>
      <trkpt lat="45.23271" lon="-0.27817">
        <ele>111.65</ele>
        <time>2021-07-07T20:32:59Z</time>
      </trkpt>
      <trkpt lat="45.23458" lon="-0.27713">
        <ele>114.53</ele>
        <time>2021-07-07T20:33:07Z</time>
      </trkpt>
      <trkpt lat="45.23811" lon="-0.27528">
        <ele>120.78</ele>
        <time>2021-07-07T20:33:20Z</time>
      </trkpt>
      <trkpt lat="45.24083" lon="-0.27289">
        <ele>126.07</ele>
        <time>2021-07-07T20:33:31Z</time>
      </trkpt>
      <trkpt lat="45.24511" lon="-0.26898">
        <ele>113.09</ele>
        <time>2021-07-07T20:33:47Z</time>
      </trkpt>
      <trkpt lat="45.24892" lon="-0.26533">
        <ele>97.71</ele>
        <time>2021-07-07T20:34:04Z</time>
      </trkpt>
      <trkpt lat="45.25186" lon="-0.26217">
        <ele>95.79</ele>
        <time>2021-07-07T20:34:17Z</time>
      </trkpt>
      <trkpt lat="45.25543" lon="-0.2595">
        <ele>101.08</ele>
        <time>2021-07-07T20:34:31Z</time>
      </trkpt>
      <trkpt lat="45.25701" lon="-0.25792">
        <ele>109.73</ele>
        <time>2021-07-07T20:34:38Z</time>
      </trkpt>
      <trkpt lat="45.25878" lon="-0.25514">
        <ele>122.71</ele>
        <time>2021-07-07T20:34:48Z</time>
      </trkpt>
      <trkpt lat="45.2613" lon="-0.2513">
        <ele>129.92</ele>
        <time>2021-07-07T20:35:01Z</time>
      </trkpt>
      <trkpt lat="45.26309" lon="-0.24958">
        <ele>126.55</ele>
        <time>2021-07-07T20:35:10Z</time>
      </trkpt>
      <trkpt lat="45.26545" lon="-0.2482">
        <ele>120.3</ele>
        <time>2021-07-07T20:35:19Z</time>
      </trkpt>
      <trkpt lat="45.26865" lon="-0.24714">
        <ele>116.46</ele>
        <time>2021-07-07T20:35:31Z</time>
      </trkpt>
      <trkpt lat="45.27319" lon="-0.24571">
        <ele>112.13</ele>
        <time>2021-07-07T20:35:48Z</time>
      </trkpt>
      <trkpt lat="45.27656" lon="-0.24465">
        <ele>110.69</ele>
        <time>2021-07-07T20:36:01Z</time>
      </trkpt>
      <trkpt lat="45.27925" lon="-0.24381">
        <ele>106.84</ele>
        <time>2021-07-07T20:36:12Z</time>
      </trkpt>
      <trkpt lat="45.2812" lon="-0.2432">
        <ele>103.96</ele>
        <time>2021-07-07T20:36:24Z</time>
      </trkpt>
      <trkpt lat="45.28343" lon="-0.24251">
        <ele>99.63</ele>
        <time>2021-07-07T20:36:40Z</time>
      </trkpt>
      <trkpt lat="45.28536" lon="-0.24202">
        <ele>97.23</ele>
        <time>2021-07-07T20:36:54Z</time>
      </trkpt>
      <trkpt lat="45.28802" lon="-0.24156">
        <ele>94.35</ele>
        <time>2021-07-07T20:37:11Z</time>
      </trkpt>
      <trkpt lat="45.29021" lon="-0.24121">
        <ele>93.87</ele>
        <time>2021-07-07T20:37:24Z</time>
      </trkpt>
      <trkpt lat="45.29293" lon="-0.24074">
        <ele>95.79</ele>
        <time>2021-07-07T20:37:39Z</time>
      </trkpt>
      <trkpt lat="45.29578" lon="-0.24011">
        <ele>97.71</ele>
        <time>2021-07-07T20:37:53Z</time>
      </trkpt>
      <trkpt lat="45.29896" lon="-0.23933">
        <ele>98.67</ele>
        <time>2021-07-07T20:38:11Z</time>
      </trkpt>
      <trkpt lat="45.30215" lon="-0.2385">
        <ele>98.19</ele>
        <time>2021-07-07T20:38:28Z</time>
      </trkpt>
      <trkpt lat="45.30479" lon="-0.23727">
        <ele>98.67</ele>
        <time>2021-07-07T20:38:42Z</time>
      </trkpt>
      <trkpt lat="45.30761" lon="-0.23547">
        <ele>111.17</ele>
        <time>2021-07-07T20:38:57Z</time>
      </trkpt>
      <trkpt lat="45.31041" lon="-0.23365">
        <ele>113.57</ele>
        <time>2021-07-07T20:39:11Z</time>
      </trkpt>
      <trkpt lat="45.31388" lon="-0.23142">
        <ele>104.92</ele>
        <time>2021-07-07T20:39:26Z</time>
      </trkpt>
      <trkpt lat="45.31653" lon="-0.23023">
        <ele>109.25</ele>
        <time>2021-07-07T20:39:36Z</time>
      </trkpt>
      <trkpt lat="45.32079" lon="-0.22912">
        <ele>125.11</ele>
        <time>2021-07-07T20:39:52Z</time>
      </trkpt>
      <trkpt lat="45.32469" lon="-0.22795">
        <ele>134.72</ele>
        <time>2021-07-07T20:40:07Z</time>
      </trkpt>
      <trkpt lat="45.32768" lon="-0.22625">
        <ele>132.8</ele>
        <time>2021-07-07T20:40:19Z</time>
      </trkpt>
      <trkpt lat="45.33145" lon="-0.224">
        <ele>128.47</ele>
        <time>2021-07-07T20:40:34Z</time>
      </trkpt>
      <trkpt lat="45.33472" lon="-0.22197">
        <ele>126.07</ele>
        <time>2021-07-07T20:40:48Z</time>
      </trkpt>
      <trkpt lat="45.33676" lon="-0.22012">
        <ele>127.51</ele>
        <time>2021-07-07T20:40:57Z</time>
      </trkpt>
      <trkpt lat="45.33877" lon="-0.21742">
        <ele>129.43</ele>
        <time>2021-07-07T20:41:07Z</time>
      </trkpt>
      <trkpt lat="45.34308" lon="-0.21109">
        <ele>127.03</ele>
        <time>2021-07-07T20:41:29Z</time>
      </trkpt>
      <trkpt lat="45.34678" lon="-0.20573">
        <ele>128.95</ele>
        <time>2021-07-07T20:41:48Z</time>
      </trkpt>
      <trkpt lat="45.35038" lon="-0.20086">
        <ele>127.99</ele>
        <time>2021-07-07T20:42:06Z</time>
      </trkpt>
      <trkpt lat="45.35274" lon="-0.19873">
        <ele>124.15</ele>
        <time>2021-07-07T20:42:16Z</time>
      </trkpt>
      <trkpt lat="45.35745" lon="-0.19486">
        <ele>107.32</ele>
        <time>2021-07-07T20:42:35Z</time>
      </trkpt>
      <trkpt lat="45.35997" lon="-0.19216">
        <ele>115.01</ele>
        <time>2021-07-07T20:42:46Z</time>
      </trkpt>
      <trkpt lat="45.36402" lon="-0.18736">
        <ele>125.59</ele>
        <time>2021-07-07T20:43:05Z</time>
      </trkpt>
      <trkpt lat="45.3672" lon="-0.18369">
        <ele>124.15</ele>
        <time>2021-07-07T20:43:20Z</time>
      </trkpt>
      <trkpt lat="45.36965" lon="-0.18192">
        <ele>121.26</ele>
        <time>2021-07-07T20:43:29Z</time>
      </trkpt>
      <trkpt lat="45.37158" lon="-0.18117">
        <ele>118.38</ele>
        <time>2021-07-07T20:43:37Z</time>
      </trkpt>
      <trkpt lat="45.37387" lon="-0.18089">
        <ele>119.82</ele>
        <time>2021-07-07T20:43:45Z</time>
      </trkpt>
      <trkpt lat="45.37672" lon="-0.18135">
        <ele>120.78</ele>
        <time>2021-07-07T20:43:55Z</time>
      </trkpt>
      <trkpt lat="45.37997" lon="-0.18185">
        <ele>124.15</ele>
        <time>2021-07-07T20:44:06Z</time>
      </trkpt>
      <trkpt lat="45.3826" lon="-0.18142">
        <ele>131.36</ele>
        <time>2021-07-07T20:44:15Z</time>
      </trkpt>
      <trkpt lat="45.38561" lon="-0.18017">
        <ele>137.13</ele>
        <time>2021-07-07T20:44:25Z</time>
      </trkpt>
      <trkpt lat="45.3879" lon="-0.17957">
        <ele>134.24</ele>
        <time>2021-07-07T20:44:34Z</time>
      </trkpt>
      <trkpt lat="45.39121" lon="-0.17939">
        <ele>124.63</ele>
        <time>2021-07-07T20:44:44Z</time>
      </trkpt>
      <trkpt lat="45.39566" lon="-0.17909">
        <ele>108.77</ele>
        <time>2021-07-07T20:45:00Z</time>
      </trkpt>
      <trkpt lat="45.39943" lon="-0.17877">
        <ele>102.04</ele>
        <time>2021-07-07T20:45:12Z</time>
      </trkpt>
      <trkpt lat="45.40402" lon="-0.17835">
        <ele>108.29</ele>
        <time>2021-07-07T20:45:30Z</time>
      </trkpt>
      <trkpt lat="45.40658" lon="-0.17836">
        <ele>99.63</ele>
        <time>2021-07-07T20:45:40Z</time>
      </trkpt>
      <trkpt lat="45.4093" lon="-0.17823">
        <ele>95.31</ele>
        <time>2021-07-07T20:45:51Z</time>
      </trkpt>
      <trkpt lat="45.41169" lon="-0.17742">
        <ele>96.27</ele>
        <time>2021-07-07T20:46:01Z</time>
      </trkpt>
      <trkpt lat="45.41436" lon="-0.176">
        <ele>91.46</ele>
        <time>2021-07-07T20:46:12Z</time>
      </trkpt>
      <trkpt lat="45.41639" lon="-0.17541">
        <ele>87.14</ele>
        <time>2021-07-07T20:46:20Z</time>
      </trkpt>
      <trkpt lat="45.41943" lon="-0.17488">
        <ele>86.18</ele>
        <time>2021-07-07T20:46:31Z</time>
      </trkpt>
      <trkpt lat="45.42251" lon="-0.17369">
        <ele>92.42</ele>
        <time>2021-07-07T20:46:42Z</time>
      </trkpt>
      <trkpt lat="45.42563" lon="-0.17276">
        <ele>89.06</ele>
        <time>2021-07-07T20:46:53Z</time>
      </trkpt>
      <trkpt lat="45.42801" lon="-0.17269">
        <ele>91.94</ele>
        <time>2021-07-07T20:47:01Z</time>
      </trkpt>
      <trkpt lat="45.43145" lon="-0.17334">
        <ele>96.75</ele>
        <time>2021-07-07T20:47:13Z</time>
      </trkpt>
      <trkpt lat="45.43492" lon="-0.17379">
        <ele>93.87</ele>
        <time>2021-07-07T20:47:25Z</time>
      </trkpt>
      <trkpt lat="45.43722" lon="-0.17348">
        <ele>89.06</ele>
        <time>2021-07-07T20:47:33Z</time>
      </trkpt>
      <trkpt lat="45.43951" lon="-0.17245">
        <ele>82.81</ele>
        <time>2021-07-07T20:47:41Z</time>
      </trkpt>
      <trkpt lat="45.44158" lon="-0.1708">
        <ele>89.54</ele>
        <time>2021-07-07T20:47:49Z</time>
      </trkpt>
      <trkpt lat="45.44336" lon="-0.16861">
        <ele>96.75</ele>
        <time>2021-07-07T20:47:57Z</time>
      </trkpt>
      <trkpt lat="45.44503" lon="-0.16564">
        <ele>98.67</ele>
        <time>2021-07-07T20:48:06Z</time>
      </trkpt>
      <trkpt lat="45.44811" lon="-0.16057">
        <ele>93.87</ele>
        <time>2021-07-07T20:48:21Z</time>
      </trkpt>
      <trkpt lat="45.45326" lon="-0.15223">
        <ele>83.77</ele>
        <time>2021-07-07T20:48:46Z</time>
      </trkpt>
      <trkpt lat="45.45801" lon="-0.14464">
        <ele>77.52</ele>
        <time>2021-07-07T20:49:08Z</time>
      </trkpt>
      <trkpt lat="45.45991" lon="-0.14119">
        <ele>72.24</ele>
        <time>2021-07-07T20:49:19Z</time>
      </trkpt>
      <trkpt lat="45.4621" lon="-0.13765">
        <ele>64.55</ele>
        <time>2021-07-07T20:49:30Z</time>
      </trkpt>
      <trkpt lat="45.46399" lon="-0.13567">
        <ele>62.62</ele>
        <time>2021-07-07T20:49:38Z</time>
      </trkpt>
      <trkpt lat="45.46612" lon="-0.13427">
        <ele>62.14</ele>
        <time>2021-07-07T20:49:46Z</time>
      </trkpt>
      <trkpt lat="45.46869" lon="-0.13348">
        <ele>62.14</ele>
        <time>2021-07-07T20:49:54Z</time>
      </trkpt>
      <trkpt lat="45.47199" lon="-0.13305">
        <ele>63.58</ele>
        <time>2021-07-07T20:50:06Z</time>
      </trkpt>
      <trkpt lat="45.47617" lon="-0.1321">
        <ele>64.55</ele>
        <time>2021-07-07T20:50:20Z</time>
      </trkpt>
      <trkpt lat="45.48157" lon="-0.13088">
        <ele>65.51</ele>
        <time>2021-07-07T20:50:38Z</time>
      </trkpt>
      <trkpt lat="45.48604" lon="-0.13041">
        <ele>57.34</ele>
        <time>2021-07-07T20:50:53Z</time>
      </trkpt>
      <trkpt lat="45.49062" lon="-0.12973">
        <ele>48.2</ele>
        <time>2021-07-07T20:51:09Z</time>
      </trkpt>
      <trkpt lat="45.49282" lon="-0.12869">
        <ele>45.32</ele>
        <time>2021-07-07T20:51:17Z</time>
      </trkpt>
      <trkpt lat="45.49672" lon="-0.12587">
        <ele>40.99</ele>
        <time>2021-07-07T20:51:32Z</time>
      </trkpt>
      <trkpt lat="45.49924" lon="-0.12345">
        <ele>42.92</ele>
        <time>2021-07-07T20:51:42Z</time>
      </trkpt>
      <trkpt lat="45.50446" lon="-0.11772">
        <ele>61.66</ele>
        <time>2021-07-07T20:52:04Z</time>
      </trkpt>
      <trkpt lat="45.50936" lon="-0.11235">
        <ele>83.29</ele>
        <time>2021-07-07T20:52:25Z</time>
      </trkpt>
      <trkpt lat="45.51318" lon="-0.10812">
        <ele>74.16</ele>
        <time>2021-07-07T20:52:41Z</time>
      </trkpt>
      <trkpt lat="45.51703" lon="-0.10391">
        <ele>64.55</ele>
        <time>2021-07-07T20:52:57Z</time>
      </trkpt>
      <trkpt lat="45.51957" lon="-0.10093">
        <ele>53.97</ele>
        <time>2021-07-07T20:53:08Z</time>
      </trkpt>
      <trkpt lat="45.52073" lon="-0.09861">
        <ele>51.57</ele>
        <time>2021-07-07T20:53:15Z</time>
      </trkpt>
      <trkpt lat="45.52137" lon="-0.09627">
        <ele>48.68</ele>
        <time>2021-07-07T20:53:21Z</time>
      </trkpt>
      <trkpt lat="45.52221" lon="-0.09034">
        <ele>44.84</ele>
        <time>2021-07-07T20:53:35Z</time>
      </trkpt>
      <trkpt lat="45.52261" lon="-0.08622">
        <ele>47.72</ele>
        <time>2021-07-07T20:53:45Z</time>
      </trkpt>
      <trkpt lat="45.52242" lon="-0.08259">
        <ele>53.49</ele>
        <time>2021-07-07T20:53:54Z</time>
      </trkpt>
      <trkpt lat="45.52226" lon="-0.08019">
        <ele>57.82</ele>
        <time>2021-07-07T20:54:01Z</time>
      </trkpt>
      <trkpt lat="45.52227" lon="-0.07657">
        <ele>59.26</ele>
        <time>2021-07-07T20:54:10Z</time>
      </trkpt>
      <trkpt lat="45.52274" lon="-0.07347">
        <ele>58.78</ele>
        <time>2021-07-07T20:54:19Z</time>
      </trkpt>
      <trkpt lat="45.52382" lon="-0.07017">
        <ele>61.66</ele>
        <time>2021-07-07T20:54:27Z</time>
      </trkpt>
      <trkpt lat="45.52505" lon="-0.06791">
        <ele>70.31</ele>
        <time>2021-07-07T20:54:35Z</time>
      </trkpt>
      <trkpt lat="45.52672" lon="-0.06576">
        <ele>80.41</ele>
        <time>2021-07-07T20:54:43Z</time>
      </trkpt>
      <trkpt lat="45.52855" lon="-0.0633">
        <ele>89.54</ele>
        <time>2021-07-07T20:54:52Z</time>
      </trkpt>
      <trkpt lat="45.52978" lon="-0.06063">
        <ele>92.42</ele>
        <time>2021-07-07T20:55:00Z</time>
      </trkpt>
      <trkpt lat="45.5318" lon="-0.0562">
        <ele>102.52</ele>
        <time>2021-07-07T20:55:13Z</time>
      </trkpt>
      <trkpt lat="45.53602" lon="-0.04842">
        <ele>125.11</ele>
        <time>2021-07-07T20:55:37Z</time>
      </trkpt>
      <trkpt lat="45.53799" lon="-0.04544">
        <ele>124.15</ele>
        <time>2021-07-07T20:55:46Z</time>
      </trkpt>
      <trkpt lat="45.53945" lon="-0.04412">
        <ele>117.42</ele>
        <time>2021-07-07T20:55:53Z</time>
      </trkpt>
      <trkpt lat="45.54137" lon="-0.04268">
        <ele>103.96</ele>
        <time>2021-07-07T20:56:01Z</time>
      </trkpt>
      <trkpt lat="45.54319" lon="-0.04041">
        <ele>91.46</ele>
        <time>2021-07-07T20:56:10Z</time>
      </trkpt>
      <trkpt lat="45.54428" lon="-0.03819">
        <ele>80.41</ele>
        <time>2021-07-07T20:56:17Z</time>
      </trkpt>
      <trkpt lat="45.54504" lon="-0.03558">
        <ele>74.16</ele>
        <time>2021-07-07T20:56:24Z</time>
      </trkpt>
      <trkpt lat="45.54537" lon="-0.03238">
        <ele>74.16</ele>
        <time>2021-07-07T20:56:32Z</time>
      </trkpt>
      <trkpt lat="45.54557" lon="-0.02667">
        <ele>72.72</ele>
        <time>2021-07-07T20:56:46Z</time>
      </trkpt>
      <trkpt lat="45.54603" lon="-0.02311">
        <ele>67.43</ele>
        <time>2021-07-07T20:56:55Z</time>
      </trkpt>
      <trkpt lat="45.54703" lon="-0.01968">
        <ele>57.34</ele>
        <time>2021-07-07T20:57:04Z</time>
      </trkpt>
      <trkpt lat="45.54985" lon="-0.01236">
        <ele>61.66</ele>
        <time>2021-07-07T20:57:24Z</time>
      </trkpt>
      <trkpt lat="45.55247" lon="-0.00582">
        <ele>82.81</ele>
        <time>2021-07-07T20:57:43Z</time>
      </trkpt>
      <trkpt lat="45.55487" lon="-0.00142">
        <ele>93.39</ele>
        <time>2021-07-07T20:57:57Z</time>
      </trkpt>
      <trkpt lat="45.55833" lon="0.00499">
        <ele>77.04</ele>
        <time>2021-07-07T20:58:17Z</time>
      </trkpt>
      <trkpt lat="45.56218" lon="0.01189">
        <ele>56.86</ele>
        <time>2021-07-07T20:58:38Z</time>
      </trkpt>
      <trkpt lat="45.56612" lon="0.01905">
        <ele>59.74</ele>
        <time>2021-07-07T20:58:59Z</time>
      </trkpt>
      <trkpt lat="45.57078" lon="0.02735">
        <ele>58.78</ele>
        <time>2021-07-07T20:59:22Z</time>
      </trkpt>
      <trkpt lat="45.57277" lon="0.0302">
        <ele>60.22</ele>
        <time>2021-07-07T20:59:32Z</time>
      </trkpt>
      <trkpt lat="45.57702" lon="0.03525">
        <ele>62.14</ele>
        <time>2021-07-07T20:59:50Z</time>
      </trkpt>
      <trkpt lat="45.58264" lon="0.04191">
        <ele>47.72</ele>
        <time>2021-07-07T21:00:14Z</time>
      </trkpt>
      <trkpt lat="45.58615" lon="0.04599">
        <ele>40.51</ele>
        <time>2021-07-07T21:00:31Z</time>
      </trkpt>
      <trkpt lat="45.58747" lon="0.04824">
        <ele>42.44</ele>
        <time>2021-07-07T21:00:38Z</time>
      </trkpt>
      <trkpt lat="45.58885" lon="0.05207">
        <ele>44.84</ele>
        <time>2021-07-07T21:00:48Z</time>
      </trkpt>
      <trkpt lat="45.59133" lon="0.05864">
        <ele>53.01</ele>
        <time>2021-07-07T21:01:05Z</time>
      </trkpt>
      <trkpt lat="45.59358" lon="0.06257">
        <ele>57.82</ele>
        <time>2021-07-07T21:01:17Z</time>
      </trkpt>
      <trkpt lat="45.59704" lon="0.06837">
        <ele>55.41</ele>
        <time>2021-07-07T21:01:35Z</time>
      </trkpt>
      <trkpt lat="45.5987" lon="0.07079">
        <ele>58.3</ele>
        <time>2021-07-07T21:01:45Z</time>
      </trkpt>
      <trkpt lat="45.60021" lon="0.07192">
        <ele>59.26</ele>
        <time>2021-07-07T21:01:52Z</time>
      </trkpt>
      <trkpt lat="45.60294" lon="0.07334">
        <ele>62.14</ele>
        <time>2021-07-07T21:02:04Z</time>
      </trkpt>
      <trkpt lat="45.60553" lon="0.075">
        <ele>63.1</ele>
        <time>2021-07-07T21:02:15Z</time>
      </trkpt>
      <trkpt lat="45.60714" lon="0.07698">
        <ele>57.34</ele>
        <time>2021-07-07T21:02:23Z</time>
      </trkpt>
      <trkpt lat="45.60852" lon="0.07991">
        <ele>43.88</ele>
        <time>2021-07-07T21:02:31Z</time>
      </trkpt>
      <trkpt lat="45.60918" lon="0.08251">
        <ele>39.07</ele>
        <time>2021-07-07T21:02:38Z</time>
      </trkpt>
      <trkpt lat="45.61041" lon="0.08714">
        <ele>41.95</ele>
        <time>2021-07-07T21:02:52Z</time>
      </trkpt>
      <trkpt lat="45.6124" lon="0.09217">
        <ele>49.65</ele>
        <time>2021-07-07T21:03:07Z</time>
      </trkpt>
      <trkpt lat="45.61434" lon="0.09643">
        <ele>51.57</ele>
        <time>2021-07-07T21:03:20Z</time>
      </trkpt>
      <trkpt lat="45.61634" lon="0.09951">
        <ele>59.26</ele>
        <time>2021-07-07T21:03:31Z</time>
      </trkpt>
      <trkpt lat="45.61951" lon="0.10358">
        <ele>59.26</ele>
        <time>2021-07-07T21:03:47Z</time>
      </trkpt>
      <trkpt lat="45.62202" lon="0.10675">
        <ele>47.72</ele>
        <time>2021-07-07T21:04:01Z</time>
      </trkpt>
      <trkpt lat="45.62439" lon="0.10934">
        <ele>41.47</ele>
        <time>2021-07-07T21:04:12Z</time>
      </trkpt>
      <trkpt lat="45.62739" lon="0.11173">
        <ele>39.55</ele>
        <time>2021-07-07T21:04:24Z</time>
      </trkpt>
      <trkpt lat="45.63269" lon="0.1157">
        <ele>44.84</ele>
        <time>2021-07-07T21:04:44Z</time>
      </trkpt>
      <trkpt lat="45.6355" lon="0.11759">
        <ele>37.63</ele>
        <time>2021-07-07T21:04:56Z</time>
      </trkpt>
      <trkpt lat="45.63801" lon="0.11846">
        <ele>36.19</ele>
        <time>2021-07-07T21:05:05Z</time>
      </trkpt>
      <trkpt lat="45.64082" lon="0.11863">
        <ele>34.74</ele>
        <time>2021-07-07T21:05:15Z</time>
      </trkpt>
      <trkpt lat="45.64579" lon="0.11864">
        <ele>43.4</ele>
        <time>2021-07-07T21:05:33Z</time>
      </trkpt>
      <trkpt lat="45.65013" lon="0.11865">
        <ele>44.84</ele>
        <time>2021-07-07T21:05:48Z</time>
      </trkpt>
      <trkpt lat="45.6526" lon="0.11899">
        <ele>47.72</ele>
        <time>2021-07-07T21:05:57Z</time>
      </trkpt>
      <trkpt lat="45.655" lon="0.12012">
        <ele>48.2</ele>
        <time>2021-07-07T21:06:06Z</time>
      </trkpt>
      <trkpt lat="45.65689" lon="0.12174">
        <ele>42.44</ele>
        <time>2021-07-07T21:06:14Z</time>
      </trkpt>
      <trkpt lat="45.65802" lon="0.12301">
        <ele>38.11</ele>
        <time>2021-07-07T21:06:20Z</time>
      </trkpt>
      <trkpt lat="45.65922" lon="0.12439">
        <ele>37.15</ele>
        <time>2021-07-07T21:06:29Z</time>
      </trkpt>
      <trkpt lat="45.66023" lon="0.12556">
        <ele>35.71</ele>
        <time>2021-07-07T21:06:38Z</time>
      </trkpt>
      <trkpt lat="45.66189" lon="0.12749">
        <ele>37.63</ele>
        <time>2021-07-07T21:06:55Z</time>
      </trkpt>
      <trkpt lat="45.66295" lon="0.12872">
        <ele>36.67</ele>
        <time>2021-07-07T21:07:05Z</time>
      </trkpt>
      <trkpt lat="45.66332" lon="0.12952">
        <ele>33.78</ele>
        <time>2021-07-07T21:07:14Z</time>
      </trkpt>
      <trkpt lat="45.6634" lon="0.12962">
        <ele>32.82</ele>
        <time>2021-07-07T21:07:20Z</time>
      </trkpt>
      <trkpt lat="45.6634" lon="0.12962">
        <ele>32.34</ele>
        <time>2021-07-07T21:07:22Z</time>
      </trkpt>
      <trkpt lat="45.66345" lon="0.12969">
        <ele>32.34</ele>
        <time>2021-07-07T21:07:25Z</time>
      </trkpt>
      <trkpt lat="45.66348" lon="0.12974">
        <ele>31.86</ele>
        <time>2021-07-07T21:07:26Z</time>
      </trkpt>
      <trkpt lat="45.66351" lon="0.12978">
        <ele>31.86</ele>
        <time>2021-07-07T21:07:27Z</time>
      </trkpt>
      <trkpt lat="45.6635" lon="0.12989">
        <ele>31.38</ele>
        <time>2021-07-07T21:07:28Z</time>
      </trkpt>
      <trkpt lat="45.66347" lon="0.12997">
        <ele>31.38</ele>
        <time>2021-07-07T21:07:29Z</time>
      </trkpt>
      <trkpt lat="45.66343" lon="0.13007">
        <ele>31.38</ele>
        <time>2021-07-07T21:07:30Z</time>
      </trkpt>
      <trkpt lat="45.66313" lon="0.1309">
        <ele>29.94</ele>
        <time>2021-07-07T21:07:38Z</time>
      </trkpt>
      <trkpt lat="45.66307" lon="0.13108">
        <ele>29.46</ele>
        <time>2021-07-07T21:07:47Z</time>
      </trkpt>
      <trkpt lat="45.66286" lon="0.13198">
        <ele>30.9</ele>
        <time>2021-07-07T21:07:55Z</time>
      </trkpt>
      <trkpt lat="45.66225" lon="0.13459">
        <ele>31.38</ele>
        <time>2021-07-07T21:08:11Z</time>
      </trkpt>
      <trkpt lat="45.66161" lon="0.13734">
        <ele>32.34</ele>
        <time>2021-07-07T21:08:26Z</time>
      </trkpt>
      <trkpt lat="45.66133" lon="0.13819">
        <ele>32.82</ele>
        <time>2021-07-07T21:08:34Z</time>
      </trkpt>
      <trkpt lat="45.66101" lon="0.13906">
        <ele>32.82</ele>
        <time>2021-07-07T21:08:42Z</time>
      </trkpt>
      <trkpt lat="45.66029" lon="0.1406">
        <ele>31.38</ele>
        <time>2021-07-07T21:08:55Z</time>
      </trkpt>
      <trkpt lat="45.65947" lon="0.14241">
        <ele>29.46</ele>
        <time>2021-07-07T21:09:10Z</time>
      </trkpt>
      <trkpt lat="45.65937" lon="0.14265">
        <ele>29.94</ele>
        <time>2021-07-07T21:09:13Z</time>
      </trkpt>
      <trkpt lat="45.65935" lon="0.14269">
        <ele>29.94</ele>
        <time>2021-07-07T21:09:14Z</time>
      </trkpt>
      <trkpt lat="45.65916" lon="0.14273">
        <ele>29.94</ele>
        <time>2021-07-07T21:09:17Z</time>
      </trkpt>
      <trkpt lat="45.65915" lon="0.14278">
        <ele>29.46</ele>
        <time>2021-07-07T21:09:18Z</time>
      </trkpt>
      <trkpt lat="45.65918" lon="0.1429">
        <ele>29.46</ele>
        <time>2021-07-07T21:09:19Z</time>
      </trkpt>
      <trkpt lat="45.65929" lon="0.14295">
        <ele>29.46</ele>
        <time>2021-07-07T21:09:20Z</time>
      </trkpt>
      <trkpt lat="45.65935" lon="0.143">
        <ele>29.46</ele>
        <time>2021-07-07T21:09:21Z</time>
      </trkpt>
      <trkpt lat="45.65935" lon="0.143">
        <ele>28.98</ele>
        <time>2021-07-07T21:09:22Z</time>
      </trkpt>
      <trkpt lat="45.66035" lon="0.1437">
        <ele>34.26</ele>
        <time>2021-07-07T21:09:31Z</time>
      </trkpt>
      <trkpt lat="45.66187" lon="0.14481">
        <ele>41.95</ele>
        <time>2021-07-07T21:09:43Z</time>
      </trkpt>
      <trkpt lat="45.66187" lon="0.14481">
        <ele>41.95</ele>
        <time>2021-07-07T21:09:44Z</time>
      </trkpt>
      <trkpt lat="45.66202" lon="0.1449">
        <ele>42.44</ele>
        <time>2021-07-07T21:09:45Z</time>
      </trkpt>
      <trkpt lat="45.66208" lon="0.14493">
        <ele>42.44</ele>
        <time>2021-07-07T21:09:46Z</time>
      </trkpt>
      <trkpt lat="45.66208" lon="0.14493">
        <ele>42.44</ele>
        <time>2021-07-07T21:09:47Z</time>
      </trkpt>
      <trkpt lat="45.66215" lon="0.14496">
        <ele>42.44</ele>
        <time>2021-07-07T21:09:48Z</time>
      </trkpt>
      <trkpt lat="45.66261" lon="0.14517">
        <ele>40.99</ele>
        <time>2021-07-07T21:09:53Z</time>
      </trkpt>
      <trkpt lat="45.66271" lon="0.14525">
        <ele>40.99</ele>
        <time>2021-07-07T21:09:54Z</time>
      </trkpt>
      <trkpt lat="45.66364" lon="0.14634">
        <ele>50.13</ele>
        <time>2021-07-07T21:10:03Z</time>
      </trkpt>
      <trkpt lat="45.6642" lon="0.14759">
        <ele>49.65</ele>
        <time>2021-07-07T21:10:11Z</time>
      </trkpt>
      <trkpt lat="45.66423" lon="0.14772">
        <ele>49.16</ele>
        <time>2021-07-07T21:10:12Z</time>
      </trkpt>
      <trkpt lat="45.66425" lon="0.14784">
        <ele>48.2</ele>
        <time>2021-07-07T21:10:13Z</time>
      </trkpt>
      <trkpt lat="45.66426" lon="0.14794">
        <ele>48.68</ele>
        <time>2021-07-07T21:10:14Z</time>
      </trkpt>
      <trkpt lat="45.66427" lon="0.14803">
        <ele>48.68</ele>
        <time>2021-07-07T21:10:15Z</time>
      </trkpt>
      <trkpt lat="45.66431" lon="0.1481">
        <ele>48.68</ele>
        <time>2021-07-07T21:10:16Z</time>
      </trkpt>
      <trkpt lat="45.66434" lon="0.14818">
        <ele>48.68</ele>
        <time>2021-07-07T21:10:17Z</time>
      </trkpt>
      <trkpt lat="45.66435" lon="0.14825">
        <ele>48.2</ele>
        <time>2021-07-07T21:10:18Z</time>
      </trkpt>
      <trkpt lat="45.66437" lon="0.14833">
        <ele>48.2</ele>
        <time>2021-07-07T21:10:19Z</time>
      </trkpt>
      <trkpt lat="45.66439" lon="0.14844">
        <ele>47.72</ele>
        <time>2021-07-07T21:10:20Z</time>
      </trkpt>
      <trkpt lat="45.6644" lon="0.14959">
        <ele>45.32</ele>
        <time>2021-07-07T21:10:27Z</time>
      </trkpt>
      <trkpt lat="45.66414" lon="0.1515">
        <ele>40.03</ele>
        <time>2021-07-07T21:10:38Z</time>
      </trkpt>
      <trkpt lat="45.66414" lon="0.1515">
        <ele>40.03</ele>
        <time>2021-07-07T21:10:39Z</time>
      </trkpt>
      <trkpt lat="45.66413" lon="0.15158">
        <ele>39.55</ele>
        <time>2021-07-07T21:10:40Z</time>
      </trkpt>
      <trkpt lat="45.66412" lon="0.15164">
        <ele>39.55</ele>
        <time>2021-07-07T21:10:41Z</time>
      </trkpt>
      <trkpt lat="45.66407" lon="0.15164">
        <ele>39.07</ele>
        <time>2021-07-07T21:10:42Z</time>
      </trkpt>
      <trkpt lat="45.66401" lon="0.15171">
        <ele>38.59</ele>
        <time>2021-07-07T21:10:43Z</time>
      </trkpt>
      <trkpt lat="45.66401" lon="0.1519">
        <ele>38.11</ele>
        <time>2021-07-07T21:10:44Z</time>
      </trkpt>
      <trkpt lat="45.66401" lon="0.1519">
        <ele>37.63</ele>
        <time>2021-07-07T21:10:45Z</time>
      </trkpt>
      <trkpt lat="45.66398" lon="0.15199">
        <ele>37.15</ele>
        <time>2021-07-07T21:10:46Z</time>
      </trkpt>
      <trkpt lat="45.66394" lon="0.15211">
        <ele>36.67</ele>
        <time>2021-07-07T21:10:47Z</time>
      </trkpt>
      <trkpt lat="45.66352" lon="0.1534">
        <ele>32.34</ele>
        <time>2021-07-07T21:10:54Z</time>
      </trkpt>
      <trkpt lat="45.66274" lon="0.15569">
        <ele>28.98</ele>
        <time>2021-07-07T21:11:06Z</time>
      </trkpt>
      <trkpt lat="45.66269" lon="0.15582">
        <ele>29.46</ele>
        <time>2021-07-07T21:11:07Z</time>
      </trkpt>
      <trkpt lat="45.66264" lon="0.15594">
        <ele>29.46</ele>
        <time>2021-07-07T21:11:08Z</time>
      </trkpt>
      <trkpt lat="45.66249" lon="0.15605">
        <ele>30.42</ele>
        <time>2021-07-07T21:11:10Z</time>
      </trkpt>
      <trkpt lat="45.66245" lon="0.15612">
        <ele>29.94</ele>
        <time>2021-07-07T21:11:11Z</time>
      </trkpt>
      <trkpt lat="45.66253" lon="0.15632">
        <ele>29.94</ele>
        <time>2021-07-07T21:11:12Z</time>
      </trkpt>
      <trkpt lat="45.66251" lon="0.15637">
        <ele>29.46</ele>
        <time>2021-07-07T21:11:13Z</time>
      </trkpt>
      <trkpt lat="45.66249" lon="0.15647">
        <ele>29.46</ele>
        <time>2021-07-07T21:11:14Z</time>
      </trkpt>
      <trkpt lat="45.66246" lon="0.15659">
        <ele>29.46</ele>
        <time>2021-07-07T21:11:15Z</time>
      </trkpt>
      <trkpt lat="45.66242" lon="0.15671">
        <ele>28.98</ele>
        <time>2021-07-07T21:11:16Z</time>
      </trkpt>
      <trkpt lat="45.66199" lon="0.1581">
        <ele>29.46</ele>
        <time>2021-07-07T21:11:24Z</time>
      </trkpt>
      <trkpt lat="45.6611" lon="0.16062">
        <ele>29.94</ele>
        <time>2021-07-07T21:11:37Z</time>
      </trkpt>
      <trkpt lat="45.66086" lon="0.16131">
        <ele>30.42</ele>
        <time>2021-07-07T21:11:42Z</time>
      </trkpt>
      <trkpt lat="45.66083" lon="0.16139">
        <ele>30.9</ele>
        <time>2021-07-07T21:11:43Z</time>
      </trkpt>
      <trkpt lat="45.66074" lon="0.16149">
        <ele>30.9</ele>
        <time>2021-07-07T21:11:49Z</time>
      </trkpt>
      <trkpt lat="45.66071" lon="0.16151">
        <ele>30.9</ele>
        <time>2021-07-07T21:11:50Z</time>
      </trkpt>
      <trkpt lat="45.66061" lon="0.16163">
        <ele>30.9</ele>
        <time>2021-07-07T21:11:51Z</time>
      </trkpt>
      <trkpt lat="45.66061" lon="0.16163">
        <ele>30.42</ele>
        <time>2021-07-07T21:11:52Z</time>
      </trkpt>
      <trkpt lat="45.6606" lon="0.16169">
        <ele>29.94</ele>
        <time>2021-07-07T21:11:53Z</time>
      </trkpt>
      <trkpt lat="45.66063" lon="0.16179">
        <ele>29.94</ele>
        <time>2021-07-07T21:11:54Z</time>
      </trkpt>
      <trkpt lat="45.66065" lon="0.16186">
        <ele>29.94</ele>
        <time>2021-07-07T21:11:55Z</time>
      </trkpt>
      <trkpt lat="45.66073" lon="0.16194">
        <ele>29.94</ele>
        <time>2021-07-07T21:11:56Z</time>
      </trkpt>
      <trkpt lat="45.66089" lon="0.16195">
        <ele>29.46</ele>
        <time>2021-07-07T21:11:57Z</time>
      </trkpt>
      <trkpt lat="45.66151" lon="0.16246">
        <ele>22.73</ele>
        <time>2021-07-07T21:12:05Z</time>
      </trkpt>
      <trkpt lat="45.66162" lon="0.16252">
        <ele>22.73</ele>
        <time>2021-07-07T21:12:06Z</time>
      </trkpt>
      <trkpt lat="45.66173" lon="0.16256">
        <ele>23.21</ele>
        <time>2021-07-07T21:12:07Z</time>
      </trkpt>
      <trkpt lat="45.66184" lon="0.16259">
        <ele>25.13</ele>
        <time>2021-07-07T21:12:08Z</time>
      </trkpt>
      <trkpt lat="45.66192" lon="0.1626">
        <ele>24.65</ele>
        <time>2021-07-07T21:12:09Z</time>
      </trkpt>
      <trkpt lat="45.66202" lon="0.16257">
        <ele>23.69</ele>
        <time>2021-07-07T21:12:10Z</time>
      </trkpt>
      <trkpt lat="45.66211" lon="0.16254">
        <ele>22.73</ele>
        <time>2021-07-07T21:12:11Z</time>
      </trkpt>
      <trkpt lat="45.66288" lon="0.16234">
        <ele>25.13</ele>
        <time>2021-07-07T21:12:20Z</time>
      </trkpt>
      <trkpt lat="45.66425" lon="0.16228">
        <ele>21.77</ele>
        <time>2021-07-07T21:12:32Z</time>
      </trkpt>
      <trkpt lat="45.66487" lon="0.16222">
        <ele>21.77</ele>
        <time>2021-07-07T21:12:38Z</time>
      </trkpt>
      <trkpt lat="45.66513" lon="0.16212">
        <ele>23.21</ele>
        <time>2021-07-07T21:12:41Z</time>
      </trkpt>
      <trkpt lat="45.66622" lon="0.16135">
        <ele>20.81</ele>
        <time>2021-07-07T21:12:53Z</time>
      </trkpt>
      <trkpt lat="45.66713" lon="0.16063">
        <ele>17.92</ele>
        <time>2021-07-07T21:13:04Z</time>
      </trkpt>
      <trkpt lat="45.66721" lon="0.16059">
        <ele>17.44</ele>
        <time>2021-07-07T21:13:05Z</time>
      </trkpt>
      <trkpt lat="45.66729" lon="0.16055">
        <ele>17.44</ele>
        <time>2021-07-07T21:13:06Z</time>
      </trkpt>
      <trkpt lat="45.66741" lon="0.16051">
        <ele>16.96</ele>
        <time>2021-07-07T21:13:07Z</time>
      </trkpt>
      <trkpt lat="45.66741" lon="0.16051">
        <ele>16.96</ele>
        <time>2021-07-07T21:13:08Z</time>
      </trkpt>
      <trkpt lat="45.6676" lon="0.16047">
        <ele>17.44</ele>
        <time>2021-07-07T21:13:11Z</time>
      </trkpt>
      <trkpt lat="45.66768" lon="0.16047">
        <ele>17.92</ele>
        <time>2021-07-07T21:13:12Z</time>
      </trkpt>
      <trkpt lat="45.66782" lon="0.1605">
        <ele>18.4</ele>
        <time>2021-07-07T21:13:13Z</time>
      </trkpt>
      <trkpt lat="45.66831" lon="0.16069">
        <ele>21.77</ele>
        <time>2021-07-07T21:13:21Z</time>
      </trkpt>
      <trkpt lat="45.66839" lon="0.16072">
        <ele>22.25</ele>
        <time>2021-07-07T21:13:22Z</time>
      </trkpt>
      <trkpt lat="45.66846" lon="0.16072">
        <ele>21.77</ele>
        <time>2021-07-07T21:13:23Z</time>
      </trkpt>
      <trkpt lat="45.66964" lon="0.16048">
        <ele>21.77</ele>
        <time>2021-07-07T21:13:37Z</time>
      </trkpt>
      <trkpt lat="45.67018" lon="0.16018">
        <ele>18.88</ele>
        <time>2021-07-07T21:13:46Z</time>
      </trkpt>
      <trkpt lat="45.67067" lon="0.15985">
        <ele>19.36</ele>
        <time>2021-07-07T21:13:53Z</time>
      </trkpt>
      <trkpt lat="45.67143" lon="0.1595">
        <ele>19.84</ele>
        <time>2021-07-07T21:14:02Z</time>
      </trkpt>
      <trkpt lat="45.67155" lon="0.15946">
        <ele>19.36</ele>
        <time>2021-07-07T21:14:09Z</time>
      </trkpt>
      <trkpt lat="45.67177" lon="0.15938">
        <ele>19.84</ele>
        <time>2021-07-07T21:14:22Z</time>
      </trkpt>
      <trkpt lat="45.67267" lon="0.15907">
        <ele>20.32</ele>
        <time>2021-07-07T21:14:33Z</time>
      </trkpt>
      <trkpt lat="45.67404" lon="0.15863">
        <ele>22.25</ele>
        <time>2021-07-07T21:14:47Z</time>
      </trkpt>
    </trkseg>
  </trk>
  <trk>
    <name><![CDATA[Journal actif: 2021-07-09 09:10]]></name>
    <trkseg>
      <trkpt lat="45.67449" lon="0.16046">
        <ele>39.07</ele>
        <time>2021-07-09T11:10:00Z</time>
      </trkpt>
      <trkpt lat="45.6745" lon="0.1605">
        <ele>38.59</ele>
        <time>2021-07-09T11:10:07Z</time>
      </trkpt>
      <trkpt lat="45.67452" lon="0.16048">
        <ele>38.11</ele>
        <time>2021-07-09T11:10:11Z</time>
      </trkpt>
      <trkpt lat="45.67454" lon="0.16047">
        <ele>37.63</ele>
        <time>2021-07-09T11:10:12Z</time>
      </trkpt>
      <trkpt lat="45.67458" lon="0.16046">
        <ele>37.63</ele>
        <time>2021-07-09T11:10:13Z</time>
      </trkpt>
      <trkpt lat="45.67462" lon="0.16046">
        <ele>37.63</ele>
        <time>2021-07-09T11:10:14Z</time>
      </trkpt>
      <trkpt lat="45.67527" lon="0.16041">
        <ele>40.03</ele>
        <time>2021-07-09T11:10:26Z</time>
      </trkpt>
      <trkpt lat="45.67608" lon="0.15992">
        <ele>40.03</ele>
        <time>2021-07-09T11:10:39Z</time>
      </trkpt>
      <trkpt lat="45.67617" lon="0.15983">
        <ele>40.03</ele>
        <time>2021-07-09T11:10:41Z</time>
      </trkpt>
      <trkpt lat="45.67622" lon="0.15981">
        <ele>40.03</ele>
        <time>2021-07-09T11:10:42Z</time>
      </trkpt>
      <trkpt lat="45.67627" lon="0.1598">
        <ele>39.55</ele>
        <time>2021-07-09T11:10:43Z</time>
      </trkpt>
      <trkpt lat="45.6763" lon="0.15982">
        <ele>39.07</ele>
        <time>2021-07-09T11:10:44Z</time>
      </trkpt>
      <trkpt lat="45.67636" lon="0.15992">
        <ele>38.59</ele>
        <time>2021-07-09T11:10:45Z</time>
      </trkpt>
      <trkpt lat="45.67636" lon="0.15992">
        <ele>38.11</ele>
        <time>2021-07-09T11:10:46Z</time>
      </trkpt>
      <trkpt lat="45.67662" lon="0.16049">
        <ele>39.07</ele>
        <time>2021-07-09T11:10:53Z</time>
      </trkpt>
      <trkpt lat="45.67662" lon="0.16049">
        <ele>39.07</ele>
        <time>2021-07-09T11:10:54Z</time>
      </trkpt>
      <trkpt lat="45.67665" lon="0.16054">
        <ele>39.07</ele>
        <time>2021-07-09T11:10:55Z</time>
      </trkpt>
      <trkpt lat="45.6767" lon="0.16058">
        <ele>39.07</ele>
        <time>2021-07-09T11:10:56Z</time>
      </trkpt>
      <trkpt lat="45.67674" lon="0.16056">
        <ele>38.59</ele>
        <time>2021-07-09T11:10:57Z</time>
      </trkpt>
      <trkpt lat="45.67679" lon="0.16053">
        <ele>39.07</ele>
        <time>2021-07-09T11:10:58Z</time>
      </trkpt>
      <trkpt lat="45.67761" lon="0.16021">
        <ele>40.03</ele>
        <time>2021-07-09T11:11:09Z</time>
      </trkpt>
      <trkpt lat="45.67787" lon="0.16011">
        <ele>40.51</ele>
        <time>2021-07-09T11:11:13Z</time>
      </trkpt>
      <trkpt lat="45.67791" lon="0.1601">
        <ele>40.51</ele>
        <time>2021-07-09T11:11:14Z</time>
      </trkpt>
      <trkpt lat="45.67795" lon="0.16006">
        <ele>40.51</ele>
        <time>2021-07-09T11:11:15Z</time>
      </trkpt>
      <trkpt lat="45.67798" lon="0.16003">
        <ele>40.51</ele>
        <time>2021-07-09T11:11:16Z</time>
      </trkpt>
      <trkpt lat="45.67799" lon="0.15997">
        <ele>40.03</ele>
        <time>2021-07-09T11:11:17Z</time>
      </trkpt>
      <trkpt lat="45.67801" lon="0.1599">
        <ele>40.03</ele>
        <time>2021-07-09T11:11:18Z</time>
      </trkpt>
      <trkpt lat="45.67805" lon="0.15974">
        <ele>39.07</ele>
        <time>2021-07-09T11:11:20Z</time>
      </trkpt>
      <trkpt lat="45.67806" lon="0.15966">
        <ele>39.07</ele>
        <time>2021-07-09T11:11:21Z</time>
      </trkpt>
      <trkpt lat="45.67806" lon="0.15957">
        <ele>39.07</ele>
        <time>2021-07-09T11:11:22Z</time>
      </trkpt>
      <trkpt lat="45.67806" lon="0.15941">
        <ele>38.59</ele>
        <time>2021-07-09T11:11:24Z</time>
      </trkpt>
      <trkpt lat="45.67806" lon="0.15937">
        <ele>38.59</ele>
        <time>2021-07-09T11:11:25Z</time>
      </trkpt>
      <trkpt lat="45.6781" lon="0.15928">
        <ele>38.59</ele>
        <time>2021-07-09T11:11:26Z</time>
      </trkpt>
      <trkpt lat="45.67811" lon="0.15926">
        <ele>38.59</ele>
        <time>2021-07-09T11:11:27Z</time>
      </trkpt>
      <trkpt lat="45.67813" lon="0.15926">
        <ele>38.59</ele>
        <time>2021-07-09T11:11:28Z</time>
      </trkpt>
      <trkpt lat="45.67813" lon="0.15926">
        <ele>39.07</ele>
        <time>2021-07-09T11:11:29Z</time>
      </trkpt>
      <trkpt lat="45.67817" lon="0.15926">
        <ele>39.07</ele>
        <time>2021-07-09T11:11:30Z</time>
      </trkpt>
      <trkpt lat="45.67874" lon="0.15924">
        <ele>41.95</ele>
        <time>2021-07-09T11:11:43Z</time>
      </trkpt>
      <trkpt lat="45.67874" lon="0.15924">
        <ele>41.95</ele>
        <time>2021-07-09T11:11:47Z</time>
      </trkpt>
      <trkpt lat="45.67877" lon="0.15924">
        <ele>41.95</ele>
        <time>2021-07-09T11:11:48Z</time>
      </trkpt>
      <trkpt lat="45.67877" lon="0.1592">
        <ele>41.95</ele>
        <time>2021-07-09T11:11:49Z</time>
      </trkpt>
      <trkpt lat="45.67877" lon="0.15917">
        <ele>41.95</ele>
        <time>2021-07-09T11:11:50Z</time>
      </trkpt>
      <trkpt lat="45.67877" lon="0.15914">
        <ele>41.95</ele>
        <time>2021-07-09T11:11:51Z</time>
      </trkpt>
      <trkpt lat="45.67875" lon="0.15839">
        <ele>40.03</ele>
        <time>2021-07-09T11:12:01Z</time>
      </trkpt>
      <trkpt lat="45.67869" lon="0.15716">
        <ele>37.63</ele>
        <time>2021-07-09T11:12:15Z</time>
      </trkpt>
      <trkpt lat="45.67876" lon="0.1571">
        <ele>37.63</ele>
        <time>2021-07-09T11:12:16Z</time>
      </trkpt>
      <trkpt lat="45.67876" lon="0.157">
        <ele>37.63</ele>
        <time>2021-07-09T11:12:17Z</time>
      </trkpt>
      <trkpt lat="45.67875" lon="0.15696">
        <ele>37.15</ele>
        <time>2021-07-09T11:12:18Z</time>
      </trkpt>
      <trkpt lat="45.67866" lon="0.15681">
        <ele>36.67</ele>
        <time>2021-07-09T11:12:20Z</time>
      </trkpt>
      <trkpt lat="45.67864" lon="0.15663">
        <ele>36.19</ele>
        <time>2021-07-09T11:12:21Z</time>
      </trkpt>
      <trkpt lat="45.67864" lon="0.15663">
        <ele>35.71</ele>
        <time>2021-07-09T11:12:22Z</time>
      </trkpt>
      <trkpt lat="45.67857" lon="0.15543">
        <ele>33.3</ele>
        <time>2021-07-09T11:12:32Z</time>
      </trkpt>
      <trkpt lat="45.67849" lon="0.15393">
        <ele>33.78</ele>
        <time>2021-07-09T11:12:45Z</time>
      </trkpt>
      <trkpt lat="45.67836" lon="0.15141">
        <ele>30.9</ele>
        <time>2021-07-09T11:13:00Z</time>
      </trkpt>
      <trkpt lat="45.67827" lon="0.14969">
        <ele>33.3</ele>
        <time>2021-07-09T11:13:11Z</time>
      </trkpt>
      <trkpt lat="45.67826" lon="0.14958">
        <ele>33.78</ele>
        <time>2021-07-09T11:13:12Z</time>
      </trkpt>
      <trkpt lat="45.67826" lon="0.14948">
        <ele>33.78</ele>
        <time>2021-07-09T11:13:13Z</time>
      </trkpt>
      <trkpt lat="45.67838" lon="0.14933">
        <ele>34.26</ele>
        <time>2021-07-09T11:13:15Z</time>
      </trkpt>
      <trkpt lat="45.67839" lon="0.14925">
        <ele>34.26</ele>
        <time>2021-07-09T11:13:16Z</time>
      </trkpt>
      <trkpt lat="45.67841" lon="0.14917">
        <ele>34.74</ele>
        <time>2021-07-09T11:13:17Z</time>
      </trkpt>
      <trkpt lat="45.67835" lon="0.14904">
        <ele>34.74</ele>
        <time>2021-07-09T11:13:18Z</time>
      </trkpt>
      <trkpt lat="45.67834" lon="0.14902">
        <ele>34.74</ele>
        <time>2021-07-09T11:13:19Z</time>
      </trkpt>
      <trkpt lat="45.67821" lon="0.14889">
        <ele>34.74</ele>
        <time>2021-07-09T11:13:20Z</time>
      </trkpt>
      <trkpt lat="45.67821" lon="0.1488">
        <ele>34.74</ele>
        <time>2021-07-09T11:13:21Z</time>
      </trkpt>
      <trkpt lat="45.6782" lon="0.14869">
        <ele>34.74</ele>
        <time>2021-07-09T11:13:22Z</time>
      </trkpt>
      <trkpt lat="45.67819" lon="0.14857">
        <ele>34.74</ele>
        <time>2021-07-09T11:13:23Z</time>
      </trkpt>
      <trkpt lat="45.67812" lon="0.14697">
        <ele>34.26</ele>
        <time>2021-07-09T11:13:33Z</time>
      </trkpt>
      <trkpt lat="45.67799" lon="0.14496">
        <ele>34.74</ele>
        <time>2021-07-09T11:13:45Z</time>
      </trkpt>
      <trkpt lat="45.67796" lon="0.14458">
        <ele>35.23</ele>
        <time>2021-07-09T11:13:48Z</time>
      </trkpt>
      <trkpt lat="45.67794" lon="0.14448">
        <ele>35.71</ele>
        <time>2021-07-09T11:13:49Z</time>
      </trkpt>
      <trkpt lat="45.67793" lon="0.14441">
        <ele>35.71</ele>
        <time>2021-07-09T11:13:50Z</time>
      </trkpt>
      <trkpt lat="45.67806" lon="0.14423">
        <ele>35.71</ele>
        <time>2021-07-09T11:13:52Z</time>
      </trkpt>
      <trkpt lat="45.67807" lon="0.14411">
        <ele>35.71</ele>
        <time>2021-07-09T11:13:53Z</time>
      </trkpt>
      <trkpt lat="45.67805" lon="0.14403">
        <ele>36.19</ele>
        <time>2021-07-09T11:13:54Z</time>
      </trkpt>
      <trkpt lat="45.67803" lon="0.14395">
        <ele>36.19</ele>
        <time>2021-07-09T11:13:55Z</time>
      </trkpt>
      <trkpt lat="45.67798" lon="0.1439">
        <ele>36.67</ele>
        <time>2021-07-09T11:13:56Z</time>
      </trkpt>
      <trkpt lat="45.67792" lon="0.14387">
        <ele>37.15</ele>
        <time>2021-07-09T11:13:57Z</time>
      </trkpt>
      <trkpt lat="45.67786" lon="0.14379">
        <ele>37.63</ele>
        <time>2021-07-09T11:13:58Z</time>
      </trkpt>
      <trkpt lat="45.67782" lon="0.14371">
        <ele>38.11</ele>
        <time>2021-07-09T11:13:59Z</time>
      </trkpt>
      <trkpt lat="45.67778" lon="0.14362">
        <ele>39.07</ele>
        <time>2021-07-09T11:14:00Z</time>
      </trkpt>
      <trkpt lat="45.6774" lon="0.14233">
        <ele>41.47</ele>
        <time>2021-07-09T11:14:09Z</time>
      </trkpt>
      <trkpt lat="45.67669" lon="0.1396">
        <ele>55.41</ele>
        <time>2021-07-09T11:14:25Z</time>
      </trkpt>
      <trkpt lat="45.67668" lon="0.13926">
        <ele>57.82</ele>
        <time>2021-07-09T11:14:27Z</time>
      </trkpt>
      <trkpt lat="45.67669" lon="0.13912">
        <ele>59.74</ele>
        <time>2021-07-09T11:14:28Z</time>
      </trkpt>
      <trkpt lat="45.6767" lon="0.13897">
        <ele>60.7</ele>
        <time>2021-07-09T11:14:29Z</time>
      </trkpt>
      <trkpt lat="45.67686" lon="0.13834">
        <ele>60.7</ele>
        <time>2021-07-09T11:14:35Z</time>
      </trkpt>
      <trkpt lat="45.67692" lon="0.13818">
        <ele>60.7</ele>
        <time>2021-07-09T11:14:36Z</time>
      </trkpt>
      <trkpt lat="45.67692" lon="0.13818">
        <ele>60.7</ele>
        <time>2021-07-09T11:14:37Z</time>
      </trkpt>
      <trkpt lat="45.67696" lon="0.13809">
        <ele>60.22</ele>
        <time>2021-07-09T11:14:38Z</time>
      </trkpt>
      <trkpt lat="45.677" lon="0.13801">
        <ele>60.22</ele>
        <time>2021-07-09T11:14:39Z</time>
      </trkpt>
      <trkpt lat="45.67701" lon="0.13788">
        <ele>60.22</ele>
        <time>2021-07-09T11:14:40Z</time>
      </trkpt>
      <trkpt lat="45.67699" lon="0.1378">
        <ele>60.22</ele>
        <time>2021-07-09T11:14:41Z</time>
      </trkpt>
      <trkpt lat="45.67697" lon="0.13771">
        <ele>59.74</ele>
        <time>2021-07-09T11:14:42Z</time>
      </trkpt>
      <trkpt lat="45.67695" lon="0.13762">
        <ele>59.74</ele>
        <time>2021-07-09T11:14:43Z</time>
      </trkpt>
      <trkpt lat="45.67696" lon="0.13751">
        <ele>59.74</ele>
        <time>2021-07-09T11:14:44Z</time>
      </trkpt>
      <trkpt lat="45.67697" lon="0.1374">
        <ele>60.22</ele>
        <time>2021-07-09T11:14:45Z</time>
      </trkpt>
      <trkpt lat="45.67698" lon="0.13727">
        <ele>60.7</ele>
        <time>2021-07-09T11:14:46Z</time>
      </trkpt>
      <trkpt lat="45.67699" lon="0.13713">
        <ele>60.22</ele>
        <time>2021-07-09T11:14:47Z</time>
      </trkpt>
      <trkpt lat="45.67703" lon="0.13699">
        <ele>60.22</ele>
        <time>2021-07-09T11:14:48Z</time>
      </trkpt>
      <trkpt lat="45.67714" lon="0.13669">
        <ele>60.22</ele>
        <time>2021-07-09T11:14:49Z</time>
      </trkpt>
      <trkpt lat="45.67714" lon="0.13669">
        <ele>60.22</ele>
        <time>2021-07-09T11:14:50Z</time>
      </trkpt>
      <trkpt lat="45.6772" lon="0.13654">
        <ele>60.22</ele>
        <time>2021-07-09T11:14:51Z</time>
      </trkpt>
      <trkpt lat="45.67728" lon="0.13641">
        <ele>60.22</ele>
        <time>2021-07-09T11:14:52Z</time>
      </trkpt>
      <trkpt lat="45.67746" lon="0.13616">
        <ele>60.7</ele>
        <time>2021-07-09T11:14:53Z</time>
      </trkpt>
      <trkpt lat="45.67877" lon="0.13468">
        <ele>63.1</ele>
        <time>2021-07-09T11:15:05Z</time>
      </trkpt>
      <trkpt lat="45.67963" lon="0.13434">
        <ele>63.1</ele>
        <time>2021-07-09T11:15:13Z</time>
      </trkpt>
      <trkpt lat="45.67973" lon="0.13427">
        <ele>63.1</ele>
        <time>2021-07-09T11:15:14Z</time>
      </trkpt>
      <trkpt lat="45.67982" lon="0.13419">
        <ele>64.07</ele>
        <time>2021-07-09T11:15:15Z</time>
      </trkpt>
      <trkpt lat="45.67991" lon="0.13412">
        <ele>65.03</ele>
        <time>2021-07-09T11:15:16Z</time>
      </trkpt>
      <trkpt lat="45.67996" lon="0.13406">
        <ele>65.03</ele>
        <time>2021-07-09T11:15:17Z</time>
      </trkpt>
      <trkpt lat="45.68003" lon="0.13377">
        <ele>65.03</ele>
        <time>2021-07-09T11:15:18Z</time>
      </trkpt>
      <trkpt lat="45.68006" lon="0.13362">
        <ele>65.51</ele>
        <time>2021-07-09T11:15:19Z</time>
      </trkpt>
      <trkpt lat="45.68004" lon="0.13349">
        <ele>65.51</ele>
        <time>2021-07-09T11:15:20Z</time>
      </trkpt>
      <trkpt lat="45.68004" lon="0.13349">
        <ele>64.55</ele>
        <time>2021-07-09T11:15:21Z</time>
      </trkpt>
      <trkpt lat="45.68001" lon="0.13322">
        <ele>64.55</ele>
        <time>2021-07-09T11:15:22Z</time>
      </trkpt>
      <trkpt lat="45.67999" lon="0.13306">
        <ele>65.99</ele>
        <time>2021-07-09T11:15:24Z</time>
      </trkpt>
      <trkpt lat="45.67999" lon="0.13306">
        <ele>66.95</ele>
        <time>2021-07-09T11:15:25Z</time>
      </trkpt>
      <trkpt lat="45.68009" lon="0.13278">
        <ele>67.43</ele>
        <time>2021-07-09T11:15:26Z</time>
      </trkpt>
      <trkpt lat="45.68009" lon="0.13278">
        <ele>66.95</ele>
        <time>2021-07-09T11:15:27Z</time>
      </trkpt>
      <trkpt lat="45.68007" lon="0.1327">
        <ele>66.95</ele>
        <time>2021-07-09T11:15:28Z</time>
      </trkpt>
      <trkpt lat="45.68" lon="0.13264">
        <ele>66.95</ele>
        <time>2021-07-09T11:15:29Z</time>
      </trkpt>
      <trkpt lat="45.67995" lon="0.13261">
        <ele>66.95</ele>
        <time>2021-07-09T11:15:30Z</time>
      </trkpt>
      <trkpt lat="45.67989" lon="0.13261">
        <ele>66.95</ele>
        <time>2021-07-09T11:15:31Z</time>
      </trkpt>
      <trkpt lat="45.67987" lon="0.13261">
        <ele>66.47</ele>
        <time>2021-07-09T11:15:32Z</time>
      </trkpt>
      <trkpt lat="45.6797" lon="0.13265">
        <ele>66.47</ele>
        <time>2021-07-09T11:15:33Z</time>
      </trkpt>
      <trkpt lat="45.67964" lon="0.1326">
        <ele>66.47</ele>
        <time>2021-07-09T11:15:34Z</time>
      </trkpt>
      <trkpt lat="45.67957" lon="0.13254">
        <ele>66.47</ele>
        <time>2021-07-09T11:15:35Z</time>
      </trkpt>
      <trkpt lat="45.67885" lon="0.13194">
        <ele>67.43</ele>
        <time>2021-07-09T11:15:44Z</time>
      </trkpt>
      <trkpt lat="45.67879" lon="0.13188">
        <ele>66.95</ele>
        <time>2021-07-09T11:15:45Z</time>
      </trkpt>
      <trkpt lat="45.67875" lon="0.13184">
        <ele>66.95</ele>
        <time>2021-07-09T11:15:46Z</time>
      </trkpt>
      <trkpt lat="45.67876" lon="0.13168">
        <ele>66.95</ele>
        <time>2021-07-09T11:15:47Z</time>
      </trkpt>
      <trkpt lat="45.67875" lon="0.13153">
        <ele>66.95</ele>
        <time>2021-07-09T11:15:48Z</time>
      </trkpt>
      <trkpt lat="45.67871" lon="0.13144">
        <ele>66.47</ele>
        <time>2021-07-09T11:15:49Z</time>
      </trkpt>
      <trkpt lat="45.67863" lon="0.13138">
        <ele>66.47</ele>
        <time>2021-07-09T11:15:50Z</time>
      </trkpt>
      <trkpt lat="45.67858" lon="0.13134">
        <ele>66.47</ele>
        <time>2021-07-09T11:15:51Z</time>
      </trkpt>
      <trkpt lat="45.67852" lon="0.13133">
        <ele>66.47</ele>
        <time>2021-07-09T11:15:52Z</time>
      </trkpt>
      <trkpt lat="45.67847" lon="0.13135">
        <ele>66.47</ele>
        <time>2021-07-09T11:15:53Z</time>
      </trkpt>
      <trkpt lat="45.67841" lon="0.13136">
        <ele>66.95</ele>
        <time>2021-07-09T11:15:54Z</time>
      </trkpt>
      <trkpt lat="45.67836" lon="0.13138">
        <ele>66.95</ele>
        <time>2021-07-09T11:15:55Z</time>
      </trkpt>
      <trkpt lat="45.67832" lon="0.13145">
        <ele>66.95</ele>
        <time>2021-07-09T11:15:56Z</time>
      </trkpt>
      <trkpt lat="45.67829" lon="0.13153">
        <ele>66.47</ele>
        <time>2021-07-09T11:15:57Z</time>
      </trkpt>
      <trkpt lat="45.67828" lon="0.13161">
        <ele>65.99</ele>
        <time>2021-07-09T11:15:58Z</time>
      </trkpt>
      <trkpt lat="45.67829" lon="0.1317">
        <ele>65.99</ele>
        <time>2021-07-09T11:15:59Z</time>
      </trkpt>
      <trkpt lat="45.67831" lon="0.13179">
        <ele>65.99</ele>
        <time>2021-07-09T11:16:00Z</time>
      </trkpt>
      <trkpt lat="45.67834" lon="0.13187">
        <ele>65.99</ele>
        <time>2021-07-09T11:16:01Z</time>
      </trkpt>
      <trkpt lat="45.67839" lon="0.13196">
        <ele>65.99</ele>
        <time>2021-07-09T11:16:02Z</time>
      </trkpt>
      <trkpt lat="45.6784" lon="0.13209">
        <ele>65.51</ele>
        <time>2021-07-09T11:16:03Z</time>
      </trkpt>
      <trkpt lat="45.67842" lon="0.13233">
        <ele>65.51</ele>
        <time>2021-07-09T11:16:04Z</time>
      </trkpt>
      <trkpt lat="45.67841" lon="0.1325">
        <ele>64.07</ele>
        <time>2021-07-09T11:16:05Z</time>
      </trkpt>
      <trkpt lat="45.67841" lon="0.1325">
        <ele>62.62</ele>
        <time>2021-07-09T11:16:06Z</time>
      </trkpt>
      <trkpt lat="45.67807" lon="0.13407">
        <ele>55.41</ele>
        <time>2021-07-09T11:16:15Z</time>
      </trkpt>
      <trkpt lat="45.67726" lon="0.13552">
        <ele>50.13</ele>
        <time>2021-07-09T11:16:23Z</time>
      </trkpt>
      <trkpt lat="45.67542" lon="0.13831">
        <ele>49.65</ele>
        <time>2021-07-09T11:16:38Z</time>
      </trkpt>
      <trkpt lat="45.67444" lon="0.1405">
        <ele>49.65</ele>
        <time>2021-07-09T11:16:48Z</time>
      </trkpt>
      <trkpt lat="45.67347" lon="0.14306">
        <ele>48.2</ele>
        <time>2021-07-09T11:17:01Z</time>
      </trkpt>
      <trkpt lat="45.67341" lon="0.14341">
        <ele>48.2</ele>
        <time>2021-07-09T11:17:02Z</time>
      </trkpt>
      <trkpt lat="45.67341" lon="0.14341">
        <ele>49.16</ele>
        <time>2021-07-09T11:17:03Z</time>
      </trkpt>
      <trkpt lat="45.67339" lon="0.1436">
        <ele>49.16</ele>
        <time>2021-07-09T11:17:04Z</time>
      </trkpt>
      <trkpt lat="45.67342" lon="0.14374">
        <ele>48.68</ele>
        <time>2021-07-09T11:17:05Z</time>
      </trkpt>
      <trkpt lat="45.67347" lon="0.1439">
        <ele>48.68</ele>
        <time>2021-07-09T11:17:06Z</time>
      </trkpt>
      <trkpt lat="45.67352" lon="0.14407">
        <ele>48.68</ele>
        <time>2021-07-09T11:17:07Z</time>
      </trkpt>
      <trkpt lat="45.67359" lon="0.14416">
        <ele>48.68</ele>
        <time>2021-07-09T11:17:08Z</time>
      </trkpt>
      <trkpt lat="45.67378" lon="0.1443">
        <ele>49.65</ele>
        <time>2021-07-09T11:17:09Z</time>
      </trkpt>
      <trkpt lat="45.6739" lon="0.14437">
        <ele>49.65</ele>
        <time>2021-07-09T11:17:10Z</time>
      </trkpt>
      <trkpt lat="45.6739" lon="0.14437">
        <ele>48.68</ele>
        <time>2021-07-09T11:17:11Z</time>
      </trkpt>
      <trkpt lat="45.67402" lon="0.1444">
        <ele>48.2</ele>
        <time>2021-07-09T11:17:12Z</time>
      </trkpt>
      <trkpt lat="45.67415" lon="0.1444">
        <ele>46.76</ele>
        <time>2021-07-09T11:17:13Z</time>
      </trkpt>
      <trkpt lat="45.67499" lon="0.14429">
        <ele>44.84</ele>
        <time>2021-07-09T11:17:19Z</time>
      </trkpt>
      <trkpt lat="45.67512" lon="0.14433">
        <ele>45.32</ele>
        <time>2021-07-09T11:17:20Z</time>
      </trkpt>
      <trkpt lat="45.67523" lon="0.14436">
        <ele>44.84</ele>
        <time>2021-07-09T11:17:21Z</time>
      </trkpt>
      <trkpt lat="45.67535" lon="0.14444">
        <ele>44.36</ele>
        <time>2021-07-09T11:17:22Z</time>
      </trkpt>
      <trkpt lat="45.67548" lon="0.14453">
        <ele>42.92</ele>
        <time>2021-07-09T11:17:23Z</time>
      </trkpt>
      <trkpt lat="45.67559" lon="0.14464">
        <ele>41.95</ele>
        <time>2021-07-09T11:17:24Z</time>
      </trkpt>
      <trkpt lat="45.6757" lon="0.14477">
        <ele>41.47</ele>
        <time>2021-07-09T11:17:25Z</time>
      </trkpt>
      <trkpt lat="45.67581" lon="0.14489">
        <ele>41.47</ele>
        <time>2021-07-09T11:17:26Z</time>
      </trkpt>
      <trkpt lat="45.67729" lon="0.14687">
        <ele>39.55</ele>
        <time>2021-07-09T11:17:38Z</time>
      </trkpt>
      <trkpt lat="45.67973" lon="0.15005">
        <ele>36.67</ele>
        <time>2021-07-09T11:17:55Z</time>
      </trkpt>
      <trkpt lat="45.68258" lon="0.15328">
        <ele>38.11</ele>
        <time>2021-07-09T11:18:13Z</time>
      </trkpt>
      <trkpt lat="45.68547" lon="0.15609">
        <ele>50.13</ele>
        <time>2021-07-09T11:18:30Z</time>
      </trkpt>
      <trkpt lat="45.68879" lon="0.15882">
        <ele>64.55</ele>
        <time>2021-07-09T11:18:49Z</time>
      </trkpt>
      <trkpt lat="45.69089" lon="0.1607">
        <ele>63.1</ele>
        <time>2021-07-09T11:19:01Z</time>
      </trkpt>
      <trkpt lat="45.692" lon="0.16237">
        <ele>57.34</ele>
        <time>2021-07-09T11:19:10Z</time>
      </trkpt>
      <trkpt lat="45.6928" lon="0.16458">
        <ele>54.93</ele>
        <time>2021-07-09T11:19:18Z</time>
      </trkpt>
      <trkpt lat="45.69354" lon="0.16851">
        <ele>56.37</ele>
        <time>2021-07-09T11:19:30Z</time>
      </trkpt>
      <trkpt lat="45.69372" lon="0.17133">
        <ele>53.97</ele>
        <time>2021-07-09T11:19:40Z</time>
      </trkpt>
      <trkpt lat="45.69395" lon="0.17461">
        <ele>61.18</ele>
        <time>2021-07-09T11:19:52Z</time>
      </trkpt>
      <trkpt lat="45.6946" lon="0.17769">
        <ele>66.95</ele>
        <time>2021-07-09T11:20:03Z</time>
      </trkpt>
      <trkpt lat="45.69596" lon="0.18164">
        <ele>70.79</ele>
        <time>2021-07-09T11:20:20Z</time>
      </trkpt>
      <trkpt lat="45.69641" lon="0.18381">
        <ele>78.48</ele>
        <time>2021-07-09T11:20:28Z</time>
      </trkpt>
      <trkpt lat="45.69628" lon="0.18585">
        <ele>78.97</ele>
        <time>2021-07-09T11:20:35Z</time>
      </trkpt>
      <trkpt lat="45.69561" lon="0.18766">
        <ele>75.12</ele>
        <time>2021-07-09T11:20:42Z</time>
      </trkpt>
      <trkpt lat="45.69447" lon="0.18899">
        <ele>81.85</ele>
        <time>2021-07-09T11:20:49Z</time>
      </trkpt>
      <trkpt lat="45.69164" lon="0.19116">
        <ele>76.56</ele>
        <time>2021-07-09T11:21:04Z</time>
      </trkpt>
      <trkpt lat="45.6893" lon="0.19324">
        <ele>58.78</ele>
        <time>2021-07-09T11:21:17Z</time>
      </trkpt>
      <trkpt lat="45.68803" lon="0.19515">
        <ele>60.22</ele>
        <time>2021-07-09T11:21:26Z</time>
      </trkpt>
      <trkpt lat="45.68707" lon="0.19754">
        <ele>70.79</ele>
        <time>2021-07-09T11:21:36Z</time>
      </trkpt>
      <trkpt lat="45.68654" lon="0.20037">
        <ele>81.37</ele>
        <time>2021-07-09T11:21:47Z</time>
      </trkpt>
      <trkpt lat="45.68609" lon="0.20528">
        <ele>83.29</ele>
        <time>2021-07-09T11:22:04Z</time>
      </trkpt>
      <trkpt lat="45.68611" lon="0.20812">
        <ele>86.18</ele>
        <time>2021-07-09T11:22:14Z</time>
      </trkpt>
      <trkpt lat="45.68618" lon="0.2088">
        <ele>86.66</ele>
        <time>2021-07-09T11:22:19Z</time>
      </trkpt>
      <trkpt lat="45.68619" lon="0.2089">
        <ele>87.62</ele>
        <time>2021-07-09T11:22:26Z</time>
      </trkpt>
      <trkpt lat="45.68619" lon="0.2089">
        <ele>87.14</ele>
        <time>2021-07-09T11:31:25Z</time>
      </trkpt>
      <trkpt lat="45.68619" lon="0.2089">
        <ele>87.14</ele>
        <time>2021-07-09T11:35:45Z</time>
      </trkpt>
      <trkpt lat="45.68619" lon="0.2089">
        <ele>86.66</ele>
        <time>2021-07-09T11:41:28Z</time>
      </trkpt>
      <trkpt lat="45.68619" lon="0.2089">
        <ele>86.18</ele>
        <time>2021-07-09T11:48:10Z</time>
      </trkpt>
      <trkpt lat="45.68619" lon="0.2089">
        <ele>85.69</ele>
        <time>2021-07-09T11:51:17Z</time>
      </trkpt>
      <trkpt lat="45.68619" lon="0.2089">
        <ele>85.69</ele>
        <time>2021-07-09T11:52:50Z</time>
      </trkpt>
      <trkpt lat="45.68622" lon="0.20923">
        <ele>86.18</ele>
        <time>2021-07-09T11:53:34Z</time>
      </trkpt>
      <trkpt lat="45.68631" lon="0.2102">
        <ele>86.66</ele>
        <time>2021-07-09T11:53:43Z</time>
      </trkpt>
      <trkpt lat="45.68671" lon="0.21247">
        <ele>89.06</ele>
        <time>2021-07-09T11:53:57Z</time>
      </trkpt>
      <trkpt lat="45.68733" lon="0.21552">
        <ele>90.5</ele>
        <time>2021-07-09T11:54:13Z</time>
      </trkpt>
      <trkpt lat="45.68806" lon="0.21913">
        <ele>83.77</ele>
        <time>2021-07-09T11:54:29Z</time>
      </trkpt>
      <trkpt lat="45.68901" lon="0.22378">
        <ele>76.56</ele>
        <time>2021-07-09T11:54:48Z</time>
      </trkpt>
      <trkpt lat="45.68993" lon="0.22765">
        <ele>80.89</ele>
        <time>2021-07-09T11:55:04Z</time>
      </trkpt>
      <trkpt lat="45.69126" lon="0.23217">
        <ele>93.87</ele>
        <time>2021-07-09T11:55:23Z</time>
      </trkpt>
      <trkpt lat="45.69295" lon="0.23685">
        <ele>109.25</ele>
        <time>2021-07-09T11:55:42Z</time>
      </trkpt>
      <trkpt lat="45.69499" lon="0.24241">
        <ele>130.88</ele>
        <time>2021-07-09T11:56:05Z</time>
      </trkpt>
      <trkpt lat="45.69735" lon="0.24878">
        <ele>143.85</ele>
        <time>2021-07-09T11:56:29Z</time>
      </trkpt>
      <trkpt lat="45.69914" lon="0.25409">
        <ele>152.99</ele>
        <time>2021-07-09T11:56:48Z</time>
      </trkpt>
      <trkpt lat="45.70103" lon="0.26039">
        <ele>153.95</ele>
        <time>2021-07-09T11:57:09Z</time>
      </trkpt>
      <trkpt lat="45.70216" lon="0.26288">
        <ele>147.7</ele>
        <time>2021-07-09T11:57:21Z</time>
      </trkpt>
      <trkpt lat="45.70471" lon="0.26716">
        <ele>143.85</ele>
        <time>2021-07-09T11:57:39Z</time>
      </trkpt>
      <trkpt lat="45.70622" lon="0.27041">
        <ele>142.89</ele>
        <time>2021-07-09T11:57:52Z</time>
      </trkpt>
      <trkpt lat="45.70812" lon="0.27563">
        <ele>142.89</ele>
        <time>2021-07-09T11:58:11Z</time>
      </trkpt>
      <trkpt lat="45.70876" lon="0.27878">
        <ele>145.78</ele>
        <time>2021-07-09T11:58:22Z</time>
      </trkpt>
      <trkpt lat="45.70917" lon="0.28303">
        <ele>150.58</ele>
        <time>2021-07-09T11:58:36Z</time>
      </trkpt>
      <trkpt lat="45.70988" lon="0.28708">
        <ele>147.7</ele>
        <time>2021-07-09T11:58:49Z</time>
      </trkpt>
      <trkpt lat="45.71114" lon="0.29126">
        <ele>139.53</ele>
        <time>2021-07-09T11:59:02Z</time>
      </trkpt>
      <trkpt lat="45.71306" lon="0.29595">
        <ele>134.24</ele>
        <time>2021-07-09T11:59:19Z</time>
      </trkpt>
      <trkpt lat="45.71576" lon="0.30247">
        <ele>132.8</ele>
        <time>2021-07-09T11:59:42Z</time>
      </trkpt>
      <trkpt lat="45.71859" lon="0.30916">
        <ele>124.15</ele>
        <time>2021-07-09T12:00:05Z</time>
      </trkpt>
      <trkpt lat="45.72082" lon="0.3145">
        <ele>132.32</ele>
        <time>2021-07-09T12:00:23Z</time>
      </trkpt>
      <trkpt lat="45.72316" lon="0.32008">
        <ele>132.32</ele>
        <time>2021-07-09T12:00:44Z</time>
      </trkpt>
      <trkpt lat="45.72555" lon="0.3255">
        <ele>122.22</ele>
        <time>2021-07-09T12:01:05Z</time>
      </trkpt>
      <trkpt lat="45.72714" lon="0.3282">
        <ele>118.86</ele>
        <time>2021-07-09T12:01:17Z</time>
      </trkpt>
      <trkpt lat="45.73026" lon="0.33329">
        <ele>104.44</ele>
        <time>2021-07-09T12:01:40Z</time>
      </trkpt>
      <trkpt lat="45.73289" lon="0.33716">
        <ele>91.94</ele>
        <time>2021-07-09T12:01:58Z</time>
      </trkpt>
      <trkpt lat="45.73504" lon="0.33996">
        <ele>90.02</ele>
        <time>2021-07-09T12:02:12Z</time>
      </trkpt>
      <trkpt lat="45.73642" lon="0.3423">
        <ele>91.94</ele>
        <time>2021-07-09T12:02:23Z</time>
      </trkpt>
      <trkpt lat="45.73657" lon="0.34261">
        <ele>93.87</ele>
        <time>2021-07-09T12:02:25Z</time>
      </trkpt>
      <trkpt lat="45.7366" lon="0.34278">
        <ele>95.31</ele>
        <time>2021-07-09T12:02:26Z</time>
      </trkpt>
      <trkpt lat="45.7366" lon="0.34278">
        <ele>95.31</ele>
        <time>2021-07-09T12:02:27Z</time>
      </trkpt>
      <trkpt lat="45.73664" lon="0.34294">
        <ele>95.79</ele>
        <time>2021-07-09T12:02:28Z</time>
      </trkpt>
      <trkpt lat="45.73667" lon="0.34312">
        <ele>96.75</ele>
        <time>2021-07-09T12:02:29Z</time>
      </trkpt>
      <trkpt lat="45.73669" lon="0.34328">
        <ele>96.75</ele>
        <time>2021-07-09T12:02:30Z</time>
      </trkpt>
      <trkpt lat="45.73669" lon="0.3442">
        <ele>97.71</ele>
        <time>2021-07-09T12:02:36Z</time>
      </trkpt>
      <trkpt lat="45.73667" lon="0.34431">
        <ele>97.71</ele>
        <time>2021-07-09T12:02:37Z</time>
      </trkpt>
      <trkpt lat="45.73664" lon="0.3444">
        <ele>97.71</ele>
        <time>2021-07-09T12:02:38Z</time>
      </trkpt>
      <trkpt lat="45.73658" lon="0.34458">
        <ele>96.75</ele>
        <time>2021-07-09T12:02:40Z</time>
      </trkpt>
      <trkpt lat="45.73657" lon="0.34479">
        <ele>96.75</ele>
        <time>2021-07-09T12:02:41Z</time>
      </trkpt>
      <trkpt lat="45.73654" lon="0.34495">
        <ele>96.27</ele>
        <time>2021-07-09T12:02:43Z</time>
      </trkpt>
      <trkpt lat="45.73649" lon="0.34502">
        <ele>96.27</ele>
        <time>2021-07-09T12:02:44Z</time>
      </trkpt>
      <trkpt lat="45.73644" lon="0.34509">
        <ele>95.79</ele>
        <time>2021-07-09T12:02:45Z</time>
      </trkpt>
      <trkpt lat="45.73627" lon="0.34536">
        <ele>95.31</ele>
        <time>2021-07-09T12:02:47Z</time>
      </trkpt>
      <trkpt lat="45.73627" lon="0.34536">
        <ele>95.31</ele>
        <time>2021-07-09T12:02:48Z</time>
      </trkpt>
      <trkpt lat="45.73623" lon="0.34546">
        <ele>94.83</ele>
        <time>2021-07-09T12:02:49Z</time>
      </trkpt>
      <trkpt lat="45.73619" lon="0.34556">
        <ele>94.83</ele>
        <time>2021-07-09T12:02:50Z</time>
      </trkpt>
      <trkpt lat="45.73617" lon="0.34566">
        <ele>94.83</ele>
        <time>2021-07-09T12:02:51Z</time>
      </trkpt>
      <trkpt lat="45.73616" lon="0.34579">
        <ele>94.83</ele>
        <time>2021-07-09T12:02:52Z</time>
      </trkpt>
      <trkpt lat="45.73615" lon="0.34592">
        <ele>95.79</ele>
        <time>2021-07-09T12:02:53Z</time>
      </trkpt>
      <trkpt lat="45.73614" lon="0.34606">
        <ele>96.75</ele>
        <time>2021-07-09T12:02:54Z</time>
      </trkpt>
      <trkpt lat="45.73613" lon="0.34797">
        <ele>100.6</ele>
        <time>2021-07-09T12:03:05Z</time>
      </trkpt>
      <trkpt lat="45.73613" lon="0.35262">
        <ele>113.57</ele>
        <time>2021-07-09T12:03:28Z</time>
      </trkpt>
      <trkpt lat="45.73606" lon="0.35596">
        <ele>104.92</ele>
        <time>2021-07-09T12:03:44Z</time>
      </trkpt>
      <trkpt lat="45.73608" lon="0.35909">
        <ele>108.29</ele>
        <time>2021-07-09T12:03:58Z</time>
      </trkpt>
      <trkpt lat="45.73606" lon="0.36055">
        <ele>112.13</ele>
        <time>2021-07-09T12:04:07Z</time>
      </trkpt>
      <trkpt lat="45.73604" lon="0.36258">
        <ele>111.17</ele>
        <time>2021-07-09T12:04:18Z</time>
      </trkpt>
      <trkpt lat="45.73603" lon="0.36596">
        <ele>113.09</ele>
        <time>2021-07-09T12:04:32Z</time>
      </trkpt>
      <trkpt lat="45.73601" lon="0.36893">
        <ele>113.09</ele>
        <time>2021-07-09T12:04:45Z</time>
      </trkpt>
      <trkpt lat="45.73597" lon="0.37346">
        <ele>97.71</ele>
        <time>2021-07-09T12:05:05Z</time>
      </trkpt>
      <trkpt lat="45.73593" lon="0.37748">
        <ele>93.87</ele>
        <time>2021-07-09T12:05:25Z</time>
      </trkpt>
      <trkpt lat="45.73591" lon="0.38041">
        <ele>90.98</ele>
        <time>2021-07-09T12:05:41Z</time>
      </trkpt>
      <trkpt lat="45.73589" lon="0.38394">
        <ele>85.21</ele>
        <time>2021-07-09T12:06:03Z</time>
      </trkpt>
      <trkpt lat="45.73589" lon="0.38502">
        <ele>84.25</ele>
        <time>2021-07-09T12:06:10Z</time>
      </trkpt>
      <trkpt lat="45.7359" lon="0.38513">
        <ele>84.25</ele>
        <time>2021-07-09T12:06:11Z</time>
      </trkpt>
      <trkpt lat="45.73594" lon="0.38526">
        <ele>84.25</ele>
        <time>2021-07-09T12:06:12Z</time>
      </trkpt>
      <trkpt lat="45.73597" lon="0.38538">
        <ele>84.25</ele>
        <time>2021-07-09T12:06:13Z</time>
      </trkpt>
      <trkpt lat="45.736" lon="0.38551">
        <ele>84.73</ele>
        <time>2021-07-09T12:06:14Z</time>
      </trkpt>
      <trkpt lat="45.73627" lon="0.38628">
        <ele>84.73</ele>
        <time>2021-07-09T12:06:23Z</time>
      </trkpt>
      <trkpt lat="45.73635" lon="0.38651">
        <ele>83.77</ele>
        <time>2021-07-09T12:06:33Z</time>
      </trkpt>
      <trkpt lat="45.73644" lon="0.3867">
        <ele>82.81</ele>
        <time>2021-07-09T12:06:58Z</time>
      </trkpt>
      <trkpt lat="45.73647" lon="0.38663">
        <ele>82.81</ele>
        <time>2021-07-09T12:06:59Z</time>
      </trkpt>
      <trkpt lat="45.73651" lon="0.38661">
        <ele>82.81</ele>
        <time>2021-07-09T12:07:00Z</time>
      </trkpt>
      <trkpt lat="45.73683" lon="0.38643">
        <ele>82.33</ele>
        <time>2021-07-09T12:07:07Z</time>
      </trkpt>
      <trkpt lat="45.73676" lon="0.3864">
        <ele>82.33</ele>
        <time>2021-07-09T12:07:08Z</time>
      </trkpt>
      <trkpt lat="45.73676" lon="0.38636">
        <ele>82.33</ele>
        <time>2021-07-09T12:07:09Z</time>
      </trkpt>
      <trkpt lat="45.73676" lon="0.38631">
        <ele>82.33</ele>
        <time>2021-07-09T12:07:10Z</time>
      </trkpt>
      <trkpt lat="45.73677" lon="0.3862">
        <ele>81.85</ele>
        <time>2021-07-09T12:07:11Z</time>
      </trkpt>
      <trkpt lat="45.73677" lon="0.3862">
        <ele>81.85</ele>
        <time>2021-07-09T12:07:12Z</time>
      </trkpt>
      <trkpt lat="45.73675" lon="0.38618">
        <ele>81.85</ele>
        <time>2021-07-09T12:07:13Z</time>
      </trkpt>
      <trkpt lat="45.73652" lon="0.38602">
        <ele>79.93</ele>
        <time>2021-07-09T12:07:23Z</time>
      </trkpt>
      <trkpt lat="45.73652" lon="0.38602">
        <ele>80.41</ele>
        <time>2021-07-09T12:12:07Z</time>
      </trkpt>
      <trkpt lat="45.73652" lon="0.38602">
        <ele>80.89</ele>
        <time>2021-07-09T12:13:29Z</time>
      </trkpt>
      <trkpt lat="45.73652" lon="0.38602">
        <ele>80.89</ele>
        <time>2021-07-09T12:15:09Z</time>
      </trkpt>
      <trkpt lat="45.73652" lon="0.38602">
        <ele>80.89</ele>
        <time>2021-07-09T12:16:54Z</time>
      </trkpt>
      <trkpt lat="45.73652" lon="0.38602">
        <ele>80.89</ele>
        <time>2021-07-09T12:19:01Z</time>
      </trkpt>
      <trkpt lat="45.73652" lon="0.38602">
        <ele>80.89</ele>
        <time>2021-07-09T12:20:32Z</time>
      </trkpt>
      <trkpt lat="45.73652" lon="0.38602">
        <ele>81.85</ele>
        <time>2021-07-09T12:20:56Z</time>
      </trkpt>
      <trkpt lat="45.73652" lon="0.38602">
        <ele>81.85</ele>
        <time>2021-07-09T12:20:59Z</time>
      </trkpt>
      <trkpt lat="45.73639" lon="0.38589">
        <ele>80.89</ele>
        <time>2021-07-09T12:21:06Z</time>
      </trkpt>
      <trkpt lat="45.73637" lon="0.38586">
        <ele>80.89</ele>
        <time>2021-07-09T12:21:07Z</time>
      </trkpt>
      <trkpt lat="45.73635" lon="0.38584">
        <ele>80.89</ele>
        <time>2021-07-09T12:21:08Z</time>
      </trkpt>
      <trkpt lat="45.73622" lon="0.38605">
        <ele>81.37</ele>
        <time>2021-07-09T12:21:18Z</time>
      </trkpt>
      <trkpt lat="45.73622" lon="0.38606">
        <ele>81.37</ele>
        <time>2021-07-09T12:21:25Z</time>
      </trkpt>
      <trkpt lat="45.73634" lon="0.38647">
        <ele>81.37</ele>
        <time>2021-07-09T12:21:37Z</time>
      </trkpt>
      <trkpt lat="45.7364" lon="0.38665">
        <ele>81.37</ele>
        <time>2021-07-09T12:21:40Z</time>
      </trkpt>
      <trkpt lat="45.73643" lon="0.3867">
        <ele>81.37</ele>
        <time>2021-07-09T12:21:41Z</time>
      </trkpt>
      <trkpt lat="45.73648" lon="0.38675">
        <ele>81.37</ele>
        <time>2021-07-09T12:21:42Z</time>
      </trkpt>
      <trkpt lat="45.73663" lon="0.38694">
        <ele>81.37</ele>
        <time>2021-07-09T12:21:45Z</time>
      </trkpt>
      <trkpt lat="45.73675" lon="0.38703">
        <ele>81.37</ele>
        <time>2021-07-09T12:21:46Z</time>
      </trkpt>
      <trkpt lat="45.73682" lon="0.38705">
        <ele>81.37</ele>
        <time>2021-07-09T12:21:47Z</time>
      </trkpt>
      <trkpt lat="45.73695" lon="0.38709">
        <ele>80.89</ele>
        <time>2021-07-09T12:21:49Z</time>
      </trkpt>
      <trkpt lat="45.73703" lon="0.38711">
        <ele>80.89</ele>
        <time>2021-07-09T12:21:50Z</time>
      </trkpt>
      <trkpt lat="45.7381" lon="0.3872">
        <ele>76.08</ele>
        <time>2021-07-09T12:22:02Z</time>
      </trkpt>
      <trkpt lat="45.73927" lon="0.38738">
        <ele>74.64</ele>
        <time>2021-07-09T12:22:13Z</time>
      </trkpt>
      <trkpt lat="45.74067" lon="0.38747">
        <ele>72.24</ele>
        <time>2021-07-09T12:22:27Z</time>
      </trkpt>
      <trkpt lat="45.74094" lon="0.38753">
        <ele>73.2</ele>
        <time>2021-07-09T12:22:30Z</time>
      </trkpt>
      <trkpt lat="45.74103" lon="0.38752">
        <ele>73.2</ele>
        <time>2021-07-09T12:22:31Z</time>
      </trkpt>
      <trkpt lat="45.74113" lon="0.3875">
        <ele>73.2</ele>
        <time>2021-07-09T12:22:32Z</time>
      </trkpt>
      <trkpt lat="45.74241" lon="0.38733">
        <ele>71.76</ele>
        <time>2021-07-09T12:22:43Z</time>
      </trkpt>
      <trkpt lat="45.74327" lon="0.38735">
        <ele>71.27</ele>
        <time>2021-07-09T12:22:52Z</time>
      </trkpt>
      <trkpt lat="45.74335" lon="0.38734">
        <ele>70.79</ele>
        <time>2021-07-09T12:22:54Z</time>
      </trkpt>
      <trkpt lat="45.7434" lon="0.38733">
        <ele>70.79</ele>
        <time>2021-07-09T12:22:55Z</time>
      </trkpt>
      <trkpt lat="45.74346" lon="0.38732">
        <ele>70.79</ele>
        <time>2021-07-09T12:22:56Z</time>
      </trkpt>
      <trkpt lat="45.74352" lon="0.3873">
        <ele>71.27</ele>
        <time>2021-07-09T12:22:57Z</time>
      </trkpt>
      <trkpt lat="45.74365" lon="0.38728">
        <ele>71.27</ele>
        <time>2021-07-09T12:22:58Z</time>
      </trkpt>
      <trkpt lat="45.74365" lon="0.38728">
        <ele>71.27</ele>
        <time>2021-07-09T12:22:59Z</time>
      </trkpt>
      <trkpt lat="45.7445" lon="0.38692">
        <ele>72.24</ele>
        <time>2021-07-09T12:23:08Z</time>
      </trkpt>
      <trkpt lat="45.74658" lon="0.38595">
        <ele>74.16</ele>
        <time>2021-07-09T12:23:27Z</time>
      </trkpt>
      <trkpt lat="45.74698" lon="0.3857">
        <ele>76.56</ele>
        <time>2021-07-09T12:23:35Z</time>
      </trkpt>
      <trkpt lat="45.74707" lon="0.38568">
        <ele>76.56</ele>
        <time>2021-07-09T12:23:36Z</time>
      </trkpt>
      <trkpt lat="45.74717" lon="0.38574">
        <ele>77.52</ele>
        <time>2021-07-09T12:23:38Z</time>
      </trkpt>
      <trkpt lat="45.74724" lon="0.38572">
        <ele>77.52</ele>
        <time>2021-07-09T12:23:39Z</time>
      </trkpt>
      <trkpt lat="45.7473" lon="0.38567">
        <ele>78</ele>
        <time>2021-07-09T12:23:40Z</time>
      </trkpt>
      <trkpt lat="45.74737" lon="0.38555">
        <ele>78.48</ele>
        <time>2021-07-09T12:23:41Z</time>
      </trkpt>
      <trkpt lat="45.74737" lon="0.38555">
        <ele>78.48</ele>
        <time>2021-07-09T12:23:42Z</time>
      </trkpt>
      <trkpt lat="45.74736" lon="0.38546">
        <ele>78.48</ele>
        <time>2021-07-09T12:23:43Z</time>
      </trkpt>
      <trkpt lat="45.74736" lon="0.38537">
        <ele>78.48</ele>
        <time>2021-07-09T12:23:44Z</time>
      </trkpt>
      <trkpt lat="45.74743" lon="0.3852">
        <ele>78</ele>
        <time>2021-07-09T12:23:45Z</time>
      </trkpt>
      <trkpt lat="45.7475" lon="0.38513">
        <ele>78</ele>
        <time>2021-07-09T12:23:46Z</time>
      </trkpt>
      <trkpt lat="45.74828" lon="0.38428">
        <ele>73.68</ele>
        <time>2021-07-09T12:23:54Z</time>
      </trkpt>
      <trkpt lat="45.74841" lon="0.3842">
        <ele>73.68</ele>
        <time>2021-07-09T12:23:55Z</time>
      </trkpt>
      <trkpt lat="45.74855" lon="0.38412">
        <ele>73.68</ele>
        <time>2021-07-09T12:23:56Z</time>
      </trkpt>
      <trkpt lat="45.74868" lon="0.38404">
        <ele>74.16</ele>
        <time>2021-07-09T12:23:57Z</time>
      </trkpt>
      <trkpt lat="45.74883" lon="0.38396">
        <ele>74.64</ele>
        <time>2021-07-09T12:23:58Z</time>
      </trkpt>
      <trkpt lat="45.74898" lon="0.38393">
        <ele>74.64</ele>
        <time>2021-07-09T12:23:59Z</time>
      </trkpt>
      <trkpt lat="45.74914" lon="0.3839">
        <ele>75.12</ele>
        <time>2021-07-09T12:24:00Z</time>
      </trkpt>
      <trkpt lat="45.7493" lon="0.38391">
        <ele>76.08</ele>
        <time>2021-07-09T12:24:01Z</time>
      </trkpt>
      <trkpt lat="45.74945" lon="0.38392">
        <ele>77.04</ele>
        <time>2021-07-09T12:24:02Z</time>
      </trkpt>
      <trkpt lat="45.74959" lon="0.38395">
        <ele>78.48</ele>
        <time>2021-07-09T12:24:03Z</time>
      </trkpt>
      <trkpt lat="45.74974" lon="0.38401">
        <ele>80.41</ele>
        <time>2021-07-09T12:24:04Z</time>
      </trkpt>
      <trkpt lat="45.74988" lon="0.38407">
        <ele>82.81</ele>
        <time>2021-07-09T12:24:05Z</time>
      </trkpt>
      <trkpt lat="45.75001" lon="0.38416">
        <ele>84.25</ele>
        <time>2021-07-09T12:24:06Z</time>
      </trkpt>
      <trkpt lat="45.75148" lon="0.3852">
        <ele>93.39</ele>
        <time>2021-07-09T12:24:18Z</time>
      </trkpt>
      <trkpt lat="45.75166" lon="0.3853">
        <ele>95.31</ele>
        <time>2021-07-09T12:24:20Z</time>
      </trkpt>
      <trkpt lat="45.75178" lon="0.38534">
        <ele>94.35</ele>
        <time>2021-07-09T12:24:21Z</time>
      </trkpt>
      <trkpt lat="45.75201" lon="0.38535">
        <ele>93.39</ele>
        <time>2021-07-09T12:24:22Z</time>
      </trkpt>
      <trkpt lat="45.75201" lon="0.38535">
        <ele>93.39</ele>
        <time>2021-07-09T12:24:23Z</time>
      </trkpt>
      <trkpt lat="45.75211" lon="0.38531">
        <ele>93.87</ele>
        <time>2021-07-09T12:24:24Z</time>
      </trkpt>
      <trkpt lat="45.75228" lon="0.38523">
        <ele>93.87</ele>
        <time>2021-07-09T12:24:25Z</time>
      </trkpt>
      <trkpt lat="45.75235" lon="0.38513">
        <ele>93.87</ele>
        <time>2021-07-09T12:24:26Z</time>
      </trkpt>
      <trkpt lat="45.75235" lon="0.38513">
        <ele>93.87</ele>
        <time>2021-07-09T12:24:27Z</time>
      </trkpt>
      <trkpt lat="45.75241" lon="0.38504">
        <ele>93.87</ele>
        <time>2021-07-09T12:24:28Z</time>
      </trkpt>
      <trkpt lat="45.75258" lon="0.3848">
        <ele>94.35</ele>
        <time>2021-07-09T12:24:31Z</time>
      </trkpt>
      <trkpt lat="45.75263" lon="0.38473">
        <ele>94.83</ele>
        <time>2021-07-09T12:24:32Z</time>
      </trkpt>
      <trkpt lat="45.75266" lon="0.38468">
        <ele>94.83</ele>
        <time>2021-07-09T12:24:33Z</time>
      </trkpt>
      <trkpt lat="45.75286" lon="0.38473">
        <ele>93.87</ele>
        <time>2021-07-09T12:24:35Z</time>
      </trkpt>
      <trkpt lat="45.75286" lon="0.38473">
        <ele>93.87</ele>
        <time>2021-07-09T12:24:36Z</time>
      </trkpt>
      <trkpt lat="45.75291" lon="0.3847">
        <ele>93.87</ele>
        <time>2021-07-09T12:24:37Z</time>
      </trkpt>
      <trkpt lat="45.75297" lon="0.38456">
        <ele>93.87</ele>
        <time>2021-07-09T12:24:38Z</time>
      </trkpt>
      <trkpt lat="45.75297" lon="0.38456">
        <ele>93.39</ele>
        <time>2021-07-09T12:24:39Z</time>
      </trkpt>
      <trkpt lat="45.75299" lon="0.38448">
        <ele>93.39</ele>
        <time>2021-07-09T12:24:40Z</time>
      </trkpt>
      <trkpt lat="45.75297" lon="0.38439">
        <ele>93.87</ele>
        <time>2021-07-09T12:24:41Z</time>
      </trkpt>
      <trkpt lat="45.75295" lon="0.38431">
        <ele>93.87</ele>
        <time>2021-07-09T12:24:42Z</time>
      </trkpt>
      <trkpt lat="45.75295" lon="0.38431">
        <ele>94.35</ele>
        <time>2021-07-09T12:24:43Z</time>
      </trkpt>
      <trkpt lat="45.75286" lon="0.38408">
        <ele>94.35</ele>
        <time>2021-07-09T12:24:44Z</time>
      </trkpt>
      <trkpt lat="45.7529" lon="0.38389">
        <ele>94.35</ele>
        <time>2021-07-09T12:24:45Z</time>
      </trkpt>
      <trkpt lat="45.75292" lon="0.38378">
        <ele>93.87</ele>
        <time>2021-07-09T12:24:46Z</time>
      </trkpt>
      <trkpt lat="45.75292" lon="0.38378">
        <ele>93.87</ele>
        <time>2021-07-09T12:24:47Z</time>
      </trkpt>
      <trkpt lat="45.75295" lon="0.38367">
        <ele>93.87</ele>
        <time>2021-07-09T12:24:48Z</time>
      </trkpt>
      <trkpt lat="45.75304" lon="0.3836">
        <ele>93.39</ele>
        <time>2021-07-09T12:24:49Z</time>
      </trkpt>
      <trkpt lat="45.75311" lon="0.38354">
        <ele>92.9</ele>
        <time>2021-07-09T12:24:50Z</time>
      </trkpt>
      <trkpt lat="45.75328" lon="0.38341">
        <ele>92.42</ele>
        <time>2021-07-09T12:24:51Z</time>
      </trkpt>
      <trkpt lat="45.75338" lon="0.38339">
        <ele>91.94</ele>
        <time>2021-07-09T12:24:52Z</time>
      </trkpt>
      <trkpt lat="45.75338" lon="0.38339">
        <ele>91.46</ele>
        <time>2021-07-09T12:24:53Z</time>
      </trkpt>
      <trkpt lat="45.75348" lon="0.3834">
        <ele>91.94</ele>
        <time>2021-07-09T12:24:54Z</time>
      </trkpt>
      <trkpt lat="45.75365" lon="0.38353">
        <ele>92.9</ele>
        <time>2021-07-09T12:24:55Z</time>
      </trkpt>
      <trkpt lat="45.75365" lon="0.38353">
        <ele>93.87</ele>
        <time>2021-07-09T12:24:56Z</time>
      </trkpt>
      <trkpt lat="45.75373" lon="0.38363">
        <ele>94.83</ele>
        <time>2021-07-09T12:24:57Z</time>
      </trkpt>
      <trkpt lat="45.75381" lon="0.38372">
        <ele>95.79</ele>
        <time>2021-07-09T12:24:58Z</time>
      </trkpt>
      <trkpt lat="45.75386" lon="0.38385">
        <ele>96.27</ele>
        <time>2021-07-09T12:24:59Z</time>
      </trkpt>
      <trkpt lat="45.75445" lon="0.3856">
        <ele>102.52</ele>
        <time>2021-07-09T12:25:09Z</time>
      </trkpt>
      <trkpt lat="45.75534" lon="0.38763">
        <ele>112.13</ele>
        <time>2021-07-09T12:25:19Z</time>
      </trkpt>
      <trkpt lat="45.75678" lon="0.39002">
        <ele>119.82</ele>
        <time>2021-07-09T12:25:30Z</time>
      </trkpt>
      <trkpt lat="45.75847" lon="0.39194">
        <ele>124.63</ele>
        <time>2021-07-09T12:25:40Z</time>
      </trkpt>
      <trkpt lat="45.76113" lon="0.39424">
        <ele>127.03</ele>
        <time>2021-07-09T12:25:53Z</time>
      </trkpt>
      <trkpt lat="45.76429" lon="0.39637">
        <ele>131.36</ele>
        <time>2021-07-09T12:26:07Z</time>
      </trkpt>
      <trkpt lat="45.77021" lon="0.40022">
        <ele>123.19</ele>
        <time>2021-07-09T12:26:32Z</time>
      </trkpt>
      <trkpt lat="45.77482" lon="0.40321">
        <ele>104.44</ele>
        <time>2021-07-09T12:26:51Z</time>
      </trkpt>
      <trkpt lat="45.78031" lon="0.40676">
        <ele>99.63</ele>
        <time>2021-07-09T12:27:14Z</time>
      </trkpt>
      <trkpt lat="45.78278" lon="0.40873">
        <ele>100.11</ele>
        <time>2021-07-09T12:27:25Z</time>
      </trkpt>
      <trkpt lat="45.78453" lon="0.41093">
        <ele>101.56</ele>
        <time>2021-07-09T12:27:34Z</time>
      </trkpt>
      <trkpt lat="45.787" lon="0.41429">
        <ele>106.84</ele>
        <time>2021-07-09T12:27:47Z</time>
      </trkpt>
      <trkpt lat="45.78914" lon="0.41709">
        <ele>113.57</ele>
        <time>2021-07-09T12:27:58Z</time>
      </trkpt>
      <trkpt lat="45.79055" lon="0.41985">
        <ele>114.53</ele>
        <time>2021-07-09T12:28:07Z</time>
      </trkpt>
      <trkpt lat="45.79164" lon="0.4233">
        <ele>117.9</ele>
        <time>2021-07-09T12:28:17Z</time>
      </trkpt>
      <trkpt lat="45.79321" lon="0.42842">
        <ele>127.99</ele>
        <time>2021-07-09T12:28:32Z</time>
      </trkpt>
      <trkpt lat="45.79458" lon="0.43111">
        <ele>127.03</ele>
        <time>2021-07-09T12:28:41Z</time>
      </trkpt>
      <trkpt lat="45.79638" lon="0.43342">
        <ele>121.26</ele>
        <time>2021-07-09T12:28:50Z</time>
      </trkpt>
      <trkpt lat="45.80184" lon="0.43923">
        <ele>115.01</ele>
        <time>2021-07-09T12:29:15Z</time>
      </trkpt>
      <trkpt lat="45.80708" lon="0.44479">
        <ele>121.74</ele>
        <time>2021-07-09T12:29:39Z</time>
      </trkpt>
      <trkpt lat="45.81147" lon="0.44942">
        <ele>121.74</ele>
        <time>2021-07-09T12:30:00Z</time>
      </trkpt>
      <trkpt lat="45.81542" lon="0.4536">
        <ele>117.42</ele>
        <time>2021-07-09T12:30:19Z</time>
      </trkpt>
      <trkpt lat="45.81784" lon="0.45554">
        <ele>117.42</ele>
        <time>2021-07-09T12:30:29Z</time>
      </trkpt>
      <trkpt lat="45.81973" lon="0.45643">
        <ele>116.94</ele>
        <time>2021-07-09T12:30:38Z</time>
      </trkpt>
      <trkpt lat="45.8224" lon="0.45729">
        <ele>117.9</ele>
        <time>2021-07-09T12:30:50Z</time>
      </trkpt>
      <trkpt lat="45.82407" lon="0.45841">
        <ele>120.78</ele>
        <time>2021-07-09T12:30:59Z</time>
      </trkpt>
      <trkpt lat="45.82583" lon="0.46025">
        <ele>123.19</ele>
        <time>2021-07-09T12:31:10Z</time>
      </trkpt>
      <trkpt lat="45.82781" lon="0.46237">
        <ele>123.67</ele>
        <time>2021-07-09T12:31:24Z</time>
      </trkpt>
      <trkpt lat="45.82993" lon="0.46475">
        <ele>125.59</ele>
        <time>2021-07-09T12:31:39Z</time>
      </trkpt>
      <trkpt lat="45.83088" lon="0.46591">
        <ele>128.95</ele>
        <time>2021-07-09T12:31:49Z</time>
      </trkpt>
      <trkpt lat="45.83149" lon="0.4671">
        <ele>126.55</ele>
        <time>2021-07-09T12:31:58Z</time>
      </trkpt>
      <trkpt lat="45.8318" lon="0.46799">
        <ele>125.11</ele>
        <time>2021-07-09T12:32:06Z</time>
      </trkpt>
      <trkpt lat="45.83199" lon="0.46854">
        <ele>124.63</ele>
        <time>2021-07-09T12:32:15Z</time>
      </trkpt>
      <trkpt lat="45.832" lon="0.46859">
        <ele>125.11</ele>
        <time>2021-07-09T12:32:16Z</time>
      </trkpt>
      <trkpt lat="45.83202" lon="0.46866">
        <ele>125.59</ele>
        <time>2021-07-09T12:32:17Z</time>
      </trkpt>
      <trkpt lat="45.83198" lon="0.46872">
        <ele>125.59</ele>
        <time>2021-07-09T12:32:18Z</time>
      </trkpt>
      <trkpt lat="45.83196" lon="0.46876">
        <ele>126.07</ele>
        <time>2021-07-09T12:32:19Z</time>
      </trkpt>
      <trkpt lat="45.83191" lon="0.46891">
        <ele>126.55</ele>
        <time>2021-07-09T12:32:21Z</time>
      </trkpt>
      <trkpt lat="45.8319" lon="0.46897">
        <ele>126.55</ele>
        <time>2021-07-09T12:32:22Z</time>
      </trkpt>
      <trkpt lat="45.83194" lon="0.46909">
        <ele>126.55</ele>
        <time>2021-07-09T12:32:23Z</time>
      </trkpt>
      <trkpt lat="45.83196" lon="0.46914">
        <ele>127.03</ele>
        <time>2021-07-09T12:32:24Z</time>
      </trkpt>
      <trkpt lat="45.83199" lon="0.4692">
        <ele>127.03</ele>
        <time>2021-07-09T12:32:25Z</time>
      </trkpt>
      <trkpt lat="45.83202" lon="0.46926">
        <ele>127.51</ele>
        <time>2021-07-09T12:32:26Z</time>
      </trkpt>
      <trkpt lat="45.83208" lon="0.46927">
        <ele>127.51</ele>
        <time>2021-07-09T12:32:27Z</time>
      </trkpt>
      <trkpt lat="45.83214" lon="0.46928">
        <ele>127.99</ele>
        <time>2021-07-09T12:32:28Z</time>
      </trkpt>
      <trkpt lat="45.83226" lon="0.46938">
        <ele>127.51</ele>
        <time>2021-07-09T12:32:29Z</time>
      </trkpt>
      <trkpt lat="45.83229" lon="0.46948">
        <ele>127.51</ele>
        <time>2021-07-09T12:32:30Z</time>
      </trkpt>
      <trkpt lat="45.83248" lon="0.47">
        <ele>129.43</ele>
        <time>2021-07-09T12:32:33Z</time>
      </trkpt>
      <trkpt lat="45.83248" lon="0.47">
        <ele>129.43</ele>
        <time>2021-07-09T12:32:34Z</time>
      </trkpt>
      <trkpt lat="45.83263" lon="0.47025">
        <ele>130.4</ele>
        <time>2021-07-09T12:32:35Z</time>
      </trkpt>
      <trkpt lat="45.83335" lon="0.47118">
        <ele>137.61</ele>
        <time>2021-07-09T12:32:46Z</time>
      </trkpt>
      <trkpt lat="45.83394" lon="0.47258">
        <ele>137.61</ele>
        <time>2021-07-09T12:32:56Z</time>
      </trkpt>
      <trkpt lat="45.83513" lon="0.47584">
        <ele>140.97</ele>
        <time>2021-07-09T12:33:17Z</time>
      </trkpt>
      <trkpt lat="45.83613" lon="0.47859">
        <ele>142.41</ele>
        <time>2021-07-09T12:33:31Z</time>
      </trkpt>
      <trkpt lat="45.83789" lon="0.48339">
        <ele>158.27</ele>
        <time>2021-07-09T12:33:54Z</time>
      </trkpt>
      <trkpt lat="45.83889" lon="0.48614">
        <ele>163.56</ele>
        <time>2021-07-09T12:34:09Z</time>
      </trkpt>
      <trkpt lat="45.83968" lon="0.48796">
        <ele>160.2</ele>
        <time>2021-07-09T12:34:18Z</time>
      </trkpt>
      <trkpt lat="45.8412" lon="0.49025">
        <ele>162.6</ele>
        <time>2021-07-09T12:34:30Z</time>
      </trkpt>
      <trkpt lat="45.843" lon="0.49275">
        <ele>174.14</ele>
        <time>2021-07-09T12:34:44Z</time>
      </trkpt>
      <trkpt lat="45.84497" lon="0.49546">
        <ele>181.83</ele>
        <time>2021-07-09T12:35:02Z</time>
      </trkpt>
      <trkpt lat="45.84756" lon="0.49904">
        <ele>183.75</ele>
        <time>2021-07-09T12:35:23Z</time>
      </trkpt>
      <trkpt lat="45.84993" lon="0.5023">
        <ele>186.15</ele>
        <time>2021-07-09T12:35:42Z</time>
      </trkpt>
      <trkpt lat="45.85161" lon="0.50457">
        <ele>186.63</ele>
        <time>2021-07-09T12:35:58Z</time>
      </trkpt>
      <trkpt lat="45.85316" lon="0.50662">
        <ele>183.27</ele>
        <time>2021-07-09T12:36:12Z</time>
      </trkpt>
      <trkpt lat="45.85446" lon="0.50834">
        <ele>179.42</ele>
        <time>2021-07-09T12:36:26Z</time>
      </trkpt>
      <trkpt lat="45.8558" lon="0.51011">
        <ele>184.23</ele>
        <time>2021-07-09T12:36:38Z</time>
      </trkpt>
      <trkpt lat="45.85722" lon="0.51247">
        <ele>180.38</ele>
        <time>2021-07-09T12:36:51Z</time>
      </trkpt>
      <trkpt lat="45.85807" lon="0.51534">
        <ele>183.75</ele>
        <time>2021-07-09T12:37:03Z</time>
      </trkpt>
      <trkpt lat="45.85951" lon="0.52062">
        <ele>187.11</ele>
        <time>2021-07-09T12:37:25Z</time>
      </trkpt>
      <trkpt lat="45.86062" lon="0.52456">
        <ele>190.96</ele>
        <time>2021-07-09T12:37:42Z</time>
      </trkpt>
      <trkpt lat="45.86212" lon="0.52995">
        <ele>179.42</ele>
        <time>2021-07-09T12:38:04Z</time>
      </trkpt>
      <trkpt lat="45.86284" lon="0.53248">
        <ele>183.27</ele>
        <time>2021-07-09T12:38:17Z</time>
      </trkpt>
      <trkpt lat="45.86371" lon="0.53534">
        <ele>184.71</ele>
        <time>2021-07-09T12:38:34Z</time>
      </trkpt>
      <trkpt lat="45.86452" lon="0.53723">
        <ele>179.42</ele>
        <time>2021-07-09T12:38:48Z</time>
      </trkpt>
      <trkpt lat="45.86454" lon="0.53738">
        <ele>179.42</ele>
        <time>2021-07-09T12:38:49Z</time>
      </trkpt>
      <trkpt lat="45.86456" lon="0.53754">
        <ele>178.94</ele>
        <time>2021-07-09T12:38:50Z</time>
      </trkpt>
      <trkpt lat="45.86458" lon="0.5377">
        <ele>177.5</ele>
        <time>2021-07-09T12:38:51Z</time>
      </trkpt>
      <trkpt lat="45.8646" lon="0.53786">
        <ele>176.54</ele>
        <time>2021-07-09T12:38:52Z</time>
      </trkpt>
      <trkpt lat="45.86467" lon="0.53879">
        <ele>176.06</ele>
        <time>2021-07-09T12:38:59Z</time>
      </trkpt>
      <trkpt lat="45.86472" lon="0.53915">
        <ele>175.1</ele>
        <time>2021-07-09T12:39:08Z</time>
      </trkpt>
      <trkpt lat="45.86478" lon="0.5394">
        <ele>175.1</ele>
        <time>2021-07-09T12:39:10Z</time>
      </trkpt>
      <trkpt lat="45.86478" lon="0.5394">
        <ele>175.1</ele>
        <time>2021-07-09T12:39:11Z</time>
      </trkpt>
      <trkpt lat="45.86537" lon="0.54058">
        <ele>180.87</ele>
        <time>2021-07-09T12:39:25Z</time>
      </trkpt>
      <trkpt lat="45.86631" lon="0.5423">
        <ele>185.19</ele>
        <time>2021-07-09T12:39:39Z</time>
      </trkpt>
      <trkpt lat="45.86746" lon="0.54445">
        <ele>185.67</ele>
        <time>2021-07-09T12:39:54Z</time>
      </trkpt>
      <trkpt lat="45.86915" lon="0.54755">
        <ele>189.52</ele>
        <time>2021-07-09T12:40:11Z</time>
      </trkpt>
      <trkpt lat="45.87077" lon="0.55049">
        <ele>194.8</ele>
        <time>2021-07-09T12:40:28Z</time>
      </trkpt>
      <trkpt lat="45.87209" lon="0.55293">
        <ele>194.32</ele>
        <time>2021-07-09T12:40:41Z</time>
      </trkpt>
      <trkpt lat="45.8745" lon="0.55733">
        <ele>197.21</ele>
        <time>2021-07-09T12:41:02Z</time>
      </trkpt>
      <trkpt lat="45.87547" lon="0.55908">
        <ele>194.32</ele>
        <time>2021-07-09T12:41:12Z</time>
      </trkpt>
      <trkpt lat="45.87572" lon="0.55952">
        <ele>194.8</ele>
        <time>2021-07-09T12:41:15Z</time>
      </trkpt>
      <trkpt lat="45.87582" lon="0.55965">
        <ele>195.28</ele>
        <time>2021-07-09T12:41:16Z</time>
      </trkpt>
      <trkpt lat="45.87593" lon="0.55977">
        <ele>195.28</ele>
        <time>2021-07-09T12:41:17Z</time>
      </trkpt>
      <trkpt lat="45.87603" lon="0.5599">
        <ele>195.77</ele>
        <time>2021-07-09T12:41:18Z</time>
      </trkpt>
      <trkpt lat="45.87616" lon="0.56002">
        <ele>195.28</ele>
        <time>2021-07-09T12:41:19Z</time>
      </trkpt>
      <trkpt lat="45.87699" lon="0.56062">
        <ele>196.25</ele>
        <time>2021-07-09T12:41:26Z</time>
      </trkpt>
      <trkpt lat="45.87708" lon="0.56074">
        <ele>197.21</ele>
        <time>2021-07-09T12:41:27Z</time>
      </trkpt>
      <trkpt lat="45.87716" lon="0.56086">
        <ele>196.73</ele>
        <time>2021-07-09T12:41:28Z</time>
      </trkpt>
      <trkpt lat="45.87784" lon="0.56233">
        <ele>200.09</ele>
        <time>2021-07-09T12:41:38Z</time>
      </trkpt>
      <trkpt lat="45.87841" lon="0.56436">
        <ele>201.53</ele>
        <time>2021-07-09T12:41:50Z</time>
      </trkpt>
      <trkpt lat="45.87953" lon="0.5665">
        <ele>201.05</ele>
        <time>2021-07-09T12:42:03Z</time>
      </trkpt>
      <trkpt lat="45.88106" lon="0.5693">
        <ele>200.57</ele>
        <time>2021-07-09T12:42:18Z</time>
      </trkpt>
      <trkpt lat="45.88209" lon="0.57116">
        <ele>194.8</ele>
        <time>2021-07-09T12:42:30Z</time>
      </trkpt>
      <trkpt lat="45.88273" lon="0.57229">
        <ele>198.65</ele>
        <time>2021-07-09T12:42:39Z</time>
      </trkpt>
      <trkpt lat="45.88306" lon="0.57289">
        <ele>202.98</ele>
        <time>2021-07-09T12:42:51Z</time>
      </trkpt>
      <trkpt lat="45.88369" lon="0.57405">
        <ele>207.78</ele>
        <time>2021-07-09T12:43:05Z</time>
      </trkpt>
      <trkpt lat="45.88492" lon="0.57628">
        <ele>215.95</ele>
        <time>2021-07-09T12:43:27Z</time>
      </trkpt>
      <trkpt lat="45.88582" lon="0.57809">
        <ele>217.88</ele>
        <time>2021-07-09T12:43:41Z</time>
      </trkpt>
      <trkpt lat="45.88601" lon="0.57866">
        <ele>218.36</ele>
        <time>2021-07-09T12:43:50Z</time>
      </trkpt>
      <trkpt lat="45.88602" lon="0.57868">
        <ele>218.36</ele>
        <time>2021-07-09T12:44:03Z</time>
      </trkpt>
      <trkpt lat="45.88611" lon="0.57895">
        <ele>218.36</ele>
        <time>2021-07-09T12:44:11Z</time>
      </trkpt>
      <trkpt lat="45.88633" lon="0.57958">
        <ele>217.88</ele>
        <time>2021-07-09T12:44:20Z</time>
      </trkpt>
      <trkpt lat="45.88633" lon="0.57967">
        <ele>217.4</ele>
        <time>2021-07-09T12:44:21Z</time>
      </trkpt>
      <trkpt lat="45.88633" lon="0.57975">
        <ele>217.4</ele>
        <time>2021-07-09T12:44:22Z</time>
      </trkpt>
      <trkpt lat="45.88633" lon="0.57984">
        <ele>216.91</ele>
        <time>2021-07-09T12:44:23Z</time>
      </trkpt>
      <trkpt lat="45.88633" lon="0.57992">
        <ele>216.91</ele>
        <time>2021-07-09T12:44:24Z</time>
      </trkpt>
      <trkpt lat="45.88633" lon="0.58009">
        <ele>216.91</ele>
        <time>2021-07-09T12:44:25Z</time>
      </trkpt>
      <trkpt lat="45.88615" lon="0.5814">
        <ele>216.43</ele>
        <time>2021-07-09T12:44:39Z</time>
      </trkpt>
      <trkpt lat="45.88599" lon="0.5827">
        <ele>213.07</ele>
        <time>2021-07-09T12:44:49Z</time>
      </trkpt>
      <trkpt lat="45.88596" lon="0.58291">
        <ele>214.51</ele>
        <time>2021-07-09T12:44:54Z</time>
      </trkpt>
      <trkpt lat="45.88592" lon="0.58323">
        <ele>214.03</ele>
        <time>2021-07-09T12:45:47Z</time>
      </trkpt>
      <trkpt lat="45.88574" lon="0.58456">
        <ele>213.07</ele>
        <time>2021-07-09T12:45:56Z</time>
      </trkpt>
      <trkpt lat="45.88543" lon="0.58694">
        <ele>207.78</ele>
        <time>2021-07-09T12:46:08Z</time>
      </trkpt>
      <trkpt lat="45.88495" lon="0.59042">
        <ele>199.61</ele>
        <time>2021-07-09T12:46:25Z</time>
      </trkpt>
      <trkpt lat="45.88477" lon="0.5917">
        <ele>197.69</ele>
        <time>2021-07-09T12:46:33Z</time>
      </trkpt>
      <trkpt lat="45.8847" lon="0.5919">
        <ele>198.17</ele>
        <time>2021-07-09T12:46:34Z</time>
      </trkpt>
      <trkpt lat="45.8847" lon="0.5919">
        <ele>198.17</ele>
        <time>2021-07-09T12:46:35Z</time>
      </trkpt>
      <trkpt lat="45.88465" lon="0.59195">
        <ele>198.17</ele>
        <time>2021-07-09T12:46:36Z</time>
      </trkpt>
      <trkpt lat="45.88462" lon="0.59205">
        <ele>198.17</ele>
        <time>2021-07-09T12:46:37Z</time>
      </trkpt>
      <trkpt lat="45.88462" lon="0.59214">
        <ele>197.69</ele>
        <time>2021-07-09T12:46:38Z</time>
      </trkpt>
      <trkpt lat="45.88462" lon="0.59221">
        <ele>197.69</ele>
        <time>2021-07-09T12:46:39Z</time>
      </trkpt>
      <trkpt lat="45.8847" lon="0.59233">
        <ele>197.69</ele>
        <time>2021-07-09T12:46:40Z</time>
      </trkpt>
      <trkpt lat="45.88467" lon="0.59254">
        <ele>197.21</ele>
        <time>2021-07-09T12:46:41Z</time>
      </trkpt>
      <trkpt lat="45.88467" lon="0.59254">
        <ele>196.25</ele>
        <time>2021-07-09T12:46:42Z</time>
      </trkpt>
      <trkpt lat="45.88465" lon="0.59267">
        <ele>195.77</ele>
        <time>2021-07-09T12:46:43Z</time>
      </trkpt>
      <trkpt lat="45.88446" lon="0.59412">
        <ele>189.52</ele>
        <time>2021-07-09T12:46:51Z</time>
      </trkpt>
      <trkpt lat="45.88411" lon="0.59692">
        <ele>180.87</ele>
        <time>2021-07-09T12:47:02Z</time>
      </trkpt>
      <trkpt lat="45.88357" lon="0.60078">
        <ele>190.96</ele>
        <time>2021-07-09T12:47:16Z</time>
      </trkpt>
      <trkpt lat="45.88298" lon="0.60537">
        <ele>210.67</ele>
        <time>2021-07-09T12:47:33Z</time>
      </trkpt>
      <trkpt lat="45.88212" lon="0.61154">
        <ele>230.37</ele>
        <time>2021-07-09T12:47:56Z</time>
      </trkpt>
      <trkpt lat="45.88158" lon="0.61566">
        <ele>241.43</ele>
        <time>2021-07-09T12:48:13Z</time>
      </trkpt>
      <trkpt lat="45.88119" lon="0.6172">
        <ele>238.06</ele>
        <time>2021-07-09T12:48:21Z</time>
      </trkpt>
      <trkpt lat="45.88057" lon="0.61967">
        <ele>224.12</ele>
        <time>2021-07-09T12:48:33Z</time>
      </trkpt>
      <trkpt lat="45.87964" lon="0.62329">
        <ele>217.88</ele>
        <time>2021-07-09T12:48:47Z</time>
      </trkpt>
      <trkpt lat="45.87855" lon="0.62755">
        <ele>199.13</ele>
        <time>2021-07-09T12:49:03Z</time>
      </trkpt>
      <trkpt lat="45.87721" lon="0.63277">
        <ele>182.79</ele>
        <time>2021-07-09T12:49:21Z</time>
      </trkpt>
      <trkpt lat="45.87596" lon="0.63757">
        <ele>190</ele>
        <time>2021-07-09T12:49:37Z</time>
      </trkpt>
      <trkpt lat="45.87486" lon="0.64198">
        <ele>191.92</ele>
        <time>2021-07-09T12:49:53Z</time>
      </trkpt>
      <trkpt lat="45.87362" lon="0.64679">
        <ele>187.11</ele>
        <time>2021-07-09T12:50:11Z</time>
      </trkpt>
      <trkpt lat="45.87247" lon="0.65123">
        <ele>194.32</ele>
        <time>2021-07-09T12:50:28Z</time>
      </trkpt>
      <trkpt lat="45.8719" lon="0.65354">
        <ele>200.57</ele>
        <time>2021-07-09T12:50:38Z</time>
      </trkpt>
      <trkpt lat="45.87188" lon="0.65372">
        <ele>200.09</ele>
        <time>2021-07-09T12:50:39Z</time>
      </trkpt>
      <trkpt lat="45.87186" lon="0.65391">
        <ele>198.65</ele>
        <time>2021-07-09T12:50:40Z</time>
      </trkpt>
      <trkpt lat="45.87187" lon="0.65604">
        <ele>192.4</ele>
        <time>2021-07-09T12:50:50Z</time>
      </trkpt>
      <trkpt lat="45.8719" lon="0.65971">
        <ele>187.59</ele>
        <time>2021-07-09T12:51:05Z</time>
      </trkpt>
      <trkpt lat="45.87194" lon="0.66466">
        <ele>181.83</ele>
        <time>2021-07-09T12:51:22Z</time>
      </trkpt>
      <trkpt lat="45.87195" lon="0.66724">
        <ele>176.54</ele>
        <time>2021-07-09T12:51:34Z</time>
      </trkpt>
      <trkpt lat="45.87197" lon="0.67001">
        <ele>166.45</ele>
        <time>2021-07-09T12:51:46Z</time>
      </trkpt>
      <trkpt lat="45.872" lon="0.6731">
        <ele>158.27</ele>
        <time>2021-07-09T12:51:58Z</time>
      </trkpt>
      <trkpt lat="45.87203" lon="0.67624">
        <ele>174.62</ele>
        <time>2021-07-09T12:52:11Z</time>
      </trkpt>
      <trkpt lat="45.87205" lon="0.6786">
        <ele>183.27</ele>
        <time>2021-07-09T12:52:23Z</time>
      </trkpt>
      <trkpt lat="45.87206" lon="0.68158">
        <ele>189.52</ele>
        <time>2021-07-09T12:52:36Z</time>
      </trkpt>
      <trkpt lat="45.87211" lon="0.68586">
        <ele>197.69</ele>
        <time>2021-07-09T12:52:55Z</time>
      </trkpt>
      <trkpt lat="45.87205" lon="0.689">
        <ele>190.96</ele>
        <time>2021-07-09T12:53:09Z</time>
      </trkpt>
      <trkpt lat="45.87217" lon="0.69065">
        <ele>184.23</ele>
        <time>2021-07-09T12:53:17Z</time>
      </trkpt>
      <trkpt lat="45.8722" lon="0.69091">
        <ele>184.23</ele>
        <time>2021-07-09T12:53:19Z</time>
      </trkpt>
      <trkpt lat="45.8722" lon="0.69091">
        <ele>185.19</ele>
        <time>2021-07-09T12:53:20Z</time>
      </trkpt>
      <trkpt lat="45.87221" lon="0.69102">
        <ele>186.15</ele>
        <time>2021-07-09T12:53:21Z</time>
      </trkpt>
      <trkpt lat="45.87207" lon="0.69158">
        <ele>185.19</ele>
        <time>2021-07-09T12:53:25Z</time>
      </trkpt>
      <trkpt lat="45.87194" lon="0.69183">
        <ele>185.19</ele>
        <time>2021-07-09T12:53:26Z</time>
      </trkpt>
      <trkpt lat="45.87187" lon="0.69198">
        <ele>185.67</ele>
        <time>2021-07-09T12:53:27Z</time>
      </trkpt>
      <trkpt lat="45.87178" lon="0.69214">
        <ele>186.15</ele>
        <time>2021-07-09T12:53:28Z</time>
      </trkpt>
      <trkpt lat="45.87178" lon="0.69214">
        <ele>185.67</ele>
        <time>2021-07-09T12:53:29Z</time>
      </trkpt>
      <trkpt lat="45.87079" lon="0.6932">
        <ele>190.48</ele>
        <time>2021-07-09T12:53:36Z</time>
      </trkpt>
      <trkpt lat="45.87064" lon="0.69327">
        <ele>191.44</ele>
        <time>2021-07-09T12:53:37Z</time>
      </trkpt>
      <trkpt lat="45.87047" lon="0.6933">
        <ele>192.4</ele>
        <time>2021-07-09T12:53:38Z</time>
      </trkpt>
      <trkpt lat="45.87031" lon="0.6933">
        <ele>193.36</ele>
        <time>2021-07-09T12:53:39Z</time>
      </trkpt>
      <trkpt lat="45.87014" lon="0.6933">
        <ele>193.84</ele>
        <time>2021-07-09T12:53:40Z</time>
      </trkpt>
      <trkpt lat="45.86997" lon="0.69331">
        <ele>194.8</ele>
        <time>2021-07-09T12:53:41Z</time>
      </trkpt>
      <trkpt lat="45.86901" lon="0.69332">
        <ele>198.17</ele>
        <time>2021-07-09T12:53:49Z</time>
      </trkpt>
      <trkpt lat="45.86858" lon="0.69332">
        <ele>200.57</ele>
        <time>2021-07-09T12:53:54Z</time>
      </trkpt>
      <trkpt lat="45.86844" lon="0.69332">
        <ele>201.05</ele>
        <time>2021-07-09T12:53:55Z</time>
      </trkpt>
      <trkpt lat="45.86844" lon="0.69332">
        <ele>200.57</ele>
        <time>2021-07-09T12:53:56Z</time>
      </trkpt>
      <trkpt lat="45.86828" lon="0.69298">
        <ele>200.57</ele>
        <time>2021-07-09T12:53:58Z</time>
      </trkpt>
      <trkpt lat="45.8682" lon="0.69296">
        <ele>200.09</ele>
        <time>2021-07-09T12:53:59Z</time>
      </trkpt>
      <trkpt lat="45.86814" lon="0.69298">
        <ele>200.09</ele>
        <time>2021-07-09T12:54:00Z</time>
      </trkpt>
      <trkpt lat="45.86808" lon="0.693">
        <ele>199.61</ele>
        <time>2021-07-09T12:54:01Z</time>
      </trkpt>
      <trkpt lat="45.86808" lon="0.693">
        <ele>199.61</ele>
        <time>2021-07-09T12:54:02Z</time>
      </trkpt>
      <trkpt lat="45.86798" lon="0.69314">
        <ele>200.09</ele>
        <time>2021-07-09T12:54:03Z</time>
      </trkpt>
      <trkpt lat="45.86798" lon="0.69314">
        <ele>199.61</ele>
        <time>2021-07-09T12:54:04Z</time>
      </trkpt>
      <trkpt lat="45.86798" lon="0.69335">
        <ele>199.13</ele>
        <time>2021-07-09T12:54:05Z</time>
      </trkpt>
      <trkpt lat="45.86798" lon="0.69335">
        <ele>199.13</ele>
        <time>2021-07-09T12:54:06Z</time>
      </trkpt>
      <trkpt lat="45.86801" lon="0.69346">
        <ele>199.61</ele>
        <time>2021-07-09T12:54:07Z</time>
      </trkpt>
      <trkpt lat="45.86805" lon="0.69356">
        <ele>199.13</ele>
        <time>2021-07-09T12:54:08Z</time>
      </trkpt>
      <trkpt lat="45.86815" lon="0.69388">
        <ele>197.69</ele>
        <time>2021-07-09T12:54:09Z</time>
      </trkpt>
      <trkpt lat="45.86815" lon="0.69388">
        <ele>197.21</ele>
        <time>2021-07-09T12:54:10Z</time>
      </trkpt>
      <trkpt lat="45.86809" lon="0.69575">
        <ele>197.69</ele>
        <time>2021-07-09T12:54:19Z</time>
      </trkpt>
      <trkpt lat="45.86832" lon="0.6985">
        <ele>190.96</ele>
        <time>2021-07-09T12:54:31Z</time>
      </trkpt>
      <trkpt lat="45.86854" lon="0.70071">
        <ele>184.23</ele>
        <time>2021-07-09T12:54:40Z</time>
      </trkpt>
      <trkpt lat="45.86873" lon="0.70361">
        <ele>174.14</ele>
        <time>2021-07-09T12:54:49Z</time>
      </trkpt>
      <trkpt lat="45.86895" lon="0.70839">
        <ele>155.39</ele>
        <time>2021-07-09T12:55:02Z</time>
      </trkpt>
      <trkpt lat="45.86862" lon="0.71133">
        <ele>158.75</ele>
        <time>2021-07-09T12:55:10Z</time>
      </trkpt>
      <trkpt lat="45.86785" lon="0.71403">
        <ele>169.33</ele>
        <time>2021-07-09T12:55:18Z</time>
      </trkpt>
      <trkpt lat="45.86579" lon="0.71941">
        <ele>184.71</ele>
        <time>2021-07-09T12:55:35Z</time>
      </trkpt>
      <trkpt lat="45.8649" lon="0.72356">
        <ele>196.25</ele>
        <time>2021-07-09T12:55:47Z</time>
      </trkpt>
      <trkpt lat="45.86409" lon="0.72841">
        <ele>207.78</ele>
        <time>2021-07-09T12:56:00Z</time>
      </trkpt>
      <trkpt lat="45.86421" lon="0.73049">
        <ele>207.78</ele>
        <time>2021-07-09T12:56:07Z</time>
      </trkpt>
      <trkpt lat="45.86475" lon="0.73281">
        <ele>204.42</ele>
        <time>2021-07-09T12:56:14Z</time>
      </trkpt>
      <trkpt lat="45.86576" lon="0.73482">
        <ele>199.61</ele>
        <time>2021-07-09T12:56:21Z</time>
      </trkpt>
      <trkpt lat="45.86717" lon="0.73629">
        <ele>195.28</ele>
        <time>2021-07-09T12:56:28Z</time>
      </trkpt>
      <trkpt lat="45.86882" lon="0.73717">
        <ele>189.04</ele>
        <time>2021-07-09T12:56:35Z</time>
      </trkpt>
      <trkpt lat="45.87186" lon="0.73842">
        <ele>170.77</ele>
        <time>2021-07-09T12:56:47Z</time>
      </trkpt>
      <trkpt lat="45.87352" lon="0.73976">
        <ele>165.96</ele>
        <time>2021-07-09T12:56:54Z</time>
      </trkpt>
      <trkpt lat="45.8751" lon="0.74191">
        <ele>166.45</ele>
        <time>2021-07-09T12:57:02Z</time>
      </trkpt>
      <trkpt lat="45.87791" lon="0.74715">
        <ele>169.33</ele>
        <time>2021-07-09T12:57:19Z</time>
      </trkpt>
      <trkpt lat="45.87949" lon="0.75179">
        <ele>177.02</ele>
        <time>2021-07-09T12:57:31Z</time>
      </trkpt>
      <trkpt lat="45.88168" lon="0.7586">
        <ele>177.98</ele>
        <time>2021-07-09T12:57:50Z</time>
      </trkpt>
      <trkpt lat="45.88232" lon="0.76193">
        <ele>179.42</ele>
        <time>2021-07-09T12:57:59Z</time>
      </trkpt>
      <trkpt lat="45.88248" lon="0.76531">
        <ele>182.31</ele>
        <time>2021-07-09T12:58:09Z</time>
      </trkpt>
      <trkpt lat="45.88234" lon="0.76931">
        <ele>197.21</ele>
        <time>2021-07-09T12:58:20Z</time>
      </trkpt>
      <trkpt lat="45.88199" lon="0.77572">
        <ele>205.38</ele>
        <time>2021-07-09T12:58:38Z</time>
      </trkpt>
      <trkpt lat="45.88155" lon="0.78122">
        <ele>210.19</ele>
        <time>2021-07-09T12:58:52Z</time>
      </trkpt>
      <trkpt lat="45.88069" lon="0.7887">
        <ele>211.15</ele>
        <time>2021-07-09T12:59:11Z</time>
      </trkpt>
      <trkpt lat="45.88079" lon="0.79266">
        <ele>198.65</ele>
        <time>2021-07-09T12:59:21Z</time>
      </trkpt>
      <trkpt lat="45.8813" lon="0.79611">
        <ele>196.73</ele>
        <time>2021-07-09T12:59:30Z</time>
      </trkpt>
      <trkpt lat="45.88249" lon="0.80062">
        <ele>214.03</ele>
        <time>2021-07-09T12:59:43Z</time>
      </trkpt>
      <trkpt lat="45.88386" lon="0.80496">
        <ele>225.09</ele>
        <time>2021-07-09T12:59:56Z</time>
      </trkpt>
      <trkpt lat="45.88526" lon="0.80778">
        <ele>219.8</ele>
        <time>2021-07-09T13:00:05Z</time>
      </trkpt>
      <trkpt lat="45.88787" lon="0.81196">
        <ele>212.59</ele>
        <time>2021-07-09T13:00:19Z</time>
      </trkpt>
      <trkpt lat="45.89046" lon="0.8168">
        <ele>205.86</ele>
        <time>2021-07-09T13:00:34Z</time>
      </trkpt>
      <trkpt lat="45.89388" lon="0.8236">
        <ele>218.84</ele>
        <time>2021-07-09T13:00:55Z</time>
      </trkpt>
      <trkpt lat="45.89634" lon="0.82856">
        <ele>226.53</ele>
        <time>2021-07-09T13:01:12Z</time>
      </trkpt>
      <trkpt lat="45.89795" lon="0.83214">
        <ele>211.63</ele>
        <time>2021-07-09T13:01:23Z</time>
      </trkpt>
      <trkpt lat="45.89909" lon="0.83589">
        <ele>213.07</ele>
        <time>2021-07-09T13:01:33Z</time>
      </trkpt>
      <trkpt lat="45.90053" lon="0.8416">
        <ele>225.57</ele>
        <time>2021-07-09T13:01:48Z</time>
      </trkpt>
      <trkpt lat="45.90237" lon="0.84926">
        <ele>236.14</ele>
        <time>2021-07-09T13:02:08Z</time>
      </trkpt>
      <trkpt lat="45.90405" lon="0.85674">
        <ele>224.61</ele>
        <time>2021-07-09T13:02:27Z</time>
      </trkpt>
      <trkpt lat="45.90527" lon="0.86272">
        <ele>236.62</ele>
        <time>2021-07-09T13:02:42Z</time>
      </trkpt>
      <trkpt lat="45.90634" lon="0.86828">
        <ele>264.5</ele>
        <time>2021-07-09T13:02:57Z</time>
      </trkpt>
      <trkpt lat="45.90726" lon="0.87339">
        <ele>282.28</ele>
        <time>2021-07-09T13:03:12Z</time>
      </trkpt>
      <trkpt lat="45.9082" lon="0.87914">
        <ele>270.75</ele>
        <time>2021-07-09T13:03:28Z</time>
      </trkpt>
      <trkpt lat="45.90904" lon="0.88502">
        <ele>244.79</ele>
        <time>2021-07-09T13:03:43Z</time>
      </trkpt>
      <trkpt lat="45.90925" lon="0.8896">
        <ele>239.51</ele>
        <time>2021-07-09T13:03:54Z</time>
      </trkpt>
      <trkpt lat="45.90924" lon="0.89607">
        <ele>233.74</ele>
        <time>2021-07-09T13:04:10Z</time>
      </trkpt>
      <trkpt lat="45.90921" lon="0.90489">
        <ele>215.47</ele>
        <time>2021-07-09T13:04:32Z</time>
      </trkpt>
      <trkpt lat="45.90918" lon="0.91148">
        <ele>225.57</ele>
        <time>2021-07-09T13:04:49Z</time>
      </trkpt>
      <trkpt lat="45.90914" lon="0.91831">
        <ele>247.68</ele>
        <time>2021-07-09T13:05:08Z</time>
      </trkpt>
      <trkpt lat="45.90883" lon="0.92174">
        <ele>258.25</ele>
        <time>2021-07-09T13:05:18Z</time>
      </trkpt>
      <trkpt lat="45.90804" lon="0.92505">
        <ele>264.02</ele>
        <time>2021-07-09T13:05:28Z</time>
      </trkpt>
      <trkpt lat="45.90672" lon="0.92837">
        <ele>264.98</ele>
        <time>2021-07-09T13:05:39Z</time>
      </trkpt>
      <trkpt lat="45.90491" lon="0.93304">
        <ele>268.83</ele>
        <time>2021-07-09T13:05:55Z</time>
      </trkpt>
      <trkpt lat="45.9044" lon="0.93568">
        <ele>268.83</ele>
        <time>2021-07-09T13:06:03Z</time>
      </trkpt>
      <trkpt lat="45.90439" lon="0.93854">
        <ele>268.35</ele>
        <time>2021-07-09T13:06:11Z</time>
      </trkpt>
      <trkpt lat="45.90508" lon="0.945">
        <ele>282.28</ele>
        <time>2021-07-09T13:06:29Z</time>
      </trkpt>
      <trkpt lat="45.90568" lon="0.949">
        <ele>288.53</ele>
        <time>2021-07-09T13:06:40Z</time>
      </trkpt>
      <trkpt lat="45.90631" lon="0.95541">
        <ele>293.82</ele>
        <time>2021-07-09T13:06:57Z</time>
      </trkpt>
      <trkpt lat="45.90655" lon="0.96122">
        <ele>286.13</ele>
        <time>2021-07-09T13:07:12Z</time>
      </trkpt>
      <trkpt lat="45.90682" lon="0.96641">
        <ele>281.32</ele>
        <time>2021-07-09T13:07:25Z</time>
      </trkpt>
      <trkpt lat="45.90726" lon="0.97207">
        <ele>276.52</ele>
        <time>2021-07-09T13:07:39Z</time>
      </trkpt>
      <trkpt lat="45.90735" lon="0.97658">
        <ele>272.67</ele>
        <time>2021-07-09T13:07:50Z</time>
      </trkpt>
      <trkpt lat="45.90693" lon="0.98023">
        <ele>273.63</ele>
        <time>2021-07-09T13:07:59Z</time>
      </trkpt>
      <trkpt lat="45.90616" lon="0.98575">
        <ele>279.88</ele>
        <time>2021-07-09T13:08:13Z</time>
      </trkpt>
      <trkpt lat="45.90607" lon="0.98968">
        <ele>280.84</ele>
        <time>2021-07-09T13:08:23Z</time>
      </trkpt>
      <trkpt lat="45.90625" lon="0.99537">
        <ele>284.69</ele>
        <time>2021-07-09T13:08:37Z</time>
      </trkpt>
      <trkpt lat="45.90602" lon="1.00284">
        <ele>283.25</ele>
        <time>2021-07-09T13:08:55Z</time>
      </trkpt>
      <trkpt lat="45.90562" lon="1.00935">
        <ele>279.88</ele>
        <time>2021-07-09T13:09:11Z</time>
      </trkpt>
      <trkpt lat="45.90487" lon="1.01285">
        <ele>283.73</ele>
        <time>2021-07-09T13:09:20Z</time>
      </trkpt>
      <trkpt lat="45.90366" lon="1.01608">
        <ele>286.61</ele>
        <time>2021-07-09T13:09:29Z</time>
      </trkpt>
      <trkpt lat="45.89979" lon="1.02449">
        <ele>307.76</ele>
        <time>2021-07-09T13:09:53Z</time>
      </trkpt>
      <trkpt lat="45.89714" lon="1.03003">
        <ele>306.32</ele>
        <time>2021-07-09T13:10:11Z</time>
      </trkpt>
      <trkpt lat="45.89353" lon="1.03638">
        <ele>298.63</ele>
        <time>2021-07-09T13:10:31Z</time>
      </trkpt>
      <trkpt lat="45.89241" lon="1.03918">
        <ele>296.7</ele>
        <time>2021-07-09T13:10:39Z</time>
      </trkpt>
      <trkpt lat="45.89166" lon="1.04226">
        <ele>294.3</ele>
        <time>2021-07-09T13:10:47Z</time>
      </trkpt>
      <trkpt lat="45.89073" lon="1.0487">
        <ele>288.05</ele>
        <time>2021-07-09T13:11:04Z</time>
      </trkpt>
      <trkpt lat="45.8896" lon="1.05657">
        <ele>285.17</ele>
        <time>2021-07-09T13:11:24Z</time>
      </trkpt>
      <trkpt lat="45.88838" lon="1.06515">
        <ele>303.91</ele>
        <time>2021-07-09T13:11:46Z</time>
      </trkpt>
      <trkpt lat="45.88729" lon="1.07252">
        <ele>309.68</ele>
        <time>2021-07-09T13:12:03Z</time>
      </trkpt>
      <trkpt lat="45.8865" lon="1.07576">
        <ele>311.12</ele>
        <time>2021-07-09T13:12:12Z</time>
      </trkpt>
      <trkpt lat="45.88347" lon="1.08565">
        <ele>308.24</ele>
        <time>2021-07-09T13:12:37Z</time>
      </trkpt>
      <trkpt lat="45.88305" lon="1.08849">
        <ele>305.84</ele>
        <time>2021-07-09T13:12:44Z</time>
      </trkpt>
      <trkpt lat="45.88311" lon="1.09233">
        <ele>304.39</ele>
        <time>2021-07-09T13:12:53Z</time>
      </trkpt>
      <trkpt lat="45.88307" lon="1.09568">
        <ele>312.09</ele>
        <time>2021-07-09T13:13:01Z</time>
      </trkpt>
      <trkpt lat="45.88251" lon="1.09838">
        <ele>317.37</ele>
        <time>2021-07-09T13:13:08Z</time>
      </trkpt>
      <trkpt lat="45.88146" lon="1.10086">
        <ele>319.3</ele>
        <time>2021-07-09T13:13:15Z</time>
      </trkpt>
      <trkpt lat="45.88002" lon="1.10288">
        <ele>316.41</ele>
        <time>2021-07-09T13:13:22Z</time>
      </trkpt>
      <trkpt lat="45.87746" lon="1.10625">
        <ele>308.24</ele>
        <time>2021-07-09T13:13:34Z</time>
      </trkpt>
      <trkpt lat="45.87591" lon="1.10959">
        <ele>314.49</ele>
        <time>2021-07-09T13:13:43Z</time>
      </trkpt>
      <trkpt lat="45.87423" lon="1.11338">
        <ele>324.58</ele>
        <time>2021-07-09T13:13:56Z</time>
      </trkpt>
      <trkpt lat="45.87303" lon="1.11559">
        <ele>323.62</ele>
        <time>2021-07-09T13:14:05Z</time>
      </trkpt>
      <trkpt lat="45.87153" lon="1.11736">
        <ele>317.85</ele>
        <time>2021-07-09T13:14:13Z</time>
      </trkpt>
      <trkpt lat="45.86865" lon="1.11968">
        <ele>309.2</ele>
        <time>2021-07-09T13:14:25Z</time>
      </trkpt>
      <trkpt lat="45.86716" lon="1.12127">
        <ele>308.24</ele>
        <time>2021-07-09T13:14:32Z</time>
      </trkpt>
      <trkpt lat="45.86614" lon="1.12335">
        <ele>313.53</ele>
        <time>2021-07-09T13:14:39Z</time>
      </trkpt>
      <trkpt lat="45.86556" lon="1.12574">
        <ele>316.41</ele>
        <time>2021-07-09T13:14:46Z</time>
      </trkpt>
      <trkpt lat="45.86486" lon="1.13176">
        <ele>322.18</ele>
        <time>2021-07-09T13:15:02Z</time>
      </trkpt>
      <trkpt lat="45.86417" lon="1.13469">
        <ele>329.87</ele>
        <time>2021-07-09T13:15:10Z</time>
      </trkpt>
      <trkpt lat="45.86295" lon="1.13727">
        <ele>335.64</ele>
        <time>2021-07-09T13:15:18Z</time>
      </trkpt>
      <trkpt lat="45.86041" lon="1.14117">
        <ele>347.65</ele>
        <time>2021-07-09T13:15:32Z</time>
      </trkpt>
      <trkpt lat="45.85919" lon="1.14408">
        <ele>351.98</ele>
        <time>2021-07-09T13:15:41Z</time>
      </trkpt>
      <trkpt lat="45.85799" lon="1.14834">
        <ele>352.94</ele>
        <time>2021-07-09T13:15:53Z</time>
      </trkpt>
      <trkpt lat="45.85727" lon="1.1509">
        <ele>353.9</ele>
        <time>2021-07-09T13:16:01Z</time>
      </trkpt>
      <trkpt lat="45.85625" lon="1.15331">
        <ele>353.9</ele>
        <time>2021-07-09T13:16:10Z</time>
      </trkpt>
      <trkpt lat="45.85515" lon="1.15484">
        <ele>352.46</ele>
        <time>2021-07-09T13:16:18Z</time>
      </trkpt>
      <trkpt lat="45.85486" lon="1.15524">
        <ele>353.42</ele>
        <time>2021-07-09T13:16:24Z</time>
      </trkpt>
      <trkpt lat="45.85472" lon="1.15545">
        <ele>353.42</ele>
        <time>2021-07-09T13:16:27Z</time>
      </trkpt>
      <trkpt lat="45.85472" lon="1.15545">
        <ele>353.42</ele>
        <time>2021-07-09T13:16:28Z</time>
      </trkpt>
      <trkpt lat="45.85461" lon="1.15551">
        <ele>353.42</ele>
        <time>2021-07-09T13:16:29Z</time>
      </trkpt>
      <trkpt lat="45.85454" lon="1.15553">
        <ele>352.94</ele>
        <time>2021-07-09T13:16:31Z</time>
      </trkpt>
      <trkpt lat="45.85445" lon="1.15561">
        <ele>352.94</ele>
        <time>2021-07-09T13:16:32Z</time>
      </trkpt>
      <trkpt lat="45.85436" lon="1.15579">
        <ele>352.94</ele>
        <time>2021-07-09T13:16:33Z</time>
      </trkpt>
      <trkpt lat="45.85432" lon="1.15588">
        <ele>352.94</ele>
        <time>2021-07-09T13:16:34Z</time>
      </trkpt>
      <trkpt lat="45.85432" lon="1.15588">
        <ele>353.42</ele>
        <time>2021-07-09T13:16:35Z</time>
      </trkpt>
      <trkpt lat="45.8543" lon="1.15599">
        <ele>353.42</ele>
        <time>2021-07-09T13:16:36Z</time>
      </trkpt>
      <trkpt lat="45.85431" lon="1.1561">
        <ele>352.94</ele>
        <time>2021-07-09T13:16:37Z</time>
      </trkpt>
      <trkpt lat="45.85432" lon="1.15622">
        <ele>352.94</ele>
        <time>2021-07-09T13:16:38Z</time>
      </trkpt>
      <trkpt lat="45.85435" lon="1.15633">
        <ele>353.42</ele>
        <time>2021-07-09T13:16:39Z</time>
      </trkpt>
      <trkpt lat="45.85439" lon="1.15643">
        <ele>352.94</ele>
        <time>2021-07-09T13:16:40Z</time>
      </trkpt>
      <trkpt lat="45.85446" lon="1.1565">
        <ele>353.42</ele>
        <time>2021-07-09T13:16:41Z</time>
      </trkpt>
      <trkpt lat="45.85454" lon="1.15653">
        <ele>353.42</ele>
        <time>2021-07-09T13:16:42Z</time>
      </trkpt>
      <trkpt lat="45.85462" lon="1.15657">
        <ele>353.42</ele>
        <time>2021-07-09T13:16:43Z</time>
      </trkpt>
      <trkpt lat="45.8547" lon="1.15659">
        <ele>353.42</ele>
        <time>2021-07-09T13:16:44Z</time>
      </trkpt>
      <trkpt lat="45.85483" lon="1.15659">
        <ele>352.94</ele>
        <time>2021-07-09T13:16:45Z</time>
      </trkpt>
      <trkpt lat="45.85494" lon="1.15665">
        <ele>351.5</ele>
        <time>2021-07-09T13:16:46Z</time>
      </trkpt>
      <trkpt lat="45.855" lon="1.15675">
        <ele>350.54</ele>
        <time>2021-07-09T13:16:47Z</time>
      </trkpt>
      <trkpt lat="45.85507" lon="1.15685">
        <ele>350.06</ele>
        <time>2021-07-09T13:16:48Z</time>
      </trkpt>
      <trkpt lat="45.85516" lon="1.15699">
        <ele>349.58</ele>
        <time>2021-07-09T13:16:49Z</time>
      </trkpt>
      <trkpt lat="45.8564" lon="1.15874">
        <ele>356.79</ele>
        <time>2021-07-09T13:16:59Z</time>
      </trkpt>
      <trkpt lat="45.8579" lon="1.16084">
        <ele>366.88</ele>
        <time>2021-07-09T13:17:11Z</time>
      </trkpt>
      <trkpt lat="45.85954" lon="1.16222">
        <ele>374.57</ele>
        <time>2021-07-09T13:17:21Z</time>
      </trkpt>
      <trkpt lat="45.86238" lon="1.16389">
        <ele>385.15</ele>
        <time>2021-07-09T13:17:35Z</time>
      </trkpt>
      <trkpt lat="45.86533" lon="1.16534">
        <ele>391.87</ele>
        <time>2021-07-09T13:17:51Z</time>
      </trkpt>
      <trkpt lat="45.86729" lon="1.1656">
        <ele>388.99</ele>
        <time>2021-07-09T13:18:01Z</time>
      </trkpt>
      <trkpt lat="45.86919" lon="1.16518">
        <ele>383.7</ele>
        <time>2021-07-09T13:18:12Z</time>
      </trkpt>
      <trkpt lat="45.87206" lon="1.16373">
        <ele>388.03</ele>
        <time>2021-07-09T13:18:29Z</time>
      </trkpt>
      <trkpt lat="45.8744" lon="1.16283">
        <ele>395.24</ele>
        <time>2021-07-09T13:18:42Z</time>
      </trkpt>
      <trkpt lat="45.87592" lon="1.16296">
        <ele>399.08</ele>
        <time>2021-07-09T13:18:50Z</time>
      </trkpt>
      <trkpt lat="45.87745" lon="1.16379">
        <ele>401.49</ele>
        <time>2021-07-09T13:18:59Z</time>
      </trkpt>
      <trkpt lat="45.8788" lon="1.16524">
        <ele>409.66</ele>
        <time>2021-07-09T13:19:08Z</time>
      </trkpt>
      <trkpt lat="45.87972" lon="1.16715">
        <ele>416.87</ele>
        <time>2021-07-09T13:19:17Z</time>
      </trkpt>
      <trkpt lat="45.88017" lon="1.16921">
        <ele>422.64</ele>
        <time>2021-07-09T13:19:26Z</time>
      </trkpt>
      <trkpt lat="45.88024" lon="1.17164">
        <ele>426.48</ele>
        <time>2021-07-09T13:19:35Z</time>
      </trkpt>
      <trkpt lat="45.88013" lon="1.1759">
        <ele>422.64</ele>
        <time>2021-07-09T13:19:50Z</time>
      </trkpt>
      <trkpt lat="45.88045" lon="1.17851">
        <ele>411.58</ele>
        <time>2021-07-09T13:20:01Z</time>
      </trkpt>
      <trkpt lat="45.88113" lon="1.18094">
        <ele>400.05</ele>
        <time>2021-07-09T13:20:11Z</time>
      </trkpt>
      <trkpt lat="45.88245" lon="1.185">
        <ele>397.64</ele>
        <time>2021-07-09T13:20:27Z</time>
      </trkpt>
      <trkpt lat="45.88326" lon="1.18871">
        <ele>401.49</ele>
        <time>2021-07-09T13:20:41Z</time>
      </trkpt>
      <trkpt lat="45.88391" lon="1.19296">
        <ele>407.74</ele>
        <time>2021-07-09T13:20:58Z</time>
      </trkpt>
      <trkpt lat="45.88451" lon="1.19707">
        <ele>403.89</ele>
        <time>2021-07-09T13:21:15Z</time>
      </trkpt>
      <trkpt lat="45.88506" lon="1.20071">
        <ele>398.12</ele>
        <time>2021-07-09T13:21:30Z</time>
      </trkpt>
      <trkpt lat="45.88589" lon="1.20632">
        <ele>387.07</ele>
        <time>2021-07-09T13:21:50Z</time>
      </trkpt>
      <trkpt lat="45.8866" lon="1.20942">
        <ele>380.82</ele>
        <time>2021-07-09T13:22:01Z</time>
      </trkpt>
      <trkpt lat="45.8876" lon="1.21157">
        <ele>384.18</ele>
        <time>2021-07-09T13:22:10Z</time>
      </trkpt>
      <trkpt lat="45.88908" lon="1.21341">
        <ele>387.55</ele>
        <time>2021-07-09T13:22:19Z</time>
      </trkpt>
      <trkpt lat="45.89208" lon="1.21614">
        <ele>392.36</ele>
        <time>2021-07-09T13:22:37Z</time>
      </trkpt>
      <trkpt lat="45.89421" lon="1.21807">
        <ele>397.16</ele>
        <time>2021-07-09T13:22:51Z</time>
      </trkpt>
      <trkpt lat="45.89802" lon="1.22148">
        <ele>400.53</ele>
        <time>2021-07-09T13:23:14Z</time>
      </trkpt>
      <trkpt lat="45.89974" lon="1.22327">
        <ele>393.8</ele>
        <time>2021-07-09T13:23:25Z</time>
      </trkpt>
      <trkpt lat="45.90074" lon="1.22516">
        <ele>391.39</ele>
        <time>2021-07-09T13:23:33Z</time>
      </trkpt>
      <trkpt lat="45.90168" lon="1.22798">
        <ele>387.07</ele>
        <time>2021-07-09T13:23:44Z</time>
      </trkpt>
      <trkpt lat="45.90195" lon="1.2299">
        <ele>388.03</ele>
        <time>2021-07-09T13:23:51Z</time>
      </trkpt>
      <trkpt lat="45.90177" lon="1.23165">
        <ele>387.55</ele>
        <time>2021-07-09T13:23:58Z</time>
      </trkpt>
      <trkpt lat="45.90114" lon="1.23367">
        <ele>385.15</ele>
        <time>2021-07-09T13:24:08Z</time>
      </trkpt>
      <trkpt lat="45.90016" lon="1.23606">
        <ele>379.38</ele>
        <time>2021-07-09T13:24:19Z</time>
      </trkpt>
      <trkpt lat="45.89835" lon="1.24066">
        <ele>373.61</ele>
        <time>2021-07-09T13:24:38Z</time>
      </trkpt>
      <trkpt lat="45.89673" lon="1.24479">
        <ele>368.8</ele>
        <time>2021-07-09T13:24:54Z</time>
      </trkpt>
      <trkpt lat="45.89576" lon="1.2467">
        <ele>369.28</ele>
        <time>2021-07-09T13:25:04Z</time>
      </trkpt>
      <trkpt lat="45.89367" lon="1.24946">
        <ele>363.52</ele>
        <time>2021-07-09T13:25:19Z</time>
      </trkpt>
      <trkpt lat="45.89252" lon="1.25132">
        <ele>359.19</ele>
        <time>2021-07-09T13:25:28Z</time>
      </trkpt>
      <trkpt lat="45.89188" lon="1.25335">
        <ele>357.75</ele>
        <time>2021-07-09T13:25:36Z</time>
      </trkpt>
      <trkpt lat="45.89151" lon="1.25625">
        <ele>357.27</ele>
        <time>2021-07-09T13:25:47Z</time>
      </trkpt>
      <trkpt lat="45.89106" lon="1.26072">
        <ele>354.86</ele>
        <time>2021-07-09T13:26:04Z</time>
      </trkpt>
      <trkpt lat="45.89068" lon="1.26428">
        <ele>352.94</ele>
        <time>2021-07-09T13:26:19Z</time>
      </trkpt>
      <trkpt lat="45.89036" lon="1.2675">
        <ele>351.5</ele>
        <time>2021-07-09T13:26:32Z</time>
      </trkpt>
      <trkpt lat="45.89029" lon="1.27064">
        <ele>348.62</ele>
        <time>2021-07-09T13:26:43Z</time>
      </trkpt>
      <trkpt lat="45.89059" lon="1.27461">
        <ele>346.69</ele>
        <time>2021-07-09T13:26:58Z</time>
      </trkpt>
      <trkpt lat="45.89076" lon="1.27677">
        <ele>346.21</ele>
        <time>2021-07-09T13:27:08Z</time>
      </trkpt>
      <trkpt lat="45.89084" lon="1.2777">
        <ele>344.77</ele>
        <time>2021-07-09T13:27:14Z</time>
      </trkpt>
      <trkpt lat="45.89097" lon="1.27927">
        <ele>338.52</ele>
        <time>2021-07-09T13:27:27Z</time>
      </trkpt>
      <trkpt lat="45.89095" lon="1.28012">
        <ele>337.08</ele>
        <time>2021-07-09T13:27:35Z</time>
      </trkpt>
      <trkpt lat="45.89095" lon="1.2802">
        <ele>336.6</ele>
        <time>2021-07-09T13:27:36Z</time>
      </trkpt>
      <trkpt lat="45.8909" lon="1.28028">
        <ele>336.6</ele>
        <time>2021-07-09T13:27:37Z</time>
      </trkpt>
      <trkpt lat="45.89085" lon="1.28036">
        <ele>336.12</ele>
        <time>2021-07-09T13:27:38Z</time>
      </trkpt>
      <trkpt lat="45.8908" lon="1.28043">
        <ele>336.12</ele>
        <time>2021-07-09T13:27:39Z</time>
      </trkpt>
      <trkpt lat="45.89075" lon="1.28053">
        <ele>335.64</ele>
        <time>2021-07-09T13:27:40Z</time>
      </trkpt>
      <trkpt lat="45.89073" lon="1.28064">
        <ele>335.64</ele>
        <time>2021-07-09T13:27:41Z</time>
      </trkpt>
      <trkpt lat="45.89074" lon="1.28075">
        <ele>335.64</ele>
        <time>2021-07-09T13:27:42Z</time>
      </trkpt>
      <trkpt lat="45.89075" lon="1.28086">
        <ele>335.16</ele>
        <time>2021-07-09T13:27:43Z</time>
      </trkpt>
      <trkpt lat="45.89077" lon="1.28095">
        <ele>335.16</ele>
        <time>2021-07-09T13:27:44Z</time>
      </trkpt>
      <trkpt lat="45.89081" lon="1.28106">
        <ele>334.68</ele>
        <time>2021-07-09T13:27:45Z</time>
      </trkpt>
      <trkpt lat="45.89088" lon="1.28112">
        <ele>334.2</ele>
        <time>2021-07-09T13:27:46Z</time>
      </trkpt>
      <trkpt lat="45.89095" lon="1.28118">
        <ele>333.71</ele>
        <time>2021-07-09T13:27:47Z</time>
      </trkpt>
      <trkpt lat="45.891" lon="1.28132">
        <ele>333.23</ele>
        <time>2021-07-09T13:27:48Z</time>
      </trkpt>
      <trkpt lat="45.89104" lon="1.28145">
        <ele>333.23</ele>
        <time>2021-07-09T13:27:49Z</time>
      </trkpt>
      <trkpt lat="45.89108" lon="1.28157">
        <ele>333.23</ele>
        <time>2021-07-09T13:27:50Z</time>
      </trkpt>
      <trkpt lat="45.89112" lon="1.28171">
        <ele>333.23</ele>
        <time>2021-07-09T13:27:51Z</time>
      </trkpt>
      <trkpt lat="45.8913" lon="1.28346">
        <ele>330.35</ele>
        <time>2021-07-09T13:28:00Z</time>
      </trkpt>
      <trkpt lat="45.89155" lon="1.28682">
        <ele>326.5</ele>
        <time>2021-07-09T13:28:13Z</time>
      </trkpt>
      <trkpt lat="45.892" lon="1.28917">
        <ele>329.39</ele>
        <time>2021-07-09T13:28:22Z</time>
      </trkpt>
      <trkpt lat="45.89273" lon="1.29066">
        <ele>331.79</ele>
        <time>2021-07-09T13:28:29Z</time>
      </trkpt>
      <trkpt lat="45.89302" lon="1.29111">
        <ele>332.75</ele>
        <time>2021-07-09T13:28:34Z</time>
      </trkpt>
      <trkpt lat="45.89312" lon="1.29128">
        <ele>333.23</ele>
        <time>2021-07-09T13:28:43Z</time>
      </trkpt>
      <trkpt lat="45.89321" lon="1.29141">
        <ele>333.23</ele>
        <time>2021-07-09T13:28:50Z</time>
      </trkpt>
      <trkpt lat="45.89323" lon="1.29149">
        <ele>334.2</ele>
        <time>2021-07-09T13:28:52Z</time>
      </trkpt>
      <trkpt lat="45.89325" lon="1.29154">
        <ele>334.68</ele>
        <time>2021-07-09T13:28:53Z</time>
      </trkpt>
      <trkpt lat="45.89327" lon="1.29161">
        <ele>334.68</ele>
        <time>2021-07-09T13:28:54Z</time>
      </trkpt>
      <trkpt lat="45.89329" lon="1.29169">
        <ele>335.16</ele>
        <time>2021-07-09T13:28:55Z</time>
      </trkpt>
      <trkpt lat="45.89334" lon="1.29187">
        <ele>335.16</ele>
        <time>2021-07-09T13:28:56Z</time>
      </trkpt>
      <trkpt lat="45.89334" lon="1.29187">
        <ele>335.64</ele>
        <time>2021-07-09T13:28:57Z</time>
      </trkpt>
      <trkpt lat="45.8934" lon="1.29192">
        <ele>335.64</ele>
        <time>2021-07-09T13:28:58Z</time>
      </trkpt>
      <trkpt lat="45.89345" lon="1.29196">
        <ele>335.64</ele>
        <time>2021-07-09T13:28:59Z</time>
      </trkpt>
      <trkpt lat="45.89348" lon="1.29199">
        <ele>335.64</ele>
        <time>2021-07-09T13:29:00Z</time>
      </trkpt>
      <trkpt lat="45.89348" lon="1.29199">
        <ele>335.16</ele>
        <time>2021-07-09T13:29:01Z</time>
      </trkpt>
      <trkpt lat="45.89367" lon="1.2921">
        <ele>335.16</ele>
        <time>2021-07-09T13:29:02Z</time>
      </trkpt>
      <trkpt lat="45.89368" lon="1.29217">
        <ele>335.16</ele>
        <time>2021-07-09T13:29:03Z</time>
      </trkpt>
      <trkpt lat="45.89371" lon="1.29236">
        <ele>335.16</ele>
        <time>2021-07-09T13:29:04Z</time>
      </trkpt>
      <trkpt lat="45.89371" lon="1.29236">
        <ele>334.68</ele>
        <time>2021-07-09T13:29:05Z</time>
      </trkpt>
      <trkpt lat="45.89373" lon="1.29247">
        <ele>334.68</ele>
        <time>2021-07-09T13:29:06Z</time>
      </trkpt>
      <trkpt lat="45.89385" lon="1.29303">
        <ele>335.16</ele>
        <time>2021-07-09T13:29:11Z</time>
      </trkpt>
      <trkpt lat="45.89388" lon="1.29321">
        <ele>335.16</ele>
        <time>2021-07-09T13:29:12Z</time>
      </trkpt>
      <trkpt lat="45.89388" lon="1.29321">
        <ele>335.16</ele>
        <time>2021-07-09T13:29:13Z</time>
      </trkpt>
      <trkpt lat="45.89383" lon="1.29328">
        <ele>335.64</ele>
        <time>2021-07-09T13:29:14Z</time>
      </trkpt>
      <trkpt lat="45.89378" lon="1.29334">
        <ele>335.64</ele>
        <time>2021-07-09T13:29:15Z</time>
      </trkpt>
      <trkpt lat="45.89373" lon="1.29351">
        <ele>336.12</ele>
        <time>2021-07-09T13:29:16Z</time>
      </trkpt>
      <trkpt lat="45.89373" lon="1.2936">
        <ele>336.12</ele>
        <time>2021-07-09T13:29:17Z</time>
      </trkpt>
      <trkpt lat="45.89373" lon="1.29368">
        <ele>336.12</ele>
        <time>2021-07-09T13:29:18Z</time>
      </trkpt>
      <trkpt lat="45.8938" lon="1.29379">
        <ele>336.12</ele>
        <time>2021-07-09T13:29:19Z</time>
      </trkpt>
      <trkpt lat="45.89386" lon="1.2939">
        <ele>336.12</ele>
        <time>2021-07-09T13:29:20Z</time>
      </trkpt>
      <trkpt lat="45.89396" lon="1.29391">
        <ele>336.12</ele>
        <time>2021-07-09T13:29:21Z</time>
      </trkpt>
      <trkpt lat="45.89403" lon="1.29393">
        <ele>335.64</ele>
        <time>2021-07-09T13:29:22Z</time>
      </trkpt>
      <trkpt lat="45.89403" lon="1.29393">
        <ele>335.16</ele>
        <time>2021-07-09T13:29:23Z</time>
      </trkpt>
      <trkpt lat="45.8941" lon="1.29394">
        <ele>333.71</ele>
        <time>2021-07-09T13:29:24Z</time>
      </trkpt>
      <trkpt lat="45.89415" lon="1.29391">
        <ele>333.23</ele>
        <time>2021-07-09T13:29:25Z</time>
      </trkpt>
      <trkpt lat="45.89419" lon="1.29384">
        <ele>332.75</ele>
        <time>2021-07-09T13:29:26Z</time>
      </trkpt>
      <trkpt lat="45.89423" lon="1.29379">
        <ele>332.27</ele>
        <time>2021-07-09T13:29:27Z</time>
      </trkpt>
      <trkpt lat="45.89424" lon="1.29369">
        <ele>331.79</ele>
        <time>2021-07-09T13:29:28Z</time>
      </trkpt>
      <trkpt lat="45.89426" lon="1.2936">
        <ele>331.79</ele>
        <time>2021-07-09T13:29:29Z</time>
      </trkpt>
      <trkpt lat="45.89427" lon="1.2935">
        <ele>331.79</ele>
        <time>2021-07-09T13:29:30Z</time>
      </trkpt>
      <trkpt lat="45.89424" lon="1.29341">
        <ele>331.79</ele>
        <time>2021-07-09T13:29:31Z</time>
      </trkpt>
      <trkpt lat="45.89421" lon="1.29318">
        <ele>331.31</ele>
        <time>2021-07-09T13:29:32Z</time>
      </trkpt>
      <trkpt lat="45.89421" lon="1.29318">
        <ele>331.31</ele>
        <time>2021-07-09T13:29:33Z</time>
      </trkpt>
      <trkpt lat="45.89424" lon="1.29309">
        <ele>330.83</ele>
        <time>2021-07-09T13:29:34Z</time>
      </trkpt>
      <trkpt lat="45.89429" lon="1.29298">
        <ele>330.35</ele>
        <time>2021-07-09T13:29:35Z</time>
      </trkpt>
      <trkpt lat="45.89436" lon="1.29293">
        <ele>330.35</ele>
        <time>2021-07-09T13:29:36Z</time>
      </trkpt>
      <trkpt lat="45.89445" lon="1.29289">
        <ele>329.87</ele>
        <time>2021-07-09T13:29:37Z</time>
      </trkpt>
      <trkpt lat="45.89455" lon="1.29287">
        <ele>328.91</ele>
        <time>2021-07-09T13:29:38Z</time>
      </trkpt>
      <trkpt lat="45.89559" lon="1.29269">
        <ele>322.66</ele>
        <time>2021-07-09T13:29:45Z</time>
      </trkpt>
      <trkpt lat="45.89779" lon="1.29233">
        <ele>321.7</ele>
        <time>2021-07-09T13:29:56Z</time>
      </trkpt>
      <trkpt lat="45.90082" lon="1.29212">
        <ele>320.26</ele>
        <time>2021-07-09T13:30:09Z</time>
      </trkpt>
      <trkpt lat="45.90392" lon="1.29192">
        <ele>323.62</ele>
        <time>2021-07-09T13:30:22Z</time>
      </trkpt>
      <trkpt lat="45.90806" lon="1.29183">
        <ele>332.75</ele>
        <time>2021-07-09T13:30:38Z</time>
      </trkpt>
      <trkpt lat="45.91087" lon="1.29236">
        <ele>339.48</ele>
        <time>2021-07-09T13:30:49Z</time>
      </trkpt>
      <trkpt lat="45.91439" lon="1.29398">
        <ele>348.13</ele>
        <time>2021-07-09T13:31:03Z</time>
      </trkpt>
      <trkpt lat="45.91733" lon="1.29611">
        <ele>353.9</ele>
        <time>2021-07-09T13:31:15Z</time>
      </trkpt>
      <trkpt lat="45.92254" lon="1.3004">
        <ele>347.65</ele>
        <time>2021-07-09T13:31:37Z</time>
      </trkpt>
      <trkpt lat="45.92569" lon="1.30278">
        <ele>341.41</ele>
        <time>2021-07-09T13:31:50Z</time>
      </trkpt>
      <trkpt lat="45.92782" lon="1.30351">
        <ele>346.69</ele>
        <time>2021-07-09T13:31:57Z</time>
      </trkpt>
      <trkpt lat="45.92965" lon="1.30348">
        <ele>354.38</ele>
        <time>2021-07-09T13:32:05Z</time>
      </trkpt>
      <trkpt lat="45.93246" lon="1.30326">
        <ele>365.92</ele>
        <time>2021-07-09T13:32:16Z</time>
      </trkpt>
      <trkpt lat="45.93447" lon="1.30385">
        <ele>372.17</ele>
        <time>2021-07-09T13:32:24Z</time>
      </trkpt>
      <trkpt lat="45.93678" lon="1.30448">
        <ele>380.82</ele>
        <time>2021-07-09T13:32:33Z</time>
      </trkpt>
      <trkpt lat="45.93911" lon="1.30506">
        <ele>387.55</ele>
        <time>2021-07-09T13:32:42Z</time>
      </trkpt>
      <trkpt lat="45.94105" lon="1.30634">
        <ele>396.2</ele>
        <time>2021-07-09T13:32:50Z</time>
      </trkpt>
      <trkpt lat="45.94289" lon="1.30839">
        <ele>397.16</ele>
        <time>2021-07-09T13:32:59Z</time>
      </trkpt>
      <trkpt lat="45.94569" lon="1.31186">
        <ele>403.89</ele>
        <time>2021-07-09T13:33:13Z</time>
      </trkpt>
      <trkpt lat="45.94781" lon="1.31422">
        <ele>417.83</ele>
        <time>2021-07-09T13:33:24Z</time>
      </trkpt>
      <trkpt lat="45.94952" lon="1.31513">
        <ele>426.96</ele>
        <time>2021-07-09T13:33:32Z</time>
      </trkpt>
      <trkpt lat="45.95224" lon="1.3159">
        <ele>437.06</ele>
        <time>2021-07-09T13:33:44Z</time>
      </trkpt>
      <trkpt lat="45.95432" lon="1.31696">
        <ele>441.38</ele>
        <time>2021-07-09T13:33:53Z</time>
      </trkpt>
      <trkpt lat="45.95685" lon="1.31853">
        <ele>438.98</ele>
        <time>2021-07-09T13:34:04Z</time>
      </trkpt>
      <trkpt lat="45.95885" lon="1.31874">
        <ele>436.1</ele>
        <time>2021-07-09T13:34:11Z</time>
      </trkpt>
      <trkpt lat="45.96114" lon="1.31846">
        <ele>434.17</ele>
        <time>2021-07-09T13:34:21Z</time>
      </trkpt>
      <trkpt lat="45.96351" lon="1.31875">
        <ele>435.61</ele>
        <time>2021-07-09T13:34:30Z</time>
      </trkpt>
      <trkpt lat="45.96664" lon="1.31989">
        <ele>438.5</ele>
        <time>2021-07-09T13:34:42Z</time>
      </trkpt>
      <trkpt lat="45.96925" lon="1.32082">
        <ele>433.69</ele>
        <time>2021-07-09T13:34:52Z</time>
      </trkpt>
      <trkpt lat="45.97245" lon="1.32129">
        <ele>425.52</ele>
        <time>2021-07-09T13:35:04Z</time>
      </trkpt>
      <trkpt lat="45.97451" lon="1.3223">
        <ele>421.19</ele>
        <time>2021-07-09T13:35:12Z</time>
      </trkpt>
      <trkpt lat="45.97762" lon="1.32481">
        <ele>419.75</ele>
        <time>2021-07-09T13:35:25Z</time>
      </trkpt>
      <trkpt lat="45.97961" lon="1.32587">
        <ele>416.87</ele>
        <time>2021-07-09T13:35:33Z</time>
      </trkpt>
      <trkpt lat="45.98171" lon="1.32629">
        <ele>416.39</ele>
        <time>2021-07-09T13:35:41Z</time>
      </trkpt>
      <trkpt lat="45.98381" lon="1.32598">
        <ele>416.87</ele>
        <time>2021-07-09T13:35:49Z</time>
      </trkpt>
      <trkpt lat="45.98711" lon="1.325">
        <ele>415.91</ele>
        <time>2021-07-09T13:36:02Z</time>
      </trkpt>
      <trkpt lat="45.98889" lon="1.32521">
        <ele>416.39</ele>
        <time>2021-07-09T13:36:09Z</time>
      </trkpt>
      <trkpt lat="45.99049" lon="1.3263">
        <ele>424.08</ele>
        <time>2021-07-09T13:36:16Z</time>
      </trkpt>
      <trkpt lat="45.99183" lon="1.3283">
        <ele>427.92</ele>
        <time>2021-07-09T13:36:23Z</time>
      </trkpt>
      <trkpt lat="45.99238" lon="1.3301">
        <ele>434.17</ele>
        <time>2021-07-09T13:36:30Z</time>
      </trkpt>
      <trkpt lat="45.99304" lon="1.33324">
        <ele>436.58</ele>
        <time>2021-07-09T13:36:39Z</time>
      </trkpt>
      <trkpt lat="45.99396" lon="1.33502">
        <ele>433.21</ele>
        <time>2021-07-09T13:36:45Z</time>
      </trkpt>
      <trkpt lat="45.99527" lon="1.33625">
        <ele>432.25</ele>
        <time>2021-07-09T13:36:51Z</time>
      </trkpt>
      <trkpt lat="45.9984" lon="1.33813">
        <ele>432.73</ele>
        <time>2021-07-09T13:37:04Z</time>
      </trkpt>
      <trkpt lat="45.99991" lon="1.33844">
        <ele>435.13</ele>
        <time>2021-07-09T13:37:10Z</time>
      </trkpt>
      <trkpt lat="46.00277" lon="1.33818">
        <ele>439.94</ele>
        <time>2021-07-09T13:37:21Z</time>
      </trkpt>
      <trkpt lat="46.00666" lon="1.33782">
        <ele>435.61</ele>
        <time>2021-07-09T13:37:36Z</time>
      </trkpt>
      <trkpt lat="46.00876" lon="1.33829">
        <ele>427.92</ele>
        <time>2021-07-09T13:37:44Z</time>
      </trkpt>
      <trkpt lat="46.01145" lon="1.33897">
        <ele>421.19</ele>
        <time>2021-07-09T13:37:54Z</time>
      </trkpt>
      <trkpt lat="46.01394" lon="1.33878">
        <ele>418.31</ele>
        <time>2021-07-09T13:38:03Z</time>
      </trkpt>
      <trkpt lat="46.01611" lon="1.33913">
        <ele>419.27</ele>
        <time>2021-07-09T13:38:11Z</time>
      </trkpt>
      <trkpt lat="46.01819" lon="1.34025">
        <ele>421.19</ele>
        <time>2021-07-09T13:38:19Z</time>
      </trkpt>
      <trkpt lat="46.0244" lon="1.34451">
        <ele>435.13</ele>
        <time>2021-07-09T13:38:44Z</time>
      </trkpt>
      <trkpt lat="46.02713" lon="1.34609">
        <ele>430.33</ele>
        <time>2021-07-09T13:38:55Z</time>
      </trkpt>
      <trkpt lat="46.0297" lon="1.34766">
        <ele>414.47</ele>
        <time>2021-07-09T13:39:05Z</time>
      </trkpt>
      <trkpt lat="46.03281" lon="1.3495">
        <ele>402.45</ele>
        <time>2021-07-09T13:39:17Z</time>
      </trkpt>
      <trkpt lat="46.03446" lon="1.34971">
        <ele>397.16</ele>
        <time>2021-07-09T13:39:23Z</time>
      </trkpt>
      <trkpt lat="46.03775" lon="1.34946">
        <ele>387.07</ele>
        <time>2021-07-09T13:39:35Z</time>
      </trkpt>
      <trkpt lat="46.03963" lon="1.34993">
        <ele>385.63</ele>
        <time>2021-07-09T13:39:42Z</time>
      </trkpt>
      <trkpt lat="46.04153" lon="1.35118">
        <ele>391.39</ele>
        <time>2021-07-09T13:39:50Z</time>
      </trkpt>
      <trkpt lat="46.04418" lon="1.35377">
        <ele>407.26</ele>
        <time>2021-07-09T13:40:02Z</time>
      </trkpt>
      <trkpt lat="46.04585" lon="1.35493">
        <ele>417.83</ele>
        <time>2021-07-09T13:40:11Z</time>
      </trkpt>
      <trkpt lat="46.04841" lon="1.35615">
        <ele>434.17</ele>
        <time>2021-07-09T13:40:23Z</time>
      </trkpt>
      <trkpt lat="46.05061" lon="1.35766">
        <ele>448.59</ele>
        <time>2021-07-09T13:40:34Z</time>
      </trkpt>
      <trkpt lat="46.0523" lon="1.35845">
        <ele>459.17</ele>
        <time>2021-07-09T13:40:43Z</time>
      </trkpt>
      <trkpt lat="46.05519" lon="1.35934">
        <ele>474.07</ele>
        <time>2021-07-09T13:40:57Z</time>
      </trkpt>
      <trkpt lat="46.05744" lon="1.3604">
        <ele>477.91</ele>
        <time>2021-07-09T13:41:08Z</time>
      </trkpt>
      <trkpt lat="46.05934" lon="1.36087">
        <ele>472.63</ele>
        <time>2021-07-09T13:41:17Z</time>
      </trkpt>
      <trkpt lat="46.06226" lon="1.36114">
        <ele>458.21</ele>
        <time>2021-07-09T13:41:28Z</time>
      </trkpt>
      <trkpt lat="46.06621" lon="1.36117">
        <ele>428.4</ele>
        <time>2021-07-09T13:41:42Z</time>
      </trkpt>
      <trkpt lat="46.06935" lon="1.36072">
        <ele>405.81</ele>
        <time>2021-07-09T13:41:53Z</time>
      </trkpt>
      <trkpt lat="46.07272" lon="1.35963">
        <ele>390.43</ele>
        <time>2021-07-09T13:42:05Z</time>
      </trkpt>
      <trkpt lat="46.07672" lon="1.35819">
        <ele>407.74</ele>
        <time>2021-07-09T13:42:20Z</time>
      </trkpt>
      <trkpt lat="46.08141" lon="1.35659">
        <ele>429.85</ele>
        <time>2021-07-09T13:42:39Z</time>
      </trkpt>
      <trkpt lat="46.08318" lon="1.35674">
        <ele>428.4</ele>
        <time>2021-07-09T13:42:46Z</time>
      </trkpt>
      <trkpt lat="46.08469" lon="1.35758">
        <ele>426.96</ele>
        <time>2021-07-09T13:42:52Z</time>
      </trkpt>
      <trkpt lat="46.08623" lon="1.35936">
        <ele>416.87</ele>
        <time>2021-07-09T13:42:59Z</time>
      </trkpt>
      <trkpt lat="46.08798" lon="1.36136">
        <ele>406.29</ele>
        <time>2021-07-09T13:43:07Z</time>
      </trkpt>
      <trkpt lat="46.08979" lon="1.3623">
        <ele>393.8</ele>
        <time>2021-07-09T13:43:14Z</time>
      </trkpt>
      <trkpt lat="46.09289" lon="1.36277">
        <ele>378.9</ele>
        <time>2021-07-09T13:43:24Z</time>
      </trkpt>
      <trkpt lat="46.09679" lon="1.36341">
        <ele>360.15</ele>
        <time>2021-07-09T13:43:39Z</time>
      </trkpt>
      <trkpt lat="46.09895" lon="1.36437">
        <ele>351.02</ele>
        <time>2021-07-09T13:43:47Z</time>
      </trkpt>
      <trkpt lat="46.10118" lon="1.36612">
        <ele>342.37</ele>
        <time>2021-07-09T13:43:56Z</time>
      </trkpt>
      <trkpt lat="46.10328" lon="1.36867">
        <ele>334.68</ele>
        <time>2021-07-09T13:44:06Z</time>
      </trkpt>
      <trkpt lat="46.1059" lon="1.37173">
        <ele>326.5</ele>
        <time>2021-07-09T13:44:18Z</time>
      </trkpt>
      <trkpt lat="46.10827" lon="1.37365">
        <ele>315.45</ele>
        <time>2021-07-09T13:44:28Z</time>
      </trkpt>
      <trkpt lat="46.11108" lon="1.37528">
        <ele>300.07</ele>
        <time>2021-07-09T13:44:39Z</time>
      </trkpt>
      <trkpt lat="46.11301" lon="1.37564">
        <ele>286.13</ele>
        <time>2021-07-09T13:44:46Z</time>
      </trkpt>
      <trkpt lat="46.11662" lon="1.37537">
        <ele>285.17</ele>
        <time>2021-07-09T13:44:59Z</time>
      </trkpt>
      <trkpt lat="46.11935" lon="1.37548">
        <ele>290.94</ele>
        <time>2021-07-09T13:45:09Z</time>
      </trkpt>
      <trkpt lat="46.12111" lon="1.37624">
        <ele>301.51</ele>
        <time>2021-07-09T13:45:16Z</time>
      </trkpt>
      <trkpt lat="46.12287" lon="1.37773">
        <ele>311.6</ele>
        <time>2021-07-09T13:45:24Z</time>
      </trkpt>
      <trkpt lat="46.12528" lon="1.38031">
        <ele>322.18</ele>
        <time>2021-07-09T13:45:36Z</time>
      </trkpt>
      <trkpt lat="46.12715" lon="1.38146">
        <ele>328.91</ele>
        <time>2021-07-09T13:45:44Z</time>
      </trkpt>
      <trkpt lat="46.12923" lon="1.38187">
        <ele>330.35</ele>
        <time>2021-07-09T13:45:52Z</time>
      </trkpt>
      <trkpt lat="46.13162" lon="1.38152">
        <ele>339</ele>
        <time>2021-07-09T13:46:01Z</time>
      </trkpt>
      <trkpt lat="46.13532" lon="1.38043">
        <ele>332.75</ele>
        <time>2021-07-09T13:46:15Z</time>
      </trkpt>
      <trkpt lat="46.1373" lon="1.37912">
        <ele>324.58</ele>
        <time>2021-07-09T13:46:23Z</time>
      </trkpt>
      <trkpt lat="46.13953" lon="1.3775">
        <ele>316.89</ele>
        <time>2021-07-09T13:46:32Z</time>
      </trkpt>
      <trkpt lat="46.14147" lon="1.37683">
        <ele>311.12</ele>
        <time>2021-07-09T13:46:39Z</time>
      </trkpt>
      <trkpt lat="46.14376" lon="1.37681">
        <ele>309.68</ele>
        <time>2021-07-09T13:46:47Z</time>
      </trkpt>
      <trkpt lat="46.14768" lon="1.37754">
        <ele>312.57</ele>
        <time>2021-07-09T13:47:01Z</time>
      </trkpt>
      <trkpt lat="46.15158" lon="1.37789">
        <ele>307.76</ele>
        <time>2021-07-09T13:47:14Z</time>
      </trkpt>
      <trkpt lat="46.15372" lon="1.37748">
        <ele>304.39</ele>
        <time>2021-07-09T13:47:23Z</time>
      </trkpt>
      <trkpt lat="46.1574" lon="1.37672">
        <ele>289.97</ele>
        <time>2021-07-09T13:47:36Z</time>
      </trkpt>
      <trkpt lat="46.16061" lon="1.37683">
        <ele>280.84</ele>
        <time>2021-07-09T13:47:47Z</time>
      </trkpt>
      <trkpt lat="46.16455" lon="1.37707">
        <ele>289.49</ele>
        <time>2021-07-09T13:48:01Z</time>
      </trkpt>
      <trkpt lat="46.16876" lon="1.37688">
        <ele>293.34</ele>
        <time>2021-07-09T13:48:16Z</time>
      </trkpt>
      <trkpt lat="46.17219" lon="1.3769">
        <ele>296.7</ele>
        <time>2021-07-09T13:48:28Z</time>
      </trkpt>
      <trkpt lat="46.175" lon="1.37757">
        <ele>301.51</ele>
        <time>2021-07-09T13:48:38Z</time>
      </trkpt>
      <trkpt lat="46.17877" lon="1.37902">
        <ele>312.09</ele>
        <time>2021-07-09T13:48:52Z</time>
      </trkpt>
      <trkpt lat="46.18509" lon="1.38145">
        <ele>329.87</ele>
        <time>2021-07-09T13:49:15Z</time>
      </trkpt>
      <trkpt lat="46.18879" lon="1.3824">
        <ele>338.52</ele>
        <time>2021-07-09T13:49:28Z</time>
      </trkpt>
      <trkpt lat="46.19244" lon="1.38264">
        <ele>347.65</ele>
        <time>2021-07-09T13:49:41Z</time>
      </trkpt>
      <trkpt lat="46.19527" lon="1.3826">
        <ele>355.83</ele>
        <time>2021-07-09T13:49:52Z</time>
      </trkpt>
      <trkpt lat="46.19752" lon="1.38301">
        <ele>359.19</ele>
        <time>2021-07-09T13:50:02Z</time>
      </trkpt>
      <trkpt lat="46.19984" lon="1.38419">
        <ele>351.5</ele>
        <time>2021-07-09T13:50:13Z</time>
      </trkpt>
      <trkpt lat="46.20164" lon="1.38548">
        <ele>360.63</ele>
        <time>2021-07-09T13:50:22Z</time>
      </trkpt>
      <trkpt lat="46.20286" lon="1.38715">
        <ele>362.07</ele>
        <time>2021-07-09T13:50:30Z</time>
      </trkpt>
      <trkpt lat="46.20395" lon="1.38958">
        <ele>364</ele>
        <time>2021-07-09T13:50:39Z</time>
      </trkpt>
      <trkpt lat="46.20566" lon="1.39347">
        <ele>371.21</ele>
        <time>2021-07-09T13:50:52Z</time>
      </trkpt>
      <trkpt lat="46.2078" lon="1.39734">
        <ele>361.59</ele>
        <time>2021-07-09T13:51:05Z</time>
      </trkpt>
      <trkpt lat="46.20944" lon="1.40063">
        <ele>359.19</ele>
        <time>2021-07-09T13:51:15Z</time>
      </trkpt>
      <trkpt lat="46.21275" lon="1.40773">
        <ele>364.96</ele>
        <time>2021-07-09T13:51:36Z</time>
      </trkpt>
      <trkpt lat="46.21473" lon="1.41203">
        <ele>375.05</ele>
        <time>2021-07-09T13:51:49Z</time>
      </trkpt>
      <trkpt lat="46.21582" lon="1.41548">
        <ele>378.42</ele>
        <time>2021-07-09T13:51:59Z</time>
      </trkpt>
      <trkpt lat="46.21701" lon="1.42025">
        <ele>375.53</ele>
        <time>2021-07-09T13:52:12Z</time>
      </trkpt>
      <trkpt lat="46.21744" lon="1.4234">
        <ele>370.73</ele>
        <time>2021-07-09T13:52:20Z</time>
      </trkpt>
      <trkpt lat="46.21746" lon="1.42664">
        <ele>364</ele>
        <time>2021-07-09T13:52:28Z</time>
      </trkpt>
      <trkpt lat="46.21699" lon="1.4303">
        <ele>358.71</ele>
        <time>2021-07-09T13:52:37Z</time>
      </trkpt>
      <trkpt lat="46.21563" lon="1.43874">
        <ele>363.52</ele>
        <time>2021-07-09T13:52:57Z</time>
      </trkpt>
      <trkpt lat="46.21566" lon="1.44119">
        <ele>366.4</ele>
        <time>2021-07-09T13:53:04Z</time>
      </trkpt>
      <trkpt lat="46.21626" lon="1.44435">
        <ele>370.24</ele>
        <time>2021-07-09T13:53:12Z</time>
      </trkpt>
      <trkpt lat="46.2177" lon="1.45022">
        <ele>371.69</ele>
        <time>2021-07-09T13:53:27Z</time>
      </trkpt>
      <trkpt lat="46.21901" lon="1.45301">
        <ele>373.13</ele>
        <time>2021-07-09T13:53:35Z</time>
      </trkpt>
      <trkpt lat="46.22077" lon="1.45529">
        <ele>373.13</ele>
        <time>2021-07-09T13:53:42Z</time>
      </trkpt>
      <trkpt lat="46.22352" lon="1.45825">
        <ele>379.86</ele>
        <time>2021-07-09T13:53:55Z</time>
      </trkpt>
      <trkpt lat="46.22464" lon="1.46043">
        <ele>386.59</ele>
        <time>2021-07-09T13:54:02Z</time>
      </trkpt>
      <trkpt lat="46.22546" lon="1.46341">
        <ele>385.63</ele>
        <time>2021-07-09T13:54:10Z</time>
      </trkpt>
      <trkpt lat="46.22627" lon="1.46859">
        <ele>385.15</ele>
        <time>2021-07-09T13:54:23Z</time>
      </trkpt>
      <trkpt lat="46.22641" lon="1.47226">
        <ele>382.74</ele>
        <time>2021-07-09T13:54:31Z</time>
      </trkpt>
      <trkpt lat="46.22618" lon="1.47578">
        <ele>376.97</ele>
        <time>2021-07-09T13:54:41Z</time>
      </trkpt>
      <trkpt lat="46.22543" lon="1.4784">
        <ele>376.49</ele>
        <time>2021-07-09T13:54:48Z</time>
      </trkpt>
      <trkpt lat="46.22325" lon="1.48512">
        <ele>384.66</ele>
        <time>2021-07-09T13:55:06Z</time>
      </trkpt>
      <trkpt lat="46.22287" lon="1.48841">
        <ele>385.63</ele>
        <time>2021-07-09T13:55:13Z</time>
      </trkpt>
      <trkpt lat="46.22303" lon="1.49135">
        <ele>387.07</ele>
        <time>2021-07-09T13:55:21Z</time>
      </trkpt>
      <trkpt lat="46.22374" lon="1.49454">
        <ele>384.18</ele>
        <time>2021-07-09T13:55:29Z</time>
      </trkpt>
      <trkpt lat="46.22524" lon="1.49819">
        <ele>374.57</ele>
        <time>2021-07-09T13:55:39Z</time>
      </trkpt>
      <trkpt lat="46.22824" lon="1.50513">
        <ele>376.97</ele>
        <time>2021-07-09T13:55:58Z</time>
      </trkpt>
      <trkpt lat="46.23024" lon="1.50827">
        <ele>380.82</ele>
        <time>2021-07-09T13:56:07Z</time>
      </trkpt>
      <trkpt lat="46.23295" lon="1.51214">
        <ele>392.36</ele>
        <time>2021-07-09T13:56:21Z</time>
      </trkpt>
      <trkpt lat="46.23511" lon="1.51507">
        <ele>396.68</ele>
        <time>2021-07-09T13:56:31Z</time>
      </trkpt>
      <trkpt lat="46.23665" lon="1.51819">
        <ele>399.57</ele>
        <time>2021-07-09T13:56:40Z</time>
      </trkpt>
      <trkpt lat="46.23775" lon="1.52167">
        <ele>405.81</ele>
        <time>2021-07-09T13:56:49Z</time>
      </trkpt>
      <trkpt lat="46.23854" lon="1.52576">
        <ele>409.18</ele>
        <time>2021-07-09T13:56:59Z</time>
      </trkpt>
      <trkpt lat="46.23858" lon="1.52916">
        <ele>413.5</ele>
        <time>2021-07-09T13:57:07Z</time>
      </trkpt>
      <trkpt lat="46.23805" lon="1.53241">
        <ele>419.27</ele>
        <time>2021-07-09T13:57:15Z</time>
      </trkpt>
      <trkpt lat="46.23682" lon="1.53756">
        <ele>422.16</ele>
        <time>2021-07-09T13:57:28Z</time>
      </trkpt>
      <trkpt lat="46.23533" lon="1.54066">
        <ele>432.73</ele>
        <time>2021-07-09T13:57:37Z</time>
      </trkpt>
      <trkpt lat="46.23416" lon="1.54358">
        <ele>433.21</ele>
        <time>2021-07-09T13:57:45Z</time>
      </trkpt>
      <trkpt lat="46.23279" lon="1.547">
        <ele>431.77</ele>
        <time>2021-07-09T13:57:54Z</time>
      </trkpt>
      <trkpt lat="46.2313" lon="1.54914">
        <ele>431.29</ele>
        <time>2021-07-09T13:58:01Z</time>
      </trkpt>
      <trkpt lat="46.22923" lon="1.55084">
        <ele>434.17</ele>
        <time>2021-07-09T13:58:09Z</time>
      </trkpt>
      <trkpt lat="46.22754" lon="1.55248">
        <ele>435.61</ele>
        <time>2021-07-09T13:58:16Z</time>
      </trkpt>
      <trkpt lat="46.22636" lon="1.55444">
        <ele>431.29</ele>
        <time>2021-07-09T13:58:22Z</time>
      </trkpt>
      <trkpt lat="46.22546" lon="1.55722">
        <ele>428.89</ele>
        <time>2021-07-09T13:58:28Z</time>
      </trkpt>
      <trkpt lat="46.22437" lon="1.56284">
        <ele>423.12</ele>
        <time>2021-07-09T13:58:42Z</time>
      </trkpt>
      <trkpt lat="46.22309" lon="1.5703">
        <ele>415.43</ele>
        <time>2021-07-09T13:58:59Z</time>
      </trkpt>
      <trkpt lat="46.22293" lon="1.57533">
        <ele>409.66</ele>
        <time>2021-07-09T13:59:09Z</time>
      </trkpt>
      <trkpt lat="46.22271" lon="1.57941">
        <ele>406.29</ele>
        <time>2021-07-09T13:59:19Z</time>
      </trkpt>
      <trkpt lat="46.22203" lon="1.5837">
        <ele>414.95</ele>
        <time>2021-07-09T13:59:29Z</time>
      </trkpt>
      <trkpt lat="46.22117" lon="1.58838">
        <ele>416.39</ele>
        <time>2021-07-09T13:59:40Z</time>
      </trkpt>
      <trkpt lat="46.22086" lon="1.59322">
        <ele>411.1</ele>
        <time>2021-07-09T13:59:51Z</time>
      </trkpt>
      <trkpt lat="46.2211" lon="1.59674">
        <ele>405.33</ele>
        <time>2021-07-09T13:59:59Z</time>
      </trkpt>
      <trkpt lat="46.22205" lon="1.6045">
        <ele>409.66</ele>
        <time>2021-07-09T14:00:17Z</time>
      </trkpt>
      <trkpt lat="46.22245" lon="1.60906">
        <ele>418.31</ele>
        <time>2021-07-09T14:00:28Z</time>
      </trkpt>
      <trkpt lat="46.22216" lon="1.61193">
        <ele>426.96</ele>
        <time>2021-07-09T14:00:35Z</time>
      </trkpt>
      <trkpt lat="46.22131" lon="1.61544">
        <ele>433.21</ele>
        <time>2021-07-09T14:00:44Z</time>
      </trkpt>
      <trkpt lat="46.21907" lon="1.6234">
        <ele>426.96</ele>
        <time>2021-07-09T14:01:04Z</time>
      </trkpt>
      <trkpt lat="46.21666" lon="1.63065">
        <ele>404.37</ele>
        <time>2021-07-09T14:01:21Z</time>
      </trkpt>
      <trkpt lat="46.21462" lon="1.63684">
        <ele>401.49</ele>
        <time>2021-07-09T14:01:37Z</time>
      </trkpt>
      <trkpt lat="46.21412" lon="1.6392">
        <ele>401.97</ele>
        <time>2021-07-09T14:01:44Z</time>
      </trkpt>
      <trkpt lat="46.21409" lon="1.64171">
        <ele>401.49</ele>
        <time>2021-07-09T14:01:50Z</time>
      </trkpt>
      <trkpt lat="46.21463" lon="1.64457">
        <ele>401.97</ele>
        <time>2021-07-09T14:01:57Z</time>
      </trkpt>
      <trkpt lat="46.21668" lon="1.65306">
        <ele>397.16</ele>
        <time>2021-07-09T14:02:18Z</time>
      </trkpt>
      <trkpt lat="46.21771" lon="1.65602">
        <ele>407.74</ele>
        <time>2021-07-09T14:02:25Z</time>
      </trkpt>
      <trkpt lat="46.2189" lon="1.65777">
        <ele>417.35</ele>
        <time>2021-07-09T14:02:32Z</time>
      </trkpt>
      <trkpt lat="46.22032" lon="1.66013">
        <ele>429.85</ele>
        <time>2021-07-09T14:02:40Z</time>
      </trkpt>
      <trkpt lat="46.22099" lon="1.66264">
        <ele>432.73</ele>
        <time>2021-07-09T14:02:47Z</time>
      </trkpt>
      <trkpt lat="46.22202" lon="1.66804">
        <ele>436.58</ele>
        <time>2021-07-09T14:03:00Z</time>
      </trkpt>
      <trkpt lat="46.22251" lon="1.67323">
        <ele>434.17</ele>
        <time>2021-07-09T14:03:14Z</time>
      </trkpt>
      <trkpt lat="46.2222" lon="1.67821">
        <ele>431.77</ele>
        <time>2021-07-09T14:03:26Z</time>
      </trkpt>
      <trkpt lat="46.22162" lon="1.68486">
        <ele>443.31</ele>
        <time>2021-07-09T14:03:42Z</time>
      </trkpt>
      <trkpt lat="46.22111" lon="1.68928">
        <ele>456.28</ele>
        <time>2021-07-09T14:03:53Z</time>
      </trkpt>
      <trkpt lat="46.22092" lon="1.69249">
        <ele>460.61</ele>
        <time>2021-07-09T14:04:01Z</time>
      </trkpt>
      <trkpt lat="46.22118" lon="1.69627">
        <ele>455.32</ele>
        <time>2021-07-09T14:04:10Z</time>
      </trkpt>
      <trkpt lat="46.22122" lon="1.69866">
        <ele>451</ele>
        <time>2021-07-09T14:04:16Z</time>
      </trkpt>
      <trkpt lat="46.22052" lon="1.70133">
        <ele>447.15</ele>
        <time>2021-07-09T14:04:22Z</time>
      </trkpt>
      <trkpt lat="46.21869" lon="1.70646">
        <ele>438.5</ele>
        <time>2021-07-09T14:04:37Z</time>
      </trkpt>
      <trkpt lat="46.21709" lon="1.71109">
        <ele>441.86</ele>
        <time>2021-07-09T14:04:51Z</time>
      </trkpt>
      <trkpt lat="46.21677" lon="1.71352">
        <ele>451</ele>
        <time>2021-07-09T14:04:58Z</time>
      </trkpt>
      <trkpt lat="46.21688" lon="1.71672">
        <ele>457.24</ele>
        <time>2021-07-09T14:05:06Z</time>
      </trkpt>
      <trkpt lat="46.21662" lon="1.71921">
        <ele>455.32</ele>
        <time>2021-07-09T14:05:13Z</time>
      </trkpt>
      <trkpt lat="46.21586" lon="1.72428">
        <ele>443.31</ele>
        <time>2021-07-09T14:05:28Z</time>
      </trkpt>
      <trkpt lat="46.21552" lon="1.72902">
        <ele>446.19</ele>
        <time>2021-07-09T14:05:40Z</time>
      </trkpt>
      <trkpt lat="46.21513" lon="1.73325">
        <ele>458.69</ele>
        <time>2021-07-09T14:05:51Z</time>
      </trkpt>
      <trkpt lat="46.21426" lon="1.73687">
        <ele>465.42</ele>
        <time>2021-07-09T14:06:01Z</time>
      </trkpt>
      <trkpt lat="46.21254" lon="1.74331">
        <ele>464.93</ele>
        <time>2021-07-09T14:06:17Z</time>
      </trkpt>
      <trkpt lat="46.21167" lon="1.74541">
        <ele>459.65</ele>
        <time>2021-07-09T14:06:24Z</time>
      </trkpt>
      <trkpt lat="46.21043" lon="1.74708">
        <ele>456.76</ele>
        <time>2021-07-09T14:06:30Z</time>
      </trkpt>
      <trkpt lat="46.2082" lon="1.74885">
        <ele>455.32</ele>
        <time>2021-07-09T14:06:38Z</time>
      </trkpt>
      <trkpt lat="46.20657" lon="1.74949">
        <ele>453.88</ele>
        <time>2021-07-09T14:06:44Z</time>
      </trkpt>
      <trkpt lat="46.204" lon="1.74997">
        <ele>451.48</ele>
        <time>2021-07-09T14:06:54Z</time>
      </trkpt>
      <trkpt lat="46.20236" lon="1.75068">
        <ele>456.28</ele>
        <time>2021-07-09T14:07:00Z</time>
      </trkpt>
      <trkpt lat="46.20073" lon="1.7522">
        <ele>459.65</ele>
        <time>2021-07-09T14:07:07Z</time>
      </trkpt>
      <trkpt lat="46.19944" lon="1.7544">
        <ele>457.24</ele>
        <time>2021-07-09T14:07:14Z</time>
      </trkpt>
      <trkpt lat="46.19863" lon="1.757">
        <ele>455.32</ele>
        <time>2021-07-09T14:07:21Z</time>
      </trkpt>
      <trkpt lat="46.19768" lon="1.76275">
        <ele>465.42</ele>
        <time>2021-07-09T14:07:35Z</time>
      </trkpt>
      <trkpt lat="46.19675" lon="1.76842">
        <ele>489.45</ele>
        <time>2021-07-09T14:07:50Z</time>
      </trkpt>
      <trkpt lat="46.19649" lon="1.77132">
        <ele>497.62</ele>
        <time>2021-07-09T14:07:58Z</time>
      </trkpt>
      <trkpt lat="46.1968" lon="1.77394">
        <ele>501.46</ele>
        <time>2021-07-09T14:08:05Z</time>
      </trkpt>
      <trkpt lat="46.19755" lon="1.77686">
        <ele>500.98</ele>
        <time>2021-07-09T14:08:13Z</time>
      </trkpt>
      <trkpt lat="46.19771" lon="1.77968">
        <ele>495.7</ele>
        <time>2021-07-09T14:08:19Z</time>
      </trkpt>
      <trkpt lat="46.19738" lon="1.78216">
        <ele>488.49</ele>
        <time>2021-07-09T14:08:26Z</time>
      </trkpt>
      <trkpt lat="46.1962" lon="1.78831">
        <ele>486.56</ele>
        <time>2021-07-09T14:08:41Z</time>
      </trkpt>
      <trkpt lat="46.19393" lon="1.79709">
        <ele>491.85</ele>
        <time>2021-07-09T14:09:03Z</time>
      </trkpt>
      <trkpt lat="46.19164" lon="1.80575">
        <ele>500.5</ele>
        <time>2021-07-09T14:09:25Z</time>
      </trkpt>
      <trkpt lat="46.19037" lon="1.80993">
        <ele>483.68</ele>
        <time>2021-07-09T14:09:36Z</time>
      </trkpt>
      <trkpt lat="46.18895" lon="1.81299">
        <ele>466.86</ele>
        <time>2021-07-09T14:09:45Z</time>
      </trkpt>
      <trkpt lat="46.18816" lon="1.81525">
        <ele>455.8</ele>
        <time>2021-07-09T14:09:52Z</time>
      </trkpt>
      <trkpt lat="46.1876" lon="1.81866">
        <ele>441.86</ele>
        <time>2021-07-09T14:10:01Z</time>
      </trkpt>
      <trkpt lat="46.18687" lon="1.82168">
        <ele>429.85</ele>
        <time>2021-07-09T14:10:09Z</time>
      </trkpt>
      <trkpt lat="46.18608" lon="1.82516">
        <ele>416.39</ele>
        <time>2021-07-09T14:10:18Z</time>
      </trkpt>
      <trkpt lat="46.18593" lon="1.82842">
        <ele>413.98</ele>
        <time>2021-07-09T14:10:26Z</time>
      </trkpt>
      <trkpt lat="46.18562" lon="1.83291">
        <ele>411.58</ele>
        <time>2021-07-09T14:10:37Z</time>
      </trkpt>
      <trkpt lat="46.18479" lon="1.84268">
        <ele>399.57</ele>
        <time>2021-07-09T14:11:01Z</time>
      </trkpt>
      <trkpt lat="46.18453" lon="1.84814">
        <ele>387.07</ele>
        <time>2021-07-09T14:11:14Z</time>
      </trkpt>
      <trkpt lat="46.18475" lon="1.85378">
        <ele>374.57</ele>
        <time>2021-07-09T14:11:27Z</time>
      </trkpt>
      <trkpt lat="46.18487" lon="1.8587">
        <ele>372.65</ele>
        <time>2021-07-09T14:11:39Z</time>
      </trkpt>
      <trkpt lat="46.1847" lon="1.86306">
        <ele>386.59</ele>
        <time>2021-07-09T14:11:51Z</time>
      </trkpt>
      <trkpt lat="46.18398" lon="1.8687">
        <ele>395.24</ele>
        <time>2021-07-09T14:12:06Z</time>
      </trkpt>
      <trkpt lat="46.18312" lon="1.87392">
        <ele>395.72</ele>
        <time>2021-07-09T14:12:22Z</time>
      </trkpt>
      <trkpt lat="46.18212" lon="1.87976">
        <ele>391.87</ele>
        <time>2021-07-09T14:12:37Z</time>
      </trkpt>
      <trkpt lat="46.18068" lon="1.8859">
        <ele>401.01</ele>
        <time>2021-07-09T14:12:54Z</time>
      </trkpt>
      <trkpt lat="46.17878" lon="1.89365">
        <ele>401.01</ele>
        <time>2021-07-09T14:13:15Z</time>
      </trkpt>
      <trkpt lat="46.17789" lon="1.89747">
        <ele>394.28</ele>
        <time>2021-07-09T14:13:26Z</time>
      </trkpt>
      <trkpt lat="46.17768" lon="1.90013">
        <ele>394.28</ele>
        <time>2021-07-09T14:13:33Z</time>
      </trkpt>
      <trkpt lat="46.17805" lon="1.90279">
        <ele>394.28</ele>
        <time>2021-07-09T14:13:40Z</time>
      </trkpt>
      <trkpt lat="46.17936" lon="1.90921">
        <ele>384.18</ele>
        <time>2021-07-09T14:13:58Z</time>
      </trkpt>
      <trkpt lat="46.18046" lon="1.91376">
        <ele>370.73</ele>
        <time>2021-07-09T14:14:12Z</time>
      </trkpt>
      <trkpt lat="46.18201" lon="1.91784">
        <ele>364.48</ele>
        <time>2021-07-09T14:14:24Z</time>
      </trkpt>
      <trkpt lat="46.18359" lon="1.9216">
        <ele>360.63</ele>
        <time>2021-07-09T14:14:38Z</time>
      </trkpt>
      <trkpt lat="46.18482" lon="1.92468">
        <ele>351.98</ele>
        <time>2021-07-09T14:14:50Z</time>
      </trkpt>
      <trkpt lat="46.18534" lon="1.92598">
        <ele>349.58</ele>
        <time>2021-07-09T14:14:56Z</time>
      </trkpt>
      <trkpt lat="46.18539" lon="1.92612">
        <ele>350.54</ele>
        <time>2021-07-09T14:14:57Z</time>
      </trkpt>
      <trkpt lat="46.18545" lon="1.92626">
        <ele>351.02</ele>
        <time>2021-07-09T14:14:58Z</time>
      </trkpt>
      <trkpt lat="46.18551" lon="1.92641">
        <ele>351.98</ele>
        <time>2021-07-09T14:14:59Z</time>
      </trkpt>
      <trkpt lat="46.18557" lon="1.92655">
        <ele>352.46</ele>
        <time>2021-07-09T14:15:00Z</time>
      </trkpt>
      <trkpt lat="46.18563" lon="1.92671">
        <ele>352.46</ele>
        <time>2021-07-09T14:15:01Z</time>
      </trkpt>
      <trkpt lat="46.18624" lon="1.92826">
        <ele>354.38</ele>
        <time>2021-07-09T14:15:09Z</time>
      </trkpt>
      <trkpt lat="46.18746" lon="1.9313">
        <ele>352.94</ele>
        <time>2021-07-09T14:15:21Z</time>
      </trkpt>
      <trkpt lat="46.1883" lon="1.93404">
        <ele>347.17</ele>
        <time>2021-07-09T14:15:31Z</time>
      </trkpt>
      <trkpt lat="46.18857" lon="1.93704">
        <ele>339</ele>
        <time>2021-07-09T14:15:41Z</time>
      </trkpt>
      <trkpt lat="46.18872" lon="1.94046">
        <ele>328.91</ele>
        <time>2021-07-09T14:15:54Z</time>
      </trkpt>
      <trkpt lat="46.18883" lon="1.94282">
        <ele>326.02</ele>
        <time>2021-07-09T14:16:06Z</time>
      </trkpt>
      <trkpt lat="46.18887" lon="1.94372">
        <ele>326.5</ele>
        <time>2021-07-09T14:16:11Z</time>
      </trkpt>
      <trkpt lat="46.18896" lon="1.9455">
        <ele>334.2</ele>
        <time>2021-07-09T14:16:21Z</time>
      </trkpt>
      <trkpt lat="46.18908" lon="1.94777">
        <ele>342.37</ele>
        <time>2021-07-09T14:16:30Z</time>
      </trkpt>
      <trkpt lat="46.18952" lon="1.95026">
        <ele>351.98</ele>
        <time>2021-07-09T14:16:39Z</time>
      </trkpt>
      <trkpt lat="46.19037" lon="1.95204">
        <ele>360.63</ele>
        <time>2021-07-09T14:16:46Z</time>
      </trkpt>
      <trkpt lat="46.19166" lon="1.95323">
        <ele>369.28</ele>
        <time>2021-07-09T14:16:53Z</time>
      </trkpt>
      <trkpt lat="46.19428" lon="1.95471">
        <ele>384.18</ele>
        <time>2021-07-09T14:17:05Z</time>
      </trkpt>
      <trkpt lat="46.19564" lon="1.95618">
        <ele>392.84</ele>
        <time>2021-07-09T14:17:13Z</time>
      </trkpt>
      <trkpt lat="46.19671" lon="1.95814">
        <ele>400.53</ele>
        <time>2021-07-09T14:17:22Z</time>
      </trkpt>
      <trkpt lat="46.199" lon="1.96365">
        <ele>424.56</ele>
        <time>2021-07-09T14:17:43Z</time>
      </trkpt>
      <trkpt lat="46.19988" lon="1.9676">
        <ele>435.61</ele>
        <time>2021-07-09T14:17:55Z</time>
      </trkpt>
      <trkpt lat="46.20128" lon="1.97472">
        <ele>451</ele>
        <time>2021-07-09T14:18:18Z</time>
      </trkpt>
      <trkpt lat="46.20244" lon="1.97998">
        <ele>458.21</ele>
        <time>2021-07-09T14:18:33Z</time>
      </trkpt>
      <trkpt lat="46.20382" lon="1.98428">
        <ele>458.21</ele>
        <time>2021-07-09T14:18:44Z</time>
      </trkpt>
      <trkpt lat="46.20436" lon="1.98746">
        <ele>459.65</ele>
        <time>2021-07-09T14:18:53Z</time>
      </trkpt>
      <trkpt lat="46.20445" lon="1.9911">
        <ele>464.45</ele>
        <time>2021-07-09T14:19:02Z</time>
      </trkpt>
      <trkpt lat="46.20416" lon="1.99555">
        <ele>471.18</ele>
        <time>2021-07-09T14:19:13Z</time>
      </trkpt>
      <trkpt lat="46.20429" lon="2.00003">
        <ele>477.43</ele>
        <time>2021-07-09T14:19:23Z</time>
      </trkpt>
      <trkpt lat="46.20477" lon="2.00325">
        <ele>481.76</ele>
        <time>2021-07-09T14:19:32Z</time>
      </trkpt>
      <trkpt lat="46.20578" lon="2.00716">
        <ele>484.64</ele>
        <time>2021-07-09T14:19:42Z</time>
      </trkpt>
      <trkpt lat="46.20687" lon="2.01142">
        <ele>491.37</ele>
        <time>2021-07-09T14:19:53Z</time>
      </trkpt>
      <trkpt lat="46.20721" lon="2.01464">
        <ele>495.22</ele>
        <time>2021-07-09T14:20:01Z</time>
      </trkpt>
      <trkpt lat="46.20708" lon="2.0182">
        <ele>502.43</ele>
        <time>2021-07-09T14:20:10Z</time>
      </trkpt>
      <trkpt lat="46.20627" lon="2.02894">
        <ele>523.09</ele>
        <time>2021-07-09T14:20:37Z</time>
      </trkpt>
      <trkpt lat="46.20576" lon="2.03569">
        <ele>519.25</ele>
        <time>2021-07-09T14:20:53Z</time>
      </trkpt>
      <trkpt lat="46.20518" lon="2.0398">
        <ele>516.85</ele>
        <time>2021-07-09T14:21:03Z</time>
      </trkpt>
      <trkpt lat="46.20466" lon="2.04399">
        <ele>511.56</ele>
        <time>2021-07-09T14:21:13Z</time>
      </trkpt>
      <trkpt lat="46.20475" lon="2.04781">
        <ele>506.27</ele>
        <time>2021-07-09T14:21:22Z</time>
      </trkpt>
      <trkpt lat="46.20468" lon="2.05133">
        <ele>501.46</ele>
        <time>2021-07-09T14:21:30Z</time>
      </trkpt>
      <trkpt lat="46.20391" lon="2.06094">
        <ele>486.08</ele>
        <time>2021-07-09T14:21:52Z</time>
      </trkpt>
      <trkpt lat="46.20333" lon="2.06896">
        <ele>479.35</ele>
        <time>2021-07-09T14:22:11Z</time>
      </trkpt>
      <trkpt lat="46.20348" lon="2.07315">
        <ele>474.07</ele>
        <time>2021-07-09T14:22:21Z</time>
      </trkpt>
      <trkpt lat="46.20415" lon="2.07732">
        <ele>469.74</ele>
        <time>2021-07-09T14:22:31Z</time>
      </trkpt>
      <trkpt lat="46.20454" lon="2.08114">
        <ele>463.49</ele>
        <time>2021-07-09T14:22:40Z</time>
      </trkpt>
      <trkpt lat="46.20504" lon="2.08742">
        <ele>449.07</ele>
        <time>2021-07-09T14:22:55Z</time>
      </trkpt>
      <trkpt lat="46.20524" lon="2.09168">
        <ele>442.82</ele>
        <time>2021-07-09T14:23:05Z</time>
      </trkpt>
      <trkpt lat="46.20487" lon="2.09459">
        <ele>438.5</ele>
        <time>2021-07-09T14:23:12Z</time>
      </trkpt>
      <trkpt lat="46.20412" lon="2.09692">
        <ele>437.06</ele>
        <time>2021-07-09T14:23:18Z</time>
      </trkpt>
      <trkpt lat="46.20256" lon="2.10043">
        <ele>433.21</ele>
        <time>2021-07-09T14:23:28Z</time>
      </trkpt>
      <trkpt lat="46.20186" lon="2.10327">
        <ele>423.12</ele>
        <time>2021-07-09T14:23:35Z</time>
      </trkpt>
      <trkpt lat="46.20142" lon="2.10777">
        <ele>410.62</ele>
        <time>2021-07-09T14:23:45Z</time>
      </trkpt>
      <trkpt lat="46.20047" lon="2.11899">
        <ele>390.43</ele>
        <time>2021-07-09T14:24:10Z</time>
      </trkpt>
      <trkpt lat="46.19974" lon="2.12763">
        <ele>400.53</ele>
        <time>2021-07-09T14:24:30Z</time>
      </trkpt>
      <trkpt lat="46.19902" lon="2.13589">
        <ele>392.84</ele>
        <time>2021-07-09T14:24:50Z</time>
      </trkpt>
      <trkpt lat="46.19843" lon="2.14016">
        <ele>390.43</ele>
        <time>2021-07-09T14:25:00Z</time>
      </trkpt>
      <trkpt lat="46.19717" lon="2.14601">
        <ele>387.07</ele>
        <time>2021-07-09T14:25:14Z</time>
      </trkpt>
      <trkpt lat="46.19625" lon="2.1523">
        <ele>387.55</ele>
        <time>2021-07-09T14:25:29Z</time>
      </trkpt>
      <trkpt lat="46.19498" lon="2.16149">
        <ele>394.28</ele>
        <time>2021-07-09T14:25:51Z</time>
      </trkpt>
      <trkpt lat="46.19386" lon="2.1699">
        <ele>412.54</ele>
        <time>2021-07-09T14:26:11Z</time>
      </trkpt>
      <trkpt lat="46.19375" lon="2.17355">
        <ele>421.19</ele>
        <time>2021-07-09T14:26:20Z</time>
      </trkpt>
      <trkpt lat="46.19433" lon="2.17754">
        <ele>425.04</ele>
        <time>2021-07-09T14:26:29Z</time>
      </trkpt>
      <trkpt lat="46.19546" lon="2.18189">
        <ele>417.83</ele>
        <time>2021-07-09T14:26:41Z</time>
      </trkpt>
      <trkpt lat="46.19696" lon="2.18768">
        <ele>396.68</ele>
        <time>2021-07-09T14:26:56Z</time>
      </trkpt>
      <trkpt lat="46.1974" lon="2.19132">
        <ele>391.39</ele>
        <time>2021-07-09T14:27:05Z</time>
      </trkpt>
      <trkpt lat="46.19795" lon="2.20159">
        <ele>386.11</ele>
        <time>2021-07-09T14:27:30Z</time>
      </trkpt>
      <trkpt lat="46.19792" lon="2.20529">
        <ele>383.7</ele>
        <time>2021-07-09T14:27:39Z</time>
      </trkpt>
      <trkpt lat="46.1973" lon="2.20893">
        <ele>382.26</ele>
        <time>2021-07-09T14:27:48Z</time>
      </trkpt>
      <trkpt lat="46.19602" lon="2.21516">
        <ele>378.9</ele>
        <time>2021-07-09T14:28:03Z</time>
      </trkpt>
      <trkpt lat="46.1953" lon="2.21953">
        <ele>377.94</ele>
        <time>2021-07-09T14:28:14Z</time>
      </trkpt>
      <trkpt lat="46.19537" lon="2.22274">
        <ele>376.49</ele>
        <time>2021-07-09T14:28:22Z</time>
      </trkpt>
      <trkpt lat="46.19597" lon="2.22606">
        <ele>376.49</ele>
        <time>2021-07-09T14:28:31Z</time>
      </trkpt>
      <trkpt lat="46.19748" lon="2.23254">
        <ele>375.53</ele>
        <time>2021-07-09T14:28:48Z</time>
      </trkpt>
      <trkpt lat="46.19902" lon="2.24009">
        <ele>370.73</ele>
        <time>2021-07-09T14:29:07Z</time>
      </trkpt>
      <trkpt lat="46.19914" lon="2.24326">
        <ele>372.17</ele>
        <time>2021-07-09T14:29:16Z</time>
      </trkpt>
      <trkpt lat="46.19881" lon="2.2468">
        <ele>376.49</ele>
        <time>2021-07-09T14:29:25Z</time>
      </trkpt>
      <trkpt lat="46.19837" lon="2.25024">
        <ele>377.94</ele>
        <time>2021-07-09T14:29:34Z</time>
      </trkpt>
      <trkpt lat="46.19858" lon="2.25287">
        <ele>378.42</ele>
        <time>2021-07-09T14:29:41Z</time>
      </trkpt>
      <trkpt lat="46.19931" lon="2.25526">
        <ele>379.38</ele>
        <time>2021-07-09T14:29:48Z</time>
      </trkpt>
      <trkpt lat="46.20102" lon="2.2588">
        <ele>376.97</ele>
        <time>2021-07-09T14:29:59Z</time>
      </trkpt>
      <trkpt lat="46.20414" lon="2.26511">
        <ele>372.17</ele>
        <time>2021-07-09T14:30:18Z</time>
      </trkpt>
      <trkpt lat="46.20669" lon="2.27009">
        <ele>375.53</ele>
        <time>2021-07-09T14:30:33Z</time>
      </trkpt>
      <trkpt lat="46.21092" lon="2.27698">
        <ele>371.21</ele>
        <time>2021-07-09T14:30:55Z</time>
      </trkpt>
      <trkpt lat="46.21568" lon="2.285">
        <ele>372.17</ele>
        <time>2021-07-09T14:31:20Z</time>
      </trkpt>
      <trkpt lat="46.21778" lon="2.28973">
        <ele>373.13</ele>
        <time>2021-07-09T14:31:33Z</time>
      </trkpt>
      <trkpt lat="46.22055" lon="2.29623">
        <ele>380.82</ele>
        <time>2021-07-09T14:31:51Z</time>
      </trkpt>
      <trkpt lat="46.22203" lon="2.29881">
        <ele>383.7</ele>
        <time>2021-07-09T14:31:59Z</time>
      </trkpt>
      <trkpt lat="46.2243" lon="2.30153">
        <ele>389.95</ele>
        <time>2021-07-09T14:32:08Z</time>
      </trkpt>
      <trkpt lat="46.2264" lon="2.30437">
        <ele>400.05</ele>
        <time>2021-07-09T14:32:19Z</time>
      </trkpt>
      <trkpt lat="46.22995" lon="2.31004">
        <ele>410.62</ele>
        <time>2021-07-09T14:32:37Z</time>
      </trkpt>
      <trkpt lat="46.23515" lon="2.31846">
        <ele>421.68</ele>
        <time>2021-07-09T14:33:03Z</time>
      </trkpt>
      <trkpt lat="46.23693" lon="2.32222">
        <ele>415.91</ele>
        <time>2021-07-09T14:33:13Z</time>
      </trkpt>
      <trkpt lat="46.23831" lon="2.32623">
        <ele>406.29</ele>
        <time>2021-07-09T14:33:23Z</time>
      </trkpt>
      <trkpt lat="46.24023" lon="2.33247">
        <ele>399.08</ele>
        <time>2021-07-09T14:33:39Z</time>
      </trkpt>
      <trkpt lat="46.24204" lon="2.33683">
        <ele>402.45</ele>
        <time>2021-07-09T14:33:51Z</time>
      </trkpt>
      <trkpt lat="46.24602" lon="2.34572">
        <ele>414.47</ele>
        <time>2021-07-09T14:34:16Z</time>
      </trkpt>
      <trkpt lat="46.24823" lon="2.3501">
        <ele>423.6</ele>
        <time>2021-07-09T14:34:29Z</time>
      </trkpt>
      <trkpt lat="46.25019" lon="2.35256">
        <ele>429.85</ele>
        <time>2021-07-09T14:34:38Z</time>
      </trkpt>
      <trkpt lat="46.25498" lon="2.35787">
        <ele>445.71</ele>
        <time>2021-07-09T14:34:59Z</time>
      </trkpt>
      <trkpt lat="46.26054" lon="2.36401">
        <ele>449.55</ele>
        <time>2021-07-09T14:35:23Z</time>
      </trkpt>
      <trkpt lat="46.2633" lon="2.36743">
        <ele>447.63</ele>
        <time>2021-07-09T14:35:34Z</time>
      </trkpt>
      <trkpt lat="46.26563" lon="2.37118">
        <ele>443.31</ele>
        <time>2021-07-09T14:35:46Z</time>
      </trkpt>
      <trkpt lat="46.26976" lon="2.37805">
        <ele>446.67</ele>
        <time>2021-07-09T14:36:06Z</time>
      </trkpt>
      <trkpt lat="46.27521" lon="2.38711">
        <ele>448.11</ele>
        <time>2021-07-09T14:36:32Z</time>
      </trkpt>
      <trkpt lat="46.27901" lon="2.39342">
        <ele>457.24</ele>
        <time>2021-07-09T14:36:52Z</time>
      </trkpt>
      <trkpt lat="46.28211" lon="2.39854">
        <ele>450.52</ele>
        <time>2021-07-09T14:37:07Z</time>
      </trkpt>
      <trkpt lat="46.28617" lon="2.40529">
        <ele>463.01</ele>
        <time>2021-07-09T14:37:27Z</time>
      </trkpt>
      <trkpt lat="46.2885" lon="2.40949">
        <ele>464.93</ele>
        <time>2021-07-09T14:37:39Z</time>
      </trkpt>
      <trkpt lat="46.29006" lon="2.41346">
        <ele>468.3</ele>
        <time>2021-07-09T14:37:49Z</time>
      </trkpt>
      <trkpt lat="46.29354" lon="2.42311">
        <ele>475.03</ele>
        <time>2021-07-09T14:38:13Z</time>
      </trkpt>
      <trkpt lat="46.29697" lon="2.43223">
        <ele>485.12</ele>
        <time>2021-07-09T14:38:36Z</time>
      </trkpt>
      <trkpt lat="46.29891" lon="2.43574">
        <ele>481.28</ele>
        <time>2021-07-09T14:38:46Z</time>
      </trkpt>
      <trkpt lat="46.30181" lon="2.43984">
        <ele>466.86</ele>
        <time>2021-07-09T14:38:59Z</time>
      </trkpt>
      <trkpt lat="46.30378" lon="2.44342">
        <ele>451.96</ele>
        <time>2021-07-09T14:39:09Z</time>
      </trkpt>
      <trkpt lat="46.30515" lon="2.44697">
        <ele>440.42</ele>
        <time>2021-07-09T14:39:18Z</time>
      </trkpt>
      <trkpt lat="46.30676" lon="2.45241">
        <ele>448.11</ele>
        <time>2021-07-09T14:39:31Z</time>
      </trkpt>
      <trkpt lat="46.30942" lon="2.46141">
        <ele>444.27</ele>
        <time>2021-07-09T14:39:53Z</time>
      </trkpt>
      <trkpt lat="46.31139" lon="2.46763">
        <ele>424.56</ele>
        <time>2021-07-09T14:40:08Z</time>
      </trkpt>
      <trkpt lat="46.31373" lon="2.47326">
        <ele>407.74</ele>
        <time>2021-07-09T14:40:22Z</time>
      </trkpt>
      <trkpt lat="46.31505" lon="2.47755">
        <ele>402.93</ele>
        <time>2021-07-09T14:40:32Z</time>
      </trkpt>
      <trkpt lat="46.31584" lon="2.48143">
        <ele>398.6</ele>
        <time>2021-07-09T14:40:41Z</time>
      </trkpt>
      <trkpt lat="46.31632" lon="2.48619">
        <ele>394.76</ele>
        <time>2021-07-09T14:40:52Z</time>
      </trkpt>
      <trkpt lat="46.31683" lon="2.49522">
        <ele>388.99</ele>
        <time>2021-07-09T14:41:12Z</time>
      </trkpt>
      <trkpt lat="46.31731" lon="2.50048">
        <ele>390.43</ele>
        <time>2021-07-09T14:41:24Z</time>
      </trkpt>
      <trkpt lat="46.31837" lon="2.50593">
        <ele>380.82</ele>
        <time>2021-07-09T14:41:37Z</time>
      </trkpt>
      <trkpt lat="46.31977" lon="2.51264">
        <ele>364</ele>
        <time>2021-07-09T14:41:54Z</time>
      </trkpt>
      <trkpt lat="46.32135" lon="2.52038">
        <ele>345.25</ele>
        <time>2021-07-09T14:42:14Z</time>
      </trkpt>
      <trkpt lat="46.32227" lon="2.52362">
        <ele>338.52</ele>
        <time>2021-07-09T14:42:23Z</time>
      </trkpt>
      <trkpt lat="46.32523" lon="2.53199">
        <ele>317.37</ele>
        <time>2021-07-09T14:42:47Z</time>
      </trkpt>
      <trkpt lat="46.32644" lon="2.53412">
        <ele>309.2</ele>
        <time>2021-07-09T14:42:54Z</time>
      </trkpt>
      <trkpt lat="46.32806" lon="2.53571">
        <ele>301.99</ele>
        <time>2021-07-09T14:43:01Z</time>
      </trkpt>
      <trkpt lat="46.32985" lon="2.53667">
        <ele>303.43</ele>
        <time>2021-07-09T14:43:08Z</time>
      </trkpt>
      <trkpt lat="46.33166" lon="2.53692">
        <ele>305.84</ele>
        <time>2021-07-09T14:43:15Z</time>
      </trkpt>
      <trkpt lat="46.33308" lon="2.53692">
        <ele>304.39</ele>
        <time>2021-07-09T14:43:22Z</time>
      </trkpt>
      <trkpt lat="46.33356" lon="2.53693">
        <ele>304.88</ele>
        <time>2021-07-09T14:43:25Z</time>
      </trkpt>
      <trkpt lat="46.33371" lon="2.53697">
        <ele>305.36</ele>
        <time>2021-07-09T14:43:26Z</time>
      </trkpt>
      <trkpt lat="46.33384" lon="2.53704">
        <ele>305.36</ele>
        <time>2021-07-09T14:43:27Z</time>
      </trkpt>
      <trkpt lat="46.33397" lon="2.53712">
        <ele>304.88</ele>
        <time>2021-07-09T14:43:28Z</time>
      </trkpt>
      <trkpt lat="46.33409" lon="2.5372">
        <ele>304.39</ele>
        <time>2021-07-09T14:43:29Z</time>
      </trkpt>
      <trkpt lat="46.33432" lon="2.53743">
        <ele>303.43</ele>
        <time>2021-07-09T14:43:30Z</time>
      </trkpt>
      <trkpt lat="46.33432" lon="2.53743">
        <ele>302.95</ele>
        <time>2021-07-09T14:43:31Z</time>
      </trkpt>
      <trkpt lat="46.33442" lon="2.53757">
        <ele>303.43</ele>
        <time>2021-07-09T14:43:32Z</time>
      </trkpt>
      <trkpt lat="46.33464" lon="2.53788">
        <ele>302.95</ele>
        <time>2021-07-09T14:43:33Z</time>
      </trkpt>
      <trkpt lat="46.33464" lon="2.53788">
        <ele>302.95</ele>
        <time>2021-07-09T14:43:34Z</time>
      </trkpt>
      <trkpt lat="46.33479" lon="2.53826">
        <ele>302.47</ele>
        <time>2021-07-09T14:43:35Z</time>
      </trkpt>
      <trkpt lat="46.33485" lon="2.53847">
        <ele>302.95</ele>
        <time>2021-07-09T14:43:36Z</time>
      </trkpt>
      <trkpt lat="46.33489" lon="2.53867">
        <ele>302.47</ele>
        <time>2021-07-09T14:43:37Z</time>
      </trkpt>
      <trkpt lat="46.33489" lon="2.53867">
        <ele>302.95</ele>
        <time>2021-07-09T14:43:38Z</time>
      </trkpt>
      <trkpt lat="46.33492" lon="2.53887">
        <ele>303.91</ele>
        <time>2021-07-09T14:43:39Z</time>
      </trkpt>
      <trkpt lat="46.33492" lon="2.53908">
        <ele>303.91</ele>
        <time>2021-07-09T14:43:40Z</time>
      </trkpt>
      <trkpt lat="46.33492" lon="2.53928">
        <ele>304.88</ele>
        <time>2021-07-09T14:43:41Z</time>
      </trkpt>
      <trkpt lat="46.33487" lon="2.5404">
        <ele>307.28</ele>
        <time>2021-07-09T14:43:47Z</time>
      </trkpt>
      <trkpt lat="46.33471" lon="2.54093">
        <ele>307.28</ele>
        <time>2021-07-09T14:43:50Z</time>
      </trkpt>
      <trkpt lat="46.33475" lon="2.54119">
        <ele>307.76</ele>
        <time>2021-07-09T14:43:51Z</time>
      </trkpt>
      <trkpt lat="46.33475" lon="2.54119">
        <ele>307.76</ele>
        <time>2021-07-09T14:43:52Z</time>
      </trkpt>
      <trkpt lat="46.33471" lon="2.54131">
        <ele>308.72</ele>
        <time>2021-07-09T14:43:53Z</time>
      </trkpt>
      <trkpt lat="46.33468" lon="2.54143">
        <ele>309.2</ele>
        <time>2021-07-09T14:43:54Z</time>
      </trkpt>
      <trkpt lat="46.33458" lon="2.54184">
        <ele>309.2</ele>
        <time>2021-07-09T14:43:56Z</time>
      </trkpt>
      <trkpt lat="46.33458" lon="2.54184">
        <ele>309.2</ele>
        <time>2021-07-09T14:43:57Z</time>
      </trkpt>
      <trkpt lat="46.33456" lon="2.54194">
        <ele>308.72</ele>
        <time>2021-07-09T14:43:58Z</time>
      </trkpt>
      <trkpt lat="46.3346" lon="2.54212">
        <ele>307.76</ele>
        <time>2021-07-09T14:43:59Z</time>
      </trkpt>
      <trkpt lat="46.33463" lon="2.54229">
        <ele>307.76</ele>
        <time>2021-07-09T14:44:00Z</time>
      </trkpt>
      <trkpt lat="46.33467" lon="2.54244">
        <ele>307.76</ele>
        <time>2021-07-09T14:44:01Z</time>
      </trkpt>
      <trkpt lat="46.33473" lon="2.54259">
        <ele>307.28</ele>
        <time>2021-07-09T14:44:02Z</time>
      </trkpt>
      <trkpt lat="46.33571" lon="2.54498">
        <ele>301.99</ele>
        <time>2021-07-09T14:44:15Z</time>
      </trkpt>
      <trkpt lat="46.33691" lon="2.54825">
        <ele>288.05</ele>
        <time>2021-07-09T14:44:31Z</time>
      </trkpt>
      <trkpt lat="46.33734" lon="2.55063">
        <ele>280.36</ele>
        <time>2021-07-09T14:44:41Z</time>
      </trkpt>
      <trkpt lat="46.33754" lon="2.55412">
        <ele>271.23</ele>
        <time>2021-07-09T14:44:56Z</time>
      </trkpt>
      <trkpt lat="46.33782" lon="2.56067">
        <ele>251.52</ele>
        <time>2021-07-09T14:45:25Z</time>
      </trkpt>
      <trkpt lat="46.33784" lon="2.56194">
        <ele>249.12</ele>
        <time>2021-07-09T14:45:33Z</time>
      </trkpt>
      <trkpt lat="46.33784" lon="2.56203">
        <ele>249.12</ele>
        <time>2021-07-09T14:45:34Z</time>
      </trkpt>
      <trkpt lat="46.33784" lon="2.56211">
        <ele>248.64</ele>
        <time>2021-07-09T14:45:35Z</time>
      </trkpt>
      <trkpt lat="46.33782" lon="2.56219">
        <ele>248.16</ele>
        <time>2021-07-09T14:45:36Z</time>
      </trkpt>
      <trkpt lat="46.33779" lon="2.56223">
        <ele>248.16</ele>
        <time>2021-07-09T14:45:37Z</time>
      </trkpt>
      <trkpt lat="46.33776" lon="2.56228">
        <ele>248.16</ele>
        <time>2021-07-09T14:45:38Z</time>
      </trkpt>
      <trkpt lat="46.33779" lon="2.56237">
        <ele>248.16</ele>
        <time>2021-07-09T14:45:39Z</time>
      </trkpt>
      <trkpt lat="46.3378" lon="2.56241">
        <ele>247.68</ele>
        <time>2021-07-09T14:45:40Z</time>
      </trkpt>
      <trkpt lat="46.3378" lon="2.56241">
        <ele>247.68</ele>
        <time>2021-07-09T14:45:41Z</time>
      </trkpt>
      <trkpt lat="46.33789" lon="2.56258">
        <ele>247.68</ele>
        <time>2021-07-09T14:45:42Z</time>
      </trkpt>
      <trkpt lat="46.3379" lon="2.56268">
        <ele>247.2</ele>
        <time>2021-07-09T14:45:43Z</time>
      </trkpt>
      <trkpt lat="46.33791" lon="2.56291">
        <ele>247.2</ele>
        <time>2021-07-09T14:45:44Z</time>
      </trkpt>
      <trkpt lat="46.33796" lon="2.56443">
        <ele>245.27</ele>
        <time>2021-07-09T14:45:55Z</time>
      </trkpt>
      <trkpt lat="46.33809" lon="2.56763">
        <ele>236.14</ele>
        <time>2021-07-09T14:46:14Z</time>
      </trkpt>
      <trkpt lat="46.33811" lon="2.56822">
        <ele>232.78</ele>
        <time>2021-07-09T14:46:19Z</time>
      </trkpt>
      <trkpt lat="46.33812" lon="2.56832">
        <ele>232.78</ele>
        <time>2021-07-09T14:46:20Z</time>
      </trkpt>
      <trkpt lat="46.33812" lon="2.5684">
        <ele>232.3</ele>
        <time>2021-07-09T14:46:21Z</time>
      </trkpt>
      <trkpt lat="46.33802" lon="2.56853">
        <ele>232.3</ele>
        <time>2021-07-09T14:46:23Z</time>
      </trkpt>
      <trkpt lat="46.338" lon="2.5686">
        <ele>232.3</ele>
        <time>2021-07-09T14:46:24Z</time>
      </trkpt>
      <trkpt lat="46.33802" lon="2.56869">
        <ele>231.81</ele>
        <time>2021-07-09T14:46:25Z</time>
      </trkpt>
      <trkpt lat="46.33804" lon="2.56874">
        <ele>231.33</ele>
        <time>2021-07-09T14:46:26Z</time>
      </trkpt>
      <trkpt lat="46.33809" lon="2.56878">
        <ele>230.85</ele>
        <time>2021-07-09T14:46:27Z</time>
      </trkpt>
      <trkpt lat="46.33814" lon="2.56904">
        <ele>230.37</ele>
        <time>2021-07-09T14:46:28Z</time>
      </trkpt>
      <trkpt lat="46.33814" lon="2.56904">
        <ele>230.37</ele>
        <time>2021-07-09T14:46:29Z</time>
      </trkpt>
      <trkpt lat="46.33816" lon="2.56915">
        <ele>229.89</ele>
        <time>2021-07-09T14:46:30Z</time>
      </trkpt>
      <trkpt lat="46.33823" lon="2.57071">
        <ele>224.12</ele>
        <time>2021-07-09T14:46:40Z</time>
      </trkpt>
      <trkpt lat="46.33834" lon="2.57319">
        <ele>218.36</ele>
        <time>2021-07-09T14:46:54Z</time>
      </trkpt>
      <trkpt lat="46.33836" lon="2.57384">
        <ele>218.84</ele>
        <time>2021-07-09T14:47:01Z</time>
      </trkpt>
      <trkpt lat="46.33836" lon="2.57404">
        <ele>218.84</ele>
        <time>2021-07-09T14:47:06Z</time>
      </trkpt>
      <trkpt lat="46.33837" lon="2.57412">
        <ele>218.36</ele>
        <time>2021-07-09T14:47:07Z</time>
      </trkpt>
      <trkpt lat="46.33837" lon="2.57419">
        <ele>218.36</ele>
        <time>2021-07-09T14:47:08Z</time>
      </trkpt>
      <trkpt lat="46.33837" lon="2.57426">
        <ele>218.36</ele>
        <time>2021-07-09T14:47:09Z</time>
      </trkpt>
      <trkpt lat="46.33818" lon="2.57443">
        <ele>217.88</ele>
        <time>2021-07-09T14:47:10Z</time>
      </trkpt>
      <trkpt lat="46.33818" lon="2.57443">
        <ele>217.4</ele>
        <time>2021-07-09T14:47:11Z</time>
      </trkpt>
      <trkpt lat="46.33812" lon="2.57443">
        <ele>217.4</ele>
        <time>2021-07-09T14:47:12Z</time>
      </trkpt>
      <trkpt lat="46.33805" lon="2.57444">
        <ele>216.91</ele>
        <time>2021-07-09T14:47:13Z</time>
      </trkpt>
      <trkpt lat="46.33725" lon="2.57446">
        <ele>214.03</ele>
        <time>2021-07-09T14:47:26Z</time>
      </trkpt>
      <trkpt lat="46.33702" lon="2.57447">
        <ele>213.55</ele>
        <time>2021-07-09T14:47:40Z</time>
      </trkpt>
      <trkpt lat="46.336" lon="2.57447">
        <ele>215.95</ele>
        <time>2021-07-09T14:47:50Z</time>
      </trkpt>
      <trkpt lat="46.33456" lon="2.57434">
        <ele>218.36</ele>
        <time>2021-07-09T14:48:01Z</time>
      </trkpt>
      <trkpt lat="46.33428" lon="2.57434">
        <ele>218.36</ele>
        <time>2021-07-09T14:48:04Z</time>
      </trkpt>
      <trkpt lat="46.33417" lon="2.57436">
        <ele>219.8</ele>
        <time>2021-07-09T14:48:05Z</time>
      </trkpt>
      <trkpt lat="46.33411" lon="2.57439">
        <ele>220.76</ele>
        <time>2021-07-09T14:48:06Z</time>
      </trkpt>
      <trkpt lat="46.33393" lon="2.57448">
        <ele>220.28</ele>
        <time>2021-07-09T14:48:07Z</time>
      </trkpt>
      <trkpt lat="46.33393" lon="2.57448">
        <ele>220.28</ele>
        <time>2021-07-09T14:48:08Z</time>
      </trkpt>
      <trkpt lat="46.33382" lon="2.57456">
        <ele>219.8</ele>
        <time>2021-07-09T14:48:09Z</time>
      </trkpt>
      <trkpt lat="46.33264" lon="2.57566">
        <ele>229.41</ele>
        <time>2021-07-09T14:48:20Z</time>
      </trkpt>
      <trkpt lat="46.33138" lon="2.57686">
        <ele>235.18</ele>
        <time>2021-07-09T14:48:34Z</time>
      </trkpt>
      <trkpt lat="46.33045" lon="2.57805">
        <ele>238.06</ele>
        <time>2021-07-09T14:48:45Z</time>
      </trkpt>
      <trkpt lat="46.33034" lon="2.57833">
        <ele>238.54</ele>
        <time>2021-07-09T14:48:48Z</time>
      </trkpt>
      <trkpt lat="46.33031" lon="2.5784">
        <ele>238.54</ele>
        <time>2021-07-09T14:48:49Z</time>
      </trkpt>
      <trkpt lat="46.33025" lon="2.57843">
        <ele>238.54</ele>
        <time>2021-07-09T14:48:50Z</time>
      </trkpt>
      <trkpt lat="46.33023" lon="2.57855">
        <ele>238.06</ele>
        <time>2021-07-09T14:48:51Z</time>
      </trkpt>
      <trkpt lat="46.33022" lon="2.57856">
        <ele>238.06</ele>
        <time>2021-07-09T14:48:52Z</time>
      </trkpt>
      <trkpt lat="46.3302" lon="2.57863">
        <ele>237.58</ele>
        <time>2021-07-09T14:48:53Z</time>
      </trkpt>
      <trkpt lat="46.33015" lon="2.57881">
        <ele>237.1</ele>
        <time>2021-07-09T14:48:54Z</time>
      </trkpt>
      <trkpt lat="46.33015" lon="2.57881">
        <ele>236.62</ele>
        <time>2021-07-09T14:48:55Z</time>
      </trkpt>
      <trkpt lat="46.33012" lon="2.57892">
        <ele>236.14</ele>
        <time>2021-07-09T14:48:56Z</time>
      </trkpt>
      <trkpt lat="46.32949" lon="2.58094">
        <ele>232.3</ele>
        <time>2021-07-09T14:49:11Z</time>
      </trkpt>
      <trkpt lat="46.32945" lon="2.58101">
        <ele>231.81</ele>
        <time>2021-07-09T14:49:12Z</time>
      </trkpt>
      <trkpt lat="46.32945" lon="2.58101">
        <ele>231.81</ele>
        <time>2021-07-09T14:49:13Z</time>
      </trkpt>
      <trkpt lat="46.32943" lon="2.58116">
        <ele>231.33</ele>
        <time>2021-07-09T14:49:14Z</time>
      </trkpt>
      <trkpt lat="46.32943" lon="2.58116">
        <ele>231.33</ele>
        <time>2021-07-09T14:49:15Z</time>
      </trkpt>
      <trkpt lat="46.32941" lon="2.58124">
        <ele>230.85</ele>
        <time>2021-07-09T14:49:16Z</time>
      </trkpt>
      <trkpt lat="46.32938" lon="2.58132">
        <ele>230.85</ele>
        <time>2021-07-09T14:49:17Z</time>
      </trkpt>
      <trkpt lat="46.32936" lon="2.58142">
        <ele>230.85</ele>
        <time>2021-07-09T14:49:18Z</time>
      </trkpt>
      <trkpt lat="46.32933" lon="2.58153">
        <ele>230.85</ele>
        <time>2021-07-09T14:49:19Z</time>
      </trkpt>
      <trkpt lat="46.32918" lon="2.58196">
        <ele>230.37</ele>
        <time>2021-07-09T14:49:23Z</time>
      </trkpt>
      <trkpt lat="46.32915" lon="2.58205">
        <ele>230.37</ele>
        <time>2021-07-09T14:49:24Z</time>
      </trkpt>
      <trkpt lat="46.32912" lon="2.58212">
        <ele>230.37</ele>
        <time>2021-07-09T14:49:25Z</time>
      </trkpt>
      <trkpt lat="46.32897" lon="2.58211">
        <ele>230.37</ele>
        <time>2021-07-09T14:49:27Z</time>
      </trkpt>
      <trkpt lat="46.32893" lon="2.58216">
        <ele>230.85</ele>
        <time>2021-07-09T14:49:28Z</time>
      </trkpt>
      <trkpt lat="46.32889" lon="2.58221">
        <ele>231.33</ele>
        <time>2021-07-09T14:49:29Z</time>
      </trkpt>
      <trkpt lat="46.3289" lon="2.58232">
        <ele>231.33</ele>
        <time>2021-07-09T14:49:30Z</time>
      </trkpt>
      <trkpt lat="46.3289" lon="2.58232">
        <ele>231.81</ele>
        <time>2021-07-09T14:49:31Z</time>
      </trkpt>
      <trkpt lat="46.32885" lon="2.58252">
        <ele>231.81</ele>
        <time>2021-07-09T14:49:32Z</time>
      </trkpt>
      <trkpt lat="46.32885" lon="2.58252">
        <ele>232.3</ele>
        <time>2021-07-09T14:49:33Z</time>
      </trkpt>
      <trkpt lat="46.32879" lon="2.58257">
        <ele>232.78</ele>
        <time>2021-07-09T14:49:34Z</time>
      </trkpt>
      <trkpt lat="46.32873" lon="2.58264">
        <ele>233.74</ele>
        <time>2021-07-09T14:49:35Z</time>
      </trkpt>
      <trkpt lat="46.32815" lon="2.58347">
        <ele>239.02</ele>
        <time>2021-07-09T14:49:44Z</time>
      </trkpt>
      <trkpt lat="46.32811" lon="2.58355">
        <ele>239.51</ele>
        <time>2021-07-09T14:49:45Z</time>
      </trkpt>
      <trkpt lat="46.32809" lon="2.58362">
        <ele>239.99</ele>
        <time>2021-07-09T14:49:46Z</time>
      </trkpt>
      <trkpt lat="46.32807" lon="2.58367">
        <ele>239.99</ele>
        <time>2021-07-09T14:49:55Z</time>
      </trkpt>
      <trkpt lat="46.32797" lon="2.58394">
        <ele>241.43</ele>
        <time>2021-07-09T14:50:12Z</time>
      </trkpt>
      <trkpt lat="46.32795" lon="2.58414">
        <ele>241.91</ele>
        <time>2021-07-09T14:50:14Z</time>
      </trkpt>
      <trkpt lat="46.32795" lon="2.58425">
        <ele>242.39</ele>
        <time>2021-07-09T14:50:15Z</time>
      </trkpt>
      <trkpt lat="46.32795" lon="2.58439">
        <ele>243.35</ele>
        <time>2021-07-09T14:50:16Z</time>
      </trkpt>
      <trkpt lat="46.32795" lon="2.58455">
        <ele>243.83</ele>
        <time>2021-07-09T14:50:17Z</time>
      </trkpt>
      <trkpt lat="46.32795" lon="2.58472">
        <ele>244.31</ele>
        <time>2021-07-09T14:50:18Z</time>
      </trkpt>
      <trkpt lat="46.32797" lon="2.58486">
        <ele>244.79</ele>
        <time>2021-07-09T14:50:19Z</time>
      </trkpt>
      <trkpt lat="46.32804" lon="2.58516">
        <ele>245.27</ele>
        <time>2021-07-09T14:50:20Z</time>
      </trkpt>
      <trkpt lat="46.3281" lon="2.58531">
        <ele>245.75</ele>
        <time>2021-07-09T14:50:21Z</time>
      </trkpt>
      <trkpt lat="46.32815" lon="2.58547">
        <ele>246.23</ele>
        <time>2021-07-09T14:50:22Z</time>
      </trkpt>
      <trkpt lat="46.32821" lon="2.58563">
        <ele>247.68</ele>
        <time>2021-07-09T14:50:23Z</time>
      </trkpt>
      <trkpt lat="46.32827" lon="2.58581">
        <ele>249.12</ele>
        <time>2021-07-09T14:50:24Z</time>
      </trkpt>
      <trkpt lat="46.32839" lon="2.58612">
        <ele>251.52</ele>
        <time>2021-07-09T14:50:27Z</time>
      </trkpt>
      <trkpt lat="46.32845" lon="2.58642">
        <ele>252.96</ele>
        <time>2021-07-09T14:50:28Z</time>
      </trkpt>
      <trkpt lat="46.32845" lon="2.58658">
        <ele>253.44</ele>
        <time>2021-07-09T14:50:29Z</time>
      </trkpt>
      <trkpt lat="46.32845" lon="2.58674">
        <ele>253.93</ele>
        <time>2021-07-09T14:50:30Z</time>
      </trkpt>
      <trkpt lat="46.32845" lon="2.58674">
        <ele>254.41</ele>
        <time>2021-07-09T14:50:31Z</time>
      </trkpt>
      <trkpt lat="46.32844" lon="2.58689">
        <ele>254.41</ele>
        <time>2021-07-09T14:50:32Z</time>
      </trkpt>
      <trkpt lat="46.32839" lon="2.58704">
        <ele>255.85</ele>
        <time>2021-07-09T14:50:33Z</time>
      </trkpt>
      <trkpt lat="46.32834" lon="2.5872">
        <ele>256.81</ele>
        <time>2021-07-09T14:50:34Z</time>
      </trkpt>
      <trkpt lat="46.3283" lon="2.58735">
        <ele>258.25</ele>
        <time>2021-07-09T14:50:35Z</time>
      </trkpt>
      <trkpt lat="46.32826" lon="2.5875">
        <ele>258.25</ele>
        <time>2021-07-09T14:50:36Z</time>
      </trkpt>
      <trkpt lat="46.32818" lon="2.58763">
        <ele>259.21</ele>
        <time>2021-07-09T14:50:37Z</time>
      </trkpt>
      <trkpt lat="46.3281" lon="2.58776">
        <ele>260.17</ele>
        <time>2021-07-09T14:50:38Z</time>
      </trkpt>
      <trkpt lat="46.32802" lon="2.58789">
        <ele>261.62</ele>
        <time>2021-07-09T14:50:39Z</time>
      </trkpt>
      <trkpt lat="46.32784" lon="2.58812">
        <ele>263.06</ele>
        <time>2021-07-09T14:50:40Z</time>
      </trkpt>
      <trkpt lat="46.32774" lon="2.58821">
        <ele>263.06</ele>
        <time>2021-07-09T14:50:41Z</time>
      </trkpt>
      <trkpt lat="46.32774" lon="2.58821">
        <ele>263.06</ele>
        <time>2021-07-09T14:50:42Z</time>
      </trkpt>
      <trkpt lat="46.32765" lon="2.58829">
        <ele>263.06</ele>
        <time>2021-07-09T14:50:43Z</time>
      </trkpt>
      <trkpt lat="46.32657" lon="2.58897">
        <ele>264.5</ele>
        <time>2021-07-09T14:50:55Z</time>
      </trkpt>
      <trkpt lat="46.32642" lon="2.58887">
        <ele>264.5</ele>
        <time>2021-07-09T14:50:57Z</time>
      </trkpt>
      <trkpt lat="46.32638" lon="2.5889">
        <ele>264.5</ele>
        <time>2021-07-09T14:50:58Z</time>
      </trkpt>
      <trkpt lat="46.32634" lon="2.58904">
        <ele>264.98</ele>
        <time>2021-07-09T14:50:59Z</time>
      </trkpt>
      <trkpt lat="46.32634" lon="2.58909">
        <ele>264.98</ele>
        <time>2021-07-09T14:51:00Z</time>
      </trkpt>
      <trkpt lat="46.32634" lon="2.58909">
        <ele>264.5</ele>
        <time>2021-07-09T14:51:01Z</time>
      </trkpt>
      <trkpt lat="46.32638" lon="2.58915">
        <ele>264.02</ele>
        <time>2021-07-09T14:51:02Z</time>
      </trkpt>
      <trkpt lat="46.32641" lon="2.58917">
        <ele>263.54</ele>
        <time>2021-07-09T14:51:03Z</time>
      </trkpt>
      <trkpt lat="46.32655" lon="2.58917">
        <ele>263.06</ele>
        <time>2021-07-09T14:51:04Z</time>
      </trkpt>
      <trkpt lat="46.3266" lon="2.58923">
        <ele>262.58</ele>
        <time>2021-07-09T14:51:05Z</time>
      </trkpt>
      <trkpt lat="46.3266" lon="2.58923">
        <ele>262.1</ele>
        <time>2021-07-09T14:51:06Z</time>
      </trkpt>
      <trkpt lat="46.32666" lon="2.58929">
        <ele>262.1</ele>
        <time>2021-07-09T14:51:07Z</time>
      </trkpt>
      <trkpt lat="46.32675" lon="2.58949">
        <ele>261.62</ele>
        <time>2021-07-09T14:51:08Z</time>
      </trkpt>
      <trkpt lat="46.32678" lon="2.58958">
        <ele>261.14</ele>
        <time>2021-07-09T14:51:09Z</time>
      </trkpt>
      <trkpt lat="46.32706" lon="2.59036">
        <ele>254.41</ele>
        <time>2021-07-09T14:51:17Z</time>
      </trkpt>
      <trkpt lat="46.3271" lon="2.59047">
        <ele>253.44</ele>
        <time>2021-07-09T14:51:18Z</time>
      </trkpt>
      <trkpt lat="46.32772" lon="2.59182">
        <ele>235.18</ele>
        <time>2021-07-09T14:51:29Z</time>
      </trkpt>
      <trkpt lat="46.32815" lon="2.59308">
        <ele>225.09</ele>
        <time>2021-07-09T14:51:38Z</time>
      </trkpt>
      <trkpt lat="46.3282" lon="2.59323">
        <ele>223.64</ele>
        <time>2021-07-09T14:51:39Z</time>
      </trkpt>
      <trkpt lat="46.32825" lon="2.59338">
        <ele>222.2</ele>
        <time>2021-07-09T14:51:40Z</time>
      </trkpt>
      <trkpt lat="46.32826" lon="2.59354">
        <ele>220.76</ele>
        <time>2021-07-09T14:51:41Z</time>
      </trkpt>
      <trkpt lat="46.32855" lon="2.59499">
        <ele>210.19</ele>
        <time>2021-07-09T14:51:51Z</time>
      </trkpt>
      <trkpt lat="46.32892" lon="2.59655">
        <ele>206.82</ele>
        <time>2021-07-09T14:52:04Z</time>
      </trkpt>
      <trkpt lat="46.32889" lon="2.59663">
        <ele>206.82</ele>
        <time>2021-07-09T14:52:05Z</time>
      </trkpt>
      <trkpt lat="46.32886" lon="2.5967">
        <ele>206.82</ele>
        <time>2021-07-09T14:52:06Z</time>
      </trkpt>
      <trkpt lat="46.32881" lon="2.59685">
        <ele>206.82</ele>
        <time>2021-07-09T14:52:07Z</time>
      </trkpt>
      <trkpt lat="46.32878" lon="2.59688">
        <ele>206.82</ele>
        <time>2021-07-09T14:52:08Z</time>
      </trkpt>
      <trkpt lat="46.32878" lon="2.59688">
        <ele>206.82</ele>
        <time>2021-07-09T14:52:09Z</time>
      </trkpt>
      <trkpt lat="46.32874" lon="2.59693">
        <ele>206.82</ele>
        <time>2021-07-09T14:52:10Z</time>
      </trkpt>
      <trkpt lat="46.32869" lon="2.59697">
        <ele>206.34</ele>
        <time>2021-07-09T14:52:11Z</time>
      </trkpt>
      <trkpt lat="46.32861" lon="2.59706">
        <ele>206.82</ele>
        <time>2021-07-09T14:52:13Z</time>
      </trkpt>
      <trkpt lat="46.32857" lon="2.59711">
        <ele>206.34</ele>
        <time>2021-07-09T14:52:14Z</time>
      </trkpt>
      <trkpt lat="46.32854" lon="2.59714">
        <ele>205.86</ele>
        <time>2021-07-09T14:52:15Z</time>
      </trkpt>
      <trkpt lat="46.32855" lon="2.59731">
        <ele>205.86</ele>
        <time>2021-07-09T14:52:16Z</time>
      </trkpt>
      <trkpt lat="46.32855" lon="2.59731">
        <ele>205.38</ele>
        <time>2021-07-09T14:52:17Z</time>
      </trkpt>
      <trkpt lat="46.32858" lon="2.59734">
        <ele>204.9</ele>
        <time>2021-07-09T14:52:18Z</time>
      </trkpt>
      <trkpt lat="46.32863" lon="2.59738">
        <ele>204.42</ele>
        <time>2021-07-09T14:52:19Z</time>
      </trkpt>
      <trkpt lat="46.32941" lon="2.59819">
        <ele>203.94</ele>
        <time>2021-07-09T14:52:29Z</time>
      </trkpt>
      <trkpt lat="46.33088" lon="2.5998">
        <ele>205.86</ele>
        <time>2021-07-09T14:52:46Z</time>
      </trkpt>
      <trkpt lat="46.33098" lon="2.5999">
        <ele>206.34</ele>
        <time>2021-07-09T14:52:48Z</time>
      </trkpt>
      <trkpt lat="46.331" lon="2.59995">
        <ele>206.82</ele>
        <time>2021-07-09T14:52:49Z</time>
      </trkpt>
      <trkpt lat="46.33102" lon="2.6">
        <ele>206.82</ele>
        <time>2021-07-09T14:52:50Z</time>
      </trkpt>
      <trkpt lat="46.33103" lon="2.60003">
        <ele>206.34</ele>
        <time>2021-07-09T14:52:51Z</time>
      </trkpt>
      <trkpt lat="46.33105" lon="2.60011">
        <ele>206.34</ele>
        <time>2021-07-09T14:52:52Z</time>
      </trkpt>
      <trkpt lat="46.33102" lon="2.60013">
        <ele>206.34</ele>
        <time>2021-07-09T14:52:53Z</time>
      </trkpt>
      <trkpt lat="46.33069" lon="2.60096">
        <ele>205.86</ele>
        <time>2021-07-09T14:53:01Z</time>
      </trkpt>
      <trkpt lat="46.32992" lon="2.60268">
        <ele>202.98</ele>
        <time>2021-07-09T14:53:10Z</time>
      </trkpt>
      <trkpt lat="46.32931" lon="2.60444">
        <ele>205.86</ele>
        <time>2021-07-09T14:53:21Z</time>
      </trkpt>
      <trkpt lat="46.32915" lon="2.60502">
        <ele>208.74</ele>
        <time>2021-07-09T14:53:27Z</time>
      </trkpt>
      <trkpt lat="46.32908" lon="2.6053">
        <ele>209.7</ele>
        <time>2021-07-09T14:53:47Z</time>
      </trkpt>
      <trkpt lat="46.32882" lon="2.60617">
        <ele>210.67</ele>
        <time>2021-07-09T14:53:56Z</time>
      </trkpt>
      <trkpt lat="46.32846" lon="2.6075">
        <ele>211.63</ele>
        <time>2021-07-09T14:54:08Z</time>
      </trkpt>
      <trkpt lat="46.32835" lon="2.60788">
        <ele>213.55</ele>
        <time>2021-07-09T14:54:15Z</time>
      </trkpt>
      <trkpt lat="46.32827" lon="2.60818">
        <ele>212.59</ele>
        <time>2021-07-09T14:54:39Z</time>
      </trkpt>
      <trkpt lat="46.32822" lon="2.60842">
        <ele>213.55</ele>
        <time>2021-07-09T14:54:42Z</time>
      </trkpt>
      <trkpt lat="46.32821" lon="2.60849">
        <ele>213.55</ele>
        <time>2021-07-09T14:54:43Z</time>
      </trkpt>
      <trkpt lat="46.3282" lon="2.60856">
        <ele>213.07</ele>
        <time>2021-07-09T14:54:44Z</time>
      </trkpt>
      <trkpt lat="46.32808" lon="2.60867">
        <ele>212.59</ele>
        <time>2021-07-09T14:54:45Z</time>
      </trkpt>
      <trkpt lat="46.32802" lon="2.60867">
        <ele>212.59</ele>
        <time>2021-07-09T14:54:46Z</time>
      </trkpt>
      <trkpt lat="46.32796" lon="2.60866">
        <ele>212.11</ele>
        <time>2021-07-09T14:54:47Z</time>
      </trkpt>
      <trkpt lat="46.32781" lon="2.60866">
        <ele>211.63</ele>
        <time>2021-07-09T14:54:48Z</time>
      </trkpt>
      <trkpt lat="46.32781" lon="2.60866">
        <ele>212.59</ele>
        <time>2021-07-09T14:54:49Z</time>
      </trkpt>
    </trkseg>
  </trk>
</gpx>